<?xml version='1.0' encoding='UTF-8'?><gpx version="1.1" creator="JPX - https://github.com/jenetics/jpx" xmlns="http://www.topografix.com/GPX/1/1"><trk><trkseg><trkpt lat="43.15954210172215" lon="12.331511557717826"><ele>276.0</ele><time>2026-04-26T06:33:41Z</time></trkpt><trkpt lat="43.159553643837796" lon="12.331414576331415"><ele>276.0</ele><time>2026-04-26T06:33:43Z</time></trkpt><trkpt lat="43.15955083124877" lon="12.3313021469936"><ele>276.0</ele><time>2026-04-26T06:33:46Z</time></trkpt><trkpt lat="43.15961820253619" lon="12.331130305374396"><ele>276.0</ele><time>2026-04-26T06:33:48Z</time></trkpt><trkpt lat="43.15967017160036" lon="12.331066637664428"><ele>276.0</ele><time>2026-04-26T06:33:49Z</time></trkpt><trkpt lat="43.159777769833276" lon="12.330891175928524"><ele>276.25</ele><time>2026-04-26T06:33:50Z</time></trkpt><trkpt lat="43.159895436545945" lon="12.330777419741189"><ele>276.5</ele><time>2026-04-26T06:33:51Z</time></trkpt><trkpt lat="43.15998867730911" lon="12.330643503984607"><ele>276.75</ele><time>2026-04-26T06:33:52Z</time></trkpt><trkpt lat="43.16006414882681" lon="12.330543237138148"><ele>277.0</ele><time>2026-04-26T06:33:53Z</time></trkpt><trkpt lat="43.160136891406765" lon="12.330488945709687"><ele>276.0</ele><time>2026-04-26T06:33:54Z</time></trkpt><trkpt lat="43.16020543060803" lon="12.330386236962834"><ele>275.0</ele><time>2026-04-26T06:33:56Z</time></trkpt><trkpt lat="43.16010595974794" lon="12.330204201443388"><ele>274.0</ele><time>2026-04-26T06:33:59Z</time></trkpt><trkpt lat="43.160020669355674" lon="12.330072786413266"><ele>273.0</ele><time>2026-04-26T06:34:00Z</time></trkpt><trkpt lat="43.1599050687904" lon="12.32998650490018"><ele>273.0</ele><time>2026-04-26T06:34:01Z</time></trkpt><trkpt lat="43.15978887222762" lon="12.329844022308821"><ele>273.0</ele><time>2026-04-26T06:34:02Z</time></trkpt><trkpt lat="43.15967161353197" lon="12.329687524111485"><ele>273.0</ele><time>2026-04-26T06:34:03Z</time></trkpt><trkpt lat="43.15955746991104" lon="12.329525079162812"><ele>273.0</ele><time>2026-04-26T06:34:04Z</time></trkpt><trkpt lat="43.159462122841816" lon="12.329351523788109"><ele>273.0</ele><time>2026-04-26T06:34:05Z</time></trkpt><trkpt lat="43.15939227883077" lon="12.329161127009451"><ele>273.0</ele><time>2026-04-26T06:34:06Z</time></trkpt><trkpt lat="43.15932361479866" lon="12.328962937353028"><ele>272.3333333333333</ele><time>2026-04-26T06:34:07Z</time></trkpt><trkpt lat="43.159257587419184" lon="12.3287622680409"><ele>271.66666666666663</ele><time>2026-04-26T06:34:08Z</time></trkpt><trkpt lat="43.15919247320457" lon="12.328563856382175"><ele>271.0</ele><time>2026-04-26T06:34:09Z</time></trkpt><trkpt lat="43.159126476922374" lon="12.3283575892508"><ele>271.0</ele><time>2026-04-26T06:34:10Z</time></trkpt><trkpt lat="43.159065508307485" lon="12.328148385041168"><ele>271.0</ele><time>2026-04-26T06:34:11Z</time></trkpt><trkpt lat="43.159028331885146" lon="12.327947745279078"><ele>271.0</ele><time>2026-04-26T06:34:12Z</time></trkpt><trkpt lat="43.15901272773087" lon="12.327742320627548"><ele>271.0</ele><time>2026-04-26T06:34:13Z</time></trkpt><trkpt lat="43.1590082635346" lon="12.327605742858307"><ele>271.0</ele><time>2026-04-26T06:34:14Z</time></trkpt><trkpt lat="43.15901815713091" lon="12.327369325825105"><ele>271.0</ele><time>2026-04-26T06:34:15Z</time></trkpt><trkpt lat="43.15904493655796" lon="12.32714176162447"><ele>271.0</ele><time>2026-04-26T06:34:16Z</time></trkpt><trkpt lat="43.15909967244999" lon="12.326948476368969"><ele>271.0</ele><time>2026-04-26T06:34:17Z</time></trkpt><trkpt lat="43.159149985985046" lon="12.326704835939768"><ele>271.0</ele><time>2026-04-26T06:34:18Z</time></trkpt><trkpt lat="43.159198928065294" lon="12.3264764543008"><ele>271.0</ele><time>2026-04-26T06:34:19Z</time></trkpt><trkpt lat="43.159271219037784" lon="12.326261974479722"><ele>272.0</ele><time>2026-04-26T06:34:20Z</time></trkpt><trkpt lat="43.159318862995036" lon="12.326050835395941"><ele>273.0</ele><time>2026-04-26T06:34:21Z</time></trkpt><trkpt lat="43.159369069145384" lon="12.325842216118279"><ele>274.0</ele><time>2026-04-26T06:34:22Z</time></trkpt><trkpt lat="43.15940547045235" lon="12.325628928353243"><ele>273.75</ele><time>2026-04-26T06:34:23Z</time></trkpt><trkpt lat="43.15944056275693" lon="12.325428462362794"><ele>273.5</ele><time>2026-04-26T06:34:24Z</time></trkpt><trkpt lat="43.159450583377044" lon="12.325222212331774"><ele>273.25</ele><time>2026-04-26T06:34:25Z</time></trkpt><trkpt lat="43.15945410196289" lon="12.325035591540379"><ele>273.0</ele><time>2026-04-26T06:34:26Z</time></trkpt><trkpt lat="43.159460480491326" lon="12.324864107062984"><ele>273.25</ele><time>2026-04-26T06:34:27Z</time></trkpt><trkpt lat="43.1594694411552" lon="12.324707441669263"><ele>273.5</ele><time>2026-04-26T06:34:28Z</time></trkpt><trkpt lat="43.159478744885284" lon="12.324549264848736"><ele>273.75</ele><time>2026-04-26T06:34:29Z</time></trkpt><trkpt lat="43.159484884136866" lon="12.324390359472496"><ele>274.0</ele><time>2026-04-26T06:34:30Z</time></trkpt><trkpt lat="43.159493074744205" lon="12.324237791962735"><ele>274.0</ele><time>2026-04-26T06:34:31Z</time></trkpt><trkpt lat="43.159500216459826" lon="12.32408774857989"><ele>274.0</ele><time>2026-04-26T06:34:32Z</time></trkpt><trkpt lat="43.15950038570068" lon="12.323935773275476"><ele>274.0</ele><time>2026-04-26T06:34:33Z</time></trkpt><trkpt lat="43.1595148470862" lon="12.323781107314831"><ele>274.0</ele><time>2026-04-26T06:34:34Z</time></trkpt><trkpt lat="43.159522689232986" lon="12.323617911131242"><ele>275.59999999999997</ele><time>2026-04-26T06:34:35Z</time></trkpt><trkpt lat="43.15953251473878" lon="12.323465813311717"><ele>277.2</ele><time>2026-04-26T06:34:36Z</time></trkpt><trkpt lat="43.15953756069568" lon="12.323312457597893"><ele>278.79999999999995</ele><time>2026-04-26T06:34:37Z</time></trkpt><trkpt lat="43.159540290443275" lon="12.323165193856429"><ele>280.4</ele><time>2026-04-26T06:34:38Z</time></trkpt><trkpt lat="43.159539245267055" lon="12.323012033473665"><ele>282.0</ele><time>2026-04-26T06:34:39Z</time></trkpt><trkpt lat="43.15953094374883" lon="12.322863274158685"><ele>282.0</ele><time>2026-04-26T06:34:40Z</time></trkpt><trkpt lat="43.15952381692712" lon="12.322727727184265"><ele>282.0</ele><time>2026-04-26T06:34:41Z</time></trkpt><trkpt lat="43.15951758487139" lon="12.322585744190167"><ele>282.0</ele><time>2026-04-26T06:34:42Z</time></trkpt><trkpt lat="43.15951811116784" lon="12.322466983603983"><ele>282.0</ele><time>2026-04-26T06:34:43Z</time></trkpt><trkpt lat="43.15949507226347" lon="12.322288032271025"><ele>282.0</ele><time>2026-04-26T06:34:44Z</time></trkpt><trkpt lat="43.159484656502165" lon="12.322142690985324"><ele>282.0</ele><time>2026-04-26T06:34:45Z</time></trkpt><trkpt lat="43.1594729128482" lon="12.32199067268247"><ele>282.0</ele><time>2026-04-26T06:34:46Z</time></trkpt><trkpt lat="43.15945474256552" lon="12.321836976545292"><ele>282.0</ele><time>2026-04-26T06:34:47Z</time></trkpt><trkpt lat="43.159441001553134" lon="12.321686600911004"><ele>282.0</ele><time>2026-04-26T06:34:48Z</time></trkpt><trkpt lat="43.15942423409843" lon="12.321525491901737"><ele>279.5</ele><time>2026-04-26T06:34:49Z</time></trkpt><trkpt lat="43.15940309786564" lon="12.321365561176169"><ele>277.0</ele><time>2026-04-26T06:34:50Z</time></trkpt><trkpt lat="43.159371667512424" lon="12.32120520576109"><ele>274.5</ele><time>2026-04-26T06:34:51Z</time></trkpt><trkpt lat="43.159347629851894" lon="12.32105613331165"><ele>272.0</ele><time>2026-04-26T06:34:52Z</time></trkpt><trkpt lat="43.15933206996171" lon="12.320912484558008"><ele>272.0</ele><time>2026-04-26T06:34:53Z</time></trkpt><trkpt lat="43.15931178136753" lon="12.320771416445023"><ele>272.0</ele><time>2026-04-26T06:34:54Z</time></trkpt><trkpt lat="43.15930912468856" lon="12.320638704523674"><ele>272.0</ele><time>2026-04-26T06:34:55Z</time></trkpt><trkpt lat="43.159284586085185" lon="12.320500416261611"><ele>272.0</ele><time>2026-04-26T06:34:56Z</time></trkpt><trkpt lat="43.159272550721354" lon="12.320342483155596"><ele>272.0</ele><time>2026-04-26T06:34:57Z</time></trkpt><trkpt lat="43.159259603535276" lon="12.32015957089624"><ele>272.25</ele><time>2026-04-26T06:34:58Z</time></trkpt><trkpt lat="43.15927996628427" lon="12.31999752831643"><ele>272.5</ele><time>2026-04-26T06:34:59Z</time></trkpt><trkpt lat="43.15931511797404" lon="12.31982666581928"><ele>272.75</ele><time>2026-04-26T06:35:00Z</time></trkpt><trkpt lat="43.15934962999906" lon="12.319646624477041"><ele>273.0</ele><time>2026-04-26T06:35:01Z</time></trkpt><trkpt lat="43.15942998252063" lon="12.319489611217316"><ele>273.0</ele><time>2026-04-26T06:35:02Z</time></trkpt><trkpt lat="43.15949848813965" lon="12.319315727203442"><ele>273.0</ele><time>2026-04-26T06:35:03Z</time></trkpt><trkpt lat="43.15958073770032" lon="12.31917663469289"><ele>273.0</ele><time>2026-04-26T06:35:04Z</time></trkpt><trkpt lat="43.15966986067946" lon="12.319050549641563"><ele>273.0</ele><time>2026-04-26T06:35:05Z</time></trkpt><trkpt lat="43.159781049921556" lon="12.318960469149047"><ele>271.0</ele><time>2026-04-26T06:35:06Z</time></trkpt><trkpt lat="43.15988539291016" lon="12.318861282573899"><ele>269.0</ele><time>2026-04-26T06:35:07Z</time></trkpt><trkpt lat="43.15999505714821" lon="12.31876309919728"><ele>267.0</ele><time>2026-04-26T06:35:08Z</time></trkpt><trkpt lat="43.1601066379339" lon="12.318660249115567"><ele>265.0</ele><time>2026-04-26T06:35:09Z</time></trkpt><trkpt lat="43.16019837247099" lon="12.318533642719595"><ele>265.0</ele><time>2026-04-26T06:35:10Z</time></trkpt><trkpt lat="43.16030240179847" lon="12.31841917566077"><ele>265.0</ele><time>2026-04-26T06:35:11Z</time></trkpt><trkpt lat="43.160390512568306" lon="12.318253487721128"><ele>265.0</ele><time>2026-04-26T06:35:12Z</time></trkpt><trkpt lat="43.16047043031784" lon="12.318033331191465"><ele>264.0</ele><time>2026-04-26T06:35:13Z</time></trkpt><trkpt lat="43.16055791467684" lon="12.317788644965553"><ele>263.0</ele><time>2026-04-26T06:35:14Z</time></trkpt><trkpt lat="43.16068836265475" lon="12.317504723913126"><ele>262.0</ele><time>2026-04-26T06:35:15Z</time></trkpt><trkpt lat="43.1608351436313" lon="12.317237507094374"><ele>262.0</ele><time>2026-04-26T06:35:16Z</time></trkpt><trkpt lat="43.16097647745992" lon="12.316957013498827"><ele>262.0</ele><time>2026-04-26T06:35:17Z</time></trkpt><trkpt lat="43.16111384955054" lon="12.316724295655899"><ele>262.0</ele><time>2026-04-26T06:35:18Z</time></trkpt><trkpt lat="43.16122038219036" lon="12.316494753729295"><ele>262.0</ele><time>2026-04-26T06:35:19Z</time></trkpt><trkpt lat="43.16127916672449" lon="12.31620335546233"><ele>262.0</ele><time>2026-04-26T06:35:20Z</time></trkpt><trkpt lat="43.161305594456486" lon="12.315860896321281"><ele>262.5</ele><time>2026-04-26T06:35:21Z</time></trkpt><trkpt lat="43.16133249262217" lon="12.315504610469443"><ele>263.0</ele><time>2026-04-26T06:35:22Z</time></trkpt><trkpt lat="43.16136517575931" lon="12.315135555974676"><ele>263.0</ele><time>2026-04-26T06:35:23Z</time></trkpt><trkpt lat="43.16141522240347" lon="12.314779210681841"><ele>263.0</ele><time>2026-04-26T06:35:24Z</time></trkpt><trkpt lat="43.161478855211" lon="12.314454823270953"><ele>263.5</ele><time>2026-04-26T06:35:25Z</time></trkpt><trkpt lat="43.1615306228322" lon="12.314146045303644"><ele>264.0</ele><time>2026-04-26T06:35:26Z</time></trkpt><trkpt lat="43.16162194397688" lon="12.313861908362826"><ele>264.0</ele><time>2026-04-26T06:35:27Z</time></trkpt><trkpt lat="43.16154232068746" lon="12.313491261094308"><ele>264.0</ele><time>2026-04-26T06:35:28Z</time></trkpt><trkpt lat="43.161480667448664" lon="12.313146358170075"><ele>261.0</ele><time>2026-04-26T06:35:29Z</time></trkpt><trkpt lat="43.16140424353244" lon="12.312812871598059"><ele>258.0</ele><time>2026-04-26T06:35:30Z</time></trkpt><trkpt lat="43.16132228552244" lon="12.312494880014205"><ele>257.6666666666667</ele><time>2026-04-26T06:35:31Z</time></trkpt><trkpt lat="43.161279273515746" lon="12.312192889764715"><ele>257.33333333333337</ele><time>2026-04-26T06:35:32Z</time></trkpt><trkpt lat="43.161212063099" lon="12.311913669869616"><ele>257.0</ele><time>2026-04-26T06:35:33Z</time></trkpt><trkpt lat="43.161165986964164" lon="12.311648901148754"><ele>257.6666666666667</ele><time>2026-04-26T06:35:34Z</time></trkpt><trkpt lat="43.16109821168673" lon="12.31140699810272"><ele>258.3333333333333</ele><time>2026-04-26T06:35:35Z</time></trkpt><trkpt lat="43.16103712695012" lon="12.311167776871608"><ele>259.0</ele><time>2026-04-26T06:35:36Z</time></trkpt><trkpt lat="43.16102893236388" lon="12.310934960163472"><ele>259.0</ele><time>2026-04-26T06:35:37Z</time></trkpt><trkpt lat="43.16103427923444" lon="12.310721011801737"><ele>259.0</ele><time>2026-04-26T06:35:38Z</time></trkpt><trkpt lat="43.16102389846463" lon="12.310519486035348"><ele>259.0</ele><time>2026-04-26T06:35:39Z</time></trkpt><trkpt lat="43.16104253843626" lon="12.310374782785027"><ele>259.0</ele><time>2026-04-26T06:35:40Z</time></trkpt><trkpt lat="43.16104921926735" lon="12.310283741173352"><ele>259.0</ele><time>2026-04-26T06:35:41Z</time></trkpt><trkpt lat="43.161035916875896" lon="12.310199280449698"><ele>259.0</ele><time>2026-04-26T06:35:44Z</time></trkpt><trkpt lat="43.160925401565365" lon="12.310050942349354"><ele>259.0</ele><time>2026-04-26T06:35:46Z</time></trkpt><trkpt lat="43.16080614185709" lon="12.30990565817211"><ele>259.0</ele><time>2026-04-26T06:35:47Z</time></trkpt><trkpt lat="43.160674188569445" lon="12.309728460417691"><ele>258.0</ele><time>2026-04-26T06:35:48Z</time></trkpt><trkpt lat="43.16058065561742" lon="12.309558745376984"><ele>257.0</ele><time>2026-04-26T06:35:49Z</time></trkpt><trkpt lat="43.16052884843926" lon="12.309364127442862"><ele>256.0</ele><time>2026-04-26T06:35:50Z</time></trkpt><trkpt lat="43.16040015171164" lon="12.309240208953137"><ele>256.0</ele><time>2026-04-26T06:35:51Z</time></trkpt><trkpt lat="43.16029281738418" lon="12.309135359887932"><ele>256.0</ele><time>2026-04-26T06:35:52Z</time></trkpt><trkpt lat="43.16019535745764" lon="12.309042312976766"><ele>256.0</ele><time>2026-04-26T06:35:53Z</time></trkpt><trkpt lat="43.160166570671365" lon="12.308949534849491"><ele>256.0</ele><time>2026-04-26T06:35:54Z</time></trkpt><trkpt lat="43.1602781631752" lon="12.308731623466105"><ele>255.75</ele><time>2026-04-26T06:35:55Z</time></trkpt><trkpt lat="43.16031963799609" lon="12.308629721435869"><ele>255.5</ele><time>2026-04-26T06:35:56Z</time></trkpt><trkpt lat="43.16026320907849" lon="12.308478583912178"><ele>255.25</ele><time>2026-04-26T06:35:58Z</time></trkpt><trkpt lat="43.160193561263185" lon="12.308395836784316"><ele>255.0</ele><time>2026-04-26T06:35:59Z</time></trkpt><trkpt lat="43.16004001360123" lon="12.308320396122163"><ele>255.0</ele><time>2026-04-26T06:36:00Z</time></trkpt><trkpt lat="43.159890618422494" lon="12.308232628292446"><ele>255.0</ele><time>2026-04-26T06:36:01Z</time></trkpt><trkpt lat="43.15972266376541" lon="12.308129251898656"><ele>255.0</ele><time>2026-04-26T06:36:02Z</time></trkpt><trkpt lat="43.159543584015616" lon="12.307996057599562"><ele>254.33333333333331</ele><time>2026-04-26T06:36:03Z</time></trkpt><trkpt lat="43.15935252063072" lon="12.307848330974526"><ele>253.66666666666666</ele><time>2026-04-26T06:36:04Z</time></trkpt><trkpt lat="43.15916419876386" lon="12.30768498678467"><ele>253.0</ele><time>2026-04-26T06:36:05Z</time></trkpt><trkpt lat="43.15898387909475" lon="12.307489678151725"><ele>255.0</ele><time>2026-04-26T06:36:06Z</time></trkpt><trkpt lat="43.158811374155725" lon="12.307262414141281"><ele>257.0</ele><time>2026-04-26T06:36:07Z</time></trkpt><trkpt lat="43.15865239688199" lon="12.307013842584668"><ele>257.0</ele><time>2026-04-26T06:36:08Z</time></trkpt><trkpt lat="43.15850913941607" lon="12.306741750889676"><ele>257.0</ele><time>2026-04-26T06:36:09Z</time></trkpt><trkpt lat="43.15839767920846" lon="12.306447662085393"><ele>256.33333333333337</ele><time>2026-04-26T06:36:10Z</time></trkpt><trkpt lat="43.15827312510989" lon="12.306191034074843"><ele>255.66666666666669</ele><time>2026-04-26T06:36:11Z</time></trkpt><trkpt lat="43.15817481231096" lon="12.305941324836564"><ele>255.0</ele><time>2026-04-26T06:36:12Z</time></trkpt><trkpt lat="43.15808500743107" lon="12.305707542324326"><ele>257.6666666666667</ele><time>2026-04-26T06:36:13Z</time></trkpt><trkpt lat="43.15799700131233" lon="12.3054840204016"><ele>260.33333333333337</ele><time>2026-04-26T06:36:14Z</time></trkpt><trkpt lat="43.15790527815977" lon="12.305267191107564"><ele>263.0</ele><time>2026-04-26T06:36:15Z</time></trkpt><trkpt lat="43.15780197946538" lon="12.30502757335892"><ele>263.0</ele><time>2026-04-26T06:36:16Z</time></trkpt><trkpt lat="43.157666510467386" lon="12.304782335688525"><ele>263.0</ele><time>2026-04-26T06:36:17Z</time></trkpt><trkpt lat="43.157514787254506" lon="12.304526755522266"><ele>265.0</ele><time>2026-04-26T06:36:18Z</time></trkpt><trkpt lat="43.15734343371147" lon="12.30427276803754"><ele>267.0</ele><time>2026-04-26T06:36:19Z</time></trkpt><trkpt lat="43.157152182275404" lon="12.304034157430582"><ele>262.0</ele><time>2026-04-26T06:36:20Z</time></trkpt><trkpt lat="43.1569704265826" lon="12.30376945611261"><ele>257.0</ele><time>2026-04-26T06:36:21Z</time></trkpt><trkpt lat="43.15678146454463" lon="12.303501706694375"><ele>257.0</ele><time>2026-04-26T06:36:22Z</time></trkpt><trkpt lat="43.15661702175503" lon="12.303212131524855"><ele>257.0</ele><time>2026-04-26T06:36:23Z</time></trkpt><trkpt lat="43.156457089071" lon="12.302924295882434"><ele>262.5</ele><time>2026-04-26T06:36:24Z</time></trkpt><trkpt lat="43.15631383821525" lon="12.302618473444182"><ele>268.0</ele><time>2026-04-26T06:36:25Z</time></trkpt><trkpt lat="43.15618611912664" lon="12.302304980908328"><ele>263.5</ele><time>2026-04-26T06:36:26Z</time></trkpt><trkpt lat="43.156069223659166" lon="12.301995766597187"><ele>259.0</ele><time>2026-04-26T06:36:27Z</time></trkpt><trkpt lat="43.155939698451526" lon="12.301675137134849"><ele>256.0</ele><time>2026-04-26T06:36:28Z</time></trkpt><trkpt lat="43.15583646133708" lon="12.301346142532202"><ele>253.0</ele><time>2026-04-26T06:36:29Z</time></trkpt><trkpt lat="43.15574666563404" lon="12.30101405509033"><ele>254.5</ele><time>2026-04-26T06:36:30Z</time></trkpt><trkpt lat="43.155678161055604" lon="12.300684180776427"><ele>256.0</ele><time>2026-04-26T06:36:31Z</time></trkpt><trkpt lat="43.15561107840187" lon="12.30033196638381"><ele>256.0</ele><time>2026-04-26T06:36:32Z</time></trkpt><trkpt lat="43.15556053685523" lon="12.299986056200204"><ele>256.0</ele><time>2026-04-26T06:36:33Z</time></trkpt><trkpt lat="43.1555144441009" lon="12.29963934024011"><ele>253.5</ele><time>2026-04-26T06:36:34Z</time></trkpt><trkpt lat="43.15546048619692" lon="12.299299004230793"><ele>251.0</ele><time>2026-04-26T06:36:35Z</time></trkpt><trkpt lat="43.155404114166515" lon="12.298958140377854"><ele>250.5</ele><time>2026-04-26T06:36:36Z</time></trkpt><trkpt lat="43.15534309178705" lon="12.298618298393805"><ele>250.0</ele><time>2026-04-26T06:36:37Z</time></trkpt><trkpt lat="43.155266592306575" lon="12.298279468022312"><ele>250.0</ele><time>2026-04-26T06:36:38Z</time></trkpt><trkpt lat="43.15518298644464" lon="12.297945843249334"><ele>250.0</ele><time>2026-04-26T06:36:39Z</time></trkpt><trkpt lat="43.155089735948245" lon="12.297606365526125"><ele>250.0</ele><time>2026-04-26T06:36:40Z</time></trkpt><trkpt lat="43.15499760971518" lon="12.297274517016307"><ele>250.0</ele><time>2026-04-26T06:36:41Z</time></trkpt><trkpt lat="43.15490964780756" lon="12.296934229474788"><ele>249.5</ele><time>2026-04-26T06:36:42Z</time></trkpt><trkpt lat="43.15481495567004" lon="12.296596712170382"><ele>249.0</ele><time>2026-04-26T06:36:43Z</time></trkpt><trkpt lat="43.15471953951925" lon="12.296259182306017"><ele>248.0</ele><time>2026-04-26T06:36:44Z</time></trkpt><trkpt lat="43.154621626277596" lon="12.295930679177765"><ele>247.0</ele><time>2026-04-26T06:36:45Z</time></trkpt><trkpt lat="43.15451450715142" lon="12.295596863456893"><ele>247.5</ele><time>2026-04-26T06:36:46Z</time></trkpt><trkpt lat="43.15441296127352" lon="12.29526550978368"><ele>248.0</ele><time>2026-04-26T06:36:47Z</time></trkpt><trkpt lat="43.15430472612345" lon="12.294935529335444"><ele>250.0</ele><time>2026-04-26T06:36:48Z</time></trkpt><trkpt lat="43.154196797210275" lon="12.294608057094663"><ele>252.0</ele><time>2026-04-26T06:36:49Z</time></trkpt><trkpt lat="43.15408554612667" lon="12.294280749168294"><ele>249.5</ele><time>2026-04-26T06:36:50Z</time></trkpt><trkpt lat="43.15396860755399" lon="12.29395497799566"><ele>247.0</ele><time>2026-04-26T06:36:51Z</time></trkpt><trkpt lat="43.15385273613589" lon="12.293628856851491"><ele>247.0</ele><time>2026-04-26T06:36:52Z</time></trkpt><trkpt lat="43.153737566056876" lon="12.29330514047874"><ele>247.0</ele><time>2026-04-26T06:36:53Z</time></trkpt><trkpt lat="43.15362424272919" lon="12.292982259684008"><ele>248.5</ele><time>2026-04-26T06:36:54Z</time></trkpt><trkpt lat="43.15351061820447" lon="12.292658509331597"><ele>250.0</ele><time>2026-04-26T06:36:55Z</time></trkpt><trkpt lat="43.153396839536775" lon="12.292336287751814"><ele>250.0</ele><time>2026-04-26T06:36:56Z</time></trkpt><trkpt lat="43.153281598208025" lon="12.292016036365476"><ele>250.0</ele><time>2026-04-26T06:36:57Z</time></trkpt><trkpt lat="43.153167700857985" lon="12.29169771512702"><ele>248.5</ele><time>2026-04-26T06:36:58Z</time></trkpt><trkpt lat="43.15305461255115" lon="12.291381805917172"><ele>247.0</ele><time>2026-04-26T06:36:59Z</time></trkpt><trkpt lat="43.15294158653364" lon="12.291064140316507"><ele>247.0</ele><time>2026-04-26T06:37:00Z</time></trkpt><trkpt lat="43.15282873595158" lon="12.290748644482397"><ele>247.0</ele><time>2026-04-26T06:37:01Z</time></trkpt><trkpt lat="43.15271616133107" lon="12.290434295470455"><ele>248.0</ele><time>2026-04-26T06:37:02Z</time></trkpt><trkpt lat="43.15260337565715" lon="12.290120224509549"><ele>249.0</ele><time>2026-04-26T06:37:03Z</time></trkpt><trkpt lat="43.15249465605186" lon="12.28980484647246"><ele>249.5</ele><time>2026-04-26T06:37:04Z</time></trkpt><trkpt lat="43.152383609420255" lon="12.289491644394092"><ele>250.0</ele><time>2026-04-26T06:37:05Z</time></trkpt><trkpt lat="43.152273282125144" lon="12.28917924901682"><ele>247.5</ele><time>2026-04-26T06:37:06Z</time></trkpt><trkpt lat="43.15216572466194" lon="12.288864514967777"><ele>245.0</ele><time>2026-04-26T06:37:07Z</time></trkpt><trkpt lat="43.15205657487237" lon="12.288550481232754"><ele>245.0</ele><time>2026-04-26T06:37:08Z</time></trkpt><trkpt lat="43.15194527147708" lon="12.288238146683254"><ele>245.0</ele><time>2026-04-26T06:37:09Z</time></trkpt><trkpt lat="43.151832691806234" lon="12.28793117356707"><ele>246.0</ele><time>2026-04-26T06:37:10Z</time></trkpt><trkpt lat="43.151705744426565" lon="12.287632460286645"><ele>247.0</ele><time>2026-04-26T06:37:11Z</time></trkpt><trkpt lat="43.15155425792596" lon="12.28735581458655"><ele>245.5</ele><time>2026-04-26T06:37:12Z</time></trkpt><trkpt lat="43.151381620995004" lon="12.287095905554448"><ele>244.0</ele><time>2026-04-26T06:37:13Z</time></trkpt><trkpt lat="43.15119357674788" lon="12.286864431837811"><ele>244.0</ele><time>2026-04-26T06:37:14Z</time></trkpt><trkpt lat="43.15099178153897" lon="12.286661550355022"><ele>244.0</ele><time>2026-04-26T06:37:15Z</time></trkpt><trkpt lat="43.15076948787935" lon="12.286476926480692"><ele>244.0</ele><time>2026-04-26T06:37:16Z</time></trkpt><trkpt lat="43.15054044195809" lon="12.286319137591603"><ele>244.0</ele><time>2026-04-26T06:37:17Z</time></trkpt><trkpt lat="43.150300344976436" lon="12.286194757248204"><ele>244.0</ele><time>2026-04-26T06:37:18Z</time></trkpt><trkpt lat="43.15005115508738" lon="12.286108988981939"><ele>244.0</ele><time>2026-04-26T06:37:19Z</time></trkpt><trkpt lat="43.14979987665289" lon="12.286053307034225"><ele>244.0</ele><time>2026-04-26T06:37:20Z</time></trkpt><trkpt lat="43.149544568289784" lon="12.286019421099533"><ele>244.0</ele><time>2026-04-26T06:37:21Z</time></trkpt><trkpt lat="43.149291867237864" lon="12.28598260735823"><ele>243.5</ele><time>2026-04-26T06:37:22Z</time></trkpt><trkpt lat="43.14903923102912" lon="12.285944522573581"><ele>243.0</ele><time>2026-04-26T06:37:23Z</time></trkpt><trkpt lat="43.14878687753209" lon="12.285911883493215"><ele>243.0</ele><time>2026-04-26T06:37:24Z</time></trkpt><trkpt lat="43.1485360486241" lon="12.285878987228925"><ele>243.0</ele><time>2026-04-26T06:37:25Z</time></trkpt><trkpt lat="43.14828800495626" lon="12.285842518686799"><ele>243.0</ele><time>2026-04-26T06:37:26Z</time></trkpt><trkpt lat="43.148041070258266" lon="12.285808300678237"><ele>243.0</ele><time>2026-04-26T06:37:27Z</time></trkpt><trkpt lat="43.14779162661816" lon="12.28577529002866"><ele>243.0</ele><time>2026-04-26T06:37:28Z</time></trkpt><trkpt lat="43.14754173559709" lon="12.285743304663873"><ele>243.0</ele><time>2026-04-26T06:37:29Z</time></trkpt><trkpt lat="43.147303915328486" lon="12.285713603093493"><ele>243.5</ele><time>2026-04-26T06:37:30Z</time></trkpt><trkpt lat="43.147061008124524" lon="12.285708426495615"><ele>244.0</ele><time>2026-04-26T06:37:31Z</time></trkpt><trkpt lat="43.146818950296186" lon="12.285741029924676"><ele>244.0</ele><time>2026-04-26T06:37:32Z</time></trkpt><trkpt lat="43.14657477907938" lon="12.28578770941228"><ele>244.0</ele><time>2026-04-26T06:37:33Z</time></trkpt><trkpt lat="43.1463291306779" lon="12.285828997909013"><ele>243.66666666666666</ele><time>2026-04-26T06:37:34Z</time></trkpt><trkpt lat="43.146105694780374" lon="12.285864790739023"><ele>243.33333333333331</ele><time>2026-04-26T06:37:35Z</time></trkpt><trkpt lat="43.145896540458274" lon="12.285881522476492"><ele>243.0</ele><time>2026-04-26T06:37:36Z</time></trkpt><trkpt lat="43.145691085562966" lon="12.285843890229215"><ele>243.0</ele><time>2026-04-26T06:37:37Z</time></trkpt><trkpt lat="43.14548835772093" lon="12.285748003345063"><ele>243.0</ele><time>2026-04-26T06:37:38Z</time></trkpt><trkpt lat="43.14530891866475" lon="12.285601722171453"><ele>243.0</ele><time>2026-04-26T06:37:39Z</time></trkpt><trkpt lat="43.14515775967924" lon="12.28540497065731"><ele>242.33333333333331</ele><time>2026-04-26T06:37:40Z</time></trkpt><trkpt lat="43.14503460356089" lon="12.28517230531097"><ele>241.66666666666666</ele><time>2026-04-26T06:37:41Z</time></trkpt><trkpt lat="43.14495340046345" lon="12.284907772264209"><ele>241.0</ele><time>2026-04-26T06:37:42Z</time></trkpt><trkpt lat="43.14490937542678" lon="12.284613262283848"><ele>241.0</ele><time>2026-04-26T06:37:43Z</time></trkpt><trkpt lat="43.14490751388678" lon="12.284308703751735"><ele>241.0</ele><time>2026-04-26T06:37:44Z</time></trkpt><trkpt lat="43.1449468021367" lon="12.284004733837264"><ele>241.0</ele><time>2026-04-26T06:37:45Z</time></trkpt><trkpt lat="43.145030384505425" lon="12.283703528897977"><ele>241.0</ele><time>2026-04-26T06:37:46Z</time></trkpt><trkpt lat="43.14512920466543" lon="12.28340292167745"><ele>241.0</ele><time>2026-04-26T06:37:47Z</time></trkpt><trkpt lat="43.145210097120234" lon="12.283103194308465"><ele>240.66666666666666</ele><time>2026-04-26T06:37:48Z</time></trkpt><trkpt lat="43.145254521742245" lon="12.282816073375008"><ele>240.33333333333331</ele><time>2026-04-26T06:37:49Z</time></trkpt><trkpt lat="43.14525136116259" lon="12.282530582377033"><ele>240.0</ele><time>2026-04-26T06:37:50Z</time></trkpt><trkpt lat="43.145202846817774" lon="12.282248083714821"><ele>239.0</ele><time>2026-04-26T06:37:51Z</time></trkpt><trkpt lat="43.145099742732036" lon="12.281965924980561"><ele>238.0</ele><time>2026-04-26T06:37:52Z</time></trkpt><trkpt lat="43.14494389470537" lon="12.281714820229357"><ele>238.0</ele><time>2026-04-26T06:37:53Z</time></trkpt><trkpt lat="43.1447451742111" lon="12.281488287277842"><ele>238.0</ele><time>2026-04-26T06:37:54Z</time></trkpt><trkpt lat="43.144543633955855" lon="12.281246966755381"><ele>238.0</ele><time>2026-04-26T06:37:55Z</time></trkpt><trkpt lat="43.14434434365173" lon="12.280997093921568"><ele>238.0</ele><time>2026-04-26T06:37:56Z</time></trkpt><trkpt lat="43.14414575885831" lon="12.280751427917835"><ele>238.5</ele><time>2026-04-26T06:37:57Z</time></trkpt><trkpt lat="43.143943033466584" lon="12.280508079693218"><ele>239.0</ele><time>2026-04-26T06:37:58Z</time></trkpt><trkpt lat="43.14374285852113" lon="12.280262929961218"><ele>239.0</ele><time>2026-04-26T06:37:59Z</time></trkpt><trkpt lat="43.1435409700694" lon="12.280023865584871"><ele>239.0</ele><time>2026-04-26T06:38:00Z</time></trkpt><trkpt lat="43.14333945660834" lon="12.279794164910555"><ele>238.5</ele><time>2026-04-26T06:38:01Z</time></trkpt><trkpt lat="43.143138103784175" lon="12.279569927378969"><ele>238.0</ele><time>2026-04-26T06:38:02Z</time></trkpt><trkpt lat="43.14294094324204" lon="12.27934065456601"><ele>238.0</ele><time>2026-04-26T06:38:03Z</time></trkpt><trkpt lat="43.142748886770285" lon="12.279104675283216"><ele>238.0</ele><time>2026-04-26T06:38:04Z</time></trkpt><trkpt lat="43.14256504398055" lon="12.278863904764334"><ele>238.5</ele><time>2026-04-26T06:38:05Z</time></trkpt><trkpt lat="43.142386749909136" lon="12.2786202208499"><ele>239.0</ele><time>2026-04-26T06:38:06Z</time></trkpt><trkpt lat="43.142211805786026" lon="12.278377165689985"><ele>239.5</ele><time>2026-04-26T06:38:07Z</time></trkpt><trkpt lat="43.14203373723323" lon="12.278142977674417"><ele>240.0</ele><time>2026-04-26T06:38:08Z</time></trkpt><trkpt lat="43.14184975135934" lon="12.277918430113598"><ele>240.0</ele><time>2026-04-26T06:38:09Z</time></trkpt><trkpt lat="43.14166739429086" lon="12.277698739353337"><ele>240.0</ele><time>2026-04-26T06:38:10Z</time></trkpt><trkpt lat="43.14148444017953" lon="12.277485558392847"><ele>239.0</ele><time>2026-04-26T06:38:11Z</time></trkpt><trkpt lat="43.141296662748424" lon="12.27728064365736"><ele>238.0</ele><time>2026-04-26T06:38:12Z</time></trkpt><trkpt lat="43.14110367354926" lon="12.277083869531463"><ele>238.0</ele><time>2026-04-26T06:38:13Z</time></trkpt><trkpt lat="43.14091031663347" lon="12.276888491573407"><ele>238.0</ele><time>2026-04-26T06:38:14Z</time></trkpt><trkpt lat="43.14072927271712" lon="12.276673926614643"><ele>238.0</ele><time>2026-04-26T06:38:15Z</time></trkpt><trkpt lat="43.140537821522415" lon="12.276479313634999"><ele>238.0</ele><time>2026-04-26T06:38:16Z</time></trkpt><trkpt lat="43.14034754979415" lon="12.276288023201138"><ele>238.5</ele><time>2026-04-26T06:38:17Z</time></trkpt><trkpt lat="43.14015826757875" lon="12.27609501257562"><ele>239.0</ele><time>2026-04-26T06:38:18Z</time></trkpt><trkpt lat="43.139972285953164" lon="12.275900457094403"><ele>238.5</ele><time>2026-04-26T06:38:19Z</time></trkpt><trkpt lat="43.139773556249324" lon="12.275729488974253"><ele>238.0</ele><time>2026-04-26T06:38:20Z</time></trkpt><trkpt lat="43.139586117753794" lon="12.275536185194133"><ele>237.5</ele><time>2026-04-26T06:38:21Z</time></trkpt><trkpt lat="43.139411377140426" lon="12.275324774399339"><ele>237.0</ele><time>2026-04-26T06:38:22Z</time></trkpt><trkpt lat="43.13923710398151" lon="12.275145356181536"><ele>237.0</ele><time>2026-04-26T06:38:23Z</time></trkpt><trkpt lat="43.13911056906459" lon="12.274912414372137"><ele>237.0</ele><time>2026-04-26T06:38:24Z</time></trkpt><trkpt lat="43.139032807284764" lon="12.274640606874058"><ele>237.0</ele><time>2026-04-26T06:38:25Z</time></trkpt><trkpt lat="43.138998106796265" lon="12.274339155660137"><ele>237.5</ele><time>2026-04-26T06:38:26Z</time></trkpt><trkpt lat="43.139045070186306" lon="12.274033945894866"><ele>238.0</ele><time>2026-04-26T06:38:27Z</time></trkpt><trkpt lat="43.13908976999896" lon="12.273713556017007"><ele>238.0</ele><time>2026-04-26T06:38:28Z</time></trkpt><trkpt lat="43.13914065298022" lon="12.273387907953152"><ele>238.0</ele><time>2026-04-26T06:38:29Z</time></trkpt><trkpt lat="43.13917734503557" lon="12.273061665320526"><ele>238.0</ele><time>2026-04-26T06:38:30Z</time></trkpt><trkpt lat="43.139228058149186" lon="12.272740427347056"><ele>238.0</ele><time>2026-04-26T06:38:31Z</time></trkpt><trkpt lat="43.139276272244665" lon="12.272417543030267"><ele>237.0</ele><time>2026-04-26T06:38:32Z</time></trkpt><trkpt lat="43.13932504044343" lon="12.272098627085514"><ele>236.0</ele><time>2026-04-26T06:38:33Z</time></trkpt><trkpt lat="43.13937317491843" lon="12.271781517485634"><ele>236.0</ele><time>2026-04-26T06:38:34Z</time></trkpt><trkpt lat="43.13942105544128" lon="12.271469282747818"><ele>236.0</ele><time>2026-04-26T06:38:35Z</time></trkpt><trkpt lat="43.13946475216965" lon="12.271164906929105"><ele>235.66666666666669</ele><time>2026-04-26T06:38:36Z</time></trkpt><trkpt lat="43.139499012558" lon="12.270873861081995"><ele>235.33333333333331</ele><time>2026-04-26T06:38:37Z</time></trkpt><trkpt lat="43.139504174569424" lon="12.270583807098806"><ele>235.0</ele><time>2026-04-26T06:38:38Z</time></trkpt><trkpt lat="43.1394623383091" lon="12.27029767682333"><ele>235.66666666666666</ele><time>2026-04-26T06:38:39Z</time></trkpt><trkpt lat="43.13936943473194" lon="12.2700327756975"><ele>236.33333333333331</ele><time>2026-04-26T06:38:40Z</time></trkpt><trkpt lat="43.1392324781587" lon="12.26979269929941"><ele>237.0</ele><time>2026-04-26T06:38:41Z</time></trkpt><trkpt lat="43.13906613109287" lon="12.269589888036549"><ele>236.66666666666669</ele><time>2026-04-26T06:38:42Z</time></trkpt><trkpt lat="43.13888824967406" lon="12.269421655656233"><ele>236.33333333333334</ele><time>2026-04-26T06:38:43Z</time></trkpt><trkpt lat="43.138718406403726" lon="12.269259810399385"><ele>236.0</ele><time>2026-04-26T06:38:44Z</time></trkpt><trkpt lat="43.13857122715966" lon="12.269054222219866"><ele>236.0</ele><time>2026-04-26T06:38:45Z</time></trkpt><trkpt lat="43.13841829881876" lon="12.26885860377294"><ele>236.0</ele><time>2026-04-26T06:38:46Z</time></trkpt><trkpt lat="43.13826932456062" lon="12.268647430044755"><ele>236.0</ele><time>2026-04-26T06:38:47Z</time></trkpt><trkpt lat="43.138119342221884" lon="12.268415407246263"><ele>236.5</ele><time>2026-04-26T06:38:48Z</time></trkpt><trkpt lat="43.13797292781885" lon="12.26817342064467"><ele>237.0</ele><time>2026-04-26T06:38:49Z</time></trkpt><trkpt lat="43.1378353934992" lon="12.267910978602233"><ele>237.0</ele><time>2026-04-26T06:38:50Z</time></trkpt><trkpt lat="43.13768582457856" lon="12.267649665656343"><ele>237.0</ele><time>2026-04-26T06:38:51Z</time></trkpt><trkpt lat="43.13755101707101" lon="12.267369861441646"><ele>236.5</ele><time>2026-04-26T06:38:52Z</time></trkpt><trkpt lat="43.137411241527566" lon="12.26709198464725"><ele>236.0</ele><time>2026-04-26T06:38:53Z</time></trkpt><trkpt lat="43.13727068986755" lon="12.266813852118878"><ele>235.0</ele><time>2026-04-26T06:38:54Z</time></trkpt><trkpt lat="43.13712698971786" lon="12.266536851528173"><ele>234.0</ele><time>2026-04-26T06:38:55Z</time></trkpt><trkpt lat="43.13697956562146" lon="12.266263378838703"><ele>234.0</ele><time>2026-04-26T06:38:56Z</time></trkpt><trkpt lat="43.13683239878682" lon="12.26598840907337"><ele>234.0</ele><time>2026-04-26T06:38:57Z</time></trkpt><trkpt lat="43.136687076987144" lon="12.265715280679608"><ele>235.0</ele><time>2026-04-26T06:38:58Z</time></trkpt><trkpt lat="43.13654163319468" lon="12.265439928578799"><ele>236.0</ele><time>2026-04-26T06:38:59Z</time></trkpt><trkpt lat="43.13639464355776" lon="12.265165812414352"><ele>236.0</ele><time>2026-04-26T06:39:00Z</time></trkpt><trkpt lat="43.13625074315782" lon="12.264894163092878"><ele>236.0</ele><time>2026-04-26T06:39:01Z</time></trkpt><trkpt lat="43.13611380554731" lon="12.264637047182358"><ele>235.0</ele><time>2026-04-26T06:39:02Z</time></trkpt><trkpt lat="43.1360014186871" lon="12.264386597250425"><ele>234.0</ele><time>2026-04-26T06:39:03Z</time></trkpt><trkpt lat="43.135892264464196" lon="12.264176774503854"><ele>233.0</ele><time>2026-04-26T06:39:04Z</time></trkpt><trkpt lat="43.13577670922852" lon="12.264006988928225"><ele>233.33333333333334</ele><time>2026-04-26T06:39:05Z</time></trkpt><trkpt lat="43.135686778551246" lon="12.26383213679393"><ele>233.66666666666669</ele><time>2026-04-26T06:39:06Z</time></trkpt><trkpt lat="43.13562823970134" lon="12.263654323964666"><ele>234.0</ele><time>2026-04-26T06:39:07Z</time></trkpt><trkpt lat="43.13561780469723" lon="12.263445875987056"><ele>234.0</ele><time>2026-04-26T06:39:08Z</time></trkpt><trkpt lat="43.1356287123013" lon="12.263218777408474"><ele>234.0</ele><time>2026-04-26T06:39:09Z</time></trkpt><trkpt lat="43.13557283812924" lon="12.263008011503786"><ele>234.0</ele><time>2026-04-26T06:39:10Z</time></trkpt><trkpt lat="43.13547102517214" lon="12.26282354041615"><ele>234.0</ele><time>2026-04-26T06:39:11Z</time></trkpt><trkpt lat="43.13532860466893" lon="12.26267993070623"><ele>234.0</ele><time>2026-04-26T06:39:12Z</time></trkpt><trkpt lat="43.13515833910692" lon="12.262596943864336"><ele>234.0</ele><time>2026-04-26T06:39:13Z</time></trkpt><trkpt lat="43.13499846021984" lon="12.262507414479629"><ele>233.66666666666669</ele><time>2026-04-26T06:39:14Z</time></trkpt><trkpt lat="43.13487777470356" lon="12.262323117930524"><ele>233.33333333333334</ele><time>2026-04-26T06:39:15Z</time></trkpt><trkpt lat="43.134759403446566" lon="12.262078800179046"><ele>233.0</ele><time>2026-04-26T06:39:16Z</time></trkpt><trkpt lat="43.13464324697988" lon="12.26180059335008"><ele>233.0</ele><time>2026-04-26T06:39:17Z</time></trkpt><trkpt lat="43.13451042076165" lon="12.261498013189213"><ele>233.0</ele><time>2026-04-26T06:39:18Z</time></trkpt><trkpt lat="43.134376890443875" lon="12.261225733118652"><ele>232.5</ele><time>2026-04-26T06:39:19Z</time></trkpt><trkpt lat="43.13425520615773" lon="12.260939591404656"><ele>232.0</ele><time>2026-04-26T06:39:20Z</time></trkpt><trkpt lat="43.13416639873265" lon="12.260630825933413"><ele>231.5</ele><time>2026-04-26T06:39:21Z</time></trkpt><trkpt lat="43.13410571844673" lon="12.260317761257124"><ele>231.0</ele><time>2026-04-26T06:39:22Z</time></trkpt><trkpt lat="43.13407681988722" lon="12.26000129457132"><ele>232.5</ele><time>2026-04-26T06:39:23Z</time></trkpt><trkpt lat="43.134069833680364" lon="12.259684356798413"><ele>234.0</ele><time>2026-04-26T06:39:24Z</time></trkpt><trkpt lat="43.134077185599736" lon="12.259366281142974"><ele>234.0</ele><time>2026-04-26T06:39:25Z</time></trkpt><trkpt lat="43.134105462137576" lon="12.259052733598846"><ele>234.0</ele><time>2026-04-26T06:39:26Z</time></trkpt><trkpt lat="43.13416333572724" lon="12.258747718792723"><ele>234.0</ele><time>2026-04-26T06:39:27Z</time></trkpt><trkpt lat="43.13425097001731" lon="12.258445317507679"><ele>234.0</ele><time>2026-04-26T06:39:28Z</time></trkpt><trkpt lat="43.134338819754205" lon="12.258112079573166"><ele>234.0</ele><time>2026-04-26T06:39:29Z</time></trkpt><trkpt lat="43.13442781332194" lon="12.257746125257025"><ele>234.0</ele><time>2026-04-26T06:39:30Z</time></trkpt><trkpt lat="43.134521894086824" lon="12.257357494047085"><ele>235.5</ele><time>2026-04-26T06:39:31Z</time></trkpt><trkpt lat="43.134624451000555" lon="12.256946650867443"><ele>237.0</ele><time>2026-04-26T06:39:32Z</time></trkpt><trkpt lat="43.134729252394315" lon="12.256529882776345"><ele>237.0</ele><time>2026-04-26T06:39:33Z</time></trkpt><trkpt lat="43.13483180786958" lon="12.256098049677421"><ele>237.0</ele><time>2026-04-26T06:39:34Z</time></trkpt><trkpt lat="43.134944119747914" lon="12.255661869769014"><ele>235.0</ele><time>2026-04-26T06:39:35Z</time></trkpt><trkpt lat="43.1350630982416" lon="12.255222043292662"><ele>233.0</ele><time>2026-04-26T06:39:36Z</time></trkpt><trkpt lat="43.135184716725234" lon="12.2547830892536"><ele>233.0</ele><time>2026-04-26T06:39:37Z</time></trkpt><trkpt lat="43.13530575285605" lon="12.254334224435057"><ele>233.0</ele><time>2026-04-26T06:39:38Z</time></trkpt><trkpt lat="43.13542521051119" lon="12.253886502637895"><ele>232.5</ele><time>2026-04-26T06:39:39Z</time></trkpt><trkpt lat="43.135543771530095" lon="12.253445924729606"><ele>232.0</ele><time>2026-04-26T06:39:40Z</time></trkpt><trkpt lat="43.13566162589838" lon="12.25301997825351"><ele>231.5</ele><time>2026-04-26T06:39:41Z</time></trkpt><trkpt lat="43.13577164909719" lon="12.252602471015443"><ele>231.0</ele><time>2026-04-26T06:39:42Z</time></trkpt><trkpt lat="43.13588181259736" lon="12.252194787102367"><ele>230.5</ele><time>2026-04-26T06:39:43Z</time></trkpt><trkpt lat="43.13599186537771" lon="12.25178898219483"><ele>230.0</ele><time>2026-04-26T06:39:44Z</time></trkpt><trkpt lat="43.136102672984265" lon="12.251400282585166"><ele>230.0</ele><time>2026-04-26T06:39:45Z</time></trkpt><trkpt lat="43.13622128111028" lon="12.250993631646864"><ele>230.0</ele><time>2026-04-26T06:39:46Z</time></trkpt><trkpt lat="43.13632174465865" lon="12.250584878899128"><ele>229.5</ele><time>2026-04-26T06:39:47Z</time></trkpt><trkpt lat="43.13643102396158" lon="12.25018811561525"><ele>229.0</ele><time>2026-04-26T06:39:48Z</time></trkpt><trkpt lat="43.13654301026762" lon="12.249792903145746"><ele>229.0</ele><time>2026-04-26T06:39:49Z</time></trkpt><trkpt lat="43.13665897318829" lon="12.249400402943406"><ele>229.0</ele><time>2026-04-26T06:39:50Z</time></trkpt><trkpt lat="43.13677131979322" lon="12.249008891591442"><ele>229.0</ele><time>2026-04-26T06:39:51Z</time></trkpt><trkpt lat="43.136881142997986" lon="12.248616757024728"><ele>229.0</ele><time>2026-04-26T06:39:52Z</time></trkpt><trkpt lat="43.136987311226605" lon="12.248227958688668"><ele>230.0</ele><time>2026-04-26T06:39:53Z</time></trkpt><trkpt lat="43.13709392283526" lon="12.247838141361356"><ele>231.0</ele><time>2026-04-26T06:39:54Z</time></trkpt><trkpt lat="43.13719662191231" lon="12.247450138104657"><ele>231.0</ele><time>2026-04-26T06:39:55Z</time></trkpt><trkpt lat="43.13730174351192" lon="12.247061395386208"><ele>231.0</ele><time>2026-04-26T06:39:56Z</time></trkpt><trkpt lat="43.13741025814448" lon="12.246676186305868"><ele>232.0</ele><time>2026-04-26T06:39:57Z</time></trkpt><trkpt lat="43.13751147487109" lon="12.246284166063386"><ele>233.0</ele><time>2026-04-26T06:39:58Z</time></trkpt><trkpt lat="43.13761767828814" lon="12.245907061290358"><ele>232.5</ele><time>2026-04-26T06:39:59Z</time></trkpt><trkpt lat="43.13770618583856" lon="12.245483084848482"><ele>232.0</ele><time>2026-04-26T06:40:00Z</time></trkpt><trkpt lat="43.137817335056205" lon="12.245120493912424"><ele>232.0</ele><time>2026-04-26T06:40:01Z</time></trkpt><trkpt lat="43.13793030602982" lon="12.244751311990132"><ele>232.0</ele><time>2026-04-26T06:40:02Z</time></trkpt><trkpt lat="43.13803167516402" lon="12.244372523739656"><ele>232.0</ele><time>2026-04-26T06:40:03Z</time></trkpt><trkpt lat="43.13813673870141" lon="12.243997519956126"><ele>232.0</ele><time>2026-04-26T06:40:04Z</time></trkpt><trkpt lat="43.13823774391875" lon="12.243616245543883"><ele>233.0</ele><time>2026-04-26T06:40:05Z</time></trkpt><trkpt lat="43.13833995816646" lon="12.243238493461384"><ele>234.0</ele><time>2026-04-26T06:40:06Z</time></trkpt><trkpt lat="43.13844418521789" lon="12.242862057116502"><ele>234.0</ele><time>2026-04-26T06:40:07Z</time></trkpt><trkpt lat="43.13854805319962" lon="12.242487119622336"><ele>234.0</ele><time>2026-04-26T06:40:08Z</time></trkpt><trkpt lat="43.13865137678451" lon="12.2421128736896"><ele>234.0</ele><time>2026-04-26T06:40:09Z</time></trkpt><trkpt lat="43.13875128439522" lon="12.24173191574868"><ele>234.0</ele><time>2026-04-26T06:40:10Z</time></trkpt><trkpt lat="43.13884802045776" lon="12.241354887516337"><ele>234.5</ele><time>2026-04-26T06:40:11Z</time></trkpt><trkpt lat="43.13895268351274" lon="12.24097893942974"><ele>235.0</ele><time>2026-04-26T06:40:12Z</time></trkpt><trkpt lat="43.139053586955974" lon="12.24060843928107"><ele>235.0</ele><time>2026-04-26T06:40:13Z</time></trkpt><trkpt lat="43.13915394512845" lon="12.240234502240602"><ele>235.0</ele><time>2026-04-26T06:40:14Z</time></trkpt><trkpt lat="43.13925592250848" lon="12.23986697414561"><ele>236.0</ele><time>2026-04-26T06:40:15Z</time></trkpt><trkpt lat="43.13935568786455" lon="12.2394987770683"><ele>237.0</ele><time>2026-04-26T06:40:16Z</time></trkpt><trkpt lat="43.139458549555016" lon="12.239133201636944"><ele>237.5</ele><time>2026-04-26T06:40:17Z</time></trkpt><trkpt lat="43.13955913047382" lon="12.238764846388127"><ele>238.0</ele><time>2026-04-26T06:40:18Z</time></trkpt><trkpt lat="43.13966046829253" lon="12.238397749645793"><ele>237.0</ele><time>2026-04-26T06:40:19Z</time></trkpt><trkpt lat="43.13976244001985" lon="12.23803239771907"><ele>236.0</ele><time>2026-04-26T06:40:20Z</time></trkpt><trkpt lat="43.139862802257966" lon="12.237661765005921"><ele>235.5</ele><time>2026-04-26T06:40:21Z</time></trkpt><trkpt lat="43.13995714876124" lon="12.237287420269732"><ele>235.0</ele><time>2026-04-26T06:40:22Z</time></trkpt><trkpt lat="43.1400552943641" lon="12.236918316909716"><ele>235.0</ele><time>2026-04-26T06:40:23Z</time></trkpt><trkpt lat="43.14015491501558" lon="12.236547637082555"><ele>235.0</ele><time>2026-04-26T06:40:24Z</time></trkpt><trkpt lat="43.14024840293122" lon="12.236177713082933"><ele>235.5</ele><time>2026-04-26T06:40:25Z</time></trkpt><trkpt lat="43.14033764287264" lon="12.235801238352973"><ele>236.0</ele><time>2026-04-26T06:40:26Z</time></trkpt><trkpt lat="43.14043060652828" lon="12.235432348320806"><ele>236.5</ele><time>2026-04-26T06:40:27Z</time></trkpt><trkpt lat="43.140520510603494" lon="12.235058924930625"><ele>237.0</ele><time>2026-04-26T06:40:28Z</time></trkpt><trkpt lat="43.14060804192662" lon="12.234685867420437"><ele>237.0</ele><time>2026-04-26T06:40:29Z</time></trkpt><trkpt lat="43.140696371901896" lon="12.234317646358386"><ele>237.0</ele><time>2026-04-26T06:40:30Z</time></trkpt><trkpt lat="43.14078023330413" lon="12.233945498081178"><ele>236.5</ele><time>2026-04-26T06:40:31Z</time></trkpt><trkpt lat="43.140859955161794" lon="12.233572458099408"><ele>236.0</ele><time>2026-04-26T06:40:32Z</time></trkpt><trkpt lat="43.140937988728965" lon="12.233199686256164"><ele>237.0</ele><time>2026-04-26T06:40:33Z</time></trkpt><trkpt lat="43.141016218285316" lon="12.232829587681934"><ele>238.0</ele><time>2026-04-26T06:40:34Z</time></trkpt><trkpt lat="43.14109174813373" lon="12.232443019294283"><ele>238.0</ele><time>2026-04-26T06:40:35Z</time></trkpt><trkpt lat="43.14116516413812" lon="12.2320591701045"><ele>238.0</ele><time>2026-04-26T06:40:36Z</time></trkpt><trkpt lat="43.141239695102215" lon="12.231675876632591"><ele>237.0</ele><time>2026-04-26T06:40:37Z</time></trkpt><trkpt lat="43.14131693089175" lon="12.231309083983426"><ele>236.0</ele><time>2026-04-26T06:40:38Z</time></trkpt><trkpt lat="43.141388898426435" lon="12.230925727062193"><ele>235.0</ele><time>2026-04-26T06:40:39Z</time></trkpt><trkpt lat="43.141468621842336" lon="12.23055232174266"><ele>234.0</ele><time>2026-04-26T06:40:40Z</time></trkpt><trkpt lat="43.141545127723155" lon="12.23017664768303"><ele>235.5</ele><time>2026-04-26T06:40:41Z</time></trkpt><trkpt lat="43.14161773841577" lon="12.229799431924382"><ele>237.0</ele><time>2026-04-26T06:40:42Z</time></trkpt><trkpt lat="43.14169455369419" lon="12.229422491534777"><ele>237.0</ele><time>2026-04-26T06:40:43Z</time></trkpt><trkpt lat="43.14177075470248" lon="12.22904548196321"><ele>237.0</ele><time>2026-04-26T06:40:44Z</time></trkpt><trkpt lat="43.141845946662514" lon="12.228666377567759"><ele>236.5</ele><time>2026-04-26T06:40:45Z</time></trkpt><trkpt lat="43.14192439707009" lon="12.228290707661412"><ele>236.0</ele><time>2026-04-26T06:40:46Z</time></trkpt><trkpt lat="43.142010147894204" lon="12.227914847875509"><ele>237.0</ele><time>2026-04-26T06:40:47Z</time></trkpt><trkpt lat="43.14210173634189" lon="12.227549500841166"><ele>238.0</ele><time>2026-04-26T06:40:48Z</time></trkpt><trkpt lat="43.142201243175954" lon="12.227185392922623"><ele>238.0</ele><time>2026-04-26T06:40:49Z</time></trkpt><trkpt lat="43.142313513575374" lon="12.22683714423927"><ele>238.0</ele><time>2026-04-26T06:40:50Z</time></trkpt><trkpt lat="43.142436166619746" lon="12.226485851301172"><ele>238.5</ele><time>2026-04-26T06:40:51Z</time></trkpt><trkpt lat="43.1425730693055" lon="12.226141854608706"><ele>239.0</ele><time>2026-04-26T06:40:52Z</time></trkpt><trkpt lat="43.14272420593129" lon="12.22580073617195"><ele>238.0</ele><time>2026-04-26T06:40:53Z</time></trkpt><trkpt lat="43.14288661454084" lon="12.225472150289914"><ele>237.0</ele><time>2026-04-26T06:40:54Z</time></trkpt><trkpt lat="43.14305991566139" lon="12.225153044584069"><ele>239.0</ele><time>2026-04-26T06:40:55Z</time></trkpt><trkpt lat="43.143242384292876" lon="12.224843410578718"><ele>241.0</ele><time>2026-04-26T06:40:56Z</time></trkpt><trkpt lat="43.14343292122606" lon="12.22455000030239"><ele>241.0</ele><time>2026-04-26T06:40:57Z</time></trkpt><trkpt lat="43.14363448952229" lon="12.224267516055498"><ele>241.0</ele><time>2026-04-26T06:40:58Z</time></trkpt><trkpt lat="43.14384234733083" lon="12.224005205291947"><ele>242.0</ele><time>2026-04-26T06:40:59Z</time></trkpt><trkpt lat="43.1440607355383" lon="12.223750008557788"><ele>243.0</ele><time>2026-04-26T06:41:00Z</time></trkpt><trkpt lat="43.14429433795731" lon="12.223505362015276"><ele>243.0</ele><time>2026-04-26T06:41:01Z</time></trkpt><trkpt lat="43.144532486985895" lon="12.223279159143802"><ele>243.0</ele><time>2026-04-26T06:41:02Z</time></trkpt><trkpt lat="43.14477734251302" lon="12.223069884036352"><ele>243.5</ele><time>2026-04-26T06:41:03Z</time></trkpt><trkpt lat="43.145026825213336" lon="12.222873615615173"><ele>244.0</ele><time>2026-04-26T06:41:04Z</time></trkpt><trkpt lat="43.14528309316405" lon="12.222696603511597"><ele>244.0</ele><time>2026-04-26T06:41:05Z</time></trkpt><trkpt lat="43.14554355814142" lon="12.222523520531597"><ele>244.0</ele><time>2026-04-26T06:41:06Z</time></trkpt><trkpt lat="43.14580428860952" lon="12.222352958746361"><ele>243.0</ele><time>2026-04-26T06:41:07Z</time></trkpt><trkpt lat="43.146062656744" lon="12.222183349852672"><ele>242.0</ele><time>2026-04-26T06:41:08Z</time></trkpt><trkpt lat="43.146321739869094" lon="12.222014837263965"><ele>244.0</ele><time>2026-04-26T06:41:09Z</time></trkpt><trkpt lat="43.14658007545198" lon="12.221850241819519"><ele>246.0</ele><time>2026-04-26T06:41:10Z</time></trkpt><trkpt lat="43.14683630478002" lon="12.221683223229745"><ele>246.0</ele><time>2026-04-26T06:41:11Z</time></trkpt><trkpt lat="43.14709137178913" lon="12.221516638719068"><ele>246.0</ele><time>2026-04-26T06:41:12Z</time></trkpt><trkpt lat="43.1473476520798" lon="12.221351466327809"><ele>245.0</ele><time>2026-04-26T06:41:13Z</time></trkpt><trkpt lat="43.14760136844907" lon="12.221186966876619"><ele>244.0</ele><time>2026-04-26T06:41:14Z</time></trkpt><trkpt lat="43.14785456747291" lon="12.221020346236937"><ele>244.0</ele><time>2026-04-26T06:41:15Z</time></trkpt><trkpt lat="43.14810623109789" lon="12.22085307308875"><ele>244.0</ele><time>2026-04-26T06:41:16Z</time></trkpt><trkpt lat="43.14835869124948" lon="12.220687940680426"><ele>243.5</ele><time>2026-04-26T06:41:17Z</time></trkpt><trkpt lat="43.148612532045085" lon="12.220527190554908"><ele>243.0</ele><time>2026-04-26T06:41:18Z</time></trkpt><trkpt lat="43.14886736561982" lon="12.220370489365061"><ele>243.5</ele><time>2026-04-26T06:41:19Z</time></trkpt><trkpt lat="43.14911978466051" lon="12.2202058621812"><ele>244.0</ele><time>2026-04-26T06:41:20Z</time></trkpt><trkpt lat="43.14936996256456" lon="12.220037906649324"><ele>244.0</ele><time>2026-04-26T06:41:21Z</time></trkpt><trkpt lat="43.14961522810386" lon="12.21985337252619"><ele>244.0</ele><time>2026-04-26T06:41:22Z</time></trkpt><trkpt lat="43.14985341344119" lon="12.219650040222335"><ele>245.0</ele><time>2026-04-26T06:41:23Z</time></trkpt><trkpt lat="43.15008185980024" lon="12.21942831122258"><ele>246.0</ele><time>2026-04-26T06:41:23.999Z</time></trkpt><trkpt lat="43.150297937109436" lon="12.219182205736416"><ele>246.5</ele><time>2026-04-26T06:41:24.999Z</time></trkpt><trkpt lat="43.15050123125665" lon="12.21891213301319"><ele>247.0</ele><time>2026-04-26T06:41:25.999Z</time></trkpt><trkpt lat="43.15069229624563" lon="12.218626159745115"><ele>246.5</ele><time>2026-04-26T06:41:26.999Z</time></trkpt><trkpt lat="43.150872676161086" lon="12.218329390794505"><ele>246.0</ele><time>2026-04-26T06:41:27.999Z</time></trkpt><trkpt lat="43.15103963066528" lon="12.218020314824512"><ele>245.5</ele><time>2026-04-26T06:41:29Z</time></trkpt><trkpt lat="43.151190051638146" lon="12.217693709569316"><ele>245.0</ele><time>2026-04-26T06:41:30Z</time></trkpt><trkpt lat="43.15132659342206" lon="12.217348843066478"><ele>245.0</ele><time>2026-04-26T06:41:31Z</time></trkpt><trkpt lat="43.15144816377543" lon="12.216999548526937"><ele>245.0</ele><time>2026-04-26T06:41:32Z</time></trkpt><trkpt lat="43.15155312898788" lon="12.216643095874058"><ele>247.0</ele><time>2026-04-26T06:41:33Z</time></trkpt><trkpt lat="43.15163977387791" lon="12.216276547859058"><ele>249.0</ele><time>2026-04-26T06:41:34Z</time></trkpt><trkpt lat="43.15170528169445" lon="12.215902694937073"><ele>249.5</ele><time>2026-04-26T06:41:35Z</time></trkpt><trkpt lat="43.1517551639604" lon="12.215528690749784"><ele>250.0</ele><time>2026-04-26T06:41:36Z</time></trkpt><trkpt lat="43.15178788725213" lon="12.215151213347125"><ele>252.0</ele><time>2026-04-26T06:41:37Z</time></trkpt><trkpt lat="43.151802537640975" lon="12.214776732856587"><ele>254.0</ele><time>2026-04-26T06:41:38Z</time></trkpt><trkpt lat="43.151800166078395" lon="12.214401462940538"><ele>254.0</ele><time>2026-04-26T06:41:39Z</time></trkpt><trkpt lat="43.15178305839164" lon="12.214030256090286"><ele>254.0</ele><time>2026-04-26T06:41:40Z</time></trkpt><trkpt lat="43.15175651155351" lon="12.213662513880262"><ele>257.0</ele><time>2026-04-26T06:41:41Z</time></trkpt><trkpt lat="43.151720887818314" lon="12.213300032006792"><ele>260.0</ele><time>2026-04-26T06:41:42Z</time></trkpt><trkpt lat="43.15168472267196" lon="12.212938195299182"><ele>265.5</ele><time>2026-04-26T06:41:43Z</time></trkpt><trkpt lat="43.15164967759947" lon="12.21257993306836"><ele>271.0</ele><time>2026-04-26T06:41:44Z</time></trkpt><trkpt lat="43.15162302064899" lon="12.21222269221371"><ele>273.5</ele><time>2026-04-26T06:41:45Z</time></trkpt><trkpt lat="43.15161044906812" lon="12.211866913675603"><ele>276.0</ele><time>2026-04-26T06:41:46Z</time></trkpt><trkpt lat="43.15161670624976" lon="12.21151164522405"><ele>275.5</ele><time>2026-04-26T06:41:47Z</time></trkpt><trkpt lat="43.15164628077477" lon="12.211155476038783"><ele>275.0</ele><time>2026-04-26T06:41:48Z</time></trkpt><trkpt lat="43.15170217176408" lon="12.210801602934037"><ele>276.0</ele><time>2026-04-26T06:41:49Z</time></trkpt><trkpt lat="43.15177037009703" lon="12.21044896203509"><ele>277.0</ele><time>2026-04-26T06:41:50Z</time></trkpt><trkpt lat="43.151849748158796" lon="12.210097954279282"><ele>279.0</ele><time>2026-04-26T06:41:51Z</time></trkpt><trkpt lat="43.151948759282625" lon="12.209757833252102"><ele>281.0</ele><time>2026-04-26T06:41:52Z</time></trkpt><trkpt lat="43.15206158937486" lon="12.209424145758735"><ele>281.0</ele><time>2026-04-26T06:41:53Z</time></trkpt><trkpt lat="43.15217955412984" lon="12.209089913158907"><ele>281.0</ele><time>2026-04-26T06:41:54Z</time></trkpt><trkpt lat="43.15230038455749" lon="12.208755614249107"><ele>286.5</ele><time>2026-04-26T06:41:55Z</time></trkpt><trkpt lat="43.15242639831961" lon="12.208420534110855"><ele>292.0</ele><time>2026-04-26T06:41:56Z</time></trkpt><trkpt lat="43.15254812898923" lon="12.208081982521442"><ele>292.5</ele><time>2026-04-26T06:41:57Z</time></trkpt><trkpt lat="43.15266990971108" lon="12.207741410092758"><ele>293.0</ele><time>2026-04-26T06:41:58Z</time></trkpt><trkpt lat="43.152791334138605" lon="12.207402659849151"><ele>298.0</ele><time>2026-04-26T06:41:59Z</time></trkpt><trkpt lat="43.152912684463544" lon="12.207062433841859"><ele>303.0</ele><time>2026-04-26T06:42:00Z</time></trkpt><trkpt lat="43.15302810529755" lon="12.206714882650022"><ele>312.0</ele><time>2026-04-26T06:42:01Z</time></trkpt><trkpt lat="43.153148176157586" lon="12.20636699551849"><ele>321.0</ele><time>2026-04-26T06:42:02Z</time></trkpt><trkpt lat="43.15327209727117" lon="12.206015804744137"><ele>321.0</ele><time>2026-04-26T06:42:03Z</time></trkpt><trkpt lat="43.15339666343268" lon="12.205664627682971"><ele>321.0</ele><time>2026-04-26T06:42:04Z</time></trkpt><trkpt lat="43.15352256404091" lon="12.2053024644047"><ele>330.5</ele><time>2026-04-26T06:42:05.021Z</time></trkpt><trkpt lat="43.15364094129636" lon="12.204942780400488"><ele>340.0</ele><time>2026-04-26T06:42:06.021Z</time></trkpt><trkpt lat="43.15375757627887" lon="12.204578285280748"><ele>348.5</ele><time>2026-04-26T06:42:07.022Z</time></trkpt><trkpt lat="43.15387555166583" lon="12.204212603789982"><ele>357.0</ele><time>2026-04-26T06:42:08.023Z</time></trkpt><trkpt lat="43.15399350715093" lon="12.203845638974322"><ele>369.0</ele><time>2026-04-26T06:42:09.022Z</time></trkpt><trkpt lat="43.1541144745522" lon="12.203478667783267"><ele>381.0</ele><time>2026-04-26T06:42:10.022Z</time></trkpt><trkpt lat="43.15423569482903" lon="12.203110682402388"><ele>388.0</ele><time>2026-04-26T06:42:11.021Z</time></trkpt><trkpt lat="43.15435585312474" lon="12.202740304353172"><ele>395.0</ele><time>2026-04-26T06:42:12.021Z</time></trkpt><trkpt lat="43.15447671144579" lon="12.202369765990147"><ele>291.0</ele><time>2026-04-26T06:42:13.02Z</time></trkpt><trkpt lat="43.15664946571286" lon="12.196418121468458"><ele>291.0</ele><time>2026-04-26T06:42:30Z</time></trkpt><trkpt lat="43.15677356753558" lon="12.19604802763209"><ele>291.0</ele><time>2026-04-26T06:42:31Z</time></trkpt><trkpt lat="43.15690666493648" lon="12.195694610171786"><ele>289.0</ele><time>2026-04-26T06:42:32Z</time></trkpt><trkpt lat="43.15704053046465" lon="12.195328855952233"><ele>287.0</ele><time>2026-04-26T06:42:33Z</time></trkpt><trkpt lat="43.157157546577764" lon="12.194974147419899"><ele>286.5</ele><time>2026-04-26T06:42:34Z</time></trkpt><trkpt lat="43.15728369720213" lon="12.194610289288864"><ele>286.0</ele><time>2026-04-26T06:42:35Z</time></trkpt><trkpt lat="43.15741593901288" lon="12.1942547886732"><ele>282.0</ele><time>2026-04-26T06:42:36Z</time></trkpt><trkpt lat="43.15755115575106" lon="12.19390628045049"><ele>278.0</ele><time>2026-04-26T06:42:37Z</time></trkpt><trkpt lat="43.157697036981205" lon="12.193561714611961"><ele>278.0</ele><time>2026-04-26T06:42:38Z</time></trkpt><trkpt lat="43.157855767393805" lon="12.193234524188329"><ele>278.0</ele><time>2026-04-26T06:42:39Z</time></trkpt><trkpt lat="43.15802207890988" lon="12.192909361131946"><ele>277.0</ele><time>2026-04-26T06:42:40Z</time></trkpt><trkpt lat="43.15821286924201" lon="12.192606871248293"><ele>276.0</ele><time>2026-04-26T06:42:41Z</time></trkpt><trkpt lat="43.158419056113395" lon="12.192327138761144"><ele>274.5</ele><time>2026-04-26T06:42:42Z</time></trkpt><trkpt lat="43.15863538168017" lon="12.192062097249625"><ele>273.0</ele><time>2026-04-26T06:42:43Z</time></trkpt><trkpt lat="43.15883418014427" lon="12.1917725824636"><ele>272.0</ele><time>2026-04-26T06:42:44Z</time></trkpt><trkpt lat="43.15904079850922" lon="12.191491647693496"><ele>271.0</ele><time>2026-04-26T06:42:45Z</time></trkpt><trkpt lat="43.159254145663795" lon="12.191225306949773"><ele>271.0</ele><time>2026-04-26T06:42:46Z</time></trkpt><trkpt lat="43.159478201208586" lon="12.190983557393618"><ele>271.0</ele><time>2026-04-26T06:42:47Z</time></trkpt><trkpt lat="43.1597123906449" lon="12.190760202455765"><ele>269.5</ele><time>2026-04-26T06:42:48Z</time></trkpt><trkpt lat="43.15994808883991" lon="12.190547737802397"><ele>268.0</ele><time>2026-04-26T06:42:49Z</time></trkpt><trkpt lat="43.160192309442614" lon="12.19035991476556"><ele>268.0</ele><time>2026-04-26T06:42:50Z</time></trkpt><trkpt lat="43.16044292217558" lon="12.190191457249892"><ele>268.0</ele><time>2026-04-26T06:42:51Z</time></trkpt><trkpt lat="43.16069554026809" lon="12.190040999704616"><ele>266.5</ele><time>2026-04-26T06:42:52Z</time></trkpt><trkpt lat="43.16095222928743" lon="12.189909015752809"><ele>265.0</ele><time>2026-04-26T06:42:53Z</time></trkpt><trkpt lat="43.161213782649284" lon="12.189800538237732"><ele>265.0</ele><time>2026-04-26T06:42:54Z</time></trkpt><trkpt lat="43.16147505308308" lon="12.18970620330132"><ele>265.0</ele><time>2026-04-26T06:42:55Z</time></trkpt><trkpt lat="43.16173851751582" lon="12.189623830507758"><ele>265.0</ele><time>2026-04-26T06:42:56Z</time></trkpt><trkpt lat="43.16200247815433" lon="12.189557834848603"><ele>265.0</ele><time>2026-04-26T06:42:57Z</time></trkpt><trkpt lat="43.16227043068308" lon="12.189514034113042"><ele>265.0</ele><time>2026-04-26T06:42:58Z</time></trkpt><trkpt lat="43.16253160046949" lon="12.189490518841215"><ele>265.0</ele><time>2026-04-26T06:42:59Z</time></trkpt><trkpt lat="43.16279748843228" lon="12.189469324426605"><ele>265.0</ele><time>2026-04-26T06:43:00Z</time></trkpt><trkpt lat="43.16307355490857" lon="12.189443636172006"><ele>265.0</ele><time>2026-04-26T06:43:01Z</time></trkpt><trkpt lat="43.163342350227715" lon="12.189413913616889"><ele>265.5</ele><time>2026-04-26T06:43:02Z</time></trkpt><trkpt lat="43.16361247659269" lon="12.189392342583897"><ele>266.0</ele><time>2026-04-26T06:43:03Z</time></trkpt><trkpt lat="43.1638794780212" lon="12.189373918663001"><ele>265.0</ele><time>2026-04-26T06:43:04Z</time></trkpt><trkpt lat="43.16414862518208" lon="12.189359894127982"><ele>264.0</ele><time>2026-04-26T06:43:05Z</time></trkpt><trkpt lat="43.16441692869905" lon="12.189340949923231"><ele>264.0</ele><time>2026-04-26T06:43:06Z</time></trkpt><trkpt lat="43.164683596621884" lon="12.189321175818947"><ele>264.0</ele><time>2026-04-26T06:43:07Z</time></trkpt><trkpt lat="43.164954283548276" lon="12.189302361209492"><ele>264.0</ele><time>2026-04-26T06:43:08Z</time></trkpt><trkpt lat="43.165225874633556" lon="12.189283330279522"><ele>264.0</ele><time>2026-04-26T06:43:09Z</time></trkpt><trkpt lat="43.16550136994224" lon="12.189271094116034"><ele>264.0</ele><time>2026-04-26T06:43:10Z</time></trkpt><trkpt lat="43.16577611019876" lon="12.1892561078375"><ele>264.0</ele><time>2026-04-26T06:43:11Z</time></trkpt><trkpt lat="43.16605112815299" lon="12.189239632978683"><ele>264.0</ele><time>2026-04-26T06:43:12Z</time></trkpt><trkpt lat="43.16632961169122" lon="12.189221369638176"><ele>264.0</ele><time>2026-04-26T06:43:13Z</time></trkpt><trkpt lat="43.16661023601065" lon="12.189203060248081"><ele>265.5</ele><time>2026-04-26T06:43:14Z</time></trkpt><trkpt lat="43.166881920404066" lon="12.189185991060251"><ele>267.0</ele><time>2026-04-26T06:43:15Z</time></trkpt><trkpt lat="43.16715862567059" lon="12.189159850510187"><ele>267.0</ele><time>2026-04-26T06:43:16Z</time></trkpt><trkpt lat="43.167437942382605" lon="12.189143562616094"><ele>267.0</ele><time>2026-04-26T06:43:17Z</time></trkpt><trkpt lat="43.16770895095331" lon="12.189129962262639"><ele>267.0</ele><time>2026-04-26T06:43:18Z</time></trkpt><trkpt lat="43.16797913916842" lon="12.189106792368808"><ele>267.0</ele><time>2026-04-26T06:43:19Z</time></trkpt><trkpt lat="43.168251099331236" lon="12.189082954057369"><ele>265.5</ele><time>2026-04-26T06:43:20Z</time></trkpt><trkpt lat="43.1685207910974" lon="12.189045755778483"><ele>264.0</ele><time>2026-04-26T06:43:21Z</time></trkpt><trkpt lat="43.16879127654503" lon="12.189002024200267"><ele>262.0</ele><time>2026-04-26T06:43:22Z</time></trkpt><trkpt lat="43.16905982812203" lon="12.1889479334118"><ele>260.0</ele><time>2026-04-26T06:43:23Z</time></trkpt><trkpt lat="43.16931920839295" lon="12.188882116152474"><ele>260.0</ele><time>2026-04-26T06:43:24Z</time></trkpt><trkpt lat="43.16958174292056" lon="12.188813426642312"><ele>260.0</ele><time>2026-04-26T06:43:25Z</time></trkpt><trkpt lat="43.1698474520292" lon="12.188732856572846"><ele>260.5</ele><time>2026-04-26T06:43:26Z</time></trkpt><trkpt lat="43.1701089841491" lon="12.188644265837715"><ele>261.0</ele><time>2026-04-26T06:43:27Z</time></trkpt><trkpt lat="43.170368883685036" lon="12.188547177775952"><ele>261.0</ele><time>2026-04-26T06:43:28Z</time></trkpt><trkpt lat="43.170626314241304" lon="12.188449530236511"><ele>261.0</ele><time>2026-04-26T06:43:29Z</time></trkpt><trkpt lat="43.17088046773569" lon="12.188339216485044"><ele>261.0</ele><time>2026-04-26T06:43:30Z</time></trkpt><trkpt lat="43.17113299846234" lon="12.188223547834324"><ele>261.0</ele><time>2026-04-26T06:43:31Z</time></trkpt><trkpt lat="43.171384533230764" lon="12.188107934303885"><ele>260.5</ele><time>2026-04-26T06:43:32Z</time></trkpt><trkpt lat="43.1716362815331" lon="12.187968854845773"><ele>260.0</ele><time>2026-04-26T06:43:33Z</time></trkpt><trkpt lat="43.17188350798313" lon="12.18782908212279"><ele>260.0</ele><time>2026-04-26T06:43:34Z</time></trkpt><trkpt lat="43.17212739086417" lon="12.187683459605898"><ele>260.0</ele><time>2026-04-26T06:43:35Z</time></trkpt><trkpt lat="43.172369479613536" lon="12.18751958622133"><ele>260.0</ele><time>2026-04-26T06:43:36Z</time></trkpt><trkpt lat="43.17261120587648" lon="12.187345398125213"><ele>260.0</ele><time>2026-04-26T06:43:37Z</time></trkpt><trkpt lat="43.17285272833374" lon="12.18716508631374"><ele>260.0</ele><time>2026-04-26T06:43:38Z</time></trkpt><trkpt lat="43.173095736266795" lon="12.18697525302453"><ele>260.0</ele><time>2026-04-26T06:43:39Z</time></trkpt><trkpt lat="43.17333030311473" lon="12.186778169271303"><ele>260.0</ele><time>2026-04-26T06:43:40Z</time></trkpt><trkpt lat="43.17356873701626" lon="12.18657456197354"><ele>260.0</ele><time>2026-04-26T06:43:41Z</time></trkpt><trkpt lat="43.17380567511927" lon="12.186362981129504"><ele>261.5</ele><time>2026-04-26T06:43:42Z</time></trkpt><trkpt lat="43.17404608835647" lon="12.186149616984956"><ele>263.0</ele><time>2026-04-26T06:43:43Z</time></trkpt><trkpt lat="43.1742824258013" lon="12.185935180009823"><ele>263.0</ele><time>2026-04-26T06:43:44Z</time></trkpt><trkpt lat="43.17452006246454" lon="12.185720518149342"><ele>263.0</ele><time>2026-04-26T06:43:45Z</time></trkpt><trkpt lat="43.17476006050397" lon="12.185511008599814"><ele>262.5</ele><time>2026-04-26T06:43:46Z</time></trkpt><trkpt lat="43.174998711429375" lon="12.185297433332241"><ele>262.0</ele><time>2026-04-26T06:43:47Z</time></trkpt><trkpt lat="43.17523584047745" lon="12.185087187611936"><ele>262.0</ele><time>2026-04-26T06:43:48Z</time></trkpt><trkpt lat="43.1754739804855" lon="12.18487445116211"><ele>262.0</ele><time>2026-04-26T06:43:49Z</time></trkpt><trkpt lat="43.175712688118786" lon="12.184665022706929"><ele>261.0</ele><time>2026-04-26T06:43:50Z</time></trkpt><trkpt lat="43.17595095986674" lon="12.184457007528964"><ele>260.0</ele><time>2026-04-26T06:43:51Z</time></trkpt><trkpt lat="43.176188885082695" lon="12.184245854950001"><ele>260.0</ele><time>2026-04-26T06:43:52Z</time></trkpt><trkpt lat="43.17642959977155" lon="12.184037128277813"><ele>260.0</ele><time>2026-04-26T06:43:53Z</time></trkpt><trkpt lat="43.17667194954658" lon="12.183831421522079"><ele>260.0</ele><time>2026-04-26T06:43:54Z</time></trkpt><trkpt lat="43.176912878002135" lon="12.183624840539457"><ele>260.0</ele><time>2026-04-26T06:43:55Z</time></trkpt><trkpt lat="43.17715187221374" lon="12.183414245820389"><ele>261.0</ele><time>2026-04-26T06:43:56Z</time></trkpt><trkpt lat="43.17738706597097" lon="12.183195880573924"><ele>262.0</ele><time>2026-04-26T06:43:57Z</time></trkpt><trkpt lat="43.17761788374548" lon="12.182971605208404"><ele>262.0</ele><time>2026-04-26T06:43:58Z</time></trkpt><trkpt lat="43.17784191321021" lon="12.18273180643699"><ele>262.0</ele><time>2026-04-26T06:43:59Z</time></trkpt><trkpt lat="43.17805782017358" lon="12.18248060774615"><ele>262.5</ele><time>2026-04-26T06:44:00Z</time></trkpt><trkpt lat="43.17826883173183" lon="12.182221820274206"><ele>263.0</ele><time>2026-04-26T06:44:01Z</time></trkpt><trkpt lat="43.17847398788097" lon="12.181956075254568"><ele>263.0</ele><time>2026-04-26T06:44:02Z</time></trkpt><trkpt lat="43.1786752444966" lon="12.181685678669027"><ele>263.0</ele><time>2026-04-26T06:44:03Z</time></trkpt><trkpt lat="43.178869943154346" lon="12.181409869576417"><ele>261.5</ele><time>2026-04-26T06:44:04Z</time></trkpt><trkpt lat="43.17905685738015" lon="12.181121505113007"><ele>260.0</ele><time>2026-04-26T06:44:05Z</time></trkpt><trkpt lat="43.17923496811636" lon="12.180824100343461"><ele>260.5</ele><time>2026-04-26T06:44:06Z</time></trkpt><trkpt lat="43.179405337034225" lon="12.180519570979767"><ele>261.0</ele><time>2026-04-26T06:44:07Z</time></trkpt><trkpt lat="43.17956735258865" lon="12.180209396707546"><ele>261.0</ele><time>2026-04-26T06:44:08Z</time></trkpt><trkpt lat="43.17973131948411" lon="12.179896440027226"><ele>261.0</ele><time>2026-04-26T06:44:09Z</time></trkpt><trkpt lat="43.17988026044301" lon="12.179567416840257"><ele>260.5</ele><time>2026-04-26T06:44:10Z</time></trkpt><trkpt lat="43.18002354957181" lon="12.179243562604123"><ele>260.0</ele><time>2026-04-26T06:44:11Z</time></trkpt><trkpt lat="43.180156966742906" lon="12.17891062460255"><ele>260.0</ele><time>2026-04-26T06:44:12Z</time></trkpt><trkpt lat="43.18028496096642" lon="12.178573175510914"><ele>260.0</ele><time>2026-04-26T06:44:13Z</time></trkpt><trkpt lat="43.18040589349817" lon="12.178231833723052"><ele>259.5</ele><time>2026-04-26T06:44:14Z</time></trkpt><trkpt lat="43.180516609231034" lon="12.177883736027352"><ele>259.0</ele><time>2026-04-26T06:44:15Z</time></trkpt><trkpt lat="43.18062336155084" lon="12.177536217697519"><ele>260.0</ele><time>2026-04-26T06:44:16Z</time></trkpt><trkpt lat="43.18071969694517" lon="12.177183572981534"><ele>261.0</ele><time>2026-04-26T06:44:17Z</time></trkpt><trkpt lat="43.180806202949746" lon="12.176827173656362"><ele>262.0</ele><time>2026-04-26T06:44:18Z</time></trkpt><trkpt lat="43.18088564061478" lon="12.176468343651502"><ele>263.0</ele><time>2026-04-26T06:44:19Z</time></trkpt><trkpt lat="43.18096088305526" lon="12.176108723373705"><ele>263.0</ele><time>2026-04-26T06:44:20Z</time></trkpt><trkpt lat="43.181030544903656" lon="12.17575347631766"><ele>263.0</ele><time>2026-04-26T06:44:21Z</time></trkpt><trkpt lat="43.18109594981664" lon="12.175396321082752"><ele>263.0</ele><time>2026-04-26T06:44:22Z</time></trkpt><trkpt lat="43.181162099248596" lon="12.175037359889208"><ele>263.0</ele><time>2026-04-26T06:44:23Z</time></trkpt><trkpt lat="43.181228305662664" lon="12.174678501669355"><ele>261.5</ele><time>2026-04-26T06:44:24Z</time></trkpt><trkpt lat="43.18129687061175" lon="12.174319390634764"><ele>260.0</ele><time>2026-04-26T06:44:25Z</time></trkpt><trkpt lat="43.18137496877473" lon="12.173967034101738"><ele>259.5</ele><time>2026-04-26T06:44:26Z</time></trkpt><trkpt lat="43.18143345694264" lon="12.17360151033504"><ele>259.0</ele><time>2026-04-26T06:44:27Z</time></trkpt><trkpt lat="43.18149913775054" lon="12.173240663603329"><ele>261.5</ele><time>2026-04-26T06:44:28Z</time></trkpt><trkpt lat="43.18156414655851" lon="12.17287669927828"><ele>264.0</ele><time>2026-04-26T06:44:29Z</time></trkpt><trkpt lat="43.181634999968125" lon="12.17251441455144"><ele>263.5</ele><time>2026-04-26T06:44:30Z</time></trkpt><trkpt lat="43.18170336952474" lon="12.172151164174586"><ele>263.0</ele><time>2026-04-26T06:44:31Z</time></trkpt><trkpt lat="43.18176744157858" lon="12.171785694035766"><ele>263.0</ele><time>2026-04-26T06:44:32Z</time></trkpt><trkpt lat="43.18183561305889" lon="12.171425396521848"><ele>263.0</ele><time>2026-04-26T06:44:33Z</time></trkpt><trkpt lat="43.181898076215994" lon="12.171058469232392"><ele>263.0</ele><time>2026-04-26T06:44:34Z</time></trkpt><trkpt lat="43.18196409451744" lon="12.170698554511507"><ele>263.0</ele><time>2026-04-26T06:44:35Z</time></trkpt><trkpt lat="43.18203735891203" lon="12.170336848800266"><ele>263.5</ele><time>2026-04-26T06:44:36Z</time></trkpt><trkpt lat="43.18210772515627" lon="12.16997266024588"><ele>264.0</ele><time>2026-04-26T06:44:37Z</time></trkpt><trkpt lat="43.18217175510667" lon="12.169609244808607"><ele>264.0</ele><time>2026-04-26T06:44:38Z</time></trkpt><trkpt lat="43.18223481642949" lon="12.169242673327402"><ele>264.0</ele><time>2026-04-26T06:44:39Z</time></trkpt><trkpt lat="43.18230414812347" lon="12.168879797427683"><ele>264.0</ele><time>2026-04-26T06:44:40Z</time></trkpt><trkpt lat="43.18236774356914" lon="12.168515862374752"><ele>264.0</ele><time>2026-04-26T06:44:41Z</time></trkpt><trkpt lat="43.18243555109796" lon="12.168153584782106"><ele>264.0</ele><time>2026-04-26T06:44:42Z</time></trkpt><trkpt lat="43.18251071975874" lon="12.167800212093569"><ele>264.0</ele><time>2026-04-26T06:44:43Z</time></trkpt><trkpt lat="43.182586038171415" lon="12.167448495403988"><ele>263.5</ele><time>2026-04-26T06:44:44Z</time></trkpt><trkpt lat="43.18265640248406" lon="12.167095312502944"><ele>263.0</ele><time>2026-04-26T06:44:45Z</time></trkpt><trkpt lat="43.18272716331727" lon="12.166742373199574"><ele>264.0</ele><time>2026-04-26T06:44:46Z</time></trkpt><trkpt lat="43.18279530306676" lon="12.16639235123073"><ele>265.0</ele><time>2026-04-26T06:44:47Z</time></trkpt><trkpt lat="43.18285935397542" lon="12.166043549393509"><ele>264.5</ele><time>2026-04-26T06:44:48Z</time></trkpt><trkpt lat="43.18292594254522" lon="12.165692428406102"><ele>264.0</ele><time>2026-04-26T06:44:49Z</time></trkpt><trkpt lat="43.18298461739807" lon="12.165341649974156"><ele>264.0</ele><time>2026-04-26T06:44:50Z</time></trkpt><trkpt lat="43.183057042060604" lon="12.165003130111062"><ele>264.0</ele><time>2026-04-26T06:44:51Z</time></trkpt><trkpt lat="43.18312067326075" lon="12.164657854078307"><ele>265.0</ele><time>2026-04-26T06:44:52Z</time></trkpt><trkpt lat="43.183187736578525" lon="12.1643114439309"><ele>266.0</ele><time>2026-04-26T06:44:53Z</time></trkpt><trkpt lat="43.18325930211471" lon="12.163965998970829"><ele>266.0</ele><time>2026-04-26T06:44:54Z</time></trkpt><trkpt lat="43.18332844855297" lon="12.163620934220432"><ele>266.0</ele><time>2026-04-26T06:44:55Z</time></trkpt><trkpt lat="43.18340378233865" lon="12.163278749034909"><ele>266.5</ele><time>2026-04-26T06:44:56Z</time></trkpt><trkpt lat="43.18348401765642" lon="12.162939333480447"><ele>267.0</ele><time>2026-04-26T06:44:57Z</time></trkpt><trkpt lat="43.18356657174635" lon="12.162599041366867"><ele>266.0</ele><time>2026-04-26T06:44:58Z</time></trkpt><trkpt lat="43.18365441111334" lon="12.162261425907312"><ele>265.0</ele><time>2026-04-26T06:44:59Z</time></trkpt><trkpt lat="43.18374049572185" lon="12.161921300823828"><ele>265.0</ele><time>2026-04-26T06:45:00Z</time></trkpt><trkpt lat="43.18383487954816" lon="12.161585140419179"><ele>265.0</ele><time>2026-04-26T06:45:01Z</time></trkpt><trkpt lat="43.18393336671722" lon="12.161249802988356"><ele>264.5</ele><time>2026-04-26T06:45:02Z</time></trkpt><trkpt lat="43.18403264005371" lon="12.160917351089552"><ele>264.0</ele><time>2026-04-26T06:45:03Z</time></trkpt><trkpt lat="43.18413688769012" lon="12.160588594348374"><ele>264.0</ele><time>2026-04-26T06:45:04Z</time></trkpt><trkpt lat="43.184243809286386" lon="12.16026137502017"><ele>264.0</ele><time>2026-04-26T06:45:05Z</time></trkpt><trkpt lat="43.18435406979536" lon="12.159940201415047"><ele>263.5</ele><time>2026-04-26T06:45:06Z</time></trkpt><trkpt lat="43.18446812109283" lon="12.15962197828569"><ele>263.0</ele><time>2026-04-26T06:45:07Z</time></trkpt><trkpt lat="43.18458250304701" lon="12.159301762021554"><ele>262.5</ele><time>2026-04-26T06:45:08Z</time></trkpt><trkpt lat="43.184700509248984" lon="12.158987237351518"><ele>262.0</ele><time>2026-04-26T06:45:09Z</time></trkpt><trkpt lat="43.18482094191337" lon="12.15867681064355"><ele>263.5</ele><time>2026-04-26T06:45:10Z</time></trkpt><trkpt lat="43.18494484687666" lon="12.158370653380898"><ele>265.0</ele><time>2026-04-26T06:45:11Z</time></trkpt><trkpt lat="43.18506958465467" lon="12.15806617255174"><ele>265.0</ele><time>2026-04-26T06:45:12Z</time></trkpt><trkpt lat="43.185199405619066" lon="12.157766743000838"><ele>265.0</ele><time>2026-04-26T06:45:13Z</time></trkpt><trkpt lat="43.185332965557954" lon="12.157470118271961"><ele>263.5</ele><time>2026-04-26T06:45:14Z</time></trkpt><trkpt lat="43.18546972709866" lon="12.157181320681588"><ele>262.0</ele><time>2026-04-26T06:45:15Z</time></trkpt><trkpt lat="43.185608109225946" lon="12.156890042506236"><ele>264.5</ele><time>2026-04-26T06:45:16Z</time></trkpt><trkpt lat="43.18574476743893" lon="12.15660297833635"><ele>267.0</ele><time>2026-04-26T06:45:17Z</time></trkpt><trkpt lat="43.18588356289556" lon="12.156314218801096"><ele>267.0</ele><time>2026-04-26T06:45:18Z</time></trkpt><trkpt lat="43.186025134044066" lon="12.156032270562143"><ele>267.0</ele><time>2026-04-26T06:45:19Z</time></trkpt><trkpt lat="43.18617012347481" lon="12.155745915025644"><ele>267.0</ele><time>2026-04-26T06:45:20Z</time></trkpt><trkpt lat="43.18631767151482" lon="12.155462768141064"><ele>267.0</ele><time>2026-04-26T06:45:21Z</time></trkpt><trkpt lat="43.18646216062158" lon="12.155174764104812"><ele>269.5</ele><time>2026-04-26T06:45:22Z</time></trkpt><trkpt lat="43.186608512600365" lon="12.154887796430044"><ele>272.0</ele><time>2026-04-26T06:45:23Z</time></trkpt><trkpt lat="43.186753658254986" lon="12.154601180046996"><ele>273.0</ele><time>2026-04-26T06:45:24Z</time></trkpt><trkpt lat="43.1869015306998" lon="12.15431189420681"><ele>274.0</ele><time>2026-04-26T06:45:25Z</time></trkpt><trkpt lat="43.187047022877" lon="12.154020045418749"><ele>274.0</ele><time>2026-04-26T06:45:26Z</time></trkpt><trkpt lat="43.18719369594384" lon="12.153729976762179"><ele>274.0</ele><time>2026-04-26T06:45:27Z</time></trkpt><trkpt lat="43.18734097249089" lon="12.153437125036252"><ele>274.5</ele><time>2026-04-26T06:45:28Z</time></trkpt><trkpt lat="43.18748835759985" lon="12.153145872744988"><ele>275.0</ele><time>2026-04-26T06:45:29Z</time></trkpt><trkpt lat="43.18763613812111" lon="12.152851309390824"><ele>275.0</ele><time>2026-04-26T06:45:30Z</time></trkpt><trkpt lat="43.187783612502756" lon="12.152558189622257"><ele>275.0</ele><time>2026-04-26T06:45:31Z</time></trkpt><trkpt lat="43.18793178942073" lon="12.152263557664435"><ele>274.0</ele><time>2026-04-26T06:45:32Z</time></trkpt><trkpt lat="43.18807878316823" lon="12.15196756009117"><ele>273.0</ele><time>2026-04-26T06:45:33Z</time></trkpt><trkpt lat="43.18822307704856" lon="12.151670386709986"><ele>277.0</ele><time>2026-04-26T06:45:34Z</time></trkpt><trkpt lat="43.18836833696515" lon="12.151371753346348"><ele>281.0</ele><time>2026-04-26T06:45:35Z</time></trkpt><trkpt lat="43.18850854605589" lon="12.151074517749885"><ele>281.0</ele><time>2026-04-26T06:45:36Z</time></trkpt><trkpt lat="43.18864496385353" lon="12.150769736776677"><ele>281.0</ele><time>2026-04-26T06:45:37Z</time></trkpt><trkpt lat="43.18877758897784" lon="12.150462510954323"><ele>281.0</ele><time>2026-04-26T06:45:38Z</time></trkpt><trkpt lat="43.188909204890926" lon="12.150152600262826"><ele>281.0</ele><time>2026-04-26T06:45:39Z</time></trkpt><trkpt lat="43.18903917020145" lon="12.149841076503185"><ele>290.0</ele><time>2026-04-26T06:45:40Z</time></trkpt><trkpt lat="43.18916911515104" lon="12.149529909311727"><ele>299.0</ele><time>2026-04-26T06:45:41Z</time></trkpt><trkpt lat="43.18929489752552" lon="12.149221411982218"><ele>306.5</ele><time>2026-04-26T06:45:42Z</time></trkpt><trkpt lat="43.18942350511076" lon="12.14891113575636"><ele>314.0</ele><time>2026-04-26T06:45:43Z</time></trkpt><trkpt lat="43.18955092883806" lon="12.148599532705763"><ele>314.0</ele><time>2026-04-26T06:45:44Z</time></trkpt><trkpt lat="43.18968223871697" lon="12.148280748639575"><ele>314.0</ele><time>2026-04-26T06:45:45.021Z</time></trkpt><trkpt lat="43.18980958298523" lon="12.147969110738588"><ele>330.5</ele><time>2026-04-26T06:45:46.018Z</time></trkpt><trkpt lat="43.189937715304524" lon="12.147656610779755"><ele>347.0</ele><time>2026-04-26T06:45:47.019Z</time></trkpt><trkpt lat="43.190066233532235" lon="12.147344934525945"><ele>355.0</ele><time>2026-04-26T06:45:48.018Z</time></trkpt><trkpt lat="43.19019513825903" lon="12.147033693866407"><ele>363.0</ele><time>2026-04-26T06:45:49.018Z</time></trkpt><trkpt lat="43.19032411648871" lon="12.14672313553896"><ele>368.0</ele><time>2026-04-26T06:45:50.018Z</time></trkpt><trkpt lat="43.19045350571219" lon="12.146413387237816"><ele>373.0</ele><time>2026-04-26T06:45:51.022Z</time></trkpt><trkpt lat="43.19058331495243" lon="12.146104078488422"><ele>293.0</ele><time>2026-04-26T06:45:52.02Z</time></trkpt><trkpt lat="43.192217024083426" lon="12.14236021043001"><ele>293.0</ele><time>2026-04-26T06:46:04Z</time></trkpt><trkpt lat="43.192345010085965" lon="12.142042395694311"><ele>293.0</ele><time>2026-04-26T06:46:05Z</time></trkpt><trkpt lat="43.192432609294016" lon="12.141561780651843"><ele>293.0</ele><time>2026-04-26T06:46:06Z</time></trkpt><trkpt lat="43.19256046174272" lon="12.141255386694027"><ele>293.0</ele><time>2026-04-26T06:46:07Z</time></trkpt><trkpt lat="43.19268364877814" lon="12.1409382656722"><ele>294.0</ele><time>2026-04-26T06:46:08Z</time></trkpt><trkpt lat="43.192801178188525" lon="12.1406230214794"><ele>295.0</ele><time>2026-04-26T06:46:09Z</time></trkpt><trkpt lat="43.19291670784693" lon="12.140306110583849"><ele>295.0</ele><time>2026-04-26T06:46:10Z</time></trkpt><trkpt lat="43.19303391820232" lon="12.139989392784056"><ele>295.0</ele><time>2026-04-26T06:46:11Z</time></trkpt><trkpt lat="43.1931511792408" lon="12.139675176732116"><ele>298.0</ele><time>2026-04-26T06:46:12Z</time></trkpt><trkpt lat="43.19327422516124" lon="12.139361499473877"><ele>301.0</ele><time>2026-04-26T06:46:13Z</time></trkpt><trkpt lat="43.19339902462491" lon="12.139052730378273"><ele>301.5</ele><time>2026-04-26T06:46:14Z</time></trkpt><trkpt lat="43.193526601550914" lon="12.138746592692113"><ele>302.0</ele><time>2026-04-26T06:46:15Z</time></trkpt><trkpt lat="43.19365247657752" lon="12.138439671419587"><ele>303.0</ele><time>2026-04-26T06:46:16Z</time></trkpt><trkpt lat="43.19377760526687" lon="12.138132743040655"><ele>304.0</ele><time>2026-04-26T06:46:17Z</time></trkpt><trkpt lat="43.19390118937269" lon="12.137831693612808"><ele>310.0</ele><time>2026-04-26T06:46:18Z</time></trkpt><trkpt lat="43.1940254252164" lon="12.137526021488954"><ele>316.0</ele><time>2026-04-26T06:46:19Z</time></trkpt><trkpt lat="43.19415079840261" lon="12.137214388257664"><ele>316.0</ele><time>2026-04-26T06:46:20Z</time></trkpt><trkpt lat="43.19427840734672" lon="12.136906632917396"><ele>316.0</ele><time>2026-04-26T06:46:21Z</time></trkpt><trkpt lat="43.194404224019635" lon="12.136596364393055"><ele>311.5</ele><time>2026-04-26T06:46:22Z</time></trkpt><trkpt lat="43.19452965746785" lon="12.136284171706249"><ele>307.0</ele><time>2026-04-26T06:46:23Z</time></trkpt><trkpt lat="43.19465476433478" lon="12.135970345132836"><ele>307.5</ele><time>2026-04-26T06:46:24Z</time></trkpt><trkpt lat="43.19478052216997" lon="12.135660029293987"><ele>308.0</ele><time>2026-04-26T06:46:25Z</time></trkpt><trkpt lat="43.194908900869535" lon="12.135353666164987"><ele>308.0</ele><time>2026-04-26T06:46:26Z</time></trkpt><trkpt lat="43.19503511160681" lon="12.135040063664151"><ele>308.0</ele><time>2026-04-26T06:46:27Z</time></trkpt><trkpt lat="43.195162105334525" lon="12.134728816492713"><ele>306.5</ele><time>2026-04-26T06:46:28Z</time></trkpt><trkpt lat="43.1952913142533" lon="12.134415625219534"><ele>305.0</ele><time>2026-04-26T06:46:29Z</time></trkpt><trkpt lat="43.19541927951975" lon="12.134102108870948"><ele>304.5</ele><time>2026-04-26T06:46:30Z</time></trkpt><trkpt lat="43.195552219229356" lon="12.133795815206453"><ele>304.0</ele><time>2026-04-26T06:46:31Z</time></trkpt><trkpt lat="43.1956795003634" lon="12.133480430053336"><ele>308.0</ele><time>2026-04-26T06:46:32Z</time></trkpt><trkpt lat="43.195805981294185" lon="12.13316921104615"><ele>312.0</ele><time>2026-04-26T06:46:33Z</time></trkpt><trkpt lat="43.19593927662215" lon="12.132859141399855"><ele>312.0</ele><time>2026-04-26T06:46:34Z</time></trkpt><trkpt lat="43.19606663778579" lon="12.132541989521531"><ele>312.0</ele><time>2026-04-26T06:46:35Z</time></trkpt><trkpt lat="43.19619499412533" lon="12.132229037806935"><ele>309.5</ele><time>2026-04-26T06:46:36Z</time></trkpt><trkpt lat="43.19632364113107" lon="12.131911902581706"><ele>307.0</ele><time>2026-04-26T06:46:37Z</time></trkpt><trkpt lat="43.196450429304676" lon="12.131596026007948"><ele>310.5</ele><time>2026-04-26T06:46:38Z</time></trkpt><trkpt lat="43.196576508671775" lon="12.131278024435156"><ele>314.0</ele><time>2026-04-26T06:46:39Z</time></trkpt><trkpt lat="43.196697609435034" lon="12.130952760087425"><ele>312.5</ele><time>2026-04-26T06:46:40Z</time></trkpt><trkpt lat="43.196811132734574" lon="12.130626555127224"><ele>311.0</ele><time>2026-04-26T06:46:41Z</time></trkpt><trkpt lat="43.19689978076071" lon="12.130284965875454"><ele>311.0</ele><time>2026-04-26T06:46:42Z</time></trkpt><trkpt lat="43.19698293820389" lon="12.129941759205911"><ele>311.0</ele><time>2026-04-26T06:46:43Z</time></trkpt><trkpt lat="43.19706571486987" lon="12.129604754512659"><ele>311.0</ele><time>2026-04-26T06:46:44Z</time></trkpt><trkpt lat="43.19714050809483" lon="12.129261795108965"><ele>311.0</ele><time>2026-04-26T06:46:45Z</time></trkpt><trkpt lat="43.197211351306805" lon="12.128918963539299"><ele>311.0</ele><time>2026-04-26T06:46:46Z</time></trkpt><trkpt lat="43.1972643544515" lon="12.12857088878429"><ele>311.0</ele><time>2026-04-26T06:46:47Z</time></trkpt><trkpt lat="43.19731429431334" lon="12.128215163059897"><ele>310.0</ele><time>2026-04-26T06:46:48Z</time></trkpt><trkpt lat="43.197338932663676" lon="12.127856140638684"><ele>309.0</ele><time>2026-04-26T06:46:49Z</time></trkpt><trkpt lat="43.19735419704022" lon="12.127494323988802"><ele>305.5</ele><time>2026-04-26T06:46:50Z</time></trkpt><trkpt lat="43.19736700224283" lon="12.12713804908925"><ele>302.0</ele><time>2026-04-26T06:46:51Z</time></trkpt><trkpt lat="43.19736496940832" lon="12.126778373815894"><ele>300.0</ele><time>2026-04-26T06:46:52Z</time></trkpt><trkpt lat="43.19735833984122" lon="12.126420131909667"><ele>298.0</ele><time>2026-04-26T06:46:53Z</time></trkpt><trkpt lat="43.197338702758465" lon="12.126063779495475"><ele>303.0</ele><time>2026-04-26T06:46:54Z</time></trkpt><trkpt lat="43.19731202336136" lon="12.125708158679863"><ele>308.0</ele><time>2026-04-26T06:46:55Z</time></trkpt><trkpt lat="43.197275739765615" lon="12.12535019616524"><ele>308.0</ele><time>2026-04-26T06:46:56Z</time></trkpt><trkpt lat="43.19724218313704" lon="12.124992861489714"><ele>308.0</ele><time>2026-04-26T06:46:57Z</time></trkpt><trkpt lat="43.19720726027174" lon="12.124638227807468"><ele>308.5</ele><time>2026-04-26T06:46:58Z</time></trkpt><trkpt lat="43.19717410802559" lon="12.124281834187725"><ele>309.0</ele><time>2026-04-26T06:46:59Z</time></trkpt><trkpt lat="43.19713911811303" lon="12.123932639258877"><ele>312.0</ele><time>2026-04-26T06:47:00Z</time></trkpt><trkpt lat="43.197105323561146" lon="12.123577778954239"><ele>315.0</ele><time>2026-04-26T06:47:01Z</time></trkpt><trkpt lat="43.197069257427444" lon="12.12322022149187"><ele>318.5</ele><time>2026-04-26T06:47:02Z</time></trkpt><trkpt lat="43.197031895375865" lon="12.122861174799228"><ele>322.0</ele><time>2026-04-26T06:47:03Z</time></trkpt><trkpt lat="43.1969941922687" lon="12.122493811486523"><ele>323.5</ele><time>2026-04-26T06:47:04.021Z</time></trkpt><trkpt lat="43.19695654867301" lon="12.12213199533931"><ele>325.0</ele><time>2026-04-26T06:47:05.021Z</time></trkpt><trkpt lat="43.1969183586596" lon="12.121771298712394"><ele>322.5</ele><time>2026-04-26T06:47:06.015Z</time></trkpt><trkpt lat="43.19687789713878" lon="12.121406389884058"><ele>320.0</ele><time>2026-04-26T06:47:07.017Z</time></trkpt><trkpt lat="43.19683568589746" lon="12.121042545007281"><ele>312.5</ele><time>2026-04-26T06:47:08.014Z</time></trkpt><trkpt lat="43.19679053331656" lon="12.120674881653485"><ele>305.0</ele><time>2026-04-26T06:47:09.016Z</time></trkpt><trkpt lat="43.19674322614912" lon="12.120307252819028"><ele>305.0</ele><time>2026-04-26T06:47:10.016Z</time></trkpt><trkpt lat="43.19669538350714" lon="12.119938321653176"><ele>305.0</ele><time>2026-04-26T06:47:11.017Z</time></trkpt><trkpt lat="43.196670706424115" lon="12.11884897203382"><ele>292.5</ele><time>2026-04-26T06:47:14Z</time></trkpt><trkpt lat="43.19664079474321" lon="12.118480314237523"><ele>280.0</ele><time>2026-04-26T06:47:15Z</time></trkpt><trkpt lat="43.19660138318598" lon="12.118153666246608"><ele>276.5</ele><time>2026-04-26T06:47:16Z</time></trkpt><trkpt lat="43.19657516900397" lon="12.117805754948225"><ele>273.0</ele><time>2026-04-26T06:47:17Z</time></trkpt><trkpt lat="43.196539225451" lon="12.117430457123017"><ele>271.5</ele><time>2026-04-26T06:47:18Z</time></trkpt><trkpt lat="43.19650536254094" lon="12.117091828211104"><ele>270.0</ele><time>2026-04-26T06:47:19Z</time></trkpt><trkpt lat="43.19647101525621" lon="12.11675002924675"><ele>267.5</ele><time>2026-04-26T06:47:20Z</time></trkpt><trkpt lat="43.196433270012314" lon="12.116397265887175"><ele>265.0</ele><time>2026-04-26T06:47:21Z</time></trkpt><trkpt lat="43.19639361903889" lon="12.116037902447296"><ele>265.0</ele><time>2026-04-26T06:47:22Z</time></trkpt><trkpt lat="43.19635135799305" lon="12.115678699714788"><ele>265.0</ele><time>2026-04-26T06:47:23Z</time></trkpt><trkpt lat="43.19630999455351" lon="12.11531824483449"><ele>265.0</ele><time>2026-04-26T06:47:24Z</time></trkpt><trkpt lat="43.19627299599747" lon="12.11495916877435"><ele>265.0</ele><time>2026-04-26T06:47:25Z</time></trkpt><trkpt lat="43.19623033088519" lon="12.114591597282363"><ele>265.0</ele><time>2026-04-26T06:47:26Z</time></trkpt><trkpt lat="43.196194708269786" lon="12.114226488402803"><ele>265.0</ele><time>2026-04-26T06:47:27Z</time></trkpt><trkpt lat="43.19616319033047" lon="12.113863689884248"><ele>265.0</ele><time>2026-04-26T06:47:28Z</time></trkpt><trkpt lat="43.19613149500638" lon="12.113500158835047"><ele>265.0</ele><time>2026-04-26T06:47:29Z</time></trkpt><trkpt lat="43.196082242253006" lon="12.113120413053267"><ele>265.0</ele><time>2026-04-26T06:47:30Z</time></trkpt><trkpt lat="43.19604691530347" lon="12.112748783567879"><ele>265.0</ele><time>2026-04-26T06:47:31Z</time></trkpt><trkpt lat="43.19600487491978" lon="12.112376104480145"><ele>265.5</ele><time>2026-04-26T06:47:32Z</time></trkpt><trkpt lat="43.19596989147368" lon="12.112007381939096"><ele>266.0</ele><time>2026-04-26T06:47:33Z</time></trkpt><trkpt lat="43.19593577479242" lon="12.111634471823129"><ele>266.0</ele><time>2026-04-26T06:47:34Z</time></trkpt><trkpt lat="43.19590419001526" lon="12.111262275254285"><ele>266.0</ele><time>2026-04-26T06:47:35Z</time></trkpt><trkpt lat="43.195877912932346" lon="12.110888836235286"><ele>265.0</ele><time>2026-04-26T06:47:36Z</time></trkpt><trkpt lat="43.1958473041317" lon="12.11051867841812"><ele>264.0</ele><time>2026-04-26T06:47:37Z</time></trkpt><trkpt lat="43.19581454448401" lon="12.110146832302187"><ele>263.0</ele><time>2026-04-26T06:47:38Z</time></trkpt><trkpt lat="43.19577932388678" lon="12.109775634888146"><ele>262.0</ele><time>2026-04-26T06:47:39Z</time></trkpt><trkpt lat="43.19574801286661" lon="12.10940287626098"><ele>262.0</ele><time>2026-04-26T06:47:40Z</time></trkpt><trkpt lat="43.19571406499844" lon="12.109031416451822"><ele>262.0</ele><time>2026-04-26T06:47:41Z</time></trkpt><trkpt lat="43.19567884253529" lon="12.108662329743199"><ele>261.5</ele><time>2026-04-26T06:47:42Z</time></trkpt><trkpt lat="43.19564343614046" lon="12.108292036568221"><ele>261.0</ele><time>2026-04-26T06:47:43Z</time></trkpt><trkpt lat="43.19561296966903" lon="12.107926697678737"><ele>262.0</ele><time>2026-04-26T06:47:44Z</time></trkpt><trkpt lat="43.19557934392603" lon="12.107555265586905"><ele>263.0</ele><time>2026-04-26T06:47:45Z</time></trkpt><trkpt lat="43.19554710000636" lon="12.107186724816236"><ele>263.0</ele><time>2026-04-26T06:47:46Z</time></trkpt><trkpt lat="43.19551230144325" lon="12.106814691218558"><ele>263.0</ele><time>2026-04-26T06:47:47Z</time></trkpt><trkpt lat="43.19548005982111" lon="12.10644382237926"><ele>262.0</ele><time>2026-04-26T06:47:48Z</time></trkpt><trkpt lat="43.19544735288198" lon="12.106071345377671"><ele>261.0</ele><time>2026-04-26T06:47:49Z</time></trkpt><trkpt lat="43.195413760546295" lon="12.105697227651538"><ele>261.0</ele><time>2026-04-26T06:47:50Z</time></trkpt><trkpt lat="43.19538710579262" lon="12.105325519906966"><ele>261.0</ele><time>2026-04-26T06:47:51Z</time></trkpt><trkpt lat="43.19536264174843" lon="12.104955468465725"><ele>260.5</ele><time>2026-04-26T06:47:52Z</time></trkpt><trkpt lat="43.195342635857514" lon="12.104590269973855"><ele>260.0</ele><time>2026-04-26T06:47:53Z</time></trkpt><trkpt lat="43.19533112888192" lon="12.104224108193533"><ele>259.5</ele><time>2026-04-26T06:47:54Z</time></trkpt><trkpt lat="43.19532173828179" lon="12.103843271932012"><ele>259.0</ele><time>2026-04-26T06:47:55Z</time></trkpt><trkpt lat="43.19530747611313" lon="12.103481081622116"><ele>259.5</ele><time>2026-04-26T06:47:56Z</time></trkpt><trkpt lat="43.19528804672737" lon="12.103093177917374"><ele>260.0</ele><time>2026-04-26T06:47:57Z</time></trkpt><trkpt lat="43.19528623464783" lon="12.102721204649646"><ele>259.5</ele><time>2026-04-26T06:47:58Z</time></trkpt><trkpt lat="43.19529191306072" lon="12.1023485505687"><ele>259.0</ele><time>2026-04-26T06:47:59Z</time></trkpt><trkpt lat="43.19530136034534" lon="12.101980587124853"><ele>259.0</ele><time>2026-04-26T06:48:00Z</time></trkpt><trkpt lat="43.19531449826751" lon="12.101612993648908"><ele>259.0</ele><time>2026-04-26T06:48:01Z</time></trkpt><trkpt lat="43.195335471271186" lon="12.101250295421748"><ele>259.0</ele><time>2026-04-26T06:48:02Z</time></trkpt><trkpt lat="43.19536457504116" lon="12.1008867111068"><ele>259.0</ele><time>2026-04-26T06:48:03Z</time></trkpt><trkpt lat="43.19539881475991" lon="12.100525710403888"><ele>259.5</ele><time>2026-04-26T06:48:04Z</time></trkpt><trkpt lat="43.195440351315604" lon="12.100167765615893"><ele>260.0</ele><time>2026-04-26T06:48:05Z</time></trkpt><trkpt lat="43.19548487555679" lon="12.099810578155427"><ele>259.0</ele><time>2026-04-26T06:48:06Z</time></trkpt><trkpt lat="43.19553221095379" lon="12.099451853072763"><ele>258.0</ele><time>2026-04-26T06:48:07Z</time></trkpt><trkpt lat="43.195579895710864" lon="12.099097087013043"><ele>258.0</ele><time>2026-04-26T06:48:08Z</time></trkpt><trkpt lat="43.19563110093929" lon="12.098739682433845"><ele>258.0</ele><time>2026-04-26T06:48:09Z</time></trkpt><trkpt lat="43.195680643257674" lon="12.098383618623162"><ele>258.5</ele><time>2026-04-26T06:48:10Z</time></trkpt><trkpt lat="43.1957294036991" lon="12.098028876150114"><ele>259.0</ele><time>2026-04-26T06:48:11Z</time></trkpt><trkpt lat="43.195778209082825" lon="12.09767415392459"><ele>258.5</ele><time>2026-04-26T06:48:12Z</time></trkpt><trkpt lat="43.19582809969011" lon="12.097320019408189"><ele>258.0</ele><time>2026-04-26T06:48:13Z</time></trkpt><trkpt lat="43.19587626315889" lon="12.096965605211173"><ele>258.0</ele><time>2026-04-26T06:48:14Z</time></trkpt><trkpt lat="43.19592431890162" lon="12.09661054245879"><ele>258.0</ele><time>2026-04-26T06:48:15Z</time></trkpt><trkpt lat="43.19597571472033" lon="12.09625134223339"><ele>259.0</ele><time>2026-04-26T06:48:16Z</time></trkpt><trkpt lat="43.19602920169693" lon="12.095888937434767"><ele>260.0</ele><time>2026-04-26T06:48:17Z</time></trkpt><trkpt lat="43.196080858302345" lon="12.095526212999758"><ele>260.0</ele><time>2026-04-26T06:48:18Z</time></trkpt><trkpt lat="43.196133919633695" lon="12.095163336007525"><ele>260.0</ele><time>2026-04-26T06:48:19Z</time></trkpt><trkpt lat="43.196181232517" lon="12.094797955275581"><ele>260.0</ele><time>2026-04-26T06:48:20Z</time></trkpt><trkpt lat="43.196234170500446" lon="12.094435553655956"><ele>260.0</ele><time>2026-04-26T06:48:21Z</time></trkpt><trkpt lat="43.196281895771406" lon="12.094072640376472"><ele>259.5</ele><time>2026-04-26T06:48:22Z</time></trkpt><trkpt lat="43.19633230079839" lon="12.093714436887161"><ele>259.0</ele><time>2026-04-26T06:48:23Z</time></trkpt><trkpt lat="43.19638596001754" lon="12.093356289076064"><ele>259.0</ele><time>2026-04-26T06:48:24Z</time></trkpt><trkpt lat="43.196438824290105" lon="12.092999415748567"><ele>259.0</ele><time>2026-04-26T06:48:25Z</time></trkpt><trkpt lat="43.19649096630642" lon="12.092641685614216"><ele>260.0</ele><time>2026-04-26T06:48:26Z</time></trkpt><trkpt lat="43.19654358922632" lon="12.092284886695923"><ele>261.0</ele><time>2026-04-26T06:48:27Z</time></trkpt><trkpt lat="43.1965986206946" lon="12.091932904771213"><ele>261.5</ele><time>2026-04-26T06:48:28Z</time></trkpt><trkpt lat="43.19665317606058" lon="12.091580407872772"><ele>262.0</ele><time>2026-04-26T06:48:29Z</time></trkpt><trkpt lat="43.19670487019179" lon="12.09122940495081"><ele>262.0</ele><time>2026-04-26T06:48:30Z</time></trkpt><trkpt lat="43.19675650940354" lon="12.090879902968902"><ele>262.0</ele><time>2026-04-26T06:48:31Z</time></trkpt><trkpt lat="43.196806367844225" lon="12.090528654453028"><ele>261.5</ele><time>2026-04-26T06:48:32Z</time></trkpt><trkpt lat="43.196857852910554" lon="12.09017742601006"><ele>261.0</ele><time>2026-04-26T06:48:33Z</time></trkpt><trkpt lat="43.19690991456424" lon="12.089820326904668"><ele>260.5</ele><time>2026-04-26T06:48:34Z</time></trkpt><trkpt lat="43.196962461717995" lon="12.08946234732207"><ele>260.0</ele><time>2026-04-26T06:48:35Z</time></trkpt><trkpt lat="43.197019324554894" lon="12.089105981206632"><ele>260.0</ele><time>2026-04-26T06:48:36Z</time></trkpt><trkpt lat="43.197073110207214" lon="12.088746298684127"><ele>260.0</ele><time>2026-04-26T06:48:37Z</time></trkpt><trkpt lat="43.19712876180651" lon="12.088389562270867"><ele>259.5</ele><time>2026-04-26T06:48:38Z</time></trkpt><trkpt lat="43.19718265868941" lon="12.088030389049377"><ele>259.0</ele><time>2026-04-26T06:48:39Z</time></trkpt><trkpt lat="43.197236456740804" lon="12.087669648301635"><ele>259.0</ele><time>2026-04-26T06:48:40Z</time></trkpt><trkpt lat="43.19729130524405" lon="12.087311043894767"><ele>259.0</ele><time>2026-04-26T06:48:41Z</time></trkpt><trkpt lat="43.197345853914136" lon="12.086953735844098"><ele>259.5</ele><time>2026-04-26T06:48:42Z</time></trkpt><trkpt lat="43.19740001625395" lon="12.086596446351694"><ele>260.0</ele><time>2026-04-26T06:48:43Z</time></trkpt><trkpt lat="43.19745158914584" lon="12.086237320048022"><ele>260.5</ele><time>2026-04-26T06:48:44Z</time></trkpt><trkpt lat="43.19750205599399" lon="12.085878438911932"><ele>261.0</ele><time>2026-04-26T06:48:45Z</time></trkpt><trkpt lat="43.197547358063545" lon="12.085518016244736"><ele>261.5</ele><time>2026-04-26T06:48:46Z</time></trkpt><trkpt lat="43.19758764083829" lon="12.085156921994333"><ele>262.0</ele><time>2026-04-26T06:48:47Z</time></trkpt><trkpt lat="43.19762121697576" lon="12.084795723964845"><ele>262.0</ele><time>2026-04-26T06:48:48Z</time></trkpt><trkpt lat="43.197648341765756" lon="12.08443431105832"><ele>262.0</ele><time>2026-04-26T06:48:49Z</time></trkpt><trkpt lat="43.19766831640208" lon="12.084074063471618"><ele>261.0</ele><time>2026-04-26T06:48:50Z</time></trkpt><trkpt lat="43.19768629824117" lon="12.083713525906703"><ele>260.0</ele><time>2026-04-26T06:48:51Z</time></trkpt><trkpt lat="43.19768972149854" lon="12.083349214722492"><ele>259.0</ele><time>2026-04-26T06:48:52Z</time></trkpt><trkpt lat="43.19768683750287" lon="12.082991296394436"><ele>258.0</ele><time>2026-04-26T06:48:53Z</time></trkpt><trkpt lat="43.197674428109124" lon="12.082634477636745"><ele>259.0</ele><time>2026-04-26T06:48:54Z</time></trkpt><trkpt lat="43.197648315540675" lon="12.082272859179463"><ele>260.0</ele><time>2026-04-26T06:48:55Z</time></trkpt><trkpt lat="43.197624647544174" lon="12.081913992397041"><ele>260.5</ele><time>2026-04-26T06:48:56Z</time></trkpt><trkpt lat="43.19759790014192" lon="12.0815570319312"><ele>261.0</ele><time>2026-04-26T06:48:57Z</time></trkpt><trkpt lat="43.19757177007285" lon="12.081200201714381"><ele>261.0</ele><time>2026-04-26T06:48:58Z</time></trkpt><trkpt lat="43.197548831196876" lon="12.080845699135033"><ele>261.0</ele><time>2026-04-26T06:48:59Z</time></trkpt><trkpt lat="43.197526111784775" lon="12.080493280538885"><ele>261.0</ele><time>2026-04-26T06:49:00Z</time></trkpt><trkpt lat="43.19750300975711" lon="12.080141778911763"><ele>261.0</ele><time>2026-04-26T06:49:01Z</time></trkpt><trkpt lat="43.197479823891044" lon="12.079792190262015"><ele>261.0</ele><time>2026-04-26T06:49:02Z</time></trkpt><trkpt lat="43.19745501373404" lon="12.079442226368528"><ele>261.0</ele><time>2026-04-26T06:49:03Z</time></trkpt><trkpt lat="43.1974296328919" lon="12.079090571075326"><ele>261.5</ele><time>2026-04-26T06:49:04Z</time></trkpt><trkpt lat="43.1974052078706" lon="12.078741059658919"><ele>262.0</ele><time>2026-04-26T06:49:05Z</time></trkpt><trkpt lat="43.197381958482275" lon="12.078393489105421"><ele>262.5</ele><time>2026-04-26T06:49:06Z</time></trkpt><trkpt lat="43.19735951112793" lon="12.078043873349865"><ele>263.0</ele><time>2026-04-26T06:49:07Z</time></trkpt><trkpt lat="43.197334981215725" lon="12.077693821540285"><ele>263.5</ele><time>2026-04-26T06:49:08Z</time></trkpt><trkpt lat="43.19731286589085" lon="12.077344660439818"><ele>264.0</ele><time>2026-04-26T06:49:09Z</time></trkpt><trkpt lat="43.197289336832334" lon="12.076994005354827"><ele>264.0</ele><time>2026-04-26T06:49:10Z</time></trkpt><trkpt lat="43.19726472979629" lon="12.076642873652931"><ele>264.0</ele><time>2026-04-26T06:49:11Z</time></trkpt><trkpt lat="43.197238005786474" lon="12.07629096731298"><ele>262.0</ele><time>2026-04-26T06:49:12Z</time></trkpt><trkpt lat="43.197209587111786" lon="12.075935481960714"><ele>260.0</ele><time>2026-04-26T06:49:13Z</time></trkpt><trkpt lat="43.19718250641057" lon="12.07557784499593"><ele>259.5</ele><time>2026-04-26T06:49:14Z</time></trkpt><trkpt lat="43.19715047927252" lon="12.075221914160565"><ele>259.0</ele><time>2026-04-26T06:49:15Z</time></trkpt><trkpt lat="43.197120325734225" lon="12.074863288051723"><ele>259.0</ele><time>2026-04-26T06:49:16Z</time></trkpt><trkpt lat="43.197092721712394" lon="12.074505038786855"><ele>259.0</ele><time>2026-04-26T06:49:17Z</time></trkpt><trkpt lat="43.19706260315343" lon="12.074147447829302"><ele>259.5</ele><time>2026-04-26T06:49:18Z</time></trkpt><trkpt lat="43.19702710346985" lon="12.073786897888983"><ele>260.0</ele><time>2026-04-26T06:49:19Z</time></trkpt><trkpt lat="43.19697789108402" lon="12.073421090592067"><ele>260.0</ele><time>2026-04-26T06:49:20Z</time></trkpt><trkpt lat="43.19692792297886" lon="12.07306144115211"><ele>260.0</ele><time>2026-04-26T06:49:21Z</time></trkpt><trkpt lat="43.19687394318141" lon="12.072706217050012"><ele>259.5</ele><time>2026-04-26T06:49:22Z</time></trkpt><trkpt lat="43.19680400127823" lon="12.072346745837859"><ele>259.0</ele><time>2026-04-26T06:49:23Z</time></trkpt><trkpt lat="43.196730166204524" lon="12.071990489786588"><ele>259.0</ele><time>2026-04-26T06:49:24Z</time></trkpt><trkpt lat="43.196654920144326" lon="12.071635101934877"><ele>259.0</ele><time>2026-04-26T06:49:25Z</time></trkpt><trkpt lat="43.19657280324997" lon="12.071280133785097"><ele>261.0</ele><time>2026-04-26T06:49:26Z</time></trkpt><trkpt lat="43.19648341394668" lon="12.070930050452828"><ele>263.0</ele><time>2026-04-26T06:49:27Z</time></trkpt><trkpt lat="43.196392475852456" lon="12.0705854444676"><ele>263.5</ele><time>2026-04-26T06:49:28Z</time></trkpt><trkpt lat="43.19629790581301" lon="12.070240352530131"><ele>264.0</ele><time>2026-04-26T06:49:29Z</time></trkpt><trkpt lat="43.19619960666849" lon="12.069893576941665"><ele>263.0</ele><time>2026-04-26T06:49:30Z</time></trkpt><trkpt lat="43.196103019378974" lon="12.069549637076637"><ele>262.0</ele><time>2026-04-26T06:49:31Z</time></trkpt><trkpt lat="43.19600857691558" lon="12.069203918209512"><ele>261.5</ele><time>2026-04-26T06:49:32Z</time></trkpt><trkpt lat="43.1959135115725" lon="12.068855160912024"><ele>261.0</ele><time>2026-04-26T06:49:33Z</time></trkpt><trkpt lat="43.19581887731432" lon="12.068505921843284"><ele>260.5</ele><time>2026-04-26T06:49:34Z</time></trkpt><trkpt lat="43.19572385304133" lon="12.068156423658616"><ele>260.0</ele><time>2026-04-26T06:49:35Z</time></trkpt><trkpt lat="43.19563378157349" lon="12.067802454330588"><ele>260.0</ele><time>2026-04-26T06:49:36Z</time></trkpt><trkpt lat="43.19555064199974" lon="12.067442955233405"><ele>260.0</ele><time>2026-04-26T06:49:37Z</time></trkpt><trkpt lat="43.19546741020702" lon="12.067087870567637"><ele>260.0</ele><time>2026-04-26T06:49:38Z</time></trkpt><trkpt lat="43.19540030134014" lon="12.06672753029921"><ele>260.0</ele><time>2026-04-26T06:49:39Z</time></trkpt><trkpt lat="43.19534854924547" lon="12.066368101768719"><ele>260.0</ele><time>2026-04-26T06:49:40Z</time></trkpt><trkpt lat="43.19530657187594" lon="12.065999208626938"><ele>260.0</ele><time>2026-04-26T06:49:41Z</time></trkpt><trkpt lat="43.195276584764855" lon="12.06562846370457"><ele>259.5</ele><time>2026-04-26T06:49:42Z</time></trkpt><trkpt lat="43.19525719063453" lon="12.065256948906656"><ele>259.0</ele><time>2026-04-26T06:49:43Z</time></trkpt><trkpt lat="43.19524842229562" lon="12.06488578554305"><ele>259.0</ele><time>2026-04-26T06:49:44Z</time></trkpt><trkpt lat="43.19526728024184" lon="12.064525403728357"><ele>259.0</ele><time>2026-04-26T06:49:45Z</time></trkpt><trkpt lat="43.19528638764061" lon="12.064166473287472"><ele>259.0</ele><time>2026-04-26T06:49:45.999Z</time></trkpt><trkpt lat="43.19531450142308" lon="12.063811693047787"><ele>259.0</ele><time>2026-04-26T06:49:46.999Z</time></trkpt><trkpt lat="43.19535362300331" lon="12.063460945888265"><ele>258.5</ele><time>2026-04-26T06:49:47.999Z</time></trkpt><trkpt lat="43.195392876121105" lon="12.063105929111858"><ele>258.0</ele><time>2026-04-26T06:49:48.999Z</time></trkpt><trkpt lat="43.19543693999197" lon="12.062754256750358"><ele>259.0</ele><time>2026-04-26T06:49:49.999Z</time></trkpt><trkpt lat="43.19547769398344" lon="12.062401825226242"><ele>260.0</ele><time>2026-04-26T06:49:50.999Z</time></trkpt><trkpt lat="43.195516082274224" lon="12.062050031594087"><ele>260.0</ele><time>2026-04-26T06:49:51.999Z</time></trkpt><trkpt lat="43.19555850575339" lon="12.061700469792962"><ele>260.0</ele><time>2026-04-26T06:49:53Z</time></trkpt><trkpt lat="43.19559528006342" lon="12.06135156352533"><ele>260.0</ele><time>2026-04-26T06:49:54Z</time></trkpt><trkpt lat="43.19563383380456" lon="12.061001392743623"><ele>260.0</ele><time>2026-04-26T06:49:55Z</time></trkpt><trkpt lat="43.19567460884134" lon="12.06065037801627"><ele>260.0</ele><time>2026-04-26T06:49:56Z</time></trkpt><trkpt lat="43.195716393812766" lon="12.060299723562444"><ele>260.0</ele><time>2026-04-26T06:49:57Z</time></trkpt><trkpt lat="43.195755343226445" lon="12.059951210633201"><ele>261.0</ele><time>2026-04-26T06:49:58Z</time></trkpt><trkpt lat="43.19579464977834" lon="12.059598808122587"><ele>262.0</ele><time>2026-04-26T06:49:59Z</time></trkpt><trkpt lat="43.19583549341834" lon="12.059250774735032"><ele>261.5</ele><time>2026-04-26T06:50:00Z</time></trkpt><trkpt lat="43.195873539499914" lon="12.058899511471553"><ele>261.0</ele><time>2026-04-26T06:50:01Z</time></trkpt><trkpt lat="43.19591396066901" lon="12.058550860754984"><ele>262.0</ele><time>2026-04-26T06:50:02Z</time></trkpt><trkpt lat="43.19594578422799" lon="12.058195887052404"><ele>263.0</ele><time>2026-04-26T06:50:03Z</time></trkpt><trkpt lat="43.195982004624945" lon="12.057845029626495"><ele>263.0</ele><time>2026-04-26T06:50:04Z</time></trkpt><trkpt lat="43.19601378339265" lon="12.057493136280096"><ele>263.0</ele><time>2026-04-26T06:50:05Z</time></trkpt><trkpt lat="43.196033640740715" lon="12.057140531615895"><ele>263.0</ele><time>2026-04-26T06:50:06Z</time></trkpt><trkpt lat="43.1960402071569" lon="12.05678875380176"><ele>263.0</ele><time>2026-04-26T06:50:07Z</time></trkpt><trkpt lat="43.196027222468246" lon="12.056438515247455"><ele>263.0</ele><time>2026-04-26T06:50:08Z</time></trkpt><trkpt lat="43.19599444075239" lon="12.05608824107392"><ele>263.0</ele><time>2026-04-26T06:50:09Z</time></trkpt><trkpt lat="43.1959496225576" lon="12.055739821237914"><ele>264.5</ele><time>2026-04-26T06:50:10Z</time></trkpt><trkpt lat="43.1958907939843" lon="12.055397195981602"><ele>266.0</ele><time>2026-04-26T06:50:11Z</time></trkpt><trkpt lat="43.1958174737062" lon="12.055060228345841"><ele>267.5</ele><time>2026-04-26T06:50:12Z</time></trkpt><trkpt lat="43.19573184717585" lon="12.054728320844404"><ele>269.0</ele><time>2026-04-26T06:50:13Z</time></trkpt><trkpt lat="43.195633949941865" lon="12.054404663275385"><ele>269.0</ele><time>2026-04-26T06:50:14Z</time></trkpt><trkpt lat="43.19552542957059" lon="12.054086883219618"><ele>269.0</ele><time>2026-04-26T06:50:15Z</time></trkpt><trkpt lat="43.1954001130069" lon="12.053782020659568"><ele>269.0</ele><time>2026-04-26T06:50:16Z</time></trkpt><trkpt lat="43.195262388835246" lon="12.053486792482888"><ele>269.0</ele><time>2026-04-26T06:50:17Z</time></trkpt><trkpt lat="43.19511399969769" lon="12.053203562045914"><ele>270.5</ele><time>2026-04-26T06:50:18Z</time></trkpt><trkpt lat="43.19495253400222" lon="12.052932676265751"><ele>272.0</ele><time>2026-04-26T06:50:19Z</time></trkpt><trkpt lat="43.194785606336744" lon="12.052674207854604"><ele>277.0</ele><time>2026-04-26T06:50:20Z</time></trkpt><trkpt lat="43.19460775683971" lon="12.05242861504293"><ele>282.0</ele><time>2026-04-26T06:50:21Z</time></trkpt><trkpt lat="43.19441725433715" lon="12.052200178433045"><ele>282.0</ele><time>2026-04-26T06:50:22Z</time></trkpt><trkpt lat="43.19421620654837" lon="12.051988953279965"><ele>282.0</ele><time>2026-04-26T06:50:23Z</time></trkpt><trkpt lat="43.19400970753991" lon="12.051790403287757"><ele>287.0</ele><time>2026-04-26T06:50:24Z</time></trkpt><trkpt lat="43.19379672156329" lon="12.051604900203634"><ele>292.0</ele><time>2026-04-26T06:50:25Z</time></trkpt><trkpt lat="43.19357812478945" lon="12.051429840674826"><ele>292.0</ele><time>2026-04-26T06:50:26Z</time></trkpt><trkpt lat="43.19335158743553" lon="12.051264937057107"><ele>292.0</ele><time>2026-04-26T06:50:27Z</time></trkpt><trkpt lat="43.19311795275259" lon="12.05111584555654"><ele>288.5</ele><time>2026-04-26T06:50:28Z</time></trkpt><trkpt lat="43.19288388736318" lon="12.05097002524815"><ele>285.0</ele><time>2026-04-26T06:50:29Z</time></trkpt><trkpt lat="43.1926521879577" lon="12.05082045737218"><ele>287.0</ele><time>2026-04-26T06:50:30Z</time></trkpt><trkpt lat="43.192422430300496" lon="12.05066649964209"><ele>289.0</ele><time>2026-04-26T06:50:31Z</time></trkpt><trkpt lat="43.19219026519396" lon="12.050515767309044"><ele>289.0</ele><time>2026-04-26T06:50:32Z</time></trkpt><trkpt lat="43.19195620965061" lon="12.050365167065632"><ele>289.0</ele><time>2026-04-26T06:50:33Z</time></trkpt><trkpt lat="43.19172069968367" lon="12.050207595575941"><ele>291.0</ele><time>2026-04-26T06:50:34Z</time></trkpt><trkpt lat="43.19148748122673" lon="12.050050009850672"><ele>293.0</ele><time>2026-04-26T06:50:35Z</time></trkpt><trkpt lat="43.19125422291782" lon="12.049890086781005"><ele>293.0</ele><time>2026-04-26T06:50:36Z</time></trkpt><trkpt lat="43.19101758398923" lon="12.04972541940591"><ele>293.0</ele><time>2026-04-26T06:50:37Z</time></trkpt><trkpt lat="43.190787593464194" lon="12.049553184735025"><ele>286.0</ele><time>2026-04-26T06:50:38Z</time></trkpt><trkpt lat="43.19056835011177" lon="12.04936127904815"><ele>279.0</ele><time>2026-04-26T06:50:39Z</time></trkpt><trkpt lat="43.19036114107878" lon="12.049149732169557"><ele>279.0</ele><time>2026-04-26T06:50:40Z</time></trkpt><trkpt lat="43.1901582043991" lon="12.048923659789157"><ele>279.0</ele><time>2026-04-26T06:50:41Z</time></trkpt><trkpt lat="43.1899608549935" lon="12.048680628184655"><ele>272.5</ele><time>2026-04-26T06:50:42Z</time></trkpt><trkpt lat="43.18977758530189" lon="12.048427346598237"><ele>266.0</ele><time>2026-04-26T06:50:43Z</time></trkpt><trkpt lat="43.1896017640198" lon="12.048152280160942"><ele>266.0</ele><time>2026-04-26T06:50:44Z</time></trkpt><trkpt lat="43.18943603671877" lon="12.047859424238498"><ele>266.0</ele><time>2026-04-26T06:50:45Z</time></trkpt><trkpt lat="43.189285431446685" lon="12.047550326064075"><ele>265.5</ele><time>2026-04-26T06:50:46Z</time></trkpt><trkpt lat="43.189149795806" lon="12.047230190988326"><ele>265.0</ele><time>2026-04-26T06:50:47Z</time></trkpt><trkpt lat="43.18902155144967" lon="12.04688555587293"><ele>264.0</ele><time>2026-04-26T06:50:48Z</time></trkpt><trkpt lat="43.18891215263139" lon="12.04653654291903"><ele>263.0</ele><time>2026-04-26T06:50:49Z</time></trkpt><trkpt lat="43.18881608154282" lon="12.046185159864343"><ele>263.0</ele><time>2026-04-26T06:50:50Z</time></trkpt><trkpt lat="43.18872179436366" lon="12.045834381528264"><ele>263.0</ele><time>2026-04-26T06:50:51Z</time></trkpt><trkpt lat="43.18863549346166" lon="12.04548369237613"><ele>262.0</ele><time>2026-04-26T06:50:52Z</time></trkpt><trkpt lat="43.188542488919275" lon="12.045131657960965"><ele>261.0</ele><time>2026-04-26T06:50:53Z</time></trkpt><trkpt lat="43.1884437416746" lon="12.044779789106846"><ele>261.0</ele><time>2026-04-26T06:50:54Z</time></trkpt><trkpt lat="43.18834816572598" lon="12.044426479179586"><ele>261.0</ele><time>2026-04-26T06:50:55Z</time></trkpt><trkpt lat="43.188249059534044" lon="12.044077896938148"><ele>260.5</ele><time>2026-04-26T06:50:56Z</time></trkpt><trkpt lat="43.188156694094225" lon="12.043728482497189"><ele>260.0</ele><time>2026-04-26T06:50:57Z</time></trkpt><trkpt lat="43.18806342874001" lon="12.043377795080282"><ele>260.0</ele><time>2026-04-26T06:50:58Z</time></trkpt><trkpt lat="43.18797866537142" lon="12.04303390965729"><ele>260.0</ele><time>2026-04-26T06:50:59Z</time></trkpt><trkpt lat="43.18788351589404" lon="12.04269311486774"><ele>260.0</ele><time>2026-04-26T06:51:00Z</time></trkpt><trkpt lat="43.18779480997984" lon="12.042348360677314"><ele>260.0</ele><time>2026-04-26T06:51:01Z</time></trkpt><trkpt lat="43.187703209374206" lon="12.042011202502035"><ele>260.0</ele><time>2026-04-26T06:51:02Z</time></trkpt><trkpt lat="43.18760697448537" lon="12.0416705593233"><ele>260.0</ele><time>2026-04-26T06:51:03Z</time></trkpt><trkpt lat="43.187513828617234" lon="12.041338105266188"><ele>260.5</ele><time>2026-04-26T06:51:04Z</time></trkpt><trkpt lat="43.18742248225975" lon="12.041006827955998"><ele>261.0</ele><time>2026-04-26T06:51:05Z</time></trkpt><trkpt lat="43.18733010486837" lon="12.04068304930987"><ele>261.0</ele><time>2026-04-26T06:51:06Z</time></trkpt><trkpt lat="43.18724266891515" lon="12.040360522584196"><ele>261.0</ele><time>2026-04-26T06:51:07Z</time></trkpt><trkpt lat="43.1871618704848" lon="12.040042888863928"><ele>262.0</ele><time>2026-04-26T06:51:08Z</time></trkpt><trkpt lat="43.1870705650444" lon="12.039722572174636"><ele>263.0</ele><time>2026-04-26T06:51:09Z</time></trkpt><trkpt lat="43.18697695753866" lon="12.039401209816234"><ele>264.0</ele><time>2026-04-26T06:51:10Z</time></trkpt><trkpt lat="43.18688952824976" lon="12.039082250004034"><ele>265.0</ele><time>2026-04-26T06:51:11Z</time></trkpt><trkpt lat="43.18680612915588" lon="12.038759917728639"><ele>265.0</ele><time>2026-04-26T06:51:12Z</time></trkpt><trkpt lat="43.186717595241035" lon="12.03844292535113"><ele>265.0</ele><time>2026-04-26T06:51:13Z</time></trkpt><trkpt lat="43.186632905286814" lon="12.038126536924064"><ele>265.5</ele><time>2026-04-26T06:51:14Z</time></trkpt><trkpt lat="43.18655132501005" lon="12.037804737793314"><ele>266.0</ele><time>2026-04-26T06:51:15Z</time></trkpt><trkpt lat="43.18648012449563" lon="12.037475647037201"><ele>262.5</ele><time>2026-04-26T06:51:16Z</time></trkpt><trkpt lat="43.18641575041129" lon="12.037144846754739"><ele>259.0</ele><time>2026-04-26T06:51:17Z</time></trkpt><trkpt lat="43.18635973341075" lon="12.036808647407558"><ele>259.5</ele><time>2026-04-26T06:51:18Z</time></trkpt><trkpt lat="43.186318777791946" lon="12.036468331663592"><ele>260.0</ele><time>2026-04-26T06:51:19Z</time></trkpt><trkpt lat="43.1862894022428" lon="12.0361258134159"><ele>260.0</ele><time>2026-04-26T06:51:20Z</time></trkpt><trkpt lat="43.18626599899298" lon="12.035772773885215"><ele>260.0</ele><time>2026-04-26T06:51:21Z</time></trkpt><trkpt lat="43.186253863351126" lon="12.035423627734483"><ele>260.0</ele><time>2026-04-26T06:51:22Z</time></trkpt><trkpt lat="43.186255344788165" lon="12.035070275618654"><ele>260.0</ele><time>2026-04-26T06:51:23Z</time></trkpt><trkpt lat="43.186267718190564" lon="12.034719575470717"><ele>260.0</ele><time>2026-04-26T06:51:24Z</time></trkpt><trkpt lat="43.18628965858923" lon="12.034366965828939"><ele>260.0</ele><time>2026-04-26T06:51:25Z</time></trkpt><trkpt lat="43.18632391515186" lon="12.034017017910722"><ele>260.0</ele><time>2026-04-26T06:51:26Z</time></trkpt><trkpt lat="43.18636552388047" lon="12.033665170891512"><ele>260.0</ele><time>2026-04-26T06:51:27Z</time></trkpt><trkpt lat="43.18641668753471" lon="12.033318069574058"><ele>259.5</ele><time>2026-04-26T06:51:28Z</time></trkpt><trkpt lat="43.18647690232232" lon="12.032974355875666"><ele>259.0</ele><time>2026-04-26T06:51:29Z</time></trkpt><trkpt lat="43.186546760764024" lon="12.032630204073914"><ele>259.5</ele><time>2026-04-26T06:51:30Z</time></trkpt><trkpt lat="43.186620985977754" lon="12.032290352106655"><ele>260.0</ele><time>2026-04-26T06:51:31Z</time></trkpt><trkpt lat="43.18669411792362" lon="12.031952655879817"><ele>260.0</ele><time>2026-04-26T06:51:32Z</time></trkpt><trkpt lat="43.18676412770279" lon="12.031609694530399"><ele>260.0</ele><time>2026-04-26T06:51:33Z</time></trkpt><trkpt lat="43.18683443994096" lon="12.031267023287413"><ele>260.0</ele><time>2026-04-26T06:51:34Z</time></trkpt><trkpt lat="43.18690623612974" lon="12.030924023687696"><ele>260.0</ele><time>2026-04-26T06:51:35Z</time></trkpt><trkpt lat="43.186981506911394" lon="12.03058456834416"><ele>260.5</ele><time>2026-04-26T06:51:36Z</time></trkpt><trkpt lat="43.18705592882492" lon="12.030244538340662"><ele>261.0</ele><time>2026-04-26T06:51:37Z</time></trkpt><trkpt lat="43.18712677378288" lon="12.029901672140143"><ele>261.0</ele><time>2026-04-26T06:51:38Z</time></trkpt><trkpt lat="43.187198753067555" lon="12.029559222960172"><ele>261.0</ele><time>2026-04-26T06:51:39Z</time></trkpt><trkpt lat="43.187270690634094" lon="12.029218693593199"><ele>261.0</ele><time>2026-04-26T06:51:40Z</time></trkpt><trkpt lat="43.18734288265246" lon="12.028876212931696"><ele>261.0</ele><time>2026-04-26T06:51:41Z</time></trkpt><trkpt lat="43.18741512959754" lon="12.028534658448399"><ele>261.0</ele><time>2026-04-26T06:51:42Z</time></trkpt><trkpt lat="43.187488744716084" lon="12.028195899651937"><ele>261.0</ele><time>2026-04-26T06:51:43Z</time></trkpt><trkpt lat="43.187561401839574" lon="12.027855690409314"><ele>261.0</ele><time>2026-04-26T06:51:44Z</time></trkpt><trkpt lat="43.18763246530721" lon="12.027515760567365"><ele>261.0</ele><time>2026-04-26T06:51:45Z</time></trkpt><trkpt lat="43.1877030683795" lon="12.027176695326506"><ele>261.0</ele><time>2026-04-26T06:51:46Z</time></trkpt><trkpt lat="43.187776121968014" lon="12.026837133183855"><ele>261.0</ele><time>2026-04-26T06:51:47Z</time></trkpt><trkpt lat="43.1878472572489" lon="12.026495641844756"><ele>261.0</ele><time>2026-04-26T06:51:48Z</time></trkpt><trkpt lat="43.187917440575994" lon="12.026156673185675"><ele>261.0</ele><time>2026-04-26T06:51:49Z</time></trkpt><trkpt lat="43.187987997033495" lon="12.025816617889719"><ele>261.5</ele><time>2026-04-26T06:51:50Z</time></trkpt><trkpt lat="43.18805775373533" lon="12.025476876581411"><ele>262.0</ele><time>2026-04-26T06:51:51Z</time></trkpt><trkpt lat="43.18812869036837" lon="12.025136480198624"><ele>261.5</ele><time>2026-04-26T06:51:52Z</time></trkpt><trkpt lat="43.188200592852965" lon="12.024792996287319"><ele>261.0</ele><time>2026-04-26T06:51:53Z</time></trkpt><trkpt lat="43.18827267398174" lon="12.024448084398957"><ele>260.5</ele><time>2026-04-26T06:51:54Z</time></trkpt><trkpt lat="43.18834656877105" lon="12.024099813609427"><ele>260.0</ele><time>2026-04-26T06:51:55Z</time></trkpt><trkpt lat="43.188420578898786" lon="12.02375114755346"><ele>260.0</ele><time>2026-04-26T06:51:56Z</time></trkpt><trkpt lat="43.188494597357696" lon="12.023399595220626"><ele>260.0</ele><time>2026-04-26T06:51:57Z</time></trkpt><trkpt lat="43.188569610250944" lon="12.023045618982623"><ele>260.0</ele><time>2026-04-26T06:51:58Z</time></trkpt><trkpt lat="43.188644244335144" lon="12.022687972229797"><ele>260.0</ele><time>2026-04-26T06:51:59Z</time></trkpt><trkpt lat="43.188719454173786" lon="12.022328630807182"><ele>260.0</ele><time>2026-04-26T06:52:00Z</time></trkpt><trkpt lat="43.18879138790242" lon="12.021969148322247"><ele>260.0</ele><time>2026-04-26T06:52:01Z</time></trkpt><trkpt lat="43.1888666261875" lon="12.021610534923362"><ele>260.0</ele><time>2026-04-26T06:52:02Z</time></trkpt><trkpt lat="43.188942585463025" lon="12.021252265842458"><ele>260.0</ele><time>2026-04-26T06:52:03Z</time></trkpt><trkpt lat="43.189019009355775" lon="12.02089209745164"><ele>261.0</ele><time>2026-04-26T06:52:04Z</time></trkpt><trkpt lat="43.18909221036399" lon="12.020532880404334"><ele>262.0</ele><time>2026-04-26T06:52:05Z</time></trkpt><trkpt lat="43.18916709466183" lon="12.020176269882583"><ele>261.5</ele><time>2026-04-26T06:52:06Z</time></trkpt><trkpt lat="43.189241891482666" lon="12.019819385450576"><ele>261.0</ele><time>2026-04-26T06:52:07Z</time></trkpt><trkpt lat="43.189315251458915" lon="12.019464903802987"><ele>260.5</ele><time>2026-04-26T06:52:08Z</time></trkpt><trkpt lat="43.189390137582784" lon="12.019115145378384"><ele>260.0</ele><time>2026-04-26T06:52:09Z</time></trkpt><trkpt lat="43.18946406045246" lon="12.018769238263348"><ele>260.0</ele><time>2026-04-26T06:52:10Z</time></trkpt><trkpt lat="43.18953748668136" lon="12.018425247908766"><ele>260.0</ele><time>2026-04-26T06:52:11Z</time></trkpt><trkpt lat="43.18960980796122" lon="12.018082836160733"><ele>260.0</ele><time>2026-04-26T06:52:12Z</time></trkpt><trkpt lat="43.18967908400855" lon="12.017742945185189"><ele>260.0</ele><time>2026-04-26T06:52:13Z</time></trkpt><trkpt lat="43.18974109014626" lon="12.01740886558361"><ele>260.0</ele><time>2026-04-26T06:52:14Z</time></trkpt><trkpt lat="43.18979440297874" lon="12.017091753655077"><ele>260.0</ele><time>2026-04-26T06:52:15Z</time></trkpt><trkpt lat="43.18984157155542" lon="12.016792850534918"><ele>261.0</ele><time>2026-04-26T06:52:16Z</time></trkpt><trkpt lat="43.18988743475514" lon="12.016515125087885"><ele>262.0</ele><time>2026-04-26T06:52:17Z</time></trkpt><trkpt lat="43.18992483696705" lon="12.016253525815607"><ele>263.0</ele><time>2026-04-26T06:52:18Z</time></trkpt><trkpt lat="43.18994869791726" lon="12.016007009469083"><ele>263.33333333333337</ele><time>2026-04-26T06:52:19Z</time></trkpt><trkpt lat="43.18998431227657" lon="12.015796039300048"><ele>263.6666666666667</ele><time>2026-04-26T06:52:20Z</time></trkpt><trkpt lat="43.190050453688954" lon="12.015618985257971"><ele>264.0</ele><time>2026-04-26T06:52:21Z</time></trkpt><trkpt lat="43.190157049456595" lon="12.015461683094163"><ele>264.0</ele><time>2026-04-26T06:52:22Z</time></trkpt><trkpt lat="43.190304846064556" lon="12.015330286124764"><ele>264.0</ele><time>2026-04-26T06:52:23Z</time></trkpt><trkpt lat="43.190482098226845" lon="12.015238631856104"><ele>264.0</ele><time>2026-04-26T06:52:24Z</time></trkpt><trkpt lat="43.19063872041346" lon="12.015180528681434"><ele>263.75</ele><time>2026-04-26T06:52:25Z</time></trkpt><trkpt lat="43.19076760517169" lon="12.015091846245387"><ele>263.5</ele><time>2026-04-26T06:52:26Z</time></trkpt><trkpt lat="43.19085494627037" lon="12.014928891078897"><ele>263.25</ele><time>2026-04-26T06:52:27Z</time></trkpt><trkpt lat="43.1908988988298" lon="12.014732652123376"><ele>263.0</ele><time>2026-04-26T06:52:28Z</time></trkpt><trkpt lat="43.190886599159036" lon="12.014495673401717"><ele>263.0</ele><time>2026-04-26T06:52:29Z</time></trkpt><trkpt lat="43.19083564385466" lon="12.0142273199502"><ele>263.0</ele><time>2026-04-26T06:52:30Z</time></trkpt><trkpt lat="43.19081000939164" lon="12.013979116788107"><ele>263.0</ele><time>2026-04-26T06:52:31Z</time></trkpt><trkpt lat="43.190806541443756" lon="12.013763536137905"><ele>263.0</ele><time>2026-04-26T06:52:32Z</time></trkpt><trkpt lat="43.19083491534502" lon="12.013580333399226"><ele>263.0</ele><time>2026-04-26T06:52:33Z</time></trkpt><trkpt lat="43.19091112203962" lon="12.013423228810534"><ele>263.0</ele><time>2026-04-26T06:52:34Z</time></trkpt><trkpt lat="43.19102504877596" lon="12.013316978927394"><ele>263.0</ele><time>2026-04-26T06:52:35Z</time></trkpt><trkpt lat="43.191158342532" lon="12.013265863522612"><ele>263.0</ele><time>2026-04-26T06:52:36Z</time></trkpt><trkpt lat="43.19131319220159" lon="12.01326028467209"><ele>263.0</ele><time>2026-04-26T06:52:37Z</time></trkpt><trkpt lat="43.1914828061984" lon="12.013257712354077"><ele>263.0</ele><time>2026-04-26T06:52:38Z</time></trkpt><trkpt lat="43.191668212800046" lon="12.013233730050379"><ele>263.33333333333337</ele><time>2026-04-26T06:52:39Z</time></trkpt><trkpt lat="43.191862649986454" lon="12.013203990777921"><ele>263.6666666666667</ele><time>2026-04-26T06:52:40Z</time></trkpt><trkpt lat="43.19205599359583" lon="12.013185301151532"><ele>264.0</ele><time>2026-04-26T06:52:41Z</time></trkpt><trkpt lat="43.19223206793939" lon="12.013182124305649"><ele>263.3333333333333</ele><time>2026-04-26T06:52:42Z</time></trkpt><trkpt lat="43.192396730617446" lon="12.01317582994374"><ele>262.66666666666663</ele><time>2026-04-26T06:52:43Z</time></trkpt><trkpt lat="43.19256317574684" lon="12.013165459118445"><ele>262.0</ele><time>2026-04-26T06:52:44Z</time></trkpt><trkpt lat="43.19273169664344" lon="12.013156090755182"><ele>262.0</ele><time>2026-04-26T06:52:45Z</time></trkpt><trkpt lat="43.19290157437058" lon="12.013145623021286"><ele>262.0</ele><time>2026-04-26T06:52:46Z</time></trkpt><trkpt lat="43.19307338691393" lon="12.013138504257727"><ele>262.0</ele><time>2026-04-26T06:52:47Z</time></trkpt><trkpt lat="43.193247290495044" lon="12.013129248603773"><ele>262.0</ele><time>2026-04-26T06:52:48Z</time></trkpt><trkpt lat="43.19341684706295" lon="12.013121930128607"><ele>262.0</ele><time>2026-04-26T06:52:49Z</time></trkpt><trkpt lat="43.19358282791767" lon="12.013119014113462"><ele>262.0</ele><time>2026-04-26T06:52:50Z</time></trkpt><trkpt lat="43.193747128281125" lon="12.013114082538952"><ele>262.0</ele><time>2026-04-26T06:52:51Z</time></trkpt><trkpt lat="43.193908749051005" lon="12.013109631903145"><ele>262.0</ele><time>2026-04-26T06:52:52Z</time></trkpt><trkpt lat="43.19407253481809" lon="12.01310242164114"><ele>262.0</ele><time>2026-04-26T06:52:53Z</time></trkpt><trkpt lat="43.194235395696616" lon="12.013099518328293"><ele>262.0</ele><time>2026-04-26T06:52:54Z</time></trkpt><trkpt lat="43.19439688862364" lon="12.013096695024068"><ele>262.0</ele><time>2026-04-26T06:52:55Z</time></trkpt><trkpt lat="43.19456093340367" lon="12.013094478893112"><ele>262.0</ele><time>2026-04-26T06:52:56Z</time></trkpt><trkpt lat="43.19472649125671" lon="12.013091279161177"><ele>262.0</ele><time>2026-04-26T06:52:57Z</time></trkpt><trkpt lat="43.194893058659666" lon="12.013083278533346"><ele>262.0</ele><time>2026-04-26T06:52:58Z</time></trkpt><trkpt lat="43.195060153388496" lon="12.013077351131066"><ele>262.0</ele><time>2026-04-26T06:52:59Z</time></trkpt><trkpt lat="43.19522831067249" lon="12.013074398780077"><ele>262.0</ele><time>2026-04-26T06:53:00Z</time></trkpt><trkpt lat="43.19539592236654" lon="12.013068517303813"><ele>262.0</ele><time>2026-04-26T06:53:01Z</time></trkpt><trkpt lat="43.19556394713929" lon="12.013063505968242"><ele>262.0</ele><time>2026-04-26T06:53:02Z</time></trkpt><trkpt lat="43.19572777383798" lon="12.01305527400343"><ele>261.66666666666663</ele><time>2026-04-26T06:53:03Z</time></trkpt><trkpt lat="43.19589589629061" lon="12.013049705383217"><ele>261.3333333333333</ele><time>2026-04-26T06:53:04Z</time></trkpt><trkpt lat="43.19606258135117" lon="12.013044660530518"><ele>261.0</ele><time>2026-04-26T06:53:05Z</time></trkpt><trkpt lat="43.196230129898154" lon="12.013039549664244"><ele>261.0</ele><time>2026-04-26T06:53:06Z</time></trkpt><trkpt lat="43.19639853085492" lon="12.013031874415544"><ele>261.0</ele><time>2026-04-26T06:53:07Z</time></trkpt><trkpt lat="43.196567474818266" lon="12.013024967476355"><ele>261.0</ele><time>2026-04-26T06:53:08Z</time></trkpt><trkpt lat="43.196735791181744" lon="12.013022022807341"><ele>261.3333333333333</ele><time>2026-04-26T06:53:09Z</time></trkpt><trkpt lat="43.196904693480015" lon="12.01301758743617"><ele>261.66666666666663</ele><time>2026-04-26T06:53:10Z</time></trkpt><trkpt lat="43.19707500396583" lon="12.013014514671156"><ele>262.0</ele><time>2026-04-26T06:53:11Z</time></trkpt><trkpt lat="43.19724550574887" lon="12.013007574934162"><ele>262.66666666666663</ele><time>2026-04-26T06:53:12Z</time></trkpt><trkpt lat="43.19741648028255" lon="12.012999786638872"><ele>263.3333333333333</ele><time>2026-04-26T06:53:13Z</time></trkpt><trkpt lat="43.19758995726069" lon="12.012996029407685"><ele>264.0</ele><time>2026-04-26T06:53:14Z</time></trkpt><trkpt lat="43.19776253806645" lon="12.012992555326383"><ele>264.0</ele><time>2026-04-26T06:53:15Z</time></trkpt><trkpt lat="43.197929266763545" lon="12.012987115129373"><ele>264.0</ele><time>2026-04-26T06:53:16Z</time></trkpt><trkpt lat="43.198099427098995" lon="12.012981783820564"><ele>264.0</ele><time>2026-04-26T06:53:17Z</time></trkpt><trkpt lat="43.19827374872938" lon="12.012972947744595"><ele>263.6666666666667</ele><time>2026-04-26T06:53:18Z</time></trkpt><trkpt lat="43.19844478877182" lon="12.012967616284818"><ele>263.33333333333337</ele><time>2026-04-26T06:53:19Z</time></trkpt><trkpt lat="43.19861599950123" lon="12.012961429339335"><ele>263.0</ele><time>2026-04-26T06:53:20Z</time></trkpt><trkpt lat="43.19878924549392" lon="12.012957094792027"><ele>263.0</ele><time>2026-04-26T06:53:21Z</time></trkpt><trkpt lat="43.19895763129682" lon="12.01294749212912"><ele>263.0</ele><time>2026-04-26T06:53:22Z</time></trkpt><trkpt lat="43.19912697509567" lon="12.01293891592057"><ele>263.0</ele><time>2026-04-26T06:53:23Z</time></trkpt><trkpt lat="43.19929679132934" lon="12.01293331259021"><ele>262.6666666666667</ele><time>2026-04-26T06:53:24Z</time></trkpt><trkpt lat="43.19946384571701" lon="12.012926292249734"><ele>262.3333333333333</ele><time>2026-04-26T06:53:25Z</time></trkpt><trkpt lat="43.19963252220747" lon="12.012921990811899"><ele>262.0</ele><time>2026-04-26T06:53:26Z</time></trkpt><trkpt lat="43.19980045554643" lon="12.012917385756907"><ele>263.3333333333333</ele><time>2026-04-26T06:53:27Z</time></trkpt><trkpt lat="43.19996774934595" lon="12.012915571166475"><ele>264.6666666666667</ele><time>2026-04-26T06:53:28Z</time></trkpt><trkpt lat="43.20013434365497" lon="12.012904945361363"><ele>266.0</ele><time>2026-04-26T06:53:29Z</time></trkpt><trkpt lat="43.2003011692508" lon="12.012902161122458"><ele>266.0</ele><time>2026-04-26T06:53:30Z</time></trkpt><trkpt lat="43.2004711548362" lon="12.012895899636462"><ele>266.0</ele><time>2026-04-26T06:53:31Z</time></trkpt><trkpt lat="43.200634515226355" lon="12.012900832907025"><ele>266.0</ele><time>2026-04-26T06:53:32Z</time></trkpt><trkpt lat="43.20081048997789" lon="12.012904207250166"><ele>266.0</ele><time>2026-04-26T06:53:33Z</time></trkpt><trkpt lat="43.20097793854134" lon="12.012913271337016"><ele>266.0</ele><time>2026-04-26T06:53:34Z</time></trkpt><trkpt lat="43.20114970689404" lon="12.01293194667583"><ele>266.0</ele><time>2026-04-26T06:53:35Z</time></trkpt><trkpt lat="43.20131796249013" lon="12.012960914633588"><ele>266.0</ele><time>2026-04-26T06:53:36Z</time></trkpt><trkpt lat="43.20148768667083" lon="12.012990002680334"><ele>266.0</ele><time>2026-04-26T06:53:37Z</time></trkpt><trkpt lat="43.20165567039139" lon="12.013027879959813"><ele>266.0</ele><time>2026-04-26T06:53:38Z</time></trkpt><trkpt lat="43.20181361118505" lon="12.01307124301885"><ele>265.6666666666667</ele><time>2026-04-26T06:53:39Z</time></trkpt><trkpt lat="43.20196373984523" lon="12.013121074350938"><ele>265.3333333333333</ele><time>2026-04-26T06:53:40Z</time></trkpt><trkpt lat="43.20211531055279" lon="12.013171445603525"><ele>265.0</ele><time>2026-04-26T06:53:41Z</time></trkpt><trkpt lat="43.202265079878664" lon="12.01323390315018"><ele>265.66666666666663</ele><time>2026-04-26T06:53:42Z</time></trkpt><trkpt lat="43.20242413134458" lon="12.013285881559785"><ele>266.3333333333333</ele><time>2026-04-26T06:53:43Z</time></trkpt><trkpt lat="43.202543826341994" lon="12.013332716882578"><ele>267.0</ele><time>2026-04-26T06:53:44Z</time></trkpt><trkpt lat="43.202711784583315" lon="12.013395251613291"><ele>267.6666666666667</ele><time>2026-04-26T06:53:45Z</time></trkpt><trkpt lat="43.202862659642655" lon="12.013457329999518"><ele>268.33333333333337</ele><time>2026-04-26T06:53:46Z</time></trkpt><trkpt lat="43.20301131522524" lon="12.013514860810492"><ele>269.0</ele><time>2026-04-26T06:53:47Z</time></trkpt><trkpt lat="43.20316347558026" lon="12.013567916241323"><ele>268.33333333333337</ele><time>2026-04-26T06:53:48Z</time></trkpt><trkpt lat="43.20331632920121" lon="12.013621626029904"><ele>267.6666666666667</ele><time>2026-04-26T06:53:49Z</time></trkpt><trkpt lat="43.20347073705469" lon="12.013673785970969"><ele>267.0</ele><time>2026-04-26T06:53:50Z</time></trkpt><trkpt lat="43.20362364489753" lon="12.013720681124004"><ele>267.0</ele><time>2026-04-26T06:53:51Z</time></trkpt><trkpt lat="43.20377159781257" lon="12.013755057501857"><ele>267.0</ele><time>2026-04-26T06:53:52Z</time></trkpt><trkpt lat="43.20392638007276" lon="12.013775036490424"><ele>267.0</ele><time>2026-04-26T06:53:53Z</time></trkpt><trkpt lat="43.20408037407916" lon="12.013766916466665"><ele>268.0</ele><time>2026-04-26T06:53:54Z</time></trkpt><trkpt lat="43.20424292400605" lon="12.013742466390136"><ele>269.0</ele><time>2026-04-26T06:53:55Z</time></trkpt><trkpt lat="43.20440485732849" lon="12.013693848350366"><ele>270.0</ele><time>2026-04-26T06:53:56Z</time></trkpt><trkpt lat="43.20455759925846" lon="12.013620531447524"><ele>270.0</ele><time>2026-04-26T06:53:57Z</time></trkpt><trkpt lat="43.204688826907464" lon="12.013528492497649"><ele>270.0</ele><time>2026-04-26T06:53:58Z</time></trkpt><trkpt lat="43.204815490270725" lon="12.013419630720819"><ele>270.0</ele><time>2026-04-26T06:53:59Z</time></trkpt><trkpt lat="43.20492944194362" lon="12.01330538348066"><ele>270.0</ele><time>2026-04-26T06:54:00Z</time></trkpt><trkpt lat="43.20504725033399" lon="12.013190008139864"><ele>270.0</ele><time>2026-04-26T06:54:01Z</time></trkpt><trkpt lat="43.20516405366851" lon="12.01307397697367"><ele>270.0</ele><time>2026-04-26T06:54:02Z</time></trkpt><trkpt lat="43.205271800285786" lon="12.01294551379901"><ele>270.0</ele><time>2026-04-26T06:54:03Z</time></trkpt><trkpt lat="43.20538690352839" lon="12.01282637476245"><ele>270.0</ele><time>2026-04-26T06:54:04Z</time></trkpt><trkpt lat="43.20550538085964" lon="12.012710799663092"><ele>270.0</ele><time>2026-04-26T06:54:05Z</time></trkpt><trkpt lat="43.205620342615184" lon="12.01259409259871"><ele>270.0</ele><time>2026-04-26T06:54:06Z</time></trkpt><trkpt lat="43.205744524307825" lon="12.01249567811519"><ele>270.0</ele><time>2026-04-26T06:54:07Z</time></trkpt><trkpt lat="43.20584871243831" lon="12.012358029622577"><ele>270.0</ele><time>2026-04-26T06:54:08Z</time></trkpt><trkpt lat="43.205965695356866" lon="12.012237714348608"><ele>270.0</ele><time>2026-04-26T06:54:09Z</time></trkpt><trkpt lat="43.20608634721348" lon="12.012117352102688"><ele>270.0</ele><time>2026-04-26T06:54:10Z</time></trkpt><trkpt lat="43.20620806786571" lon="12.011995488252785"><ele>270.0</ele><time>2026-04-26T06:54:11Z</time></trkpt><trkpt lat="43.206343344347935" lon="12.011893688149657"><ele>270.0</ele><time>2026-04-26T06:54:12Z</time></trkpt><trkpt lat="43.20645473760963" lon="12.011747717758087"><ele>270.0</ele><time>2026-04-26T06:54:13Z</time></trkpt><trkpt lat="43.20657633927329" lon="12.01162335397253"><ele>270.0</ele><time>2026-04-26T06:54:14Z</time></trkpt><trkpt lat="43.20669805580399" lon="12.01149464315005"><ele>269.6666666666667</ele><time>2026-04-26T06:54:15Z</time></trkpt><trkpt lat="43.20682286473427" lon="12.011372280727418"><ele>269.33333333333337</ele><time>2026-04-26T06:54:16Z</time></trkpt><trkpt lat="43.206959559010315" lon="12.011276908307826"><ele>269.0</ele><time>2026-04-26T06:54:17Z</time></trkpt><trkpt lat="43.20708186461752" lon="12.011154543320234"><ele>269.0</ele><time>2026-04-26T06:54:18Z</time></trkpt><trkpt lat="43.20719405670739" lon="12.011009663115141"><ele>269.0</ele><time>2026-04-26T06:54:19Z</time></trkpt><trkpt lat="43.20731988356369" lon="12.010884915336005"><ele>269.0</ele><time>2026-04-26T06:54:20Z</time></trkpt><trkpt lat="43.20744588667221" lon="12.01075498600127"><ele>269.6666666666667</ele><time>2026-04-26T06:54:21Z</time></trkpt><trkpt lat="43.207573123831814" lon="12.010625483619625"><ele>270.3333333333333</ele><time>2026-04-26T06:54:22Z</time></trkpt><trkpt lat="43.207717331045345" lon="12.010523047233914"><ele>271.0</ele><time>2026-04-26T06:54:23Z</time></trkpt><trkpt lat="43.20784965844086" lon="12.010392120185891"><ele>271.0</ele><time>2026-04-26T06:54:24Z</time></trkpt><trkpt lat="43.207985915041384" lon="12.010265496007893"><ele>271.0</ele><time>2026-04-26T06:54:25Z</time></trkpt><trkpt lat="43.20812583929286" lon="12.01014954000064"><ele>271.0</ele><time>2026-04-26T06:54:26Z</time></trkpt><trkpt lat="43.208273292085266" lon="12.01004852256905"><ele>270.66666666666663</ele><time>2026-04-26T06:54:27Z</time></trkpt><trkpt lat="43.208422946770696" lon="12.00996081491539"><ele>270.3333333333333</ele><time>2026-04-26T06:54:28Z</time></trkpt><trkpt lat="43.2085694029689" lon="12.009888998327872"><ele>270.0</ele><time>2026-04-26T06:54:29Z</time></trkpt><trkpt lat="43.20871824801157" lon="12.00983212867006"><ele>270.0</ele><time>2026-04-26T06:54:30Z</time></trkpt><trkpt lat="43.208865156555625" lon="12.009772200197949"><ele>270.0</ele><time>2026-04-26T06:54:31Z</time></trkpt><trkpt lat="43.209017081218136" lon="12.009741827156747"><ele>270.0</ele><time>2026-04-26T06:54:32Z</time></trkpt><trkpt lat="43.20917178621606" lon="12.009717820364184"><ele>270.3333333333333</ele><time>2026-04-26T06:54:33Z</time></trkpt><trkpt lat="43.20932628800055" lon="12.00970374067714"><ele>270.66666666666663</ele><time>2026-04-26T06:54:34Z</time></trkpt><trkpt lat="43.209480402896716" lon="12.0096867390185"><ele>271.0</ele><time>2026-04-26T06:54:35Z</time></trkpt><trkpt lat="43.20962730152908" lon="12.009671830162496"><ele>271.0</ele><time>2026-04-26T06:54:36Z</time></trkpt><trkpt lat="43.20976545998244" lon="12.009659427837072"><ele>271.0</ele><time>2026-04-26T06:54:37Z</time></trkpt><trkpt lat="43.20989762739815" lon="12.009649642370961"><ele>271.0</ele><time>2026-04-26T06:54:38Z</time></trkpt><trkpt lat="43.210031274806674" lon="12.009639974746753"><ele>271.0</ele><time>2026-04-26T06:54:39Z</time></trkpt><trkpt lat="43.21016587695815" lon="12.00962920445418"><ele>272.0</ele><time>2026-04-26T06:54:40Z</time></trkpt><trkpt lat="43.21030083451056" lon="12.009621889231166"><ele>273.0</ele><time>2026-04-26T06:54:41Z</time></trkpt><trkpt lat="43.21043480512821" lon="12.009614082825548"><ele>274.0</ele><time>2026-04-26T06:54:42Z</time></trkpt><trkpt lat="43.210561757725955" lon="12.009609020344994"><ele>275.0</ele><time>2026-04-26T06:54:43Z</time></trkpt><trkpt lat="43.21068550822359" lon="12.009607914765365"><ele>275.2</ele><time>2026-04-26T06:54:44Z</time></trkpt><trkpt lat="43.210803572569475" lon="12.009604362127467"><ele>275.4</ele><time>2026-04-26T06:54:45Z</time></trkpt><trkpt lat="43.21091406833886" lon="12.009597291549243"><ele>275.6</ele><time>2026-04-26T06:54:46Z</time></trkpt><trkpt lat="43.21099809262733" lon="12.00959532187298"><ele>275.8</ele><time>2026-04-26T06:54:47Z</time></trkpt><trkpt lat="43.211082670831196" lon="12.009615590530567"><ele>276.0</ele><time>2026-04-26T06:54:48Z</time></trkpt><trkpt lat="43.21116444076545" lon="12.009615014394681"><ele>276.0</ele><time>2026-04-26T06:54:49Z</time></trkpt><trkpt lat="43.21125753181319" lon="12.009614121821878"><ele>276.0</ele><time>2026-04-26T06:54:50Z</time></trkpt><trkpt lat="43.211355503213596" lon="12.009586842828547"><ele>276.0</ele><time>2026-04-26T06:54:51Z</time></trkpt><trkpt lat="43.21146076681522" lon="12.00958169053862"><ele>276.0</ele><time>2026-04-26T06:54:52Z</time></trkpt><trkpt lat="43.21156097856656" lon="12.00959555991508"><ele>276.0</ele><time>2026-04-26T06:54:53Z</time></trkpt><trkpt lat="43.211675036977375" lon="12.009582476583326"><ele>276.25</ele><time>2026-04-26T06:54:54Z</time></trkpt><trkpt lat="43.21178617400878" lon="12.009565007091368"><ele>276.5</ele><time>2026-04-26T06:54:55Z</time></trkpt><trkpt lat="43.21190081158788" lon="12.00954224807829"><ele>276.75</ele><time>2026-04-26T06:54:56Z</time></trkpt><trkpt lat="43.212025399317476" lon="12.009515374790519"><ele>277.0</ele><time>2026-04-26T06:54:57Z</time></trkpt><trkpt lat="43.21215333471426" lon="12.009485743641086"><ele>277.0</ele><time>2026-04-26T06:54:58Z</time></trkpt><trkpt lat="43.212284349736265" lon="12.009449923033047"><ele>277.0</ele><time>2026-04-26T06:54:59Z</time></trkpt><trkpt lat="43.21241439698758" lon="12.009413930313343"><ele>277.0</ele><time>2026-04-26T06:55:00Z</time></trkpt><trkpt lat="43.212545937100366" lon="12.009381802687567"><ele>277.0</ele><time>2026-04-26T06:55:01Z</time></trkpt><trkpt lat="43.212677525864656" lon="12.009350191876925"><ele>276.75</ele><time>2026-04-26T06:55:02Z</time></trkpt><trkpt lat="43.21280766173215" lon="12.009319159022395"><ele>276.5</ele><time>2026-04-26T06:55:03Z</time></trkpt><trkpt lat="43.21293779217026" lon="12.009291010527676"><ele>276.25</ele><time>2026-04-26T06:55:04Z</time></trkpt><trkpt lat="43.213066816311155" lon="12.009264630373213"><ele>276.0</ele><time>2026-04-26T06:55:05Z</time></trkpt><trkpt lat="43.213196505079615" lon="12.009238555400923"><ele>275.5</ele><time>2026-04-26T06:55:06Z</time></trkpt><trkpt lat="43.21332257715008" lon="12.009217583331006"><ele>275.0</ele><time>2026-04-26T06:55:07Z</time></trkpt><trkpt lat="43.21344626383055" lon="12.00920567415698"><ele>274.5</ele><time>2026-04-26T06:55:08Z</time></trkpt><trkpt lat="43.213572423518386" lon="12.009205807549261"><ele>274.0</ele><time>2026-04-26T06:55:09Z</time></trkpt><trkpt lat="43.21370172741266" lon="12.009213593645704"><ele>274.0</ele><time>2026-04-26T06:55:10Z</time></trkpt><trkpt lat="43.213834184804014" lon="12.009226553664725"><ele>274.0</ele><time>2026-04-26T06:55:11Z</time></trkpt><trkpt lat="43.21396672732637" lon="12.009249357259579"><ele>274.0</ele><time>2026-04-26T06:55:12Z</time></trkpt><trkpt lat="43.21408786835401" lon="12.009278664056174"><ele>274.0</ele><time>2026-04-26T06:55:13Z</time></trkpt><trkpt lat="43.214200560557835" lon="12.009306485321687"><ele>273.8</ele><time>2026-04-26T06:55:14Z</time></trkpt><trkpt lat="43.214303560918424" lon="12.009331913890168"><ele>273.59999999999997</ele><time>2026-04-26T06:55:15Z</time></trkpt><trkpt lat="43.214402827028984" lon="12.009356420563696"><ele>273.4</ele><time>2026-04-26T06:55:16Z</time></trkpt><trkpt lat="43.21450721727842" lon="12.009381458117783"><ele>273.2</ele><time>2026-04-26T06:55:17Z</time></trkpt><trkpt lat="43.21463610306387" lon="12.009411991963413"><ele>273.0</ele><time>2026-04-26T06:55:18Z</time></trkpt><trkpt lat="43.21477353705018" lon="12.009444550903744"><ele>273.3333333333333</ele><time>2026-04-26T06:55:19Z</time></trkpt><trkpt lat="43.21492468751167" lon="12.009452830218807"><ele>273.66666666666663</ele><time>2026-04-26T06:55:20Z</time></trkpt><trkpt lat="43.21508342860086" lon="12.009459053103209"><ele>274.0</ele><time>2026-04-26T06:55:21Z</time></trkpt><trkpt lat="43.21524805066262" lon="12.009478846309815"><ele>274.0</ele><time>2026-04-26T06:55:22Z</time></trkpt><trkpt lat="43.21542021261506" lon="12.009467691889647"><ele>274.0</ele><time>2026-04-26T06:55:23Z</time></trkpt><trkpt lat="43.21559453146214" lon="12.0094463603243"><ele>274.0</ele><time>2026-04-26T06:55:24Z</time></trkpt><trkpt lat="43.215766144163254" lon="12.009427765075362"><ele>274.0</ele><time>2026-04-26T06:55:25Z</time></trkpt><trkpt lat="43.21594194336152" lon="12.009409083804977"><ele>274.0</ele><time>2026-04-26T06:55:26Z</time></trkpt><trkpt lat="43.21612047020259" lon="12.009370755530233"><ele>274.0</ele><time>2026-04-26T06:55:27Z</time></trkpt><trkpt lat="43.21630210289472" lon="12.009365009286038"><ele>274.3333333333333</ele><time>2026-04-26T06:55:28Z</time></trkpt><trkpt lat="43.21648831701939" lon="12.0093657108316"><ele>274.6666666666667</ele><time>2026-04-26T06:55:29Z</time></trkpt><trkpt lat="43.21667459359648" lon="12.009376423710712"><ele>275.0</ele><time>2026-04-26T06:55:30Z</time></trkpt><trkpt lat="43.216865758712736" lon="12.00935299866333"><ele>275.0</ele><time>2026-04-26T06:55:31Z</time></trkpt><trkpt lat="43.2170415719025" lon="12.009311898732188"><ele>275.0</ele><time>2026-04-26T06:55:32Z</time></trkpt><trkpt lat="43.2172110323671" lon="12.009262473885018"><ele>275.0</ele><time>2026-04-26T06:55:33Z</time></trkpt><trkpt lat="43.21737093875231" lon="12.009189465952202"><ele>275.25</ele><time>2026-04-26T06:55:34Z</time></trkpt><trkpt lat="43.21751969757986" lon="12.009139396545418"><ele>275.5</ele><time>2026-04-26T06:55:35Z</time></trkpt><trkpt lat="43.217656644525086" lon="12.009089942929869"><ele>275.75</ele><time>2026-04-26T06:55:36Z</time></trkpt><trkpt lat="43.2177820957895" lon="12.009053624243307"><ele>276.0</ele><time>2026-04-26T06:55:37Z</time></trkpt><trkpt lat="43.217891972655195" lon="12.009007944682645"><ele>276.0</ele><time>2026-04-26T06:55:38Z</time></trkpt><trkpt lat="43.217973845602515" lon="12.008971264246968"><ele>276.0</ele><time>2026-04-26T06:55:39Z</time></trkpt><trkpt lat="43.21803783082698" lon="12.008920345056461"><ele>276.0</ele><time>2026-04-26T06:55:40Z</time></trkpt><trkpt lat="43.21810914161173" lon="12.008910649380756"><ele>276.0</ele><time>2026-04-26T06:55:41Z</time></trkpt><trkpt lat="43.21817518808814" lon="12.00887981234071"><ele>276.0</ele><time>2026-04-26T06:55:42Z</time></trkpt><trkpt lat="43.21824704438885" lon="12.008846076898795"><ele>276.0</ele><time>2026-04-26T06:55:43Z</time></trkpt><trkpt lat="43.218330014814036" lon="12.008807123537665"><ele>276.0</ele><time>2026-04-26T06:55:44Z</time></trkpt><trkpt lat="43.21841493220129" lon="12.00876725612719"><ele>276.0</ele><time>2026-04-26T06:55:45Z</time></trkpt><trkpt lat="43.21850050721537" lon="12.008727079957845"><ele>276.0</ele><time>2026-04-26T06:55:46Z</time></trkpt><trkpt lat="43.2185828378664" lon="12.008688183187719"><ele>276.0</ele><time>2026-04-26T06:55:47Z</time></trkpt><trkpt lat="43.21866461637663" lon="12.008649486481582"><ele>276.0</ele><time>2026-04-26T06:55:48Z</time></trkpt><trkpt lat="43.21875053534641" lon="12.0086088305636"><ele>276.0</ele><time>2026-04-26T06:55:49Z</time></trkpt><trkpt lat="43.218838627296414" lon="12.008567146411371"><ele>276.0</ele><time>2026-04-26T06:55:50Z</time></trkpt><trkpt lat="43.21892872628622" lon="12.008524512551677"><ele>276.0</ele><time>2026-04-26T06:55:51Z</time></trkpt><trkpt lat="43.21902391145136" lon="12.008479472578278"><ele>276.0</ele><time>2026-04-26T06:55:52Z</time></trkpt><trkpt lat="43.21912037197896" lon="12.00843321911036"><ele>276.0</ele><time>2026-04-26T06:55:53Z</time></trkpt><trkpt lat="43.21921946888013" lon="12.008385988826216"><ele>276.0</ele><time>2026-04-26T06:55:54Z</time></trkpt><trkpt lat="43.21932199603329" lon="12.008337123655846"><ele>275.75</ele><time>2026-04-26T06:55:55Z</time></trkpt><trkpt lat="43.219427301143845" lon="12.00828693448729"><ele>275.5</ele><time>2026-04-26T06:55:56Z</time></trkpt><trkpt lat="43.21953813304734" lon="12.008234111475193"><ele>275.25</ele><time>2026-04-26T06:55:57Z</time></trkpt><trkpt lat="43.21965229434238" lon="12.008182376147209"><ele>275.0</ele><time>2026-04-26T06:55:58Z</time></trkpt><trkpt lat="43.219773722503234" lon="12.00812666659795"><ele>275.75</ele><time>2026-04-26T06:55:59Z</time></trkpt><trkpt lat="43.21990592371954" lon="12.008066255989323"><ele>276.5</ele><time>2026-04-26T06:56:00Z</time></trkpt><trkpt lat="43.22004156302694" lon="12.008003113578091"><ele>277.25</ele><time>2026-04-26T06:56:01Z</time></trkpt><trkpt lat="43.220178457808345" lon="12.007928417212872"><ele>278.0</ele><time>2026-04-26T06:56:02Z</time></trkpt><trkpt lat="43.22031725782667" lon="12.007826946744741"><ele>278.0</ele><time>2026-04-26T06:56:03Z</time></trkpt><trkpt lat="43.220474910261665" lon="12.00769129471341"><ele>278.0</ele><time>2026-04-26T06:56:04Z</time></trkpt><trkpt lat="43.22065124988372" lon="12.007533589539191"><ele>278.0</ele><time>2026-04-26T06:56:05Z</time></trkpt><trkpt lat="43.22082868682966" lon="12.007371554627834"><ele>277.5</ele><time>2026-04-26T06:56:06Z</time></trkpt><trkpt lat="43.22102000357515" lon="12.00719684464819"><ele>277.0</ele><time>2026-04-26T06:56:07Z</time></trkpt><trkpt lat="43.22121325171532" lon="12.00702070000886"><ele>277.0</ele><time>2026-04-26T06:56:08Z</time></trkpt><trkpt lat="43.22139108749683" lon="12.006861932576323"><ele>277.0</ele><time>2026-04-26T06:56:09Z</time></trkpt><trkpt lat="43.22154734951651" lon="12.006697731164172"><ele>277.0</ele><time>2026-04-26T06:56:10Z</time></trkpt><trkpt lat="43.22170078105313" lon="12.006562858610318"><ele>278.25</ele><time>2026-04-26T06:56:11Z</time></trkpt><trkpt lat="43.22183833762267" lon="12.006436989290808"><ele>279.5</ele><time>2026-04-26T06:56:12Z</time></trkpt><trkpt lat="43.22195886535633" lon="12.006331062854827"><ele>280.75</ele><time>2026-04-26T06:56:13Z</time></trkpt><trkpt lat="43.222065413918216" lon="12.006240205688298"><ele>282.0</ele><time>2026-04-26T06:56:14Z</time></trkpt><trkpt lat="43.222158241407975" lon="12.006169341587116"><ele>282.0</ele><time>2026-04-26T06:56:15Z</time></trkpt><trkpt lat="43.2222489260502" lon="12.006139153025877"><ele>282.0</ele><time>2026-04-26T06:56:16Z</time></trkpt><trkpt lat="43.22232651650777" lon="12.006079208025486"><ele>282.0</ele><time>2026-04-26T06:56:17Z</time></trkpt><trkpt lat="43.22239741454517" lon="12.006038758234446"><ele>282.0</ele><time>2026-04-26T06:56:18Z</time></trkpt><trkpt lat="43.22249025300441" lon="12.006012569464744"><ele>282.0</ele><time>2026-04-26T06:56:19Z</time></trkpt><trkpt lat="43.222577350403036" lon="12.00595629546582"><ele>281.6</ele><time>2026-04-26T06:56:20Z</time></trkpt><trkpt lat="43.22267563711543" lon="12.005926529568198"><ele>281.2</ele><time>2026-04-26T06:56:21Z</time></trkpt><trkpt lat="43.222778587424855" lon="12.005890735423241"><ele>280.8</ele><time>2026-04-26T06:56:22Z</time></trkpt><trkpt lat="43.222846802768096" lon="12.005834111773131"><ele>280.4</ele><time>2026-04-26T06:56:23Z</time></trkpt><trkpt lat="43.22291766045704" lon="12.005783251584097"><ele>280.0</ele><time>2026-04-26T06:56:24Z</time></trkpt><trkpt lat="43.22299576066219" lon="12.00572841952356"><ele>280.0</ele><time>2026-04-26T06:56:25Z</time></trkpt><trkpt lat="43.22305817626288" lon="12.005669747466303"><ele>280.0</ele><time>2026-04-26T06:56:26Z</time></trkpt><trkpt lat="43.22312441894306" lon="12.005608224167892"><ele>280.0</ele><time>2026-04-26T06:56:27Z</time></trkpt><trkpt lat="43.22320106272806" lon="12.0055415571711"><ele>280.0</ele><time>2026-04-26T06:56:28Z</time></trkpt><trkpt lat="43.22328105149273" lon="12.005482534361507"><ele>280.0</ele><time>2026-04-26T06:56:29Z</time></trkpt><trkpt lat="43.2233630092923" lon="12.005420025393516"><ele>280.0</ele><time>2026-04-26T06:56:30Z</time></trkpt><trkpt lat="43.22344951159817" lon="12.005359684400876"><ele>281.0</ele><time>2026-04-26T06:56:31Z</time></trkpt><trkpt lat="43.22354198865149" lon="12.005298265310989"><ele>282.0</ele><time>2026-04-26T06:56:32Z</time></trkpt><trkpt lat="43.223634430751666" lon="12.005228005155645"><ele>283.0</ele><time>2026-04-26T06:56:33Z</time></trkpt><trkpt lat="43.223737748196086" lon="12.005172311049298"><ele>284.0</ele><time>2026-04-26T06:56:34Z</time></trkpt><trkpt lat="43.22384777333829" lon="12.00511874562503"><ele>285.0</ele><time>2026-04-26T06:56:35Z</time></trkpt><trkpt lat="43.223956655678656" lon="12.005064324446089"><ele>284.75</ele><time>2026-04-26T06:56:36Z</time></trkpt><trkpt lat="43.22406339627141" lon="12.00500909327073"><ele>284.5</ele><time>2026-04-26T06:56:37Z</time></trkpt><trkpt lat="43.22417597948365" lon="12.004995119555446"><ele>284.25</ele><time>2026-04-26T06:56:38Z</time></trkpt><trkpt lat="43.224282281747506" lon="12.004968406044478"><ele>284.0</ele><time>2026-04-26T06:56:39Z</time></trkpt><trkpt lat="43.2243948037906" lon="12.004923585631342"><ele>284.0</ele><time>2026-04-26T06:56:40Z</time></trkpt><trkpt lat="43.22450560497725" lon="12.00491177779523"><ele>284.0</ele><time>2026-04-26T06:56:41Z</time></trkpt><trkpt lat="43.224614854288596" lon="12.004896368854228"><ele>284.0</ele><time>2026-04-26T06:56:42Z</time></trkpt><trkpt lat="43.224725341403776" lon="12.004875830141193"><ele>284.0</ele><time>2026-04-26T06:56:43Z</time></trkpt><trkpt lat="43.2248390016275" lon="12.004854123925554"><ele>284.0</ele><time>2026-04-26T06:56:44Z</time></trkpt><trkpt lat="43.224957822317506" lon="12.004837615056669"><ele>284.0</ele><time>2026-04-26T06:56:45Z</time></trkpt><trkpt lat="43.2250806415161" lon="12.004813451947893"><ele>284.0</ele><time>2026-04-26T06:56:46Z</time></trkpt><trkpt lat="43.22520940662407" lon="12.004786186470376"><ele>284.0</ele><time>2026-04-26T06:56:47Z</time></trkpt><trkpt lat="43.2253450538705" lon="12.004751280342473"><ele>284.0</ele><time>2026-04-26T06:56:48Z</time></trkpt><trkpt lat="43.22551469876436" lon="12.004735245324525"><ele>283.6666666666667</ele><time>2026-04-26T06:56:49Z</time></trkpt><trkpt lat="43.225705771807455" lon="12.00469709222757"><ele>283.3333333333333</ele><time>2026-04-26T06:56:50Z</time></trkpt><trkpt lat="43.22594093128889" lon="12.004650135993014"><ele>283.0</ele><time>2026-04-26T06:56:51Z</time></trkpt><trkpt lat="43.22619370789724" lon="12.004591749889629"><ele>283.0</ele><time>2026-04-26T06:56:52Z</time></trkpt><trkpt lat="43.22645652582104" lon="12.004528942581015"><ele>283.0</ele><time>2026-04-26T06:56:53Z</time></trkpt><trkpt lat="43.22672780709399" lon="12.004483894693475"><ele>283.5</ele><time>2026-04-26T06:56:54Z</time></trkpt><trkpt lat="43.226981699696886" lon="12.00447674258478"><ele>284.0</ele><time>2026-04-26T06:56:55Z</time></trkpt><trkpt lat="43.22721813008623" lon="12.004484803530852"><ele>283.6666666666667</ele><time>2026-04-26T06:56:56Z</time></trkpt><trkpt lat="43.227444639569974" lon="12.004484421053768"><ele>283.3333333333333</ele><time>2026-04-26T06:56:57Z</time></trkpt><trkpt lat="43.227660991068866" lon="12.004488245904472"><ele>283.0</ele><time>2026-04-26T06:56:58Z</time></trkpt><trkpt lat="43.227870560963" lon="12.004492811948856"><ele>283.0</ele><time>2026-04-26T06:56:59Z</time></trkpt><trkpt lat="43.22808190938199" lon="12.004492004566847"><ele>283.0</ele><time>2026-04-26T06:57:00Z</time></trkpt><trkpt lat="43.22829625044167" lon="12.004484765262745"><ele>283.0</ele><time>2026-04-26T06:57:01Z</time></trkpt><trkpt lat="43.228506998552135" lon="12.004455915436399"><ele>282.66666666666663</ele><time>2026-04-26T06:57:02Z</time></trkpt><trkpt lat="43.22871431797965" lon="12.004414216431678"><ele>282.3333333333333</ele><time>2026-04-26T06:57:03Z</time></trkpt><trkpt lat="43.22891885638421" lon="12.004368812924731"><ele>282.0</ele><time>2026-04-26T06:57:04Z</time></trkpt><trkpt lat="43.229117902742026" lon="12.00432188606095"><ele>282.6666666666667</ele><time>2026-04-26T06:57:05Z</time></trkpt><trkpt lat="43.22930732569559" lon="12.004278213366886"><ele>283.33333333333337</ele><time>2026-04-26T06:57:06Z</time></trkpt><trkpt lat="43.22948396254277" lon="12.00423851417173"><ele>284.0</ele><time>2026-04-26T06:57:07Z</time></trkpt><trkpt lat="43.22965254144548" lon="12.004204838867885"><ele>282.6666666666667</ele><time>2026-04-26T06:57:08Z</time></trkpt><trkpt lat="43.22981790366904" lon="12.004159650436328"><ele>281.3333333333333</ele><time>2026-04-26T06:57:09Z</time></trkpt><trkpt lat="43.229981080886034" lon="12.004120907073446"><ele>280.0</ele><time>2026-04-26T06:57:10Z</time></trkpt><trkpt lat="43.23014690708817" lon="12.004084295739705"><ele>280.0</ele><time>2026-04-26T06:57:11Z</time></trkpt><trkpt lat="43.23031319531031" lon="12.00404632237758"><ele>280.0</ele><time>2026-04-26T06:57:12Z</time></trkpt><trkpt lat="43.2304787480341" lon="12.004008413966968"><ele>280.0</ele><time>2026-04-26T06:57:13Z</time></trkpt><trkpt lat="43.230645423152026" lon="12.003969283613559"><ele>279.66666666666663</ele><time>2026-04-26T06:57:14Z</time></trkpt><trkpt lat="43.23080958482837" lon="12.003929332547107"><ele>279.3333333333333</ele><time>2026-04-26T06:57:15Z</time></trkpt><trkpt lat="43.23097528985544" lon="12.003910426259235"><ele>279.0</ele><time>2026-04-26T06:57:16Z</time></trkpt><trkpt lat="43.23113634419075" lon="12.003870392624519"><ele>279.0</ele><time>2026-04-26T06:57:17Z</time></trkpt><trkpt lat="43.23129912908569" lon="12.003809828031361"><ele>279.0</ele><time>2026-04-26T06:57:18Z</time></trkpt><trkpt lat="43.231454477891816" lon="12.00373996036689"><ele>279.0</ele><time>2026-04-26T06:57:19Z</time></trkpt><trkpt lat="43.23160512990666" lon="12.003632417468516"><ele>279.3333333333333</ele><time>2026-04-26T06:57:20Z</time></trkpt><trkpt lat="43.23175139381285" lon="12.003516338584328"><ele>279.66666666666663</ele><time>2026-04-26T06:57:21Z</time></trkpt><trkpt lat="43.23189595151135" lon="12.003394706120131"><ele>280.0</ele><time>2026-04-26T06:57:22Z</time></trkpt><trkpt lat="43.2320405047963" lon="12.003257824333412"><ele>279.3333333333333</ele><time>2026-04-26T06:57:23Z</time></trkpt><trkpt lat="43.23218625424068" lon="12.003120792607538"><ele>278.6666666666667</ele><time>2026-04-26T06:57:24Z</time></trkpt><trkpt lat="43.23232633462563" lon="12.002990198042113"><ele>278.0</ele><time>2026-04-26T06:57:25Z</time></trkpt><trkpt lat="43.23246462236041" lon="12.002860733036227"><ele>278.0</ele><time>2026-04-26T06:57:26Z</time></trkpt><trkpt lat="43.2325928481451" lon="12.002715545730558"><ele>278.0</ele><time>2026-04-26T06:57:27Z</time></trkpt><trkpt lat="43.23273264826332" lon="12.002588852198636"><ele>278.0</ele><time>2026-04-26T06:57:28Z</time></trkpt><trkpt lat="43.23287630537822" lon="12.002460259761861"><ele>277.0</ele><time>2026-04-26T06:57:29Z</time></trkpt><trkpt lat="43.233015070968" lon="12.002331322489127"><ele>276.0</ele><time>2026-04-26T06:57:30Z</time></trkpt><trkpt lat="43.23315409481597" lon="12.002203149165016"><ele>275.0</ele><time>2026-04-26T06:57:31Z</time></trkpt><trkpt lat="43.23329395006003" lon="12.002073710597838"><ele>275.0</ele><time>2026-04-26T06:57:32Z</time></trkpt><trkpt lat="43.233428061416724" lon="12.001945293003054"><ele>275.0</ele><time>2026-04-26T06:57:33Z</time></trkpt><trkpt lat="43.233568069167355" lon="12.001814280680753"><ele>275.0</ele><time>2026-04-26T06:57:34Z</time></trkpt><trkpt lat="43.2337071744475" lon="12.001681687588395"><ele>273.33333333333337</ele><time>2026-04-26T06:57:35Z</time></trkpt><trkpt lat="43.23384790200717" lon="12.00154858268745"><ele>271.6666666666667</ele><time>2026-04-26T06:57:36Z</time></trkpt><trkpt lat="43.23398712319209" lon="12.001411876884319"><ele>270.0</ele><time>2026-04-26T06:57:37Z</time></trkpt><trkpt lat="43.23413927945902" lon="12.001294206031778"><ele>269.3333333333333</ele><time>2026-04-26T06:57:38Z</time></trkpt><trkpt lat="43.23428866950721" lon="12.001154352729658"><ele>268.66666666666663</ele><time>2026-04-26T06:57:39Z</time></trkpt><trkpt lat="43.234443858553476" lon="12.001009028766978"><ele>268.0</ele><time>2026-04-26T06:57:40Z</time></trkpt><trkpt lat="43.234601337542806" lon="12.000861560398207"><ele>266.66666666666663</ele><time>2026-04-26T06:57:41Z</time></trkpt><trkpt lat="43.23475786988528" lon="12.000714978492773"><ele>265.3333333333333</ele><time>2026-04-26T06:57:42Z</time></trkpt><trkpt lat="43.234916617003066" lon="12.000566322642177"><ele>264.0</ele><time>2026-04-26T06:57:43Z</time></trkpt><trkpt lat="43.235080269718004" lon="12.00041307307092"><ele>264.0</ele><time>2026-04-26T06:57:44Z</time></trkpt><trkpt lat="43.23525109922733" lon="12.000253102858153"><ele>264.0</ele><time>2026-04-26T06:57:45Z</time></trkpt><trkpt lat="43.235429019877905" lon="12.000086492346064"><ele>264.0</ele><time>2026-04-26T06:57:46Z</time></trkpt><trkpt lat="43.235612251995434" lon="11.999914985077426"><ele>264.0</ele><time>2026-04-26T06:57:47Z</time></trkpt><trkpt lat="43.23580032275439" lon="11.999738979170843"><ele>264.0</ele><time>2026-04-26T06:57:48Z</time></trkpt><trkpt lat="43.23599203329671" lon="11.99955949751291"><ele>264.0</ele><time>2026-04-26T06:57:49Z</time></trkpt><trkpt lat="43.23618512999653" lon="11.9993787167127"><ele>264.0</ele><time>2026-04-26T06:57:50Z</time></trkpt><trkpt lat="43.23636931429561" lon="11.99918121453488"><ele>263.5</ele><time>2026-04-26T06:57:51Z</time></trkpt><trkpt lat="43.236561573898086" lon="11.999002496222364"><ele>263.0</ele><time>2026-04-26T06:57:52Z</time></trkpt><trkpt lat="43.236752868728374" lon="11.998824074064128"><ele>263.0</ele><time>2026-04-26T06:57:53Z</time></trkpt><trkpt lat="43.236945712246346" lon="11.998647604868454"><ele>263.0</ele><time>2026-04-26T06:57:54Z</time></trkpt><trkpt lat="43.237134794309455" lon="11.998468102000121"><ele>261.5</ele><time>2026-04-26T06:57:55Z</time></trkpt><trkpt lat="43.23732234482025" lon="11.998288258481207"><ele>260.0</ele><time>2026-04-26T06:57:56Z</time></trkpt><trkpt lat="43.237507994659445" lon="11.998112963104022"><ele>260.0</ele><time>2026-04-26T06:57:57Z</time></trkpt><trkpt lat="43.23770194337189" lon="11.997957371680588"><ele>260.0</ele><time>2026-04-26T06:57:58Z</time></trkpt><trkpt lat="43.23788495972953" lon="11.997786113951653"><ele>260.0</ele><time>2026-04-26T06:57:59Z</time></trkpt><trkpt lat="43.23806771630506" lon="11.997615098395752"><ele>260.33333333333337</ele><time>2026-04-26T06:58:00Z</time></trkpt><trkpt lat="43.23824974425282" lon="11.997443935075356"><ele>260.6666666666667</ele><time>2026-04-26T06:58:01Z</time></trkpt><trkpt lat="43.238433483044844" lon="11.997272286966318"><ele>261.0</ele><time>2026-04-26T06:58:02Z</time></trkpt><trkpt lat="43.23861426394238" lon="11.997103423566166"><ele>261.0</ele><time>2026-04-26T06:58:03Z</time></trkpt><trkpt lat="43.238794368658645" lon="11.996935013097943"><ele>261.0</ele><time>2026-04-26T06:58:04Z</time></trkpt><trkpt lat="43.23897250862092" lon="11.996768423337212"><ele>261.0</ele><time>2026-04-26T06:58:05Z</time></trkpt><trkpt lat="43.2391476828387" lon="11.996604607042832"><ele>260.6666666666667</ele><time>2026-04-26T06:58:06Z</time></trkpt><trkpt lat="43.23932579358582" lon="11.996438044685036"><ele>260.33333333333337</ele><time>2026-04-26T06:58:07Z</time></trkpt><trkpt lat="43.23950073683" lon="11.996274444346165"><ele>260.0</ele><time>2026-04-26T06:58:08Z</time></trkpt><trkpt lat="43.23967583258015" lon="11.99611052689917"><ele>260.0</ele><time>2026-04-26T06:58:09Z</time></trkpt><trkpt lat="43.23984853393558" lon="11.995948333693134"><ele>260.0</ele><time>2026-04-26T06:58:10Z</time></trkpt><trkpt lat="43.24000911150878" lon="11.995763788454239"><ele>260.0</ele><time>2026-04-26T06:58:11Z</time></trkpt><trkpt lat="43.24018064968893" lon="11.995599439963485"><ele>260.0</ele><time>2026-04-26T06:58:12Z</time></trkpt><trkpt lat="43.24035253337542" lon="11.995435976361483"><ele>260.0</ele><time>2026-04-26T06:58:13Z</time></trkpt><trkpt lat="43.240522500266934" lon="11.995268156449628"><ele>260.0</ele><time>2026-04-26T06:58:14Z</time></trkpt><trkpt lat="43.24069846035309" lon="11.995109936924605"><ele>259.6666666666667</ele><time>2026-04-26T06:58:15Z</time></trkpt><trkpt lat="43.24086946777173" lon="11.994950767103568"><ele>259.3333333333333</ele><time>2026-04-26T06:58:15.999Z</time></trkpt><trkpt lat="43.24104163027363" lon="11.994791979978785"><ele>259.0</ele><time>2026-04-26T06:58:17Z</time></trkpt><trkpt lat="43.241223136612014" lon="11.994659245112317"><ele>259.0</ele><time>2026-04-26T06:58:18Z</time></trkpt><trkpt lat="43.24137682683924" lon="11.994466985622507"><ele>259.0</ele><time>2026-04-26T06:58:19Z</time></trkpt><trkpt lat="43.24154592374793" lon="11.994308664381773"><ele>259.0</ele><time>2026-04-26T06:58:20Z</time></trkpt><trkpt lat="43.24171639794066" lon="11.994153266346705"><ele>259.0</ele><time>2026-04-26T06:58:21Z</time></trkpt><trkpt lat="43.241886506802636" lon="11.993999848726627"><ele>259.0</ele><time>2026-04-26T06:58:22Z</time></trkpt><trkpt lat="43.24206789104345" lon="11.993867869207167"><ele>259.0</ele><time>2026-04-26T06:58:23Z</time></trkpt><trkpt lat="43.242236296772774" lon="11.993710128492534"><ele>258.66666666666663</ele><time>2026-04-26T06:58:24Z</time></trkpt><trkpt lat="43.24239783322008" lon="11.993558822070426"><ele>258.3333333333333</ele><time>2026-04-26T06:58:25Z</time></trkpt><trkpt lat="43.24254935910852" lon="11.993416892252526"><ele>258.0</ele><time>2026-04-26T06:58:26Z</time></trkpt><trkpt lat="43.24266118136052" lon="11.99331215170067"><ele>258.0</ele><time>2026-04-26T06:58:27Z</time></trkpt><trkpt lat="43.242765064407074" lon="11.993214847500107"><ele>258.0</ele><time>2026-04-26T06:58:28Z</time></trkpt><trkpt lat="43.2428491418431" lon="11.993112120199118"><ele>258.0</ele><time>2026-04-26T06:58:29Z</time></trkpt><trkpt lat="43.24295428735343" lon="11.993073838888968"><ele>258.0</ele><time>2026-04-26T06:58:30Z</time></trkpt><trkpt lat="43.243066701983906" lon="11.993073456951823"><ele>258.0</ele><time>2026-04-26T06:58:31Z</time></trkpt><trkpt lat="43.24316209803497" lon="11.992967552980005"><ele>258.0</ele><time>2026-04-26T06:58:32Z</time></trkpt><trkpt lat="43.24324981820744" lon="11.992804282570196"><ele>258.0</ele><time>2026-04-26T06:58:33Z</time></trkpt><trkpt lat="43.243362886725414" lon="11.992615432767764"><ele>258.0</ele><time>2026-04-26T06:58:34Z</time></trkpt><trkpt lat="43.243549016012956" lon="11.992478405542276"><ele>258.0</ele><time>2026-04-26T06:58:35Z</time></trkpt><trkpt lat="43.24371729850503" lon="11.99229476974155"><ele>258.0</ele><time>2026-04-26T06:58:36Z</time></trkpt><trkpt lat="43.243903477082135" lon="11.992122986136847"><ele>258.0</ele><time>2026-04-26T06:58:37Z</time></trkpt><trkpt lat="43.2440960858886" lon="11.991968478669959"><ele>258.0</ele><time>2026-04-26T06:58:38Z</time></trkpt><trkpt lat="43.244277780449735" lon="11.991798062258903"><ele>258.0</ele><time>2026-04-26T06:58:39Z</time></trkpt><trkpt lat="43.24445583540737" lon="11.991631065348468"><ele>258.0</ele><time>2026-04-26T06:58:40Z</time></trkpt><trkpt lat="43.24463497746386" lon="11.991463051639998"><ele>257.3333333333333</ele><time>2026-04-26T06:58:41Z</time></trkpt><trkpt lat="43.244813448173076" lon="11.991295667574288"><ele>256.66666666666663</ele><time>2026-04-26T06:58:42Z</time></trkpt><trkpt lat="43.24497598912846" lon="11.99109876060333"><ele>256.0</ele><time>2026-04-26T06:58:43Z</time></trkpt><trkpt lat="43.24515143511893" lon="11.990932319399752"><ele>256.3333333333333</ele><time>2026-04-26T06:58:44Z</time></trkpt><trkpt lat="43.245325304979936" lon="11.99076549460387"><ele>256.6666666666667</ele><time>2026-04-26T06:58:45Z</time></trkpt><trkpt lat="43.24549654512843" lon="11.99059775533894"><ele>257.0</ele><time>2026-04-26T06:58:46Z</time></trkpt><trkpt lat="43.2456698341768" lon="11.99043601827159"><ele>256.33333333333337</ele><time>2026-04-26T06:58:47Z</time></trkpt><trkpt lat="43.24584356201582" lon="11.990275984958622"><ele>255.66666666666669</ele><time>2026-04-26T06:58:48Z</time></trkpt><trkpt lat="43.24601675029273" lon="11.990116833051687"><ele>255.0</ele><time>2026-04-26T06:58:49Z</time></trkpt><trkpt lat="43.24618804516829" lon="11.989956755469558"><ele>255.0</ele><time>2026-04-26T06:58:50Z</time></trkpt><trkpt lat="43.24635682230411" lon="11.989796080485156"><ele>255.0</ele><time>2026-04-26T06:58:51Z</time></trkpt><trkpt lat="43.24652624434761" lon="11.989637825971073"><ele>255.0</ele><time>2026-04-26T06:58:52Z</time></trkpt><trkpt lat="43.24669725557789" lon="11.98948244399404"><ele>255.0</ele><time>2026-04-26T06:58:53Z</time></trkpt><trkpt lat="43.24686579477645" lon="11.9893234156461"><ele>255.0</ele><time>2026-04-26T06:58:54Z</time></trkpt><trkpt lat="43.24703750968238" lon="11.989167186791803"><ele>255.0</ele><time>2026-04-26T06:58:55Z</time></trkpt><trkpt lat="43.24720777269959" lon="11.989010180351167"><ele>255.0</ele><time>2026-04-26T06:58:56Z</time></trkpt><trkpt lat="43.24737769236945" lon="11.98884877523824"><ele>255.0</ele><time>2026-04-26T06:58:57Z</time></trkpt><trkpt lat="43.24754493125816" lon="11.988694359618602"><ele>255.0</ele><time>2026-04-26T06:58:58Z</time></trkpt><trkpt lat="43.24770996731652" lon="11.988544296646891"><ele>255.0</ele><time>2026-04-26T06:58:59Z</time></trkpt><trkpt lat="43.24786473662624" lon="11.988401022291695"><ele>255.0</ele><time>2026-04-26T06:59:00Z</time></trkpt><trkpt lat="43.24800864912175" lon="11.988261675648184"><ele>255.0</ele><time>2026-04-26T06:59:01Z</time></trkpt><trkpt lat="43.2481454207983" lon="11.988135119532876"><ele>254.75</ele><time>2026-04-26T06:59:02Z</time></trkpt><trkpt lat="43.24827656885693" lon="11.988013168754915"><ele>254.5</ele><time>2026-04-26T06:59:03Z</time></trkpt><trkpt lat="43.24839873288324" lon="11.987897357514885"><ele>254.25</ele><time>2026-04-26T06:59:04Z</time></trkpt><trkpt lat="43.24850909064205" lon="11.987787473989636"><ele>254.0</ele><time>2026-04-26T06:59:05Z</time></trkpt><trkpt lat="43.24862270508197" lon="11.987679568945381"><ele>254.0</ele><time>2026-04-26T06:59:06Z</time></trkpt><trkpt lat="43.248741170187685" lon="11.987575472507784"><ele>254.0</ele><time>2026-04-26T06:59:07Z</time></trkpt><trkpt lat="43.24885858126009" lon="11.987471549663656"><ele>254.0</ele><time>2026-04-26T06:59:08Z</time></trkpt><trkpt lat="43.248970790772674" lon="11.987366933857778"><ele>254.0</ele><time>2026-04-26T06:59:09Z</time></trkpt><trkpt lat="43.24908552476806" lon="11.987257792873775"><ele>253.75</ele><time>2026-04-26T06:59:10Z</time></trkpt><trkpt lat="43.24920184552785" lon="11.987151839711906"><ele>253.5</ele><time>2026-04-26T06:59:11Z</time></trkpt><trkpt lat="43.249320217288144" lon="11.987043699065717"><ele>253.25</ele><time>2026-04-26T06:59:12Z</time></trkpt><trkpt lat="43.24944078540632" lon="11.98693178979271"><ele>253.0</ele><time>2026-04-26T06:59:13Z</time></trkpt><trkpt lat="43.24956443573306" lon="11.986816103152929"><ele>253.0</ele><time>2026-04-26T06:59:14Z</time></trkpt><trkpt lat="43.24969082256964" lon="11.986696456190757"><ele>253.0</ele><time>2026-04-26T06:59:15Z</time></trkpt><trkpt lat="43.249821347719546" lon="11.986574726040558"><ele>253.0</ele><time>2026-04-26T06:59:16Z</time></trkpt><trkpt lat="43.249951803129726" lon="11.986447346220713"><ele>254.0</ele><time>2026-04-26T06:59:17Z</time></trkpt><trkpt lat="43.25008620094643" lon="11.986317954177167"><ele>255.0</ele><time>2026-04-26T06:59:18Z</time></trkpt><trkpt lat="43.250224363346355" lon="11.986188192787003"><ele>256.0</ele><time>2026-04-26T06:59:19Z</time></trkpt><trkpt lat="43.25036620809134" lon="11.986057191201303"><ele>256.0</ele><time>2026-04-26T06:59:20Z</time></trkpt><trkpt lat="43.25050931307983" lon="11.985921582184806"><ele>256.0</ele><time>2026-04-26T06:59:21Z</time></trkpt><trkpt lat="43.2506538217401" lon="11.985786365715901"><ele>256.0</ele><time>2026-04-26T06:59:22Z</time></trkpt><trkpt lat="43.25080195715065" lon="11.985650847706664"><ele>255.66666666666666</ele><time>2026-04-26T06:59:23Z</time></trkpt><trkpt lat="43.250952982451665" lon="11.985511443600096"><ele>255.33333333333331</ele><time>2026-04-26T06:59:24Z</time></trkpt><trkpt lat="43.2511031294906" lon="11.985371564695265"><ele>255.0</ele><time>2026-04-26T06:59:25Z</time></trkpt><trkpt lat="43.251255110656565" lon="11.985233915661032"><ele>255.0</ele><time>2026-04-26T06:59:26Z</time></trkpt><trkpt lat="43.25140803568465" lon="11.985096788451827"><ele>255.0</ele><time>2026-04-26T06:59:27Z</time></trkpt><trkpt lat="43.251556741613065" lon="11.984957635882543"><ele>255.0</ele><time>2026-04-26T06:59:28Z</time></trkpt><trkpt lat="43.25170201080625" lon="11.98481800469072"><ele>255.33333333333331</ele><time>2026-04-26T06:59:29Z</time></trkpt><trkpt lat="43.25184448960625" lon="11.984684914286113"><ele>255.66666666666666</ele><time>2026-04-26T06:59:30Z</time></trkpt><trkpt lat="43.25198635776997" lon="11.984559049288304"><ele>256.0</ele><time>2026-04-26T06:59:31Z</time></trkpt><trkpt lat="43.25211795196883" lon="11.984429024838951"><ele>256.0</ele><time>2026-04-26T06:59:32Z</time></trkpt><trkpt lat="43.25224580469224" lon="11.984302733497513"><ele>256.0</ele><time>2026-04-26T06:59:33Z</time></trkpt><trkpt lat="43.25237727340896" lon="11.984185612361768"><ele>256.0</ele><time>2026-04-26T06:59:34Z</time></trkpt><trkpt lat="43.252510740472225" lon="11.984080330005378"><ele>256.5</ele><time>2026-04-26T06:59:35Z</time></trkpt><trkpt lat="43.252635669529504" lon="11.98396226283069"><ele>257.0</ele><time>2026-04-26T06:59:36Z</time></trkpt><trkpt lat="43.25274881244863" lon="11.983829665164317"><ele>257.5</ele><time>2026-04-26T06:59:37Z</time></trkpt><trkpt lat="43.252879939811486" lon="11.983735161958547"><ele>258.0</ele><time>2026-04-26T06:59:38Z</time></trkpt><trkpt lat="43.2529958576139" lon="11.983606243211751"><ele>258.0</ele><time>2026-04-26T06:59:39Z</time></trkpt><trkpt lat="43.25311993602292" lon="11.983492142166975"><ele>258.0</ele><time>2026-04-26T06:59:40Z</time></trkpt><trkpt lat="43.25325187252512" lon="11.9833896512061"><ele>258.0</ele><time>2026-04-26T06:59:41Z</time></trkpt><trkpt lat="43.25337328817514" lon="11.983277670798106"><ele>258.0</ele><time>2026-04-26T06:59:42Z</time></trkpt><trkpt lat="43.25349469471787" lon="11.983165698789422"><ele>258.0</ele><time>2026-04-26T06:59:43Z</time></trkpt><trkpt lat="43.253615555414235" lon="11.983054230199302"><ele>258.0</ele><time>2026-04-26T06:59:44Z</time></trkpt><trkpt lat="43.25372815960066" lon="11.982924791990335"><ele>258.0</ele><time>2026-04-26T06:59:45Z</time></trkpt><trkpt lat="43.25385014875699" lon="11.982823249759745"><ele>258.0</ele><time>2026-04-26T06:59:46Z</time></trkpt><trkpt lat="43.25397007016814" lon="11.982724159109964"><ele>257.5</ele><time>2026-04-26T06:59:47Z</time></trkpt><trkpt lat="43.254088676075526" lon="11.982626603717744"><ele>257.0</ele><time>2026-04-26T06:59:48Z</time></trkpt><trkpt lat="43.254208111067335" lon="11.982533942014456"><ele>256.5</ele><time>2026-04-26T06:59:49Z</time></trkpt><trkpt lat="43.25432748746518" lon="11.98244537815468"><ele>256.0</ele><time>2026-04-26T06:59:50Z</time></trkpt><trkpt lat="43.254455168197076" lon="11.98237782920791"><ele>256.0</ele><time>2026-04-26T06:59:51Z</time></trkpt><trkpt lat="43.25457575335082" lon="11.982294254463605"><ele>256.0</ele><time>2026-04-26T06:59:52Z</time></trkpt><trkpt lat="43.25469516634897" lon="11.982213635535526"><ele>256.0</ele><time>2026-04-26T06:59:53Z</time></trkpt><trkpt lat="43.25481211973764" lon="11.982136007859157"><ele>256.0</ele><time>2026-04-26T06:59:54Z</time></trkpt><trkpt lat="43.254928816010654" lon="11.98205934938586"><ele>256.0</ele><time>2026-04-26T06:59:55Z</time></trkpt><trkpt lat="43.25504531779866" lon="11.98198281867097"><ele>256.0</ele><time>2026-04-26T06:59:56Z</time></trkpt><trkpt lat="43.25516054012344" lon="11.981907802287209"><ele>256.0</ele><time>2026-04-26T06:59:57Z</time></trkpt><trkpt lat="43.255276001355234" lon="11.981834133428322"><ele>256.0</ele><time>2026-04-26T06:59:58Z</time></trkpt><trkpt lat="43.25539144237268" lon="11.981760137529003"><ele>256.0</ele><time>2026-04-26T06:59:59Z</time></trkpt><trkpt lat="43.25549665111418" lon="11.981658442352472"><ele>256.0</ele><time>2026-04-26T07:00:00Z</time></trkpt><trkpt lat="43.25560885259423" lon="11.981585213166264"><ele>256.0</ele><time>2026-04-26T07:00:01Z</time></trkpt><trkpt lat="43.25571948648475" lon="11.981514861780544"><ele>256.0</ele><time>2026-04-26T07:00:02Z</time></trkpt><trkpt lat="43.25583042281757" lon="11.98144328841497"><ele>255.75</ele><time>2026-04-26T07:00:03Z</time></trkpt><trkpt lat="43.255940955399915" lon="11.981371904262469"><ele>255.5</ele><time>2026-04-26T07:00:04Z</time></trkpt><trkpt lat="43.256060625682586" lon="11.98132781663227"><ele>255.25</ele><time>2026-04-26T07:00:05Z</time></trkpt><trkpt lat="43.25617129152083" lon="11.981256258604443"><ele>255.0</ele><time>2026-04-26T07:00:06Z</time></trkpt><trkpt lat="43.256282026322246" lon="11.981184245058868"><ele>255.0</ele><time>2026-04-26T07:00:07Z</time></trkpt><trkpt lat="43.25639188663228" lon="11.98111284750937"><ele>255.0</ele><time>2026-04-26T07:00:08Z</time></trkpt><trkpt lat="43.256501834157824" lon="11.981041212465907"><ele>255.0</ele><time>2026-04-26T07:00:09Z</time></trkpt><trkpt lat="43.25660898729029" lon="11.980971298412259"><ele>255.0</ele><time>2026-04-26T07:00:10Z</time></trkpt><trkpt lat="43.256707828222346" lon="11.980906807817208"><ele>255.2</ele><time>2026-04-26T07:00:11Z</time></trkpt><trkpt lat="43.25679901789495" lon="11.98084730941947"><ele>255.4</ele><time>2026-04-26T07:00:12Z</time></trkpt><trkpt lat="43.25688362526757" lon="11.980792915287998"><ele>255.60000000000002</ele><time>2026-04-26T07:00:13Z</time></trkpt><trkpt lat="43.25694415451168" lon="11.98075468956255"><ele>255.8</ele><time>2026-04-26T07:00:14Z</time></trkpt><trkpt lat="43.25705596559089" lon="11.980688133827888"><ele>256.0</ele><time>2026-04-26T07:00:16Z</time></trkpt><trkpt lat="43.25714766181687" lon="11.980637524067411"><ele>255.99999999999997</ele><time>2026-04-26T07:00:18Z</time></trkpt><trkpt lat="43.257240548858995" lon="11.980551466096626"><ele>256.0</ele><time>2026-04-26T07:00:27Z</time></trkpt><trkpt lat="43.257320702665766" lon="11.98054195759029"><ele>256.0</ele><time>2026-04-26T07:00:28Z</time></trkpt><trkpt lat="43.25740349894491" lon="11.980568828498177"><ele>256.0</ele><time>2026-04-26T07:00:29Z</time></trkpt><trkpt lat="43.25747576926751" lon="11.98054893485714"><ele>255.99999999999997</ele><time>2026-04-26T07:00:30Z</time></trkpt><trkpt lat="43.25753019054173" lon="11.980488047718055"><ele>256.0</ele><time>2026-04-26T07:00:31Z</time></trkpt><trkpt lat="43.25757951159978" lon="11.980397107025473"><ele>256.3333333333333</ele><time>2026-04-26T07:00:32Z</time></trkpt><trkpt lat="43.25762975706574" lon="11.980317443278272"><ele>256.66666666666663</ele><time>2026-04-26T07:00:33Z</time></trkpt><trkpt lat="43.25770082446784" lon="11.980250226371044"><ele>257.0</ele><time>2026-04-26T07:00:34Z</time></trkpt><trkpt lat="43.25778277350499" lon="11.980217078001909"><ele>257.3333333333333</ele><time>2026-04-26T07:00:35Z</time></trkpt><trkpt lat="43.25784908168155" lon="11.980142943225824"><ele>257.6666666666667</ele><time>2026-04-26T07:00:36Z</time></trkpt><trkpt lat="43.25792912124656" lon="11.980092269225953"><ele>258.0</ele><time>2026-04-26T07:00:37Z</time></trkpt><trkpt lat="43.25801201704373" lon="11.98003635638234"><ele>258.0</ele><time>2026-04-26T07:00:38Z</time></trkpt><trkpt lat="43.25810321689531" lon="11.979979488390349"><ele>258.0</ele><time>2026-04-26T07:00:39Z</time></trkpt><trkpt lat="43.258196045166486" lon="11.979920954339255"><ele>258.0</ele><time>2026-04-26T07:00:40Z</time></trkpt><trkpt lat="43.25828998169211" lon="11.979859800946478"><ele>258.0</ele><time>2026-04-26T07:00:41Z</time></trkpt><trkpt lat="43.258379640012485" lon="11.979799201662304"><ele>258.0</ele><time>2026-04-26T07:00:42Z</time></trkpt><trkpt lat="43.25847408683461" lon="11.979742027212845"><ele>258.0</ele><time>2026-04-26T07:00:43Z</time></trkpt><trkpt lat="43.25857313991865" lon="11.979678638796003"><ele>258.0</ele><time>2026-04-26T07:00:44Z</time></trkpt><trkpt lat="43.25867201827018" lon="11.979615291722356"><ele>258.0</ele><time>2026-04-26T07:00:45Z</time></trkpt><trkpt lat="43.258778146249" lon="11.979543546380967"><ele>258.0</ele><time>2026-04-26T07:00:46Z</time></trkpt><trkpt lat="43.25888605323609" lon="11.979469144147526"><ele>258.0</ele><time>2026-04-26T07:00:47Z</time></trkpt><trkpt lat="43.25898945490106" lon="11.979399765892751"><ele>258.0</ele><time>2026-04-26T07:00:48Z</time></trkpt><trkpt lat="43.2590820276773" lon="11.97933454237077"><ele>258.0</ele><time>2026-04-26T07:00:49Z</time></trkpt><trkpt lat="43.25916343546093" lon="11.97925853487957"><ele>258.0</ele><time>2026-04-26T07:00:50Z</time></trkpt><trkpt lat="43.25923618289953" lon="11.979187279330347"><ele>258.0</ele><time>2026-04-26T07:00:51Z</time></trkpt><trkpt lat="43.25929413878121" lon="11.97912724350175"><ele>258.0</ele><time>2026-04-26T07:00:52Z</time></trkpt><trkpt lat="43.25938269054276" lon="11.979035318707565"><ele>258.0</ele><time>2026-04-26T07:00:54Z</time></trkpt><trkpt lat="43.25947852213343" lon="11.978955475971084"><ele>258.0</ele><time>2026-04-26T07:00:56Z</time></trkpt><trkpt lat="43.259606264827504" lon="11.978920234020055"><ele>258.0</ele><time>2026-04-26T07:00:58Z</time></trkpt><trkpt lat="43.259674569176" lon="11.978879795573318"><ele>258.0</ele><time>2026-04-26T07:00:59Z</time></trkpt><trkpt lat="43.25973060540699" lon="11.978835354897235"><ele>258.0</ele><time>2026-04-26T07:01:00Z</time></trkpt><trkpt lat="43.25972259065235" lon="11.978701607597383"><ele>258.0</ele><time>2026-04-26T07:01:01Z</time></trkpt><trkpt lat="43.25970452333575" lon="11.978600093554425"><ele>258.0</ele><time>2026-04-26T07:01:02Z</time></trkpt><trkpt lat="43.259600112606286" lon="11.978529754723107"><ele>258.0</ele><time>2026-04-26T07:01:03Z</time></trkpt><trkpt lat="43.259484011707265" lon="11.97843291148351"><ele>258.0</ele><time>2026-04-26T07:01:04Z</time></trkpt><trkpt lat="43.25938812248933" lon="11.978284151680691"><ele>258.0</ele><time>2026-04-26T07:01:05Z</time></trkpt><trkpt lat="43.25930028421083" lon="11.978105737507482"><ele>258.0</ele><time>2026-04-26T07:01:06Z</time></trkpt><trkpt lat="43.25921754521561" lon="11.977940887173895"><ele>258.0</ele><time>2026-04-26T07:01:07Z</time></trkpt><trkpt lat="43.25914146188769" lon="11.977790435599697"><ele>258.0</ele><time>2026-04-26T07:01:08Z</time></trkpt><trkpt lat="43.25907162606739" lon="11.977633353858671"><ele>258.0</ele><time>2026-04-26T07:01:09Z</time></trkpt><trkpt lat="43.25900841587078" lon="11.977470178583216"><ele>258.0</ele><time>2026-04-26T07:01:10Z</time></trkpt><trkpt lat="43.258943125995096" lon="11.977307982930444"><ele>258.0</ele><time>2026-04-26T07:01:11Z</time></trkpt><trkpt lat="43.258890088938145" lon="11.9771354876371"><ele>258.0</ele><time>2026-04-26T07:01:12Z</time></trkpt><trkpt lat="43.25881253170469" lon="11.976979833553527"><ele>258.0</ele><time>2026-04-26T07:01:13Z</time></trkpt><trkpt lat="43.25874997369271" lon="11.976815003418745"><ele>258.0</ele><time>2026-04-26T07:01:14Z</time></trkpt><trkpt lat="43.2586899752677" lon="11.976651239882443"><ele>258.0</ele><time>2026-04-26T07:01:15Z</time></trkpt><trkpt lat="43.2586312870887" lon="11.976485868271194"><ele>258.0</ele><time>2026-04-26T07:01:16Z</time></trkpt><trkpt lat="43.25857595591421" lon="11.976340840930792"><ele>258.0</ele><time>2026-04-26T07:01:17Z</time></trkpt><trkpt lat="43.258517374188905" lon="11.976188268237573"><ele>258.0</ele><time>2026-04-26T07:01:18Z</time></trkpt><trkpt lat="43.25843569862277" lon="11.976059880186519"><ele>258.0</ele><time>2026-04-26T07:01:19Z</time></trkpt><trkpt lat="43.258350868643326" lon="11.975974171207424"><ele>258.0</ele><time>2026-04-26T07:01:20Z</time></trkpt><trkpt lat="43.25827426317578" lon="11.975906763864977"><ele>258.0</ele><time>2026-04-26T07:01:21Z</time></trkpt><trkpt lat="43.25823090542017" lon="11.975824972711155"><ele>257.75</ele><time>2026-04-26T07:01:22Z</time></trkpt><trkpt lat="43.25825565681827" lon="11.975709113169328"><ele>257.5</ele><time>2026-04-26T07:01:23Z</time></trkpt><trkpt lat="43.25829097227896" lon="11.975554545283664"><ele>257.25</ele><time>2026-04-26T07:01:24Z</time></trkpt><trkpt lat="43.25834009617612" lon="11.975355597542585"><ele>257.0</ele><time>2026-04-26T07:01:25Z</time></trkpt><trkpt lat="43.25838013967449" lon="11.975139048941182"><ele>256.33333333333337</ele><time>2026-04-26T07:01:26Z</time></trkpt><trkpt lat="43.25843359957547" lon="11.974923292607244"><ele>255.66666666666669</ele><time>2026-04-26T07:01:27Z</time></trkpt><trkpt lat="43.25848190892015" lon="11.974723140324523"><ele>255.0</ele><time>2026-04-26T07:01:28Z</time></trkpt><trkpt lat="43.25853289531331" lon="11.974522920887514"><ele>255.0</ele><time>2026-04-26T07:01:29Z</time></trkpt><trkpt lat="43.25859497199723" lon="11.974344878241869"><ele>255.0</ele><time>2026-04-26T07:01:30Z</time></trkpt><trkpt lat="43.25867155427618" lon="11.974188307581707"><ele>255.0</ele><time>2026-04-26T07:01:31Z</time></trkpt><trkpt lat="43.25876558175422" lon="11.97406095337929"><ele>255.0</ele><time>2026-04-26T07:01:32Z</time></trkpt><trkpt lat="43.2588598371074" lon="11.973957483990018"><ele>255.0</ele><time>2026-04-26T07:01:33Z</time></trkpt><trkpt lat="43.258958366086695" lon="11.973897552104992"><ele>255.0</ele><time>2026-04-26T07:01:34Z</time></trkpt><trkpt lat="43.25903232466395" lon="11.973801618333718"><ele>255.0</ele><time>2026-04-26T07:01:35Z</time></trkpt><trkpt lat="43.25910731693173" lon="11.973720318854815"><ele>255.0</ele><time>2026-04-26T07:01:36Z</time></trkpt><trkpt lat="43.259167774877334" lon="11.97364445386444"><ele>255.0</ele><time>2026-04-26T07:01:37Z</time></trkpt><trkpt lat="43.25922554286115" lon="11.973603850409805"><ele>255.0</ele><time>2026-04-26T07:01:38Z</time></trkpt><trkpt lat="43.25926654352441" lon="11.973537142632182"><ele>255.0</ele><time>2026-04-26T07:01:39Z</time></trkpt><trkpt lat="43.25938443599698" lon="11.973518204424987"><ele>255.0</ele><time>2026-04-26T07:01:41Z</time></trkpt><trkpt lat="43.25947260352446" lon="11.973525232192479"><ele>255.0</ele><time>2026-04-26T07:01:42Z</time></trkpt><trkpt lat="43.25958479199545" lon="11.9735299383226"><ele>255.0</ele><time>2026-04-26T07:01:43Z</time></trkpt><trkpt lat="43.25973290831549" lon="11.973549045375176"><ele>256.0</ele><time>2026-04-26T07:01:44Z</time></trkpt><trkpt lat="43.2598759869628" lon="11.973585141316457"><ele>257.0</ele><time>2026-04-26T07:01:45Z</time></trkpt><trkpt lat="43.26002440378895" lon="11.973612702170058"><ele>258.0</ele><time>2026-04-26T07:01:46Z</time></trkpt><trkpt lat="43.26016539438051" lon="11.973654843821825"><ele>259.0</ele><time>2026-04-26T07:01:47Z</time></trkpt><trkpt lat="43.26030281310729" lon="11.973723348264523"><ele>259.0</ele><time>2026-04-26T07:01:48Z</time></trkpt><trkpt lat="43.260437978692266" lon="11.973788045432451"><ele>259.0</ele><time>2026-04-26T07:01:49Z</time></trkpt><trkpt lat="43.260566778514495" lon="11.973858714026605"><ele>259.0</ele><time>2026-04-26T07:01:50Z</time></trkpt><trkpt lat="43.26069331912207" lon="11.973928641183386"><ele>259.0</ele><time>2026-04-26T07:01:51Z</time></trkpt><trkpt lat="43.26081565497018" lon="11.974001218005993"><ele>260.0</ele><time>2026-04-26T07:01:52Z</time></trkpt><trkpt lat="43.26094188622984" lon="11.974077826708548"><ele>261.0</ele><time>2026-04-26T07:01:53Z</time></trkpt><trkpt lat="43.26107280753734" lon="11.974161771175954"><ele>262.0</ele><time>2026-04-26T07:01:54Z</time></trkpt><trkpt lat="43.261193052889226" lon="11.974233599285173"><ele>263.0</ele><time>2026-04-26T07:01:55Z</time></trkpt><trkpt lat="43.261287194345705" lon="11.974290071532552"><ele>263.6</ele><time>2026-04-26T07:01:56Z</time></trkpt><trkpt lat="43.26134975308344" lon="11.97432072518697"><ele>264.20000000000005</ele><time>2026-04-26T07:01:57Z</time></trkpt><trkpt lat="43.261413709080756" lon="11.974318158271906"><ele>264.8</ele><time>2026-04-26T07:02:00Z</time></trkpt><trkpt lat="43.26147281153156" lon="11.974267401984376"><ele>265.40000000000003</ele><time>2026-04-26T07:02:01Z</time></trkpt><trkpt lat="43.26155799380119" lon="11.974118197796015"><ele>266.0</ele><time>2026-04-26T07:02:02Z</time></trkpt><trkpt lat="43.26167860008465" lon="11.974027994262599"><ele>266.25</ele><time>2026-04-26T07:02:03Z</time></trkpt><trkpt lat="43.26179890285574" lon="11.973926277429237"><ele>266.5</ele><time>2026-04-26T07:02:04Z</time></trkpt><trkpt lat="43.26189367942824" lon="11.973836866484884"><ele>266.75</ele><time>2026-04-26T07:02:05Z</time></trkpt><trkpt lat="43.261966859559365" lon="11.973763405337762"><ele>267.0</ele><time>2026-04-26T07:02:06Z</time></trkpt><trkpt lat="43.26205963598613" lon="11.97367020539431"><ele>267.0</ele><time>2026-04-26T07:02:08Z</time></trkpt><trkpt lat="43.26212290204537" lon="11.973592137501166"><ele>267.0</ele><time>2026-04-26T07:02:11Z</time></trkpt><trkpt lat="43.26220591593491" lon="11.973495778840775"><ele>267.0</ele><time>2026-04-26T07:02:13Z</time></trkpt><trkpt lat="43.26226019962596" lon="11.973429843734223"><ele>267.0</ele><time>2026-04-26T07:02:14Z</time></trkpt><trkpt lat="43.26232558185322" lon="11.973372899931183"><ele>267.0</ele><time>2026-04-26T07:02:15Z</time></trkpt><trkpt lat="43.26237682952493" lon="11.973319577093923"><ele>267.0</ele><time>2026-04-26T07:02:16Z</time></trkpt><trkpt lat="43.26241201409174" lon="11.973208410479527"><ele>266.6666666666667</ele><time>2026-04-26T07:02:18Z</time></trkpt><trkpt lat="43.26233538387515" lon="11.973102067315525"><ele>266.3333333333333</ele><time>2026-04-26T07:02:19Z</time></trkpt><trkpt lat="43.26228051328841" lon="11.972984749465393"><ele>266.0</ele><time>2026-04-26T07:02:22Z</time></trkpt><trkpt lat="43.26224614369596" lon="11.972911264679775"><ele>265.66666666666663</ele><time>2026-04-26T07:02:24Z</time></trkpt><trkpt lat="43.262295081815694" lon="11.973017972619674"><ele>265.3333333333333</ele><time>2026-04-26T07:03:04Z</time></trkpt><trkpt lat="43.26233475981259" lon="11.973100733006548"><ele>265.0</ele><time>2026-04-26T07:03:12Z</time></trkpt><trkpt lat="43.26234137369365" lon="11.97319665659593"><ele>264.99999999999994</ele><time>2026-04-26T07:03:17Z</time></trkpt><trkpt lat="43.26233575187946" lon="11.97329588243741"><ele>265.0</ele><time>2026-04-26T07:03:22Z</time></trkpt><trkpt lat="43.26227852543799" lon="11.973333708844523"><ele>265.0</ele><time>2026-04-26T07:03:27Z</time></trkpt><trkpt lat="43.26223917398162" lon="11.973408324840662"><ele>265.0</ele><time>2026-04-26T07:03:33Z</time></trkpt><trkpt lat="43.26216953324334" lon="11.973454889091855"><ele>265.0</ele><time>2026-04-26T07:03:38Z</time></trkpt><trkpt lat="43.26210969672558" lon="11.973497721581927"><ele>264.99999999999994</ele><time>2026-04-26T07:03:43Z</time></trkpt><trkpt lat="43.26206728656969" lon="11.973571131542132"><ele>265.0</ele><time>2026-04-26T07:03:49Z</time></trkpt><trkpt lat="43.26200013312733" lon="11.973574785227559"><ele>266.0</ele><time>2026-04-26T07:03:56Z</time></trkpt><trkpt lat="43.2622677265783" lon="11.973650529947854"><ele>267.0</ele><time>2026-04-26T07:04:19Z</time></trkpt><trkpt lat="43.262073561111436" lon="11.973701368807324"><ele>267.0</ele><time>2026-04-26T07:04:49.999Z</time></trkpt><trkpt lat="43.26210647629472" lon="11.973962305799374"><ele>267.0</ele><time>2026-04-26T07:04:50.999Z</time></trkpt><trkpt lat="43.26215104276074" lon="11.973886808955374"><ele>267.0</ele><time>2026-04-26T07:04:58Z</time></trkpt><trkpt lat="43.262198905174984" lon="11.973828471691572"><ele>267.0</ele><time>2026-04-26T07:05:03Z</time></trkpt><trkpt lat="43.26215585711392" lon="11.973717941896972"><ele>267.0</ele><time>2026-04-26T07:23:13Z</time></trkpt><trkpt lat="43.26211730232147" lon="11.973791968704024"><ele>267.0</ele><time>2026-04-26T07:26:36Z</time></trkpt><trkpt lat="43.26211247408313" lon="11.97388614651847"><ele>267.0</ele><time>2026-04-26T07:26:40Z</time></trkpt><trkpt lat="43.26208384702103" lon="11.974004467915595"><ele>267.0</ele><time>2026-04-26T07:26:43Z</time></trkpt><trkpt lat="43.262093476706546" lon="11.973910036589668"><ele>267.0</ele><time>2026-04-26T07:26:48Z</time></trkpt><trkpt lat="43.26211102003592" lon="11.973800116273068"><ele>267.0</ele><time>2026-04-26T07:26:56Z</time></trkpt><trkpt lat="43.26213054576709" lon="11.973716493934548"><ele>267.0</ele><time>2026-04-26T07:27:00Z</time></trkpt><trkpt lat="43.26218905403742" lon="11.973544712134098"><ele>267.0</ele><time>2026-04-26T07:27:04Z</time></trkpt><trkpt lat="43.26219282448415" lon="11.973438343312464"><ele>267.0</ele><time>2026-04-26T07:27:05Z</time></trkpt><trkpt lat="43.26219340304583" lon="11.973349354631031"><ele>267.0</ele><time>2026-04-26T07:27:06Z</time></trkpt><trkpt lat="43.262139574680354" lon="11.97355726442626"><ele>267.0</ele><time>2026-04-26T07:27:15Z</time></trkpt><trkpt lat="43.262128800075054" lon="11.97365018261288"><ele>267.0</ele><time>2026-04-26T07:27:17Z</time></trkpt><trkpt lat="43.26211980561271" lon="11.973755101147221"><ele>267.0</ele><time>2026-04-26T07:27:24Z</time></trkpt><trkpt lat="43.26209238548555" lon="11.974021306376333"><ele>267.0</ele><time>2026-04-26T07:29:26Z</time></trkpt><trkpt lat="43.26211627471594" lon="11.974206327311048"><ele>267.0</ele><time>2026-04-26T07:29:36Z</time></trkpt><trkpt lat="43.262100928464726" lon="11.974029902262963"><ele>267.0</ele><time>2026-04-26T07:29:42Z</time></trkpt><trkpt lat="43.26210639087845" lon="11.97393655044207"><ele>267.0</ele><time>2026-04-26T07:29:43Z</time></trkpt><trkpt lat="43.262110813506915" lon="11.973842354198448"><ele>267.0</ele><time>2026-04-26T07:29:48Z</time></trkpt><trkpt lat="43.262042874956734" lon="11.973778790034155"><ele>267.0</ele><time>2026-04-26T07:30:22Z</time></trkpt><trkpt lat="43.26202005340337" lon="11.973649100864623"><ele>267.0</ele><time>2026-04-26T07:30:26Z</time></trkpt><trkpt lat="43.26197055313219" lon="11.973540377916903"><ele>267.0</ele><time>2026-04-26T07:30:27Z</time></trkpt><trkpt lat="43.26200864470626" lon="11.973465543621447"><ele>267.0</ele><time>2026-04-26T07:30:38Z</time></trkpt><trkpt lat="43.262082031167694" lon="11.973477521369588"><ele>267.0</ele><time>2026-04-26T07:30:45Z</time></trkpt><trkpt lat="43.2621791144464" lon="11.97342629620336"><ele>267.0</ele><time>2026-04-26T07:30:55Z</time></trkpt><trkpt lat="43.26224566233495" lon="11.973381562439071"><ele>266.7142857142857</ele><time>2026-04-26T07:30:59Z</time></trkpt><trkpt lat="43.26230343151167" lon="11.973316114168478"><ele>266.42857142857144</ele><time>2026-04-26T07:31:03Z</time></trkpt><trkpt lat="43.26233358022524" lon="11.973231054545774"><ele>266.1428571428571</ele><time>2026-04-26T07:31:08Z</time></trkpt><trkpt lat="43.262289364946184" lon="11.973163940708488"><ele>265.8571428571429</ele><time>2026-04-26T07:31:12Z</time></trkpt><trkpt lat="43.26229399226811" lon="11.97307389989967"><ele>265.57142857142856</ele><time>2026-04-26T07:31:18Z</time></trkpt><trkpt lat="43.262278716110686" lon="11.972987500893426"><ele>265.2857142857143</ele><time>2026-04-26T07:31:22Z</time></trkpt><trkpt lat="43.26225940937074" lon="11.972902933498197"><ele>265.0</ele><time>2026-04-26T07:31:28Z</time></trkpt><trkpt lat="43.262214604558885" lon="11.972829964362703"><ele>265.0</ele><time>2026-04-26T07:32:10Z</time></trkpt><trkpt lat="43.26222609725071" lon="11.972966849181148"><ele>265.0</ele><time>2026-04-26T07:32:20Z</time></trkpt><trkpt lat="43.26227868799416" lon="11.973039922081087"><ele>265.0</ele><time>2026-04-26T07:32:21Z</time></trkpt><trkpt lat="43.26235669316808" lon="11.973035468307344"><ele>265.0</ele><time>2026-04-26T07:32:23Z</time></trkpt><trkpt lat="43.26241259777823" lon="11.972985075362864"><ele>265.0</ele><time>2026-04-26T07:32:24Z</time></trkpt><trkpt lat="43.26246115818332" lon="11.972898730960612"><ele>265.0</ele><time>2026-04-26T07:32:25Z</time></trkpt><trkpt lat="43.26252666914272" lon="11.972781368337854"><ele>265.0</ele><time>2026-04-26T07:32:27Z</time></trkpt><trkpt lat="43.26254743557473" lon="11.972696770681676"><ele>265.0</ele><time>2026-04-26T07:32:29Z</time></trkpt><trkpt lat="43.26256976822959" lon="11.972586121816846"><ele>265.0</ele><time>2026-04-26T07:32:30Z</time></trkpt><trkpt lat="43.262674773871844" lon="11.972608906375443"><ele>265.0</ele><time>2026-04-26T07:32:31Z</time></trkpt><trkpt lat="43.26273491784332" lon="11.972536621974646"><ele>265.0</ele><time>2026-04-26T07:32:33Z</time></trkpt><trkpt lat="43.2627945202184" lon="11.972500389294368"><ele>265.0</ele><time>2026-04-26T07:32:35Z</time></trkpt><trkpt lat="43.26288067311717" lon="11.97253543510769"><ele>265.0</ele><time>2026-04-26T07:32:37Z</time></trkpt><trkpt lat="43.26294869630091" lon="11.97262205036611"><ele>265.0</ele><time>2026-04-26T07:32:39Z</time></trkpt><trkpt lat="43.26300324677537" lon="11.972691533090261"><ele>265.0</ele><time>2026-04-26T07:32:40Z</time></trkpt><trkpt lat="43.26312141005371" lon="11.972837699249938"><ele>265.0</ele><time>2026-04-26T07:32:42Z</time></trkpt><trkpt lat="43.26319243845816" lon="11.972919687468337"><ele>265.0</ele><time>2026-04-26T07:32:43Z</time></trkpt><trkpt lat="43.26325724474541" lon="11.97299279256917"><ele>265.0</ele><time>2026-04-26T07:32:44Z</time></trkpt><trkpt lat="43.263324812685774" lon="11.973063620329167"><ele>265.0</ele><time>2026-04-26T07:32:45Z</time></trkpt><trkpt lat="43.26338457958219" lon="11.973125941552894"><ele>265.0</ele><time>2026-04-26T07:32:46Z</time></trkpt><trkpt lat="43.26346639803796" lon="11.973206078083193"><ele>265.0</ele><time>2026-04-26T07:32:47Z</time></trkpt><trkpt lat="43.26352331072263" lon="11.973260287373007"><ele>265.0</ele><time>2026-04-26T07:32:48Z</time></trkpt><trkpt lat="43.26361093534274" lon="11.973345194333492"><ele>265.0</ele><time>2026-04-26T07:32:49Z</time></trkpt><trkpt lat="43.263706243029326" lon="11.973433345787637"><ele>265.2</ele><time>2026-04-26T07:32:50Z</time></trkpt><trkpt lat="43.26377484276078" lon="11.973497552529297"><ele>265.4</ele><time>2026-04-26T07:32:51Z</time></trkpt><trkpt lat="43.26385403682855" lon="11.973575231536"><ele>265.6</ele><time>2026-04-26T07:32:52Z</time></trkpt><trkpt lat="43.26392859054424" lon="11.973655356732301"><ele>265.8</ele><time>2026-04-26T07:32:53Z</time></trkpt><trkpt lat="43.263992272146396" lon="11.973729316941743"><ele>266.0</ele><time>2026-04-26T07:32:54Z</time></trkpt><trkpt lat="43.26406986459748" lon="11.973821842301774"><ele>266.0</ele><time>2026-04-26T07:32:55Z</time></trkpt><trkpt lat="43.264157116832564" lon="11.973899564554582"><ele>266.0</ele><time>2026-04-26T07:32:56Z</time></trkpt><trkpt lat="43.26422740816005" lon="11.974012865534286"><ele>266.0</ele><time>2026-04-26T07:32:57Z</time></trkpt><trkpt lat="43.26430310743055" lon="11.974106069059669"><ele>266.0</ele><time>2026-04-26T07:32:58Z</time></trkpt><trkpt lat="43.26438193174524" lon="11.97420423452514"><ele>266.0</ele><time>2026-04-26T07:32:59Z</time></trkpt><trkpt lat="43.26445830930859" lon="11.974299352882923"><ele>266.6666666666667</ele><time>2026-04-26T07:33:00Z</time></trkpt><trkpt lat="43.264528583848225" lon="11.974386870714193"><ele>267.33333333333337</ele><time>2026-04-26T07:33:01Z</time></trkpt><trkpt lat="43.26460178733743" lon="11.974478036135192"><ele>268.0</ele><time>2026-04-26T07:33:02Z</time></trkpt><trkpt lat="43.264674927256046" lon="11.974542293233092"><ele>268.6666666666667</ele><time>2026-04-26T07:33:03Z</time></trkpt><trkpt lat="43.26472272701554" lon="11.97460797076027"><ele>269.3333333333333</ele><time>2026-04-26T07:33:04Z</time></trkpt><trkpt lat="43.264780499907175" lon="11.97467728884788"><ele>270.0</ele><time>2026-04-26T07:33:05Z</time></trkpt><trkpt lat="43.264874397483055" lon="11.974691620196145"><ele>270.0</ele><time>2026-04-26T07:33:06Z</time></trkpt><trkpt lat="43.264942820732294" lon="11.97469113077258"><ele>270.0</ele><time>2026-04-26T07:33:07Z</time></trkpt><trkpt lat="43.26504107230312" lon="11.974688829072859"><ele>270.0</ele><time>2026-04-26T07:33:09Z</time></trkpt><trkpt lat="43.26512762499544" lon="11.974672705410907"><ele>270.0</ele><time>2026-04-26T07:33:11Z</time></trkpt><trkpt lat="43.265129471702146" lon="11.974772930066006"><ele>270.0</ele><time>2026-04-26T07:33:13Z</time></trkpt><trkpt lat="43.265132418453376" lon="11.974860135148326"><ele>270.0</ele><time>2026-04-26T07:33:29Z</time></trkpt><trkpt lat="43.26522850942829" lon="11.974932241563284"><ele>270.0</ele><time>2026-04-26T07:33:31Z</time></trkpt><trkpt lat="43.265317839345094" lon="11.974922383150558"><ele>270.0</ele><time>2026-04-26T07:33:32Z</time></trkpt><trkpt lat="43.26542761770788" lon="11.974907107670468"><ele>270.0</ele><time>2026-04-26T07:33:33Z</time></trkpt><trkpt lat="43.26553618736432" lon="11.974902361144668"><ele>270.0</ele><time>2026-04-26T07:33:34Z</time></trkpt><trkpt lat="43.26564771107376" lon="11.974897525944455"><ele>270.0</ele><time>2026-04-26T07:33:35Z</time></trkpt><trkpt lat="43.26576771228036" lon="11.974888059272404"><ele>269.75</ele><time>2026-04-26T07:33:36Z</time></trkpt><trkpt lat="43.26588262849161" lon="11.974867493616488"><ele>269.5</ele><time>2026-04-26T07:33:37Z</time></trkpt><trkpt lat="43.265998291285555" lon="11.974868145133225"><ele>269.25</ele><time>2026-04-26T07:33:38Z</time></trkpt><trkpt lat="43.26610861775665" lon="11.974860975632689"><ele>269.0</ele><time>2026-04-26T07:33:39Z</time></trkpt><trkpt lat="43.26622617431331" lon="11.974853479333893"><ele>269.0</ele><time>2026-04-26T07:33:40Z</time></trkpt><trkpt lat="43.266339176546815" lon="11.97484723642715"><ele>269.0</ele><time>2026-04-26T07:33:41Z</time></trkpt><trkpt lat="43.266452805056964" lon="11.974838118697475"><ele>269.0</ele><time>2026-04-26T07:33:42Z</time></trkpt><trkpt lat="43.266570473816614" lon="11.974830346173958"><ele>269.0</ele><time>2026-04-26T07:33:43Z</time></trkpt><trkpt lat="43.266696663765856" lon="11.97481842166429"><ele>269.0</ele><time>2026-04-26T07:33:44Z</time></trkpt><trkpt lat="43.26681980221108" lon="11.974796041072283"><ele>269.0</ele><time>2026-04-26T07:33:45Z</time></trkpt><trkpt lat="43.26694080046987" lon="11.974808917849918"><ele>269.0</ele><time>2026-04-26T07:33:46Z</time></trkpt><trkpt lat="43.26705947263728" lon="11.974803557247304"><ele>269.0</ele><time>2026-04-26T07:33:47Z</time></trkpt><trkpt lat="43.26717460142224" lon="11.974790904097901"><ele>269.0</ele><time>2026-04-26T07:33:48Z</time></trkpt><trkpt lat="43.26728824286885" lon="11.974805114565493"><ele>269.0</ele><time>2026-04-26T07:33:49Z</time></trkpt><trkpt lat="43.26739468926147" lon="11.97479846511373"><ele>269.0</ele><time>2026-04-26T07:33:50Z</time></trkpt><trkpt lat="43.26749181638697" lon="11.97477021978558"><ele>269.0</ele><time>2026-04-26T07:33:51Z</time></trkpt><trkpt lat="43.267585141456955" lon="11.974762979551691"><ele>269.0</ele><time>2026-04-26T07:33:52Z</time></trkpt><trkpt lat="43.26767499528974" lon="11.974748366586727"><ele>269.0</ele><time>2026-04-26T07:33:53Z</time></trkpt><trkpt lat="43.267763632477106" lon="11.974724225571935"><ele>269.0</ele><time>2026-04-26T07:33:54Z</time></trkpt><trkpt lat="43.26785334462367" lon="11.974702197423456"><ele>269.0</ele><time>2026-04-26T07:33:55Z</time></trkpt><trkpt lat="43.267940625760446" lon="11.974696732042087"><ele>269.0</ele><time>2026-04-26T07:33:56Z</time></trkpt><trkpt lat="43.268032722187925" lon="11.97469719510795"><ele>269.0</ele><time>2026-04-26T07:33:57Z</time></trkpt><trkpt lat="43.2681233063093" lon="11.97469805747175"><ele>269.8</ele><time>2026-04-26T07:33:58Z</time></trkpt><trkpt lat="43.268201077103384" lon="11.974675956641743"><ele>270.59999999999997</ele><time>2026-04-26T07:33:59Z</time></trkpt><trkpt lat="43.26829160006956" lon="11.974721731253403"><ele>271.4</ele><time>2026-04-26T07:34:00Z</time></trkpt><trkpt lat="43.26839607679821" lon="11.974737302204614"><ele>272.2</ele><time>2026-04-26T07:34:01Z</time></trkpt><trkpt lat="43.268522821332674" lon="11.974760900107853"><ele>273.0</ele><time>2026-04-26T07:34:02Z</time></trkpt><trkpt lat="43.268683060779516" lon="11.974723782966073"><ele>273.0</ele><time>2026-04-26T07:34:03Z</time></trkpt><trkpt lat="43.26887038357936" lon="11.97470369081487"><ele>273.0</ele><time>2026-04-26T07:34:04Z</time></trkpt><trkpt lat="43.26908823718205" lon="11.974668263617627"><ele>273.0</ele><time>2026-04-26T07:34:05Z</time></trkpt><trkpt lat="43.269320546280625" lon="11.974669683486072"><ele>275.3333333333333</ele><time>2026-04-26T07:34:06Z</time></trkpt><trkpt lat="43.26955513862748" lon="11.974654850609962"><ele>277.66666666666663</ele><time>2026-04-26T07:34:07Z</time></trkpt><trkpt lat="43.269767975224376" lon="11.974642545760277"><ele>280.0</ele><time>2026-04-26T07:34:08Z</time></trkpt><trkpt lat="43.269941967921916" lon="11.974633260714402"><ele>282.0</ele><time>2026-04-26T07:34:09Z</time></trkpt><trkpt lat="43.27010340140106" lon="11.974605777589865"><ele>284.0</ele><time>2026-04-26T07:34:10Z</time></trkpt><trkpt lat="43.27025279112578" lon="11.97456732894474"><ele>286.0</ele><time>2026-04-26T07:34:11Z</time></trkpt><trkpt lat="43.27039876187725" lon="11.974488043584582"><ele>286.0</ele><time>2026-04-26T07:34:12Z</time></trkpt><trkpt lat="43.27054242757447" lon="11.974404580860465"><ele>286.0</ele><time>2026-04-26T07:34:13Z</time></trkpt><trkpt lat="43.27067837694774" lon="11.97430853576943"><ele>286.0</ele><time>2026-04-26T07:34:14Z</time></trkpt><trkpt lat="43.270807262459215" lon="11.9742092332806"><ele>284.5</ele><time>2026-04-26T07:34:15Z</time></trkpt><trkpt lat="43.27092004355679" lon="11.974118459171256"><ele>283.0</ele><time>2026-04-26T07:34:16Z</time></trkpt><trkpt lat="43.27102862996723" lon="11.974017921822973"><ele>281.5</ele><time>2026-04-26T07:34:17Z</time></trkpt><trkpt lat="43.271130264688956" lon="11.973914502638827"><ele>280.0</ele><time>2026-04-26T07:34:18Z</time></trkpt><trkpt lat="43.27123324068565" lon="11.973804507446864"><ele>280.0</ele><time>2026-04-26T07:34:19Z</time></trkpt><trkpt lat="43.27131944629578" lon="11.973684953469874"><ele>280.0</ele><time>2026-04-26T07:34:20Z</time></trkpt><trkpt lat="43.27141604378993" lon="11.973594364394906"><ele>280.0</ele><time>2026-04-26T07:34:21Z</time></trkpt><trkpt lat="43.27149588245137" lon="11.973493673959357"><ele>280.0</ele><time>2026-04-26T07:34:22Z</time></trkpt><trkpt lat="43.271575944682084" lon="11.973402938839092"><ele>279.8</ele><time>2026-04-26T07:34:23Z</time></trkpt><trkpt lat="43.271662645762646" lon="11.973305947038297"><ele>279.6</ele><time>2026-04-26T07:34:24Z</time></trkpt><trkpt lat="43.27175078884151" lon="11.9732025394919"><ele>279.4</ele><time>2026-04-26T07:34:25Z</time></trkpt><trkpt lat="43.2718366037603" lon="11.973114308804915"><ele>279.2</ele><time>2026-04-26T07:34:26Z</time></trkpt><trkpt lat="43.2719236889745" lon="11.97302029557958"><ele>279.0</ele><time>2026-04-26T07:34:27Z</time></trkpt><trkpt lat="43.272013666586275" lon="11.972908164694005"><ele>279.0</ele><time>2026-04-26T07:34:28Z</time></trkpt><trkpt lat="43.272115167449826" lon="11.972790264123867"><ele>279.0</ele><time>2026-04-26T07:34:29Z</time></trkpt><trkpt lat="43.272223933001094" lon="11.972677148924205"><ele>279.0</ele><time>2026-04-26T07:34:30Z</time></trkpt><trkpt lat="43.27232955958535" lon="11.972554178391505"><ele>279.0</ele><time>2026-04-26T07:34:31Z</time></trkpt><trkpt lat="43.27244783309888" lon="11.97244153425582"><ele>278.5</ele><time>2026-04-26T07:34:32Z</time></trkpt><trkpt lat="43.27256996275249" lon="11.972325692645258"><ele>278.0</ele><time>2026-04-26T07:34:33Z</time></trkpt><trkpt lat="43.27269604149655" lon="11.972231788797929"><ele>277.5</ele><time>2026-04-26T07:34:34Z</time></trkpt><trkpt lat="43.272832693353834" lon="11.972152857590995"><ele>277.0</ele><time>2026-04-26T07:34:35Z</time></trkpt><trkpt lat="43.27298077825727" lon="11.972092150357998"><ele>278.3333333333333</ele><time>2026-04-26T07:34:36Z</time></trkpt><trkpt lat="43.27313603878921" lon="11.972041001371295"><ele>279.6666666666667</ele><time>2026-04-26T07:34:37Z</time></trkpt><trkpt lat="43.27329164483195" lon="11.97199629492162"><ele>281.0</ele><time>2026-04-26T07:34:38Z</time></trkpt><trkpt lat="43.27344740149817" lon="11.971948808219652"><ele>281.0</ele><time>2026-04-26T07:34:39Z</time></trkpt><trkpt lat="43.273604402743565" lon="11.971897050488982"><ele>281.0</ele><time>2026-04-26T07:34:40Z</time></trkpt><trkpt lat="43.273753869379625" lon="11.971850253118035"><ele>281.0</ele><time>2026-04-26T07:34:41Z</time></trkpt><trkpt lat="43.273905145611586" lon="11.97179634838053"><ele>280.33333333333337</ele><time>2026-04-26T07:34:42Z</time></trkpt><trkpt lat="43.27405597933653" lon="11.97173479876261"><ele>279.6666666666667</ele><time>2026-04-26T07:34:43Z</time></trkpt><trkpt lat="43.274201498655295" lon="11.971676324265381"><ele>279.0</ele><time>2026-04-26T07:34:44Z</time></trkpt><trkpt lat="43.274336011764134" lon="11.97160772259533"><ele>278.5</ele><time>2026-04-26T07:34:45Z</time></trkpt><trkpt lat="43.274474724643014" lon="11.971519264378308"><ele>278.0</ele><time>2026-04-26T07:34:46Z</time></trkpt><trkpt lat="43.27460837701691" lon="11.97143452149728"><ele>277.5</ele><time>2026-04-26T07:34:47Z</time></trkpt><trkpt lat="43.274735271230156" lon="11.971339348566865"><ele>277.0</ele><time>2026-04-26T07:34:48Z</time></trkpt><trkpt lat="43.27486005137071" lon="11.971252966638225"><ele>277.0</ele><time>2026-04-26T07:34:49Z</time></trkpt><trkpt lat="43.275005037479964" lon="11.971171129262856"><ele>277.0</ele><time>2026-04-26T07:34:50Z</time></trkpt><trkpt lat="43.27514858497752" lon="11.971102543278732"><ele>277.0</ele><time>2026-04-26T07:34:51Z</time></trkpt><trkpt lat="43.27529765997716" lon="11.971056103750573"><ele>277.0</ele><time>2026-04-26T07:34:52Z</time></trkpt><trkpt lat="43.275448635351175" lon="11.971026711673506"><ele>277.0</ele><time>2026-04-26T07:34:53Z</time></trkpt><trkpt lat="43.27560040183842" lon="11.97100999214104"><ele>277.0</ele><time>2026-04-26T07:34:54Z</time></trkpt><trkpt lat="43.27575121170635" lon="11.971000448145151"><ele>277.0</ele><time>2026-04-26T07:34:55Z</time></trkpt><trkpt lat="43.275906148579296" lon="11.970988790340677"><ele>277.0</ele><time>2026-04-26T07:34:56Z</time></trkpt><trkpt lat="43.27606039002172" lon="11.970979467284854"><ele>277.0</ele><time>2026-04-26T07:34:57Z</time></trkpt><trkpt lat="43.27621323713846" lon="11.970970209359045"><ele>277.0</ele><time>2026-04-26T07:34:58Z</time></trkpt><trkpt lat="43.27636079644393" lon="11.970956103439216"><ele>277.0</ele><time>2026-04-26T07:34:59Z</time></trkpt><trkpt lat="43.27651152783763" lon="11.9709477480723"><ele>277.0</ele><time>2026-04-26T07:35:00Z</time></trkpt><trkpt lat="43.27666050490584" lon="11.970936847242957"><ele>277.0</ele><time>2026-04-26T07:35:01Z</time></trkpt><trkpt lat="43.27681222097253" lon="11.970926588453692"><ele>275.66666666666663</ele><time>2026-04-26T07:35:02Z</time></trkpt><trkpt lat="43.27696688530027" lon="11.97091527925515"><ele>274.3333333333333</ele><time>2026-04-26T07:35:03Z</time></trkpt><trkpt lat="43.27711604848406" lon="11.970903072649193"><ele>273.0</ele><time>2026-04-26T07:35:04Z</time></trkpt><trkpt lat="43.27726888552756" lon="11.970893031071673"><ele>273.0</ele><time>2026-04-26T07:35:05Z</time></trkpt><trkpt lat="43.27742820504537" lon="11.970888783397537"><ele>273.0</ele><time>2026-04-26T07:35:06Z</time></trkpt><trkpt lat="43.277588065613635" lon="11.970883019291179"><ele>273.0</ele><time>2026-04-26T07:35:07Z</time></trkpt><trkpt lat="43.27774846002579" lon="11.970873197908348"><ele>273.0</ele><time>2026-04-26T07:35:08Z</time></trkpt><trkpt lat="43.27791308716038" lon="11.970863562273307"><ele>273.0</ele><time>2026-04-26T07:35:09Z</time></trkpt><trkpt lat="43.27807667375807" lon="11.97084210784066"><ele>273.0</ele><time>2026-04-26T07:35:10Z</time></trkpt><trkpt lat="43.27824466064623" lon="11.970818857895294"><ele>270.6666666666667</ele><time>2026-04-26T07:35:11Z</time></trkpt><trkpt lat="43.27841649012285" lon="11.97081645204752"><ele>268.33333333333337</ele><time>2026-04-26T07:35:12Z</time></trkpt><trkpt lat="43.278590240728235" lon="11.970803776046381"><ele>266.0</ele><time>2026-04-26T07:35:13Z</time></trkpt><trkpt lat="43.278767975488904" lon="11.970788861529353"><ele>266.6666666666667</ele><time>2026-04-26T07:35:14Z</time></trkpt><trkpt lat="43.2789478914759" lon="11.970776640329344"><ele>267.3333333333333</ele><time>2026-04-26T07:35:15Z</time></trkpt><trkpt lat="43.27912540152322" lon="11.970787747666641"><ele>268.0</ele><time>2026-04-26T07:35:16Z</time></trkpt><trkpt lat="43.27930807755756" lon="11.970776210973645"><ele>268.0</ele><time>2026-04-26T07:35:17Z</time></trkpt><trkpt lat="43.27949266724618" lon="11.970764553424155"><ele>268.0</ele><time>2026-04-26T07:35:18Z</time></trkpt><trkpt lat="43.27967616973379" lon="11.970752964535308"><ele>268.0</ele><time>2026-04-26T07:35:19Z</time></trkpt><trkpt lat="43.27986042023746" lon="11.970719981421533"><ele>267.66666666666663</ele><time>2026-04-26T07:35:20Z</time></trkpt><trkpt lat="43.280045476456436" lon="11.970714315614583"><ele>267.3333333333333</ele><time>2026-04-26T07:35:21Z</time></trkpt><trkpt lat="43.2802273557625" lon="11.970706053800416"><ele>267.0</ele><time>2026-04-26T07:35:22Z</time></trkpt><trkpt lat="43.28040724497887" lon="11.97069530830679"><ele>267.0</ele><time>2026-04-26T07:35:23Z</time></trkpt><trkpt lat="43.280588271030744" lon="11.970681286410786"><ele>267.0</ele><time>2026-04-26T07:35:24Z</time></trkpt><trkpt lat="43.28075356047211" lon="11.970670002421723"><ele>267.0</ele><time>2026-04-26T07:35:25Z</time></trkpt><trkpt lat="43.28091922753317" lon="11.970656770149471"><ele>266.75</ele><time>2026-04-26T07:35:26Z</time></trkpt><trkpt lat="43.28107427826908" lon="11.970643115960794"><ele>266.5</ele><time>2026-04-26T07:35:27Z</time></trkpt><trkpt lat="43.2812056791275" lon="11.970636320073243"><ele>266.25</ele><time>2026-04-26T07:35:28Z</time></trkpt><trkpt lat="43.28131053121496" lon="11.970604448378879"><ele>266.0</ele><time>2026-04-26T07:35:29Z</time></trkpt><trkpt lat="43.28139725236572" lon="11.970577314445716"><ele>266.1666666666667</ele><time>2026-04-26T07:35:30Z</time></trkpt><trkpt lat="43.281473638438946" lon="11.970560294181238"><ele>266.33333333333337</ele><time>2026-04-26T07:35:31Z</time></trkpt><trkpt lat="43.28154130855808" lon="11.970552790716312"><ele>266.5</ele><time>2026-04-26T07:35:32Z</time></trkpt><trkpt lat="43.281614731462774" lon="11.970573763325113"><ele>266.6666666666667</ele><time>2026-04-26T07:35:33Z</time></trkpt><trkpt lat="43.2816981046394" lon="11.970566890999052"><ele>266.8333333333333</ele><time>2026-04-26T07:35:34Z</time></trkpt><trkpt lat="43.28177885439222" lon="11.9705118335515"><ele>267.0</ele><time>2026-04-26T07:35:35Z</time></trkpt><trkpt lat="43.281843017292964" lon="11.970408809657231"><ele>267.0</ele><time>2026-04-26T07:35:36Z</time></trkpt><trkpt lat="43.28189067282739" lon="11.970286107368592"><ele>267.0</ele><time>2026-04-26T07:35:37Z</time></trkpt><trkpt lat="43.281963970282156" lon="11.970175510347705"><ele>267.0</ele><time>2026-04-26T07:35:38Z</time></trkpt><trkpt lat="43.28207541451395" lon="11.970099289926518"><ele>267.0</ele><time>2026-04-26T07:35:39Z</time></trkpt><trkpt lat="43.28218291714767" lon="11.97001626252393"><ele>267.0</ele><time>2026-04-26T07:35:40Z</time></trkpt><trkpt lat="43.28228295458393" lon="11.96992640026518"><ele>267.0</ele><time>2026-04-26T07:35:41Z</time></trkpt><trkpt lat="43.28238194082003" lon="11.96983627441221"><ele>267.0</ele><time>2026-04-26T07:35:42Z</time></trkpt><trkpt lat="43.28248995211769" lon="11.969734854910088"><ele>267.0</ele><time>2026-04-26T07:35:43Z</time></trkpt><trkpt lat="43.28259262833168" lon="11.96962755544918"><ele>267.0</ele><time>2026-04-26T07:35:44Z</time></trkpt><trkpt lat="43.28268552651221" lon="11.969509153582697"><ele>267.0</ele><time>2026-04-26T07:35:45Z</time></trkpt><trkpt lat="43.282771378573855" lon="11.969373967513173"><ele>267.0</ele><time>2026-04-26T07:35:46Z</time></trkpt><trkpt lat="43.282846030156044" lon="11.969219511695554"><ele>267.0</ele><time>2026-04-26T07:35:47Z</time></trkpt><trkpt lat="43.282909855567496" lon="11.969055547688162"><ele>267.0</ele><time>2026-04-26T07:35:48Z</time></trkpt><trkpt lat="43.282973634289185" lon="11.968881947551397"><ele>267.0</ele><time>2026-04-26T07:35:49Z</time></trkpt><trkpt lat="43.28303725175559" lon="11.968708117181855"><ele>267.0</ele><time>2026-04-26T07:35:50Z</time></trkpt><trkpt lat="43.28310392390608" lon="11.968530221515085"><ele>267.0</ele><time>2026-04-26T07:35:51Z</time></trkpt><trkpt lat="43.283173135649754" lon="11.96835440300481"><ele>266.6666666666667</ele><time>2026-04-26T07:35:52Z</time></trkpt><trkpt lat="43.283235910792314" lon="11.968166405737437"><ele>266.33333333333337</ele><time>2026-04-26T07:35:53Z</time></trkpt><trkpt lat="43.283296945173184" lon="11.967974830936159"><ele>266.0</ele><time>2026-04-26T07:35:54Z</time></trkpt><trkpt lat="43.28337119172304" lon="11.96779759363566"><ele>266.0</ele><time>2026-04-26T07:35:55Z</time></trkpt><trkpt lat="43.28342624927229" lon="11.967613933913235"><ele>266.0</ele><time>2026-04-26T07:35:56Z</time></trkpt><trkpt lat="43.28349072113997" lon="11.967432849487576"><ele>266.0</ele><time>2026-04-26T07:35:57Z</time></trkpt><trkpt lat="43.28355459517941" lon="11.967247826273251"><ele>266.0</ele><time>2026-04-26T07:35:58Z</time></trkpt><trkpt lat="43.283616808381325" lon="11.967063332721262"><ele>265.5</ele><time>2026-04-26T07:35:59Z</time></trkpt><trkpt lat="43.2836780206958" lon="11.966884626403239"><ele>265.0</ele><time>2026-04-26T07:36:00Z</time></trkpt><trkpt lat="43.28373656322007" lon="11.966708219650215"><ele>264.5</ele><time>2026-04-26T07:36:01Z</time></trkpt><trkpt lat="43.28379844194792" lon="11.966537244184126"><ele>264.0</ele><time>2026-04-26T07:36:02Z</time></trkpt><trkpt lat="43.28385802841676" lon="11.966377275660488"><ele>264.0</ele><time>2026-04-26T07:36:03Z</time></trkpt><trkpt lat="43.283915478622575" lon="11.966218015039438"><ele>264.0</ele><time>2026-04-26T07:36:04Z</time></trkpt><trkpt lat="43.28396605772057" lon="11.966059019004105"><ele>264.0</ele><time>2026-04-26T07:36:05Z</time></trkpt><trkpt lat="43.284025338269124" lon="11.965925444658312"><ele>264.0</ele><time>2026-04-26T07:36:06Z</time></trkpt><trkpt lat="43.284073206709614" lon="11.96577520199606"><ele>264.0</ele><time>2026-04-26T07:36:07Z</time></trkpt><trkpt lat="43.28412338528027" lon="11.965632131664627"><ele>264.0</ele><time>2026-04-26T07:36:08Z</time></trkpt><trkpt lat="43.28417073328544" lon="11.965488909027531"><ele>264.0</ele><time>2026-04-26T07:36:09Z</time></trkpt><trkpt lat="43.28422311134596" lon="11.965349408987638"><ele>264.0</ele><time>2026-04-26T07:36:10Z</time></trkpt><trkpt lat="43.28426788172359" lon="11.96521612526828"><ele>264.0</ele><time>2026-04-26T07:36:11Z</time></trkpt><trkpt lat="43.284313692043376" lon="11.965077896367754"><ele>264.0</ele><time>2026-04-26T07:36:12Z</time></trkpt><trkpt lat="43.28436225230521" lon="11.96493519508656"><ele>264.0</ele><time>2026-04-26T07:36:13Z</time></trkpt><trkpt lat="43.28441295244135" lon="11.964788648394004"><ele>264.0</ele><time>2026-04-26T07:36:14Z</time></trkpt><trkpt lat="43.284463693780594" lon="11.964636253561613"><ele>263.75</ele><time>2026-04-26T07:36:15Z</time></trkpt><trkpt lat="43.28451647030673" lon="11.964481276091664"><ele>263.5</ele><time>2026-04-26T07:36:16Z</time></trkpt><trkpt lat="43.28456867624963" lon="11.96432185295609"><ele>263.25</ele><time>2026-04-26T07:36:17Z</time></trkpt><trkpt lat="43.28462469810766" lon="11.96416010001451"><ele>263.0</ele><time>2026-04-26T07:36:18Z</time></trkpt><trkpt lat="43.284679537311305" lon="11.963991394938024"><ele>263.0</ele><time>2026-04-26T07:36:19Z</time></trkpt><trkpt lat="43.28473799907256" lon="11.96380178560307"><ele>263.0</ele><time>2026-04-26T07:36:20Z</time></trkpt><trkpt lat="43.28480199692266" lon="11.963595464755365"><ele>263.0</ele><time>2026-04-26T07:36:21Z</time></trkpt><trkpt lat="43.28487479239759" lon="11.963393750080485"><ele>262.75</ele><time>2026-04-26T07:36:22Z</time></trkpt><trkpt lat="43.28497051429207" lon="11.963228169808563"><ele>262.5</ele><time>2026-04-26T07:36:23Z</time></trkpt><trkpt lat="43.28503221548785" lon="11.963053769389063"><ele>262.25</ele><time>2026-04-26T07:36:24Z</time></trkpt><trkpt lat="43.28508735430736" lon="11.962897917665366"><ele>262.0</ele><time>2026-04-26T07:36:25Z</time></trkpt><trkpt lat="43.28513493840966" lon="11.962763419492159"><ele>262.0</ele><time>2026-04-26T07:36:26Z</time></trkpt><trkpt lat="43.285172274590295" lon="11.962657887603925"><ele>262.0</ele><time>2026-04-26T07:36:27Z</time></trkpt><trkpt lat="43.2852009517054" lon="11.962546011027076"><ele>262.0</ele><time>2026-04-26T07:36:29Z</time></trkpt><trkpt lat="43.28526016150866" lon="11.962409949783126"><ele>262.0</ele><time>2026-04-26T07:36:55Z</time></trkpt><trkpt lat="43.28531028989247" lon="11.962268699427247"><ele>262.0</ele><time>2026-04-26T07:36:56Z</time></trkpt><trkpt lat="43.28536954730458" lon="11.962101725674891"><ele>262.0</ele><time>2026-04-26T07:36:57Z</time></trkpt><trkpt lat="43.285435064359966" lon="11.96191437197852"><ele>262.0</ele><time>2026-04-26T07:36:58Z</time></trkpt><trkpt lat="43.28550251167975" lon="11.961721491961754"><ele>262.0</ele><time>2026-04-26T07:36:59Z</time></trkpt><trkpt lat="43.2855753341568" lon="11.961513240533113"><ele>262.0</ele><time>2026-04-26T07:37:00Z</time></trkpt><trkpt lat="43.28564710361167" lon="11.961307774298449"><ele>262.0</ele><time>2026-04-26T07:37:01Z</time></trkpt><trkpt lat="43.28572073709229" lon="11.961096929245134"><ele>262.0</ele><time>2026-04-26T07:37:02Z</time></trkpt><trkpt lat="43.28579570455801" lon="11.960882265114693"><ele>262.0</ele><time>2026-04-26T07:37:03Z</time></trkpt><trkpt lat="43.285872903919525" lon="11.960661718443616"><ele>262.0</ele><time>2026-04-26T07:37:04Z</time></trkpt><trkpt lat="43.285950347361506" lon="11.96044067971206"><ele>262.0</ele><time>2026-04-26T07:37:05Z</time></trkpt><trkpt lat="43.28602665583487" lon="11.960222414521716"><ele>261.66666666666663</ele><time>2026-04-26T07:37:06Z</time></trkpt><trkpt lat="43.286104349449815" lon="11.960000886751933"><ele>261.3333333333333</ele><time>2026-04-26T07:37:07Z</time></trkpt><trkpt lat="43.286182052017864" lon="11.959779931950434"><ele>261.0</ele><time>2026-04-26T07:37:08Z</time></trkpt><trkpt lat="43.28625920228537" lon="11.959560547523193"><ele>261.0</ele><time>2026-04-26T07:37:09Z</time></trkpt><trkpt lat="43.286336891793695" lon="11.959339629655162"><ele>261.0</ele><time>2026-04-26T07:37:10Z</time></trkpt><trkpt lat="43.28641520241628" lon="11.959116945636271"><ele>261.0</ele><time>2026-04-26T07:37:11Z</time></trkpt><trkpt lat="43.286493830834004" lon="11.958893357992078"><ele>261.0</ele><time>2026-04-26T07:37:12Z</time></trkpt><trkpt lat="43.286572008586404" lon="11.958671706925069"><ele>261.0</ele><time>2026-04-26T07:37:13Z</time></trkpt><trkpt lat="43.28665234199342" lon="11.958445106930828"><ele>261.0</ele><time>2026-04-26T07:37:14Z</time></trkpt><trkpt lat="43.286734896670325" lon="11.95821175281465"><ele>261.0</ele><time>2026-04-26T07:37:15Z</time></trkpt><trkpt lat="43.28682028540766" lon="11.957970362245272"><ele>261.0</ele><time>2026-04-26T07:37:16Z</time></trkpt><trkpt lat="43.28690642227725" lon="11.95772685682298"><ele>261.0</ele><time>2026-04-26T07:37:17Z</time></trkpt><trkpt lat="43.28699415303611" lon="11.957478845569598"><ele>260.6666666666667</ele><time>2026-04-26T07:37:18Z</time></trkpt><trkpt lat="43.28708364391546" lon="11.957225658338507"><ele>260.33333333333337</ele><time>2026-04-26T07:37:19Z</time></trkpt><trkpt lat="43.28717351481233" lon="11.956971517066393"><ele>260.0</ele><time>2026-04-26T07:37:20Z</time></trkpt><trkpt lat="43.28726322515201" lon="11.956718138885698"><ele>260.33333333333337</ele><time>2026-04-26T07:37:21Z</time></trkpt><trkpt lat="43.28735217744267" lon="11.956464967210142"><ele>260.6666666666667</ele><time>2026-04-26T07:37:22Z</time></trkpt><trkpt lat="43.287429651954874" lon="11.956233043762774"><ele>261.0</ele><time>2026-04-26T07:37:23Z</time></trkpt><trkpt lat="43.28751756969721" lon="11.95594792964507"><ele>260.0</ele><time>2026-04-26T07:37:24Z</time></trkpt><trkpt lat="43.28758374861935" lon="11.955678606615464"><ele>259.0</ele><time>2026-04-26T07:37:25Z</time></trkpt><trkpt lat="43.287622367274274" lon="11.955399689770976"><ele>258.0</ele><time>2026-04-26T07:37:26Z</time></trkpt><trkpt lat="43.28764304829105" lon="11.95511757473886"><ele>258.3333333333333</ele><time>2026-04-26T07:37:27Z</time></trkpt><trkpt lat="43.28764999290703" lon="11.95483046019991"><ele>258.66666666666663</ele><time>2026-04-26T07:37:28Z</time></trkpt><trkpt lat="43.28763933435221" lon="11.954545164114204"><ele>259.0</ele><time>2026-04-26T07:37:29Z</time></trkpt><trkpt lat="43.28764975858688" lon="11.954245988876725"><ele>261.5</ele><time>2026-04-26T07:37:30Z</time></trkpt><trkpt lat="43.28765175218002" lon="11.95394112781515"><ele>264.0</ele><time>2026-04-26T07:37:31Z</time></trkpt><trkpt lat="43.28765207812416" lon="11.953626993297881"><ele>262.5</ele><time>2026-04-26T07:37:32Z</time></trkpt><trkpt lat="43.2876560272169" lon="11.953317071209709"><ele>261.0</ele><time>2026-04-26T07:37:33Z</time></trkpt><trkpt lat="43.287661361474385" lon="11.953009075830236"><ele>261.0</ele><time>2026-04-26T07:37:34Z</time></trkpt><trkpt lat="43.287680038226014" lon="11.952696228144738"><ele>261.0</ele><time>2026-04-26T07:37:35Z</time></trkpt><trkpt lat="43.28768397084239" lon="11.952388778057081"><ele>261.3333333333333</ele><time>2026-04-26T07:37:36Z</time></trkpt><trkpt lat="43.28768794201116" lon="11.952078316602208"><ele>261.66666666666663</ele><time>2026-04-26T07:37:37Z</time></trkpt><trkpt lat="43.2876786348497" lon="11.95177245375879"><ele>262.0</ele><time>2026-04-26T07:37:38Z</time></trkpt><trkpt lat="43.287683448811464" lon="11.951464518958725"><ele>262.3333333333333</ele><time>2026-04-26T07:37:39Z</time></trkpt><trkpt lat="43.28768713818297" lon="11.951155408494362"><ele>262.6666666666667</ele><time>2026-04-26T07:37:40Z</time></trkpt><trkpt lat="43.287693329040884" lon="11.950850013493914"><ele>263.0</ele><time>2026-04-26T07:37:41Z</time></trkpt><trkpt lat="43.28769804483601" lon="11.950543827833318"><ele>263.33333333333337</ele><time>2026-04-26T07:37:42Z</time></trkpt><trkpt lat="43.28770046172842" lon="11.950238568748617"><ele>263.6666666666667</ele><time>2026-04-26T07:37:43Z</time></trkpt><trkpt lat="43.28770436801458" lon="11.94993380308119"><ele>264.0</ele><time>2026-04-26T07:37:44Z</time></trkpt><trkpt lat="43.28770836968846" lon="11.949629362045005"><ele>264.0</ele><time>2026-04-26T07:37:45Z</time></trkpt><trkpt lat="43.28771430850474" lon="11.949329676087158"><ele>264.0</ele><time>2026-04-26T07:37:46Z</time></trkpt><trkpt lat="43.287719940346534" lon="11.949046007815609"><ele>264.0</ele><time>2026-04-26T07:37:47Z</time></trkpt><trkpt lat="43.28776797682231" lon="11.948786241556135"><ele>263.0</ele><time>2026-04-26T07:37:48Z</time></trkpt><trkpt lat="43.28782190272586" lon="11.948532256769122"><ele>262.0</ele><time>2026-04-26T07:37:49Z</time></trkpt><trkpt lat="43.28793318158788" lon="11.948316148686997"><ele>261.0</ele><time>2026-04-26T07:37:50Z</time></trkpt><trkpt lat="43.28808183811582" lon="11.94813415991729"><ele>262.0</ele><time>2026-04-26T07:37:51Z</time></trkpt><trkpt lat="43.288259633468016" lon="11.94801131757677"><ele>263.0</ele><time>2026-04-26T07:37:52Z</time></trkpt><trkpt lat="43.2884676582703" lon="11.947958225652238"><ele>264.0</ele><time>2026-04-26T07:37:53Z</time></trkpt><trkpt lat="43.28868431637601" lon="11.947960574219866"><ele>264.0</ele><time>2026-04-26T07:37:54Z</time></trkpt><trkpt lat="43.28890904642489" lon="11.947949651995396"><ele>264.0</ele><time>2026-04-26T07:37:55Z</time></trkpt><trkpt lat="43.28914532054984" lon="11.947948613969416"><ele>263.0</ele><time>2026-04-26T07:37:56Z</time></trkpt><trkpt lat="43.28938604247754" lon="11.947949760538839"><ele>262.0</ele><time>2026-04-26T07:37:57Z</time></trkpt><trkpt lat="43.28961869444387" lon="11.947950148998816"><ele>263.0</ele><time>2026-04-26T07:37:58Z</time></trkpt><trkpt lat="43.289852260516774" lon="11.947951508059699"><ele>264.0</ele><time>2026-04-26T07:37:59Z</time></trkpt><trkpt lat="43.29009023491764" lon="11.9479468836749"><ele>264.0</ele><time>2026-04-26T07:38:00Z</time></trkpt><trkpt lat="43.290316348408616" lon="11.947947141692536"><ele>264.0</ele><time>2026-04-26T07:38:01Z</time></trkpt><trkpt lat="43.29054477585232" lon="11.947945036056437"><ele>264.3333333333333</ele><time>2026-04-26T07:38:02Z</time></trkpt><trkpt lat="43.29077424920431" lon="11.947948758968126"><ele>264.66666666666663</ele><time>2026-04-26T07:38:03Z</time></trkpt><trkpt lat="43.29098478306504" lon="11.947948565025595"><ele>265.0</ele><time>2026-04-26T07:38:04Z</time></trkpt><trkpt lat="43.29119121617272" lon="11.947946843737233"><ele>265.0</ele><time>2026-04-26T07:38:05Z</time></trkpt><trkpt lat="43.29138917406066" lon="11.947894943394752"><ele>265.0</ele><time>2026-04-26T07:38:06Z</time></trkpt><trkpt lat="43.291570997193745" lon="11.947780353173762"><ele>265.0</ele><time>2026-04-26T07:38:07Z</time></trkpt><trkpt lat="43.291725772270894" lon="11.9476004847533"><ele>264.0</ele><time>2026-04-26T07:38:08Z</time></trkpt><trkpt lat="43.29187540404598" lon="11.947396584465363"><ele>263.0</ele><time>2026-04-26T07:38:09Z</time></trkpt><trkpt lat="43.292022451960875" lon="11.947185724450444"><ele>262.0</ele><time>2026-04-26T07:38:10Z</time></trkpt><trkpt lat="43.292172870779645" lon="11.946954398219582"><ele>261.5</ele><time>2026-04-26T07:38:11Z</time></trkpt><trkpt lat="43.292324107405264" lon="11.946721807247831"><ele>261.0</ele><time>2026-04-26T07:38:12Z</time></trkpt><trkpt lat="43.29246076143893" lon="11.946479804528137"><ele>261.0</ele><time>2026-04-26T07:38:13Z</time></trkpt><trkpt lat="43.292615947281234" lon="11.946258503363799"><ele>261.0</ele><time>2026-04-26T07:38:14Z</time></trkpt><trkpt lat="43.29275859589704" lon="11.9460249025765"><ele>261.0</ele><time>2026-04-26T07:38:15Z</time></trkpt><trkpt lat="43.292909636335594" lon="11.945808331513724"><ele>260.5</ele><time>2026-04-26T07:38:16Z</time></trkpt><trkpt lat="43.293059247865806" lon="11.945565959942574"><ele>260.0</ele><time>2026-04-26T07:38:17Z</time></trkpt><trkpt lat="43.293203917097166" lon="11.945340566486868"><ele>260.0</ele><time>2026-04-26T07:38:18Z</time></trkpt><trkpt lat="43.293355858002826" lon="11.94511746501097"><ele>260.0</ele><time>2026-04-26T07:38:19Z</time></trkpt><trkpt lat="43.2935005836082" lon="11.944883341362939"><ele>260.0</ele><time>2026-04-26T07:38:20Z</time></trkpt><trkpt lat="43.29364592156526" lon="11.944658009160417"><ele>260.0</ele><time>2026-04-26T07:38:21Z</time></trkpt><trkpt lat="43.293796301274135" lon="11.944430404517886"><ele>260.0</ele><time>2026-04-26T07:38:22Z</time></trkpt><trkpt lat="43.29394775840599" lon="11.94420018988596"><ele>259.0</ele><time>2026-04-26T07:38:23Z</time></trkpt><trkpt lat="43.29409869464109" lon="11.943968613539523"><ele>258.0</ele><time>2026-04-26T07:38:24Z</time></trkpt><trkpt lat="43.29424866209202" lon="11.943731082349949"><ele>258.0</ele><time>2026-04-26T07:38:25Z</time></trkpt><trkpt lat="43.294399465810315" lon="11.943497317546695"><ele>258.0</ele><time>2026-04-26T07:38:26Z</time></trkpt><trkpt lat="43.29455280533794" lon="11.943258436891204"><ele>257.0</ele><time>2026-04-26T07:38:27Z</time></trkpt><trkpt lat="43.29470499103084" lon="11.943024529624331"><ele>256.0</ele><time>2026-04-26T07:38:28Z</time></trkpt><trkpt lat="43.29485852627994" lon="11.94278957793987"><ele>256.0</ele><time>2026-04-26T07:38:29Z</time></trkpt><trkpt lat="43.295012532207096" lon="11.94256038876279"><ele>256.0</ele><time>2026-04-26T07:38:30Z</time></trkpt><trkpt lat="43.2951639616474" lon="11.942326631859938"><ele>254.5</ele><time>2026-04-26T07:38:31Z</time></trkpt><trkpt lat="43.2953163776755" lon="11.94209502680663"><ele>253.0</ele><time>2026-04-26T07:38:32Z</time></trkpt><trkpt lat="43.29546591052024" lon="11.941865387548889"><ele>254.0</ele><time>2026-04-26T07:38:33Z</time></trkpt><trkpt lat="43.29561492643536" lon="11.941636514846426"><ele>255.0</ele><time>2026-04-26T07:38:34Z</time></trkpt><trkpt lat="43.2957606066073" lon="11.941413598413085"><ele>256.0</ele><time>2026-04-26T07:38:35Z</time></trkpt><trkpt lat="43.295904516129276" lon="11.941190304177765"><ele>256.0</ele><time>2026-04-26T07:38:36Z</time></trkpt><trkpt lat="43.296044563662306" lon="11.940966766766435"><ele>256.0</ele><time>2026-04-26T07:38:37Z</time></trkpt><trkpt lat="43.29618269270212" lon="11.940751924224521"><ele>256.0</ele><time>2026-04-26T07:38:38Z</time></trkpt><trkpt lat="43.29631477611477" lon="11.940542896718476"><ele>256.66666666666663</ele><time>2026-04-26T07:38:39Z</time></trkpt><trkpt lat="43.29644291830819" lon="11.94034011942719"><ele>257.3333333333333</ele><time>2026-04-26T07:38:40Z</time></trkpt><trkpt lat="43.29657515663538" lon="11.940164812768373"><ele>258.0</ele><time>2026-04-26T07:38:41Z</time></trkpt><trkpt lat="43.29670965297564" lon="11.9400061057069"><ele>258.0</ele><time>2026-04-26T07:38:42Z</time></trkpt><trkpt lat="43.296853837494766" lon="11.939840451519226"><ele>258.0</ele><time>2026-04-26T07:38:43Z</time></trkpt><trkpt lat="43.2970014719899" lon="11.939671983028575"><ele>258.0</ele><time>2026-04-26T07:38:44Z</time></trkpt><trkpt lat="43.297151849399306" lon="11.939505514851843"><ele>258.3333333333333</ele><time>2026-04-26T07:38:45Z</time></trkpt><trkpt lat="43.29731406679769" lon="11.939328150440177"><ele>258.66666666666663</ele><time>2026-04-26T07:38:46Z</time></trkpt><trkpt lat="43.297470451982335" lon="11.93920182308712"><ele>259.0</ele><time>2026-04-26T07:38:47Z</time></trkpt><trkpt lat="43.29765129928556" lon="11.939068718223432"><ele>259.0</ele><time>2026-04-26T07:38:48Z</time></trkpt><trkpt lat="43.29783188184551" lon="11.938951079965578"><ele>259.0</ele><time>2026-04-26T07:38:49Z</time></trkpt><trkpt lat="43.29801556915189" lon="11.938830072170516"><ele>259.0</ele><time>2026-04-26T07:38:50Z</time></trkpt><trkpt lat="43.29820329955136" lon="11.93870625271386"><ele>259.66666666666663</ele><time>2026-04-26T07:38:51Z</time></trkpt><trkpt lat="43.29838745794483" lon="11.938575268494427"><ele>260.3333333333333</ele><time>2026-04-26T07:38:52Z</time></trkpt><trkpt lat="43.298575407148576" lon="11.938416707350475"><ele>261.0</ele><time>2026-04-26T07:38:53Z</time></trkpt><trkpt lat="43.29873243054042" lon="11.93823630016042"><ele>261.0</ele><time>2026-04-26T07:38:54Z</time></trkpt><trkpt lat="43.29888413102539" lon="11.93803071924191"><ele>261.0</ele><time>2026-04-26T07:38:55Z</time></trkpt><trkpt lat="43.29903373569106" lon="11.937811266057363"><ele>261.0</ele><time>2026-04-26T07:38:56Z</time></trkpt><trkpt lat="43.29916359706586" lon="11.937581721058116"><ele>262.0</ele><time>2026-04-26T07:38:57Z</time></trkpt><trkpt lat="43.299289878439104" lon="11.937340322920582"><ele>263.0</ele><time>2026-04-26T07:38:58Z</time></trkpt><trkpt lat="43.29941697896501" lon="11.937091683051365"><ele>264.0</ele><time>2026-04-26T07:38:59Z</time></trkpt><trkpt lat="43.299540130381224" lon="11.936843511971217"><ele>262.6666666666667</ele><time>2026-04-26T07:39:00Z</time></trkpt><trkpt lat="43.29967098780306" lon="11.936604279054293"><ele>261.33333333333337</ele><time>2026-04-26T07:39:01Z</time></trkpt><trkpt lat="43.29979986692064" lon="11.936381302778283"><ele>260.0</ele><time>2026-04-26T07:39:02Z</time></trkpt><trkpt lat="43.29993089173658" lon="11.936137852670326"><ele>262.0</ele><time>2026-04-26T07:39:03Z</time></trkpt><trkpt lat="43.30006378270922" lon="11.935900171084064"><ele>264.0</ele><time>2026-04-26T07:39:04Z</time></trkpt><trkpt lat="43.30020003573639" lon="11.935673129126691"><ele>266.0</ele><time>2026-04-26T07:39:05Z</time></trkpt><trkpt lat="43.300335067697894" lon="11.935446487846137"><ele>266.0</ele><time>2026-04-26T07:39:06Z</time></trkpt><trkpt lat="43.30047340967585" lon="11.935221265275779"><ele>266.0</ele><time>2026-04-26T07:39:07Z</time></trkpt><trkpt lat="43.300609660939045" lon="11.934996506481385"><ele>266.0</ele><time>2026-04-26T07:39:08Z</time></trkpt><trkpt lat="43.30075411890144" lon="11.934779644305358"><ele>266.33333333333337</ele><time>2026-04-26T07:39:09Z</time></trkpt><trkpt lat="43.300902222948714" lon="11.93457024118664"><ele>266.6666666666667</ele><time>2026-04-26T07:39:10Z</time></trkpt><trkpt lat="43.30105670327617" lon="11.934367176197672"><ele>267.0</ele><time>2026-04-26T07:39:11Z</time></trkpt><trkpt lat="43.30122071239044" lon="11.93418189443235"><ele>267.3333333333333</ele><time>2026-04-26T07:39:12Z</time></trkpt><trkpt lat="43.301388486194725" lon="11.93399980351522"><ele>267.66666666666663</ele><time>2026-04-26T07:39:13Z</time></trkpt><trkpt lat="43.30155232089135" lon="11.933812978390439"><ele>268.0</ele><time>2026-04-26T07:39:14Z</time></trkpt><trkpt lat="43.30171690559022" lon="11.933625807982912"><ele>268.0</ele><time>2026-04-26T07:39:15Z</time></trkpt><trkpt lat="43.30188290990056" lon="11.93344053882193"><ele>268.0</ele><time>2026-04-26T07:39:16Z</time></trkpt><trkpt lat="43.30204675916009" lon="11.93325655192333"><ele>268.0</ele><time>2026-04-26T07:39:17Z</time></trkpt><trkpt lat="43.30220899356843" lon="11.933062941556022"><ele>269.0</ele><time>2026-04-26T07:39:18Z</time></trkpt><trkpt lat="43.30238010149475" lon="11.932872840090868"><ele>270.0</ele><time>2026-04-26T07:39:19Z</time></trkpt><trkpt lat="43.302547012658685" lon="11.932682120850501"><ele>271.0</ele><time>2026-04-26T07:39:20Z</time></trkpt><trkpt lat="43.30271435812458" lon="11.932488923103103"><ele>269.0</ele><time>2026-04-26T07:39:21Z</time></trkpt><trkpt lat="43.30288538720754" lon="11.932303525352475"><ele>267.0</ele><time>2026-04-26T07:39:22Z</time></trkpt><trkpt lat="43.30306458656955" lon="11.932125905545547"><ele>265.0</ele><time>2026-04-26T07:39:23Z</time></trkpt><trkpt lat="43.30324399307637" lon="11.931955949378578"><ele>265.0</ele><time>2026-04-26T07:39:24Z</time></trkpt><trkpt lat="43.303435184623474" lon="11.931805203569265"><ele>265.0</ele><time>2026-04-26T07:39:25Z</time></trkpt><trkpt lat="43.303612027760785" lon="11.931636925038466"><ele>265.0</ele><time>2026-04-26T07:39:26Z</time></trkpt><trkpt lat="43.30379819284808" lon="11.931477872868701"><ele>264.3333333333333</ele><time>2026-04-26T07:39:27Z</time></trkpt><trkpt lat="43.30398551868252" lon="11.93131638482994"><ele>263.6666666666667</ele><time>2026-04-26T07:39:28Z</time></trkpt><trkpt lat="43.30418201051435" lon="11.931171731507263"><ele>263.0</ele><time>2026-04-26T07:39:29Z</time></trkpt><trkpt lat="43.30436191496983" lon="11.930995893277162"><ele>263.0</ele><time>2026-04-26T07:39:30Z</time></trkpt><trkpt lat="43.304551207478696" lon="11.93083882325313"><ele>263.0</ele><time>2026-04-26T07:39:31Z</time></trkpt><trkpt lat="43.30474472576075" lon="11.930673420252118"><ele>263.0</ele><time>2026-04-26T07:39:32Z</time></trkpt><trkpt lat="43.3049340502602" lon="11.930514782590077"><ele>263.0</ele><time>2026-04-26T07:39:33Z</time></trkpt><trkpt lat="43.30512498889731" lon="11.930352359013003"><ele>263.0</ele><time>2026-04-26T07:39:34Z</time></trkpt><trkpt lat="43.30531280247725" lon="11.930194481888197"><ele>263.0</ele><time>2026-04-26T07:39:35Z</time></trkpt><trkpt lat="43.30550317439029" lon="11.93003611302016"><ele>262.0</ele><time>2026-04-26T07:39:36Z</time></trkpt><trkpt lat="43.305688209194194" lon="11.929877754511821"><ele>261.0</ele><time>2026-04-26T07:39:37Z</time></trkpt><trkpt lat="43.30587095009826" lon="11.929716964844804"><ele>260.0</ele><time>2026-04-26T07:39:38Z</time></trkpt><trkpt lat="43.30606204473456" lon="11.929558804375029"><ele>260.0</ele><time>2026-04-26T07:39:39Z</time></trkpt><trkpt lat="43.3062426581262" lon="11.9294033686915"><ele>260.0</ele><time>2026-04-26T07:39:40Z</time></trkpt><trkpt lat="43.30642702194757" lon="11.929244358503555"><ele>260.0</ele><time>2026-04-26T07:39:41Z</time></trkpt><trkpt lat="43.306616390231106" lon="11.92910728907228"><ele>261.33333333333337</ele><time>2026-04-26T07:39:42Z</time></trkpt><trkpt lat="43.3067929141137" lon="11.928957181089249"><ele>262.6666666666667</ele><time>2026-04-26T07:39:43Z</time></trkpt><trkpt lat="43.30697514839597" lon="11.92880221730707"><ele>264.0</ele><time>2026-04-26T07:39:44Z</time></trkpt><trkpt lat="43.30715170563418" lon="11.928651530519051"><ele>264.0</ele><time>2026-04-26T07:39:45Z</time></trkpt><trkpt lat="43.307327976644615" lon="11.92850063567674"><ele>264.0</ele><time>2026-04-26T07:39:46Z</time></trkpt><trkpt lat="43.307505152363156" lon="11.928348966371864"><ele>264.0</ele><time>2026-04-26T07:39:47Z</time></trkpt><trkpt lat="43.30768101651333" lon="11.92819841982127"><ele>264.0</ele><time>2026-04-26T07:39:48Z</time></trkpt><trkpt lat="43.30785722274591" lon="11.928047580429402"><ele>264.0</ele><time>2026-04-26T07:39:49Z</time></trkpt><trkpt lat="43.30803753594853" lon="11.92789322531624"><ele>264.0</ele><time>2026-04-26T07:39:50Z</time></trkpt><trkpt lat="43.30821540481448" lon="11.927740962636461"><ele>263.3333333333333</ele><time>2026-04-26T07:39:51Z</time></trkpt><trkpt lat="43.308397994332616" lon="11.927584658914636"><ele>262.66666666666663</ele><time>2026-04-26T07:39:52Z</time></trkpt><trkpt lat="43.30858155772761" lon="11.927427692496405"><ele>262.0</ele><time>2026-04-26T07:39:53Z</time></trkpt><trkpt lat="43.30876648591092" lon="11.92727060975419"><ele>264.0</ele><time>2026-04-26T07:39:54Z</time></trkpt><trkpt lat="43.308948453246416" lon="11.92711604201972"><ele>266.0</ele><time>2026-04-26T07:39:55Z</time></trkpt><trkpt lat="43.309132588213004" lon="11.926959633061522"><ele>268.0</ele><time>2026-04-26T07:39:56Z</time></trkpt><trkpt lat="43.30931424693331" lon="11.926806608227116"><ele>266.66666666666663</ele><time>2026-04-26T07:39:57Z</time></trkpt><trkpt lat="43.30949544758557" lon="11.926654720150605"><ele>265.3333333333333</ele><time>2026-04-26T07:39:58Z</time></trkpt><trkpt lat="43.30967018719865" lon="11.926491164896039"><ele>264.0</ele><time>2026-04-26T07:39:59Z</time></trkpt><trkpt lat="43.309862593011744" lon="11.926345191756132"><ele>267.0</ele><time>2026-04-26T07:40:00Z</time></trkpt><trkpt lat="43.31006423840938" lon="11.926252158992702"><ele>270.0</ele><time>2026-04-26T07:40:01Z</time></trkpt><trkpt lat="43.31025147257761" lon="11.926146577013368"><ele>273.0</ele><time>2026-04-26T07:40:02Z</time></trkpt><trkpt lat="43.31045351212357" lon="11.926034524949646"><ele>274.6666666666667</ele><time>2026-04-26T07:40:03Z</time></trkpt><trkpt lat="43.310651878197305" lon="11.925924510205622"><ele>276.33333333333337</ele><time>2026-04-26T07:40:04Z</time></trkpt><trkpt lat="43.31084791893132" lon="11.92581578510004"><ele>278.0</ele><time>2026-04-26T07:40:05Z</time></trkpt><trkpt lat="43.31104698984837" lon="11.9257053794592"><ele>275.6666666666667</ele><time>2026-04-26T07:40:06Z</time></trkpt><trkpt lat="43.31124577060541" lon="11.925595415012651"><ele>273.3333333333333</ele><time>2026-04-26T07:40:07Z</time></trkpt><trkpt lat="43.31144666988594" lon="11.925484314329893"><ele>271.0</ele><time>2026-04-26T07:40:08Z</time></trkpt><trkpt lat="43.31164585438346" lon="11.925374637720095"><ele>271.0</ele><time>2026-04-26T07:40:09Z</time></trkpt><trkpt lat="43.311841297093565" lon="11.925272459661077"><ele>271.0</ele><time>2026-04-26T07:40:10Z</time></trkpt><trkpt lat="43.312039558033014" lon="11.925171035562954"><ele>271.0</ele><time>2026-04-26T07:40:11Z</time></trkpt><trkpt lat="43.3122338808337" lon="11.925053680895866"><ele>270.66666666666663</ele><time>2026-04-26T07:40:12Z</time></trkpt><trkpt lat="43.31243592711469" lon="11.924959650149802"><ele>270.3333333333333</ele><time>2026-04-26T07:40:13Z</time></trkpt><trkpt lat="43.31263614887269" lon="11.92486137491675"><ele>270.0</ele><time>2026-04-26T07:40:14Z</time></trkpt><trkpt lat="43.312837188219014" lon="11.924760814615805"><ele>270.0</ele><time>2026-04-26T07:40:15Z</time></trkpt><trkpt lat="43.313043120568565" lon="11.92466298011922"><ele>270.0</ele><time>2026-04-26T07:40:16Z</time></trkpt><trkpt lat="43.313247491874804" lon="11.924570306919557"><ele>270.0</ele><time>2026-04-26T07:40:17Z</time></trkpt><trkpt lat="43.313449373628224" lon="11.924474838480016"><ele>269.6666666666667</ele><time>2026-04-26T07:40:18Z</time></trkpt><trkpt lat="43.31364482500517" lon="11.924377407084151"><ele>269.33333333333337</ele><time>2026-04-26T07:40:19Z</time></trkpt><trkpt lat="43.313836005605516" lon="11.92428779667994"><ele>269.0</ele><time>2026-04-26T07:40:20Z</time></trkpt><trkpt lat="43.314026716814396" lon="11.924199566775297"><ele>267.33333333333337</ele><time>2026-04-26T07:40:21Z</time></trkpt><trkpt lat="43.31422045072274" lon="11.924124062791265"><ele>265.6666666666667</ele><time>2026-04-26T07:40:22Z</time></trkpt><trkpt lat="43.31442497952037" lon="11.924093345489718"><ele>264.0</ele><time>2026-04-26T07:40:23Z</time></trkpt><trkpt lat="43.31463343412149" lon="11.924073212648278"><ele>264.6666666666667</ele><time>2026-04-26T07:40:24Z</time></trkpt><trkpt lat="43.31483761259244" lon="11.924047905728845"><ele>265.33333333333337</ele><time>2026-04-26T07:40:25Z</time></trkpt><trkpt lat="43.31503978007052" lon="11.92401465795534"><ele>266.0</ele><time>2026-04-26T07:40:26Z</time></trkpt><trkpt lat="43.31523554648411" lon="11.92395899209531"><ele>266.0</ele><time>2026-04-26T07:40:27Z</time></trkpt><trkpt lat="43.31542580444143" lon="11.923871722046043"><ele>266.0</ele><time>2026-04-26T07:40:28Z</time></trkpt><trkpt lat="43.31561596002286" lon="11.923777591100784"><ele>266.0</ele><time>2026-04-26T07:40:29Z</time></trkpt><trkpt lat="43.315807449871095" lon="11.923671430221486"><ele>265.6666666666667</ele><time>2026-04-26T07:40:30Z</time></trkpt><trkpt lat="43.31599677714665" lon="11.923555636133864"><ele>265.3333333333333</ele><time>2026-04-26T07:40:31Z</time></trkpt><trkpt lat="43.316193114943744" lon="11.92344133085141"><ele>265.0</ele><time>2026-04-26T07:40:32Z</time></trkpt><trkpt lat="43.316387661697846" lon="11.923333058847192"><ele>264.3333333333333</ele><time>2026-04-26T07:40:33Z</time></trkpt><trkpt lat="43.31658282804605" lon="11.923228155467191"><ele>263.6666666666667</ele><time>2026-04-26T07:40:34Z</time></trkpt><trkpt lat="43.31677932540182" lon="11.923130818480768"><ele>263.0</ele><time>2026-04-26T07:40:35Z</time></trkpt><trkpt lat="43.31697653212413" lon="11.923034315439562"><ele>263.0</ele><time>2026-04-26T07:40:36Z</time></trkpt><trkpt lat="43.31717527301099" lon="11.922940056200787"><ele>263.0</ele><time>2026-04-26T07:40:37Z</time></trkpt><trkpt lat="43.317377241425945" lon="11.922846100055807"><ele>263.0</ele><time>2026-04-26T07:40:38Z</time></trkpt><trkpt lat="43.31757802898121" lon="11.922749949351031"><ele>263.6666666666667</ele><time>2026-04-26T07:40:39Z</time></trkpt><trkpt lat="43.31778177079293" lon="11.922650550566875"><ele>264.3333333333333</ele><time>2026-04-26T07:40:40Z</time></trkpt><trkpt lat="43.31798646525924" lon="11.922550073849747"><ele>265.0</ele><time>2026-04-26T07:40:41Z</time></trkpt><trkpt lat="43.31818965993398" lon="11.922450758697298"><ele>263.0</ele><time>2026-04-26T07:40:42Z</time></trkpt><trkpt lat="43.318394822489616" lon="11.922351430691657"><ele>261.0</ele><time>2026-04-26T07:40:43Z</time></trkpt><trkpt lat="43.3185989733568" lon="11.922255008239821"><ele>259.0</ele><time>2026-04-26T07:40:44Z</time></trkpt><trkpt lat="43.318802318657745" lon="11.922161423511415"><ele>259.66666666666663</ele><time>2026-04-26T07:40:45Z</time></trkpt><trkpt lat="43.31900177546307" lon="11.922059653925944"><ele>260.3333333333333</ele><time>2026-04-26T07:40:46Z</time></trkpt><trkpt lat="43.31920618317766" lon="11.92197849028059"><ele>261.0</ele><time>2026-04-26T07:40:47Z</time></trkpt><trkpt lat="43.319412579786196" lon="11.921903489307427"><ele>261.0</ele><time>2026-04-26T07:40:48Z</time></trkpt><trkpt lat="43.3196215916494" lon="11.921858850467931"><ele>261.0</ele><time>2026-04-26T07:40:49Z</time></trkpt><trkpt lat="43.31982898585778" lon="11.921847634696412"><ele>261.0</ele><time>2026-04-26T07:40:50Z</time></trkpt><trkpt lat="43.32003764880295" lon="11.921849281644185"><ele>260.0</ele><time>2026-04-26T07:40:51Z</time></trkpt><trkpt lat="43.32024652795956" lon="11.92187086455892"><ele>259.0</ele><time>2026-04-26T07:40:52Z</time></trkpt><trkpt lat="43.32045348183044" lon="11.921885866781803"><ele>258.0</ele><time>2026-04-26T07:40:53Z</time></trkpt><trkpt lat="43.32065876154508" lon="11.921894366773572"><ele>257.3333333333333</ele><time>2026-04-26T07:40:54Z</time></trkpt><trkpt lat="43.32086307043359" lon="11.921904186080013"><ele>256.66666666666663</ele><time>2026-04-26T07:40:55Z</time></trkpt><trkpt lat="43.32106606747448" lon="11.921907657677973"><ele>256.0</ele><time>2026-04-26T07:40:56Z</time></trkpt><trkpt lat="43.321270112051074" lon="11.921914981797562"><ele>256.0</ele><time>2026-04-26T07:40:57Z</time></trkpt><trkpt lat="43.321476633803265" lon="11.921923926122227"><ele>256.0</ele><time>2026-04-26T07:40:58Z</time></trkpt><trkpt lat="43.32168018355755" lon="11.92193815113715"><ele>256.0</ele><time>2026-04-26T07:40:59Z</time></trkpt><trkpt lat="43.321887777003916" lon="11.921947127802975"><ele>256.0</ele><time>2026-04-26T07:41:00Z</time></trkpt><trkpt lat="43.32209554032818" lon="11.921955523213077"><ele>256.0</ele><time>2026-04-26T07:41:01Z</time></trkpt><trkpt lat="43.32230263882118" lon="11.921966005887565"><ele>256.0</ele><time>2026-04-26T07:41:02Z</time></trkpt><trkpt lat="43.322509980624815" lon="11.921974075311851"><ele>255.66666666666666</ele><time>2026-04-26T07:41:03Z</time></trkpt><trkpt lat="43.32271713878504" lon="11.921983889440927"><ele>255.33333333333331</ele><time>2026-04-26T07:41:04Z</time></trkpt><trkpt lat="43.322925843045965" lon="11.921991656168984"><ele>255.0</ele><time>2026-04-26T07:41:05Z</time></trkpt><trkpt lat="43.32313541656828" lon="11.921996519318837"><ele>254.66666666666669</ele><time>2026-04-26T07:41:06Z</time></trkpt><trkpt lat="43.32334524355086" lon="11.92200442868698"><ele>254.33333333333334</ele><time>2026-04-26T07:41:07Z</time></trkpt><trkpt lat="43.32355355451103" lon="11.922012927047248"><ele>254.0</ele><time>2026-04-26T07:41:08Z</time></trkpt><trkpt lat="43.323765143306865" lon="11.922024414679012"><ele>254.0</ele><time>2026-04-26T07:41:09Z</time></trkpt><trkpt lat="43.32397961598885" lon="11.92203531337999"><ele>254.0</ele><time>2026-04-26T07:41:10Z</time></trkpt><trkpt lat="43.324188840082606" lon="11.922041208326192"><ele>254.0</ele><time>2026-04-26T07:41:11Z</time></trkpt><trkpt lat="43.32439738752874" lon="11.92205543316841"><ele>254.0</ele><time>2026-04-26T07:41:12Z</time></trkpt><trkpt lat="43.32460925200519" lon="11.922059910578126"><ele>254.0</ele><time>2026-04-26T07:41:13Z</time></trkpt><trkpt lat="43.32482172237146" lon="11.922065811759813"><ele>254.0</ele><time>2026-04-26T07:41:14Z</time></trkpt><trkpt lat="43.32503157085376" lon="11.922072238074785"><ele>254.0</ele><time>2026-04-26T07:41:15Z</time></trkpt><trkpt lat="43.325246530407995" lon="11.922082278795536"><ele>254.0</ele><time>2026-04-26T07:41:16Z</time></trkpt><trkpt lat="43.32545935015721" lon="11.922092838465497"><ele>254.0</ele><time>2026-04-26T07:41:17Z</time></trkpt><trkpt lat="43.325667408754654" lon="11.922100161068869"><ele>254.66666666666669</ele><time>2026-04-26T07:41:18Z</time></trkpt><trkpt lat="43.3258767713824" lon="11.922109522612839"><ele>255.33333333333331</ele><time>2026-04-26T07:41:19Z</time></trkpt><trkpt lat="43.32608566688044" lon="11.922122581816028"><ele>256.0</ele><time>2026-04-26T07:41:20Z</time></trkpt><trkpt lat="43.32629286071017" lon="11.922133719428668"><ele>256.0</ele><time>2026-04-26T07:41:21Z</time></trkpt><trkpt lat="43.32649890335271" lon="11.92214783053036"><ele>256.0</ele><time>2026-04-26T07:41:22Z</time></trkpt><trkpt lat="43.32670290310394" lon="11.922180810113348"><ele>256.0</ele><time>2026-04-26T07:41:23Z</time></trkpt><trkpt lat="43.326908118507966" lon="11.922196217839371"><ele>256.0</ele><time>2026-04-26T07:41:24Z</time></trkpt><trkpt lat="43.32711250310821" lon="11.922211758883728"><ele>256.0</ele><time>2026-04-26T07:41:25Z</time></trkpt><trkpt lat="43.32731553063836" lon="11.922204890175204"><ele>256.0</ele><time>2026-04-26T07:41:26Z</time></trkpt><trkpt lat="43.32751874203018" lon="11.922242531028635"><ele>256.0</ele><time>2026-04-26T07:41:27Z</time></trkpt><trkpt lat="43.327723433023394" lon="11.922257879507779"><ele>256.0</ele><time>2026-04-26T07:41:28Z</time></trkpt><trkpt lat="43.32792831607514" lon="11.922273272397657"><ele>256.0</ele><time>2026-04-26T07:41:29Z</time></trkpt><trkpt lat="43.328131897849815" lon="11.922288566043344"><ele>256.3333333333333</ele><time>2026-04-26T07:41:30Z</time></trkpt><trkpt lat="43.32833861764286" lon="11.922302123268912"><ele>256.6666666666667</ele><time>2026-04-26T07:41:31Z</time></trkpt><trkpt lat="43.328546797201234" lon="11.922315094563073"><ele>257.0</ele><time>2026-04-26T07:41:32Z</time></trkpt><trkpt lat="43.32875433659886" lon="11.92232700334914"><ele>256.6666666666667</ele><time>2026-04-26T07:41:33Z</time></trkpt><trkpt lat="43.32896178186374" lon="11.922338906734181"><ele>256.3333333333333</ele><time>2026-04-26T07:41:34Z</time></trkpt><trkpt lat="43.32917038814209" lon="11.922350876737681"><ele>256.0</ele><time>2026-04-26T07:41:35Z</time></trkpt><trkpt lat="43.329376143053494" lon="11.922362422918486"><ele>256.0</ele><time>2026-04-26T07:41:36Z</time></trkpt><trkpt lat="43.329581874764074" lon="11.92235037520475"><ele>256.0</ele><time>2026-04-26T07:41:37Z</time></trkpt><trkpt lat="43.32978582026935" lon="11.922361496042829"><ele>256.0</ele><time>2026-04-26T07:41:38Z</time></trkpt><trkpt lat="43.32998554041859" lon="11.922374335524013"><ele>256.0</ele><time>2026-04-26T07:41:39Z</time></trkpt><trkpt lat="43.330184227581356" lon="11.9223856925949"><ele>256.0</ele><time>2026-04-26T07:41:40Z</time></trkpt><trkpt lat="43.33038270296" lon="11.922396344971895"><ele>256.0</ele><time>2026-04-26T07:41:41Z</time></trkpt><trkpt lat="43.33057808398427" lon="11.922406134358958"><ele>256.0</ele><time>2026-04-26T07:41:42Z</time></trkpt><trkpt lat="43.330771747595755" lon="11.92241594425752"><ele>256.0</ele><time>2026-04-26T07:41:43Z</time></trkpt><trkpt lat="43.330965491633165" lon="11.922427323259715"><ele>256.0</ele><time>2026-04-26T07:41:44Z</time></trkpt><trkpt lat="43.33115982689935" lon="11.922436697886674"><ele>256.0</ele><time>2026-04-26T07:41:45Z</time></trkpt><trkpt lat="43.33135651151283" lon="11.922448197640415"><ele>256.0</ele><time>2026-04-26T07:41:46Z</time></trkpt><trkpt lat="43.331557413642464" lon="11.922468823852817"><ele>256.0</ele><time>2026-04-26T07:41:47Z</time></trkpt><trkpt lat="43.33175272073733" lon="11.922530609623285"><ele>255.66666666666666</ele><time>2026-04-26T07:41:48Z</time></trkpt><trkpt lat="43.33194604738311" lon="11.92255399482467"><ele>255.33333333333331</ele><time>2026-04-26T07:41:49Z</time></trkpt><trkpt lat="43.332137426215176" lon="11.922626922133652"><ele>255.0</ele><time>2026-04-26T07:41:50Z</time></trkpt><trkpt lat="43.33232755972989" lon="11.922656205972824"><ele>255.0</ele><time>2026-04-26T07:41:51Z</time></trkpt><trkpt lat="43.33251848209551" lon="11.9227087584784"><ele>255.0</ele><time>2026-04-26T07:41:52Z</time></trkpt><trkpt lat="43.33270738545619" lon="11.922757750453744"><ele>255.0</ele><time>2026-04-26T07:41:53Z</time></trkpt><trkpt lat="43.33289192127703" lon="11.922806310024619"><ele>255.33333333333331</ele><time>2026-04-26T07:41:54Z</time></trkpt><trkpt lat="43.333075230220764" lon="11.922855320171282"><ele>255.66666666666666</ele><time>2026-04-26T07:41:55Z</time></trkpt><trkpt lat="43.333252350197654" lon="11.922905393559438"><ele>256.0</ele><time>2026-04-26T07:41:56Z</time></trkpt><trkpt lat="43.33342619602542" lon="11.92294879999486"><ele>256.0</ele><time>2026-04-26T07:41:57Z</time></trkpt><trkpt lat="43.333590673368185" lon="11.922989772392508"><ele>256.0</ele><time>2026-04-26T07:41:58Z</time></trkpt><trkpt lat="43.33374786562345" lon="11.923026686409655"><ele>256.0</ele><time>2026-04-26T07:41:59Z</time></trkpt><trkpt lat="43.33389533189198" lon="11.92306595452876"><ele>256.25</ele><time>2026-04-26T07:42:00Z</time></trkpt><trkpt lat="43.33403371896726" lon="11.923103271700544"><ele>256.5</ele><time>2026-04-26T07:42:01Z</time></trkpt><trkpt lat="43.33416300607943" lon="11.923136464232378"><ele>256.75</ele><time>2026-04-26T07:42:02Z</time></trkpt><trkpt lat="43.33427834336888" lon="11.923166500094453"><ele>257.0</ele><time>2026-04-26T07:42:03Z</time></trkpt><trkpt lat="43.334376337562475" lon="11.923188011305536"><ele>257.0</ele><time>2026-04-26T07:42:04Z</time></trkpt><trkpt lat="43.33446053994673" lon="11.92321095568989"><ele>257.0</ele><time>2026-04-26T07:42:05Z</time></trkpt><trkpt lat="43.334534496775646" lon="11.923232854867452"><ele>257.0</ele><time>2026-04-26T07:42:06Z</time></trkpt><trkpt lat="43.33462608055306" lon="11.923265091646575"><ele>257.0</ele><time>2026-04-26T07:42:08Z</time></trkpt><trkpt lat="43.334690607937745" lon="11.923299282689456"><ele>257.0</ele><time>2026-04-26T07:42:12Z</time></trkpt><trkpt lat="43.3348044700375" lon="11.923316098703332"><ele>257.0</ele><time>2026-04-26T07:42:15Z</time></trkpt><trkpt lat="43.33492115927649" lon="11.923337337974207"><ele>256.6666666666667</ele><time>2026-04-26T07:42:16Z</time></trkpt><trkpt lat="43.33508512831867" lon="11.9233832099828"><ele>256.3333333333333</ele><time>2026-04-26T07:42:17Z</time></trkpt><trkpt lat="43.33528076915569" lon="11.92343350768195"><ele>256.0</ele><time>2026-04-26T07:42:18Z</time></trkpt><trkpt lat="43.335493012869705" lon="11.923485281615463"><ele>255.0</ele><time>2026-04-26T07:42:19Z</time></trkpt><trkpt lat="43.33571439492956" lon="11.923550178663424"><ele>254.0</ele><time>2026-04-26T07:42:20Z</time></trkpt><trkpt lat="43.33593106546047" lon="11.923600773722967"><ele>253.0</ele><time>2026-04-26T07:42:21Z</time></trkpt><trkpt lat="43.33614205034357" lon="11.923620760963889"><ele>253.0</ele><time>2026-04-26T07:42:22Z</time></trkpt><trkpt lat="43.33633437340365" lon="11.92361875683402"><ele>253.0</ele><time>2026-04-26T07:42:23Z</time></trkpt><trkpt lat="43.33652265272245" lon="11.923586617968589"><ele>253.0</ele><time>2026-04-26T07:42:24Z</time></trkpt><trkpt lat="43.336704907489455" lon="11.923521797254782"><ele>253.33333333333331</ele><time>2026-04-26T07:42:25Z</time></trkpt><trkpt lat="43.33686593487339" lon="11.923463975274949"><ele>253.66666666666669</ele><time>2026-04-26T07:42:26Z</time></trkpt><trkpt lat="43.33702815677241" lon="11.923356567385204"><ele>254.0</ele><time>2026-04-26T07:42:27Z</time></trkpt><trkpt lat="43.33716814099521" lon="11.9232438451871"><ele>255.66666666666669</ele><time>2026-04-26T07:42:28Z</time></trkpt><trkpt lat="43.33729799231752" lon="11.923114728512378"><ele>257.3333333333333</ele><time>2026-04-26T07:42:29Z</time></trkpt><trkpt lat="43.33741984127492" lon="11.922968303836214"><ele>259.0</ele><time>2026-04-26T07:42:30Z</time></trkpt><trkpt lat="43.33753140821851" lon="11.922808982601762"><ele>259.0</ele><time>2026-04-26T07:42:31Z</time></trkpt><trkpt lat="43.337642661477695" lon="11.922637875468254"><ele>259.0</ele><time>2026-04-26T07:42:32Z</time></trkpt><trkpt lat="43.337738840800064" lon="11.922460527523112"><ele>259.0</ele><time>2026-04-26T07:42:33Z</time></trkpt><trkpt lat="43.33784732858768" lon="11.922299402973222"><ele>259.0</ele><time>2026-04-26T07:42:34Z</time></trkpt><trkpt lat="43.337953304514606" lon="11.922138483516095"><ele>259.0</ele><time>2026-04-26T07:42:35Z</time></trkpt><trkpt lat="43.33804637787247" lon="11.92199336251854"><ele>259.0</ele><time>2026-04-26T07:42:36Z</time></trkpt><trkpt lat="43.33813208527854" lon="11.921854647784263"><ele>259.0</ele><time>2026-04-26T07:42:37Z</time></trkpt><trkpt lat="43.33820763176321" lon="11.92173270408477"><ele>260.75</ele><time>2026-04-26T07:42:38Z</time></trkpt><trkpt lat="43.33829516560668" lon="11.921630316117662"><ele>262.5</ele><time>2026-04-26T07:42:39Z</time></trkpt><trkpt lat="43.33837387092112" lon="11.921509073727139"><ele>264.25</ele><time>2026-04-26T07:42:40Z</time></trkpt><trkpt lat="43.33845100742251" lon="11.92139045749164"><ele>266.0</ele><time>2026-04-26T07:42:41Z</time></trkpt><trkpt lat="43.33852696373193" lon="11.921273656080729"><ele>266.0</ele><time>2026-04-26T07:42:42Z</time></trkpt><trkpt lat="43.338602794027885" lon="11.92115737133859"><ele>266.0</ele><time>2026-04-26T07:42:43Z</time></trkpt><trkpt lat="43.33866801887306" lon="11.921033722528788"><ele>266.0</ele><time>2026-04-26T07:42:44Z</time></trkpt><trkpt lat="43.33874141541998" lon="11.920928876780843"><ele>266.0</ele><time>2026-04-26T07:42:45Z</time></trkpt><trkpt lat="43.33881085500947" lon="11.9208248690277"><ele>266.0</ele><time>2026-04-26T07:42:46Z</time></trkpt><trkpt lat="43.338874498151135" lon="11.92072939750521"><ele>266.8</ele><time>2026-04-26T07:42:47Z</time></trkpt><trkpt lat="43.33893527043182" lon="11.920617479563663"><ele>267.6</ele><time>2026-04-26T07:42:48Z</time></trkpt><trkpt lat="43.3390166176999" lon="11.920523248521622"><ele>268.4</ele><time>2026-04-26T07:42:49Z</time></trkpt><trkpt lat="43.339092836013684" lon="11.92040654953096"><ele>269.2</ele><time>2026-04-26T07:42:50Z</time></trkpt><trkpt lat="43.339171280212106" lon="11.920286442458893"><ele>270.0</ele><time>2026-04-26T07:42:51Z</time></trkpt><trkpt lat="43.33925272433375" lon="11.92016174150335"><ele>268.0</ele><time>2026-04-26T07:42:52Z</time></trkpt><trkpt lat="43.33933727509993" lon="11.920032280267309"><ele>266.0</ele><time>2026-04-26T07:42:53Z</time></trkpt><trkpt lat="43.33942792895934" lon="11.919893474203562"><ele>264.0</ele><time>2026-04-26T07:42:54Z</time></trkpt><trkpt lat="43.33951705828536" lon="11.919757002435851"><ele>262.0</ele><time>2026-04-26T07:42:55Z</time></trkpt><trkpt lat="43.33960579748507" lon="11.919621128022907"><ele>262.0</ele><time>2026-04-26T07:42:56Z</time></trkpt><trkpt lat="43.339695800898305" lon="11.91948331788063"><ele>262.0</ele><time>2026-04-26T07:42:57Z</time></trkpt><trkpt lat="43.33978411394669" lon="11.919348096000826"><ele>262.0</ele><time>2026-04-26T07:42:58Z</time></trkpt><trkpt lat="43.339874493746805" lon="11.919209709538576"><ele>262.0</ele><time>2026-04-26T07:42:59Z</time></trkpt><trkpt lat="43.3399658492398" lon="11.919069832639181"><ele>262.25</ele><time>2026-04-26T07:43:00Z</time></trkpt><trkpt lat="43.3400565625037" lon="11.918930771322357"><ele>262.5</ele><time>2026-04-26T07:43:01Z</time></trkpt><trkpt lat="43.34014693833618" lon="11.918792261547521"><ele>262.75</ele><time>2026-04-26T07:43:02Z</time></trkpt><trkpt lat="43.3402355829846" lon="11.918656405081334"><ele>263.0</ele><time>2026-04-26T07:43:03Z</time></trkpt><trkpt lat="43.34032212229505" lon="11.918523775006124"><ele>262.5</ele><time>2026-04-26T07:43:04Z</time></trkpt><trkpt lat="43.34040778665847" lon="11.918392485937018"><ele>262.0</ele><time>2026-04-26T07:43:05Z</time></trkpt><trkpt lat="43.34049183421086" lon="11.91826367498029"><ele>261.5</ele><time>2026-04-26T07:43:06Z</time></trkpt><trkpt lat="43.34057482062753" lon="11.918136491408585"><ele>261.0</ele><time>2026-04-26T07:43:07Z</time></trkpt><trkpt lat="43.34065842486968" lon="11.91800794096486"><ele>261.0</ele><time>2026-04-26T07:43:08Z</time></trkpt><trkpt lat="43.34074215331433" lon="11.91787823751254"><ele>261.0</ele><time>2026-04-26T07:43:09Z</time></trkpt><trkpt lat="43.34082548284905" lon="11.917749152013716"><ele>261.0</ele><time>2026-04-26T07:43:10Z</time></trkpt><trkpt lat="43.340907744198546" lon="11.917621720933585"><ele>261.0</ele><time>2026-04-26T07:43:11Z</time></trkpt><trkpt lat="43.340988365569736" lon="11.91749733909468"><ele>261.0</ele><time>2026-04-26T07:43:12Z</time></trkpt><trkpt lat="43.34106792753344" lon="11.91737449138565"><ele>261.0</ele><time>2026-04-26T07:43:13Z</time></trkpt><trkpt lat="43.341145967848085" lon="11.917253993200934"><ele>261.0</ele><time>2026-04-26T07:43:14Z</time></trkpt><trkpt lat="43.34122291766592" lon="11.917136535977813"><ele>261.0</ele><time>2026-04-26T07:43:15Z</time></trkpt><trkpt lat="43.34128540852127" lon="11.917004519642889"><ele>261.0</ele><time>2026-04-26T07:43:16Z</time></trkpt><trkpt lat="43.341361888745354" lon="11.916889945632265"><ele>261.0</ele><time>2026-04-26T07:43:17Z</time></trkpt><trkpt lat="43.341436247481354" lon="11.916772118424177"><ele>261.0</ele><time>2026-04-26T07:43:18Z</time></trkpt><trkpt lat="43.34151111254772" lon="11.916656092159718"><ele>261.0</ele><time>2026-04-26T07:43:19Z</time></trkpt><trkpt lat="43.341603396619305" lon="11.916556516845272"><ele>261.8</ele><time>2026-04-26T07:43:20Z</time></trkpt><trkpt lat="43.34166319827291" lon="11.916421421092423"><ele>262.6</ele><time>2026-04-26T07:43:21Z</time></trkpt><trkpt lat="43.34173487251652" lon="11.916313522536711"><ele>263.4</ele><time>2026-04-26T07:43:22Z</time></trkpt><trkpt lat="43.341799179733336" lon="11.916209790815698"><ele>264.2</ele><time>2026-04-26T07:43:23Z</time></trkpt><trkpt lat="43.34186277764647" lon="11.916104881809801"><ele>265.0</ele><time>2026-04-26T07:43:24Z</time></trkpt><trkpt lat="43.341943740824206" lon="11.916024408773092"><ele>264.99999999999994</ele><time>2026-04-26T07:43:25Z</time></trkpt><trkpt lat="43.342001705186824" lon="11.915937749701516"><ele>265.0</ele><time>2026-04-26T07:43:26Z</time></trkpt><trkpt lat="43.342051944941325" lon="11.915862639252794"><ele>265.0</ele><time>2026-04-26T07:43:27Z</time></trkpt><trkpt lat="43.34209630596943" lon="11.91579631774433"><ele>265.0</ele><time>2026-04-26T07:43:29Z</time></trkpt><trkpt lat="43.34213924040935" lon="11.915730842591648"><ele>265.0</ele><time>2026-04-26T07:43:31Z</time></trkpt><trkpt lat="43.34218121209797" lon="11.915634156605979"><ele>264.99999999999994</ele><time>2026-04-26T07:43:33Z</time></trkpt><trkpt lat="43.34224396314339" lon="11.915591955260789"><ele>265.0</ele><time>2026-04-26T07:43:35Z</time></trkpt><trkpt lat="43.34231807848492" lon="11.915584422769859"><ele>265.8</ele><time>2026-04-26T07:43:36Z</time></trkpt><trkpt lat="43.34241146690918" lon="11.915584507893005"><ele>266.6</ele><time>2026-04-26T07:43:37Z</time></trkpt><trkpt lat="43.34252171726667" lon="11.915630684530086"><ele>267.4</ele><time>2026-04-26T07:43:38Z</time></trkpt><trkpt lat="43.34262529557792" lon="11.915709909744045"><ele>268.2</ele><time>2026-04-26T07:43:39Z</time></trkpt><trkpt lat="43.342726909085435" lon="11.915786577150048"><ele>269.0</ele><time>2026-04-26T07:43:40Z</time></trkpt><trkpt lat="43.34283954161" lon="11.915856570306845"><ele>269.0</ele><time>2026-04-26T07:43:41Z</time></trkpt><trkpt lat="43.34294463296307" lon="11.915939156432922"><ele>269.0</ele><time>2026-04-26T07:43:42Z</time></trkpt><trkpt lat="43.343050869937876" lon="11.916015861020552"><ele>269.0</ele><time>2026-04-26T07:43:43Z</time></trkpt><trkpt lat="43.34313607602239" lon="11.916106738651498"><ele>269.0</ele><time>2026-04-26T07:43:44Z</time></trkpt><trkpt lat="43.343226048820775" lon="11.916179881650427"><ele>270.5</ele><time>2026-04-26T07:43:45Z</time></trkpt><trkpt lat="43.34331764065761" lon="11.916248862148706"><ele>272.0</ele><time>2026-04-26T07:43:46Z</time></trkpt><trkpt lat="43.3434340679854" lon="11.916322657486443"><ele>273.5</ele><time>2026-04-26T07:43:47Z</time></trkpt><trkpt lat="43.34352970950575" lon="11.916390432221085"><ele>275.0</ele><time>2026-04-26T07:43:48Z</time></trkpt><trkpt lat="43.343629700775345" lon="11.916485016042285"><ele>275.0</ele><time>2026-04-26T07:43:49Z</time></trkpt><trkpt lat="43.343719621175694" lon="11.916539296606798"><ele>275.0</ele><time>2026-04-26T07:43:50Z</time></trkpt><trkpt lat="43.34380416328573" lon="11.916614782835344"><ele>275.0</ele><time>2026-04-26T07:43:51Z</time></trkpt><trkpt lat="43.34390381728838" lon="11.916693103036424"><ele>275.0</ele><time>2026-04-26T07:43:52Z</time></trkpt><trkpt lat="43.344004306922386" lon="11.916770768957345"><ele>275.0</ele><time>2026-04-26T07:43:53Z</time></trkpt><trkpt lat="43.344113410675725" lon="11.916848776537117"><ele>276.75</ele><time>2026-04-26T07:43:54Z</time></trkpt><trkpt lat="43.34421129342169" lon="11.916927829844923"><ele>278.5</ele><time>2026-04-26T07:43:55Z</time></trkpt><trkpt lat="43.34432142037702" lon="11.917009762938156"><ele>280.25</ele><time>2026-04-26T07:43:56Z</time></trkpt><trkpt lat="43.34443639297605" lon="11.917072217674383"><ele>282.0</ele><time>2026-04-26T07:43:57Z</time></trkpt><trkpt lat="43.34455381310625" lon="11.917151413016947"><ele>282.0</ele><time>2026-04-26T07:43:58Z</time></trkpt><trkpt lat="43.34467092586513" lon="11.917226509413743"><ele>282.0</ele><time>2026-04-26T07:43:59Z</time></trkpt><trkpt lat="43.3447680640323" lon="11.917320275463418"><ele>282.0</ele><time>2026-04-26T07:44:00Z</time></trkpt><trkpt lat="43.34487546812246" lon="11.917415222004387"><ele>282.0</ele><time>2026-04-26T07:44:01Z</time></trkpt><trkpt lat="43.34498570469289" lon="11.917506313264264"><ele>283.0</ele><time>2026-04-26T07:44:02Z</time></trkpt><trkpt lat="43.3450709438809" lon="11.917566757310839"><ele>284.0</ele><time>2026-04-26T07:44:03Z</time></trkpt><trkpt lat="43.34513261615174" lon="11.91760804182893"><ele>285.0</ele><time>2026-04-26T07:44:04Z</time></trkpt><trkpt lat="43.345201373117874" lon="11.917659744673813"><ele>286.0</ele><time>2026-04-26T07:44:09Z</time></trkpt><trkpt lat="43.34521605468713" lon="11.917773172856302"><ele>287.0</ele><time>2026-04-26T07:44:11Z</time></trkpt><trkpt lat="43.345191338797044" lon="11.917908492785337"><ele>288.0</ele><time>2026-04-26T07:44:13Z</time></trkpt><trkpt lat="43.34515589607528" lon="11.917981889762201"><ele>289.0</ele><time>2026-04-26T07:44:14Z</time></trkpt><trkpt lat="43.34506398778068" lon="11.918094339240291"><ele>290.0</ele><time>2026-04-26T07:44:16Z</time></trkpt><trkpt lat="43.34501482332867" lon="11.918154768127579"><ele>291.0</ele><time>2026-04-26T07:44:17Z</time></trkpt><trkpt lat="43.344967406397465" lon="11.918214543632127"><ele>292.0</ele><time>2026-04-26T07:44:18Z</time></trkpt><trkpt lat="43.34490391944067" lon="11.9183342348929"><ele>293.0</ele><time>2026-04-26T07:44:20Z</time></trkpt><trkpt lat="43.34483820914462" lon="11.918418876664521"><ele>293.0</ele><time>2026-04-26T07:44:21Z</time></trkpt><trkpt lat="43.344785813835436" lon="11.918511333937973"><ele>293.0</ele><time>2026-04-26T07:44:22Z</time></trkpt><trkpt lat="43.34474681627295" lon="11.918588003235955"><ele>293.0</ele><time>2026-04-26T07:44:23Z</time></trkpt><trkpt lat="43.3447087253641" lon="11.918670538635583"><ele>293.0</ele><time>2026-04-26T07:44:24Z</time></trkpt><trkpt lat="43.34468835139189" lon="11.918755234317455"><ele>293.0</ele><time>2026-04-26T07:44:25Z</time></trkpt><trkpt lat="43.34464204167953" lon="11.918822285126428"><ele>293.0</ele><time>2026-04-26T07:44:26Z</time></trkpt><trkpt lat="43.34455551615258" lon="11.918908730012934"><ele>293.0</ele><time>2026-04-26T07:44:28Z</time></trkpt><trkpt lat="43.344568085072815" lon="11.919048628600114"><ele>293.0</ele><time>2026-04-26T07:44:29Z</time></trkpt><trkpt lat="43.34454634614708" lon="11.919151137168694"><ele>293.0</ele><time>2026-04-26T07:44:31Z</time></trkpt><trkpt lat="43.344515463209646" lon="11.919263143072284"><ele>293.0</ele><time>2026-04-26T07:44:33Z</time></trkpt><trkpt lat="43.34445063336844" lon="11.919417355330264"><ele>293.0</ele><time>2026-04-26T07:44:35Z</time></trkpt><trkpt lat="43.34443072418741" lon="11.91949961402909"><ele>294.8</ele><time>2026-04-26T07:44:36Z</time></trkpt><trkpt lat="43.344394999498924" lon="11.91963740130317"><ele>296.6</ele><time>2026-04-26T07:44:38Z</time></trkpt><trkpt lat="43.34435629907159" lon="11.919796222414018"><ele>298.4</ele><time>2026-04-26T07:44:40Z</time></trkpt><trkpt lat="43.34432333483437" lon="11.919939229858656"><ele>300.2</ele><time>2026-04-26T07:44:42Z</time></trkpt><trkpt lat="43.344289938904055" lon="11.920078641700698"><ele>302.0</ele><time>2026-04-26T07:44:44Z</time></trkpt><trkpt lat="43.34425880355924" lon="11.920225767799806"><ele>304.0</ele><time>2026-04-26T07:44:46Z</time></trkpt><trkpt lat="43.34423501645462" lon="11.920394932703244"><ele>306.0</ele><time>2026-04-26T07:44:48Z</time></trkpt><trkpt lat="43.3442212877184" lon="11.92048628789916"><ele>308.0</ele><time>2026-04-26T07:44:49Z</time></trkpt><trkpt lat="43.34420572915306" lon="11.920574912803614"><ele>310.0</ele><time>2026-04-26T07:44:50Z</time></trkpt><trkpt lat="43.34416812436635" lon="11.920724655333933"><ele>312.0</ele><time>2026-04-26T07:44:52Z</time></trkpt><trkpt lat="43.34411922445787" lon="11.920865099309786"><ele>313.6</ele><time>2026-04-26T07:44:54Z</time></trkpt><trkpt lat="43.34405554502263" lon="11.920958553006"><ele>315.2</ele><time>2026-04-26T07:44:56Z</time></trkpt><trkpt lat="43.343992602927145" lon="11.92101823662936"><ele>316.8</ele><time>2026-04-26T07:44:58Z</time></trkpt><trkpt lat="43.343940032942676" lon="11.921112118187967"><ele>318.4</ele><time>2026-04-26T07:45:01Z</time></trkpt><trkpt lat="43.343855670152074" lon="11.921196100090063"><ele>320.0</ele><time>2026-04-26T07:45:06Z</time></trkpt><trkpt lat="43.34405978617759" lon="11.921026631441887"><ele>320.0</ele><time>2026-04-26T07:45:07Z</time></trkpt><trkpt lat="43.344140018566584" lon="11.921069146392462"><ele>320.0</ele><time>2026-04-26T07:45:10Z</time></trkpt><trkpt lat="43.34406711606091" lon="11.921074422210708"><ele>320.0</ele><time>2026-04-26T07:46:14Z</time></trkpt><trkpt lat="43.34402191642987" lon="11.921273797589569"><ele>320.0</ele><time>2026-04-26T07:46:16Z</time></trkpt><trkpt lat="43.34407014589184" lon="11.92120901191941"><ele>320.0</ele><time>2026-04-26T07:48:29Z</time></trkpt><trkpt lat="43.344143341090984" lon="11.921221647464405"><ele>320.0</ele><time>2026-04-26T07:48:45Z</time></trkpt><trkpt lat="43.34407684877011" lon="11.921220034105199"><ele>320.0</ele><time>2026-04-26T07:50:20Z</time></trkpt><trkpt lat="43.34395970218611" lon="11.921217301691154"><ele>320.0</ele><time>2026-04-26T07:50:45Z</time></trkpt><trkpt lat="43.34392095302358" lon="11.921299982632151"><ele>320.0</ele><time>2026-04-26T07:50:52Z</time></trkpt><trkpt lat="43.3438935828227" lon="11.921398411711777"><ele>320.0</ele><time>2026-04-26T07:50:59Z</time></trkpt><trkpt lat="43.34381534368036" lon="11.921398159892949"><ele>320.0</ele><time>2026-04-26T07:51:08Z</time></trkpt><trkpt lat="43.343752072954366" lon="11.921376603272961"><ele>320.0</ele><time>2026-04-26T07:51:34Z</time></trkpt><trkpt lat="43.34380117622805" lon="11.921314629765142"><ele>320.0</ele><time>2026-04-26T07:51:45Z</time></trkpt><trkpt lat="43.343738087797064" lon="11.921313690631417"><ele>320.0</ele><time>2026-04-26T07:51:50Z</time></trkpt><trkpt lat="43.343681946464066" lon="11.921363919437486"><ele>320.0</ele><time>2026-04-26T07:52:00Z</time></trkpt><trkpt lat="43.34366485633162" lon="11.921276419665366"><ele>320.0</ele><time>2026-04-26T07:52:08Z</time></trkpt><trkpt lat="43.34372892562989" lon="11.92126310955499"><ele>320.0</ele><time>2026-04-26T07:53:50Z</time></trkpt><trkpt lat="43.3437707753666" lon="11.921327971691637"><ele>320.0</ele><time>2026-04-26T07:53:59Z</time></trkpt><trkpt lat="43.343953087746264" lon="11.921210584364248"><ele>320.0</ele><time>2026-04-26T07:54:09Z</time></trkpt><trkpt lat="43.34383263005163" lon="11.921304709654112"><ele>320.0</ele><time>2026-04-26T07:54:26Z</time></trkpt><trkpt lat="43.34389330565269" lon="11.92139292566158"><ele>320.0</ele><time>2026-04-26T07:54:36Z</time></trkpt><trkpt lat="43.34384959045301" lon="11.921281252401638"><ele>320.0</ele><time>2026-04-26T07:56:18Z</time></trkpt><trkpt lat="43.343786936654936" lon="11.921302687349232"><ele>320.0</ele><time>2026-04-26T07:56:23Z</time></trkpt><trkpt lat="43.343832737964235" lon="11.921368252556352"><ele>320.75</ele><time>2026-04-26T08:10:01Z</time></trkpt><trkpt lat="43.34386642126537" lon="11.921466237912808"><ele>321.5</ele><time>2026-04-26T08:10:10Z</time></trkpt><trkpt lat="43.343811313270805" lon="11.921345998260989"><ele>322.25</ele><time>2026-04-26T08:10:28Z</time></trkpt><trkpt lat="43.34376117993445" lon="11.92150699216563"><ele>323.0</ele><time>2026-04-26T08:10:36Z</time></trkpt><trkpt lat="43.3435817207957" lon="11.921317199463791"><ele>323.0</ele><time>2026-04-26T08:10:47Z</time></trkpt><trkpt lat="43.34372028049952" lon="11.92130800767656"><ele>323.0</ele><time>2026-04-26T08:11:04Z</time></trkpt><trkpt lat="43.34385462109334" lon="11.921418523427025"><ele>323.0</ele><time>2026-04-26T08:11:15Z</time></trkpt><trkpt lat="43.34378283581981" lon="11.921287481762562"><ele>323.0</ele><time>2026-04-26T08:11:47Z</time></trkpt><trkpt lat="43.343845305998954" lon="11.921262453587392"><ele>322.5</ele><time>2026-04-26T08:11:54Z</time></trkpt><trkpt lat="43.343885951706476" lon="11.921395479751682"><ele>322.0</ele><time>2026-04-26T08:12:03Z</time></trkpt><trkpt lat="43.34394412348226" lon="11.921355534709772"><ele>321.5</ele><time>2026-04-26T08:12:09Z</time></trkpt><trkpt lat="43.34394853242063" lon="11.921256128507693"><ele>321.0</ele><time>2026-04-26T08:12:15Z</time></trkpt><trkpt lat="43.344027770109086" lon="11.921223223913731"><ele>320.5</ele><time>2026-04-26T08:12:24Z</time></trkpt><trkpt lat="43.34409132790941" lon="11.92125297598796"><ele>320.0</ele><time>2026-04-26T08:13:10Z</time></trkpt><trkpt lat="43.34405020656075" lon="11.921162345168947"><ele>320.0</ele><time>2026-04-26T08:13:36Z</time></trkpt><trkpt lat="43.34403212523062" lon="11.921276885450165"><ele>320.0</ele><time>2026-04-26T08:14:17Z</time></trkpt><trkpt lat="43.344065457023305" lon="11.921144316732343"><ele>320.0</ele><time>2026-04-26T08:17:17Z</time></trkpt><trkpt lat="43.3440660129874" lon="11.921236592750514"><ele>320.0</ele><time>2026-04-26T08:17:18Z</time></trkpt><trkpt lat="43.34404660487378" lon="11.921342794674304"><ele>320.0</ele><time>2026-04-26T08:17:25Z</time></trkpt><trkpt lat="43.34407187443351" lon="11.921182205392041"><ele>320.0</ele><time>2026-04-26T08:18:30Z</time></trkpt><trkpt lat="43.34412871231512" lon="11.921109027372413"><ele>320.0</ele><time>2026-04-26T08:18:33Z</time></trkpt><trkpt lat="43.34413878630315" lon="11.921009778918895"><ele>320.0</ele><time>2026-04-26T08:18:36Z</time></trkpt><trkpt lat="43.34406627571876" lon="11.920994112063447"><ele>320.0</ele><time>2026-04-26T08:19:00Z</time></trkpt><trkpt lat="43.34400191321059" lon="11.920992286508543"><ele>320.0</ele><time>2026-04-26T08:19:02Z</time></trkpt><trkpt lat="43.343935248040886" lon="11.9210789774833"><ele>320.0</ele><time>2026-04-26T08:19:04Z</time></trkpt><trkpt lat="43.34387166594224" lon="11.921178618819571"><ele>320.0</ele><time>2026-04-26T08:19:06Z</time></trkpt><trkpt lat="43.343848249253014" lon="11.92129238183335"><ele>320.0</ele><time>2026-04-26T08:19:08Z</time></trkpt><trkpt lat="43.34386611126923" lon="11.921379591058933"><ele>320.0</ele><time>2026-04-26T08:19:10Z</time></trkpt><trkpt lat="43.34390489403778" lon="11.921480725808868"><ele>320.0</ele><time>2026-04-26T08:19:12Z</time></trkpt><trkpt lat="43.343962219497456" lon="11.921560098465783"><ele>320.0</ele><time>2026-04-26T08:19:14Z</time></trkpt><trkpt lat="43.34403152666908" lon="11.921695411799224"><ele>320.0</ele><time>2026-04-26T08:19:16Z</time></trkpt><trkpt lat="43.34408456428511" lon="11.921839120668896"><ele>320.5</ele><time>2026-04-26T08:19:18Z</time></trkpt><trkpt lat="43.34415240645166" lon="11.921984481659937"><ele>321.0</ele><time>2026-04-26T08:19:20Z</time></trkpt><trkpt lat="43.34419738591417" lon="11.922047213605756"><ele>321.5</ele><time>2026-04-26T08:19:21Z</time></trkpt><trkpt lat="43.34423015241126" lon="11.922125926696621"><ele>322.0</ele><time>2026-04-26T08:19:22Z</time></trkpt><trkpt lat="43.34426006275047" lon="11.922204070982527"><ele>322.5</ele><time>2026-04-26T08:19:23Z</time></trkpt><trkpt lat="43.34433860963587" lon="11.922299602299843"><ele>323.0</ele><time>2026-04-26T08:19:25Z</time></trkpt><trkpt lat="43.344378616273595" lon="11.922439759857046"><ele>323.00000000000006</ele><time>2026-04-26T08:19:26Z</time></trkpt><trkpt lat="43.34441177231089" lon="11.922537572606503"><ele>323.0</ele><time>2026-04-26T08:19:27Z</time></trkpt><trkpt lat="43.344448858858776" lon="11.922624963283491"><ele>323.0</ele><time>2026-04-26T08:19:28Z</time></trkpt><trkpt lat="43.34449944554522" lon="11.922699700903234"><ele>323.0</ele><time>2026-04-26T08:19:29Z</time></trkpt><trkpt lat="43.34454388508912" lon="11.922767908220738"><ele>323.0</ele><time>2026-04-26T08:19:30Z</time></trkpt><trkpt lat="43.3445517332789" lon="11.922859427374268"><ele>323.00000000000006</ele><time>2026-04-26T08:19:31Z</time></trkpt><trkpt lat="43.34462171202823" lon="11.922931740380866"><ele>323.0</ele><time>2026-04-26T08:19:32Z</time></trkpt><trkpt lat="43.34468345680145" lon="11.923051798566807"><ele>322.0</ele><time>2026-04-26T08:19:34Z</time></trkpt><trkpt lat="43.34476494379969" lon="11.923186440909495"><ele>321.0</ele><time>2026-04-26T08:19:36Z</time></trkpt><trkpt lat="43.34480331771488" lon="11.923291695016756"><ele>320.0</ele><time>2026-04-26T08:19:37Z</time></trkpt><trkpt lat="43.34484457524999" lon="11.92339090225295"><ele>319.0</ele><time>2026-04-26T08:19:38Z</time></trkpt><trkpt lat="43.34491246266367" lon="11.923456184964333"><ele>318.0</ele><time>2026-04-26T08:19:39Z</time></trkpt><trkpt lat="43.34495749979608" lon="11.923545914374037"><ele>318.0</ele><time>2026-04-26T08:19:40Z</time></trkpt><trkpt lat="43.34501460686115" lon="11.923641017408"><ele>318.0</ele><time>2026-04-26T08:19:41Z</time></trkpt><trkpt lat="43.345077396561464" lon="11.923728538480622"><ele>318.0</ele><time>2026-04-26T08:19:42Z</time></trkpt><trkpt lat="43.34512971410968" lon="11.92384507216563"><ele>318.0</ele><time>2026-04-26T08:19:43Z</time></trkpt><trkpt lat="43.34520245591018" lon="11.923942256303341"><ele>318.0</ele><time>2026-04-26T08:19:44Z</time></trkpt><trkpt lat="43.34528332557519" lon="11.924043304003682"><ele>318.0</ele><time>2026-04-26T08:19:45Z</time></trkpt><trkpt lat="43.345367619291565" lon="11.924145925118678"><ele>318.0</ele><time>2026-04-26T08:19:46Z</time></trkpt><trkpt lat="43.345458153558816" lon="11.924254157655538"><ele>318.0</ele><time>2026-04-26T08:19:47Z</time></trkpt><trkpt lat="43.34554827247972" lon="11.924361751298447"><ele>318.0</ele><time>2026-04-26T08:19:48Z</time></trkpt><trkpt lat="43.3456330383573" lon="11.924460530871498"><ele>317.75</ele><time>2026-04-26T08:19:49Z</time></trkpt><trkpt lat="43.34572050471069" lon="11.924562562993922"><ele>317.5</ele><time>2026-04-26T08:19:50Z</time></trkpt><trkpt lat="43.34580186640789" lon="11.924656844100992"><ele>317.25</ele><time>2026-04-26T08:19:51Z</time></trkpt><trkpt lat="43.34589627933265" lon="11.924746478525174"><ele>317.0</ele><time>2026-04-26T08:19:52Z</time></trkpt><trkpt lat="43.346007094196125" lon="11.924847492019458"><ele>317.0</ele><time>2026-04-26T08:19:53Z</time></trkpt><trkpt lat="43.34611662045613" lon="11.924974941308633"><ele>317.0</ele><time>2026-04-26T08:19:54Z</time></trkpt><trkpt lat="43.3462411874401" lon="11.925021247633001"><ele>317.0</ele><time>2026-04-26T08:19:55Z</time></trkpt><trkpt lat="43.34640345355882" lon="11.92508334221554"><ele>317.0</ele><time>2026-04-26T08:19:56Z</time></trkpt><trkpt lat="43.34652182199979" lon="11.925173235630885"><ele>316.0</ele><time>2026-04-26T08:19:57Z</time></trkpt><trkpt lat="43.34665124137886" lon="11.925256401676743"><ele>315.0</ele><time>2026-04-26T08:19:58Z</time></trkpt><trkpt lat="43.346788792427695" lon="11.92537416018737"><ele>314.0</ele><time>2026-04-26T08:19:59Z</time></trkpt><trkpt lat="43.346932947571524" lon="11.925442645019729"><ele>314.0</ele><time>2026-04-26T08:20:00Z</time></trkpt><trkpt lat="43.34707743071979" lon="11.925508426976757"><ele>314.0</ele><time>2026-04-26T08:20:01Z</time></trkpt><trkpt lat="43.34722680127075" lon="11.925532667881974"><ele>314.0</ele><time>2026-04-26T08:20:02Z</time></trkpt><trkpt lat="43.34735341507366" lon="11.925569095022658"><ele>314.0</ele><time>2026-04-26T08:20:03Z</time></trkpt><trkpt lat="43.34747194886614" lon="11.925547230163264"><ele>315.5</ele><time>2026-04-26T08:20:04Z</time></trkpt><trkpt lat="43.34757660719574" lon="11.925480410074533"><ele>317.0</ele><time>2026-04-26T08:20:05Z</time></trkpt><trkpt lat="43.3476936726891" lon="11.925362728781367"><ele>318.5</ele><time>2026-04-26T08:20:06Z</time></trkpt><trkpt lat="43.34778681171615" lon="11.92521829986917"><ele>320.0</ele><time>2026-04-26T08:20:07Z</time></trkpt><trkpt lat="43.34792648167098" lon="11.925137363348957"><ele>324.0</ele><time>2026-04-26T08:20:08Z</time></trkpt><trkpt lat="43.348073469813464" lon="11.925059036287784"><ele>328.0</ele><time>2026-04-26T08:20:09Z</time></trkpt><trkpt lat="43.348217267824225" lon="11.92502137892854"><ele>332.0</ele><time>2026-04-26T08:20:10Z</time></trkpt><trkpt lat="43.34834495200877" lon="11.924994104198941"><ele>336.0</ele><time>2026-04-26T08:20:11Z</time></trkpt><trkpt lat="43.34846201078154" lon="11.925011863792598"><ele>336.0</ele><time>2026-04-26T08:20:12Z</time></trkpt><trkpt lat="43.348564044021344" lon="11.92505954568882"><ele>336.0</ele><time>2026-04-26T08:20:13Z</time></trkpt><trkpt lat="43.34861636993591" lon="11.925207896232987"><ele>336.0</ele><time>2026-04-26T08:20:14Z</time></trkpt><trkpt lat="43.34867236792338" lon="11.925364385336806"><ele>336.0</ele><time>2026-04-26T08:20:15Z</time></trkpt><trkpt lat="43.34872398821855" lon="11.925540677868334"><ele>335.75</ele><time>2026-04-26T08:20:16Z</time></trkpt><trkpt lat="43.34882108836358" lon="11.925697898301928"><ele>335.5</ele><time>2026-04-26T08:20:17Z</time></trkpt><trkpt lat="43.34892137471892" lon="11.925798111755077"><ele>335.25</ele><time>2026-04-26T08:20:18Z</time></trkpt><trkpt lat="43.349055501702864" lon="11.925880662498965"><ele>335.0</ele><time>2026-04-26T08:20:19Z</time></trkpt><trkpt lat="43.349199303738004" lon="11.925919588497333"><ele>335.0</ele><time>2026-04-26T08:20:20Z</time></trkpt><trkpt lat="43.34933668138962" lon="11.925922035204842"><ele>335.0</ele><time>2026-04-26T08:20:21Z</time></trkpt><trkpt lat="43.34947258965246" lon="11.925875264364024"><ele>335.0</ele><time>2026-04-26T08:20:22Z</time></trkpt><trkpt lat="43.349602284190844" lon="11.92581091533797"><ele>335.0</ele><time>2026-04-26T08:20:23Z</time></trkpt><trkpt lat="43.34973793231475" lon="11.925719761975076"><ele>334.5</ele><time>2026-04-26T08:20:24Z</time></trkpt><trkpt lat="43.34987645838444" lon="11.925671475931278"><ele>334.0</ele><time>2026-04-26T08:20:25Z</time></trkpt><trkpt lat="43.3500036872328" lon="11.925602965051427"><ele>333.5</ele><time>2026-04-26T08:20:26Z</time></trkpt><trkpt lat="43.3501214920855" lon="11.925514349752273"><ele>333.0</ele><time>2026-04-26T08:20:27Z</time></trkpt><trkpt lat="43.350233630981506" lon="11.92540080129076"><ele>333.0</ele><time>2026-04-26T08:20:28Z</time></trkpt><trkpt lat="43.350348300760395" lon="11.925297742545013"><ele>333.0</ele><time>2026-04-26T08:20:29Z</time></trkpt><trkpt lat="43.350465209993516" lon="11.925208302467357"><ele>333.0</ele><time>2026-04-26T08:20:30Z</time></trkpt><trkpt lat="43.35058185250887" lon="11.925145251796053"><ele>333.0</ele><time>2026-04-26T08:20:31Z</time></trkpt><trkpt lat="43.350711050112416" lon="11.925112659480018"><ele>335.25</ele><time>2026-04-26T08:20:32Z</time></trkpt><trkpt lat="43.35084808841951" lon="11.925110341510154"><ele>337.5</ele><time>2026-04-26T08:20:33Z</time></trkpt><trkpt lat="43.35098252483773" lon="11.925122289363397"><ele>339.75</ele><time>2026-04-26T08:20:34Z</time></trkpt><trkpt lat="43.35109997220997" lon="11.925141939489835"><ele>342.0</ele><time>2026-04-26T08:20:35Z</time></trkpt><trkpt lat="43.3511760467671" lon="11.925191853240596"><ele>342.0</ele><time>2026-04-26T08:20:36Z</time></trkpt><trkpt lat="43.35122291864727" lon="11.92527837641147"><ele>342.0</ele><time>2026-04-26T08:20:37Z</time></trkpt><trkpt lat="43.351245581882736" lon="11.925396346547185"><ele>342.0</ele><time>2026-04-26T08:20:38Z</time></trkpt><trkpt lat="43.351189607517426" lon="11.925575868021877"><ele>342.0</ele><time>2026-04-26T08:20:39Z</time></trkpt><trkpt lat="43.35111751628379" lon="11.9257588019787"><ele>342.75</ele><time>2026-04-26T08:20:40Z</time></trkpt><trkpt lat="43.35106789332031" lon="11.925932177682384"><ele>343.5</ele><time>2026-04-26T08:20:41Z</time></trkpt><trkpt lat="43.350990454196065" lon="11.926132442524494"><ele>344.25</ele><time>2026-04-26T08:20:42Z</time></trkpt><trkpt lat="43.35094801459257" lon="11.926308843835672"><ele>345.0</ele><time>2026-04-26T08:20:43Z</time></trkpt><trkpt lat="43.35090472512156" lon="11.926500631834728"><ele>345.0</ele><time>2026-04-26T08:20:44Z</time></trkpt><trkpt lat="43.3508719466954" lon="11.926700887967026"><ele>345.0</ele><time>2026-04-26T08:20:45Z</time></trkpt><trkpt lat="43.350844972636764" lon="11.926903747227476"><ele>345.0</ele><time>2026-04-26T08:20:46Z</time></trkpt><trkpt lat="43.35082061767365" lon="11.927109377897434"><ele>346.5</ele><time>2026-04-26T08:20:47Z</time></trkpt><trkpt lat="43.35079041592163" lon="11.927311138068092"><ele>348.0</ele><time>2026-04-26T08:20:48Z</time></trkpt><trkpt lat="43.350764921246096" lon="11.927512457174098"><ele>349.5</ele><time>2026-04-26T08:20:49Z</time></trkpt><trkpt lat="43.35074777371719" lon="11.927700892132117"><ele>351.0</ele><time>2026-04-26T08:20:50Z</time></trkpt><trkpt lat="43.350761410047426" lon="11.927877633886785"><ele>351.0</ele><time>2026-04-26T08:20:51Z</time></trkpt><trkpt lat="43.350838083204145" lon="11.928044041634008"><ele>351.0</ele><time>2026-04-26T08:20:52Z</time></trkpt><trkpt lat="43.35094688695015" lon="11.928173057983411"><ele>351.0</ele><time>2026-04-26T08:20:53Z</time></trkpt><trkpt lat="43.35109495012308" lon="11.928280042984806"><ele>351.0</ele><time>2026-04-26T08:20:54Z</time></trkpt><trkpt lat="43.35119611823198" lon="11.928375879541358"><ele>351.0</ele><time>2026-04-26T08:20:55Z</time></trkpt><trkpt lat="43.35132387110707" lon="11.928442364815847"><ele>351.0</ele><time>2026-04-26T08:20:56Z</time></trkpt><trkpt lat="43.35149073941421" lon="11.928500731542204"><ele>351.0</ele><time>2026-04-26T08:20:57Z</time></trkpt><trkpt lat="43.35164985391434" lon="11.928531888754193"><ele>347.3333333333333</ele><time>2026-04-26T08:20:58Z</time></trkpt><trkpt lat="43.35178848822288" lon="11.928559321879812"><ele>343.66666666666663</ele><time>2026-04-26T08:20:59Z</time></trkpt><trkpt lat="43.35193814954996" lon="11.928589722139932"><ele>340.0</ele><time>2026-04-26T08:21:00Z</time></trkpt><trkpt lat="43.35210188021137" lon="11.928609597097662"><ele>343.3333333333333</ele><time>2026-04-26T08:21:01Z</time></trkpt><trkpt lat="43.35225542852439" lon="11.928655014057322"><ele>346.6666666666667</ele><time>2026-04-26T08:21:02Z</time></trkpt><trkpt lat="43.352411152434016" lon="11.928678473317298"><ele>350.0</ele><time>2026-04-26T08:21:03Z</time></trkpt><trkpt lat="43.35255077509333" lon="11.928680001151978"><ele>350.0</ele><time>2026-04-26T08:21:04Z</time></trkpt><trkpt lat="43.352685535195214" lon="11.928665057876742"><ele>350.0</ele><time>2026-04-26T08:21:05Z</time></trkpt><trkpt lat="43.35279791303042" lon="11.928668508430086"><ele>350.0</ele><time>2026-04-26T08:21:06Z</time></trkpt><trkpt lat="43.352900304960585" lon="11.928689689417633"><ele>350.0</ele><time>2026-04-26T08:21:07Z</time></trkpt><trkpt lat="43.3529754306614" lon="11.928771111216356"><ele>350.0</ele><time>2026-04-26T08:21:08Z</time></trkpt><trkpt lat="43.35304670867144" lon="11.928896880455591"><ele>355.5</ele><time>2026-04-26T08:21:09Z</time></trkpt><trkpt lat="43.353120450260704" lon="11.92904387916439"><ele>361.0</ele><time>2026-04-26T08:21:10Z</time></trkpt><trkpt lat="43.353141483894966" lon="11.929220565862929"><ele>366.5</ele><time>2026-04-26T08:21:11Z</time></trkpt><trkpt lat="43.35316526159562" lon="11.929416572888412"><ele>372.0</ele><time>2026-04-26T08:21:12Z</time></trkpt><trkpt lat="43.353138536393466" lon="11.929604352382732"><ele>373.0</ele><time>2026-04-26T08:21:13Z</time></trkpt><trkpt lat="43.35307746087268" lon="11.929790789779114"><ele>374.0</ele><time>2026-04-26T08:21:14Z</time></trkpt><trkpt lat="43.35302573560722" lon="11.930009145139543"><ele>375.0</ele><time>2026-04-26T08:21:15Z</time></trkpt><trkpt lat="43.35300782005631" lon="11.93023488066034"><ele>367.3333333333333</ele><time>2026-04-26T08:21:16Z</time></trkpt><trkpt lat="43.35299043438732" lon="11.930450090102953"><ele>359.66666666666663</ele><time>2026-04-26T08:21:17Z</time></trkpt><trkpt lat="43.35298237121544" lon="11.930682900109925"><ele>352.0</ele><time>2026-04-26T08:21:18Z</time></trkpt><trkpt lat="43.3529545160691" lon="11.930905755137772"><ele>351.66666666666663</ele><time>2026-04-26T08:21:19Z</time></trkpt><trkpt lat="43.35294030153797" lon="11.931133631680249"><ele>351.3333333333333</ele><time>2026-04-26T08:21:20Z</time></trkpt><trkpt lat="43.35292444281403" lon="11.93137073621187"><ele>351.0</ele><time>2026-04-26T08:21:21Z</time></trkpt><trkpt lat="43.35291505638055" lon="11.93159706435978"><ele>353.0</ele><time>2026-04-26T08:21:22Z</time></trkpt><trkpt lat="43.352913434066316" lon="11.931834298293346"><ele>355.0</ele><time>2026-04-26T08:21:23Z</time></trkpt><trkpt lat="43.3528904534347" lon="11.932049708188025"><ele>357.0</ele><time>2026-04-26T08:21:24Z</time></trkpt><trkpt lat="43.352883528160426" lon="11.932249164964773"><ele>357.0</ele><time>2026-04-26T08:21:25Z</time></trkpt><trkpt lat="43.35286147678663" lon="11.932425456235332"><ele>357.0</ele><time>2026-04-26T08:21:26Z</time></trkpt><trkpt lat="43.352831974866284" lon="11.93262296341817"><ele>357.0</ele><time>2026-04-26T08:21:27Z</time></trkpt><trkpt lat="43.35269864499813" lon="11.932745570084633"><ele>357.0</ele><time>2026-04-26T08:21:28Z</time></trkpt><trkpt lat="43.35263553827956" lon="11.932900656231716"><ele>357.5</ele><time>2026-04-26T08:21:29Z</time></trkpt><trkpt lat="43.35260202186226" lon="11.933068233158709"><ele>358.0</ele><time>2026-04-26T08:21:30Z</time></trkpt><trkpt lat="43.352627313655276" lon="11.933282493686978"><ele>358.5</ele><time>2026-04-26T08:21:31Z</time></trkpt><trkpt lat="43.35265585297691" lon="11.933478212269668"><ele>359.0</ele><time>2026-04-26T08:21:32Z</time></trkpt><trkpt lat="43.35270791063281" lon="11.933664268632223"><ele>359.0</ele><time>2026-04-26T08:21:33Z</time></trkpt><trkpt lat="43.352771793460654" lon="11.933810449436416"><ele>359.0</ele><time>2026-04-26T08:21:34Z</time></trkpt><trkpt lat="43.35286029490261" lon="11.933916960818653"><ele>359.0</ele><time>2026-04-26T08:21:35Z</time></trkpt><trkpt lat="43.35297726404358" lon="11.933972769682159"><ele>359.0</ele><time>2026-04-26T08:21:36Z</time></trkpt><trkpt lat="43.35312915994598" lon="11.933992769328713"><ele>362.0</ele><time>2026-04-26T08:21:37Z</time></trkpt><trkpt lat="43.35326425587385" lon="11.934027378764723"><ele>365.0</ele><time>2026-04-26T08:21:38Z</time></trkpt><trkpt lat="43.35340934230481" lon="11.934053117323986"><ele>368.0</ele><time>2026-04-26T08:21:39Z</time></trkpt><trkpt lat="43.35355656441324" lon="11.93407987193289"><ele>371.0</ele><time>2026-04-26T08:21:40Z</time></trkpt><trkpt lat="43.353708782262515" lon="11.934111036829483"><ele>371.0</ele><time>2026-04-26T08:21:41Z</time></trkpt><trkpt lat="43.35386439305939" lon="11.934150870217996"><ele>371.0</ele><time>2026-04-26T08:21:42Z</time></trkpt><trkpt lat="43.35402345058627" lon="11.934193335524304"><ele>371.0</ele><time>2026-04-26T08:21:43Z</time></trkpt><trkpt lat="43.35422339997547" lon="11.934209329208896"><ele>372.6</ele><time>2026-04-26T08:21:44Z</time></trkpt><trkpt lat="43.35433015674993" lon="11.934241207916392"><ele>374.20000000000005</ele><time>2026-04-26T08:21:45Z</time></trkpt><trkpt lat="43.35445319137946" lon="11.934281214438967"><ele>375.79999999999995</ele><time>2026-04-26T08:21:46Z</time></trkpt><trkpt lat="43.35455099589265" lon="11.934344087829583"><ele>377.4</ele><time>2026-04-26T08:21:47Z</time></trkpt><trkpt lat="43.354621236852154" lon="11.934421715112151"><ele>379.0</ele><time>2026-04-26T08:21:48Z</time></trkpt><trkpt lat="43.35465264247743" lon="11.93450567357045"><ele>379.0</ele><time>2026-04-26T08:21:49Z</time></trkpt><trkpt lat="43.35462835625675" lon="11.93463843659073"><ele>379.0</ele><time>2026-04-26T08:21:50Z</time></trkpt><trkpt lat="43.35455814420378" lon="11.93471853376695"><ele>379.0</ele><time>2026-04-26T08:21:51Z</time></trkpt><trkpt lat="43.35444755764156" lon="11.934794233869845"><ele>379.0</ele><time>2026-04-26T08:21:52Z</time></trkpt><trkpt lat="43.35434689956799" lon="11.934894048120354"><ele>379.0</ele><time>2026-04-26T08:21:53Z</time></trkpt><trkpt lat="43.354242600963545" lon="11.93501876130872"><ele>380.0</ele><time>2026-04-26T08:21:54Z</time></trkpt><trkpt lat="43.35416885375991" lon="11.935171150234297"><ele>381.0</ele><time>2026-04-26T08:21:55Z</time></trkpt><trkpt lat="43.35414263847696" lon="11.93536070505867"><ele>382.0</ele><time>2026-04-26T08:21:56Z</time></trkpt><trkpt lat="43.35417142258805" lon="11.935527393167959"><ele>383.0</ele><time>2026-04-26T08:21:57Z</time></trkpt><trkpt lat="43.3542246539066" lon="11.935700189770921"><ele>383.0</ele><time>2026-04-26T08:21:58Z</time></trkpt><trkpt lat="43.354280316630366" lon="11.935866086433002"><ele>383.0</ele><time>2026-04-26T08:21:59Z</time></trkpt><trkpt lat="43.354340276651016" lon="11.936031546525935"><ele>383.0</ele><time>2026-04-26T08:22:00Z</time></trkpt><trkpt lat="43.3543566108233" lon="11.936230079119381"><ele>383.0</ele><time>2026-04-26T08:22:01Z</time></trkpt><trkpt lat="43.35432754646694" lon="11.936437755217291"><ele>383.5</ele><time>2026-04-26T08:22:02Z</time></trkpt><trkpt lat="43.35429674435935" lon="11.936642685128433"><ele>384.0</ele><time>2026-04-26T08:22:03Z</time></trkpt><trkpt lat="43.35427138687877" lon="11.936850013246858"><ele>384.5</ele><time>2026-04-26T08:22:04Z</time></trkpt><trkpt lat="43.354260867214144" lon="11.93704250077874"><ele>385.0</ele><time>2026-04-26T08:22:05Z</time></trkpt><trkpt lat="43.35426202884539" lon="11.937222117283628"><ele>385.0</ele><time>2026-04-26T08:22:06Z</time></trkpt><trkpt lat="43.35429796474081" lon="11.937369699003078"><ele>385.0</ele><time>2026-04-26T08:22:07Z</time></trkpt><trkpt lat="43.35435473207998" lon="11.937535738529917"><ele>385.0</ele><time>2026-04-26T08:22:08Z</time></trkpt><trkpt lat="43.35444806061719" lon="11.93769749435679"><ele>385.0</ele><time>2026-04-26T08:22:09Z</time></trkpt><trkpt lat="43.354532488391776" lon="11.937790230704339"><ele>386.0</ele><time>2026-04-26T08:22:10Z</time></trkpt><trkpt lat="43.35465468201965" lon="11.937818054882692"><ele>387.0</ele><time>2026-04-26T08:22:11Z</time></trkpt><trkpt lat="43.35480103470308" lon="11.937768744580055"><ele>388.0</ele><time>2026-04-26T08:22:12Z</time></trkpt><trkpt lat="43.354931632972146" lon="11.937718087508111"><ele>389.0</ele><time>2026-04-26T08:22:13Z</time></trkpt><trkpt lat="43.35506604266192" lon="11.937669153821567"><ele>389.0</ele><time>2026-04-26T08:22:14Z</time></trkpt><trkpt lat="43.355208682294986" lon="11.937617403682351"><ele>389.0</ele><time>2026-04-26T08:22:15Z</time></trkpt><trkpt lat="43.35533812195529" lon="11.937576591758138"><ele>389.0</ele><time>2026-04-26T08:22:16Z</time></trkpt><trkpt lat="43.355453907359326" lon="11.93756497491374"><ele>389.0</ele><time>2026-04-26T08:22:17Z</time></trkpt><trkpt lat="43.3555598887529" lon="11.937593886742924"><ele>395.75</ele><time>2026-04-26T08:22:18Z</time></trkpt><trkpt lat="43.35566618774022" lon="11.937698783722134"><ele>402.5</ele><time>2026-04-26T08:22:19Z</time></trkpt><trkpt lat="43.355721092678884" lon="11.937846182581932"><ele>409.25</ele><time>2026-04-26T08:22:20Z</time></trkpt><trkpt lat="43.355724244595805" lon="11.938031293239302"><ele>416.0</ele><time>2026-04-26T08:22:21Z</time></trkpt><trkpt lat="43.355700382678826" lon="11.938226058047974"><ele>417.0</ele><time>2026-04-26T08:22:22Z</time></trkpt><trkpt lat="43.35564462308616" lon="11.938406306788185"><ele>418.0</ele><time>2026-04-26T08:22:23Z</time></trkpt><trkpt lat="43.35557318533353" lon="11.938554295492912"><ele>419.0</ele><time>2026-04-26T08:22:24Z</time></trkpt><trkpt lat="43.35551831512124" lon="11.93868592194833"><ele>420.0</ele><time>2026-04-26T08:22:25Z</time></trkpt><trkpt lat="43.35549450245901" lon="11.938859249082821"><ele>417.25</ele><time>2026-04-26T08:22:26Z</time></trkpt><trkpt lat="43.35550279185036" lon="11.939041997417675"><ele>414.5</ele><time>2026-04-26T08:22:27Z</time></trkpt><trkpt lat="43.35554185204863" lon="11.939230080908622"><ele>411.75</ele><time>2026-04-26T08:22:28Z</time></trkpt><trkpt lat="43.355616692037444" lon="11.939406263950232"><ele>409.0</ele><time>2026-04-26T08:22:29Z</time></trkpt><trkpt lat="43.355719911374074" lon="11.939584787491434"><ele>409.0</ele><time>2026-04-26T08:22:30Z</time></trkpt><trkpt lat="43.35578727740363" lon="11.939741296435981"><ele>409.0</ele><time>2026-04-26T08:22:31Z</time></trkpt><trkpt lat="43.35591511103015" lon="11.939878053079612"><ele>409.0</ele><time>2026-04-26T08:22:32Z</time></trkpt><trkpt lat="43.356007045865304" lon="11.940036599424445"><ele>409.0</ele><time>2026-04-26T08:22:33Z</time></trkpt><trkpt lat="43.3561115050827" lon="11.940182384694085"><ele>406.75</ele><time>2026-04-26T08:22:34Z</time></trkpt><trkpt lat="43.35619146809225" lon="11.94033860232956"><ele>404.5</ele><time>2026-04-26T08:22:35Z</time></trkpt><trkpt lat="43.356294078351084" lon="11.940462752260657"><ele>402.25</ele><time>2026-04-26T08:22:36Z</time></trkpt><trkpt lat="43.35641502824288" lon="11.940561633479218"><ele>400.0</ele><time>2026-04-26T08:22:37Z</time></trkpt><trkpt lat="43.35654252010689" lon="11.94064533262885"><ele>406.0</ele><time>2026-04-26T08:22:38Z</time></trkpt><trkpt lat="43.35666542814833" lon="11.940746631529022"><ele>412.0</ele><time>2026-04-26T08:22:39Z</time></trkpt><trkpt lat="43.356785366708145" lon="11.940826464572877"><ele>418.0</ele><time>2026-04-26T08:22:40Z</time></trkpt><trkpt lat="43.35688807786498" lon="11.940903558475295"><ele>424.0</ele><time>2026-04-26T08:22:41Z</time></trkpt><trkpt lat="43.35696024628131" lon="11.940985113734788"><ele>424.4</ele><time>2026-04-26T08:22:42Z</time></trkpt><trkpt lat="43.357040542178595" lon="11.941042140859476"><ele>424.79999999999995</ele><time>2026-04-26T08:22:43Z</time></trkpt><trkpt lat="43.35703859131984" lon="11.941185209470913"><ele>425.20000000000005</ele><time>2026-04-26T08:22:44Z</time></trkpt><trkpt lat="43.357016449515456" lon="11.941334947471551"><ele>425.6</ele><time>2026-04-26T08:22:45Z</time></trkpt><trkpt lat="43.3569089991467" lon="11.941426022032534"><ele>426.0</ele><time>2026-04-26T08:22:46Z</time></trkpt><trkpt lat="43.35679137876882" lon="11.941553452459958"><ele>426.0</ele><time>2026-04-26T08:22:47Z</time></trkpt><trkpt lat="43.35666365937712" lon="11.941651443274795"><ele>426.0</ele><time>2026-04-26T08:22:48Z</time></trkpt><trkpt lat="43.356557119171434" lon="11.941772856558792"><ele>426.0</ele><time>2026-04-26T08:22:49Z</time></trkpt><trkpt lat="43.35644974693277" lon="11.941899771612166"><ele>426.0</ele><time>2026-04-26T08:22:50Z</time></trkpt><trkpt lat="43.35633576934476" lon="11.942010771691473"><ele>428.0</ele><time>2026-04-26T08:22:51Z</time></trkpt><trkpt lat="43.3562059626369" lon="11.942081608290712"><ele>430.0</ele><time>2026-04-26T08:22:52Z</time></trkpt><trkpt lat="43.35605681222026" lon="11.942135191329161"><ele>432.0</ele><time>2026-04-26T08:22:53Z</time></trkpt><trkpt lat="43.355909403119206" lon="11.942208190228325"><ele>432.0</ele><time>2026-04-26T08:22:54Z</time></trkpt><trkpt lat="43.355768037219825" lon="11.942269136739894"><ele>432.0</ele><time>2026-04-26T08:22:55Z</time></trkpt><trkpt lat="43.355620831270585" lon="11.942312326163124"><ele>432.0</ele><time>2026-04-26T08:22:56Z</time></trkpt><trkpt lat="43.355507763818814" lon="11.942361595771361"><ele>432.0</ele><time>2026-04-26T08:22:57Z</time></trkpt><trkpt lat="43.3553818781046" lon="11.942413914499882"><ele>429.5</ele><time>2026-04-26T08:22:58Z</time></trkpt><trkpt lat="43.35521126824121" lon="11.942483774706169"><ele>427.0</ele><time>2026-04-26T08:22:59Z</time></trkpt><trkpt lat="43.35509568499291" lon="11.942550591868239"><ele>424.5</ele><time>2026-04-26T08:23:00Z</time></trkpt><trkpt lat="43.3550063481551" lon="11.942597100836606"><ele>422.0</ele><time>2026-04-26T08:23:01Z</time></trkpt><trkpt lat="43.354963461615846" lon="11.942686318751782"><ele>421.75</ele><time>2026-04-26T08:23:02Z</time></trkpt><trkpt lat="43.35496713458334" lon="11.942834198996042"><ele>421.5</ele><time>2026-04-26T08:23:03Z</time></trkpt><trkpt lat="43.35501734144777" lon="11.942966588506472"><ele>421.25</ele><time>2026-04-26T08:23:04Z</time></trkpt><trkpt lat="43.355082992909004" lon="11.94312511286009"><ele>421.0</ele><time>2026-04-26T08:23:05Z</time></trkpt><trkpt lat="43.355272962114455" lon="11.943146660262297"><ele>421.0</ele><time>2026-04-26T08:23:06Z</time></trkpt><trkpt lat="43.35541381859128" lon="11.943225939586629"><ele>421.0</ele><time>2026-04-26T08:23:07Z</time></trkpt><trkpt lat="43.35554458447413" lon="11.943315141564648"><ele>421.0</ele><time>2026-04-26T08:23:08Z</time></trkpt><trkpt lat="43.35568353876736" lon="11.943424322291188"><ele>421.6666666666667</ele><time>2026-04-26T08:23:09Z</time></trkpt><trkpt lat="43.3558262240564" lon="11.943531914675553"><ele>422.33333333333337</ele><time>2026-04-26T08:23:10Z</time></trkpt><trkpt lat="43.35596927885751" lon="11.943667448778172"><ele>423.0</ele><time>2026-04-26T08:23:11Z</time></trkpt><trkpt lat="43.356108208677135" lon="11.943780175132101"><ele>423.0</ele><time>2026-04-26T08:23:12Z</time></trkpt><trkpt lat="43.35624387122748" lon="11.943899634946318"><ele>423.0</ele><time>2026-04-26T08:23:13Z</time></trkpt><trkpt lat="43.356375089996796" lon="11.944031314523743"><ele>423.0</ele><time>2026-04-26T08:23:14Z</time></trkpt><trkpt lat="43.35651888685334" lon="11.944158843484496"><ele>425.33333333333337</ele><time>2026-04-26T08:23:15Z</time></trkpt><trkpt lat="43.356635676482455" lon="11.944315388993221"><ele>427.6666666666667</ele><time>2026-04-26T08:23:16Z</time></trkpt><trkpt lat="43.356768607465916" lon="11.944447227285258"><ele>430.0</ele><time>2026-04-26T08:23:17Z</time></trkpt><trkpt lat="43.35687638738677" lon="11.944604302115017"><ele>430.0</ele><time>2026-04-26T08:23:18Z</time></trkpt><trkpt lat="43.35694767587481" lon="11.944780584673719"><ele>430.0</ele><time>2026-04-26T08:23:19Z</time></trkpt><trkpt lat="43.35703532352917" lon="11.944965877035106"><ele>430.0</ele><time>2026-04-26T08:23:20Z</time></trkpt><trkpt lat="43.357090130957864" lon="11.945127984624252"><ele>430.0</ele><time>2026-04-26T08:23:21Z</time></trkpt><trkpt lat="43.357166077178" lon="11.945280347761551"><ele>435.0</ele><time>2026-04-26T08:23:22Z</time></trkpt><trkpt lat="43.357271591701796" lon="11.945443904432778"><ele>440.0</ele><time>2026-04-26T08:23:23Z</time></trkpt><trkpt lat="43.357395093383104" lon="11.945551543208733"><ele>445.0</ele><time>2026-04-26T08:23:24Z</time></trkpt><trkpt lat="43.3575199299858" lon="11.945613555394266"><ele>450.0</ele><time>2026-04-26T08:23:25Z</time></trkpt><trkpt lat="43.35762303467672" lon="11.94566379529712"><ele>450.0</ele><time>2026-04-26T08:23:26Z</time></trkpt><trkpt lat="43.357682883916404" lon="11.945708616860138"><ele>450.0</ele><time>2026-04-26T08:23:27Z</time></trkpt><trkpt lat="43.357734305555034" lon="11.945795088409389"><ele>450.0</ele><time>2026-04-26T08:23:28Z</time></trkpt><trkpt lat="43.357738529823145" lon="11.945942298539782"><ele>450.0</ele><time>2026-04-26T08:23:29Z</time></trkpt><trkpt lat="43.357738569058675" lon="11.946095329076238"><ele>450.0</ele><time>2026-04-26T08:23:30Z</time></trkpt><trkpt lat="43.35779019938544" lon="11.9462369037287"><ele>451.0</ele><time>2026-04-26T08:23:31Z</time></trkpt><trkpt lat="43.35789573056101" lon="11.946405468291623"><ele>452.0</ele><time>2026-04-26T08:23:32Z</time></trkpt><trkpt lat="43.35801357852794" lon="11.946535761854916"><ele>453.0</ele><time>2026-04-26T08:23:33Z</time></trkpt><trkpt lat="43.358120132241666" lon="11.946627491796868"><ele>454.0</ele><time>2026-04-26T08:23:34Z</time></trkpt><trkpt lat="43.358226687560084" lon="11.946757561887727"><ele>454.0</ele><time>2026-04-26T08:23:35Z</time></trkpt><trkpt lat="43.358318216608296" lon="11.946908157769958"><ele>454.0</ele><time>2026-04-26T08:23:36Z</time></trkpt><trkpt lat="43.358417821131965" lon="11.947037629737011"><ele>454.0</ele><time>2026-04-26T08:23:37Z</time></trkpt><trkpt lat="43.358504423676436" lon="11.947171846847201"><ele>454.0</ele><time>2026-04-26T08:23:38Z</time></trkpt><trkpt lat="43.358586774399136" lon="11.947341795354223"><ele>455.0</ele><time>2026-04-26T08:23:39Z</time></trkpt><trkpt lat="43.35862925452068" lon="11.947547608534066"><ele>456.0</ele><time>2026-04-26T08:23:40Z</time></trkpt><trkpt lat="43.35870962644584" lon="11.947728787985843"><ele>457.0</ele><time>2026-04-26T08:23:41Z</time></trkpt><trkpt lat="43.35879961737344" lon="11.947909345727085"><ele>463.33333333333337</ele><time>2026-04-26T08:23:42Z</time></trkpt><trkpt lat="43.358887374570386" lon="11.948095002496316"><ele>469.66666666666663</ele><time>2026-04-26T08:23:43Z</time></trkpt><trkpt lat="43.35897848236108" lon="11.94827747399126"><ele>476.0</ele><time>2026-04-26T08:23:44Z</time></trkpt><trkpt lat="43.35907793667514" lon="11.948416697646142"><ele>478.0</ele><time>2026-04-26T08:23:45Z</time></trkpt><trkpt lat="43.359151421923634" lon="11.94849735435883"><ele>480.0</ele><time>2026-04-26T08:23:46Z</time></trkpt><trkpt lat="43.35919529173666" lon="11.948585985450041"><ele>482.0</ele><time>2026-04-26T08:23:47Z</time></trkpt><trkpt lat="43.359218768969136" lon="11.948673522352054"><ele>484.0</ele><time>2026-04-26T08:23:48Z</time></trkpt><trkpt lat="43.35918770608583" lon="11.948809184579778"><ele>486.0</ele><time>2026-04-26T08:23:49Z</time></trkpt><trkpt lat="43.35908120280753" lon="11.948946704042417"><ele>486.0</ele><time>2026-04-26T08:23:50Z</time></trkpt><trkpt lat="43.358972903823734" lon="11.94904923348117"><ele>486.0</ele><time>2026-04-26T08:23:51Z</time></trkpt><trkpt lat="43.35886035996864" lon="11.949097698096306"><ele>486.0</ele><time>2026-04-26T08:23:52Z</time></trkpt><trkpt lat="43.358771686495686" lon="11.949151814041857"><ele>486.0</ele><time>2026-04-26T08:23:53Z</time></trkpt><trkpt lat="43.358660749174966" lon="11.94913488508734"><ele>484.75</ele><time>2026-04-26T08:23:54Z</time></trkpt><trkpt lat="43.358547374579295" lon="11.949165826465045"><ele>483.5</ele><time>2026-04-26T08:23:55Z</time></trkpt><trkpt lat="43.35840945527968" lon="11.94915929967047"><ele>482.25</ele><time>2026-04-26T08:23:56Z</time></trkpt><trkpt lat="43.35828840000191" lon="11.949155660241406"><ele>481.0</ele><time>2026-04-26T08:23:57Z</time></trkpt><trkpt lat="43.35814527503258" lon="11.94910234807336"><ele>480.5</ele><time>2026-04-26T08:23:58Z</time></trkpt><trkpt lat="43.35801643550319" lon="11.949075451480777"><ele>480.0</ele><time>2026-04-26T08:23:59Z</time></trkpt><trkpt lat="43.35788741928496" lon="11.94904240759886"><ele>479.5</ele><time>2026-04-26T08:24:00Z</time></trkpt><trkpt lat="43.3577726429398" lon="11.949031044978016"><ele>479.0</ele><time>2026-04-26T08:24:01Z</time></trkpt><trkpt lat="43.35766197482638" lon="11.949048933434334"><ele>479.0</ele><time>2026-04-26T08:24:02Z</time></trkpt><trkpt lat="43.35755389631542" lon="11.949131372501185"><ele>479.0</ele><time>2026-04-26T08:24:03Z</time></trkpt><trkpt lat="43.35747679816122" lon="11.949296853978105"><ele>479.0</ele><time>2026-04-26T08:24:04Z</time></trkpt><trkpt lat="43.35736528070601" lon="11.949371885920712"><ele>479.0</ele><time>2026-04-26T08:24:05Z</time></trkpt><trkpt lat="43.35722728228808" lon="11.949383992148633"><ele>487.66666666666663</ele><time>2026-04-26T08:24:06Z</time></trkpt><trkpt lat="43.35705051306435" lon="11.949397129526014"><ele>496.33333333333337</ele><time>2026-04-26T08:24:07Z</time></trkpt><trkpt lat="43.356881203371884" lon="11.949411790608657"><ele>505.0</ele><time>2026-04-26T08:24:08Z</time></trkpt><trkpt lat="43.35671923269383" lon="11.94941166976515"><ele>505.0</ele><time>2026-04-26T08:24:09Z</time></trkpt><trkpt lat="43.3565614121003" lon="11.94939771476185"><ele>505.0</ele><time>2026-04-26T08:24:10Z</time></trkpt><trkpt lat="43.35644769494843" lon="11.949414977494596"><ele>505.0</ele><time>2026-04-26T08:24:11Z</time></trkpt><trkpt lat="43.35632672901782" lon="11.949445532858718"><ele>505.0</ele><time>2026-04-26T08:24:12Z</time></trkpt><trkpt lat="43.356203519619676" lon="11.949527394600542"><ele>500.6666666666667</ele><time>2026-04-26T08:24:13Z</time></trkpt><trkpt lat="43.35608681655331" lon="11.949649987703289"><ele>496.33333333333337</ele><time>2026-04-26T08:24:14Z</time></trkpt><trkpt lat="43.35594324087923" lon="11.949767552209732"><ele>492.0</ele><time>2026-04-26T08:24:15Z</time></trkpt><trkpt lat="43.35581287181928" lon="11.949916285915712"><ele>492.0</ele><time>2026-04-26T08:24:16Z</time></trkpt><trkpt lat="43.35569118228055" lon="11.950032380297909"><ele>492.0</ele><time>2026-04-26T08:24:17Z</time></trkpt><trkpt lat="43.3556358294621" lon="11.950125456553915"><ele>492.0</ele><time>2026-04-26T08:24:18Z</time></trkpt><trkpt lat="43.355606607852735" lon="11.950278398462782"><ele>492.0</ele><time>2026-04-26T08:24:19Z</time></trkpt><trkpt lat="43.35563139711676" lon="11.950463079203407"><ele>493.0</ele><time>2026-04-26T08:24:20Z</time></trkpt><trkpt lat="43.35571764735465" lon="11.950691896662653"><ele>494.0</ele><time>2026-04-26T08:24:21Z</time></trkpt><trkpt lat="43.35569386453644" lon="11.950881949107929"><ele>495.0</ele><time>2026-04-26T08:24:22Z</time></trkpt><trkpt lat="43.355707505968326" lon="11.951105698393032"><ele>495.0</ele><time>2026-04-26T08:24:23Z</time></trkpt><trkpt lat="43.35573564639858" lon="11.951303037741875"><ele>495.0</ele><time>2026-04-26T08:24:24Z</time></trkpt><trkpt lat="43.35582003492466" lon="11.951496116452201"><ele>495.0</ele><time>2026-04-26T08:24:25Z</time></trkpt><trkpt lat="43.35589752870468" lon="11.951651749475571"><ele>495.0</ele><time>2026-04-26T08:24:26Z</time></trkpt><trkpt lat="43.35599717517123" lon="11.951776645938319"><ele>491.0</ele><time>2026-04-26T08:24:27Z</time></trkpt><trkpt lat="43.35612439332874" lon="11.951847598949357"><ele>487.0</ele><time>2026-04-26T08:24:28Z</time></trkpt><trkpt lat="43.35629793494518" lon="11.95185166900904"><ele>483.0</ele><time>2026-04-26T08:24:29Z</time></trkpt><trkpt lat="43.35647439872284" lon="11.951839594537166"><ele>483.0</ele><time>2026-04-26T08:24:30Z</time></trkpt><trkpt lat="43.356633707508145" lon="11.951884485212238"><ele>483.0</ele><time>2026-04-26T08:24:31Z</time></trkpt><trkpt lat="43.3567791581672" lon="11.95191685857443"><ele>483.0</ele><time>2026-04-26T08:24:32Z</time></trkpt><trkpt lat="43.35691487655364" lon="11.95199519946092"><ele>483.0</ele><time>2026-04-26T08:24:33Z</time></trkpt><trkpt lat="43.35702486079706" lon="11.952113552716678"><ele>483.0</ele><time>2026-04-26T08:24:34Z</time></trkpt><trkpt lat="43.357126425441166" lon="11.952247833646553"><ele>483.0</ele><time>2026-04-26T08:24:35Z</time></trkpt><trkpt lat="43.35721251035123" lon="11.952366054275382"><ele>483.0</ele><time>2026-04-26T08:24:36Z</time></trkpt><trkpt lat="43.35734667821604" lon="11.9525140971695"><ele>482.0</ele><time>2026-04-26T08:24:37Z</time></trkpt><trkpt lat="43.357462994332636" lon="11.952585653500847"><ele>481.0</ele><time>2026-04-26T08:24:38Z</time></trkpt><trkpt lat="43.357598823680945" lon="11.9525758912592"><ele>480.0</ele><time>2026-04-26T08:24:39Z</time></trkpt><trkpt lat="43.35771317573416" lon="11.95248693883811"><ele>479.0</ele><time>2026-04-26T08:24:40Z</time></trkpt><trkpt lat="43.35777935400021" lon="11.952311721978543"><ele>484.75</ele><time>2026-04-26T08:24:41Z</time></trkpt><trkpt lat="43.35781873037855" lon="11.952131209216216"><ele>490.5</ele><time>2026-04-26T08:24:42Z</time></trkpt><trkpt lat="43.357873722380354" lon="11.951949681382393"><ele>496.25</ele><time>2026-04-26T08:24:43Z</time></trkpt><trkpt lat="43.357929823368465" lon="11.951779705875545"><ele>502.0</ele><time>2026-04-26T08:24:44Z</time></trkpt><trkpt lat="43.3580016746884" lon="11.951630491262808"><ele>504.0</ele><time>2026-04-26T08:24:45Z</time></trkpt><trkpt lat="43.35809421973694" lon="11.951509567876947"><ele>506.0</ele><time>2026-04-26T08:24:46Z</time></trkpt><trkpt lat="43.35819919870249" lon="11.951429025889643"><ele>508.0</ele><time>2026-04-26T08:24:47Z</time></trkpt><trkpt lat="43.35832440832917" lon="11.951398906697708"><ele>510.0</ele><time>2026-04-26T08:24:48Z</time></trkpt><trkpt lat="43.358468205421225" lon="11.951425952752118"><ele>510.0</ele><time>2026-04-26T08:24:49Z</time></trkpt><trkpt lat="43.35861515553386" lon="11.951420820444453"><ele>510.0</ele><time>2026-04-26T08:24:50Z</time></trkpt><trkpt lat="43.35876760281467" lon="11.951400563795625"><ele>510.0</ele><time>2026-04-26T08:24:51Z</time></trkpt><trkpt lat="43.3589578169862" lon="11.951373414129765"><ele>509.0</ele><time>2026-04-26T08:24:52Z</time></trkpt><trkpt lat="43.35908062454259" lon="11.951365617695362"><ele>508.0</ele><time>2026-04-26T08:24:53Z</time></trkpt><trkpt lat="43.3592251183677" lon="11.951374729629656"><ele>507.0</ele><time>2026-04-26T08:24:54Z</time></trkpt><trkpt lat="43.359372396744035" lon="11.95141152210869"><ele>506.0</ele><time>2026-04-26T08:24:55Z</time></trkpt><trkpt lat="43.35950395225545" lon="11.951511700651606"><ele>506.0</ele><time>2026-04-26T08:24:56Z</time></trkpt><trkpt lat="43.359641269466415" lon="11.951603183605751"><ele>506.0</ele><time>2026-04-26T08:24:57Z</time></trkpt><trkpt lat="43.3597871776083" lon="11.951651449286134"><ele>506.0</ele><time>2026-04-26T08:24:58Z</time></trkpt><trkpt lat="43.35992492776067" lon="11.951687890221027"><ele>506.0</ele><time>2026-04-26T08:24:59Z</time></trkpt><trkpt lat="43.360092176284354" lon="11.951661893992558"><ele>509.3333333333333</ele><time>2026-04-26T08:25:00Z</time></trkpt><trkpt lat="43.360252429397086" lon="11.951597501531921"><ele>512.6666666666666</ele><time>2026-04-26T08:25:01Z</time></trkpt><trkpt lat="43.36040579976354" lon="11.951555094641181"><ele>516.0</ele><time>2026-04-26T08:25:02Z</time></trkpt><trkpt lat="43.36055615869713" lon="11.95156241977196"><ele>518.75</ele><time>2026-04-26T08:25:03Z</time></trkpt><trkpt lat="43.36068104967718" lon="11.951615274145016"><ele>521.5</ele><time>2026-04-26T08:25:04Z</time></trkpt><trkpt lat="43.36080647332788" lon="11.951714223204316"><ele>524.25</ele><time>2026-04-26T08:25:05Z</time></trkpt><trkpt lat="43.360940814075796" lon="11.951830802538744"><ele>527.0</ele><time>2026-04-26T08:25:06Z</time></trkpt><trkpt lat="43.36107713376628" lon="11.951922620435159"><ele>519.75</ele><time>2026-04-26T08:25:07Z</time></trkpt><trkpt lat="43.36121777645377" lon="11.9519694522693"><ele>512.5</ele><time>2026-04-26T08:25:08Z</time></trkpt><trkpt lat="43.36134917520268" lon="11.951958211788813"><ele>505.25</ele><time>2026-04-26T08:25:09Z</time></trkpt><trkpt lat="43.361466359509684" lon="11.951917595806957"><ele>498.0</ele><time>2026-04-26T08:25:10Z</time></trkpt><trkpt lat="43.361572764210116" lon="11.951877090965747"><ele>498.0</ele><time>2026-04-26T08:25:11Z</time></trkpt><trkpt lat="43.361683179006896" lon="11.95181776888809"><ele>498.0</ele><time>2026-04-26T08:25:12Z</time></trkpt><trkpt lat="43.36178336573408" lon="11.951724936916756"><ele>498.0</ele><time>2026-04-26T08:25:13Z</time></trkpt><trkpt lat="43.36187421249511" lon="11.951609560712846"><ele>498.0</ele><time>2026-04-26T08:25:14Z</time></trkpt><trkpt lat="43.36195318303284" lon="11.95144680072754"><ele>500.59999999999997</ele><time>2026-04-26T08:25:15Z</time></trkpt><trkpt lat="43.36202264305907" lon="11.951322665504282"><ele>503.19999999999993</ele><time>2026-04-26T08:25:16Z</time></trkpt><trkpt lat="43.36210258018413" lon="11.951250464192764"><ele>505.8</ele><time>2026-04-26T08:25:17Z</time></trkpt><trkpt lat="43.3621933694798" lon="11.951204562157475"><ele>508.4</ele><time>2026-04-26T08:25:18Z</time></trkpt><trkpt lat="43.362306623750484" lon="11.951225387369732"><ele>511.0</ele><time>2026-04-26T08:25:19Z</time></trkpt><trkpt lat="43.362404307756265" lon="11.951213539253084"><ele>511.0</ele><time>2026-04-26T08:25:20Z</time></trkpt><trkpt lat="43.36250305725339" lon="11.951153486975157"><ele>511.0</ele><time>2026-04-26T08:25:21Z</time></trkpt><trkpt lat="43.36259994077443" lon="11.95107827763866"><ele>511.0</ele><time>2026-04-26T08:25:22Z</time></trkpt><trkpt lat="43.362685187377494" lon="11.950952428245062"><ele>511.0</ele><time>2026-04-26T08:25:23Z</time></trkpt><trkpt lat="43.362767655382605" lon="11.950798188807614"><ele>517.0</ele><time>2026-04-26T08:25:24Z</time></trkpt><trkpt lat="43.36283601308129" lon="11.950636723114348"><ele>523.0</ele><time>2026-04-26T08:25:25Z</time></trkpt><trkpt lat="43.36290219851034" lon="11.950514111600562"><ele>529.0</ele><time>2026-04-26T08:25:26Z</time></trkpt><trkpt lat="43.3629653328881" lon="11.950444591085343"><ele>535.0</ele><time>2026-04-26T08:25:27Z</time></trkpt><trkpt lat="43.36305673070893" lon="11.950425484732282"><ele>541.0</ele><time>2026-04-26T08:25:28Z</time></trkpt><trkpt lat="43.363203874210775" lon="11.95053195138988"><ele>541.0</ele><time>2026-04-26T08:25:29Z</time></trkpt><trkpt lat="43.36331990834489" lon="11.95062912134429"><ele>541.0</ele><time>2026-04-26T08:25:30Z</time></trkpt><trkpt lat="43.3634113598612" lon="11.950799565575904"><ele>541.0</ele><time>2026-04-26T08:25:31Z</time></trkpt><trkpt lat="43.363508537552974" lon="11.950918247153194"><ele>541.0</ele><time>2026-04-26T08:25:32Z</time></trkpt><trkpt lat="43.363590107496556" lon="11.950975619470924"><ele>541.0</ele><time>2026-04-26T08:25:33Z</time></trkpt><trkpt lat="43.36367903990429" lon="11.950963144754907"><ele>541.0</ele><time>2026-04-26T08:25:34Z</time></trkpt><trkpt lat="43.36377174023432" lon="11.95090041990753"><ele>541.0</ele><time>2026-04-26T08:25:35Z</time></trkpt><trkpt lat="43.363851281743344" lon="11.95070371197417"><ele>541.0</ele><time>2026-04-26T08:25:36Z</time></trkpt><trkpt lat="43.36393366356692" lon="11.950540652443008"><ele>541.4</ele><time>2026-04-26T08:25:37Z</time></trkpt><trkpt lat="43.36399188989467" lon="11.950423489491943"><ele>541.8</ele><time>2026-04-26T08:25:38Z</time></trkpt><trkpt lat="43.364043273012" lon="11.950360834934118"><ele>542.1999999999999</ele><time>2026-04-26T08:25:39Z</time></trkpt><trkpt lat="43.36413633717292" lon="11.950398844423923"><ele>542.6</ele><time>2026-04-26T08:25:40Z</time></trkpt><trkpt lat="43.36425269289294" lon="11.950516482519976"><ele>543.0</ele><time>2026-04-26T08:25:41Z</time></trkpt><trkpt lat="43.36436939471413" lon="11.950630087548628"><ele>543.0</ele><time>2026-04-26T08:25:42Z</time></trkpt><trkpt lat="43.36449158523939" lon="11.95070912963508"><ele>543.0</ele><time>2026-04-26T08:25:43Z</time></trkpt><trkpt lat="43.36459675745146" lon="11.950775068037956"><ele>543.0</ele><time>2026-04-26T08:25:44Z</time></trkpt><trkpt lat="43.36473663595859" lon="11.950775772615538"><ele>543.0</ele><time>2026-04-26T08:25:45Z</time></trkpt><trkpt lat="43.36489882340992" lon="11.950736451542515"><ele>546.0</ele><time>2026-04-26T08:25:46Z</time></trkpt><trkpt lat="43.36503341968269" lon="11.950745143163829"><ele>549.0</ele><time>2026-04-26T08:25:47Z</time></trkpt><trkpt lat="43.36516839909603" lon="11.950741043549431"><ele>552.0</ele><time>2026-04-26T08:25:48Z</time></trkpt><trkpt lat="43.36530475465891" lon="11.950748780395598"><ele>555.0</ele><time>2026-04-26T08:25:49Z</time></trkpt><trkpt lat="43.36541580781262" lon="11.950790575036962"><ele>555.0</ele><time>2026-04-26T08:25:50Z</time></trkpt><trkpt lat="43.365521192517924" lon="11.95079057504716"><ele>555.0</ele><time>2026-04-26T08:25:51Z</time></trkpt><trkpt lat="43.36561519896051" lon="11.95096620366372"><ele>555.0</ele><time>2026-04-26T08:25:52Z</time></trkpt><trkpt lat="43.36568074105633" lon="11.951173796991542"><ele>555.0</ele><time>2026-04-26T08:25:53Z</time></trkpt><trkpt lat="43.36573033352985" lon="11.951342227679488"><ele>556.5</ele><time>2026-04-26T08:25:54Z</time></trkpt><trkpt lat="43.365802642988925" lon="11.951487015769365"><ele>558.0</ele><time>2026-04-26T08:25:55Z</time></trkpt><trkpt lat="43.36585608585509" lon="11.951630345692612"><ele>559.5</ele><time>2026-04-26T08:25:56Z</time></trkpt><trkpt lat="43.36586918837972" lon="11.951804418763784"><ele>561.0</ele><time>2026-04-26T08:25:57Z</time></trkpt><trkpt lat="43.36587320493665" lon="11.951966745564437"><ele>558.8333333333334</ele><time>2026-04-26T08:25:58Z</time></trkpt><trkpt lat="43.36587839747039" lon="11.952108287475557"><ele>556.6666666666666</ele><time>2026-04-26T08:25:59Z</time></trkpt><trkpt lat="43.365887802427935" lon="11.952232313980435"><ele>554.5</ele><time>2026-04-26T08:26:00Z</time></trkpt><trkpt lat="43.3659038588098" lon="11.95233801361178"><ele>552.3333333333333</ele><time>2026-04-26T08:26:01Z</time></trkpt><trkpt lat="43.36593922408592" lon="11.95242093468193"><ele>550.1666666666666</ele><time>2026-04-26T08:26:02Z</time></trkpt><trkpt lat="43.36598279006816" lon="11.952493754033434"><ele>548.0</ele><time>2026-04-26T08:26:03Z</time></trkpt><trkpt lat="43.366040707024744" lon="11.952548569760882"><ele>544.1999999999999</ele><time>2026-04-26T08:26:04Z</time></trkpt><trkpt lat="43.36616407111984" lon="11.952566595169458"><ele>540.4</ele><time>2026-04-26T08:26:06Z</time></trkpt><trkpt lat="43.3662743045168" lon="11.952542365549832"><ele>536.5999999999999</ele><time>2026-04-26T08:26:08Z</time></trkpt><trkpt lat="43.36638313320861" lon="11.952493150290902"><ele>532.8</ele><time>2026-04-26T08:26:10Z</time></trkpt><trkpt lat="43.36644150311153" lon="11.952457949891155"><ele>529.0</ele><time>2026-04-26T08:26:11Z</time></trkpt><trkpt lat="43.366507042148385" lon="11.952430004753486"><ele>535.3333333333334</ele><time>2026-04-26T08:26:12Z</time></trkpt><trkpt lat="43.3665789964496" lon="11.952398469831696"><ele>541.6666666666667</ele><time>2026-04-26T08:26:13Z</time></trkpt><trkpt lat="43.36667160098592" lon="11.95239181230683"><ele>548.0</ele><time>2026-04-26T08:26:14Z</time></trkpt><trkpt lat="43.366767307685365" lon="11.952403581932051"><ele>554.3333333333334</ele><time>2026-04-26T08:26:15Z</time></trkpt><trkpt lat="43.36683730409176" lon="11.952398016949632"><ele>560.6666666666666</ele><time>2026-04-26T08:26:16Z</time></trkpt><trkpt lat="43.36691378330637" lon="11.952351662308377"><ele>567.0</ele><time>2026-04-26T08:26:17Z</time></trkpt><trkpt lat="43.36697120068433" lon="11.952314186108307"><ele>567.0</ele><time>2026-04-26T08:26:18Z</time></trkpt><trkpt lat="43.36703873880413" lon="11.952269958460228"><ele>567.0</ele><time>2026-04-26T08:26:19Z</time></trkpt><trkpt lat="43.367154241959476" lon="11.952208705228115"><ele>567.0</ele><time>2026-04-26T08:26:21Z</time></trkpt><trkpt lat="43.36721214227181" lon="11.952167276446444"><ele>567.0</ele><time>2026-04-26T08:26:22Z</time></trkpt><trkpt lat="43.36729680404394" lon="11.952111683595993"><ele>567.0</ele><time>2026-04-26T08:26:24Z</time></trkpt><trkpt lat="43.36738671301893" lon="11.952071930431302"><ele>568.0</ele><time>2026-04-26T08:26:26Z</time></trkpt><trkpt lat="43.367474488792844" lon="11.95200394378592"><ele>569.0</ele><time>2026-04-26T08:26:28Z</time></trkpt><trkpt lat="43.36755183882792" lon="11.951914523339592"><ele>570.0</ele><time>2026-04-26T08:26:30Z</time></trkpt><trkpt lat="43.36764449520243" lon="11.951797369532258"><ele>571.0</ele><time>2026-04-26T08:26:32Z</time></trkpt><trkpt lat="43.36771911403496" lon="11.951692440507308"><ele>572.0</ele><time>2026-04-26T08:26:34Z</time></trkpt><trkpt lat="43.36776948774028" lon="11.951583742442308"><ele>573.5</ele><time>2026-04-26T08:26:36Z</time></trkpt><trkpt lat="43.3677977971198" lon="11.951456495484422"><ele>575.0</ele><time>2026-04-26T08:26:38Z</time></trkpt><trkpt lat="43.36781008742184" lon="11.951370644837846"><ele>576.5</ele><time>2026-04-26T08:26:39Z</time></trkpt><trkpt lat="43.36781377287334" lon="11.951270218730311"><ele>578.0</ele><time>2026-04-26T08:26:40Z</time></trkpt><trkpt lat="43.367813489339376" lon="11.951173974753635"><ele>579.5</ele><time>2026-04-26T08:26:41Z</time></trkpt><trkpt lat="43.367815829464696" lon="11.951073930029395"><ele>581.0</ele><time>2026-04-26T08:26:42Z</time></trkpt><trkpt lat="43.36781796513042" lon="11.95096535420796"><ele>580.6666666666666</ele><time>2026-04-26T08:26:43Z</time></trkpt><trkpt lat="43.367809335491636" lon="11.950865369810519"><ele>580.3333333333333</ele><time>2026-04-26T08:26:44Z</time></trkpt><trkpt lat="43.36779238485499" lon="11.950775930702074"><ele>580.0</ele><time>2026-04-26T08:26:45Z</time></trkpt><trkpt lat="43.36776876587401" lon="11.950693646378646"><ele>579.6666666666666</ele><time>2026-04-26T08:26:46Z</time></trkpt><trkpt lat="43.36770456735745" lon="11.950552146275982"><ele>579.3333333333334</ele><time>2026-04-26T08:26:48Z</time></trkpt><trkpt lat="43.367627983028825" lon="11.95042849781264"><ele>579.0</ele><time>2026-04-26T08:26:50Z</time></trkpt><trkpt lat="43.36758853798392" lon="11.95027464007665"><ele>579.0</ele><time>2026-04-26T08:26:52Z</time></trkpt><trkpt lat="43.367597386193246" lon="11.950173314874009"><ele>579.0</ele><time>2026-04-26T08:26:53Z</time></trkpt><trkpt lat="43.36761792490377" lon="11.950082811791848"><ele>579.0</ele><time>2026-04-26T08:26:54Z</time></trkpt><trkpt lat="43.367683728987245" lon="11.949934451624246"><ele>579.0</ele><time>2026-04-26T08:26:56Z</time></trkpt><trkpt lat="43.367730230634926" lon="11.949862793269077"><ele>579.0</ele><time>2026-04-26T08:26:57Z</time></trkpt><trkpt lat="43.36778859145798" lon="11.949813950087584"><ele>579.0</ele><time>2026-04-26T08:26:58Z</time></trkpt><trkpt lat="43.367857811966545" lon="11.949793498110747"><ele>578.4</ele><time>2026-04-26T08:26:59Z</time></trkpt><trkpt lat="43.36793157760839" lon="11.949803479428814"><ele>577.8</ele><time>2026-04-26T08:27:00Z</time></trkpt><trkpt lat="43.36800076672882" lon="11.949839127649923"><ele>577.2</ele><time>2026-04-26T08:27:01Z</time></trkpt><trkpt lat="43.368052277047276" lon="11.949893746770387"><ele>576.6</ele><time>2026-04-26T08:27:02Z</time></trkpt><trkpt lat="43.368148467631" lon="11.95008001730315"><ele>576.0</ele><time>2026-04-26T08:27:04Z</time></trkpt><trkpt lat="43.368208773742296" lon="11.950249892438698"><ele>572.0</ele><time>2026-04-26T08:27:05Z</time></trkpt><trkpt lat="43.36827835047168" lon="11.950427791874018"><ele>568.0</ele><time>2026-04-26T08:27:06Z</time></trkpt><trkpt lat="43.36838893773956" lon="11.950585383455586"><ele>564.0</ele><time>2026-04-26T08:27:07Z</time></trkpt><trkpt lat="43.368493742097804" lon="11.950747934667191"><ele>565.0</ele><time>2026-04-26T08:27:08Z</time></trkpt><trkpt lat="43.3685970913695" lon="11.950908179826472"><ele>566.0</ele><time>2026-04-26T08:27:09Z</time></trkpt><trkpt lat="43.36870705797644" lon="11.95105901901336"><ele>567.0</ele><time>2026-04-26T08:27:10Z</time></trkpt><trkpt lat="43.368830504992516" lon="11.95120218265554"><ele>563.3333333333334</ele><time>2026-04-26T08:27:11Z</time></trkpt><trkpt lat="43.36897353331693" lon="11.951327878251623"><ele>559.6666666666667</ele><time>2026-04-26T08:27:12Z</time></trkpt><trkpt lat="43.36912673510669" lon="11.951431114390669"><ele>556.0</ele><time>2026-04-26T08:27:13Z</time></trkpt><trkpt lat="43.36927113694472" lon="11.951554402542385"><ele>556.0</ele><time>2026-04-26T08:27:14Z</time></trkpt><trkpt lat="43.36940214884835" lon="11.951696700410258"><ele>556.0</ele><time>2026-04-26T08:27:15Z</time></trkpt><trkpt lat="43.36951194363893" lon="11.95184470886898"><ele>556.0</ele><time>2026-04-26T08:27:16Z</time></trkpt><trkpt lat="43.36962067321625" lon="11.952036143647096"><ele>555.25</ele><time>2026-04-26T08:27:17Z</time></trkpt><trkpt lat="43.36971708732057" lon="11.952197587712542"><ele>554.5</ele><time>2026-04-26T08:27:18Z</time></trkpt><trkpt lat="43.36981979634466" lon="11.952244815057904"><ele>553.75</ele><time>2026-04-26T08:27:19Z</time></trkpt><trkpt lat="43.36995207408491" lon="11.952311963328851"><ele>553.0</ele><time>2026-04-26T08:27:20Z</time></trkpt><trkpt lat="43.37012232039043" lon="11.952326751761326"><ele>553.0</ele><time>2026-04-26T08:27:21Z</time></trkpt><trkpt lat="43.37028660433184" lon="11.952344521467895"><ele>553.0</ele><time>2026-04-26T08:27:22Z</time></trkpt><trkpt lat="43.37044167314666" lon="11.952360951084042"><ele>553.0</ele><time>2026-04-26T08:27:23Z</time></trkpt><trkpt lat="43.37060442548121" lon="11.952317505387903"><ele>552.0</ele><time>2026-04-26T08:27:24Z</time></trkpt><trkpt lat="43.370758569308734" lon="11.952301220679034"><ele>551.0</ele><time>2026-04-26T08:27:25Z</time></trkpt><trkpt lat="43.37091867526995" lon="11.95230439433967"><ele>550.0</ele><time>2026-04-26T08:27:26Z</time></trkpt><trkpt lat="43.371063465686305" lon="11.952332775805168"><ele>550.0</ele><time>2026-04-26T08:27:27Z</time></trkpt><trkpt lat="43.37119044600921" lon="11.95236783376698"><ele>550.0</ele><time>2026-04-26T08:27:28Z</time></trkpt><trkpt lat="43.371316853450885" lon="11.95243642002016"><ele>550.0</ele><time>2026-04-26T08:27:29Z</time></trkpt><trkpt lat="43.37142799014686" lon="11.952563602927173"><ele>550.0</ele><time>2026-04-26T08:27:30Z</time></trkpt><trkpt lat="43.371523659537885" lon="11.952724361626684"><ele>548.25</ele><time>2026-04-26T08:27:31Z</time></trkpt><trkpt lat="43.37163053302878" lon="11.952880865982857"><ele>546.5</ele><time>2026-04-26T08:27:32Z</time></trkpt><trkpt lat="43.37174091712678" lon="11.953012668708073"><ele>544.75</ele><time>2026-04-26T08:27:33Z</time></trkpt><trkpt lat="43.371863302568784" lon="11.95311546341541"><ele>543.0</ele><time>2026-04-26T08:27:34Z</time></trkpt><trkpt lat="43.37199408548648" lon="11.953191196445895"><ele>543.0</ele><time>2026-04-26T08:27:35Z</time></trkpt><trkpt lat="43.37214133160196" lon="11.953221211928124"><ele>543.0</ele><time>2026-04-26T08:27:36Z</time></trkpt><trkpt lat="43.3722801610996" lon="11.953309082580438"><ele>543.0</ele><time>2026-04-26T08:27:37Z</time></trkpt><trkpt lat="43.37239111569093" lon="11.953452556588921"><ele>540.3333333333334</ele><time>2026-04-26T08:27:38Z</time></trkpt><trkpt lat="43.372506069976765" lon="11.953589856775794"><ele>537.6666666666667</ele><time>2026-04-26T08:27:39Z</time></trkpt><trkpt lat="43.37264687587585" lon="11.953693004187807"><ele>535.0</ele><time>2026-04-26T08:27:40Z</time></trkpt><trkpt lat="43.37279717192318" lon="11.953771079559314"><ele>535.0</ele><time>2026-04-26T08:27:41Z</time></trkpt><trkpt lat="43.37295723385951" lon="11.953849070325575"><ele>535.0</ele><time>2026-04-26T08:27:42Z</time></trkpt><trkpt lat="43.373109822072436" lon="11.95393339199901"><ele>535.0</ele><time>2026-04-26T08:27:43Z</time></trkpt><trkpt lat="43.37326855160718" lon="11.954002847904277"><ele>533.6666666666667</ele><time>2026-04-26T08:27:44Z</time></trkpt><trkpt lat="43.373434979786225" lon="11.954028562214036"><ele>532.3333333333334</ele><time>2026-04-26T08:27:45Z</time></trkpt><trkpt lat="43.373604706966226" lon="11.954048741792912"><ele>531.0</ele><time>2026-04-26T08:27:46Z</time></trkpt><trkpt lat="43.373770941954206" lon="11.954096641862701"><ele>531.6666666666666</ele><time>2026-04-26T08:27:47Z</time></trkpt><trkpt lat="43.3739465306113" lon="11.954136365726004"><ele>532.3333333333333</ele><time>2026-04-26T08:27:48Z</time></trkpt><trkpt lat="43.37411593490743" lon="11.954201791425875"><ele>533.0</ele><time>2026-04-26T08:27:49Z</time></trkpt><trkpt lat="43.37428082905434" lon="11.954275179189533"><ele>531.6666666666666</ele><time>2026-04-26T08:27:50Z</time></trkpt><trkpt lat="43.37443974794821" lon="11.954363797236024"><ele>530.3333333333334</ele><time>2026-04-26T08:27:51Z</time></trkpt><trkpt lat="43.37459584740645" lon="11.954472594820782"><ele>529.0</ele><time>2026-04-26T08:27:52Z</time></trkpt><trkpt lat="43.37473801890104" lon="11.954600771686982"><ele>526.3333333333334</ele><time>2026-04-26T08:27:53Z</time></trkpt><trkpt lat="43.37488479088771" lon="11.95473290425396"><ele>523.6666666666666</ele><time>2026-04-26T08:27:54Z</time></trkpt><trkpt lat="43.37503343229573" lon="11.954859840716878"><ele>521.0</ele><time>2026-04-26T08:27:55Z</time></trkpt><trkpt lat="43.37518662133826" lon="11.95498516766075"><ele>519.3333333333333</ele><time>2026-04-26T08:27:56Z</time></trkpt><trkpt lat="43.375343603104994" lon="11.955094047966238"><ele>517.6666666666666</ele><time>2026-04-26T08:27:57Z</time></trkpt><trkpt lat="43.37550361971463" lon="11.95518604411726"><ele>516.0</ele><time>2026-04-26T08:27:58Z</time></trkpt><trkpt lat="43.37565164178943" lon="11.955292207893944"><ele>516.0</ele><time>2026-04-26T08:27:59Z</time></trkpt><trkpt lat="43.37578982124866" lon="11.955414578809059"><ele>516.0</ele><time>2026-04-26T08:28:00Z</time></trkpt><trkpt lat="43.3759093822259" lon="11.955547811015844"><ele>516.0</ele><time>2026-04-26T08:28:01Z</time></trkpt><trkpt lat="43.376024634121" lon="11.95566657756189"><ele>516.0</ele><time>2026-04-26T08:28:02Z</time></trkpt><trkpt lat="43.37614147537761" lon="11.955755383753052"><ele>516.0</ele><time>2026-04-26T08:28:03Z</time></trkpt><trkpt lat="43.37627345658211" lon="11.955820314652003"><ele>516.0</ele><time>2026-04-26T08:28:04Z</time></trkpt><trkpt lat="43.376423901956386" lon="11.955851452891945"><ele>516.0</ele><time>2026-04-26T08:28:05Z</time></trkpt><trkpt lat="43.37658121860558" lon="11.955877347527373"><ele>516.3333333333334</ele><time>2026-04-26T08:28:06Z</time></trkpt><trkpt lat="43.376742158425834" lon="11.955915674402892"><ele>516.6666666666667</ele><time>2026-04-26T08:28:07Z</time></trkpt><trkpt lat="43.37691198133559" lon="11.955959750303606"><ele>517.0</ele><time>2026-04-26T08:28:08Z</time></trkpt><trkpt lat="43.37706100156937" lon="11.95602883215931"><ele>517.6666666666667</ele><time>2026-04-26T08:28:09Z</time></trkpt><trkpt lat="43.37720697879381" lon="11.956082826253299"><ele>518.3333333333334</ele><time>2026-04-26T08:28:10Z</time></trkpt><trkpt lat="43.377366626275126" lon="11.956090291317494"><ele>519.0</ele><time>2026-04-26T08:28:11Z</time></trkpt><trkpt lat="43.377528337738894" lon="11.956065454086312"><ele>519.0</ele><time>2026-04-26T08:28:12Z</time></trkpt><trkpt lat="43.37769134584916" lon="11.956053537195519"><ele>519.0</ele><time>2026-04-26T08:28:13Z</time></trkpt><trkpt lat="43.37785052886872" lon="11.956036153852912"><ele>519.0</ele><time>2026-04-26T08:28:14Z</time></trkpt><trkpt lat="43.378004856990934" lon="11.956016443732466"><ele>516.75</ele><time>2026-04-26T08:28:15Z</time></trkpt><trkpt lat="43.37814373208852" lon="11.956029294895673"><ele>514.5</ele><time>2026-04-26T08:28:16Z</time></trkpt><trkpt lat="43.378281936936304" lon="11.956081723961212"><ele>512.25</ele><time>2026-04-26T08:28:17Z</time></trkpt><trkpt lat="43.378417242185144" lon="11.956166010683077"><ele>510.0</ele><time>2026-04-26T08:28:18Z</time></trkpt><trkpt lat="43.378539718285424" lon="11.956278679879293"><ele>510.0</ele><time>2026-04-26T08:28:19Z</time></trkpt><trkpt lat="43.378655191313875" lon="11.956411575786856"><ele>510.0</ele><time>2026-04-26T08:28:20Z</time></trkpt><trkpt lat="43.378763174739845" lon="11.956558172517823"><ele>510.0</ele><time>2026-04-26T08:28:21Z</time></trkpt><trkpt lat="43.37886020022225" lon="11.956720540142229"><ele>508.33333333333337</ele><time>2026-04-26T08:28:22Z</time></trkpt><trkpt lat="43.37892464106635" lon="11.95691837164806"><ele>506.6666666666667</ele><time>2026-04-26T08:28:23Z</time></trkpt><trkpt lat="43.378967239060216" lon="11.957125374542626"><ele>505.0</ele><time>2026-04-26T08:28:24Z</time></trkpt><trkpt lat="43.3790169366136" lon="11.957321106310724"><ele>505.0</ele><time>2026-04-26T08:28:25Z</time></trkpt><trkpt lat="43.37911377457473" lon="11.957501767259624"><ele>505.0</ele><time>2026-04-26T08:28:26Z</time></trkpt><trkpt lat="43.379236697419465" lon="11.957670022854192"><ele>505.0</ele><time>2026-04-26T08:28:27Z</time></trkpt><trkpt lat="43.37936296822215" lon="11.957813826599743"><ele>504.0</ele><time>2026-04-26T08:28:28Z</time></trkpt><trkpt lat="43.37949177459838" lon="11.95793421549198"><ele>503.0</ele><time>2026-04-26T08:28:29Z</time></trkpt><trkpt lat="43.37960761118595" lon="11.958021321420444"><ele>502.0</ele><time>2026-04-26T08:28:30Z</time></trkpt><trkpt lat="43.37973151415679" lon="11.958073760761263"><ele>501.0</ele><time>2026-04-26T08:28:31Z</time></trkpt><trkpt lat="43.37986934150239" lon="11.958082348609471"><ele>498.66666666666663</ele><time>2026-04-26T08:28:32Z</time></trkpt><trkpt lat="43.380023933656574" lon="11.958038559262802"><ele>496.3333333333333</ele><time>2026-04-26T08:28:33Z</time></trkpt><trkpt lat="43.380171646893295" lon="11.95795818120541"><ele>494.0</ele><time>2026-04-26T08:28:34Z</time></trkpt><trkpt lat="43.38031337390687" lon="11.95784724781911"><ele>494.0</ele><time>2026-04-26T08:28:35Z</time></trkpt><trkpt lat="43.380445294224444" lon="11.957723906747349"><ele>494.0</ele><time>2026-04-26T08:28:36Z</time></trkpt><trkpt lat="43.38060112513689" lon="11.957631144258567"><ele>494.0</ele><time>2026-04-26T08:28:37Z</time></trkpt><trkpt lat="43.3807795413917" lon="11.957549320747296"><ele>496.0</ele><time>2026-04-26T08:28:38Z</time></trkpt><trkpt lat="43.380943484079346" lon="11.957478305706454"><ele>498.0</ele><time>2026-04-26T08:28:39Z</time></trkpt><trkpt lat="43.38110600611062" lon="11.9574039381822"><ele>500.0</ele><time>2026-04-26T08:28:40Z</time></trkpt><trkpt lat="43.38126165232738" lon="11.957328788395044"><ele>497.0</ele><time>2026-04-26T08:28:41Z</time></trkpt><trkpt lat="43.38142938444471" lon="11.957266643026463"><ele>494.0</ele><time>2026-04-26T08:28:42Z</time></trkpt><trkpt lat="43.381597962639745" lon="11.957222330834716"><ele>491.0</ele><time>2026-04-26T08:28:43Z</time></trkpt><trkpt lat="43.38175149231857" lon="11.957149211813185"><ele>491.0</ele><time>2026-04-26T08:28:44Z</time></trkpt><trkpt lat="43.38193192861822" lon="11.957121504476753"><ele>491.0</ele><time>2026-04-26T08:28:45Z</time></trkpt><trkpt lat="43.382096732897836" lon="11.957051144594248"><ele>491.0</ele><time>2026-04-26T08:28:46Z</time></trkpt><trkpt lat="43.382256413004306" lon="11.95697543906609"><ele>490.0</ele><time>2026-04-26T08:28:47Z</time></trkpt><trkpt lat="43.38241522750515" lon="11.956891585904923"><ele>489.0</ele><time>2026-04-26T08:28:48Z</time></trkpt><trkpt lat="43.38257453633613" lon="11.956817535069856"><ele>488.0</ele><time>2026-04-26T08:28:49Z</time></trkpt><trkpt lat="43.38273497948358" lon="11.95674862638639"><ele>488.3333333333333</ele><time>2026-04-26T08:28:50Z</time></trkpt><trkpt lat="43.38289997501011" lon="11.956677438087148"><ele>488.66666666666663</ele><time>2026-04-26T08:28:51Z</time></trkpt><trkpt lat="43.383061196016556" lon="11.956606761251159"><ele>489.0</ele><time>2026-04-26T08:28:52Z</time></trkpt><trkpt lat="43.38322080608197" lon="11.956525508732001"><ele>487.33333333333337</ele><time>2026-04-26T08:28:53Z</time></trkpt><trkpt lat="43.383376310759516" lon="11.95643730897014"><ele>485.6666666666667</ele><time>2026-04-26T08:28:54Z</time></trkpt><trkpt lat="43.3835320812123" lon="11.956334013706156"><ele>484.0</ele><time>2026-04-26T08:28:55Z</time></trkpt><trkpt lat="43.383690743599914" lon="11.956225371601924"><ele>484.6666666666667</ele><time>2026-04-26T08:28:56Z</time></trkpt><trkpt lat="43.38385236595979" lon="11.956125214470942"><ele>485.33333333333337</ele><time>2026-04-26T08:28:57Z</time></trkpt><trkpt lat="43.384017885907724" lon="11.956035754337062"><ele>486.0</ele><time>2026-04-26T08:28:58Z</time></trkpt><trkpt lat="43.3841825113782" lon="11.955933601772044"><ele>485.33333333333337</ele><time>2026-04-26T08:28:59Z</time></trkpt><trkpt lat="43.384351689278375" lon="11.955827167790215"><ele>484.6666666666667</ele><time>2026-04-26T08:29:00Z</time></trkpt><trkpt lat="43.38451950700152" lon="11.955713083425044"><ele>484.0</ele><time>2026-04-26T08:29:01Z</time></trkpt><trkpt lat="43.38468775643213" lon="11.95561128934184"><ele>483.0</ele><time>2026-04-26T08:29:02Z</time></trkpt><trkpt lat="43.38485213204069" lon="11.955511050102434"><ele>482.0</ele><time>2026-04-26T08:29:03Z</time></trkpt><trkpt lat="43.385002997293135" lon="11.955395240417634"><ele>481.0</ele><time>2026-04-26T08:29:04Z</time></trkpt><trkpt lat="43.385145529886316" lon="11.955253946630013"><ele>481.0</ele><time>2026-04-26T08:29:05Z</time></trkpt><trkpt lat="43.38527309628828" lon="11.955088842669348"><ele>481.0</ele><time>2026-04-26T08:29:06Z</time></trkpt><trkpt lat="43.3854002323768" lon="11.954927754506157"><ele>481.0</ele><time>2026-04-26T08:29:07Z</time></trkpt><trkpt lat="43.385530684831515" lon="11.954787068965366"><ele>479.33333333333337</ele><time>2026-04-26T08:29:08Z</time></trkpt><trkpt lat="43.38566589887445" lon="11.954670213911278"><ele>477.66666666666663</ele><time>2026-04-26T08:29:09Z</time></trkpt><trkpt lat="43.385797960479614" lon="11.954577756181207"><ele>476.0</ele><time>2026-04-26T08:29:10Z</time></trkpt><trkpt lat="43.38594438861682" lon="11.954505538523268"><ele>476.0</ele><time>2026-04-26T08:29:11Z</time></trkpt><trkpt lat="43.386093143871825" lon="11.954448505930124"><ele>476.0</ele><time>2026-04-26T08:29:12Z</time></trkpt><trkpt lat="43.386253009385484" lon="11.95440576766165"><ele>476.0</ele><time>2026-04-26T08:29:13Z</time></trkpt><trkpt lat="43.38641272242355" lon="11.954377780672607"><ele>477.3333333333333</ele><time>2026-04-26T08:29:14Z</time></trkpt><trkpt lat="43.386569744165314" lon="11.954343966918277"><ele>478.66666666666663</ele><time>2026-04-26T08:29:15Z</time></trkpt><trkpt lat="43.38672666317653" lon="11.954310056824553"><ele>480.0</ele><time>2026-04-26T08:29:16Z</time></trkpt><trkpt lat="43.38687989194512" lon="11.954279814325414"><ele>480.0</ele><time>2026-04-26T08:29:17Z</time></trkpt><trkpt lat="43.38702807568592" lon="11.954256935583183"><ele>480.0</ele><time>2026-04-26T08:29:18Z</time></trkpt><trkpt lat="43.387173189536526" lon="11.954212451029548"><ele>480.0</ele><time>2026-04-26T08:29:19Z</time></trkpt><trkpt lat="43.387317160631646" lon="11.95412569679215"><ele>477.66666666666663</ele><time>2026-04-26T08:29:20Z</time></trkpt><trkpt lat="43.38744414053892" lon="11.954002706289259"><ele>475.3333333333333</ele><time>2026-04-26T08:29:21Z</time></trkpt><trkpt lat="43.38756340649591" lon="11.95388443047359"><ele>473.0</ele><time>2026-04-26T08:29:22Z</time></trkpt><trkpt lat="43.387689810784096" lon="11.953774840684163"><ele>473.0</ele><time>2026-04-26T08:29:23Z</time></trkpt><trkpt lat="43.38783761607114" lon="11.953727822560943"><ele>473.0</ele><time>2026-04-26T08:29:24Z</time></trkpt><trkpt lat="43.38798926585331" lon="11.953695989876204"><ele>473.0</ele><time>2026-04-26T08:29:25Z</time></trkpt><trkpt lat="43.38813888546193" lon="11.953689177600669"><ele>472.0</ele><time>2026-04-26T08:29:26Z</time></trkpt><trkpt lat="43.388279838284994" lon="11.953706778672514"><ele>471.0</ele><time>2026-04-26T08:29:27Z</time></trkpt><trkpt lat="43.38842835851235" lon="11.953743882977227"><ele>470.0</ele><time>2026-04-26T08:29:28Z</time></trkpt><trkpt lat="43.3885812467337" lon="11.953816268647806"><ele>470.0</ele><time>2026-04-26T08:29:29Z</time></trkpt><trkpt lat="43.38872090909177" lon="11.953917847960192"><ele>470.0</ele><time>2026-04-26T08:29:30Z</time></trkpt><trkpt lat="43.38885137437013" lon="11.954017829304648"><ele>470.0</ele><time>2026-04-26T08:29:31Z</time></trkpt><trkpt lat="43.38897111447838" lon="11.954089304957183"><ele>470.0</ele><time>2026-04-26T08:29:32Z</time></trkpt><trkpt lat="43.389101297655735" lon="11.954137527127685"><ele>469.66666666666663</ele><time>2026-04-26T08:29:33Z</time></trkpt><trkpt lat="43.38924514373807" lon="11.954135298172762"><ele>469.33333333333337</ele><time>2026-04-26T08:29:34Z</time></trkpt><trkpt lat="43.38939554717884" lon="11.95409915011325"><ele>469.0</ele><time>2026-04-26T08:29:35Z</time></trkpt><trkpt lat="43.389549225403755" lon="11.954079231192473"><ele>466.6666666666667</ele><time>2026-04-26T08:29:36Z</time></trkpt><trkpt lat="43.38971126712942" lon="11.954073840926887"><ele>464.33333333333337</ele><time>2026-04-26T08:29:37Z</time></trkpt><trkpt lat="43.38987165083786" lon="11.954087233604824"><ele>462.0</ele><time>2026-04-26T08:29:38Z</time></trkpt><trkpt lat="43.39002873491239" lon="11.95413458616331"><ele>466.33333333333337</ele><time>2026-04-26T08:29:39Z</time></trkpt><trkpt lat="43.390182472133574" lon="11.954212914826028"><ele>470.6666666666667</ele><time>2026-04-26T08:29:40Z</time></trkpt><trkpt lat="43.39034093228538" lon="11.954294068391802"><ele>475.0</ele><time>2026-04-26T08:29:41Z</time></trkpt><trkpt lat="43.39049147198019" lon="11.954364752355115"><ele>473.0</ele><time>2026-04-26T08:29:42Z</time></trkpt><trkpt lat="43.39065410492129" lon="11.954392650601692"><ele>471.0</ele><time>2026-04-26T08:29:43Z</time></trkpt><trkpt lat="43.390823036026454" lon="11.954392426932761"><ele>469.0</ele><time>2026-04-26T08:29:44Z</time></trkpt><trkpt lat="43.39098826679977" lon="11.954385275093873"><ele>469.0</ele><time>2026-04-26T08:29:45Z</time></trkpt><trkpt lat="43.39115631134403" lon="11.95437734136255"><ele>469.0</ele><time>2026-04-26T08:29:46Z</time></trkpt><trkpt lat="43.39132560259208" lon="11.954378532378747"><ele>469.0</ele><time>2026-04-26T08:29:47Z</time></trkpt><trkpt lat="43.39148688628795" lon="11.954433566858606"><ele>466.6666666666667</ele><time>2026-04-26T08:29:48Z</time></trkpt><trkpt lat="43.39164489932752" lon="11.954506891867004"><ele>464.33333333333337</ele><time>2026-04-26T08:29:49Z</time></trkpt><trkpt lat="43.391808107372405" lon="11.95457023970955"><ele>462.0</ele><time>2026-04-26T08:29:50Z</time></trkpt><trkpt lat="43.39197615973677" lon="11.954638540088126"><ele>462.0</ele><time>2026-04-26T08:29:51Z</time></trkpt><trkpt lat="43.39214651710865" lon="11.954709711104018"><ele>462.0</ele><time>2026-04-26T08:29:52Z</time></trkpt><trkpt lat="43.392318156390395" lon="11.954780918777393"><ele>462.0</ele><time>2026-04-26T08:29:53Z</time></trkpt><trkpt lat="43.39249034585448" lon="11.954848314785513"><ele>460.33333333333337</ele><time>2026-04-26T08:29:54Z</time></trkpt><trkpt lat="43.39266654646027" lon="11.954925538270116"><ele>458.6666666666667</ele><time>2026-04-26T08:29:55Z</time></trkpt><trkpt lat="43.39284078448855" lon="11.955006390669054"><ele>457.0</ele><time>2026-04-26T08:29:56Z</time></trkpt><trkpt lat="43.39301732316441" lon="11.955071655021703"><ele>457.0</ele><time>2026-04-26T08:29:57Z</time></trkpt><trkpt lat="43.393192075313735" lon="11.955140922388106"><ele>457.0</ele><time>2026-04-26T08:29:58Z</time></trkpt><trkpt lat="43.39336982199932" lon="11.955209361079103"><ele>457.0</ele><time>2026-04-26T08:29:59Z</time></trkpt><trkpt lat="43.393538834030366" lon="11.955274971397262"><ele>457.0</ele><time>2026-04-26T08:30:00Z</time></trkpt><trkpt lat="43.39368814268882" lon="11.955329079045484"><ele>457.0</ele><time>2026-04-26T08:30:01Z</time></trkpt><trkpt lat="43.393829138804364" lon="11.955374452080337"><ele>457.0</ele><time>2026-04-26T08:30:02Z</time></trkpt><trkpt lat="43.393965265645164" lon="11.955387946469148"><ele>457.0</ele><time>2026-04-26T08:30:03Z</time></trkpt><trkpt lat="43.39410714230759" lon="11.955342808278893"><ele>454.33333333333337</ele><time>2026-04-26T08:30:04Z</time></trkpt><trkpt lat="43.39425198763498" lon="11.955249424156863"><ele>451.66666666666663</ele><time>2026-04-26T08:30:05Z</time></trkpt><trkpt lat="43.394396446844446" lon="11.955163482387272"><ele>449.0</ele><time>2026-04-26T08:30:06Z</time></trkpt><trkpt lat="43.3945522871185" lon="11.955095539526504"><ele>448.5</ele><time>2026-04-26T08:30:07Z</time></trkpt><trkpt lat="43.39470943858121" lon="11.955067699118668"><ele>448.0</ele><time>2026-04-26T08:30:08Z</time></trkpt><trkpt lat="43.394845652797834" lon="11.955076169133271"><ele>447.5</ele><time>2026-04-26T08:30:09Z</time></trkpt><trkpt lat="43.39497681283465" lon="11.95512193701223"><ele>447.0</ele><time>2026-04-26T08:30:10Z</time></trkpt><trkpt lat="43.39509596529193" lon="11.955231016661132"><ele>447.0</ele><time>2026-04-26T08:30:11Z</time></trkpt><trkpt lat="43.39520945385379" lon="11.955372021609044"><ele>447.0</ele><time>2026-04-26T08:30:12Z</time></trkpt><trkpt lat="43.39530476678733" lon="11.955510560885825"><ele>447.0</ele><time>2026-04-26T08:30:13Z</time></trkpt><trkpt lat="43.395430364345444" lon="11.955601630947333"><ele>447.0</ele><time>2026-04-26T08:30:14Z</time></trkpt><trkpt lat="43.395587999031655" lon="11.955659230522865"><ele>446.66666666666663</ele><time>2026-04-26T08:30:15Z</time></trkpt><trkpt lat="43.39575478656523" lon="11.95569766040394"><ele>446.3333333333333</ele><time>2026-04-26T08:30:16Z</time></trkpt><trkpt lat="43.39592702802591" lon="11.95571605665765"><ele>446.0</ele><time>2026-04-26T08:30:17Z</time></trkpt><trkpt lat="43.396110155593455" lon="11.955710975415066"><ele>446.0</ele><time>2026-04-26T08:30:18Z</time></trkpt><trkpt lat="43.39629203814261" lon="11.955706826752806"><ele>446.0</ele><time>2026-04-26T08:30:19Z</time></trkpt><trkpt lat="43.39646831841747" lon="11.955702058386096"><ele>446.0</ele><time>2026-04-26T08:30:20Z</time></trkpt><trkpt lat="43.39664985102174" lon="11.955676735123765"><ele>445.66666666666663</ele><time>2026-04-26T08:30:21Z</time></trkpt><trkpt lat="43.39682406401308" lon="11.955645955896758"><ele>445.33333333333337</ele><time>2026-04-26T08:30:22Z</time></trkpt><trkpt lat="43.3969996012527" lon="11.955588139321893"><ele>445.0</ele><time>2026-04-26T08:30:23Z</time></trkpt><trkpt lat="43.397170395128846" lon="11.955514824989866"><ele>444.0</ele><time>2026-04-26T08:30:24Z</time></trkpt><trkpt lat="43.39734880973668" lon="11.955458967513698"><ele>443.0</ele><time>2026-04-26T08:30:25Z</time></trkpt><trkpt lat="43.397522382581265" lon="11.955420356209313"><ele>442.0</ele><time>2026-04-26T08:30:26Z</time></trkpt><trkpt lat="43.39768291229329" lon="11.95538652406342"><ele>442.0</ele><time>2026-04-26T08:30:27Z</time></trkpt><trkpt lat="43.39784461317205" lon="11.955377966396426"><ele>442.0</ele><time>2026-04-26T08:30:28Z</time></trkpt><trkpt lat="43.39800085135273" lon="11.955431274856089"><ele>442.0</ele><time>2026-04-26T08:30:29Z</time></trkpt><trkpt lat="43.39814500271636" lon="11.955537355106326"><ele>442.33333333333337</ele><time>2026-04-26T08:30:30Z</time></trkpt><trkpt lat="43.39828058670927" lon="11.955655435082724"><ele>442.66666666666663</ele><time>2026-04-26T08:30:31Z</time></trkpt><trkpt lat="43.398411808528934" lon="11.955795220602239"><ele>443.0</ele><time>2026-04-26T08:30:32Z</time></trkpt><trkpt lat="43.39852486663469" lon="11.955963911677609"><ele>443.0</ele><time>2026-04-26T08:30:33Z</time></trkpt><trkpt lat="43.39862938599262" lon="11.95613806364412"><ele>443.0</ele><time>2026-04-26T08:30:34Z</time></trkpt><trkpt lat="43.398729824873115" lon="11.956322274245979"><ele>443.0</ele><time>2026-04-26T08:30:35Z</time></trkpt><trkpt lat="43.39880986156815" lon="11.956511633657744"><ele>442.0</ele><time>2026-04-26T08:30:36Z</time></trkpt><trkpt lat="43.398856962144265" lon="11.956722083227508"><ele>441.0</ele><time>2026-04-26T08:30:37Z</time></trkpt><trkpt lat="43.398885015706966" lon="11.956942400416507"><ele>440.0</ele><time>2026-04-26T08:30:38Z</time></trkpt><trkpt lat="43.398915445547324" lon="11.957138704523448"><ele>440.0</ele><time>2026-04-26T08:30:39Z</time></trkpt><trkpt lat="43.39896482585078" lon="11.957324209352462"><ele>440.0</ele><time>2026-04-26T08:30:40Z</time></trkpt><trkpt lat="43.39904802430355" lon="11.957498658006351"><ele>440.0</ele><time>2026-04-26T08:30:41Z</time></trkpt><trkpt lat="43.399149103588584" lon="11.957657586660682"><ele>440.0</ele><time>2026-04-26T08:30:42Z</time></trkpt><trkpt lat="43.39928550988041" lon="11.957786898646297"><ele>439.66666666666663</ele><time>2026-04-26T08:30:43Z</time></trkpt><trkpt lat="43.399433366011756" lon="11.957876619600293"><ele>439.33333333333337</ele><time>2026-04-26T08:30:44Z</time></trkpt><trkpt lat="43.399596921216315" lon="11.957970921442099"><ele>439.0</ele><time>2026-04-26T08:30:45Z</time></trkpt><trkpt lat="43.399746361193834" lon="11.958054076388372"><ele>439.0</ele><time>2026-04-26T08:30:46Z</time></trkpt><trkpt lat="43.39989805905753" lon="11.95816246016908"><ele>439.0</ele><time>2026-04-26T08:30:47Z</time></trkpt><trkpt lat="43.400058071271644" lon="11.958238454321448"><ele>439.0</ele><time>2026-04-26T08:30:48Z</time></trkpt><trkpt lat="43.40021309883059" lon="11.958331437566443"><ele>438.33333333333337</ele><time>2026-04-26T08:30:49Z</time></trkpt><trkpt lat="43.40035803433716" lon="11.958438957592898"><ele>437.66666666666663</ele><time>2026-04-26T08:30:50Z</time></trkpt><trkpt lat="43.400499153876304" lon="11.958525619642142"><ele>437.0</ele><time>2026-04-26T08:30:51Z</time></trkpt><trkpt lat="43.40064609516446" lon="11.958580024077635"><ele>435.66666666666663</ele><time>2026-04-26T08:30:52Z</time></trkpt><trkpt lat="43.400795967162495" lon="11.958644306371278"><ele>434.33333333333337</ele><time>2026-04-26T08:30:53Z</time></trkpt><trkpt lat="43.400965747763976" lon="11.958654697093078"><ele>433.0</ele><time>2026-04-26T08:30:54Z</time></trkpt><trkpt lat="43.401127535288985" lon="11.958659278433215"><ele>433.0</ele><time>2026-04-26T08:30:55Z</time></trkpt><trkpt lat="43.401302034229445" lon="11.958664480373637"><ele>433.0</ele><time>2026-04-26T08:30:56Z</time></trkpt><trkpt lat="43.40147920980788" lon="11.9586682354765"><ele>433.0</ele><time>2026-04-26T08:30:57Z</time></trkpt><trkpt lat="43.40164487464703" lon="11.958751587971078"><ele>433.33333333333337</ele><time>2026-04-26T08:30:58Z</time></trkpt><trkpt lat="43.40181968282026" lon="11.958804372875203"><ele>433.66666666666663</ele><time>2026-04-26T08:30:59Z</time></trkpt><trkpt lat="43.40198183782329" lon="11.958882972992667"><ele>434.0</ele><time>2026-04-26T08:31:00Z</time></trkpt><trkpt lat="43.40213381229677" lon="11.958948850005795"><ele>433.66666666666663</ele><time>2026-04-26T08:31:01Z</time></trkpt><trkpt lat="43.40226644788882" lon="11.95905842808759"><ele>433.33333333333337</ele><time>2026-04-26T08:31:02Z</time></trkpt><trkpt lat="43.40239398314444" lon="11.959187961079907"><ele>433.0</ele><time>2026-04-26T08:31:03Z</time></trkpt><trkpt lat="43.402487014474175" lon="11.959370174368484"><ele>433.0</ele><time>2026-04-26T08:31:04Z</time></trkpt><trkpt lat="43.40258485480469" lon="11.959544243427166"><ele>433.0</ele><time>2026-04-26T08:31:05Z</time></trkpt><trkpt lat="43.40268294541429" lon="11.959725427620045"><ele>433.0</ele><time>2026-04-26T08:31:06Z</time></trkpt><trkpt lat="43.40278744713877" lon="11.959915007306083"><ele>432.6666666666667</ele><time>2026-04-26T08:31:07Z</time></trkpt><trkpt lat="43.4028928453013" lon="11.96010265038239"><ele>432.33333333333337</ele><time>2026-04-26T08:31:08Z</time></trkpt><trkpt lat="43.40299636068313" lon="11.960286100451889"><ele>432.0</ele><time>2026-04-26T08:31:09Z</time></trkpt><trkpt lat="43.40309373795335" lon="11.960476822617718"><ele>432.0</ele><time>2026-04-26T08:31:10Z</time></trkpt><trkpt lat="43.40316827842497" lon="11.960686936500283"><ele>432.0</ele><time>2026-04-26T08:31:11Z</time></trkpt><trkpt lat="43.40324704602305" lon="11.96090468708102"><ele>432.0</ele><time>2026-04-26T08:31:12Z</time></trkpt><trkpt lat="43.403345149624" lon="11.961102814783573"><ele>432.0</ele><time>2026-04-26T08:31:13Z</time></trkpt><trkpt lat="43.40343659161903" lon="11.961298730808194"><ele>432.0</ele><time>2026-04-26T08:31:14Z</time></trkpt><trkpt lat="43.403513516435694" lon="11.961492825000224"><ele>432.0</ele><time>2026-04-26T08:31:15Z</time></trkpt><trkpt lat="43.4035752370065" lon="11.961695280227044"><ele>431.33333333333337</ele><time>2026-04-26T08:31:16Z</time></trkpt><trkpt lat="43.40361949822338" lon="11.961912107450152"><ele>430.6666666666667</ele><time>2026-04-26T08:31:17Z</time></trkpt><trkpt lat="43.403642898837155" lon="11.962123413667523"><ele>430.0</ele><time>2026-04-26T08:31:18Z</time></trkpt><trkpt lat="43.4036572598665" lon="11.962322828641947"><ele>430.0</ele><time>2026-04-26T08:31:19Z</time></trkpt><trkpt lat="43.40368824631744" lon="11.962524586799349"><ele>430.0</ele><time>2026-04-26T08:31:20Z</time></trkpt><trkpt lat="43.40376091052804" lon="11.962726424340888"><ele>430.0</ele><time>2026-04-26T08:31:21Z</time></trkpt><trkpt lat="43.40386349072334" lon="11.962910727296233"><ele>429.75</ele><time>2026-04-26T08:31:22Z</time></trkpt><trkpt lat="43.40396926890469" lon="11.963060440820824"><ele>429.5</ele><time>2026-04-26T08:31:23Z</time></trkpt><trkpt lat="43.40409555860268" lon="11.9631891020333"><ele>429.25</ele><time>2026-04-26T08:31:24Z</time></trkpt><trkpt lat="43.404220839499075" lon="11.963260209869626"><ele>429.0</ele><time>2026-04-26T08:31:25Z</time></trkpt><trkpt lat="43.404374572971705" lon="11.963283591791264"><ele>429.0</ele><time>2026-04-26T08:31:26Z</time></trkpt><trkpt lat="43.404524922630365" lon="11.963283588650015"><ele>429.0</ele><time>2026-04-26T08:31:27Z</time></trkpt><trkpt lat="43.40468338674514" lon="11.963281749052264"><ele>429.0</ele><time>2026-04-26T08:31:28Z</time></trkpt><trkpt lat="43.4048403182274" lon="11.963283391338383"><ele>429.66666666666663</ele><time>2026-04-26T08:31:29Z</time></trkpt><trkpt lat="43.405000717299146" lon="11.963292786165363"><ele>430.3333333333333</ele><time>2026-04-26T08:31:30Z</time></trkpt><trkpt lat="43.40516165448764" lon="11.963309494479894"><ele>431.0</ele><time>2026-04-26T08:31:31Z</time></trkpt><trkpt lat="43.40532259435101" lon="11.963344717761727"><ele>429.66666666666663</ele><time>2026-04-26T08:31:32Z</time></trkpt><trkpt lat="43.40548203233915" lon="11.963409772086992"><ele>428.33333333333337</ele><time>2026-04-26T08:31:33Z</time></trkpt><trkpt lat="43.40562545193695" lon="11.963499137714882"><ele>427.0</ele><time>2026-04-26T08:31:34Z</time></trkpt><trkpt lat="43.405745086718156" lon="11.96358662978245"><ele>427.0</ele><time>2026-04-26T08:31:35Z</time></trkpt><trkpt lat="43.40584274916981" lon="11.963707028990997"><ele>427.0</ele><time>2026-04-26T08:31:36Z</time></trkpt><trkpt lat="43.40592568478761" lon="11.963878524860421"><ele>427.0</ele><time>2026-04-26T08:31:37Z</time></trkpt><trkpt lat="43.40596551585722" lon="11.964080060818608"><ele>427.0</ele><time>2026-04-26T08:31:38Z</time></trkpt><trkpt lat="43.40599757680586" lon="11.96429953332499"><ele>426.25</ele><time>2026-04-26T08:31:39Z</time></trkpt><trkpt lat="43.40604012989065" lon="11.964500887774706"><ele>425.5</ele><time>2026-04-26T08:31:40Z</time></trkpt><trkpt lat="43.40606118645512" lon="11.96469410276593"><ele>424.75</ele><time>2026-04-26T08:31:41Z</time></trkpt><trkpt lat="43.40612695174822" lon="11.964886677905191"><ele>424.0</ele><time>2026-04-26T08:31:42Z</time></trkpt><trkpt lat="43.40621316568779" lon="11.965071723872116"><ele>424.0</ele><time>2026-04-26T08:31:43Z</time></trkpt><trkpt lat="43.40631164416834" lon="11.965246129139336"><ele>424.0</ele><time>2026-04-26T08:31:44Z</time></trkpt><trkpt lat="43.40641475500193" lon="11.96541953814519"><ele>424.0</ele><time>2026-04-26T08:31:45Z</time></trkpt><trkpt lat="43.40652396439842" lon="11.965580615891467"><ele>423.6666666666667</ele><time>2026-04-26T08:31:46Z</time></trkpt><trkpt lat="43.40663122984171" lon="11.965727344898738"><ele>423.33333333333337</ele><time>2026-04-26T08:31:47Z</time></trkpt><trkpt lat="43.40674671212842" lon="11.965862798279986"><ele>423.0</ele><time>2026-04-26T08:31:48Z</time></trkpt><trkpt lat="43.40686608152663" lon="11.965990318099323"><ele>423.66666666666663</ele><time>2026-04-26T08:31:49Z</time></trkpt><trkpt lat="43.407006661591495" lon="11.966103771942226"><ele>424.3333333333333</ele><time>2026-04-26T08:31:50Z</time></trkpt><trkpt lat="43.40716106515592" lon="11.96618800622765"><ele>425.0</ele><time>2026-04-26T08:31:51Z</time></trkpt><trkpt lat="43.407322624604326" lon="11.966256819500803"><ele>423.3333333333333</ele><time>2026-04-26T08:31:52Z</time></trkpt><trkpt lat="43.40747472712891" lon="11.96631876918608"><ele>421.66666666666663</ele><time>2026-04-26T08:31:53Z</time></trkpt><trkpt lat="43.407630540022396" lon="11.96637295951824"><ele>420.0</ele><time>2026-04-26T08:31:54Z</time></trkpt><trkpt lat="43.40778894393874" lon="11.966391396181475"><ele>420.0</ele><time>2026-04-26T08:31:55Z</time></trkpt><trkpt lat="43.40794305090459" lon="11.966377577887522"><ele>420.0</ele><time>2026-04-26T08:31:56Z</time></trkpt><trkpt lat="43.40809698277134" lon="11.966322117106737"><ele>420.0</ele><time>2026-04-26T08:31:57Z</time></trkpt><trkpt lat="43.40824423275245" lon="11.966253630750753"><ele>419.0</ele><time>2026-04-26T08:31:58Z</time></trkpt><trkpt lat="43.40840212315663" lon="11.966187013063767"><ele>418.0</ele><time>2026-04-26T08:31:59Z</time></trkpt><trkpt lat="43.40856555732266" lon="11.96615566360246"><ele>417.0</ele><time>2026-04-26T08:32:00Z</time></trkpt><trkpt lat="43.408744176336455" lon="11.966152738415843"><ele>417.33333333333337</ele><time>2026-04-26T08:32:01Z</time></trkpt><trkpt lat="43.40891789389101" lon="11.966154799292855"><ele>417.6666666666667</ele><time>2026-04-26T08:32:02Z</time></trkpt><trkpt lat="43.4090905044294" lon="11.966160482441383"><ele>418.0</ele><time>2026-04-26T08:32:03Z</time></trkpt><trkpt lat="43.40926188678131" lon="11.966168295030302"><ele>418.0</ele><time>2026-04-26T08:32:04Z</time></trkpt><trkpt lat="43.40943128389793" lon="11.966184600128006"><ele>418.0</ele><time>2026-04-26T08:32:05Z</time></trkpt><trkpt lat="43.4095966733942" lon="11.966219605923747"><ele>418.0</ele><time>2026-04-26T08:32:06Z</time></trkpt><trkpt lat="43.40975894577144" lon="11.966274739331698"><ele>417.6666666666667</ele><time>2026-04-26T08:32:07Z</time></trkpt><trkpt lat="43.409922453937895" lon="11.966337866698993"><ele>417.33333333333337</ele><time>2026-04-26T08:32:08Z</time></trkpt><trkpt lat="43.41008776855091" lon="11.966405431928335"><ele>417.0</ele><time>2026-04-26T08:32:09Z</time></trkpt><trkpt lat="43.410250179713906" lon="11.966480197400335"><ele>417.0</ele><time>2026-04-26T08:32:10Z</time></trkpt><trkpt lat="43.41041263502003" lon="11.966564375664593"><ele>417.0</ele><time>2026-04-26T08:32:11Z</time></trkpt><trkpt lat="43.41057444551645" lon="11.966652912494585"><ele>417.0</ele><time>2026-04-26T08:32:12Z</time></trkpt><trkpt lat="43.41073648605996" lon="11.966749568382285"><ele>416.0</ele><time>2026-04-26T08:32:13Z</time></trkpt><trkpt lat="43.41089977495256" lon="11.966846299812255"><ele>415.0</ele><time>2026-04-26T08:32:14Z</time></trkpt><trkpt lat="43.411065834088035" lon="11.966943972135166"><ele>414.0</ele><time>2026-04-26T08:32:15Z</time></trkpt><trkpt lat="43.41123042792621" lon="11.967045847926755"><ele>413.66666666666663</ele><time>2026-04-26T08:32:16Z</time></trkpt><trkpt lat="43.41139448528266" lon="11.967154428615146"><ele>413.3333333333333</ele><time>2026-04-26T08:32:17Z</time></trkpt><trkpt lat="43.41155918893755" lon="11.967269210792356"><ele>413.0</ele><time>2026-04-26T08:32:18Z</time></trkpt><trkpt lat="43.41172074227097" lon="11.967385907807174"><ele>413.0</ele><time>2026-04-26T08:32:19Z</time></trkpt><trkpt lat="43.41187592391925" lon="11.967496892528887"><ele>413.0</ele><time>2026-04-26T08:32:20Z</time></trkpt><trkpt lat="43.41202381347324" lon="11.967606503413037"><ele>413.0</ele><time>2026-04-26T08:32:21Z</time></trkpt><trkpt lat="43.41216535672922" lon="11.967737148763787"><ele>414.66666666666663</ele><time>2026-04-26T08:32:22Z</time></trkpt><trkpt lat="43.41228920520371" lon="11.967886042276783"><ele>416.33333333333337</ele><time>2026-04-26T08:32:23Z</time></trkpt><trkpt lat="43.41239339054834" lon="11.968043513007473"><ele>418.0</ele><time>2026-04-26T08:32:24Z</time></trkpt><trkpt lat="43.41250396766138" lon="11.968218919342801"><ele>416.0</ele><time>2026-04-26T08:32:25Z</time></trkpt><trkpt lat="43.41262133324554" lon="11.96837652195699"><ele>414.0</ele><time>2026-04-26T08:32:26Z</time></trkpt><trkpt lat="43.412761262335415" lon="11.96850828610404"><ele>412.0</ele><time>2026-04-26T08:32:27Z</time></trkpt><trkpt lat="43.412914881850064" lon="11.968621332713214"><ele>413.33333333333337</ele><time>2026-04-26T08:32:28Z</time></trkpt><trkpt lat="43.41307186366866" lon="11.968723425987681"><ele>414.66666666666663</ele><time>2026-04-26T08:32:29Z</time></trkpt><trkpt lat="43.41323095806205" lon="11.9688113033033"><ele>416.0</ele><time>2026-04-26T08:32:30Z</time></trkpt><trkpt lat="43.413402304384626" lon="11.96887342917713"><ele>416.0</ele><time>2026-04-26T08:32:31Z</time></trkpt><trkpt lat="43.4135701328221" lon="11.968900816655504"><ele>416.0</ele><time>2026-04-26T08:32:32Z</time></trkpt><trkpt lat="43.413726575269266" lon="11.968926573109297"><ele>416.0</ele><time>2026-04-26T08:32:33Z</time></trkpt><trkpt lat="43.41386329329512" lon="11.968995033236247"><ele>415.3333333333333</ele><time>2026-04-26T08:32:34Z</time></trkpt><trkpt lat="43.41399300899541" lon="11.969095604204714"><ele>414.66666666666663</ele><time>2026-04-26T08:32:35Z</time></trkpt><trkpt lat="43.41412061534413" lon="11.969222716224643"><ele>414.0</ele><time>2026-04-26T08:32:36Z</time></trkpt><trkpt lat="43.41424936197657" lon="11.969359750195709"><ele>414.0</ele><time>2026-04-26T08:32:37Z</time></trkpt><trkpt lat="43.41437849027152" lon="11.969504524602996"><ele>414.0</ele><time>2026-04-26T08:32:38Z</time></trkpt><trkpt lat="43.414497968062996" lon="11.969668477134524"><ele>414.0</ele><time>2026-04-26T08:32:39Z</time></trkpt><trkpt lat="43.414599051672774" lon="11.969852783463967"><ele>415.33333333333337</ele><time>2026-04-26T08:32:40Z</time></trkpt><trkpt lat="43.41468444091478" lon="11.970044850220836"><ele>416.6666666666667</ele><time>2026-04-26T08:32:41Z</time></trkpt><trkpt lat="43.41475568939858" lon="11.970249624007476"><ele>418.0</ele><time>2026-04-26T08:32:42Z</time></trkpt><trkpt lat="43.41480865311187" lon="11.970454160292473"><ele>418.0</ele><time>2026-04-26T08:32:43Z</time></trkpt><trkpt lat="43.41484806087347" lon="11.970661490186584"><ele>418.0</ele><time>2026-04-26T08:32:44Z</time></trkpt><trkpt lat="43.41488253199096" lon="11.970859140452976"><ele>418.0</ele><time>2026-04-26T08:32:45Z</time></trkpt><trkpt lat="43.41491759024314" lon="11.971049775650242"><ele>418.0</ele><time>2026-04-26T08:32:46Z</time></trkpt><trkpt lat="43.41496641996878" lon="11.971236938647957"><ele>417.0</ele><time>2026-04-26T08:32:47Z</time></trkpt><trkpt lat="43.41504069859206" lon="11.971391039633502"><ele>416.0</ele><time>2026-04-26T08:32:48Z</time></trkpt><trkpt lat="43.415107327528276" lon="11.971538169090634"><ele>415.0</ele><time>2026-04-26T08:32:49Z</time></trkpt><trkpt lat="43.41515951848802" lon="11.971684241670587"><ele>414.0</ele><time>2026-04-26T08:32:50Z</time></trkpt><trkpt lat="43.41522717554991" lon="11.97179346698474"><ele>414.6</ele><time>2026-04-26T08:32:51Z</time></trkpt><trkpt lat="43.41527332970193" lon="11.971881744623293"><ele>415.2</ele><time>2026-04-26T08:32:52Z</time></trkpt><trkpt lat="43.4153291000278" lon="11.972029741606834"><ele>415.8</ele><time>2026-04-26T08:32:54Z</time></trkpt><trkpt lat="43.415401148997674" lon="11.972166863745679"><ele>416.40000000000003</ele><time>2026-04-26T08:32:56Z</time></trkpt><trkpt lat="43.415476278937334" lon="11.972291164255306"><ele>417.0</ele><time>2026-04-26T08:32:58Z</time></trkpt><trkpt lat="43.415551509592404" lon="11.972401127598545"><ele>417.0</ele><time>2026-04-26T08:33:00Z</time></trkpt><trkpt lat="43.41563050116602" lon="11.972493707609186"><ele>417.0</ele><time>2026-04-26T08:33:02Z</time></trkpt><trkpt lat="43.41571498437295" lon="11.972594247853232"><ele>417.0</ele><time>2026-04-26T08:33:04Z</time></trkpt><trkpt lat="43.41579103740782" lon="11.97269152578199"><ele>417.0</ele><time>2026-04-26T08:33:06Z</time></trkpt><trkpt lat="43.41586101712821" lon="11.97278680348504"><ele>417.0</ele><time>2026-04-26T08:33:08Z</time></trkpt><trkpt lat="43.41594716159134" lon="11.972861851108933"><ele>416.1666666666667</ele><time>2026-04-26T08:33:10Z</time></trkpt><trkpt lat="43.41602051057817" lon="11.97293158387515"><ele>415.33333333333337</ele><time>2026-04-26T08:33:12Z</time></trkpt><trkpt lat="43.41609732964855" lon="11.972989518626218"><ele>414.5</ele><time>2026-04-26T08:33:14Z</time></trkpt><trkpt lat="43.41617005758372" lon="11.973027942021371"><ele>413.6666666666667</ele><time>2026-04-26T08:33:16Z</time></trkpt><trkpt lat="43.41625452140271" lon="11.973074707629504"><ele>412.83333333333337</ele><time>2026-04-26T08:33:18Z</time></trkpt><trkpt lat="43.41634597675937" lon="11.973123082567763"><ele>412.0</ele><time>2026-04-26T08:33:20Z</time></trkpt><trkpt lat="43.416443926619415" lon="11.973158043096985"><ele>412.0</ele><time>2026-04-26T08:33:22Z</time></trkpt><trkpt lat="43.41654900906248" lon="11.97316898653029"><ele>412.0</ele><time>2026-04-26T08:33:24Z</time></trkpt><trkpt lat="43.416668985770556" lon="11.973189799139888"><ele>412.0</ele><time>2026-04-26T08:33:26Z</time></trkpt><trkpt lat="43.41675151358916" lon="11.97318095009368"><ele>412.0</ele><time>2026-04-26T08:33:27Z</time></trkpt><trkpt lat="43.41684798700671" lon="11.973166125054473"><ele>412.0</ele><time>2026-04-26T08:33:28Z</time></trkpt><trkpt lat="43.41696158940915" lon="11.973147379326818"><ele>412.0</ele><time>2026-04-26T08:33:29Z</time></trkpt><trkpt lat="43.41708273174626" lon="11.973128508493966"><ele>412.0</ele><time>2026-04-26T08:33:30Z</time></trkpt><trkpt lat="43.4172084569846" lon="11.973088950992452"><ele>412.0</ele><time>2026-04-26T08:33:31Z</time></trkpt><trkpt lat="43.417343748486566" lon="11.973078166104733"><ele>412.0</ele><time>2026-04-26T08:33:32Z</time></trkpt><trkpt lat="43.4174843076037" lon="11.97305298919275"><ele>411.5</ele><time>2026-04-26T08:33:33Z</time></trkpt><trkpt lat="43.4176309521785" lon="11.97301723777972"><ele>411.0</ele><time>2026-04-26T08:33:34Z</time></trkpt><trkpt lat="43.417773834435145" lon="11.972985026351708"><ele>410.5</ele><time>2026-04-26T08:33:35Z</time></trkpt><trkpt lat="43.417916873237914" lon="11.972947794374688"><ele>410.0</ele><time>2026-04-26T08:33:36Z</time></trkpt><trkpt lat="43.418058260704484" lon="11.972912446768694"><ele>409.75</ele><time>2026-04-26T08:33:37Z</time></trkpt><trkpt lat="43.418204336621905" lon="11.972908910417898"><ele>409.5</ele><time>2026-04-26T08:33:38Z</time></trkpt><trkpt lat="43.418351365350176" lon="11.972903340852262"><ele>409.25</ele><time>2026-04-26T08:33:39Z</time></trkpt><trkpt lat="43.4184993586861" lon="11.972912639644454"><ele>409.0</ele><time>2026-04-26T08:33:40Z</time></trkpt><trkpt lat="43.41864340861351" lon="11.972942703086545"><ele>409.0</ele><time>2026-04-26T08:33:41Z</time></trkpt><trkpt lat="43.41878701438593" lon="11.972982030246861"><ele>409.0</ele><time>2026-04-26T08:33:42Z</time></trkpt><trkpt lat="43.41893598797708" lon="11.973029047875125"><ele>409.0</ele><time>2026-04-26T08:33:43Z</time></trkpt><trkpt lat="43.419084160624855" lon="11.973085884991281"><ele>410.33333333333337</ele><time>2026-04-26T08:33:44Z</time></trkpt><trkpt lat="43.41923308359585" lon="11.973160970718725"><ele>411.66666666666663</ele><time>2026-04-26T08:33:45Z</time></trkpt><trkpt lat="43.41937659549973" lon="11.973252296577694"><ele>413.0</ele><time>2026-04-26T08:33:46Z</time></trkpt><trkpt lat="43.41951253455448" lon="11.973356572604306"><ele>410.66666666666663</ele><time>2026-04-26T08:33:47Z</time></trkpt><trkpt lat="43.41964561731721" lon="11.97347152981361"><ele>408.33333333333337</ele><time>2026-04-26T08:33:48Z</time></trkpt><trkpt lat="43.419767171891166" lon="11.973601247038088"><ele>406.0</ele><time>2026-04-26T08:33:49Z</time></trkpt><trkpt lat="43.41988282250426" lon="11.973741251456172"><ele>406.0</ele><time>2026-04-26T08:33:50Z</time></trkpt><trkpt lat="43.419995316986764" lon="11.973879322501581"><ele>406.0</ele><time>2026-04-26T08:33:51Z</time></trkpt><trkpt lat="43.42010519223907" lon="11.974009775041191"><ele>406.0</ele><time>2026-04-26T08:33:52Z</time></trkpt><trkpt lat="43.42021438579946" lon="11.97411755968968"><ele>406.0</ele><time>2026-04-26T08:33:53Z</time></trkpt><trkpt lat="43.42034312347205" lon="11.974184483162698"><ele>406.5</ele><time>2026-04-26T08:33:54Z</time></trkpt><trkpt lat="43.42048341029864" lon="11.974199849216427"><ele>407.0</ele><time>2026-04-26T08:33:55Z</time></trkpt><trkpt lat="43.420620764131854" lon="11.97416503612538"><ele>407.5</ele><time>2026-04-26T08:33:56Z</time></trkpt><trkpt lat="43.42076363322887" lon="11.974159055611583"><ele>408.0</ele><time>2026-04-26T08:33:57Z</time></trkpt><trkpt lat="43.420906103873214" lon="11.974151879603214"><ele>408.0</ele><time>2026-04-26T08:33:58Z</time></trkpt><trkpt lat="43.42103808410649" lon="11.974142146445901"><ele>408.0</ele><time>2026-04-26T08:33:59Z</time></trkpt><trkpt lat="43.42115879743848" lon="11.974164637331711"><ele>408.0</ele><time>2026-04-26T08:34:00Z</time></trkpt><trkpt lat="43.42126670035868" lon="11.974155043213802"><ele>408.0</ele><time>2026-04-26T08:34:01Z</time></trkpt><trkpt lat="43.4213595335267" lon="11.97412816839332"><ele>407.59999999999997</ele><time>2026-04-26T08:34:02Z</time></trkpt><trkpt lat="43.42143759465703" lon="11.974128602409456"><ele>407.2</ele><time>2026-04-26T08:34:03Z</time></trkpt><trkpt lat="43.42154373672187" lon="11.974114237572833"><ele>406.8</ele><time>2026-04-26T08:34:05Z</time></trkpt><trkpt lat="43.421605494588476" lon="11.974092577325791"><ele>406.4</ele><time>2026-04-26T08:34:08Z</time></trkpt><trkpt lat="43.42165896284972" lon="11.97426764500428"><ele>406.0</ele><time>2026-04-26T08:34:11Z</time></trkpt><trkpt lat="43.421679874909024" lon="11.974369528020835"><ele>405.6</ele><time>2026-04-26T08:34:12Z</time></trkpt><trkpt lat="43.421704917762945" lon="11.974485810952773"><ele>405.20000000000005</ele><time>2026-04-26T08:34:13Z</time></trkpt><trkpt lat="43.42173206612423" lon="11.974611870452987"><ele>404.79999999999995</ele><time>2026-04-26T08:34:14Z</time></trkpt><trkpt lat="43.42175755263888" lon="11.974730213758672"><ele>404.4</ele><time>2026-04-26T08:34:15Z</time></trkpt><trkpt lat="43.42178627929482" lon="11.974860060692246"><ele>404.0</ele><time>2026-04-26T08:34:16Z</time></trkpt><trkpt lat="43.421816618880946" lon="11.974998310605619"><ele>403.5</ele><time>2026-04-26T08:34:17Z</time></trkpt><trkpt lat="43.421848095559135" lon="11.97514233637745"><ele>403.0</ele><time>2026-04-26T08:34:18Z</time></trkpt><trkpt lat="43.42188160389378" lon="11.975293631503499"><ele>402.5</ele><time>2026-04-26T08:34:19Z</time></trkpt><trkpt lat="43.42191621220027" lon="11.97545073032784"><ele>402.0</ele><time>2026-04-26T08:34:20Z</time></trkpt><trkpt lat="43.421950367713386" lon="11.975607933626822"><ele>402.0</ele><time>2026-04-26T08:34:21Z</time></trkpt><trkpt lat="43.421985907362675" lon="11.97577078187083"><ele>402.0</ele><time>2026-04-26T08:34:22Z</time></trkpt><trkpt lat="43.42201964928867" lon="11.975927498196738"><ele>402.0</ele><time>2026-04-26T08:34:23Z</time></trkpt><trkpt lat="43.42205308781906" lon="11.976081471792684"><ele>402.0</ele><time>2026-04-26T08:34:24Z</time></trkpt><trkpt lat="43.422086458139255" lon="11.976234816750864"><ele>402.20000000000005</ele><time>2026-04-26T08:34:25Z</time></trkpt><trkpt lat="43.422119394164554" lon="11.976383320460238"><ele>402.4</ele><time>2026-04-26T08:34:26Z</time></trkpt><trkpt lat="43.42216607062546" lon="11.976508334487267"><ele>402.6</ele><time>2026-04-26T08:34:27Z</time></trkpt><trkpt lat="43.42219528479725" lon="11.976644545596908"><ele>402.79999999999995</ele><time>2026-04-26T08:34:28Z</time></trkpt><trkpt lat="43.42227310004358" lon="11.976764710916827"><ele>403.0</ele><time>2026-04-26T08:34:29Z</time></trkpt><trkpt lat="43.422386413069965" lon="11.976845815162784"><ele>403.5</ele><time>2026-04-26T08:34:30Z</time></trkpt><trkpt lat="43.422520596508726" lon="11.976856753964524"><ele>404.0</ele><time>2026-04-26T08:34:31Z</time></trkpt><trkpt lat="43.422653262254414" lon="11.976844069612461"><ele>404.5</ele><time>2026-04-26T08:34:32Z</time></trkpt><trkpt lat="43.4227878622526" lon="11.976842344819635"><ele>405.0</ele><time>2026-04-26T08:34:33Z</time></trkpt><trkpt lat="43.422924614756475" lon="11.976822946307284"><ele>404.25</ele><time>2026-04-26T08:34:34Z</time></trkpt><trkpt lat="43.423065076979846" lon="11.976802529174707"><ele>403.5</ele><time>2026-04-26T08:34:35Z</time></trkpt><trkpt lat="43.4232094433983" lon="11.976755585047304"><ele>402.75</ele><time>2026-04-26T08:34:36Z</time></trkpt><trkpt lat="43.42335659909219" lon="11.976734014171992"><ele>402.0</ele><time>2026-04-26T08:34:37Z</time></trkpt><trkpt lat="43.423508847515734" lon="11.97671212399668"><ele>402.0</ele><time>2026-04-26T08:34:38Z</time></trkpt><trkpt lat="43.423664773983816" lon="11.976689714602596"><ele>402.0</ele><time>2026-04-26T08:34:39Z</time></trkpt><trkpt lat="43.423814987307026" lon="11.976667731930005"><ele>402.0</ele><time>2026-04-26T08:34:40Z</time></trkpt><trkpt lat="43.42396886551855" lon="11.976642392880915"><ele>403.33333333333337</ele><time>2026-04-26T08:34:41Z</time></trkpt><trkpt lat="43.42412608658072" lon="11.97665314994664"><ele>404.6666666666667</ele><time>2026-04-26T08:34:42Z</time></trkpt><trkpt lat="43.4242809612884" lon="11.976633676510575"><ele>406.0</ele><time>2026-04-26T08:34:43Z</time></trkpt><trkpt lat="43.42444268445399" lon="11.976617400923672"><ele>406.0</ele><time>2026-04-26T08:34:44Z</time></trkpt><trkpt lat="43.42460460260528" lon="11.97658724849506"><ele>406.0</ele><time>2026-04-26T08:34:45Z</time></trkpt><trkpt lat="43.4247697135132" lon="11.9765925241566"><ele>406.0</ele><time>2026-04-26T08:34:46Z</time></trkpt><trkpt lat="43.424931228630996" lon="11.976635913479678"><ele>406.33333333333337</ele><time>2026-04-26T08:34:47Z</time></trkpt><trkpt lat="43.42509363393505" lon="11.976676580084687"><ele>406.66666666666663</ele><time>2026-04-26T08:34:48Z</time></trkpt><trkpt lat="43.425258824537416" lon="11.976723092342919"><ele>407.0</ele><time>2026-04-26T08:34:49Z</time></trkpt><trkpt lat="43.425424288758" lon="11.976769965808739"><ele>407.66666666666663</ele><time>2026-04-26T08:34:50Z</time></trkpt><trkpt lat="43.425594726622336" lon="11.976783012807136"><ele>408.33333333333337</ele><time>2026-04-26T08:34:51Z</time></trkpt><trkpt lat="43.42576358909447" lon="11.976832546434725"><ele>409.0</ele><time>2026-04-26T08:34:52Z</time></trkpt><trkpt lat="43.42593477875557" lon="11.976886037578772"><ele>409.0</ele><time>2026-04-26T08:34:53Z</time></trkpt><trkpt lat="43.42610547159347" lon="11.976943319404265"><ele>409.0</ele><time>2026-04-26T08:34:54Z</time></trkpt><trkpt lat="43.4262698710183" lon="11.977033133258866"><ele>409.0</ele><time>2026-04-26T08:34:55Z</time></trkpt><trkpt lat="43.426438762227264" lon="11.977092354348068"><ele>408.0</ele><time>2026-04-26T08:34:56Z</time></trkpt><trkpt lat="43.426592067018596" lon="11.977216840518205"><ele>407.0</ele><time>2026-04-26T08:34:57Z</time></trkpt><trkpt lat="43.4267405005142" lon="11.977338808769321"><ele>406.0</ele><time>2026-04-26T08:34:58Z</time></trkpt><trkpt lat="43.426884887127414" lon="11.977483443358585"><ele>405.6666666666667</ele><time>2026-04-26T08:34:59Z</time></trkpt><trkpt lat="43.42702027036894" lon="11.9776344051721"><ele>405.33333333333337</ele><time>2026-04-26T08:35:00Z</time></trkpt><trkpt lat="43.4271543616279" lon="11.977797141030733"><ele>405.0</ele><time>2026-04-26T08:35:01Z</time></trkpt><trkpt lat="43.42728877003998" lon="11.97795889304784"><ele>405.0</ele><time>2026-04-26T08:35:02Z</time></trkpt><trkpt lat="43.42744385977655" lon="11.97808798603246"><ele>405.0</ele><time>2026-04-26T08:35:03Z</time></trkpt><trkpt lat="43.42759031444171" lon="11.978235356081454"><ele>405.0</ele><time>2026-04-26T08:35:04Z</time></trkpt><trkpt lat="43.42774232188477" lon="11.97836809771559"><ele>404.33333333333337</ele><time>2026-04-26T08:35:05Z</time></trkpt><trkpt lat="43.427894160480776" lon="11.978482443314478"><ele>403.6666666666667</ele><time>2026-04-26T08:35:06Z</time></trkpt><trkpt lat="43.428031596976425" lon="11.978612079580948"><ele>403.0</ele><time>2026-04-26T08:35:07Z</time></trkpt><trkpt lat="43.42817186641056" lon="11.978707140090261"><ele>403.0</ele><time>2026-04-26T08:35:08Z</time></trkpt><trkpt lat="43.42830364986443" lon="11.978788297124337"><ele>403.0</ele><time>2026-04-26T08:35:09Z</time></trkpt><trkpt lat="43.42842360757745" lon="11.978852827876711"><ele>403.0</ele><time>2026-04-26T08:35:10Z</time></trkpt><trkpt lat="43.42852335561492" lon="11.978901002596956"><ele>403.0</ele><time>2026-04-26T08:35:11Z</time></trkpt><trkpt lat="43.42860758112511" lon="11.978935993613792"><ele>403.0</ele><time>2026-04-26T08:35:12Z</time></trkpt><trkpt lat="43.4286820055192" lon="11.978963350397276"><ele>403.0</ele><time>2026-04-26T08:35:13Z</time></trkpt><trkpt lat="43.42875626260908" lon="11.978764477644347"><ele>403.0</ele><time>2026-04-26T08:35:14Z</time></trkpt><trkpt lat="43.42880397353959" lon="11.978637024124255"><ele>403.0</ele><time>2026-04-26T08:35:15Z</time></trkpt><trkpt lat="43.42886526342047" lon="11.97850519074932"><ele>403.5</ele><time>2026-04-26T08:35:16Z</time></trkpt><trkpt lat="43.42892340798125" lon="11.978367531258034"><ele>404.0</ele><time>2026-04-26T08:35:17Z</time></trkpt><trkpt lat="43.429025193012535" lon="11.978266454890951"><ele>404.5</ele><time>2026-04-26T08:35:18Z</time></trkpt><trkpt lat="43.4291273474573" lon="11.978165622141304"><ele>405.0</ele><time>2026-04-26T08:35:19Z</time></trkpt><trkpt lat="43.429232093346535" lon="11.978061643330893"><ele>403.25</ele><time>2026-04-26T08:35:20Z</time></trkpt><trkpt lat="43.429343746943175" lon="11.977966665011763"><ele>401.5</ele><time>2026-04-26T08:35:21Z</time></trkpt><trkpt lat="43.42946275922393" lon="11.977860891657135"><ele>399.75</ele><time>2026-04-26T08:35:22Z</time></trkpt><trkpt lat="43.42959779649193" lon="11.977764683601537"><ele>398.0</ele><time>2026-04-26T08:35:23Z</time></trkpt><trkpt lat="43.42974250302204" lon="11.977679315698618"><ele>397.3333333333333</ele><time>2026-04-26T08:35:24Z</time></trkpt><trkpt lat="43.42989275832566" lon="11.977616097943118"><ele>396.66666666666663</ele><time>2026-04-26T08:35:25Z</time></trkpt><trkpt lat="43.430047098703035" lon="11.977573753827658"><ele>396.0</ele><time>2026-04-26T08:35:26Z</time></trkpt><trkpt lat="43.43021146592598" lon="11.977552692489928"><ele>396.0</ele><time>2026-04-26T08:35:27Z</time></trkpt><trkpt lat="43.4303701748849" lon="11.977533325369034"><ele>396.0</ele><time>2026-04-26T08:35:28Z</time></trkpt><trkpt lat="43.43052617824859" lon="11.977517688249602"><ele>396.0</ele><time>2026-04-26T08:35:29Z</time></trkpt><trkpt lat="43.43068383053051" lon="11.977529511079291"><ele>396.0</ele><time>2026-04-26T08:35:30Z</time></trkpt><trkpt lat="43.43085005954739" lon="11.9775394462235"><ele>396.0</ele><time>2026-04-26T08:35:31Z</time></trkpt><trkpt lat="43.431031354359796" lon="11.977563287198809"><ele>396.0</ele><time>2026-04-26T08:35:32Z</time></trkpt><trkpt lat="43.43121021040086" lon="11.977590711284973"><ele>395.66666666666663</ele><time>2026-04-26T08:35:33Z</time></trkpt><trkpt lat="43.43139730858784" lon="11.977611546316131"><ele>395.3333333333333</ele><time>2026-04-26T08:35:34Z</time></trkpt><trkpt lat="43.43158834646836" lon="11.977629463373368"><ele>395.0</ele><time>2026-04-26T08:35:35Z</time></trkpt><trkpt lat="43.43178698898553" lon="11.977640879291528"><ele>395.0</ele><time>2026-04-26T08:35:36Z</time></trkpt><trkpt lat="43.431992399742036" lon="11.97764224954729"><ele>395.0</ele><time>2026-04-26T08:35:37Z</time></trkpt><trkpt lat="43.4322043667948" lon="11.977635329961283"><ele>395.0</ele><time>2026-04-26T08:35:38Z</time></trkpt><trkpt lat="43.43241661941608" lon="11.977623935189758"><ele>395.3333333333333</ele><time>2026-04-26T08:35:39Z</time></trkpt><trkpt lat="43.43263616276805" lon="11.97760686247291"><ele>395.66666666666663</ele><time>2026-04-26T08:35:40Z</time></trkpt><trkpt lat="43.43286186615525" lon="11.977587099684584"><ele>396.0</ele><time>2026-04-26T08:35:41Z</time></trkpt><trkpt lat="43.4330913109923" lon="11.977569449455167"><ele>398.0</ele><time>2026-04-26T08:35:42Z</time></trkpt><trkpt lat="43.433324058451966" lon="11.977546620208013"><ele>400.0</ele><time>2026-04-26T08:35:43Z</time></trkpt><trkpt lat="43.43356182459773" lon="11.9775210186289"><ele>404.0</ele><time>2026-04-26T08:35:44Z</time></trkpt><trkpt lat="43.43380284349739" lon="11.977498551537611"><ele>408.0</ele><time>2026-04-26T08:35:45Z</time></trkpt><trkpt lat="43.43405127176081" lon="11.97747244622428"><ele>418.5</ele><time>2026-04-26T08:35:46.019Z</time></trkpt><trkpt lat="43.43429855677792" lon="11.977444282868912"><ele>429.0</ele><time>2026-04-26T08:35:47.019Z</time></trkpt><trkpt lat="43.43455046955949" lon="11.977419000547917"><ele>431.5</ele><time>2026-04-26T08:35:48.022Z</time></trkpt><trkpt lat="43.434800246593305" lon="11.977392774754573"><ele>434.0</ele><time>2026-04-26T08:35:49.016Z</time></trkpt><trkpt lat="43.43654782515339" lon="11.977269239734836"><ele>414.0</ele><time>2026-04-26T08:35:56Z</time></trkpt><trkpt lat="43.436795017700405" lon="11.977262994787058"><ele>394.0</ele><time>2026-04-26T08:35:57Z</time></trkpt><trkpt lat="43.43705446179881" lon="11.977293247711986"><ele>393.5</ele><time>2026-04-26T08:35:58Z</time></trkpt><trkpt lat="43.43729353260794" lon="11.977334117671225"><ele>393.0</ele><time>2026-04-26T08:35:59Z</time></trkpt><trkpt lat="43.437541960499026" lon="11.977392226495837"><ele>393.0</ele><time>2026-04-26T08:36:00Z</time></trkpt><trkpt lat="43.43777434099956" lon="11.977451629805257"><ele>393.0</ele><time>2026-04-26T08:36:01Z</time></trkpt><trkpt lat="43.43798271803314" lon="11.977543749147115"><ele>393.5</ele><time>2026-04-26T08:36:02Z</time></trkpt><trkpt lat="43.438209471130406" lon="11.977646625005457"><ele>394.0</ele><time>2026-04-26T08:36:03Z</time></trkpt><trkpt lat="43.438431475595976" lon="11.977758719187186"><ele>394.0</ele><time>2026-04-26T08:36:04Z</time></trkpt><trkpt lat="43.43864810851674" lon="11.977886598246618"><ele>394.0</ele><time>2026-04-26T08:36:05Z</time></trkpt><trkpt lat="43.43885902764993" lon="11.978031519853623"><ele>393.5</ele><time>2026-04-26T08:36:06Z</time></trkpt><trkpt lat="43.43906496404304" lon="11.978187607372027"><ele>393.0</ele><time>2026-04-26T08:36:07Z</time></trkpt><trkpt lat="43.439271485402074" lon="11.978354267934893"><ele>398.5</ele><time>2026-04-26T08:36:08Z</time></trkpt><trkpt lat="43.43946678102722" lon="11.978535183995305"><ele>404.0</ele><time>2026-04-26T08:36:09Z</time></trkpt><trkpt lat="43.439654164256936" lon="11.978728898079982"><ele>404.0</ele><time>2026-04-26T08:36:10Z</time></trkpt><trkpt lat="43.43983236291798" lon="11.978935618662838"><ele>404.0</ele><time>2026-04-26T08:36:11Z</time></trkpt><trkpt lat="43.44000361886184" lon="11.979152856961038"><ele>413.5</ele><time>2026-04-26T08:36:12Z</time></trkpt><trkpt lat="43.44016630218898" lon="11.979385280331561"><ele>423.0</ele><time>2026-04-26T08:36:13Z</time></trkpt><trkpt lat="43.44032307714092" lon="11.979626614637061"><ele>407.0</ele><time>2026-04-26T08:36:14Z</time></trkpt><trkpt lat="43.44047043259941" lon="11.979878269623805"><ele>391.0</ele><time>2026-04-26T08:36:15Z</time></trkpt><trkpt lat="43.44060918033004" lon="11.980140811457293"><ele>390.0</ele><time>2026-04-26T08:36:16Z</time></trkpt><trkpt lat="43.440739690162054" lon="11.980410489981248"><ele>389.0</ele><time>2026-04-26T08:36:17Z</time></trkpt><trkpt lat="43.440861721078406" lon="11.98068829244349"><ele>390.5</ele><time>2026-04-26T08:36:18Z</time></trkpt><trkpt lat="43.440972828907846" lon="11.980971608710899"><ele>392.0</ele><time>2026-04-26T08:36:19Z</time></trkpt><trkpt lat="43.44107662616405" lon="11.981259222899508"><ele>392.0</ele><time>2026-04-26T08:36:20Z</time></trkpt><trkpt lat="43.44117247304188" lon="11.98155332528938"><ele>392.0</ele><time>2026-04-26T08:36:21Z</time></trkpt><trkpt lat="43.44125398403928" lon="11.981855335183212"><ele>405.5</ele><time>2026-04-26T08:36:22Z</time></trkpt><trkpt lat="43.44133205204575" lon="11.982165695398503"><ele>419.0</ele><time>2026-04-26T08:36:23Z</time></trkpt><trkpt lat="43.441408074275905" lon="11.982472235862968"><ele>413.0</ele><time>2026-04-26T08:36:24Z</time></trkpt><trkpt lat="43.441487424992246" lon="11.982782689127465"><ele>407.0</ele><time>2026-04-26T08:36:25Z</time></trkpt><trkpt lat="43.44156722933377" lon="11.983088858774654"><ele>402.5</ele><time>2026-04-26T08:36:26Z</time></trkpt><trkpt lat="43.441644128896776" lon="11.98340146190731"><ele>398.0</ele><time>2026-04-26T08:36:27Z</time></trkpt><trkpt lat="43.441723353295465" lon="11.983715917706235"><ele>398.0</ele><time>2026-04-26T08:36:28Z</time></trkpt><trkpt lat="43.44181022081672" lon="11.984028421432082"><ele>398.0</ele><time>2026-04-26T08:36:29Z</time></trkpt><trkpt lat="43.44189633903483" lon="11.984344441415061"><ele>396.5</ele><time>2026-04-26T08:36:30Z</time></trkpt><trkpt lat="43.44197548733088" lon="11.98466964505082"><ele>395.0</ele><time>2026-04-26T08:36:31Z</time></trkpt><trkpt lat="43.44205509251305" lon="11.984994643747152"><ele>404.5</ele><time>2026-04-26T08:36:32Z</time></trkpt><trkpt lat="43.44213778441125" lon="11.985317523105328"><ele>414.0</ele><time>2026-04-26T08:36:33Z</time></trkpt><trkpt lat="43.44222097004019" lon="11.98564329629952"><ele>408.5</ele><time>2026-04-26T08:36:34Z</time></trkpt><trkpt lat="43.442299242265285" lon="11.985969622194261"><ele>403.0</ele><time>2026-04-26T08:36:35Z</time></trkpt><trkpt lat="43.44238381343278" lon="11.986297413165989"><ele>403.0</ele><time>2026-04-26T08:36:36Z</time></trkpt><trkpt lat="43.44247037586616" lon="11.986601332531272"><ele>403.0</ele><time>2026-04-26T08:36:37Z</time></trkpt><trkpt lat="43.44255379407961" lon="11.986918734124426"><ele>400.5</ele><time>2026-04-26T08:36:38Z</time></trkpt><trkpt lat="43.44264889676298" lon="11.987222379811568"><ele>398.0</ele><time>2026-04-26T08:36:39Z</time></trkpt><trkpt lat="43.44274772890921" lon="11.987519179953345"><ele>395.5</ele><time>2026-04-26T08:36:40Z</time></trkpt><trkpt lat="43.44286109995948" lon="11.987802346095888"><ele>393.0</ele><time>2026-04-26T08:36:41Z</time></trkpt><trkpt lat="43.44298098212871" lon="11.988081620342857"><ele>395.5</ele><time>2026-04-26T08:36:42Z</time></trkpt><trkpt lat="43.4431127878993" lon="11.988352142062688"><ele>398.0</ele><time>2026-04-26T08:36:43Z</time></trkpt><trkpt lat="43.44325245005163" lon="11.988616903265223"><ele>398.0</ele><time>2026-04-26T08:36:44Z</time></trkpt><trkpt lat="43.44340370910729" lon="11.988861137387886"><ele>398.0</ele><time>2026-04-26T08:36:45Z</time></trkpt><trkpt lat="43.44356561962272" lon="11.989109752016306"><ele>399.0</ele><time>2026-04-26T08:36:46Z</time></trkpt><trkpt lat="43.44372930390996" lon="11.989347742898753"><ele>400.0</ele><time>2026-04-26T08:36:47Z</time></trkpt><trkpt lat="43.44389559556058" lon="11.9895864021003"><ele>400.0</ele><time>2026-04-26T08:36:48Z</time></trkpt><trkpt lat="43.44406006399906" lon="11.98982186586954"><ele>400.0</ele><time>2026-04-26T08:36:49Z</time></trkpt><trkpt lat="43.44422213235157" lon="11.990057295447501"><ele>395.5</ele><time>2026-04-26T08:36:50Z</time></trkpt><trkpt lat="43.44438492561661" lon="11.99029194145385"><ele>391.0</ele><time>2026-04-26T08:36:51Z</time></trkpt><trkpt lat="43.44455011817455" lon="11.990524731324745"><ele>390.5</ele><time>2026-04-26T08:36:52Z</time></trkpt><trkpt lat="43.44470887081972" lon="11.99075822681007"><ele>390.0</ele><time>2026-04-26T08:36:53Z</time></trkpt><trkpt lat="43.44487051047506" lon="11.99099238953895"><ele>390.0</ele><time>2026-04-26T08:36:54Z</time></trkpt><trkpt lat="43.44503103440867" lon="11.991225556159032"><ele>390.0</ele><time>2026-04-26T08:36:55Z</time></trkpt><trkpt lat="43.44519205897493" lon="11.991456381674027"><ele>393.0</ele><time>2026-04-26T08:36:56Z</time></trkpt><trkpt lat="43.44535464767381" lon="11.991686797355344"><ele>396.0</ele><time>2026-04-26T08:36:57Z</time></trkpt><trkpt lat="43.44551785861645" lon="11.991916257532084"><ele>396.0</ele><time>2026-04-26T08:36:58Z</time></trkpt><trkpt lat="43.44567566495194" lon="11.992150484335363"><ele>396.0</ele><time>2026-04-26T08:36:59Z</time></trkpt><trkpt lat="43.44582742739988" lon="11.992392481502966"><ele>390.0</ele><time>2026-04-26T08:37:00Z</time></trkpt><trkpt lat="43.445970898807786" lon="11.992642474452891"><ele>384.0</ele><time>2026-04-26T08:37:01Z</time></trkpt><trkpt lat="43.446114362506634" lon="11.99289562246388"><ele>384.0</ele><time>2026-04-26T08:37:02Z</time></trkpt><trkpt lat="43.446255473225065" lon="11.993150738981846"><ele>384.0</ele><time>2026-04-26T08:37:03Z</time></trkpt><trkpt lat="43.44639719878703" lon="11.993406156183426"><ele>384.5</ele><time>2026-04-26T08:37:04Z</time></trkpt><trkpt lat="43.44653880168696" lon="11.993661939561889"><ele>385.0</ele><time>2026-04-26T08:37:05Z</time></trkpt><trkpt lat="43.446682003817095" lon="11.9939162070536"><ele>385.0</ele><time>2026-04-26T08:37:06Z</time></trkpt><trkpt lat="43.44682214459337" lon="11.994169698530088"><ele>385.0</ele><time>2026-04-26T08:37:07Z</time></trkpt><trkpt lat="43.446963538581954" lon="11.994423522063984"><ele>385.5</ele><time>2026-04-26T08:37:08Z</time></trkpt><trkpt lat="43.44710716114396" lon="11.994677504553046"><ele>386.0</ele><time>2026-04-26T08:37:09Z</time></trkpt><trkpt lat="43.44724846942212" lon="11.994934349080369"><ele>395.5</ele><time>2026-04-26T08:37:10Z</time></trkpt><trkpt lat="43.447390334986814" lon="11.995193485022325"><ele>405.0</ele><time>2026-04-26T08:37:11Z</time></trkpt><trkpt lat="43.44753291318755" lon="11.995452186601279"><ele>405.0</ele><time>2026-04-26T08:37:12Z</time></trkpt><trkpt lat="43.44767654450032" lon="11.995709721914272"><ele>405.0</ele><time>2026-04-26T08:37:13Z</time></trkpt><trkpt lat="43.447819713131885" lon="11.995968328893328"><ele>394.5</ele><time>2026-04-26T08:37:14Z</time></trkpt><trkpt lat="43.4479633240539" lon="11.99622712331039"><ele>384.0</ele><time>2026-04-26T08:37:15Z</time></trkpt><trkpt lat="43.448105507363735" lon="11.99648628768192"><ele>383.5</ele><time>2026-04-26T08:37:16Z</time></trkpt><trkpt lat="43.44824752701333" lon="11.99674614793098"><ele>383.0</ele><time>2026-04-26T08:37:17Z</time></trkpt><trkpt lat="43.44838962030924" lon="11.997005000188315"><ele>383.0</ele><time>2026-04-26T08:37:18Z</time></trkpt><trkpt lat="43.44853185369404" lon="11.997262672822885"><ele>383.0</ele><time>2026-04-26T08:37:19Z</time></trkpt><trkpt lat="43.44867347700456" lon="11.997519164366812"><ele>386.5</ele><time>2026-04-26T08:37:20Z</time></trkpt><trkpt lat="43.44881714818743" lon="11.997775992632805"><ele>390.0</ele><time>2026-04-26T08:37:21Z</time></trkpt><trkpt lat="43.44896006238478" lon="11.998032080248004"><ele>390.0</ele><time>2026-04-26T08:37:22Z</time></trkpt><trkpt lat="43.44909547145209" lon="11.998291549184174"><ele>390.0</ele><time>2026-04-26T08:37:23Z</time></trkpt><trkpt lat="43.44923620985558" lon="11.998548495620888"><ele>388.0</ele><time>2026-04-26T08:37:24Z</time></trkpt><trkpt lat="43.44938159318794" lon="11.998805990621898"><ele>386.0</ele><time>2026-04-26T08:37:25Z</time></trkpt><trkpt lat="43.44952361237994" lon="11.999065388853136"><ele>381.0</ele><time>2026-04-26T08:37:26Z</time></trkpt><trkpt lat="43.44966617132258" lon="11.99932536492039"><ele>376.0</ele><time>2026-04-26T08:37:27Z</time></trkpt><trkpt lat="43.449809571943156" lon="11.99958625033653"><ele>376.0</ele><time>2026-04-26T08:37:28Z</time></trkpt><trkpt lat="43.44995339990338" lon="11.999848557314921"><ele>376.0</ele><time>2026-04-26T08:37:29Z</time></trkpt><trkpt lat="43.45010732762303" lon="12.000113525951768"><ele>376.0</ele><time>2026-04-26T08:37:30Z</time></trkpt><trkpt lat="43.45025883001166" lon="12.000371898850124"><ele>376.0</ele><time>2026-04-26T08:37:31Z</time></trkpt><trkpt lat="43.450409711662616" lon="12.00063507869074"><ele>373.0</ele><time>2026-04-26T08:37:32Z</time></trkpt><trkpt lat="43.45056018928352" lon="12.000897026133666"><ele>370.0</ele><time>2026-04-26T08:37:33Z</time></trkpt><trkpt lat="43.45071068113212" lon="12.001160020443676"><ele>370.0</ele><time>2026-04-26T08:37:34Z</time></trkpt><trkpt lat="43.45085958329025" lon="12.001423728635045"><ele>370.0</ele><time>2026-04-26T08:37:35Z</time></trkpt><trkpt lat="43.45101060928377" lon="12.001690068958137"><ele>366.5</ele><time>2026-04-26T08:37:36Z</time></trkpt><trkpt lat="43.45116014058065" lon="12.001958000929596"><ele>363.0</ele><time>2026-04-26T08:37:37Z</time></trkpt><trkpt lat="43.45130678040498" lon="12.002225571752193"><ele>363.0</ele><time>2026-04-26T08:37:38Z</time></trkpt><trkpt lat="43.451452529501545" lon="12.002494009252572"><ele>363.0</ele><time>2026-04-26T08:37:39Z</time></trkpt><trkpt lat="43.45160261550654" lon="12.00276360025281"><ele>366.0</ele><time>2026-04-26T08:37:40Z</time></trkpt><trkpt lat="43.45174904195514" lon="12.003034743770765"><ele>369.0</ele><time>2026-04-26T08:37:41Z</time></trkpt><trkpt lat="43.45189233454708" lon="12.003307434527303"><ele>363.0</ele><time>2026-04-26T08:37:42Z</time></trkpt><trkpt lat="43.452027679744766" lon="12.00358301491864"><ele>357.0</ele><time>2026-04-26T08:37:43Z</time></trkpt><trkpt lat="43.452152940374155" lon="12.00386534404676"><ele>357.0</ele><time>2026-04-26T08:37:44Z</time></trkpt><trkpt lat="43.452272340853206" lon="12.00414809785615"><ele>357.0</ele><time>2026-04-26T08:37:45Z</time></trkpt><trkpt lat="43.45239136298163" lon="12.004431922143947"><ele>359.5</ele><time>2026-04-26T08:37:46Z</time></trkpt><trkpt lat="43.452509114598726" lon="12.004714483387824"><ele>362.0</ele><time>2026-04-26T08:37:47Z</time></trkpt><trkpt lat="43.45262730873253" lon="12.004994017108778"><ele>363.5</ele><time>2026-04-26T08:37:48Z</time></trkpt><trkpt lat="43.45274576858054" lon="12.005273569289225"><ele>365.0</ele><time>2026-04-26T08:37:49Z</time></trkpt><trkpt lat="43.45285984843647" lon="12.005544715377646"><ele>366.0</ele><time>2026-04-26T08:37:50Z</time></trkpt><trkpt lat="43.45297142408511" lon="12.005818309604031"><ele>367.0</ele><time>2026-04-26T08:37:51Z</time></trkpt><trkpt lat="43.453084330792755" lon="12.006089264009736"><ele>370.5</ele><time>2026-04-26T08:37:52Z</time></trkpt><trkpt lat="43.4532052642447" lon="12.006357634911843"><ele>374.0</ele><time>2026-04-26T08:37:53Z</time></trkpt><trkpt lat="43.45331468768645" lon="12.006629293408757"><ele>373.5</ele><time>2026-04-26T08:37:54Z</time></trkpt><trkpt lat="43.45342908870239" lon="12.006901719454671"><ele>373.0</ele><time>2026-04-26T08:37:55Z</time></trkpt><trkpt lat="43.453543144080705" lon="12.007171495556669"><ele>373.0</ele><time>2026-04-26T08:37:56Z</time></trkpt><trkpt lat="43.45365804159893" lon="12.007442348830056"><ele>373.0</ele><time>2026-04-26T08:37:57Z</time></trkpt><trkpt lat="43.453781231973856" lon="12.007712399054258"><ele>370.0</ele><time>2026-04-26T08:37:58Z</time></trkpt><trkpt lat="43.45390663288382" lon="12.00797376838537"><ele>367.0</ele><time>2026-04-26T08:37:59Z</time></trkpt><trkpt lat="43.45403549014108" lon="12.008235517971498"><ele>363.5</ele><time>2026-04-26T08:38:00Z</time></trkpt><trkpt lat="43.45417085227852" lon="12.008492410525356"><ele>360.0</ele><time>2026-04-26T08:38:01Z</time></trkpt><trkpt lat="43.45431290524115" lon="12.008745174294749"><ele>360.0</ele><time>2026-04-26T08:38:02Z</time></trkpt><trkpt lat="43.454457621250455" lon="12.00899418363768"><ele>360.0</ele><time>2026-04-26T08:38:03Z</time></trkpt><trkpt lat="43.454604189746995" lon="12.009235446576929"><ele>364.0</ele><time>2026-04-26T08:38:04Z</time></trkpt><trkpt lat="43.45475393190508" lon="12.009473746495416"><ele>368.0</ele><time>2026-04-26T08:38:05Z</time></trkpt><trkpt lat="43.45490252625336" lon="12.009709928666885"><ele>368.0</ele><time>2026-04-26T08:38:06Z</time></trkpt><trkpt lat="43.455051708876155" lon="12.009943124933919"><ele>368.0</ele><time>2026-04-26T08:38:07Z</time></trkpt><trkpt lat="43.45520106759868" lon="12.010175319422546"><ele>366.33333333333337</ele><time>2026-04-26T08:38:08Z</time></trkpt><trkpt lat="43.45535006750033" lon="12.010405977579214"><ele>364.6666666666667</ele><time>2026-04-26T08:38:09Z</time></trkpt><trkpt lat="43.455497022116944" lon="12.010638601516296"><ele>363.0</ele><time>2026-04-26T08:38:10Z</time></trkpt><trkpt lat="43.45563878098404" lon="12.010869884660597"><ele>370.66666666666663</ele><time>2026-04-26T08:38:11Z</time></trkpt><trkpt lat="43.45577956955675" lon="12.011102937179622"><ele>378.3333333333333</ele><time>2026-04-26T08:38:12Z</time></trkpt><trkpt lat="43.45591733952872" lon="12.01133716147222"><ele>386.0</ele><time>2026-04-26T08:38:13Z</time></trkpt><trkpt lat="43.456053781319625" lon="12.011577086164118"><ele>387.66666666666663</ele><time>2026-04-26T08:38:14Z</time></trkpt><trkpt lat="43.456183851643246" lon="12.011823856257584"><ele>389.33333333333337</ele><time>2026-04-26T08:38:15Z</time></trkpt><trkpt lat="43.45630790505492" lon="12.012072351420102"><ele>391.0</ele><time>2026-04-26T08:38:16Z</time></trkpt><trkpt lat="43.456427904495136" lon="12.012327434041387"><ele>388.0</ele><time>2026-04-26T08:38:17Z</time></trkpt><trkpt lat="43.45656113446213" lon="12.012576780884386"><ele>385.0</ele><time>2026-04-26T08:38:18Z</time></trkpt><trkpt lat="43.45667588214246" lon="12.012834784837999"><ele>382.0</ele><time>2026-04-26T08:38:19Z</time></trkpt><trkpt lat="43.45678596915372" lon="12.013104815717849"><ele>375.66666666666663</ele><time>2026-04-26T08:38:20Z</time></trkpt><trkpt lat="43.45689698980562" lon="12.013372520385742"><ele>369.3333333333333</ele><time>2026-04-26T08:38:21Z</time></trkpt><trkpt lat="43.4570063968322" lon="12.013643021739666"><ele>363.0</ele><time>2026-04-26T08:38:22Z</time></trkpt><trkpt lat="43.45711763635177" lon="12.013913602579905"><ele>371.0</ele><time>2026-04-26T08:38:23Z</time></trkpt><trkpt lat="43.457224140528744" lon="12.014181606443184"><ele>379.0</ele><time>2026-04-26T08:38:24Z</time></trkpt><trkpt lat="43.4573354952753" lon="12.014447219114704"><ele>387.0</ele><time>2026-04-26T08:38:25Z</time></trkpt><trkpt lat="43.45745479170508" lon="12.014705842613745"><ele>387.0</ele><time>2026-04-26T08:38:26Z</time></trkpt><trkpt lat="43.45758524913546" lon="12.014923716006269"><ele>387.0</ele><time>2026-04-26T08:38:27Z</time></trkpt><trkpt lat="43.45772974545184" lon="12.015132866075023"><ele>387.0</ele><time>2026-04-26T08:38:28Z</time></trkpt><trkpt lat="43.457887908675794" lon="12.015328868746712"><ele>388.33333333333337</ele><time>2026-04-26T08:38:29.022Z</time></trkpt><trkpt lat="43.45804855124408" lon="12.01550733770123"><ele>389.6666666666667</ele><time>2026-04-26T08:38:30.019Z</time></trkpt><trkpt lat="43.45821891054477" lon="12.015660192482281"><ele>391.0</ele><time>2026-04-26T08:38:31.016Z</time></trkpt><trkpt lat="43.45838777730627" lon="12.015815438073222"><ele>383.6666666666667</ele><time>2026-04-26T08:38:32.025Z</time></trkpt><trkpt lat="43.458567857240844" lon="12.015939515439802"><ele>376.33333333333337</ele><time>2026-04-26T08:38:33.024Z</time></trkpt><trkpt lat="43.45876294744226" lon="12.016056608701575"><ele>369.0</ele><time>2026-04-26T08:38:34Z</time></trkpt><trkpt lat="43.45911504892575" lon="12.016311382971228"><ele>369.0</ele><time>2026-04-26T08:38:35Z</time></trkpt><trkpt lat="43.459319888237076" lon="12.01644300637467"><ele>369.0</ele><time>2026-04-26T08:38:36Z</time></trkpt><trkpt lat="43.459534718485926" lon="12.01657877359647"><ele>362.5</ele><time>2026-04-26T08:38:37Z</time></trkpt><trkpt lat="43.459747406784594" lon="12.016725888471782"><ele>356.0</ele><time>2026-04-26T08:38:38Z</time></trkpt><trkpt lat="43.45995878186436" lon="12.016894315359629"><ele>356.0</ele><time>2026-04-26T08:38:39Z</time></trkpt><trkpt lat="43.46015459214366" lon="12.017088263358374"><ele>356.0</ele><time>2026-04-26T08:38:40Z</time></trkpt><trkpt lat="43.46033509587431" lon="12.017303044968129"><ele>357.0</ele><time>2026-04-26T08:38:41Z</time></trkpt><trkpt lat="43.46050266421157" lon="12.017553224375982"><ele>358.0</ele><time>2026-04-26T08:38:42Z</time></trkpt><trkpt lat="43.46065401863119" lon="12.017813732729612"><ele>358.0</ele><time>2026-04-26T08:38:43Z</time></trkpt><trkpt lat="43.46080274579389" lon="12.01807014879097"><ele>358.0</ele><time>2026-04-26T08:38:44Z</time></trkpt><trkpt lat="43.46094142675537" lon="12.01833771364415"><ele>350.0</ele><time>2026-04-26T08:38:45Z</time></trkpt><trkpt lat="43.46108987292145" lon="12.018605654691363"><ele>342.0</ele><time>2026-04-26T08:38:46Z</time></trkpt><trkpt lat="43.46122534764879" lon="12.01887635604791"><ele>345.5</ele><time>2026-04-26T08:38:47Z</time></trkpt><trkpt lat="43.46136513713413" lon="12.019140507796692"><ele>349.0</ele><time>2026-04-26T08:38:48Z</time></trkpt><trkpt lat="43.46150464423945" lon="12.019403741097923"><ele>340.5</ele><time>2026-04-26T08:38:49Z</time></trkpt><trkpt lat="43.46164228569664" lon="12.01966447304593"><ele>332.0</ele><time>2026-04-26T08:38:50Z</time></trkpt><trkpt lat="43.461778974714015" lon="12.019924759986111"><ele>330.5</ele><time>2026-04-26T08:38:51Z</time></trkpt><trkpt lat="43.461913367287806" lon="12.020186221679753"><ele>329.0</ele><time>2026-04-26T08:38:52Z</time></trkpt><trkpt lat="43.46204671554299" lon="12.020447345425175"><ele>330.0</ele><time>2026-04-26T08:38:53Z</time></trkpt><trkpt lat="43.462177836266186" lon="12.020709167729917"><ele>331.0</ele><time>2026-04-26T08:38:54Z</time></trkpt><trkpt lat="43.46230854657808" lon="12.020970897596722"><ele>331.0</ele><time>2026-04-26T08:38:55Z</time></trkpt><trkpt lat="43.46243808045536" lon="12.021232921041685"><ele>331.0</ele><time>2026-04-26T08:38:56Z</time></trkpt><trkpt lat="43.46256870938225" lon="12.021502407803835"><ele>331.0</ele><time>2026-04-26T08:38:57Z</time></trkpt><trkpt lat="43.46269829274008" lon="12.021764150065396"><ele>331.0</ele><time>2026-04-26T08:38:58Z</time></trkpt><trkpt lat="43.4628296060996" lon="12.022024722798966"><ele>334.0</ele><time>2026-04-26T08:38:59Z</time></trkpt><trkpt lat="43.46295702938749" lon="12.022287275762471"><ele>337.0</ele><time>2026-04-26T08:39:00Z</time></trkpt><trkpt lat="43.46308307665695" lon="12.022550704731493"><ele>337.0</ele><time>2026-04-26T08:39:01Z</time></trkpt><trkpt lat="43.463203715295386" lon="12.022814381343585"><ele>337.0</ele><time>2026-04-26T08:39:02Z</time></trkpt><trkpt lat="43.46332532457448" lon="12.0230779635316"><ele>333.5</ele><time>2026-04-26T08:39:03Z</time></trkpt><trkpt lat="43.46343643118952" lon="12.023346597079017"><ele>330.0</ele><time>2026-04-26T08:39:04Z</time></trkpt><trkpt lat="43.463529653401615" lon="12.023633510540847"><ele>330.0</ele><time>2026-04-26T08:39:05Z</time></trkpt><trkpt lat="43.463591694270505" lon="12.023936252926388"><ele>330.0</ele><time>2026-04-26T08:39:06Z</time></trkpt><trkpt lat="43.46363759018077" lon="12.024244715424393"><ele>328.5</ele><time>2026-04-26T08:39:07Z</time></trkpt><trkpt lat="43.463673149269205" lon="12.024551549590873"><ele>327.0</ele><time>2026-04-26T08:39:08Z</time></trkpt><trkpt lat="43.46369725039607" lon="12.024858596316184"><ele>327.0</ele><time>2026-04-26T08:39:09Z</time></trkpt><trkpt lat="43.46370472602844" lon="12.025170970309116"><ele>327.0</ele><time>2026-04-26T08:39:10Z</time></trkpt><trkpt lat="43.46370388900507" lon="12.02548041885614"><ele>327.0</ele><time>2026-04-26T08:39:11Z</time></trkpt><trkpt lat="43.46368613653787" lon="12.02579320396768"><ele>327.0</ele><time>2026-04-26T08:39:12Z</time></trkpt><trkpt lat="43.46365009902104" lon="12.026103662382605"><ele>327.5</ele><time>2026-04-26T08:39:13Z</time></trkpt><trkpt lat="43.4636085648987" lon="12.026410137775612"><ele>328.0</ele><time>2026-04-26T08:39:14Z</time></trkpt><trkpt lat="43.46355000935994" lon="12.02671440722493"><ele>328.0</ele><time>2026-04-26T08:39:15Z</time></trkpt><trkpt lat="43.46347205573673" lon="12.027008467569088"><ele>328.0</ele><time>2026-04-26T08:39:16Z</time></trkpt><trkpt lat="43.4633810064226" lon="12.027295929315372"><ele>326.5</ele><time>2026-04-26T08:39:17Z</time></trkpt><trkpt lat="43.463279222257874" lon="12.027579799152516"><ele>325.0</ele><time>2026-04-26T08:39:18Z</time></trkpt><trkpt lat="43.46316898194234" lon="12.027855648456226"><ele>325.0</ele><time>2026-04-26T08:39:19Z</time></trkpt><trkpt lat="43.46305955053393" lon="12.028132172432198"><ele>325.0</ele><time>2026-04-26T08:39:20Z</time></trkpt><trkpt lat="43.462955102030705" lon="12.028404792274749"><ele>327.0</ele><time>2026-04-26T08:39:21Z</time></trkpt><trkpt lat="43.46285208093919" lon="12.028680755770557"><ele>329.0</ele><time>2026-04-26T08:39:22Z</time></trkpt><trkpt lat="43.46276783947532" lon="12.028973311581789"><ele>328.0</ele><time>2026-04-26T08:39:23Z</time></trkpt><trkpt lat="43.46269707193842" lon="12.029267218874681"><ele>327.0</ele><time>2026-04-26T08:39:24Z</time></trkpt><trkpt lat="43.462640531144466" lon="12.029572519292131"><ele>327.0</ele><time>2026-04-26T08:39:25Z</time></trkpt><trkpt lat="43.462599534955345" lon="12.029879964981973"><ele>327.0</ele><time>2026-04-26T08:39:26Z</time></trkpt><trkpt lat="43.46257157594583" lon="12.030193797405843"><ele>327.0</ele><time>2026-04-26T08:39:27Z</time></trkpt><trkpt lat="43.46255479533251" lon="12.030509656124579"><ele>327.0</ele><time>2026-04-26T08:39:28Z</time></trkpt><trkpt lat="43.462550742176326" lon="12.030825801304198"><ele>326.0</ele><time>2026-04-26T08:39:29Z</time></trkpt><trkpt lat="43.46253039847645" lon="12.031132317547092"><ele>325.0</ele><time>2026-04-26T08:39:30Z</time></trkpt><trkpt lat="43.46259385457552" lon="12.03145483122797"><ele>325.5</ele><time>2026-04-26T08:39:31Z</time></trkpt><trkpt lat="43.462632122345084" lon="12.031764718252948"><ele>326.0</ele><time>2026-04-26T08:39:32Z</time></trkpt><trkpt lat="43.46268496913362" lon="12.032067926136582"><ele>326.0</ele><time>2026-04-26T08:39:33Z</time></trkpt><trkpt lat="43.462742465957376" lon="12.032368743738072"><ele>326.0</ele><time>2026-04-26T08:39:34Z</time></trkpt><trkpt lat="43.4628007023119" lon="12.032670417366814"><ele>325.5</ele><time>2026-04-26T08:39:35Z</time></trkpt><trkpt lat="43.462858853822226" lon="12.032971443429068"><ele>325.0</ele><time>2026-04-26T08:39:36Z</time></trkpt><trkpt lat="43.46292761433519" lon="12.033272050781562"><ele>327.0</ele><time>2026-04-26T08:39:37Z</time></trkpt><trkpt lat="43.46299876246814" lon="12.033565569252087"><ele>329.0</ele><time>2026-04-26T08:39:38Z</time></trkpt><trkpt lat="43.46307683334816" lon="12.033869601509942"><ele>327.0</ele><time>2026-04-26T08:39:39Z</time></trkpt><trkpt lat="43.46316068093909" lon="12.034153926366098"><ele>325.0</ele><time>2026-04-26T08:39:40Z</time></trkpt><trkpt lat="43.463239319396415" lon="12.03445501228009"><ele>325.0</ele><time>2026-04-26T08:39:41Z</time></trkpt><trkpt lat="43.4633193046142" lon="12.034750368030764"><ele>325.0</ele><time>2026-04-26T08:39:42Z</time></trkpt><trkpt lat="43.4634037429925" lon="12.0350454446798"><ele>324.0</ele><time>2026-04-26T08:39:43Z</time></trkpt><trkpt lat="43.46348890463662" lon="12.035339472862606"><ele>323.0</ele><time>2026-04-26T08:39:44Z</time></trkpt><trkpt lat="43.46357536078057" lon="12.035632696688282"><ele>322.5</ele><time>2026-04-26T08:39:45Z</time></trkpt><trkpt lat="43.46366121529968" lon="12.035926413804475"><ele>322.0</ele><time>2026-04-26T08:39:46Z</time></trkpt><trkpt lat="43.46374418141839" lon="12.036219544482782"><ele>323.0</ele><time>2026-04-26T08:39:47Z</time></trkpt><trkpt lat="43.463828508387635" lon="12.036512877899945"><ele>324.0</ele><time>2026-04-26T08:39:48Z</time></trkpt><trkpt lat="43.46391279957042" lon="12.036805615549369"><ele>324.0</ele><time>2026-04-26T08:39:49Z</time></trkpt><trkpt lat="43.46399900487892" lon="12.037095370549274"><ele>324.0</ele><time>2026-04-26T08:39:50Z</time></trkpt><trkpt lat="43.464085811270124" lon="12.037385154019747"><ele>323.0</ele><time>2026-04-26T08:39:51Z</time></trkpt><trkpt lat="43.464174647393314" lon="12.037674830021569"><ele>322.0</ele><time>2026-04-26T08:39:52Z</time></trkpt><trkpt lat="43.46426115070407" lon="12.037968746429256"><ele>322.0</ele><time>2026-04-26T08:39:53Z</time></trkpt><trkpt lat="43.464348252295935" lon="12.038262975036748"><ele>322.0</ele><time>2026-04-26T08:39:54Z</time></trkpt><trkpt lat="43.4644347271306" lon="12.038556328276222"><ele>321.5</ele><time>2026-04-26T08:39:55Z</time></trkpt><trkpt lat="43.46451960380665" lon="12.038849460122258"><ele>321.0</ele><time>2026-04-26T08:39:56Z</time></trkpt><trkpt lat="43.46460337894785" lon="12.039142443101163"><ele>320.5</ele><time>2026-04-26T08:39:57Z</time></trkpt><trkpt lat="43.464685148450464" lon="12.039435312006818"><ele>320.0</ele><time>2026-04-26T08:39:58Z</time></trkpt><trkpt lat="43.464768678092184" lon="12.039726711331621"><ele>320.0</ele><time>2026-04-26T08:39:59Z</time></trkpt><trkpt lat="43.464853150588674" lon="12.040020332130709"><ele>320.0</ele><time>2026-04-26T08:40:00Z</time></trkpt><trkpt lat="43.46493896266109" lon="12.040314041486644"><ele>320.0</ele><time>2026-04-26T08:40:01Z</time></trkpt><trkpt lat="43.46502494560951" lon="12.040606237117624"><ele>320.0</ele><time>2026-04-26T08:40:02Z</time></trkpt><trkpt lat="43.465110822032514" lon="12.040897127111439"><ele>320.0</ele><time>2026-04-26T08:40:03Z</time></trkpt><trkpt lat="43.46519739336126" lon="12.041188321752795"><ele>320.0</ele><time>2026-04-26T08:40:04Z</time></trkpt><trkpt lat="43.46528365423384" lon="12.041480861516582"><ele>319.0</ele><time>2026-04-26T08:40:05Z</time></trkpt><trkpt lat="43.46536907028638" lon="12.04177384310849"><ele>318.0</ele><time>2026-04-26T08:40:06Z</time></trkpt><trkpt lat="43.465454834931066" lon="12.042068013227045"><ele>318.0</ele><time>2026-04-26T08:40:07Z</time></trkpt><trkpt lat="43.46554028673849" lon="12.042360706991944"><ele>318.0</ele><time>2026-04-26T08:40:08Z</time></trkpt><trkpt lat="43.46562593899337" lon="12.04265327699992"><ele>318.0</ele><time>2026-04-26T08:40:09Z</time></trkpt><trkpt lat="43.46570934581522" lon="12.042946859943644"><ele>318.0</ele><time>2026-04-26T08:40:10Z</time></trkpt><trkpt lat="43.46579283893582" lon="12.043241574704625"><ele>318.0</ele><time>2026-04-26T08:40:11Z</time></trkpt><trkpt lat="43.46587628961054" lon="12.043537117924377"><ele>318.0</ele><time>2026-04-26T08:40:12Z</time></trkpt><trkpt lat="43.465959845759386" lon="12.043830587840812"><ele>318.0</ele><time>2026-04-26T08:40:13Z</time></trkpt><trkpt lat="43.466044948689415" lon="12.044123103438329"><ele>318.0</ele><time>2026-04-26T08:40:14Z</time></trkpt><trkpt lat="43.46612964772533" lon="12.044415278093977"><ele>318.0</ele><time>2026-04-26T08:40:15Z</time></trkpt><trkpt lat="43.466214494439576" lon="12.044705422678746"><ele>318.0</ele><time>2026-04-26T08:40:16Z</time></trkpt><trkpt lat="43.46630147028991" lon="12.044992621213998"><ele>320.6666666666667</ele><time>2026-04-26T08:40:17Z</time></trkpt><trkpt lat="43.466383299089856" lon="12.045280500831892"><ele>323.33333333333337</ele><time>2026-04-26T08:40:18Z</time></trkpt><trkpt lat="43.46646245043521" lon="12.045563372999359"><ele>326.0</ele><time>2026-04-26T08:40:19Z</time></trkpt><trkpt lat="43.46654474707987" lon="12.045846847124027"><ele>326.0</ele><time>2026-04-26T08:40:20Z</time></trkpt><trkpt lat="43.46662525167497" lon="12.046134189927509"><ele>326.0</ele><time>2026-04-26T08:40:21Z</time></trkpt><trkpt lat="43.466704397700155" lon="12.046420719100663"><ele>326.0</ele><time>2026-04-26T08:40:22Z</time></trkpt><trkpt lat="43.466788374011216" lon="12.046700690759694"><ele>323.6666666666667</ele><time>2026-04-26T08:40:23Z</time></trkpt><trkpt lat="43.46686828823881" lon="12.04698061238386"><ele>321.3333333333333</ele><time>2026-04-26T08:40:24Z</time></trkpt><trkpt lat="43.466948310751405" lon="12.047257681904698"><ele>319.0</ele><time>2026-04-26T08:40:25Z</time></trkpt><trkpt lat="43.46702850702646" lon="12.047537853183854"><ele>318.0</ele><time>2026-04-26T08:40:26Z</time></trkpt><trkpt lat="43.46711022374644" lon="12.047815322755028"><ele>317.0</ele><time>2026-04-26T08:40:27Z</time></trkpt><trkpt lat="43.46718893591497" lon="12.048092603542017"><ele>316.0</ele><time>2026-04-26T08:40:28Z</time></trkpt><trkpt lat="43.467278033988244" lon="12.048362270499931"><ele>316.0</ele><time>2026-04-26T08:40:29Z</time></trkpt><trkpt lat="43.467371308804076" lon="12.048629293405101"><ele>316.0</ele><time>2026-04-26T08:40:30Z</time></trkpt><trkpt lat="43.46746886519076" lon="12.048892296464357"><ele>316.0</ele><time>2026-04-26T08:40:31Z</time></trkpt><trkpt lat="43.467569375791975" lon="12.049152083540319"><ele>315.66666666666663</ele><time>2026-04-26T08:40:32Z</time></trkpt><trkpt lat="43.46767669112885" lon="12.049405174756231"><ele>315.3333333333333</ele><time>2026-04-26T08:40:33Z</time></trkpt><trkpt lat="43.46779156415988" lon="12.049653927823547"><ele>315.0</ele><time>2026-04-26T08:40:34Z</time></trkpt><trkpt lat="43.46791183267327" lon="12.049894981638511"><ele>316.6666666666667</ele><time>2026-04-26T08:40:35Z</time></trkpt><trkpt lat="43.46803041689857" lon="12.050134587177828"><ele>318.33333333333337</ele><time>2026-04-26T08:40:36Z</time></trkpt><trkpt lat="43.46816125565293" lon="12.050366329367224"><ele>320.0</ele><time>2026-04-26T08:40:37Z</time></trkpt><trkpt lat="43.46829645731154" lon="12.050592173494389"><ele>318.33333333333337</ele><time>2026-04-26T08:40:38Z</time></trkpt><trkpt lat="43.468439476208175" lon="12.050808766430126"><ele>316.6666666666667</ele><time>2026-04-26T08:40:39Z</time></trkpt><trkpt lat="43.46858890700642" lon="12.051018265036143"><ele>315.0</ele><time>2026-04-26T08:40:40Z</time></trkpt><trkpt lat="43.46874390788955" lon="12.051224778022751"><ele>315.0</ele><time>2026-04-26T08:40:41Z</time></trkpt><trkpt lat="43.468900043841025" lon="12.051423699180164"><ele>315.0</ele><time>2026-04-26T08:40:42Z</time></trkpt><trkpt lat="43.469063091987586" lon="12.051617025936457"><ele>315.0</ele><time>2026-04-26T08:40:43Z</time></trkpt><trkpt lat="43.469234517266244" lon="12.0518010543229"><ele>315.0</ele><time>2026-04-26T08:40:44Z</time></trkpt><trkpt lat="43.469412490092814" lon="12.051973900995643"><ele>315.0</ele><time>2026-04-26T08:40:45Z</time></trkpt><trkpt lat="43.46959184521164" lon="12.052138550624111"><ele>315.0</ele><time>2026-04-26T08:40:46Z</time></trkpt><trkpt lat="43.469775487149604" lon="12.05229421756416"><ele>314.6666666666667</ele><time>2026-04-26T08:40:47Z</time></trkpt><trkpt lat="43.46996545770229" lon="12.052449867842178"><ele>314.33333333333337</ele><time>2026-04-26T08:40:48Z</time></trkpt><trkpt lat="43.470158203356554" lon="12.052598036882667"><ele>314.0</ele><time>2026-04-26T08:40:49Z</time></trkpt><trkpt lat="43.47034870904718" lon="12.052747193781395"><ele>315.33333333333337</ele><time>2026-04-26T08:40:50Z</time></trkpt><trkpt lat="43.4705399898409" lon="12.05289349327933"><ele>316.6666666666667</ele><time>2026-04-26T08:40:51Z</time></trkpt><trkpt lat="43.47073265927835" lon="12.053040397725528"><ele>318.0</ele><time>2026-04-26T08:40:52Z</time></trkpt><trkpt lat="43.470922987212404" lon="12.053190254937995"><ele>317.0</ele><time>2026-04-26T08:40:53Z</time></trkpt><trkpt lat="43.47111390485936" lon="12.053335673710292"><ele>316.0</ele><time>2026-04-26T08:40:54Z</time></trkpt><trkpt lat="43.4713118031509" lon="12.053482242069633"><ele>315.0</ele><time>2026-04-26T08:40:55Z</time></trkpt><trkpt lat="43.471507716751454" lon="12.053627433815334"><ele>314.6666666666667</ele><time>2026-04-26T08:40:56Z</time></trkpt><trkpt lat="43.471704802171004" lon="12.053772666050975"><ele>314.33333333333337</ele><time>2026-04-26T08:40:57Z</time></trkpt><trkpt lat="43.47190164144319" lon="12.053922637495493"><ele>314.0</ele><time>2026-04-26T08:40:58Z</time></trkpt><trkpt lat="43.47209933601168" lon="12.05406954123729"><ele>313.33333333333337</ele><time>2026-04-26T08:40:59Z</time></trkpt><trkpt lat="43.47229755910385" lon="12.05421442434027"><ele>312.6666666666667</ele><time>2026-04-26T08:41:00Z</time></trkpt><trkpt lat="43.47249444017128" lon="12.054362061488206"><ele>312.0</ele><time>2026-04-26T08:41:01Z</time></trkpt><trkpt lat="43.472690786091" lon="12.054511245135503"><ele>312.0</ele><time>2026-04-26T08:41:02Z</time></trkpt><trkpt lat="43.47288915392146" lon="12.054655898736556"><ele>312.0</ele><time>2026-04-26T08:41:03Z</time></trkpt><trkpt lat="43.47308914408284" lon="12.054800283800345"><ele>312.0</ele><time>2026-04-26T08:41:04Z</time></trkpt><trkpt lat="43.473281933731776" lon="12.054941497021545"><ele>312.0</ele><time>2026-04-26T08:41:05Z</time></trkpt><trkpt lat="43.473476776280634" lon="12.055085255487711"><ele>312.0</ele><time>2026-04-26T08:41:06Z</time></trkpt><trkpt lat="43.473669928250985" lon="12.055235759682798"><ele>312.5</ele><time>2026-04-26T08:41:07Z</time></trkpt><trkpt lat="43.47386572022952" lon="12.055385392160607"><ele>313.0</ele><time>2026-04-26T08:41:08Z</time></trkpt><trkpt lat="43.47406339305709" lon="12.055536446621211"><ele>313.0</ele><time>2026-04-26T08:41:09Z</time></trkpt><trkpt lat="43.47426093755572" lon="12.055681873107817"><ele>313.0</ele><time>2026-04-26T08:41:10Z</time></trkpt><trkpt lat="43.47445757778881" lon="12.055828507747638"><ele>313.0</ele><time>2026-04-26T08:41:11Z</time></trkpt><trkpt lat="43.47465379050305" lon="12.055971732063764"><ele>313.3333333333333</ele><time>2026-04-26T08:41:12Z</time></trkpt><trkpt lat="43.47484824665468" lon="12.05611803282332"><ele>313.6666666666667</ele><time>2026-04-26T08:41:13Z</time></trkpt><trkpt lat="43.475036323913336" lon="12.056271899790048"><ele>314.0</ele><time>2026-04-26T08:41:14Z</time></trkpt><trkpt lat="43.475221399852096" lon="12.056435303466985"><ele>314.0</ele><time>2026-04-26T08:41:15Z</time></trkpt><trkpt lat="43.47540155994856" lon="12.056616041500861"><ele>314.0</ele><time>2026-04-26T08:41:16Z</time></trkpt><trkpt lat="43.4755732026013" lon="12.056802075195222"><ele>314.0</ele><time>2026-04-26T08:41:17Z</time></trkpt><trkpt lat="43.47574043511011" lon="12.056996454378929"><ele>313.33333333333337</ele><time>2026-04-26T08:41:18Z</time></trkpt><trkpt lat="43.47589894820884" lon="12.057203338724225"><ele>312.6666666666667</ele><time>2026-04-26T08:41:19Z</time></trkpt><trkpt lat="43.476044863835355" lon="12.057425751343356"><ele>312.0</ele><time>2026-04-26T08:41:20Z</time></trkpt><trkpt lat="43.47618437182843" lon="12.057658133381196"><ele>312.0</ele><time>2026-04-26T08:41:21Z</time></trkpt><trkpt lat="43.47631645683492" lon="12.057895021420174"><ele>312.0</ele><time>2026-04-26T08:41:22Z</time></trkpt><trkpt lat="43.47644208393992" lon="12.05814000873869"><ele>312.0</ele><time>2026-04-26T08:41:23Z</time></trkpt><trkpt lat="43.476557464394205" lon="12.058394936263808"><ele>312.0</ele><time>2026-04-26T08:41:24Z</time></trkpt><trkpt lat="43.47666001601025" lon="12.058658466499242"><ele>312.0</ele><time>2026-04-26T08:41:25Z</time></trkpt><trkpt lat="43.4767552188624" lon="12.058925996581037"><ele>312.0</ele><time>2026-04-26T08:41:26Z</time></trkpt><trkpt lat="43.47684416996634" lon="12.059197925491434"><ele>311.3333333333333</ele><time>2026-04-26T08:41:27Z</time></trkpt><trkpt lat="43.47692188166724" lon="12.059476093059361"><ele>310.66666666666663</ele><time>2026-04-26T08:41:28Z</time></trkpt><trkpt lat="43.47699002606434" lon="12.059758709386102"><ele>310.0</ele><time>2026-04-26T08:41:29Z</time></trkpt><trkpt lat="43.477053076200065" lon="12.06004366278592"><ele>309.66666666666663</ele><time>2026-04-26T08:41:30Z</time></trkpt><trkpt lat="43.47711382423702" lon="12.060326976934121"><ele>309.3333333333333</ele><time>2026-04-26T08:41:31Z</time></trkpt><trkpt lat="43.47717409134077" lon="12.060609499440396"><ele>309.0</ele><time>2026-04-26T08:41:32Z</time></trkpt><trkpt lat="43.47723665082192" lon="12.060891064579701"><ele>309.0</ele><time>2026-04-26T08:41:33Z</time></trkpt><trkpt lat="43.477304578471596" lon="12.061169494174777"><ele>309.0</ele><time>2026-04-26T08:41:34Z</time></trkpt><trkpt lat="43.477375957309135" lon="12.061433887282256"><ele>309.0</ele><time>2026-04-26T08:41:35Z</time></trkpt><trkpt lat="43.47744389384082" lon="12.061672300156447"><ele>309.0</ele><time>2026-04-26T08:41:36Z</time></trkpt><trkpt lat="43.47750981327052" lon="12.061875645051568"><ele>309.0</ele><time>2026-04-26T08:41:37Z</time></trkpt><trkpt lat="43.47759606209079" lon="12.06207551819092"><ele>309.0</ele><time>2026-04-26T08:41:38Z</time></trkpt><trkpt lat="43.4777051893675" lon="12.062250365470819"><ele>309.0</ele><time>2026-04-26T08:41:39Z</time></trkpt><trkpt lat="43.47782859051825" lon="12.06239371321392"><ele>309.0</ele><time>2026-04-26T08:41:40Z</time></trkpt><trkpt lat="43.477965962409336" lon="12.062509119508631"><ele>309.0</ele><time>2026-04-26T08:41:41Z</time></trkpt><trkpt lat="43.478125026113446" lon="12.062582565749617"><ele>309.0</ele><time>2026-04-26T08:41:42Z</time></trkpt><trkpt lat="43.47828925386798" lon="12.06261797131833"><ele>309.0</ele><time>2026-04-26T08:41:43Z</time></trkpt><trkpt lat="43.47846072825032" lon="12.062611530334365"><ele>309.0</ele><time>2026-04-26T08:41:44Z</time></trkpt><trkpt lat="43.47863525467692" lon="12.06257205458381"><ele>308.6666666666667</ele><time>2026-04-26T08:41:45Z</time></trkpt><trkpt lat="43.47880552180074" lon="12.062514554116996"><ele>308.33333333333337</ele><time>2026-04-26T08:41:46Z</time></trkpt><trkpt lat="43.47897815383674" lon="12.06245288148794"><ele>308.0</ele><time>2026-04-26T08:41:47Z</time></trkpt><trkpt lat="43.47915164648448" lon="12.062387575544602"><ele>308.0</ele><time>2026-04-26T08:41:48Z</time></trkpt><trkpt lat="43.47932185451528" lon="12.062319185460458"><ele>308.0</ele><time>2026-04-26T08:41:49Z</time></trkpt><trkpt lat="43.47949104913234" lon="12.062255339060549"><ele>308.0</ele><time>2026-04-26T08:41:50Z</time></trkpt><trkpt lat="43.47964760570407" lon="12.062213533097195"><ele>310.25</ele><time>2026-04-26T08:41:51Z</time></trkpt><trkpt lat="43.47979063410386" lon="12.06220673738367"><ele>312.5</ele><time>2026-04-26T08:41:52Z</time></trkpt><trkpt lat="43.479924295267914" lon="12.062238820476288"><ele>314.75</ele><time>2026-04-26T08:41:53Z</time></trkpt><trkpt lat="43.48005257902948" lon="12.06230894876346"><ele>317.0</ele><time>2026-04-26T08:41:54Z</time></trkpt><trkpt lat="43.48017383548955" lon="12.062430402822343"><ele>314.6666666666667</ele><time>2026-04-26T08:41:55Z</time></trkpt><trkpt lat="43.48028430080278" lon="12.062585452785385"><ele>312.3333333333333</ele><time>2026-04-26T08:41:56Z</time></trkpt><trkpt lat="43.48038277789109" lon="12.062765749693405"><ele>310.0</ele><time>2026-04-26T08:41:57Z</time></trkpt><trkpt lat="43.48047144538853" lon="12.062964414565675"><ele>313.3333333333333</ele><time>2026-04-26T08:41:58Z</time></trkpt><trkpt lat="43.48054785080347" lon="12.063180866464705"><ele>316.6666666666667</ele><time>2026-04-26T08:41:59Z</time></trkpt><trkpt lat="43.48061870802803" lon="12.063401610640348"><ele>320.0</ele><time>2026-04-26T08:42:00Z</time></trkpt><trkpt lat="43.480685952479845" lon="12.06362638588456"><ele>320.0</ele><time>2026-04-26T08:42:01Z</time></trkpt><trkpt lat="43.480744830570806" lon="12.063859602673983"><ele>320.0</ele><time>2026-04-26T08:42:02Z</time></trkpt><trkpt lat="43.480797176107025" lon="12.064100840803233"><ele>320.0</ele><time>2026-04-26T08:42:03Z</time></trkpt><trkpt lat="43.48084287054039" lon="12.06435114557943"><ele>317.6666666666667</ele><time>2026-04-26T08:42:04Z</time></trkpt><trkpt lat="43.48088708735355" lon="12.064605835599625"><ele>315.3333333333333</ele><time>2026-04-26T08:42:05Z</time></trkpt><trkpt lat="43.48092933279051" lon="12.064864259161464"><ele>313.0</ele><time>2026-04-26T08:42:06Z</time></trkpt><trkpt lat="43.480965152589526" lon="12.065125643152417"><ele>312.3333333333333</ele><time>2026-04-26T08:42:07Z</time></trkpt><trkpt lat="43.481000012960166" lon="12.065387271368646"><ele>311.6666666666667</ele><time>2026-04-26T08:42:08Z</time></trkpt><trkpt lat="43.48103685384436" lon="12.065650426672269"><ele>311.0</ele><time>2026-04-26T08:42:09Z</time></trkpt><trkpt lat="43.48107304634092" lon="12.065915488368743"><ele>310.6666666666667</ele><time>2026-04-26T08:42:10Z</time></trkpt><trkpt lat="43.48110974460237" lon="12.066173621391755"><ele>310.3333333333333</ele><time>2026-04-26T08:42:11Z</time></trkpt><trkpt lat="43.481140727728544" lon="12.066431640953475"><ele>310.0</ele><time>2026-04-26T08:42:12Z</time></trkpt><trkpt lat="43.481160165237405" lon="12.066691039398775"><ele>309.66666666666663</ele><time>2026-04-26T08:42:13Z</time></trkpt><trkpt lat="43.48117035569407" lon="12.06695136301659"><ele>309.3333333333333</ele><time>2026-04-26T08:42:14Z</time></trkpt><trkpt lat="43.48117088925186" lon="12.067211088459112"><ele>309.0</ele><time>2026-04-26T08:42:15Z</time></trkpt><trkpt lat="43.481169406219976" lon="12.067473323912143"><ele>308.6666666666667</ele><time>2026-04-26T08:42:16Z</time></trkpt><trkpt lat="43.48116576905727" lon="12.067736976321616"><ele>308.33333333333337</ele><time>2026-04-26T08:42:17Z</time></trkpt><trkpt lat="43.48116818533466" lon="12.068000572545305"><ele>308.0</ele><time>2026-04-26T08:42:18Z</time></trkpt><trkpt lat="43.48118201065508" lon="12.068268598441959"><ele>308.0</ele><time>2026-04-26T08:42:19Z</time></trkpt><trkpt lat="43.48120546014635" lon="12.06853711604699"><ele>308.0</ele><time>2026-04-26T08:42:20Z</time></trkpt><trkpt lat="43.481239480687925" lon="12.06880396956722"><ele>308.0</ele><time>2026-04-26T08:42:21Z</time></trkpt><trkpt lat="43.48128731805148" lon="12.069068519536797"><ele>311.6666666666667</ele><time>2026-04-26T08:42:22Z</time></trkpt><trkpt lat="43.48134621183798" lon="12.069327721764427"><ele>315.3333333333333</ele><time>2026-04-26T08:42:23Z</time></trkpt><trkpt lat="43.48141038141788" lon="12.069583911896345"><ele>319.0</ele><time>2026-04-26T08:42:24Z</time></trkpt><trkpt lat="43.48148381246192" lon="12.069829925922802"><ele>316.0</ele><time>2026-04-26T08:42:25Z</time></trkpt><trkpt lat="43.48156921577616" lon="12.070071152959141"><ele>313.0</ele><time>2026-04-26T08:42:26Z</time></trkpt><trkpt lat="43.481658891497155" lon="12.070312491543591"><ele>310.0</ele><time>2026-04-26T08:42:27Z</time></trkpt><trkpt lat="43.481754004205364" lon="12.070546976121166"><ele>310.0</ele><time>2026-04-26T08:42:28Z</time></trkpt><trkpt lat="43.48184464040559" lon="12.070778569584846"><ele>310.0</ele><time>2026-04-26T08:42:29Z</time></trkpt><trkpt lat="43.48193719408966" lon="12.071012544306361"><ele>310.0</ele><time>2026-04-26T08:42:30Z</time></trkpt><trkpt lat="43.48202899424337" lon="12.071243363299208"><ele>313.3333333333333</ele><time>2026-04-26T08:42:31Z</time></trkpt><trkpt lat="43.48211699605153" lon="12.071475654516131"><ele>316.6666666666667</ele><time>2026-04-26T08:42:32Z</time></trkpt><trkpt lat="43.48220775114707" lon="12.071706491466164"><ele>320.0</ele><time>2026-04-26T08:42:33Z</time></trkpt><trkpt lat="43.482285748754535" lon="12.071946532148795"><ele>321.0</ele><time>2026-04-26T08:42:34Z</time></trkpt><trkpt lat="43.48237492084706" lon="12.072173664644232"><ele>322.0</ele><time>2026-04-26T08:42:35Z</time></trkpt><trkpt lat="43.48246511675222" lon="12.072400463072471"><ele>323.0</ele><time>2026-04-26T08:42:36Z</time></trkpt><trkpt lat="43.482555041292386" lon="12.072623765001053"><ele>320.33333333333337</ele><time>2026-04-26T08:42:37Z</time></trkpt><trkpt lat="43.48264637514241" lon="12.072847879278429"><ele>317.6666666666667</ele><time>2026-04-26T08:42:38Z</time></trkpt><trkpt lat="43.48273872859491" lon="12.073069098010002"><ele>315.0</ele><time>2026-04-26T08:42:39Z</time></trkpt><trkpt lat="43.48283328163274" lon="12.073284443415758"><ele>316.3333333333333</ele><time>2026-04-26T08:42:40Z</time></trkpt><trkpt lat="43.482930957817224" lon="12.073498065252974"><ele>317.66666666666663</ele><time>2026-04-26T08:42:41Z</time></trkpt><trkpt lat="43.483041104273575" lon="12.073702206847122"><ele>319.0</ele><time>2026-04-26T08:42:42Z</time></trkpt><trkpt lat="43.483168197922645" lon="12.0738873454798"><ele>319.0</ele><time>2026-04-26T08:42:43Z</time></trkpt><trkpt lat="43.48328293190584" lon="12.074083889378622"><ele>319.0</ele><time>2026-04-26T08:42:44Z</time></trkpt><trkpt lat="43.48339645225213" lon="12.074278650309553"><ele>319.0</ele><time>2026-04-26T08:42:45Z</time></trkpt><trkpt lat="43.48351119748283" lon="12.074468846072818"><ele>318.66666666666663</ele><time>2026-04-26T08:42:46Z</time></trkpt><trkpt lat="43.48361138159845" lon="12.074673969817924"><ele>318.3333333333333</ele><time>2026-04-26T08:42:47Z</time></trkpt><trkpt lat="43.4837202557455" lon="12.074857765730155"><ele>318.0</ele><time>2026-04-26T08:42:48Z</time></trkpt><trkpt lat="43.48379174653969" lon="12.075072808377572"><ele>318.0</ele><time>2026-04-26T08:42:49Z</time></trkpt><trkpt lat="43.483865433302576" lon="12.07528227215836"><ele>318.0</ele><time>2026-04-26T08:42:50Z</time></trkpt><trkpt lat="43.48393888284444" lon="12.075493569588149"><ele>318.0</ele><time>2026-04-26T08:42:51Z</time></trkpt><trkpt lat="43.484012473797065" lon="12.075705273817416"><ele>316.3333333333333</ele><time>2026-04-26T08:42:52Z</time></trkpt><trkpt lat="43.484083439703646" lon="12.075914276597855"><ele>314.66666666666663</ele><time>2026-04-26T08:42:53Z</time></trkpt><trkpt lat="43.48415175869957" lon="12.07611877618685"><ele>313.0</ele><time>2026-04-26T08:42:54Z</time></trkpt><trkpt lat="43.48421874935544" lon="12.076310498610185"><ele>313.0</ele><time>2026-04-26T08:42:55Z</time></trkpt><trkpt lat="43.484283545259785" lon="12.07649565238649"><ele>313.0</ele><time>2026-04-26T08:42:56Z</time></trkpt><trkpt lat="43.48434368001624" lon="12.076672524613866"><ele>313.0</ele><time>2026-04-26T08:42:57Z</time></trkpt><trkpt lat="43.4843998553106" lon="12.07683890640341"><ele>313.0</ele><time>2026-04-26T08:42:58Z</time></trkpt><trkpt lat="43.48445545312994" lon="12.077003577813535"><ele>313.75</ele><time>2026-04-26T08:42:59Z</time></trkpt><trkpt lat="43.48451465136021" lon="12.077173600920341"><ele>314.5</ele><time>2026-04-26T08:43:00Z</time></trkpt><trkpt lat="43.48457691677419" lon="12.07735090808325"><ele>315.25</ele><time>2026-04-26T08:43:01Z</time></trkpt><trkpt lat="43.48463508435513" lon="12.077529268001253"><ele>316.0</ele><time>2026-04-26T08:43:02Z</time></trkpt><trkpt lat="43.48469781922446" lon="12.077708493694312"><ele>316.0</ele><time>2026-04-26T08:43:03Z</time></trkpt><trkpt lat="43.484764346944964" lon="12.07786930921777"><ele>316.0</ele><time>2026-04-26T08:43:04Z</time></trkpt><trkpt lat="43.48482904064213" lon="12.078011983803355"><ele>316.0</ele><time>2026-04-26T08:43:05Z</time></trkpt><trkpt lat="43.48491186784796" lon="12.078138796150606"><ele>316.0</ele><time>2026-04-26T08:43:06Z</time></trkpt><trkpt lat="43.48500131324491" lon="12.078236600854359"><ele>314.8333333333333</ele><time>2026-04-26T08:43:07Z</time></trkpt><trkpt lat="43.485087574686844" lon="12.078310201665303"><ele>313.66666666666663</ele><time>2026-04-26T08:43:08Z</time></trkpt><trkpt lat="43.48516681800791" lon="12.07834962717669"><ele>312.5</ele><time>2026-04-26T08:43:09Z</time></trkpt><trkpt lat="43.48521470244759" lon="12.078424869834942"><ele>311.3333333333333</ele><time>2026-04-26T08:43:10Z</time></trkpt><trkpt lat="43.485220959960216" lon="12.078538490280392"><ele>310.1666666666667</ele><time>2026-04-26T08:43:11Z</time></trkpt><trkpt lat="43.48524154991674" lon="12.078656398891226"><ele>309.0</ele><time>2026-04-26T08:43:12Z</time></trkpt><trkpt lat="43.48526390354413" lon="12.078772919971717"><ele>309.0</ele><time>2026-04-26T08:43:13Z</time></trkpt><trkpt lat="43.48529307515482" lon="12.078896004067374"><ele>309.0</ele><time>2026-04-26T08:43:14Z</time></trkpt><trkpt lat="43.48532994620425" lon="12.079025793501279"><ele>309.0</ele><time>2026-04-26T08:43:15Z</time></trkpt><trkpt lat="43.485375265567534" lon="12.07915822303137"><ele>309.0</ele><time>2026-04-26T08:43:16Z</time></trkpt><trkpt lat="43.48542910268807" lon="12.07928824743335"><ele>309.0</ele><time>2026-04-26T08:43:17Z</time></trkpt><trkpt lat="43.485489888549374" lon="12.079421008111211"><ele>309.75</ele><time>2026-04-26T08:43:18Z</time></trkpt><trkpt lat="43.48558801134597" lon="12.079534637198819"><ele>310.5</ele><time>2026-04-26T08:43:19Z</time></trkpt><trkpt lat="43.485663031358605" lon="12.079662715758937"><ele>311.25</ele><time>2026-04-26T08:43:20Z</time></trkpt><trkpt lat="43.485752420806165" lon="12.079784414229884"><ele>312.0</ele><time>2026-04-26T08:43:21Z</time></trkpt><trkpt lat="43.48587369922514" lon="12.079901889647378"><ele>311.25</ele><time>2026-04-26T08:43:22Z</time></trkpt><trkpt lat="43.485966042097274" lon="12.080034668213374"><ele>310.5</ele><time>2026-04-26T08:43:23Z</time></trkpt><trkpt lat="43.48606204459242" lon="12.080176846742617"><ele>309.75</ele><time>2026-04-26T08:43:24Z</time></trkpt><trkpt lat="43.48612283306839" lon="12.080362772514723"><ele>309.0</ele><time>2026-04-26T08:43:25Z</time></trkpt><trkpt lat="43.48621055105442" lon="12.080519830911271"><ele>308.3333333333333</ele><time>2026-04-26T08:43:26Z</time></trkpt><trkpt lat="43.48629489869343" lon="12.080689724982747"><ele>307.66666666666663</ele><time>2026-04-26T08:43:27Z</time></trkpt><trkpt lat="43.48637480568835" lon="12.08086697515751"><ele>307.0</ele><time>2026-04-26T08:43:28Z</time></trkpt><trkpt lat="43.486478987297794" lon="12.081039955948166"><ele>307.0</ele><time>2026-04-26T08:43:29Z</time></trkpt><trkpt lat="43.486559472239385" lon="12.081227911158743"><ele>307.0</ele><time>2026-04-26T08:43:30Z</time></trkpt><trkpt lat="43.486638937146196" lon="12.081423270297325"><ele>307.0</ele><time>2026-04-26T08:43:31Z</time></trkpt><trkpt lat="43.4867266683297" lon="12.08161975364038"><ele>306.66666666666663</ele><time>2026-04-26T08:43:32Z</time></trkpt><trkpt lat="43.486800538187055" lon="12.081830997617306"><ele>306.3333333333333</ele><time>2026-04-26T08:43:33Z</time></trkpt><trkpt lat="43.486889797311534" lon="12.082033285959415"><ele>306.0</ele><time>2026-04-26T08:43:34Z</time></trkpt><trkpt lat="43.486979707890406" lon="12.082234619715239"><ele>305.3333333333333</ele><time>2026-04-26T08:43:35Z</time></trkpt><trkpt lat="43.48707363169235" lon="12.082436633605266"><ele>304.66666666666663</ele><time>2026-04-26T08:43:36Z</time></trkpt><trkpt lat="43.48717405030492" lon="12.082633787698215"><ele>304.0</ele><time>2026-04-26T08:43:37Z</time></trkpt><trkpt lat="43.48727784038086" lon="12.08282471656134"><ele>305.0</ele><time>2026-04-26T08:43:38Z</time></trkpt><trkpt lat="43.48738267662561" lon="12.08301677622924"><ele>306.0</ele><time>2026-04-26T08:43:39Z</time></trkpt><trkpt lat="43.48747198603425" lon="12.083218409400212"><ele>307.0</ele><time>2026-04-26T08:43:40Z</time></trkpt><trkpt lat="43.487542571104186" lon="12.083440258572011"><ele>307.0</ele><time>2026-04-26T08:43:41Z</time></trkpt><trkpt lat="43.48762469762098" lon="12.08365441713848"><ele>307.0</ele><time>2026-04-26T08:43:42Z</time></trkpt><trkpt lat="43.487673789974814" lon="12.08388843388961"><ele>307.0</ele><time>2026-04-26T08:43:43Z</time></trkpt><trkpt lat="43.487714590125" lon="12.084122919753122"><ele>306.3333333333333</ele><time>2026-04-26T08:43:44Z</time></trkpt><trkpt lat="43.48774179321527" lon="12.08435965088926"><ele>305.6666666666667</ele><time>2026-04-26T08:43:45Z</time></trkpt><trkpt lat="43.48773941207851" lon="12.084602526146767"><ele>305.0</ele><time>2026-04-26T08:43:46Z</time></trkpt><trkpt lat="43.48775831452155" lon="12.08484496027933"><ele>305.0</ele><time>2026-04-26T08:43:47Z</time></trkpt><trkpt lat="43.4877764151482" lon="12.085085783496961"><ele>305.0</ele><time>2026-04-26T08:43:48Z</time></trkpt><trkpt lat="43.48780825164524" lon="12.085324271027302"><ele>305.0</ele><time>2026-04-26T08:43:49Z</time></trkpt><trkpt lat="43.48782329419769" lon="12.085563881006706"><ele>304.6666666666667</ele><time>2026-04-26T08:43:50Z</time></trkpt><trkpt lat="43.48783559372801" lon="12.085801537352332"><ele>304.3333333333333</ele><time>2026-04-26T08:43:51Z</time></trkpt><trkpt lat="43.48784350000291" lon="12.086036304027948"><ele>304.0</ele><time>2026-04-26T08:43:52Z</time></trkpt><trkpt lat="43.487845012396654" lon="12.08626893356613"><ele>304.0</ele><time>2026-04-26T08:43:53Z</time></trkpt><trkpt lat="43.48783022358864" lon="12.086500822999556"><ele>304.0</ele><time>2026-04-26T08:43:54Z</time></trkpt><trkpt lat="43.48782951791018" lon="12.086733202785256"><ele>304.0</ele><time>2026-04-26T08:43:55Z</time></trkpt><trkpt lat="43.4878288222737" lon="12.086962275888968"><ele>304.0</ele><time>2026-04-26T08:43:56Z</time></trkpt><trkpt lat="43.48782792445203" lon="12.087191994884153"><ele>304.0</ele><time>2026-04-26T08:43:57Z</time></trkpt><trkpt lat="43.48782853633656" lon="12.087422569961257"><ele>304.0</ele><time>2026-04-26T08:43:58Z</time></trkpt><trkpt lat="43.487830864414995" lon="12.087652243083733"><ele>304.0</ele><time>2026-04-26T08:43:59Z</time></trkpt><trkpt lat="43.48783376086499" lon="12.087881714789514"><ele>304.0</ele><time>2026-04-26T08:44:00Z</time></trkpt><trkpt lat="43.487836986080886" lon="12.088109203751515"><ele>304.0</ele><time>2026-04-26T08:44:01Z</time></trkpt><trkpt lat="43.48784302804262" lon="12.08834179808419"><ele>304.3333333333333</ele><time>2026-04-26T08:44:02Z</time></trkpt><trkpt lat="43.48785480329275" lon="12.088574948261591"><ele>304.6666666666667</ele><time>2026-04-26T08:44:03Z</time></trkpt><trkpt lat="43.487867500398835" lon="12.088806350678942"><ele>305.0</ele><time>2026-04-26T08:44:04Z</time></trkpt><trkpt lat="43.487900515553996" lon="12.08903240022327"><ele>305.0</ele><time>2026-04-26T08:44:05Z</time></trkpt><trkpt lat="43.48791622821873" lon="12.089260077508547"><ele>305.0</ele><time>2026-04-26T08:44:06Z</time></trkpt><trkpt lat="43.48793640872771" lon="12.089487454899114"><ele>305.0</ele><time>2026-04-26T08:44:07Z</time></trkpt><trkpt lat="43.487953748761214" lon="12.089710280387445"><ele>306.33333333333337</ele><time>2026-04-26T08:44:08Z</time></trkpt><trkpt lat="43.48794393665653" lon="12.089936064808168"><ele>307.6666666666667</ele><time>2026-04-26T08:44:09Z</time></trkpt><trkpt lat="43.487958358649514" lon="12.090152689110395"><ele>309.0</ele><time>2026-04-26T08:44:10Z</time></trkpt><trkpt lat="43.48797222156747" lon="12.090369735988634"><ele>309.0</ele><time>2026-04-26T08:44:11Z</time></trkpt><trkpt lat="43.48798766813139" lon="12.09058766362636"><ele>309.0</ele><time>2026-04-26T08:44:12Z</time></trkpt><trkpt lat="43.48800282378429" lon="12.09080054060651"><ele>309.0</ele><time>2026-04-26T08:44:13Z</time></trkpt><trkpt lat="43.48801770177633" lon="12.091009517549363"><ele>309.0</ele><time>2026-04-26T08:44:14Z</time></trkpt><trkpt lat="43.488032133494954" lon="12.09121222612079"><ele>309.0</ele><time>2026-04-26T08:44:15Z</time></trkpt><trkpt lat="43.488046614130326" lon="12.091415621769912"><ele>309.0</ele><time>2026-04-26T08:44:16Z</time></trkpt><trkpt lat="43.48806124606179" lon="12.091621142546861"><ele>309.0</ele><time>2026-04-26T08:44:17Z</time></trkpt><trkpt lat="43.48809785257155" lon="12.091826252305356"><ele>308.6666666666667</ele><time>2026-04-26T08:44:18Z</time></trkpt><trkpt lat="43.488110741075985" lon="12.092040888078209"><ele>308.33333333333337</ele><time>2026-04-26T08:44:19Z</time></trkpt><trkpt lat="43.48812500775828" lon="12.092257199334579"><ele>308.0</ele><time>2026-04-26T08:44:20Z</time></trkpt><trkpt lat="43.48813976293663" lon="12.092476066267961"><ele>308.0</ele><time>2026-04-26T08:44:21Z</time></trkpt><trkpt lat="43.488135646396344" lon="12.09269954990157"><ele>308.0</ele><time>2026-04-26T08:44:22Z</time></trkpt><trkpt lat="43.48815034645255" lon="12.092922825023127"><ele>308.0</ele><time>2026-04-26T08:44:23Z</time></trkpt><trkpt lat="43.48816460426177" lon="12.093139382962413"><ele>308.5</ele><time>2026-04-26T08:44:24Z</time></trkpt><trkpt lat="43.488204547459716" lon="12.093348238482541"><ele>309.0</ele><time>2026-04-26T08:44:25Z</time></trkpt><trkpt lat="43.48822025713079" lon="12.09354882581347"><ele>309.5</ele><time>2026-04-26T08:44:26Z</time></trkpt><trkpt lat="43.488233910492056" lon="12.093740246733011"><ele>310.0</ele><time>2026-04-26T08:44:27Z</time></trkpt><trkpt lat="43.48824875403218" lon="12.093927191468094"><ele>309.5</ele><time>2026-04-26T08:44:28Z</time></trkpt><trkpt lat="43.488233326296296" lon="12.094128532736674"><ele>309.0</ele><time>2026-04-26T08:44:29Z</time></trkpt><trkpt lat="43.48824722430716" lon="12.094325096520262"><ele>308.5</ele><time>2026-04-26T08:44:30Z</time></trkpt><trkpt lat="43.48826156961856" lon="12.094525421412953"><ele>308.0</ele><time>2026-04-26T08:44:31Z</time></trkpt><trkpt lat="43.48827611906449" lon="12.09472859695431"><ele>307.0</ele><time>2026-04-26T08:44:32Z</time></trkpt><trkpt lat="43.488290793457836" lon="12.094933517320799"><ele>306.0</ele><time>2026-04-26T08:44:33Z</time></trkpt><trkpt lat="43.48830457612795" lon="12.095142300618964"><ele>305.0</ele><time>2026-04-26T08:44:34Z</time></trkpt><trkpt lat="43.48831786471298" lon="12.095352915594766"><ele>305.0</ele><time>2026-04-26T08:44:35Z</time></trkpt><trkpt lat="43.48833309456202" lon="12.09556684690249"><ele>305.0</ele><time>2026-04-26T08:44:36Z</time></trkpt><trkpt lat="43.48835030505214" lon="12.095780311415572"><ele>305.0</ele><time>2026-04-26T08:44:37Z</time></trkpt><trkpt lat="43.488364823601074" lon="12.095988380652482"><ele>304.75</ele><time>2026-04-26T08:44:38Z</time></trkpt><trkpt lat="43.48837820194379" lon="12.096181251756287"><ele>304.5</ele><time>2026-04-26T08:44:39Z</time></trkpt><trkpt lat="43.488391331333254" lon="12.096370533795657"><ele>304.25</ele><time>2026-04-26T08:44:40Z</time></trkpt><trkpt lat="43.48841061015204" lon="12.096554472413796"><ele>304.0</ele><time>2026-04-26T08:44:41Z</time></trkpt><trkpt lat="43.488423221263794" lon="12.09674795165065"><ele>304.0</ele><time>2026-04-26T08:44:42Z</time></trkpt><trkpt lat="43.48843526683699" lon="12.096943980139812"><ele>304.0</ele><time>2026-04-26T08:44:43Z</time></trkpt><trkpt lat="43.48844644857899" lon="12.09714239299244"><ele>304.0</ele><time>2026-04-26T08:44:44Z</time></trkpt><trkpt lat="43.488457891647585" lon="12.097343775280756"><ele>304.0</ele><time>2026-04-26T08:44:45Z</time></trkpt><trkpt lat="43.48846615264195" lon="12.097544644719717"><ele>303.75</ele><time>2026-04-26T08:44:46Z</time></trkpt><trkpt lat="43.488472325469424" lon="12.097731123366733"><ele>303.5</ele><time>2026-04-26T08:44:47Z</time></trkpt><trkpt lat="43.4884756500843" lon="12.097920239021247"><ele>303.25</ele><time>2026-04-26T08:44:48Z</time></trkpt><trkpt lat="43.488469754787225" lon="12.098110702020396"><ele>303.0</ele><time>2026-04-26T08:44:49Z</time></trkpt><trkpt lat="43.48845160718434" lon="12.09830146963466"><ele>303.0</ele><time>2026-04-26T08:44:50Z</time></trkpt><trkpt lat="43.488428668321795" lon="12.098493205270477"><ele>303.0</ele><time>2026-04-26T08:44:51Z</time></trkpt><trkpt lat="43.48840391085405" lon="12.098683210367929"><ele>303.0</ele><time>2026-04-26T08:44:52Z</time></trkpt><trkpt lat="43.488384579232125" lon="12.098861956905667"><ele>303.0</ele><time>2026-04-26T08:44:53Z</time></trkpt><trkpt lat="43.48835734268762" lon="12.09903882739974"><ele>303.0</ele><time>2026-04-26T08:44:54Z</time></trkpt><trkpt lat="43.48832321136167" lon="12.099215271128772"><ele>303.0</ele><time>2026-04-26T08:44:55Z</time></trkpt><trkpt lat="43.488280911868195" lon="12.099394640913898"><ele>303.0</ele><time>2026-04-26T08:44:56Z</time></trkpt><trkpt lat="43.488234980532035" lon="12.099570656252359"><ele>303.0</ele><time>2026-04-26T08:44:57Z</time></trkpt><trkpt lat="43.48818969962919" lon="12.099742607662748"><ele>303.5</ele><time>2026-04-26T08:44:58Z</time></trkpt><trkpt lat="43.48814113251122" lon="12.099918504486881"><ele>304.0</ele><time>2026-04-26T08:44:59Z</time></trkpt><trkpt lat="43.488085247464966" lon="12.100093708481566"><ele>304.5</ele><time>2026-04-26T08:45:00Z</time></trkpt><trkpt lat="43.488036774798346" lon="12.10026388992189"><ele>305.0</ele><time>2026-04-26T08:45:01Z</time></trkpt><trkpt lat="43.48799091597605" lon="12.100434063284602"><ele>305.0</ele><time>2026-04-26T08:45:02Z</time></trkpt><trkpt lat="43.48794968139816" lon="12.10060130160788"><ele>305.0</ele><time>2026-04-26T08:45:03Z</time></trkpt><trkpt lat="43.48792171156067" lon="12.100773475120127"><ele>305.0</ele><time>2026-04-26T08:45:04Z</time></trkpt><trkpt lat="43.48790754541182" lon="12.100947697586342"><ele>305.0</ele><time>2026-04-26T08:45:05Z</time></trkpt><trkpt lat="43.48790310634746" lon="12.10111863393468"><ele>304.75</ele><time>2026-04-26T08:45:06Z</time></trkpt><trkpt lat="43.48789186968836" lon="12.101282990693225"><ele>304.5</ele><time>2026-04-26T08:45:07Z</time></trkpt><trkpt lat="43.4879216160484" lon="12.101441616764237"><ele>304.25</ele><time>2026-04-26T08:45:08Z</time></trkpt><trkpt lat="43.487924053917055" lon="12.101598035608555"><ele>304.0</ele><time>2026-04-26T08:45:09Z</time></trkpt><trkpt lat="43.48795023962156" lon="12.101751747503016"><ele>305.25</ele><time>2026-04-26T08:45:10Z</time></trkpt><trkpt lat="43.48798218306082" lon="12.101908119017928"><ele>306.5</ele><time>2026-04-26T08:45:11Z</time></trkpt><trkpt lat="43.488017405338645" lon="12.102066154890737"><ele>307.75</ele><time>2026-04-26T08:45:12Z</time></trkpt><trkpt lat="43.48805423157801" lon="12.102224955151112"><ele>309.0</ele><time>2026-04-26T08:45:13Z</time></trkpt><trkpt lat="43.48809301708794" lon="12.102392204066042"><ele>308.0</ele><time>2026-04-26T08:45:14Z</time></trkpt><trkpt lat="43.48813090605579" lon="12.102555586936095"><ele>307.0</ele><time>2026-04-26T08:45:15Z</time></trkpt><trkpt lat="43.48816926321965" lon="12.102713846052236"><ele>306.0</ele><time>2026-04-26T08:45:16Z</time></trkpt><trkpt lat="43.48820845086978" lon="12.102877308599844"><ele>305.0</ele><time>2026-04-26T08:45:17Z</time></trkpt><trkpt lat="43.48824821904404" lon="12.103041233230078"><ele>305.0</ele><time>2026-04-26T08:45:18Z</time></trkpt><trkpt lat="43.48828633205926" lon="12.103198823181641"><ele>305.0</ele><time>2026-04-26T08:45:19Z</time></trkpt><trkpt lat="43.48832498632214" lon="12.1033586510876"><ele>305.0</ele><time>2026-04-26T08:45:20Z</time></trkpt><trkpt lat="43.4883627903715" lon="12.103514963520677"><ele>305.0</ele><time>2026-04-26T08:45:21Z</time></trkpt><trkpt lat="43.488411631107155" lon="12.103665159554637"><ele>304.5</ele><time>2026-04-26T08:45:22Z</time></trkpt><trkpt lat="43.488439559290946" lon="12.103816277606622"><ele>304.0</ele><time>2026-04-26T08:45:23Z</time></trkpt><trkpt lat="43.48847440837045" lon="12.103968953306467"><ele>303.5</ele><time>2026-04-26T08:45:24Z</time></trkpt><trkpt lat="43.4885098852833" lon="12.104120833908837"><ele>303.0</ele><time>2026-04-26T08:45:25Z</time></trkpt><trkpt lat="43.488544226305144" lon="12.10427426260189"><ele>303.0</ele><time>2026-04-26T08:45:26Z</time></trkpt><trkpt lat="43.48856912816367" lon="12.104426132583596"><ele>303.0</ele><time>2026-04-26T08:45:27Z</time></trkpt><trkpt lat="43.48859416804383" lon="12.104584747076172"><ele>303.0</ele><time>2026-04-26T08:45:28Z</time></trkpt><trkpt lat="43.48860754021373" lon="12.10474901494358"><ele>303.0</ele><time>2026-04-26T08:45:29Z</time></trkpt><trkpt lat="43.4886050399501" lon="12.104920918139507"><ele>303.0</ele><time>2026-04-26T08:45:30Z</time></trkpt><trkpt lat="43.48859382572244" lon="12.10510078905781"><ele>303.0</ele><time>2026-04-26T08:45:31Z</time></trkpt><trkpt lat="43.488570211512815" lon="12.105272828954265"><ele>303.0</ele><time>2026-04-26T08:45:32Z</time></trkpt><trkpt lat="43.488538022714614" lon="12.10543956216325"><ele>303.0</ele><time>2026-04-26T08:45:33Z</time></trkpt><trkpt lat="43.48850487298877" lon="12.105593842342401"><ele>303.0</ele><time>2026-04-26T08:45:34Z</time></trkpt><trkpt lat="43.488463290537126" lon="12.105738147660459"><ele>303.0</ele><time>2026-04-26T08:45:35Z</time></trkpt><trkpt lat="43.48842038924555" lon="12.1058747639558"><ele>303.0</ele><time>2026-04-26T08:45:36Z</time></trkpt><trkpt lat="43.488375245729834" lon="12.106008389758488"><ele>303.0</ele><time>2026-04-26T08:45:37Z</time></trkpt><trkpt lat="43.48832080923053" lon="12.10613896754082"><ele>303.0</ele><time>2026-04-26T08:45:38Z</time></trkpt><trkpt lat="43.48826377475229" lon="12.106270688930037"><ele>303.75</ele><time>2026-04-26T08:45:39Z</time></trkpt><trkpt lat="43.48819478915927" lon="12.106388912683178"><ele>304.5</ele><time>2026-04-26T08:45:40Z</time></trkpt><trkpt lat="43.48812673664548" lon="12.106515226816871"><ele>305.25</ele><time>2026-04-26T08:45:41Z</time></trkpt><trkpt lat="43.48805617892882" lon="12.106637982410751"><ele>306.0</ele><time>2026-04-26T08:45:42Z</time></trkpt><trkpt lat="43.487986230649014" lon="12.106763655846262"><ele>305.25</ele><time>2026-04-26T08:45:43Z</time></trkpt><trkpt lat="43.4879136915575" lon="12.106893984095908"><ele>304.5</ele><time>2026-04-26T08:45:44Z</time></trkpt><trkpt lat="43.48784258775728" lon="12.10702477369299"><ele>303.75</ele><time>2026-04-26T08:45:45Z</time></trkpt><trkpt lat="43.48776836463412" lon="12.107162106291513"><ele>303.0</ele><time>2026-04-26T08:45:46Z</time></trkpt><trkpt lat="43.487698936460895" lon="12.107295579382589"><ele>303.6</ele><time>2026-04-26T08:45:47Z</time></trkpt><trkpt lat="43.487631254795645" lon="12.107423986976123"><ele>304.20000000000005</ele><time>2026-04-26T08:45:48Z</time></trkpt><trkpt lat="43.48756476933878" lon="12.107553504293247"><ele>304.8</ele><time>2026-04-26T08:45:49Z</time></trkpt><trkpt lat="43.487502078216984" lon="12.107673075240907"><ele>305.40000000000003</ele><time>2026-04-26T08:45:50Z</time></trkpt><trkpt lat="43.4874399461574" lon="12.107794999074912"><ele>306.0</ele><time>2026-04-26T08:45:51Z</time></trkpt><trkpt lat="43.487391345825316" lon="12.107934874166359"><ele>306.0</ele><time>2026-04-26T08:45:52Z</time></trkpt><trkpt lat="43.48733288574394" lon="12.108064275810372"><ele>306.0</ele><time>2026-04-26T08:45:53Z</time></trkpt><trkpt lat="43.48728491485743" lon="12.108201267274938"><ele>306.0</ele><time>2026-04-26T08:45:54Z</time></trkpt><trkpt lat="43.48725833219586" lon="12.108355498743036"><ele>306.0</ele><time>2026-04-26T08:45:55Z</time></trkpt><trkpt lat="43.487220620578874" lon="12.108512063486538"><ele>306.2</ele><time>2026-04-26T08:45:56Z</time></trkpt><trkpt lat="43.48722454547821" lon="12.108673308151136"><ele>306.40000000000003</ele><time>2026-04-26T08:45:57Z</time></trkpt><trkpt lat="43.48724442078099" lon="12.108828759805617"><ele>306.6</ele><time>2026-04-26T08:45:58Z</time></trkpt><trkpt lat="43.48727315957347" lon="12.108966932528645"><ele>306.8</ele><time>2026-04-26T08:45:59Z</time></trkpt><trkpt lat="43.487319807711906" lon="12.109107789991132"><ele>307.0</ele><time>2026-04-26T08:46:00Z</time></trkpt><trkpt lat="43.48737776559526" lon="12.109240756748132"><ele>307.0</ele><time>2026-04-26T08:46:01Z</time></trkpt><trkpt lat="43.48744850484417" lon="12.10936325177739"><ele>307.0</ele><time>2026-04-26T08:46:02Z</time></trkpt><trkpt lat="43.48752742714268" lon="12.109476391377358"><ele>307.0</ele><time>2026-04-26T08:46:03Z</time></trkpt><trkpt lat="43.487605439768814" lon="12.109580620641706"><ele>307.0</ele><time>2026-04-26T08:46:04Z</time></trkpt><trkpt lat="43.48767648502955" lon="12.109676324405793"><ele>307.0</ele><time>2026-04-26T08:46:05Z</time></trkpt><trkpt lat="43.48774210857121" lon="12.109768584692803"><ele>307.0</ele><time>2026-04-26T08:46:06Z</time></trkpt><trkpt lat="43.48780168694198" lon="12.109866150627091"><ele>307.0</ele><time>2026-04-26T08:46:07Z</time></trkpt><trkpt lat="43.48785210872285" lon="12.109971604448472"><ele>307.0</ele><time>2026-04-26T08:46:08Z</time></trkpt><trkpt lat="43.487898902163806" lon="12.110087653168536"><ele>307.0</ele><time>2026-04-26T08:46:09Z</time></trkpt><trkpt lat="43.487931204511334" lon="12.1102085206404"><ele>307.0</ele><time>2026-04-26T08:46:10Z</time></trkpt><trkpt lat="43.48795730519982" lon="12.110343050921486"><ele>307.16666666666663</ele><time>2026-04-26T08:46:11Z</time></trkpt><trkpt lat="43.48797652725465" lon="12.110485792196975"><ele>307.3333333333333</ele><time>2026-04-26T08:46:12Z</time></trkpt><trkpt lat="43.487981256035134" lon="12.110615586229633"><ele>307.5</ele><time>2026-04-26T08:46:13Z</time></trkpt><trkpt lat="43.48798154945199" lon="12.110735563066887"><ele>307.6666666666667</ele><time>2026-04-26T08:46:14Z</time></trkpt><trkpt lat="43.48798154945276" lon="12.11083729563306"><ele>307.83333333333337</ele><time>2026-04-26T08:46:15Z</time></trkpt><trkpt lat="43.4879807695761" lon="12.110930037203506"><ele>308.0</ele><time>2026-04-26T08:46:16Z</time></trkpt><trkpt lat="43.48798136328016" lon="12.111037487984945"><ele>307.6666666666667</ele><time>2026-04-26T08:46:17Z</time></trkpt><trkpt lat="43.487993425697816" lon="12.111160873734393"><ele>307.33333333333337</ele><time>2026-04-26T08:46:18Z</time></trkpt><trkpt lat="43.488017256095766" lon="12.11128561683474"><ele>307.0</ele><time>2026-04-26T08:46:19Z</time></trkpt><trkpt lat="43.48808614659736" lon="12.111377575392279"><ele>306.6666666666667</ele><time>2026-04-26T08:46:20Z</time></trkpt><trkpt lat="43.48812043625712" lon="12.11147376534515"><ele>306.3333333333333</ele><time>2026-04-26T08:46:21Z</time></trkpt><trkpt lat="43.488144223906" lon="12.111564611193321"><ele>306.0</ele><time>2026-04-26T08:46:22Z</time></trkpt><trkpt lat="43.488168316663014" lon="12.111653023449291"><ele>305.6666666666667</ele><time>2026-04-26T08:46:23Z</time></trkpt><trkpt lat="43.488198514686765" lon="12.111744421276029"><ele>305.3333333333333</ele><time>2026-04-26T08:46:24Z</time></trkpt><trkpt lat="43.4881892935372" lon="12.1118577423363"><ele>305.0</ele><time>2026-04-26T08:46:25Z</time></trkpt><trkpt lat="43.48825299225572" lon="12.111911558996862"><ele>304.66666666666663</ele><time>2026-04-26T08:46:26Z</time></trkpt><trkpt lat="43.48830651134628" lon="12.112075448647385"><ele>304.3333333333333</ele><time>2026-04-26T08:46:28Z</time></trkpt><trkpt lat="43.488337115414836" lon="12.112169641075806"><ele>304.0</ele><time>2026-04-26T08:46:29Z</time></trkpt><trkpt lat="43.48836559859965" lon="12.112253317773028"><ele>304.0</ele><time>2026-04-26T08:46:30Z</time></trkpt><trkpt lat="43.4884199636948" lon="12.112392416172574"><ele>304.0</ele><time>2026-04-26T08:46:32Z</time></trkpt><trkpt lat="43.48840818249471" lon="12.112493470300109"><ele>304.0</ele><time>2026-04-26T08:46:33Z</time></trkpt><trkpt lat="43.48846888871233" lon="12.112562777082847"><ele>304.0</ele><time>2026-04-26T08:46:34Z</time></trkpt><trkpt lat="43.48849940373009" lon="12.112658388771129"><ele>304.0</ele><time>2026-04-26T08:46:35Z</time></trkpt><trkpt lat="43.488532486013796" lon="12.112761582539719"><ele>304.0</ele><time>2026-04-26T08:46:36Z</time></trkpt><trkpt lat="43.48856837335439" lon="12.112858281638283"><ele>303.66666666666663</ele><time>2026-04-26T08:46:37Z</time></trkpt><trkpt lat="43.48860280603978" lon="12.112953614906056"><ele>303.3333333333333</ele><time>2026-04-26T08:46:38Z</time></trkpt><trkpt lat="43.488629305897526" lon="12.113055274415334"><ele>303.0</ele><time>2026-04-26T08:46:39Z</time></trkpt><trkpt lat="43.488659093936405" lon="12.113162826779119"><ele>302.6666666666667</ele><time>2026-04-26T08:46:40Z</time></trkpt><trkpt lat="43.48869296861071" lon="12.113275315695017"><ele>302.33333333333337</ele><time>2026-04-26T08:46:41Z</time></trkpt><trkpt lat="43.48872307687736" lon="12.113394905593504"><ele>302.0</ele><time>2026-04-26T08:46:42Z</time></trkpt><trkpt lat="43.48875517351775" lon="12.113520507194973"><ele>301.8</ele><time>2026-04-26T08:46:43Z</time></trkpt><trkpt lat="43.488784471551654" lon="12.1136444741663"><ele>301.6</ele><time>2026-04-26T08:46:44Z</time></trkpt><trkpt lat="43.488819230927426" lon="12.113770876308312"><ele>301.40000000000003</ele><time>2026-04-26T08:46:45Z</time></trkpt><trkpt lat="43.48883137002834" lon="12.113916555031757"><ele>301.2</ele><time>2026-04-26T08:46:46Z</time></trkpt><trkpt lat="43.488866798503764" lon="12.114056777703789"><ele>301.0</ele><time>2026-04-26T08:46:47Z</time></trkpt><trkpt lat="43.48890207980183" lon="12.114196417860509"><ele>301.0</ele><time>2026-04-26T08:46:48Z</time></trkpt><trkpt lat="43.48893423890095" lon="12.11432461074199"><ele>301.0</ele><time>2026-04-26T08:46:49Z</time></trkpt><trkpt lat="43.488972814202704" lon="12.114411380876868"><ele>301.0</ele><time>2026-04-26T08:46:50Z</time></trkpt><trkpt lat="43.489003500857045" lon="12.114580518177144"><ele>301.0</ele><time>2026-04-26T08:46:52Z</time></trkpt><trkpt lat="43.48903270603357" lon="12.1146816447007"><ele>301.0</ele><time>2026-04-26T08:46:53Z</time></trkpt><trkpt lat="43.489054029679096" lon="12.114807145042239"><ele>301.75</ele><time>2026-04-26T08:46:54Z</time></trkpt><trkpt lat="43.48906625749032" lon="12.114959191352972"><ele>302.5</ele><time>2026-04-26T08:46:55Z</time></trkpt><trkpt lat="43.48906509935078" lon="12.11512317066789"><ele>303.25</ele><time>2026-04-26T08:46:56Z</time></trkpt><trkpt lat="43.48904657112902" lon="12.11528596192883"><ele>304.0</ele><time>2026-04-26T08:46:57Z</time></trkpt><trkpt lat="43.489012507660995" lon="12.115448488173984"><ele>304.0</ele><time>2026-04-26T08:46:58Z</time></trkpt><trkpt lat="43.48897363971622" lon="12.115615213327027"><ele>304.0</ele><time>2026-04-26T08:46:59Z</time></trkpt><trkpt lat="43.488937844313845" lon="12.11578682986644"><ele>304.0</ele><time>2026-04-26T08:47:00Z</time></trkpt><trkpt lat="43.488894253701105" lon="12.115964323104482"><ele>304.0</ele><time>2026-04-26T08:47:01Z</time></trkpt><trkpt lat="43.488850560433754" lon="12.11614436922335"><ele>303.75</ele><time>2026-04-26T08:47:02Z</time></trkpt><trkpt lat="43.48880775734725" lon="12.116329675488394"><ele>303.5</ele><time>2026-04-26T08:47:03Z</time></trkpt><trkpt lat="43.48876318023203" lon="12.116520503371772"><ele>303.25</ele><time>2026-04-26T08:47:04Z</time></trkpt><trkpt lat="43.48871833740276" lon="12.11671752763164"><ele>303.0</ele><time>2026-04-26T08:47:05Z</time></trkpt><trkpt lat="43.48867357301878" lon="12.116916104940412"><ele>302.6666666666667</ele><time>2026-04-26T08:47:06Z</time></trkpt><trkpt lat="43.48862809166143" lon="12.117116679653881"><ele>302.33333333333337</ele><time>2026-04-26T08:47:07Z</time></trkpt><trkpt lat="43.48858443218643" lon="12.117321435122662"><ele>302.0</ele><time>2026-04-26T08:47:08Z</time></trkpt><trkpt lat="43.48853501831903" lon="12.117523433200475"><ele>302.6666666666667</ele><time>2026-04-26T08:47:09Z</time></trkpt><trkpt lat="43.48848564068864" lon="12.117716230768632"><ele>303.3333333333333</ele><time>2026-04-26T08:47:10Z</time></trkpt><trkpt lat="43.48843159849304" lon="12.117916075082837"><ele>304.0</ele><time>2026-04-26T08:47:11Z</time></trkpt><trkpt lat="43.488373503122006" lon="12.118111657769052"><ele>304.0</ele><time>2026-04-26T08:47:12Z</time></trkpt><trkpt lat="43.488309597334045" lon="12.118313313247812"><ele>304.0</ele><time>2026-04-26T08:47:13Z</time></trkpt><trkpt lat="43.48824953629165" lon="12.11852006776037"><ele>304.0</ele><time>2026-04-26T08:47:14Z</time></trkpt><trkpt lat="43.488183961168566" lon="12.118714022383614"><ele>304.0</ele><time>2026-04-26T08:47:15Z</time></trkpt><trkpt lat="43.48812440862333" lon="12.118901897440766"><ele>304.0</ele><time>2026-04-26T08:47:16Z</time></trkpt><trkpt lat="43.488062683791284" lon="12.119104387780991"><ele>304.0</ele><time>2026-04-26T08:47:17Z</time></trkpt><trkpt lat="43.48799485536954" lon="12.119311568412277"><ele>303.0</ele><time>2026-04-26T08:47:18Z</time></trkpt><trkpt lat="43.487925391504916" lon="12.119513747942738"><ele>302.0</ele><time>2026-04-26T08:47:19Z</time></trkpt><trkpt lat="43.487867280448434" lon="12.11973003700362"><ele>301.0</ele><time>2026-04-26T08:47:20Z</time></trkpt><trkpt lat="43.48781672022616" lon="12.119952927147661"><ele>301.0</ele><time>2026-04-26T08:47:21Z</time></trkpt><trkpt lat="43.48776897056032" lon="12.120179412848739"><ele>301.0</ele><time>2026-04-26T08:47:22Z</time></trkpt><trkpt lat="43.48772354141536" lon="12.120410267773723"><ele>301.0</ele><time>2026-04-26T08:47:23Z</time></trkpt><trkpt lat="43.487677142122934" lon="12.12064592497972"><ele>301.3333333333333</ele><time>2026-04-26T08:47:24Z</time></trkpt><trkpt lat="43.487632883164274" lon="12.120875914641298"><ele>301.6666666666667</ele><time>2026-04-26T08:47:25Z</time></trkpt><trkpt lat="43.4875837133301" lon="12.121110266368328"><ele>302.0</ele><time>2026-04-26T08:47:26Z</time></trkpt><trkpt lat="43.487526738365204" lon="12.121346514226003"><ele>302.33333333333337</ele><time>2026-04-26T08:47:27Z</time></trkpt><trkpt lat="43.48746666514237" lon="12.121574651951525"><ele>302.6666666666667</ele><time>2026-04-26T08:47:28Z</time></trkpt><trkpt lat="43.48740841532475" lon="12.121801401932865"><ele>303.0</ele><time>2026-04-26T08:47:29Z</time></trkpt><trkpt lat="43.48735251335663" lon="12.12202512266009"><ele>303.0</ele><time>2026-04-26T08:47:30Z</time></trkpt><trkpt lat="43.487290918540246" lon="12.122251621084594"><ele>303.0</ele><time>2026-04-26T08:47:31Z</time></trkpt><trkpt lat="43.48723521665677" lon="12.12246567680051"><ele>303.0</ele><time>2026-04-26T08:47:32Z</time></trkpt><trkpt lat="43.487174904302385" lon="12.122694846994946"><ele>302.3333333333333</ele><time>2026-04-26T08:47:33Z</time></trkpt><trkpt lat="43.487110592168875" lon="12.122928957288897"><ele>301.66666666666663</ele><time>2026-04-26T08:47:34Z</time></trkpt><trkpt lat="43.487048929545146" lon="12.123162630703744"><ele>301.0</ele><time>2026-04-26T08:47:35Z</time></trkpt><trkpt lat="43.4869871325677" lon="12.123397245921797"><ele>300.66666666666663</ele><time>2026-04-26T08:47:36Z</time></trkpt><trkpt lat="43.48692612318271" lon="12.123630805537243"><ele>300.3333333333333</ele><time>2026-04-26T08:47:37Z</time></trkpt><trkpt lat="43.486863143792945" lon="12.123864125684952"><ele>300.0</ele><time>2026-04-26T08:47:38Z</time></trkpt><trkpt lat="43.486801504602454" lon="12.1240952206076"><ele>301.0</ele><time>2026-04-26T08:47:39Z</time></trkpt><trkpt lat="43.48674222128692" lon="12.124322523588434"><ele>302.0</ele><time>2026-04-26T08:47:40Z</time></trkpt><trkpt lat="43.48668423207227" lon="12.124551815977389"><ele>303.0</ele><time>2026-04-26T08:47:41Z</time></trkpt><trkpt lat="43.48662617101428" lon="12.124784880903855"><ele>304.0</ele><time>2026-04-26T08:47:42Z</time></trkpt><trkpt lat="43.486561786780356" lon="12.12501844652054"><ele>305.0</ele><time>2026-04-26T08:47:43Z</time></trkpt><trkpt lat="43.486505414586986" lon="12.125242426959922"><ele>306.0</ele><time>2026-04-26T08:47:44Z</time></trkpt><trkpt lat="43.48644498764448" lon="12.125472248472672"><ele>306.0</ele><time>2026-04-26T08:47:45Z</time></trkpt><trkpt lat="43.48639020345034" lon="12.125710201769843"><ele>306.0</ele><time>2026-04-26T08:47:46Z</time></trkpt><trkpt lat="43.486338482023555" lon="12.125944614307535"><ele>306.0</ele><time>2026-04-26T08:47:47Z</time></trkpt><trkpt lat="43.48627909192053" lon="12.126179642231827"><ele>305.6666666666667</ele><time>2026-04-26T08:47:48Z</time></trkpt><trkpt lat="43.486230031991006" lon="12.126419957464398"><ele>305.33333333333337</ele><time>2026-04-26T08:47:49Z</time></trkpt><trkpt lat="43.48618500674512" lon="12.1266551955014"><ele>305.0</ele><time>2026-04-26T08:47:50Z</time></trkpt><trkpt lat="43.48615949717594" lon="12.126901072487405"><ele>305.0</ele><time>2026-04-26T08:47:51Z</time></trkpt><trkpt lat="43.48614159596545" lon="12.127156451525547"><ele>305.0</ele><time>2026-04-26T08:47:52Z</time></trkpt><trkpt lat="43.4861225140289" lon="12.127411865389437"><ele>305.0</ele><time>2026-04-26T08:47:53Z</time></trkpt><trkpt lat="43.486104010284244" lon="12.127661664931942"><ele>304.6666666666667</ele><time>2026-04-26T08:47:54Z</time></trkpt><trkpt lat="43.4860873999233" lon="12.127898575714314"><ele>304.3333333333333</ele><time>2026-04-26T08:47:55Z</time></trkpt><trkpt lat="43.486072146554434" lon="12.128125151132581"><ele>304.0</ele><time>2026-04-26T08:47:56Z</time></trkpt><trkpt lat="43.48606429667502" lon="12.128340879493312"><ele>303.66666666666663</ele><time>2026-04-26T08:47:57Z</time></trkpt><trkpt lat="43.486098590485824" lon="12.128551342617747"><ele>303.3333333333333</ele><time>2026-04-26T08:47:58Z</time></trkpt><trkpt lat="43.48615459607191" lon="12.128746275034644"><ele>303.0</ele><time>2026-04-26T08:47:59Z</time></trkpt><trkpt lat="43.48623125620727" lon="12.128931009778135"><ele>304.0</ele><time>2026-04-26T08:48:00Z</time></trkpt><trkpt lat="43.486305360060214" lon="12.129129965250455"><ele>305.0</ele><time>2026-04-26T08:48:01Z</time></trkpt><trkpt lat="43.48639728379924" lon="12.129323183404694"><ele>306.0</ele><time>2026-04-26T08:48:02Z</time></trkpt><trkpt lat="43.48648852620772" lon="12.129515544849532"><ele>306.0</ele><time>2026-04-26T08:48:03Z</time></trkpt><trkpt lat="43.486578058132416" lon="12.129706349066982"><ele>306.0</ele><time>2026-04-26T08:48:04Z</time></trkpt><trkpt lat="43.48666363724971" lon="12.129892191980343"><ele>306.0</ele><time>2026-04-26T08:48:05Z</time></trkpt><trkpt lat="43.48674329574254" lon="12.130080714644688"><ele>305.3333333333333</ele><time>2026-04-26T08:48:06Z</time></trkpt><trkpt lat="43.48680969942337" lon="12.130277478263801"><ele>304.66666666666663</ele><time>2026-04-26T08:48:07Z</time></trkpt><trkpt lat="43.48684846434851" lon="12.130487272225361"><ele>304.0</ele><time>2026-04-26T08:48:08Z</time></trkpt><trkpt lat="43.48687253733034" lon="12.130705375565817"><ele>303.3333333333333</ele><time>2026-04-26T08:48:09Z</time></trkpt><trkpt lat="43.48689394134786" lon="12.130930509015661"><ele>302.6666666666667</ele><time>2026-04-26T08:48:10Z</time></trkpt><trkpt lat="43.48691337634857" lon="12.131159797181164"><ele>302.0</ele><time>2026-04-26T08:48:11Z</time></trkpt><trkpt lat="43.48693337866124" lon="12.131395433204847"><ele>302.0</ele><time>2026-04-26T08:48:12Z</time></trkpt><trkpt lat="43.48695396468389" lon="12.131637944866382"><ele>302.0</ele><time>2026-04-26T08:48:13Z</time></trkpt><trkpt lat="43.48698702073757" lon="12.13188169438955"><ele>302.0</ele><time>2026-04-26T08:48:14Z</time></trkpt><trkpt lat="43.48699441894524" lon="12.132135634414615"><ele>302.0</ele><time>2026-04-26T08:48:15Z</time></trkpt><trkpt lat="43.48701394040298" lon="12.132376611668024"><ele>302.0</ele><time>2026-04-26T08:48:16Z</time></trkpt><trkpt lat="43.48703400374635" lon="12.132624278083961"><ele>302.0</ele><time>2026-04-26T08:48:17Z</time></trkpt><trkpt lat="43.487054002839294" lon="12.132871151446759"><ele>301.33333333333337</ele><time>2026-04-26T08:48:18Z</time></trkpt><trkpt lat="43.48707367859706" lon="12.133114033288033"><ele>300.6666666666667</ele><time>2026-04-26T08:48:19Z</time></trkpt><trkpt lat="43.487118650194866" lon="12.133349701861864"><ele>300.0</ele><time>2026-04-26T08:48:20Z</time></trkpt><trkpt lat="43.48713698298151" lon="12.133591866625556"><ele>303.0</ele><time>2026-04-26T08:48:21Z</time></trkpt><trkpt lat="43.4871535575381" lon="12.133828615723106"><ele>306.0</ele><time>2026-04-26T08:48:22Z</time></trkpt><trkpt lat="43.48717401235379" lon="12.13406793082439"><ele>309.0</ele><time>2026-04-26T08:48:23Z</time></trkpt><trkpt lat="43.48717535569317" lon="12.134313521735917"><ele>309.0</ele><time>2026-04-26T08:48:24Z</time></trkpt><trkpt lat="43.487206032461145" lon="12.134559501475888"><ele>309.0</ele><time>2026-04-26T08:48:25Z</time></trkpt><trkpt lat="43.48724147363517" lon="12.134805594111743"><ele>309.0</ele><time>2026-04-26T08:48:26Z</time></trkpt><trkpt lat="43.48728380974603" lon="12.135050656203218"><ele>308.0</ele><time>2026-04-26T08:48:27Z</time></trkpt><trkpt lat="43.487341493289335" lon="12.135292049223303"><ele>307.0</ele><time>2026-04-26T08:48:28Z</time></trkpt><trkpt lat="43.487407873386516" lon="12.135526079241146"><ele>306.0</ele><time>2026-04-26T08:48:29Z</time></trkpt><trkpt lat="43.48747298952769" lon="12.135752382214964"><ele>304.3333333333333</ele><time>2026-04-26T08:48:30Z</time></trkpt><trkpt lat="43.48753629233992" lon="12.135972383227386"><ele>302.66666666666663</ele><time>2026-04-26T08:48:31Z</time></trkpt><trkpt lat="43.48760447686169" lon="12.136206113613888"><ele>301.0</ele><time>2026-04-26T08:48:32Z</time></trkpt><trkpt lat="43.487670085387876" lon="12.136430450895208"><ele>300.0</ele><time>2026-04-26T08:48:33Z</time></trkpt><trkpt lat="43.4877420194377" lon="12.136651457754962"><ele>299.0</ele><time>2026-04-26T08:48:34Z</time></trkpt><trkpt lat="43.48782589588422" lon="12.136869312626725"><ele>298.0</ele><time>2026-04-26T08:48:35Z</time></trkpt><trkpt lat="43.487924507889296" lon="12.13708191911033"><ele>298.3333333333333</ele><time>2026-04-26T08:48:36Z</time></trkpt><trkpt lat="43.4880401267369" lon="12.137268920113174"><ele>298.6666666666667</ele><time>2026-04-26T08:48:37Z</time></trkpt><trkpt lat="43.4881402522923" lon="12.137476660465351"><ele>299.0</ele><time>2026-04-26T08:48:38Z</time></trkpt><trkpt lat="43.48824973321164" lon="12.137663775448841"><ele>299.0</ele><time>2026-04-26T08:48:39Z</time></trkpt><trkpt lat="43.48835797701152" lon="12.13784494477179"><ele>299.0</ele><time>2026-04-26T08:48:40Z</time></trkpt><trkpt lat="43.48846015850047" lon="12.13800328221557"><ele>299.0</ele><time>2026-04-26T08:48:41Z</time></trkpt><trkpt lat="43.48857780617609" lon="12.138139836385497"><ele>298.6666666666667</ele><time>2026-04-26T08:48:42Z</time></trkpt><trkpt lat="43.48870536252358" lon="12.138259286285525"><ele>298.3333333333333</ele><time>2026-04-26T08:48:43Z</time></trkpt><trkpt lat="43.4888362599901" lon="12.13837569426491"><ele>298.0</ele><time>2026-04-26T08:48:44Z</time></trkpt><trkpt lat="43.488971559887005" lon="12.138494903203098"><ele>298.0</ele><time>2026-04-26T08:48:45Z</time></trkpt><trkpt lat="43.489104153781135" lon="12.138610131669935"><ele>298.0</ele><time>2026-04-26T08:48:46Z</time></trkpt><trkpt lat="43.48923849416547" lon="12.138726877190821"><ele>298.0</ele><time>2026-04-26T08:48:47Z</time></trkpt><trkpt lat="43.489373666154705" lon="12.138844346082523"><ele>298.0</ele><time>2026-04-26T08:48:48Z</time></trkpt><trkpt lat="43.48950879083015" lon="12.138961773522881"><ele>298.0</ele><time>2026-04-26T08:48:49Z</time></trkpt><trkpt lat="43.489638685231625" lon="12.139074780092221"><ele>298.0</ele><time>2026-04-26T08:48:50Z</time></trkpt><trkpt lat="43.48976779780292" lon="12.139189718591945"><ele>298.3333333333333</ele><time>2026-04-26T08:48:51Z</time></trkpt><trkpt lat="43.489896369482" lon="12.13930714783924"><ele>298.6666666666667</ele><time>2026-04-26T08:48:52Z</time></trkpt><trkpt lat="43.490026015017044" lon="12.13943121622407"><ele>299.0</ele><time>2026-04-26T08:48:53Z</time></trkpt><trkpt lat="43.49014864852692" lon="12.13956389159866"><ele>299.0</ele><time>2026-04-26T08:48:54Z</time></trkpt><trkpt lat="43.490270040578494" lon="12.139710727086648"><ele>299.0</ele><time>2026-04-26T08:48:55Z</time></trkpt><trkpt lat="43.49038517579538" lon="12.139868589845994"><ele>299.0</ele><time>2026-04-26T08:48:56Z</time></trkpt><trkpt lat="43.49049806183065" lon="12.140033463680911"><ele>302.0</ele><time>2026-04-26T08:48:57Z</time></trkpt><trkpt lat="43.49060244381751" lon="12.140204388501845"><ele>305.0</ele><time>2026-04-26T08:48:58Z</time></trkpt><trkpt lat="43.490699904362984" lon="12.140376005031928"><ele>308.0</ele><time>2026-04-26T08:48:59Z</time></trkpt><trkpt lat="43.49078940781359" lon="12.14054565337254"><ele>305.33333333333337</ele><time>2026-04-26T08:49:00Z</time></trkpt><trkpt lat="43.4908619143753" lon="12.140723481677599"><ele>302.6666666666667</ele><time>2026-04-26T08:49:01Z</time></trkpt><trkpt lat="43.490920743499046" lon="12.140905903554465"><ele>300.0</ele><time>2026-04-26T08:49:02Z</time></trkpt><trkpt lat="43.4909407900323" lon="12.141124932556865"><ele>300.0</ele><time>2026-04-26T08:49:03Z</time></trkpt><trkpt lat="43.49092346407972" lon="12.141346153818988"><ele>300.0</ele><time>2026-04-26T08:49:04Z</time></trkpt><trkpt lat="43.49086063159046" lon="12.14155559658039"><ele>300.0</ele><time>2026-04-26T08:49:05Z</time></trkpt><trkpt lat="43.49078924147097" lon="12.14176124408802"><ele>299.0</ele><time>2026-04-26T08:49:06Z</time></trkpt><trkpt lat="43.49072448628205" lon="12.141993661658656"><ele>298.0</ele><time>2026-04-26T08:49:07Z</time></trkpt><trkpt lat="43.49062927089048" lon="12.14221511578879"><ele>297.0</ele><time>2026-04-26T08:49:08Z</time></trkpt><trkpt lat="43.49054457035748" lon="12.142450356290505"><ele>297.0</ele><time>2026-04-26T08:49:09Z</time></trkpt><trkpt lat="43.490476694368844" lon="12.142693296373682"><ele>297.0</ele><time>2026-04-26T08:49:10Z</time></trkpt><trkpt lat="43.490390732925384" lon="12.14292715496496"><ele>297.0</ele><time>2026-04-26T08:49:11Z</time></trkpt><trkpt lat="43.49030948378302" lon="12.143162429500983"><ele>295.6666666666667</ele><time>2026-04-26T08:49:12Z</time></trkpt><trkpt lat="43.490215945045584" lon="12.143380333574358"><ele>294.33333333333337</ele><time>2026-04-26T08:49:13Z</time></trkpt><trkpt lat="43.490135127755075" lon="12.143609156797972"><ele>293.0</ele><time>2026-04-26T08:49:14Z</time></trkpt><trkpt lat="43.49006029196104" lon="12.143848995106277"><ele>294.0</ele><time>2026-04-26T08:49:15Z</time></trkpt><trkpt lat="43.48997453646173" lon="12.144081164276015"><ele>295.0</ele><time>2026-04-26T08:49:16Z</time></trkpt><trkpt lat="43.48989647452109" lon="12.144311230863527"><ele>296.0</ele><time>2026-04-26T08:49:17Z</time></trkpt><trkpt lat="43.489817822953796" lon="12.144542076978553"><ele>296.0</ele><time>2026-04-26T08:49:18Z</time></trkpt><trkpt lat="43.489733829817595" lon="12.144764373576608"><ele>296.0</ele><time>2026-04-26T08:49:19Z</time></trkpt><trkpt lat="43.48964332522742" lon="12.14497605580247"><ele>296.0</ele><time>2026-04-26T08:49:20Z</time></trkpt><trkpt lat="43.489550760866116" lon="12.14517520533129"><ele>296.0</ele><time>2026-04-26T08:49:21Z</time></trkpt><trkpt lat="43.48945631480267" lon="12.145372551336187"><ele>296.0</ele><time>2026-04-26T08:49:22Z</time></trkpt><trkpt lat="43.48935794237279" lon="12.145557337391493"><ele>296.0</ele><time>2026-04-26T08:49:23Z</time></trkpt><trkpt lat="43.48926496022805" lon="12.145746620887968"><ele>297.0</ele><time>2026-04-26T08:49:24Z</time></trkpt><trkpt lat="43.48917251901791" lon="12.145925627327314"><ele>298.0</ele><time>2026-04-26T08:49:25Z</time></trkpt><trkpt lat="43.489092944126334" lon="12.146093890689068"><ele>299.0</ele><time>2026-04-26T08:49:26Z</time></trkpt><trkpt lat="43.48903494755224" lon="12.14626630836769"><ele>300.0</ele><time>2026-04-26T08:49:27Z</time></trkpt><trkpt lat="43.48899751676757" lon="12.146460847522544"><ele>300.6666666666667</ele><time>2026-04-26T08:49:28Z</time></trkpt><trkpt lat="43.489028756593356" lon="12.146671740005035"><ele>301.33333333333337</ele><time>2026-04-26T08:49:29Z</time></trkpt><trkpt lat="43.48910017853642" lon="12.146868934770225"><ele>302.0</ele><time>2026-04-26T08:49:30Z</time></trkpt><trkpt lat="43.4891829851697" lon="12.14706225039868"><ele>302.0</ele><time>2026-04-26T08:49:31Z</time></trkpt><trkpt lat="43.489264288878154" lon="12.14724729232251"><ele>302.0</ele><time>2026-04-26T08:49:32Z</time></trkpt><trkpt lat="43.48934665952786" lon="12.147435159990446"><ele>302.0</ele><time>2026-04-26T08:49:33Z</time></trkpt><trkpt lat="43.48943135333839" lon="12.147630714031289"><ele>301.0</ele><time>2026-04-26T08:49:34Z</time></trkpt><trkpt lat="43.48951647079555" lon="12.147827631399798"><ele>300.0</ele><time>2026-04-26T08:49:35Z</time></trkpt><trkpt lat="43.48959632016656" lon="12.148026401647945"><ele>299.0</ele><time>2026-04-26T08:49:36Z</time></trkpt><trkpt lat="43.48968493250657" lon="12.14822685459022"><ele>304.6666666666667</ele><time>2026-04-26T08:49:37Z</time></trkpt><trkpt lat="43.489733732689565" lon="12.14844893975259"><ele>310.3333333333333</ele><time>2026-04-26T08:49:38Z</time></trkpt><trkpt lat="43.4897889532869" lon="12.148666953792969"><ele>316.0</ele><time>2026-04-26T08:49:39Z</time></trkpt><trkpt lat="43.48985227970903" lon="12.148898487045246"><ele>313.66666666666663</ele><time>2026-04-26T08:49:40Z</time></trkpt><trkpt lat="43.48988935011035" lon="12.149148978346803"><ele>311.3333333333333</ele><time>2026-04-26T08:49:41Z</time></trkpt><trkpt lat="43.48991935423094" lon="12.149407858769809"><ele>309.0</ele><time>2026-04-26T08:49:42Z</time></trkpt><trkpt lat="43.48994024983037" lon="12.149657223502295"><ele>306.0</ele><time>2026-04-26T08:49:43Z</time></trkpt><trkpt lat="43.489965288167845" lon="12.149903833927038"><ele>303.0</ele><time>2026-04-26T08:49:44Z</time></trkpt><trkpt lat="43.48998249874174" lon="12.150154716563408"><ele>300.0</ele><time>2026-04-26T08:49:45Z</time></trkpt><trkpt lat="43.490028674834385" lon="12.150394024105829"><ele>300.0</ele><time>2026-04-26T08:49:46Z</time></trkpt><trkpt lat="43.49006883453727" lon="12.150631701522395"><ele>300.0</ele><time>2026-04-26T08:49:47Z</time></trkpt><trkpt lat="43.490112113777606" lon="12.15084950731256"><ele>300.0</ele><time>2026-04-26T08:49:48Z</time></trkpt><trkpt lat="43.49015770441092" lon="12.151061809179083"><ele>298.6666666666667</ele><time>2026-04-26T08:49:49Z</time></trkpt><trkpt lat="43.49020970044205" lon="12.151268479971314"><ele>297.33333333333337</ele><time>2026-04-26T08:49:50Z</time></trkpt><trkpt lat="43.490249248418706" lon="12.151478122948662"><ele>296.0</ele><time>2026-04-26T08:49:51Z</time></trkpt><trkpt lat="43.490307195447905" lon="12.151669544988957"><ele>296.0</ele><time>2026-04-26T08:49:52Z</time></trkpt><trkpt lat="43.49036283238986" lon="12.151842813499767"><ele>296.0</ele><time>2026-04-26T08:49:53Z</time></trkpt><trkpt lat="43.49041518264211" lon="12.152002759185738"><ele>296.0</ele><time>2026-04-26T08:49:54Z</time></trkpt><trkpt lat="43.490466396804415" lon="12.15215923327759"><ele>296.0</ele><time>2026-04-26T08:49:55Z</time></trkpt><trkpt lat="43.490518911710204" lon="12.152319974195837"><ele>297.75</ele><time>2026-04-26T08:49:56Z</time></trkpt><trkpt lat="43.490571908893216" lon="12.15248246423888"><ele>299.5</ele><time>2026-04-26T08:49:57Z</time></trkpt><trkpt lat="43.49062404409427" lon="12.152647319362506"><ele>301.25</ele><time>2026-04-26T08:49:58Z</time></trkpt><trkpt lat="43.49067755042748" lon="12.152816658275842"><ele>303.0</ele><time>2026-04-26T08:49:59Z</time></trkpt><trkpt lat="43.49075169971034" lon="12.152978664794759"><ele>303.0</ele><time>2026-04-26T08:50:00Z</time></trkpt><trkpt lat="43.49080761783184" lon="12.153153900765282"><ele>303.0</ele><time>2026-04-26T08:50:01Z</time></trkpt><trkpt lat="43.490864137015436" lon="12.153331738413462"><ele>303.0</ele><time>2026-04-26T08:50:02Z</time></trkpt><trkpt lat="43.49091783879336" lon="12.153510451897459"><ele>303.0</ele><time>2026-04-26T08:50:03Z</time></trkpt><trkpt lat="43.4909716226989" lon="12.153690113782991"><ele>302.75</ele><time>2026-04-26T08:50:04Z</time></trkpt><trkpt lat="43.4910088079198" lon="12.15387594954069"><ele>302.5</ele><time>2026-04-26T08:50:05Z</time></trkpt><trkpt lat="43.49106013009011" lon="12.154047871632093"><ele>302.25</ele><time>2026-04-26T08:50:06Z</time></trkpt><trkpt lat="43.49110945697536" lon="12.154214126207357"><ele>302.0</ele><time>2026-04-26T08:50:07Z</time></trkpt><trkpt lat="43.49115896091915" lon="12.15437162030124"><ele>301.75</ele><time>2026-04-26T08:50:08Z</time></trkpt><trkpt lat="43.49119745009728" lon="12.154536358183245"><ele>301.5</ele><time>2026-04-26T08:50:09Z</time></trkpt><trkpt lat="43.49124077629806" lon="12.154701858308655"><ele>301.25</ele><time>2026-04-26T08:50:10Z</time></trkpt><trkpt lat="43.491274860734855" lon="12.154876771684625"><ele>301.0</ele><time>2026-04-26T08:50:11Z</time></trkpt><trkpt lat="43.49130102825975" lon="12.15504368894925"><ele>301.75</ele><time>2026-04-26T08:50:12Z</time></trkpt><trkpt lat="43.49131244078428" lon="12.155209560492528"><ele>302.5</ele><time>2026-04-26T08:50:13Z</time></trkpt><trkpt lat="43.491325123981504" lon="12.155380317770245"><ele>303.25</ele><time>2026-04-26T08:50:14Z</time></trkpt><trkpt lat="43.49134548216995" lon="12.15555389304717"><ele>304.0</ele><time>2026-04-26T08:50:15Z</time></trkpt><trkpt lat="43.49136547448773" lon="12.15573441661148"><ele>302.25</ele><time>2026-04-26T08:50:16Z</time></trkpt><trkpt lat="43.49138719058398" lon="12.155915869773096"><ele>300.5</ele><time>2026-04-26T08:50:17Z</time></trkpt><trkpt lat="43.49140638469729" lon="12.156104817750556"><ele>298.75</ele><time>2026-04-26T08:50:18Z</time></trkpt><trkpt lat="43.49142868964121" lon="12.156299979311752"><ele>297.0</ele><time>2026-04-26T08:50:19Z</time></trkpt><trkpt lat="43.49145109200012" lon="12.15649426993866"><ele>296.75</ele><time>2026-04-26T08:50:20Z</time></trkpt><trkpt lat="43.491457916474126" lon="12.156690185064727"><ele>296.5</ele><time>2026-04-26T08:50:21Z</time></trkpt><trkpt lat="43.491484643024386" lon="12.156883626658587"><ele>296.25</ele><time>2026-04-26T08:50:22Z</time></trkpt><trkpt lat="43.49151962030065" lon="12.15709566841861"><ele>296.0</ele><time>2026-04-26T08:50:23Z</time></trkpt><trkpt lat="43.491563284998875" lon="12.157321202132929"><ele>295.6666666666667</ele><time>2026-04-26T08:50:24Z</time></trkpt><trkpt lat="43.49161850281057" lon="12.157561697466628"><ele>295.3333333333333</ele><time>2026-04-26T08:50:25Z</time></trkpt><trkpt lat="43.49167777149337" lon="12.157807207568787"><ele>295.0</ele><time>2026-04-26T08:50:26Z</time></trkpt><trkpt lat="43.49174034828738" lon="12.158066421189492"><ele>294.3333333333333</ele><time>2026-04-26T08:50:27Z</time></trkpt><trkpt lat="43.49180412642983" lon="12.158330610969843"><ele>293.6666666666667</ele><time>2026-04-26T08:50:28Z</time></trkpt><trkpt lat="43.491868921126425" lon="12.158598635192995"><ele>293.0</ele><time>2026-04-26T08:50:29Z</time></trkpt><trkpt lat="43.49194554425541" lon="12.158843528747642"><ele>292.6666666666667</ele><time>2026-04-26T08:50:30Z</time></trkpt><trkpt lat="43.491985972112445" lon="12.159079423405483"><ele>292.3333333333333</ele><time>2026-04-26T08:50:31Z</time></trkpt><trkpt lat="43.492039275022854" lon="12.159298296780639"><ele>292.0</ele><time>2026-04-26T08:50:32Z</time></trkpt><trkpt lat="43.49208997857649" lon="12.15950649648568"><ele>292.0</ele><time>2026-04-26T08:50:33Z</time></trkpt><trkpt lat="43.49213691837126" lon="12.159699000195403"><ele>292.0</ele><time>2026-04-26T08:50:34Z</time></trkpt><trkpt lat="43.49218071368449" lon="12.159878487913518"><ele>292.0</ele><time>2026-04-26T08:50:35Z</time></trkpt><trkpt lat="43.49222514612759" lon="12.160060263228727"><ele>292.0</ele><time>2026-04-26T08:50:36Z</time></trkpt><trkpt lat="43.492270583669395" lon="12.160244849682128"><ele>292.0</ele><time>2026-04-26T08:50:37Z</time></trkpt><trkpt lat="43.492319216224985" lon="12.160447262677108"><ele>292.0</ele><time>2026-04-26T08:50:38Z</time></trkpt><trkpt lat="43.49236241379679" lon="12.160628570416014"><ele>292.0</ele><time>2026-04-26T08:50:39Z</time></trkpt><trkpt lat="43.4924056029165" lon="12.16080658774923"><ele>292.0</ele><time>2026-04-26T08:50:40Z</time></trkpt><trkpt lat="43.49244912940046" lon="12.160981793801966"><ele>293.0</ele><time>2026-04-26T08:50:41Z</time></trkpt><trkpt lat="43.4924886996663" lon="12.161159405974214"><ele>294.0</ele><time>2026-04-26T08:50:42Z</time></trkpt><trkpt lat="43.49252412376965" lon="12.161333658938254"><ele>295.0</ele><time>2026-04-26T08:50:43Z</time></trkpt><trkpt lat="43.492534373465695" lon="12.161512335794331"><ele>296.0</ele><time>2026-04-26T08:50:44Z</time></trkpt><trkpt lat="43.492521197507436" lon="12.161690669637698"><ele>296.25</ele><time>2026-04-26T08:50:45Z</time></trkpt><trkpt lat="43.49249524009098" lon="12.16187710327556"><ele>296.5</ele><time>2026-04-26T08:50:46Z</time></trkpt><trkpt lat="43.49245133953573" lon="12.162061147851784"><ele>296.75</ele><time>2026-04-26T08:50:47Z</time></trkpt><trkpt lat="43.492403055723166" lon="12.162242186255579"><ele>297.0</ele><time>2026-04-26T08:50:48Z</time></trkpt><trkpt lat="43.4923499763984" lon="12.162429484580203"><ele>297.0</ele><time>2026-04-26T08:50:49Z</time></trkpt><trkpt lat="43.492297222499886" lon="12.162613986142423"><ele>297.0</ele><time>2026-04-26T08:50:50Z</time></trkpt><trkpt lat="43.492239223819034" lon="12.162797991920192"><ele>297.0</ele><time>2026-04-26T08:50:51Z</time></trkpt><trkpt lat="43.4921773191752" lon="12.162986345097389"><ele>297.0</ele><time>2026-04-26T08:50:52Z</time></trkpt><trkpt lat="43.49211605958862" lon="12.163172335684893"><ele>300.25</ele><time>2026-04-26T08:50:53Z</time></trkpt><trkpt lat="43.49205166701733" lon="12.163354656651176"><ele>303.5</ele><time>2026-04-26T08:50:54Z</time></trkpt><trkpt lat="43.49198248693219" lon="12.163530600106768"><ele>306.75</ele><time>2026-04-26T08:50:55Z</time></trkpt><trkpt lat="43.49191447941027" lon="12.163705691845712"><ele>310.0</ele><time>2026-04-26T08:50:56Z</time></trkpt><trkpt lat="43.49185471005441" lon="12.163885100641739"><ele>308.0</ele><time>2026-04-26T08:50:57Z</time></trkpt><trkpt lat="43.491793717484235" lon="12.164067277399816"><ele>306.0</ele><time>2026-04-26T08:50:58Z</time></trkpt><trkpt lat="43.491717885955644" lon="12.164247310694325"><ele>304.0</ele><time>2026-04-26T08:50:59Z</time></trkpt><trkpt lat="43.49163143740849" lon="12.164421898626449"><ele>304.0</ele><time>2026-04-26T08:51:00Z</time></trkpt><trkpt lat="43.49154176811178" lon="12.164601419775964"><ele>304.0</ele><time>2026-04-26T08:51:01Z</time></trkpt><trkpt lat="43.49145303807256" lon="12.164785861137863"><ele>304.0</ele><time>2026-04-26T08:51:02Z</time></trkpt><trkpt lat="43.49136639796421" lon="12.164969655836796"><ele>302.25</ele><time>2026-04-26T08:51:03Z</time></trkpt><trkpt lat="43.491291927284" lon="12.165150261387584"><ele>300.5</ele><time>2026-04-26T08:51:04Z</time></trkpt><trkpt lat="43.49122959423391" lon="12.16532647387783"><ele>298.75</ele><time>2026-04-26T08:51:05Z</time></trkpt><trkpt lat="43.491187377693585" lon="12.165496383057508"><ele>297.0</ele><time>2026-04-26T08:51:06Z</time></trkpt><trkpt lat="43.491142291900715" lon="12.165662141110442"><ele>300.25</ele><time>2026-04-26T08:51:07Z</time></trkpt><trkpt lat="43.491131910710344" lon="12.165854669511752"><ele>303.5</ele><time>2026-04-26T08:51:08Z</time></trkpt><trkpt lat="43.491158287586856" lon="12.166027532660488"><ele>306.75</ele><time>2026-04-26T08:51:09Z</time></trkpt><trkpt lat="43.491166507499244" lon="12.166210982729096"><ele>310.0</ele><time>2026-04-26T08:51:10Z</time></trkpt><trkpt lat="43.491179202238555" lon="12.166391492499706"><ele>309.5</ele><time>2026-04-26T08:51:11Z</time></trkpt><trkpt lat="43.491179791520125" lon="12.16657223992322"><ele>309.0</ele><time>2026-04-26T08:51:12Z</time></trkpt><trkpt lat="43.49115733119869" lon="12.166761265144315"><ele>308.5</ele><time>2026-04-26T08:51:13Z</time></trkpt><trkpt lat="43.49112268901071" lon="12.166981731739106"><ele>308.0</ele><time>2026-04-26T08:51:14Z</time></trkpt><trkpt lat="43.49107819174364" lon="12.16723177241345"><ele>306.0</ele><time>2026-04-26T08:51:15Z</time></trkpt><trkpt lat="43.4910285695891" lon="12.167505734435915"><ele>304.0</ele><time>2026-04-26T08:51:16Z</time></trkpt><trkpt lat="43.4909762757564" lon="12.167794446626834"><ele>302.0</ele><time>2026-04-26T08:51:17Z</time></trkpt><trkpt lat="43.490922068156976" lon="12.168093725047028"><ele>300.5</ele><time>2026-04-26T08:51:18Z</time></trkpt><trkpt lat="43.49086605079946" lon="12.16840299487804"><ele>299.0</ele><time>2026-04-26T08:51:19Z</time></trkpt><trkpt lat="43.490824376119384" lon="12.16871318179967"><ele>299.0</ele><time>2026-04-26T08:51:20Z</time></trkpt><trkpt lat="43.490768067337186" lon="12.16901254203803"><ele>299.0</ele><time>2026-04-26T08:51:21Z</time></trkpt><trkpt lat="43.49071599522173" lon="12.169304194707836"><ele>299.0</ele><time>2026-04-26T08:51:22Z</time></trkpt><trkpt lat="43.490661904862634" lon="12.169587237848797"><ele>298.0</ele><time>2026-04-26T08:51:23Z</time></trkpt><trkpt lat="43.49059839408741" lon="12.169856497708587"><ele>297.0</ele><time>2026-04-26T08:51:24Z</time></trkpt><trkpt lat="43.490554497081575" lon="12.170123695230238"><ele>296.0</ele><time>2026-04-26T08:51:25Z</time></trkpt><trkpt lat="43.490470708325134" lon="12.170381049924556"><ele>296.33333333333337</ele><time>2026-04-26T08:51:26Z</time></trkpt><trkpt lat="43.490379708211755" lon="12.17062702096004"><ele>296.6666666666667</ele><time>2026-04-26T08:51:27Z</time></trkpt><trkpt lat="43.49028109701569" lon="12.170869676303045"><ele>297.0</ele><time>2026-04-26T08:51:28Z</time></trkpt><trkpt lat="43.49017650188583" lon="12.171115759998493"><ele>297.0</ele><time>2026-04-26T08:51:29Z</time></trkpt><trkpt lat="43.49006990962124" lon="12.17135981374501"><ele>297.0</ele><time>2026-04-26T08:51:30Z</time></trkpt><trkpt lat="43.489954213255984" lon="12.17159647135259"><ele>297.0</ele><time>2026-04-26T08:51:31Z</time></trkpt><trkpt lat="43.489820534937124" lon="12.171822403918245"><ele>298.0</ele><time>2026-04-26T08:51:32Z</time></trkpt><trkpt lat="43.48967594326806" lon="12.1720420825529"><ele>299.0</ele><time>2026-04-26T08:51:33Z</time></trkpt><trkpt lat="43.489537429721004" lon="12.172265738031397"><ele>300.0</ele><time>2026-04-26T08:51:34Z</time></trkpt><trkpt lat="43.489387625564454" lon="12.17248861209759"><ele>297.3333333333333</ele><time>2026-04-26T08:51:35Z</time></trkpt><trkpt lat="43.48924240346235" lon="12.172709448746259"><ele>294.66666666666663</ele><time>2026-04-26T08:51:36Z</time></trkpt><trkpt lat="43.48909739225132" lon="12.172925995744396"><ele>292.0</ele><time>2026-04-26T08:51:37Z</time></trkpt><trkpt lat="43.488958612752114" lon="12.173138220874167"><ele>290.66666666666663</ele><time>2026-04-26T08:51:38Z</time></trkpt><trkpt lat="43.48881934785169" lon="12.173349689822574"><ele>289.3333333333333</ele><time>2026-04-26T08:51:39Z</time></trkpt><trkpt lat="43.48868300426153" lon="12.17356136323841"><ele>288.0</ele><time>2026-04-26T08:51:40Z</time></trkpt><trkpt lat="43.48855179575774" lon="12.173765730431606"><ele>289.6666666666667</ele><time>2026-04-26T08:51:41Z</time></trkpt><trkpt lat="43.48842615097608" lon="12.173964431890457"><ele>291.33333333333337</ele><time>2026-04-26T08:51:42Z</time></trkpt><trkpt lat="43.488294787333146" lon="12.174157483740524"><ele>293.0</ele><time>2026-04-26T08:51:43Z</time></trkpt><trkpt lat="43.48815677368078" lon="12.174341888145744"><ele>293.0</ele><time>2026-04-26T08:51:44Z</time></trkpt><trkpt lat="43.488020068546255" lon="12.174528835304772"><ele>293.0</ele><time>2026-04-26T08:51:45Z</time></trkpt><trkpt lat="43.487879945771866" lon="12.174717607056124"><ele>293.0</ele><time>2026-04-26T08:51:46Z</time></trkpt><trkpt lat="43.48773852160451" lon="12.174902609937462"><ele>293.6666666666667</ele><time>2026-04-26T08:51:47Z</time></trkpt><trkpt lat="43.48759713770316" lon="12.175088996426773"><ele>294.3333333333333</ele><time>2026-04-26T08:51:48Z</time></trkpt><trkpt lat="43.48745543516412" lon="12.175272683060621"><ele>295.0</ele><time>2026-04-26T08:51:49Z</time></trkpt><trkpt lat="43.48731474928841" lon="12.175461360376115"><ele>295.0</ele><time>2026-04-26T08:51:50Z</time></trkpt><trkpt lat="43.48717253391598" lon="12.175645456736195"><ele>295.0</ele><time>2026-04-26T08:51:51Z</time></trkpt><trkpt lat="43.48702814029219" lon="12.175832877275491"><ele>295.0</ele><time>2026-04-26T08:51:52Z</time></trkpt><trkpt lat="43.48688420713234" lon="12.176019402839758"><ele>295.0</ele><time>2026-04-26T08:51:53Z</time></trkpt><trkpt lat="43.4867417108497" lon="12.176207547408085"><ele>295.0</ele><time>2026-04-26T08:51:54Z</time></trkpt><trkpt lat="43.48659848111808" lon="12.176395710424265"><ele>295.0</ele><time>2026-04-26T08:51:55Z</time></trkpt><trkpt lat="43.48645569887017" lon="12.176588782480174"><ele>296.0</ele><time>2026-04-26T08:51:56Z</time></trkpt><trkpt lat="43.48631068956892" lon="12.176771700718666"><ele>297.0</ele><time>2026-04-26T08:51:57Z</time></trkpt><trkpt lat="43.48616999178596" lon="12.17694773749704"><ele>298.0</ele><time>2026-04-26T08:51:58Z</time></trkpt><trkpt lat="43.486037508475086" lon="12.177119124334865"><ele>298.0</ele><time>2026-04-26T08:51:59Z</time></trkpt><trkpt lat="43.485911371295295" lon="12.177282022879517"><ele>298.0</ele><time>2026-04-26T08:52:00Z</time></trkpt><trkpt lat="43.48578711822823" lon="12.177440957077"><ele>298.0</ele><time>2026-04-26T08:52:01Z</time></trkpt><trkpt lat="43.485664544089175" lon="12.17759618048704"><ele>298.3333333333333</ele><time>2026-04-26T08:52:02Z</time></trkpt><trkpt lat="43.48553788954004" lon="12.177748249647792"><ele>298.6666666666667</ele><time>2026-04-26T08:52:03Z</time></trkpt><trkpt lat="43.48540268640273" lon="12.17788923656038"><ele>299.0</ele><time>2026-04-26T08:52:04Z</time></trkpt><trkpt lat="43.48527287549864" lon="12.178026711143236"><ele>299.0</ele><time>2026-04-26T08:52:05Z</time></trkpt><trkpt lat="43.485139063897414" lon="12.178175042195338"><ele>299.0</ele><time>2026-04-26T08:52:06Z</time></trkpt><trkpt lat="43.48500496075793" lon="12.178320634399505"><ele>299.0</ele><time>2026-04-26T08:52:07Z</time></trkpt><trkpt lat="43.48486434079305" lon="12.178459419132583"><ele>298.33333333333337</ele><time>2026-04-26T08:52:08Z</time></trkpt><trkpt lat="43.48471913121242" lon="12.178604235975302"><ele>297.6666666666667</ele><time>2026-04-26T08:52:09Z</time></trkpt><trkpt lat="43.484571841194295" lon="12.178740876727359"><ele>297.0</ele><time>2026-04-26T08:52:10Z</time></trkpt><trkpt lat="43.484425633958246" lon="12.178871371722177"><ele>297.0</ele><time>2026-04-26T08:52:11Z</time></trkpt><trkpt lat="43.484274441046445" lon="12.178991601070912"><ele>297.0</ele><time>2026-04-26T08:52:12Z</time></trkpt><trkpt lat="43.48412310176457" lon="12.179118795963415"><ele>297.0</ele><time>2026-04-26T08:52:13Z</time></trkpt><trkpt lat="43.483971754184374" lon="12.179248861529267"><ele>298.0</ele><time>2026-04-26T08:52:14Z</time></trkpt><trkpt lat="43.48382222060482" lon="12.179379732803753"><ele>299.0</ele><time>2026-04-26T08:52:15Z</time></trkpt><trkpt lat="43.4836768673788" lon="12.17951795411668"><ele>300.0</ele><time>2026-04-26T08:52:16Z</time></trkpt><trkpt lat="43.48354179332426" lon="12.179672579344022"><ele>300.0</ele><time>2026-04-26T08:52:17Z</time></trkpt><trkpt lat="43.48341839940278" lon="12.179843709047898"><ele>300.0</ele><time>2026-04-26T08:52:18Z</time></trkpt><trkpt lat="43.48329635151521" lon="12.179993433021853"><ele>300.0</ele><time>2026-04-26T08:52:19Z</time></trkpt><trkpt lat="43.48317816736737" lon="12.180170067549048"><ele>298.0</ele><time>2026-04-26T08:52:20Z</time></trkpt><trkpt lat="43.48305993521113" lon="12.180356394545175"><ele>296.0</ele><time>2026-04-26T08:52:21Z</time></trkpt><trkpt lat="43.482953660686725" lon="12.180547354507032"><ele>294.0</ele><time>2026-04-26T08:52:22Z</time></trkpt><trkpt lat="43.48286641561166" lon="12.18074939919464"><ele>294.0</ele><time>2026-04-26T08:52:23Z</time></trkpt><trkpt lat="43.48280456279958" lon="12.180959475914804"><ele>294.0</ele><time>2026-04-26T08:52:24Z</time></trkpt><trkpt lat="43.48275367127188" lon="12.181187101411679"><ele>294.0</ele><time>2026-04-26T08:52:25Z</time></trkpt><trkpt lat="43.48271929267243" lon="12.18142115997912"><ele>292.6666666666667</ele><time>2026-04-26T08:52:26Z</time></trkpt><trkpt lat="43.48267303184058" lon="12.181647798717592"><ele>291.33333333333337</ele><time>2026-04-26T08:52:27Z</time></trkpt><trkpt lat="43.482610181628026" lon="12.181879753148158"><ele>290.0</ele><time>2026-04-26T08:52:28Z</time></trkpt><trkpt lat="43.48256204347538" lon="12.182124782665527"><ele>289.33333333333337</ele><time>2026-04-26T08:52:29Z</time></trkpt><trkpt lat="43.48251754516641" lon="12.182353826249928"><ele>288.6666666666667</ele><time>2026-04-26T08:52:30Z</time></trkpt><trkpt lat="43.48247157893225" lon="12.182596788158486"><ele>288.0</ele><time>2026-04-26T08:52:31Z</time></trkpt><trkpt lat="43.48242446990698" lon="12.182844816152103"><ele>288.0</ele><time>2026-04-26T08:52:32Z</time></trkpt><trkpt lat="43.48237866580487" lon="12.183085974012638"><ele>288.0</ele><time>2026-04-26T08:52:33Z</time></trkpt><trkpt lat="43.48233347246372" lon="12.183323916355771"><ele>288.0</ele><time>2026-04-26T08:52:34Z</time></trkpt><trkpt lat="43.482288576298394" lon="12.183559752455459"><ele>287.3333333333333</ele><time>2026-04-26T08:52:35Z</time></trkpt><trkpt lat="43.48224403584178" lon="12.183792661988042"><ele>286.66666666666663</ele><time>2026-04-26T08:52:36Z</time></trkpt><trkpt lat="43.482200743874515" lon="12.184020364625745"><ele>286.0</ele><time>2026-04-26T08:52:37Z</time></trkpt><trkpt lat="43.48216015040824" lon="12.184234135204038"><ele>286.25</ele><time>2026-04-26T08:52:38Z</time></trkpt><trkpt lat="43.48212126926277" lon="12.184438888952071"><ele>286.5</ele><time>2026-04-26T08:52:39Z</time></trkpt><trkpt lat="43.48208414222251" lon="12.184634405357276"><ele>286.75</ele><time>2026-04-26T08:52:40Z</time></trkpt><trkpt lat="43.48204857207318" lon="12.184822811400936"><ele>287.0</ele><time>2026-04-26T08:52:41Z</time></trkpt><trkpt lat="43.48202966476523" lon="12.185007155656722"><ele>287.0</ele><time>2026-04-26T08:52:42Z</time></trkpt><trkpt lat="43.481997567806175" lon="12.185174482485275"><ele>287.0</ele><time>2026-04-26T08:52:43Z</time></trkpt><trkpt lat="43.48196891587521" lon="12.185303729719397"><ele>287.0</ele><time>2026-04-26T08:52:44Z</time></trkpt><trkpt lat="43.48194832435416" lon="12.185403937111168"><ele>287.0</ele><time>2026-04-26T08:52:45Z</time></trkpt><trkpt lat="43.481926837084224" lon="12.18550864368968"><ele>287.0</ele><time>2026-04-26T08:52:47Z</time></trkpt><trkpt lat="43.48190703541512" lon="12.185618823166642"><ele>287.2</ele><time>2026-04-26T08:52:49Z</time></trkpt><trkpt lat="43.48186633954278" lon="12.18578103056463"><ele>287.4</ele><time>2026-04-26T08:52:51Z</time></trkpt><trkpt lat="43.481829326950866" lon="12.185875003133294"><ele>287.6</ele><time>2026-04-26T08:52:52Z</time></trkpt><trkpt lat="43.4817885320895" lon="12.18597490685179"><ele>287.8</ele><time>2026-04-26T08:52:53Z</time></trkpt><trkpt lat="43.4817447982831" lon="12.186078573187574"><ele>288.0</ele><time>2026-04-26T08:52:54Z</time></trkpt><trkpt lat="43.481683423465334" lon="12.18618140010083"><ele>288.0</ele><time>2026-04-26T08:52:55Z</time></trkpt><trkpt lat="43.48162723973653" lon="12.186307980209943"><ele>288.0</ele><time>2026-04-26T08:52:56Z</time></trkpt><trkpt lat="43.4815658052784" lon="12.18644706638911"><ele>288.0</ele><time>2026-04-26T08:52:57Z</time></trkpt><trkpt lat="43.48149767042595" lon="12.186601322301696"><ele>288.0</ele><time>2026-04-26T08:52:58Z</time></trkpt><trkpt lat="43.481429165177545" lon="12.186755812673589"><ele>287.75</ele><time>2026-04-26T08:52:59Z</time></trkpt><trkpt lat="43.4813560522863" lon="12.186919133296701"><ele>287.5</ele><time>2026-04-26T08:53:00Z</time></trkpt><trkpt lat="43.481279937616065" lon="12.18708915906771"><ele>287.25</ele><time>2026-04-26T08:53:01Z</time></trkpt><trkpt lat="43.4811985889402" lon="12.187270876222714"><ele>287.0</ele><time>2026-04-26T08:53:02Z</time></trkpt><trkpt lat="43.4811270462335" lon="12.187472612770492"><ele>286.33333333333337</ele><time>2026-04-26T08:53:03Z</time></trkpt><trkpt lat="43.481032322566435" lon="12.187670528497083"><ele>285.6666666666667</ele><time>2026-04-26T08:53:04Z</time></trkpt><trkpt lat="43.48094401687037" lon="12.187865426978082"><ele>285.0</ele><time>2026-04-26T08:53:05Z</time></trkpt><trkpt lat="43.48086328658153" lon="12.188050360934772"><ele>285.0</ele><time>2026-04-26T08:53:06Z</time></trkpt><trkpt lat="43.48078333167988" lon="12.188238369840407"><ele>285.0</ele><time>2026-04-26T08:53:07Z</time></trkpt><trkpt lat="43.480685548126665" lon="12.18841691283877"><ele>285.0</ele><time>2026-04-26T08:53:08Z</time></trkpt><trkpt lat="43.48059688362919" lon="12.188614974165784"><ele>285.0</ele><time>2026-04-26T08:53:09Z</time></trkpt><trkpt lat="43.48050951724744" lon="12.188807978408194"><ele>285.0</ele><time>2026-04-26T08:53:10Z</time></trkpt><trkpt lat="43.48041719184142" lon="12.18901227962705"><ele>285.0</ele><time>2026-04-26T08:53:11Z</time></trkpt><trkpt lat="43.4803279223373" lon="12.189209818632404"><ele>287.0</ele><time>2026-04-26T08:53:12Z</time></trkpt><trkpt lat="43.48023989892924" lon="12.18940460020666"><ele>289.0</ele><time>2026-04-26T08:53:13Z</time></trkpt><trkpt lat="43.48016415298453" lon="12.189613331191858"><ele>291.0</ele><time>2026-04-26T08:53:14Z</time></trkpt><trkpt lat="43.48007749492077" lon="12.189800559985501"><ele>289.6666666666667</ele><time>2026-04-26T08:53:15Z</time></trkpt><trkpt lat="43.479979846270275" lon="12.189980245667776"><ele>288.33333333333337</ele><time>2026-04-26T08:53:16Z</time></trkpt><trkpt lat="43.47990833889511" lon="12.190182126725272"><ele>287.0</ele><time>2026-04-26T08:53:17Z</time></trkpt><trkpt lat="43.479820775446576" lon="12.190374907024545"><ele>287.0</ele><time>2026-04-26T08:53:18Z</time></trkpt><trkpt lat="43.47972030921019" lon="12.19056202090196"><ele>287.0</ele><time>2026-04-26T08:53:19Z</time></trkpt><trkpt lat="43.47963117982726" lon="12.190764285278446"><ele>287.0</ele><time>2026-04-26T08:53:20Z</time></trkpt><trkpt lat="43.47954736800218" lon="12.1909531497977"><ele>288.33333333333337</ele><time>2026-04-26T08:53:21Z</time></trkpt><trkpt lat="43.4794596346946" lon="12.19115336175923"><ele>289.6666666666667</ele><time>2026-04-26T08:53:22Z</time></trkpt><trkpt lat="43.479375213162214" lon="12.191346923300268"><ele>291.0</ele><time>2026-04-26T08:53:23Z</time></trkpt><trkpt lat="43.47929111753964" lon="12.191540015864899"><ele>291.0</ele><time>2026-04-26T08:53:24Z</time></trkpt><trkpt lat="43.47920659887138" lon="12.191734079822433"><ele>291.0</ele><time>2026-04-26T08:53:25Z</time></trkpt><trkpt lat="43.47912761097735" lon="12.191915445405403"><ele>291.0</ele><time>2026-04-26T08:53:26Z</time></trkpt><trkpt lat="43.479065366933874" lon="12.192097868634004"><ele>291.0</ele><time>2026-04-26T08:53:27Z</time></trkpt><trkpt lat="43.47898801653174" lon="12.192265886620746"><ele>291.0</ele><time>2026-04-26T08:53:28Z</time></trkpt><trkpt lat="43.47890609194574" lon="12.192430491748478"><ele>291.0</ele><time>2026-04-26T08:53:29Z</time></trkpt><trkpt lat="43.47883075733589" lon="12.192612723223236"><ele>291.0</ele><time>2026-04-26T08:53:30Z</time></trkpt><trkpt lat="43.47874544407939" lon="12.192800863763983"><ele>292.6666666666667</ele><time>2026-04-26T08:53:31Z</time></trkpt><trkpt lat="43.47866009845265" lon="12.192983214423094"><ele>294.33333333333337</ele><time>2026-04-26T08:53:32Z</time></trkpt><trkpt lat="43.47857322950663" lon="12.193177967369785"><ele>296.0</ele><time>2026-04-26T08:53:33Z</time></trkpt><trkpt lat="43.47849685855863" lon="12.193370177792868"><ele>296.0</ele><time>2026-04-26T08:53:34Z</time></trkpt><trkpt lat="43.47841572884344" lon="12.19355854222199"><ele>296.0</ele><time>2026-04-26T08:53:35Z</time></trkpt><trkpt lat="43.478333214486995" lon="12.19374937985079"><ele>296.0</ele><time>2026-04-26T08:53:36Z</time></trkpt><trkpt lat="43.478249193751935" lon="12.193934526662682"><ele>295.0</ele><time>2026-04-26T08:53:37Z</time></trkpt><trkpt lat="43.47816511666294" lon="12.194119881551462"><ele>294.0</ele><time>2026-04-26T08:53:38Z</time></trkpt><trkpt lat="43.478078624589294" lon="12.194309555825548"><ele>293.0</ele><time>2026-04-26T08:53:39Z</time></trkpt><trkpt lat="43.478002020606446" lon="12.194485368240832"><ele>293.75</ele><time>2026-04-26T08:53:40Z</time></trkpt><trkpt lat="43.47792850372173" lon="12.194648242342987"><ele>294.5</ele><time>2026-04-26T08:53:41Z</time></trkpt><trkpt lat="43.47785282138643" lon="12.19480584754759"><ele>295.25</ele><time>2026-04-26T08:53:42Z</time></trkpt><trkpt lat="43.477780095917225" lon="12.19496762646487"><ele>296.0</ele><time>2026-04-26T08:53:43Z</time></trkpt><trkpt lat="43.47770410537037" lon="12.195136303717158"><ele>296.0</ele><time>2026-04-26T08:53:44Z</time></trkpt><trkpt lat="43.47762727530765" lon="12.19530414821328"><ele>296.0</ele><time>2026-04-26T08:53:45Z</time></trkpt><trkpt lat="43.4775482571554" lon="12.195475821668364"><ele>296.0</ele><time>2026-04-26T08:53:46Z</time></trkpt><trkpt lat="43.477469376969424" lon="12.195651343478993"><ele>296.0</ele><time>2026-04-26T08:53:47Z</time></trkpt><trkpt lat="43.477397214794394" lon="12.195809899327"><ele>295.5</ele><time>2026-04-26T08:53:48Z</time></trkpt><trkpt lat="43.47732814686551" lon="12.195965704334041"><ele>295.0</ele><time>2026-04-26T08:53:49Z</time></trkpt><trkpt lat="43.47725872550065" lon="12.19611387030154"><ele>294.5</ele><time>2026-04-26T08:53:50Z</time></trkpt><trkpt lat="43.477195529295905" lon="12.196256592681296"><ele>294.0</ele><time>2026-04-26T08:53:51Z</time></trkpt><trkpt lat="43.477132612657215" lon="12.196398532192115"><ele>294.25</ele><time>2026-04-26T08:53:52Z</time></trkpt><trkpt lat="43.477073097063396" lon="12.196537941844829"><ele>294.5</ele><time>2026-04-26T08:53:53Z</time></trkpt><trkpt lat="43.47701450852622" lon="12.196679208613284"><ele>294.75</ele><time>2026-04-26T08:53:54Z</time></trkpt><trkpt lat="43.476955876301474" lon="12.196823458430778"><ele>295.0</ele><time>2026-04-26T08:53:55Z</time></trkpt><trkpt lat="43.476892742150284" lon="12.196966855265043"><ele>295.0</ele><time>2026-04-26T08:53:56Z</time></trkpt><trkpt lat="43.47682275424197" lon="12.197118466642253"><ele>295.0</ele><time>2026-04-26T08:53:57Z</time></trkpt><trkpt lat="43.4767580197114" lon="12.197260965059813"><ele>295.0</ele><time>2026-04-26T08:53:58Z</time></trkpt><trkpt lat="43.47669077449707" lon="12.197404579712147"><ele>295.0</ele><time>2026-04-26T08:53:59Z</time></trkpt><trkpt lat="43.47662217989638" lon="12.197544213868706"><ele>294.75</ele><time>2026-04-26T08:54:00Z</time></trkpt><trkpt lat="43.47655648400772" lon="12.19769000592963"><ele>294.5</ele><time>2026-04-26T08:54:01Z</time></trkpt><trkpt lat="43.476492931591395" lon="12.197834323525976"><ele>294.25</ele><time>2026-04-26T08:54:02Z</time></trkpt><trkpt lat="43.476427777065446" lon="12.197977268382209"><ele>294.0</ele><time>2026-04-26T08:54:03Z</time></trkpt><trkpt lat="43.47636068720539" lon="12.198115978352469"><ele>293.75</ele><time>2026-04-26T08:54:04Z</time></trkpt><trkpt lat="43.476293610150435" lon="12.198251267852676"><ele>293.5</ele><time>2026-04-26T08:54:05Z</time></trkpt><trkpt lat="43.47622449506848" lon="12.198387147643906"><ele>293.25</ele><time>2026-04-26T08:54:06Z</time></trkpt><trkpt lat="43.47615705208273" lon="12.198523216297492"><ele>293.0</ele><time>2026-04-26T08:54:07Z</time></trkpt><trkpt lat="43.476099760994586" lon="12.198649611013163"><ele>293.4</ele><time>2026-04-26T08:54:08Z</time></trkpt><trkpt lat="43.47603732034195" lon="12.19877253308188"><ele>293.8</ele><time>2026-04-26T08:54:09Z</time></trkpt><trkpt lat="43.47598133813047" lon="12.198899082297118"><ele>294.2</ele><time>2026-04-26T08:54:10Z</time></trkpt><trkpt lat="43.47592402980866" lon="12.199030471290596"><ele>294.6</ele><time>2026-04-26T08:54:11Z</time></trkpt><trkpt lat="43.47586675771308" lon="12.199165558180587"><ele>295.0</ele><time>2026-04-26T08:54:12Z</time></trkpt><trkpt lat="43.4758068646307" lon="12.199310351489608"><ele>295.0</ele><time>2026-04-26T08:54:13Z</time></trkpt><trkpt lat="43.47574505484106" lon="12.199448556356455"><ele>295.0</ele><time>2026-04-26T08:54:14Z</time></trkpt><trkpt lat="43.47568626073767" lon="12.199589687010393"><ele>295.0</ele><time>2026-04-26T08:54:15Z</time></trkpt><trkpt lat="43.475623844000474" lon="12.199742795020939"><ele>295.0</ele><time>2026-04-26T08:54:16Z</time></trkpt><trkpt lat="43.475555981715296" lon="12.199876434579252"><ele>294.75</ele><time>2026-04-26T08:54:17Z</time></trkpt><trkpt lat="43.475501093421094" lon="12.200017123612916"><ele>294.5</ele><time>2026-04-26T08:54:18Z</time></trkpt><trkpt lat="43.47543056618128" lon="12.200162505256495"><ele>294.25</ele><time>2026-04-26T08:54:19Z</time></trkpt><trkpt lat="43.475377103571724" lon="12.200318923702676"><ele>294.0</ele><time>2026-04-26T08:54:20Z</time></trkpt><trkpt lat="43.475309253595405" lon="12.200463400248557"><ele>294.0</ele><time>2026-04-26T08:54:21Z</time></trkpt><trkpt lat="43.47523281490717" lon="12.200602611668058"><ele>294.0</ele><time>2026-04-26T08:54:22Z</time></trkpt><trkpt lat="43.47516149382675" lon="12.20074802581613"><ele>294.0</ele><time>2026-04-26T08:54:23Z</time></trkpt><trkpt lat="43.47509008680099" lon="12.200901696638558"><ele>294.0</ele><time>2026-04-26T08:54:24Z</time></trkpt><trkpt lat="43.47501963879207" lon="12.201059692131542"><ele>294.0</ele><time>2026-04-26T08:54:25Z</time></trkpt><trkpt lat="43.47494660259184" lon="12.201212375318566"><ele>294.0</ele><time>2026-04-26T08:54:26Z</time></trkpt><trkpt lat="43.4748730250935" lon="12.201378260376247"><ele>294.0</ele><time>2026-04-26T08:54:27Z</time></trkpt><trkpt lat="43.47479671823926" lon="12.201543230574718"><ele>294.0</ele><time>2026-04-26T08:54:28Z</time></trkpt><trkpt lat="43.47471789960131" lon="12.20171216935593"><ele>294.0</ele><time>2026-04-26T08:54:29Z</time></trkpt><trkpt lat="43.47463737376096" lon="12.201886990511442"><ele>294.0</ele><time>2026-04-26T08:54:30Z</time></trkpt><trkpt lat="43.47455517887759" lon="12.20206413523199"><ele>294.0</ele><time>2026-04-26T08:54:31Z</time></trkpt><trkpt lat="43.474470750859574" lon="12.202243532860857"><ele>294.0</ele><time>2026-04-26T08:54:32Z</time></trkpt><trkpt lat="43.474390393835606" lon="12.202423757179366"><ele>294.0</ele><time>2026-04-26T08:54:33Z</time></trkpt><trkpt lat="43.47430718605685" lon="12.20260744043776"><ele>294.0</ele><time>2026-04-26T08:54:34Z</time></trkpt><trkpt lat="43.47422719876251" lon="12.202789764849856"><ele>294.0</ele><time>2026-04-26T08:54:35Z</time></trkpt><trkpt lat="43.47414316510996" lon="12.20297415653202"><ele>294.0</ele><time>2026-04-26T08:54:36Z</time></trkpt><trkpt lat="43.474054624119326" lon="12.203164332738162"><ele>294.0</ele><time>2026-04-26T08:54:37Z</time></trkpt><trkpt lat="43.47396910641459" lon="12.203356176150399"><ele>294.6666666666667</ele><time>2026-04-26T08:54:38Z</time></trkpt><trkpt lat="43.47387798292043" lon="12.203552598306095"><ele>295.33333333333337</ele><time>2026-04-26T08:54:39Z</time></trkpt><trkpt lat="43.4737850396876" lon="12.203753303974139"><ele>296.0</ele><time>2026-04-26T08:54:40Z</time></trkpt><trkpt lat="43.47368773120271" lon="12.203963363744151"><ele>295.33333333333337</ele><time>2026-04-26T08:54:41Z</time></trkpt><trkpt lat="43.47359516988145" lon="12.204169344169244"><ele>294.6666666666667</ele><time>2026-04-26T08:54:42Z</time></trkpt><trkpt lat="43.473500117331646" lon="12.204372445298603"><ele>294.0</ele><time>2026-04-26T08:54:43Z</time></trkpt><trkpt lat="43.4734060691129" lon="12.204571073183878"><ele>294.0</ele><time>2026-04-26T08:54:44Z</time></trkpt><trkpt lat="43.4733129214136" lon="12.20476851162814"><ele>294.0</ele><time>2026-04-26T08:54:45Z</time></trkpt><trkpt lat="43.47323040291881" lon="12.204967731771921"><ele>294.0</ele><time>2026-04-26T08:54:46Z</time></trkpt><trkpt lat="43.47315856235964" lon="12.205163257152762"><ele>292.6666666666667</ele><time>2026-04-26T08:54:47Z</time></trkpt><trkpt lat="43.4731311963629" lon="12.205380744990368"><ele>291.33333333333337</ele><time>2026-04-26T08:54:48Z</time></trkpt><trkpt lat="43.47312899540275" lon="12.205601357643978"><ele>290.0</ele><time>2026-04-26T08:54:49Z</time></trkpt><trkpt lat="43.47316818544452" lon="12.205824632968742"><ele>290.0</ele><time>2026-04-26T08:54:50Z</time></trkpt><trkpt lat="43.473226967606195" lon="12.206035035392963"><ele>290.0</ele><time>2026-04-26T08:54:51Z</time></trkpt><trkpt lat="43.4732991733977" lon="12.206245239213969"><ele>290.0</ele><time>2026-04-26T08:54:52Z</time></trkpt><trkpt lat="43.47337966242387" lon="12.206456387111919"><ele>289.0</ele><time>2026-04-26T08:54:53Z</time></trkpt><trkpt lat="43.473448678376386" lon="12.206679350560263"><ele>288.0</ele><time>2026-04-26T08:54:54Z</time></trkpt><trkpt lat="43.473530572746526" lon="12.206896463581124"><ele>287.0</ele><time>2026-04-26T08:54:55Z</time></trkpt><trkpt lat="43.47360879863131" lon="12.207105997214136"><ele>287.0</ele><time>2026-04-26T08:54:56Z</time></trkpt><trkpt lat="43.473688202467294" lon="12.207322717327465"><ele>287.0</ele><time>2026-04-26T08:54:57Z</time></trkpt><trkpt lat="43.473766792705504" lon="12.207542853606853"><ele>287.0</ele><time>2026-04-26T08:54:58Z</time></trkpt><trkpt lat="43.47384282370501" lon="12.207766415349967"><ele>286.6666666666667</ele><time>2026-04-26T08:54:59Z</time></trkpt><trkpt lat="43.47390023053102" lon="12.207995274114175"><ele>286.3333333333333</ele><time>2026-04-26T08:55:00Z</time></trkpt><trkpt lat="43.47393814256392" lon="12.208231504127761"><ele>286.0</ele><time>2026-04-26T08:55:01Z</time></trkpt><trkpt lat="43.47395197346591" lon="12.208467495957901"><ele>285.66666666666663</ele><time>2026-04-26T08:55:02Z</time></trkpt><trkpt lat="43.47393550387517" lon="12.208703696356144"><ele>285.3333333333333</ele><time>2026-04-26T08:55:03Z</time></trkpt><trkpt lat="43.4739012518947" lon="12.20893755084275"><ele>285.0</ele><time>2026-04-26T08:55:04Z</time></trkpt><trkpt lat="43.47385896851987" lon="12.209178120589899"><ele>284.3333333333333</ele><time>2026-04-26T08:55:05Z</time></trkpt><trkpt lat="43.473813455718044" lon="12.209413103401435"><ele>283.66666666666663</ele><time>2026-04-26T08:55:06Z</time></trkpt><trkpt lat="43.473762388464955" lon="12.209652863818157"><ele>283.0</ele><time>2026-04-26T08:55:07Z</time></trkpt><trkpt lat="43.473710303817434" lon="12.209891930452955"><ele>284.3333333333333</ele><time>2026-04-26T08:55:08Z</time></trkpt><trkpt lat="43.4736681670794" lon="12.210141821357855"><ele>285.6666666666667</ele><time>2026-04-26T08:55:09Z</time></trkpt><trkpt lat="43.47361932842578" lon="12.210384042060529"><ele>287.0</ele><time>2026-04-26T08:55:10Z</time></trkpt><trkpt lat="43.47357414329983" lon="12.210632150306772"><ele>287.33333333333337</ele><time>2026-04-26T08:55:11Z</time></trkpt><trkpt lat="43.473535478986776" lon="12.210884325248024"><ele>287.6666666666667</ele><time>2026-04-26T08:55:12Z</time></trkpt><trkpt lat="43.47349723294348" lon="12.211137878369431"><ele>288.0</ele><time>2026-04-26T08:55:13Z</time></trkpt><trkpt lat="43.473461378328636" lon="12.21139806506554"><ele>287.6666666666667</ele><time>2026-04-26T08:55:14Z</time></trkpt><trkpt lat="43.47342686125426" lon="12.211658246085001"><ele>287.33333333333337</ele><time>2026-04-26T08:55:15Z</time></trkpt><trkpt lat="43.473379064252235" lon="12.211924385507816"><ele>287.0</ele><time>2026-04-26T08:55:16Z</time></trkpt><trkpt lat="43.47334034485587" lon="12.212184971641843"><ele>286.0</ele><time>2026-04-26T08:55:17Z</time></trkpt><trkpt lat="43.47329830734816" lon="12.212442917227296"><ele>285.0</ele><time>2026-04-26T08:55:18Z</time></trkpt><trkpt lat="43.47326171859424" lon="12.21270295016155"><ele>284.0</ele><time>2026-04-26T08:55:19Z</time></trkpt><trkpt lat="43.47322456370611" lon="12.21296258422733"><ele>283.6666666666667</ele><time>2026-04-26T08:55:20Z</time></trkpt><trkpt lat="43.47320304475957" lon="12.21322346939019"><ele>283.3333333333333</ele><time>2026-04-26T08:55:21Z</time></trkpt><trkpt lat="43.47317041607857" lon="12.213478789005359"><ele>283.0</ele><time>2026-04-26T08:55:22Z</time></trkpt><trkpt lat="43.473141430708516" lon="12.213712802469269"><ele>283.0</ele><time>2026-04-26T08:55:23Z</time></trkpt><trkpt lat="43.4731345154938" lon="12.213936280930499"><ele>283.0</ele><time>2026-04-26T08:55:24Z</time></trkpt><trkpt lat="43.473103997534984" lon="12.214157983373331"><ele>283.0</ele><time>2026-04-26T08:55:25Z</time></trkpt><trkpt lat="43.473069986919604" lon="12.214381707134795"><ele>283.0</ele><time>2026-04-26T08:55:26Z</time></trkpt><trkpt lat="43.47302208664058" lon="12.214607431874866"><ele>283.0</ele><time>2026-04-26T08:55:27Z</time></trkpt><trkpt lat="43.472951103884206" lon="12.21482316995483"><ele>283.0</ele><time>2026-04-26T08:55:28Z</time></trkpt><trkpt lat="43.47285182748123" lon="12.215026719042854"><ele>283.66666666666663</ele><time>2026-04-26T08:55:29Z</time></trkpt><trkpt lat="43.47274211968343" lon="12.215223096997127"><ele>284.3333333333333</ele><time>2026-04-26T08:55:30Z</time></trkpt><trkpt lat="43.47261883417699" lon="12.215395402993773"><ele>285.0</ele><time>2026-04-26T08:55:31Z</time></trkpt><trkpt lat="43.47247940489163" lon="12.21555286254459"><ele>285.6666666666667</ele><time>2026-04-26T08:55:32Z</time></trkpt><trkpt lat="43.47233003823689" lon="12.215686642377692"><ele>286.33333333333337</ele><time>2026-04-26T08:55:33Z</time></trkpt><trkpt lat="43.472176935261786" lon="12.215799460404458"><ele>287.0</ele><time>2026-04-26T08:55:34Z</time></trkpt><trkpt lat="43.47201508363558" lon="12.215893688936754"><ele>287.0</ele><time>2026-04-26T08:55:35Z</time></trkpt><trkpt lat="43.47184772822807" lon="12.215967981836457"><ele>287.0</ele><time>2026-04-26T08:55:36Z</time></trkpt><trkpt lat="43.47167658296932" lon="12.216011712983821"><ele>287.0</ele><time>2026-04-26T08:55:37Z</time></trkpt><trkpt lat="43.47150434724296" lon="12.216055944785646"><ele>287.0</ele><time>2026-04-26T08:55:38Z</time></trkpt><trkpt lat="43.47133345909555" lon="12.216111407709104"><ele>287.0</ele><time>2026-04-26T08:55:39Z</time></trkpt><trkpt lat="43.47116659076699" lon="12.216169223905565"><ele>287.0</ele><time>2026-04-26T08:55:40Z</time></trkpt><trkpt lat="43.47100011055718" lon="12.216221615939288"><ele>287.0</ele><time>2026-04-26T08:55:41Z</time></trkpt><trkpt lat="43.470832722888176" lon="12.216268660012279"><ele>287.0</ele><time>2026-04-26T08:55:42Z</time></trkpt><trkpt lat="43.47066620180421" lon="12.216311700066582"><ele>287.0</ele><time>2026-04-26T08:55:43Z</time></trkpt><trkpt lat="43.47049103449395" lon="12.216354356490305"><ele>288.0</ele><time>2026-04-26T08:55:44Z</time></trkpt><trkpt lat="43.47030788554206" lon="12.21638104317848"><ele>289.0</ele><time>2026-04-26T08:55:45Z</time></trkpt><trkpt lat="43.47013035674539" lon="12.216366209768399"><ele>290.0</ele><time>2026-04-26T08:55:46Z</time></trkpt><trkpt lat="43.469965536041244" lon="12.21634252431466"><ele>290.0</ele><time>2026-04-26T08:55:47Z</time></trkpt><trkpt lat="43.46979087256571" lon="12.216329534842385"><ele>290.0</ele><time>2026-04-26T08:55:48Z</time></trkpt><trkpt lat="43.469612130669" lon="12.216320436376327"><ele>290.0</ele><time>2026-04-26T08:55:49Z</time></trkpt><trkpt lat="43.469430607084234" lon="12.21631281015659"><ele>289.33333333333337</ele><time>2026-04-26T08:55:50Z</time></trkpt><trkpt lat="43.469253366026685" lon="12.216304290425642"><ele>288.6666666666667</ele><time>2026-04-26T08:55:51Z</time></trkpt><trkpt lat="43.46907599924599" lon="12.216297578805575"><ele>288.0</ele><time>2026-04-26T08:55:52Z</time></trkpt><trkpt lat="43.46890160354596" lon="12.216285327805764"><ele>288.6666666666667</ele><time>2026-04-26T08:55:53Z</time></trkpt><trkpt lat="43.46873793838937" lon="12.2162758883851"><ele>289.33333333333337</ele><time>2026-04-26T08:55:54Z</time></trkpt><trkpt lat="43.46857531610997" lon="12.216279313850217"><ele>290.0</ele><time>2026-04-26T08:55:55Z</time></trkpt><trkpt lat="43.46841830611385" lon="12.216299725383662"><ele>290.0</ele><time>2026-04-26T08:55:56Z</time></trkpt><trkpt lat="43.46827418552049" lon="12.216345405920096"><ele>290.0</ele><time>2026-04-26T08:55:57Z</time></trkpt><trkpt lat="43.468138302195115" lon="12.216423271635612"><ele>290.0</ele><time>2026-04-26T08:55:58Z</time></trkpt><trkpt lat="43.46801873965528" lon="12.216542394090071"><ele>290.0</ele><time>2026-04-26T08:55:59Z</time></trkpt><trkpt lat="43.46791850481146" lon="12.216697099874118"><ele>288.5</ele><time>2026-04-26T08:56:00Z</time></trkpt><trkpt lat="43.46783398535873" lon="12.216862547600336"><ele>287.0</ele><time>2026-04-26T08:56:01Z</time></trkpt><trkpt lat="43.467754766871025" lon="12.217038793299185"><ele>285.5</ele><time>2026-04-26T08:56:02Z</time></trkpt><trkpt lat="43.46767510516857" lon="12.217211768804209"><ele>284.0</ele><time>2026-04-26T08:56:03Z</time></trkpt><trkpt lat="43.467594764219086" lon="12.217389357488614"><ele>283.0</ele><time>2026-04-26T08:56:04Z</time></trkpt><trkpt lat="43.46751546014984" lon="12.217572774169119"><ele>282.0</ele><time>2026-04-26T08:56:05Z</time></trkpt><trkpt lat="43.46743234150795" lon="12.217753548856061"><ele>281.0</ele><time>2026-04-26T08:56:06Z</time></trkpt><trkpt lat="43.467351695766965" lon="12.217937702491525"><ele>281.0</ele><time>2026-04-26T08:56:07Z</time></trkpt><trkpt lat="43.467273808013374" lon="12.218108309409144"><ele>281.0</ele><time>2026-04-26T08:56:08Z</time></trkpt><trkpt lat="43.46720328870326" lon="12.218273104177005"><ele>281.0</ele><time>2026-04-26T08:56:09Z</time></trkpt><trkpt lat="43.46713371267035" lon="12.218426360529605"><ele>281.0</ele><time>2026-04-26T08:56:10Z</time></trkpt><trkpt lat="43.46707398400674" lon="12.218582238006531"><ele>281.25</ele><time>2026-04-26T08:56:11Z</time></trkpt><trkpt lat="43.467010077290965" lon="12.218732039213496"><ele>281.5</ele><time>2026-04-26T08:56:12Z</time></trkpt><trkpt lat="43.46694623660686" lon="12.218887444609745"><ele>281.75</ele><time>2026-04-26T08:56:13Z</time></trkpt><trkpt lat="43.466883958487074" lon="12.21903337621514"><ele>282.0</ele><time>2026-04-26T08:56:14Z</time></trkpt><trkpt lat="43.46682275056336" lon="12.21917507669748"><ele>282.0</ele><time>2026-04-26T08:56:15Z</time></trkpt><trkpt lat="43.46676420509934" lon="12.219312887749084"><ele>282.0</ele><time>2026-04-26T08:56:16Z</time></trkpt><trkpt lat="43.46670857921631" lon="12.21944406142762"><ele>282.0</ele><time>2026-04-26T08:56:17Z</time></trkpt><trkpt lat="43.46665933534591" lon="12.219561661532191"><ele>282.0</ele><time>2026-04-26T08:56:18Z</time></trkpt><trkpt lat="43.46660592192197" lon="12.219685061056076"><ele>282.0</ele><time>2026-04-26T08:56:19Z</time></trkpt><trkpt lat="43.46654907936219" lon="12.219817401539418"><ele>281.6</ele><time>2026-04-26T08:56:20Z</time></trkpt><trkpt lat="43.46649439174545" lon="12.219942353465754"><ele>281.2</ele><time>2026-04-26T08:56:21Z</time></trkpt><trkpt lat="43.46644055904587" lon="12.220079978592524"><ele>280.8</ele><time>2026-04-26T08:56:22Z</time></trkpt><trkpt lat="43.46639265306191" lon="12.220219739704028"><ele>280.4</ele><time>2026-04-26T08:56:23Z</time></trkpt><trkpt lat="43.466356577403" lon="12.220358527658032"><ele>280.0</ele><time>2026-04-26T08:56:24Z</time></trkpt><trkpt lat="43.46632663393184" lon="12.22051503977222"><ele>279.75</ele><time>2026-04-26T08:56:25Z</time></trkpt><trkpt lat="43.46631074455171" lon="12.220677050834741"><ele>279.5</ele><time>2026-04-26T08:56:26Z</time></trkpt><trkpt lat="43.466305923139466" lon="12.220844235061461"><ele>279.25</ele><time>2026-04-26T08:56:27Z</time></trkpt><trkpt lat="43.466302770154286" lon="12.221010449621867"><ele>279.0</ele><time>2026-04-26T08:56:28Z</time></trkpt><trkpt lat="43.466322846935945" lon="12.221175224377701"><ele>279.0</ele><time>2026-04-26T08:56:29Z</time></trkpt><trkpt lat="43.466350468465514" lon="12.221344981641218"><ele>279.0</ele><time>2026-04-26T08:56:30Z</time></trkpt><trkpt lat="43.46638566598034" lon="12.22151614551922"><ele>279.0</ele><time>2026-04-26T08:56:31Z</time></trkpt><trkpt lat="43.46641719074895" lon="12.221695871468715"><ele>279.0</ele><time>2026-04-26T08:56:32Z</time></trkpt><trkpt lat="43.4664486823777" lon="12.22188398681087"><ele>279.0</ele><time>2026-04-26T08:56:33Z</time></trkpt><trkpt lat="43.46648080559768" lon="12.222074512472872"><ele>279.0</ele><time>2026-04-26T08:56:34Z</time></trkpt><trkpt lat="43.4665097475913" lon="12.222267449859086"><ele>279.0</ele><time>2026-04-26T08:56:35Z</time></trkpt><trkpt lat="43.4665325769605" lon="12.222452498992775"><ele>279.0</ele><time>2026-04-26T08:56:36Z</time></trkpt><trkpt lat="43.46655892403336" lon="12.222658219289125"><ele>279.3333333333333</ele><time>2026-04-26T08:56:37Z</time></trkpt><trkpt lat="43.46659431754617" lon="12.222855994601545"><ele>279.66666666666663</ele><time>2026-04-26T08:56:38Z</time></trkpt><trkpt lat="43.466625407457876" lon="12.223058399100164"><ele>280.0</ele><time>2026-04-26T08:56:39Z</time></trkpt><trkpt lat="43.466662424465625" lon="12.223261804982382"><ele>280.0</ele><time>2026-04-26T08:56:40Z</time></trkpt><trkpt lat="43.46668860517841" lon="12.223478019925391"><ele>280.0</ele><time>2026-04-26T08:56:41Z</time></trkpt><trkpt lat="43.466722589794216" lon="12.22369713628306"><ele>280.0</ele><time>2026-04-26T08:56:42Z</time></trkpt><trkpt lat="43.46675349221046" lon="12.223920358593062"><ele>280.3333333333333</ele><time>2026-04-26T08:56:43Z</time></trkpt><trkpt lat="43.466784658557025" lon="12.224141311875417"><ele>280.6666666666667</ele><time>2026-04-26T08:56:44Z</time></trkpt><trkpt lat="43.46681732387187" lon="12.224364999456036"><ele>281.0</ele><time>2026-04-26T08:56:45Z</time></trkpt><trkpt lat="43.46684605996255" lon="12.224592561629656"><ele>281.33333333333337</ele><time>2026-04-26T08:56:46Z</time></trkpt><trkpt lat="43.466878680230614" lon="12.224821015633106"><ele>281.6666666666667</ele><time>2026-04-26T08:56:47Z</time></trkpt><trkpt lat="43.46690685863914" lon="12.225052693215677"><ele>282.0</ele><time>2026-04-26T08:56:48Z</time></trkpt><trkpt lat="43.4669411340349" lon="12.225282425738135"><ele>282.0</ele><time>2026-04-26T08:56:49Z</time></trkpt><trkpt lat="43.46697119000481" lon="12.225518585806356"><ele>282.0</ele><time>2026-04-26T08:56:50Z</time></trkpt><trkpt lat="43.46700996256452" lon="12.225752509954027"><ele>282.0</ele><time>2026-04-26T08:56:51Z</time></trkpt><trkpt lat="43.46706221110873" lon="12.225985012579796"><ele>281.6666666666667</ele><time>2026-04-26T08:56:52Z</time></trkpt><trkpt lat="43.467108280961085" lon="12.226222297878067"><ele>281.33333333333337</ele><time>2026-04-26T08:56:53Z</time></trkpt><trkpt lat="43.467154156499156" lon="12.22646221540131"><ele>281.0</ele><time>2026-04-26T08:56:54Z</time></trkpt><trkpt lat="43.46721369744444" lon="12.22670071640283"><ele>281.0</ele><time>2026-04-26T08:56:55Z</time></trkpt><trkpt lat="43.467284787301736" lon="12.226933507683146"><ele>281.0</ele><time>2026-04-26T08:56:56Z</time></trkpt><trkpt lat="43.46735715106252" lon="12.227165620994896"><ele>281.0</ele><time>2026-04-26T08:56:57Z</time></trkpt><trkpt lat="43.4674420387935" lon="12.227386883811457"><ele>281.33333333333337</ele><time>2026-04-26T08:56:58Z</time></trkpt><trkpt lat="43.46751093379871" lon="12.227620108358185"><ele>281.6666666666667</ele><time>2026-04-26T08:56:59Z</time></trkpt><trkpt lat="43.467593156085755" lon="12.227850596393022"><ele>282.0</ele><time>2026-04-26T08:57:00Z</time></trkpt><trkpt lat="43.46768426835593" lon="12.228068154845408"><ele>281.0</ele><time>2026-04-26T08:57:01Z</time></trkpt><trkpt lat="43.46778022486803" lon="12.228275131094458"><ele>280.0</ele><time>2026-04-26T08:57:02Z</time></trkpt><trkpt lat="43.467878686615705" lon="12.22847166267272"><ele>279.0</ele><time>2026-04-26T08:57:03Z</time></trkpt><trkpt lat="43.46799092194596" lon="12.228644688856377"><ele>279.0</ele><time>2026-04-26T08:57:04Z</time></trkpt><trkpt lat="43.468089674661826" lon="12.228814930574396"><ele>279.0</ele><time>2026-04-26T08:57:05Z</time></trkpt><trkpt lat="43.46818726821387" lon="12.228979953246016"><ele>279.0</ele><time>2026-04-26T08:57:06Z</time></trkpt><trkpt lat="43.468282738468496" lon="12.229136595818918"><ele>279.0</ele><time>2026-04-26T08:57:07Z</time></trkpt><trkpt lat="43.468372792791996" lon="12.229276646188035"><ele>279.0</ele><time>2026-04-26T08:57:08Z</time></trkpt><trkpt lat="43.468453601234344" lon="12.229395318089757"><ele>279.0</ele><time>2026-04-26T08:57:09Z</time></trkpt><trkpt lat="43.46851058738706" lon="12.229490503760521"><ele>279.0</ele><time>2026-04-26T08:57:10Z</time></trkpt><trkpt lat="43.468548169454586" lon="12.2295699059444"><ele>279.0</ele><time>2026-04-26T08:57:11Z</time></trkpt><trkpt lat="43.46858195728049" lon="12.229725898006212"><ele>279.3333333333333</ele><time>2026-04-26T08:57:13Z</time></trkpt><trkpt lat="43.46858781852108" lon="12.229816495385753"><ele>279.6666666666667</ele><time>2026-04-26T08:57:14Z</time></trkpt><trkpt lat="43.4685804865667" lon="12.229916397279535"><ele>280.0</ele><time>2026-04-26T08:57:15Z</time></trkpt><trkpt lat="43.46857733832028" lon="12.230022462864028"><ele>280.33333333333337</ele><time>2026-04-26T08:57:16Z</time></trkpt><trkpt lat="43.468580807113746" lon="12.230136294738665"><ele>280.6666666666667</ele><time>2026-04-26T08:57:17Z</time></trkpt><trkpt lat="43.468605482018546" lon="12.230253498350473"><ele>281.0</ele><time>2026-04-26T08:57:18Z</time></trkpt><trkpt lat="43.46866373358765" lon="12.230361903161219"><ele>281.0</ele><time>2026-04-26T08:57:19Z</time></trkpt><trkpt lat="43.468742112557095" lon="12.230453982526667"><ele>281.0</ele><time>2026-04-26T08:57:20Z</time></trkpt><trkpt lat="43.46883731230862" lon="12.230516651170145"><ele>281.0</ele><time>2026-04-26T08:57:21Z</time></trkpt><trkpt lat="43.4689509555788" lon="12.230522170584912"><ele>281.0</ele><time>2026-04-26T08:57:22Z</time></trkpt><trkpt lat="43.46906894997414" lon="12.230488473427851"><ele>281.0</ele><time>2026-04-26T08:57:23Z</time></trkpt><trkpt lat="43.46918753839666" lon="12.230420599623113"><ele>281.5</ele><time>2026-04-26T08:57:24Z</time></trkpt><trkpt lat="43.469319462234786" lon="12.23043170019234"><ele>282.0</ele><time>2026-04-26T08:57:25Z</time></trkpt><trkpt lat="43.46945150456207" lon="12.230499201665113"><ele>282.5</ele><time>2026-04-26T08:57:26Z</time></trkpt><trkpt lat="43.46956088896311" lon="12.230635577236995"><ele>283.0</ele><time>2026-04-26T08:57:27Z</time></trkpt><trkpt lat="43.46968105947754" lon="12.230753372237864"><ele>283.0</ele><time>2026-04-26T08:57:28Z</time></trkpt><trkpt lat="43.46979751998391" lon="12.230867941967636"><ele>283.0</ele><time>2026-04-26T08:57:29Z</time></trkpt><trkpt lat="43.46990814407188" lon="12.230978804469174"><ele>283.0</ele><time>2026-04-26T08:57:30Z</time></trkpt><trkpt lat="43.47001659829272" lon="12.231091130883478"><ele>283.0</ele><time>2026-04-26T08:57:31Z</time></trkpt><trkpt lat="43.4701267197626" lon="12.231205542227428"><ele>283.0</ele><time>2026-04-26T08:57:32Z</time></trkpt><trkpt lat="43.47023495064395" lon="12.231322174444706"><ele>283.0</ele><time>2026-04-26T08:57:33Z</time></trkpt><trkpt lat="43.470340629379635" lon="12.231440249043693"><ele>283.0</ele><time>2026-04-26T08:57:34Z</time></trkpt><trkpt lat="43.47045414435124" lon="12.231551786443063"><ele>283.0</ele><time>2026-04-26T08:57:35Z</time></trkpt><trkpt lat="43.4705574322825" lon="12.23168559487914"><ele>283.5</ele><time>2026-04-26T08:57:36Z</time></trkpt><trkpt lat="43.470646172993966" lon="12.231842467043084"><ele>284.0</ele><time>2026-04-26T08:57:37Z</time></trkpt><trkpt lat="43.47074771539564" lon="12.231987492722135"><ele>284.5</ele><time>2026-04-26T08:57:38Z</time></trkpt><trkpt lat="43.470841192004876" lon="12.232137251346932"><ele>285.0</ele><time>2026-04-26T08:57:39Z</time></trkpt><trkpt lat="43.47093168339611" lon="12.232297253263477"><ele>285.25</ele><time>2026-04-26T08:57:40Z</time></trkpt><trkpt lat="43.47101756047385" lon="12.232455584759855"><ele>285.5</ele><time>2026-04-26T08:57:41Z</time></trkpt><trkpt lat="43.47110709442908" lon="12.232626070620132"><ele>285.75</ele><time>2026-04-26T08:57:42Z</time></trkpt><trkpt lat="43.47119104526567" lon="12.232793468943635"><ele>286.0</ele><time>2026-04-26T08:57:43Z</time></trkpt><trkpt lat="43.471266923882986" lon="12.232961098676055"><ele>285.25</ele><time>2026-04-26T08:57:44Z</time></trkpt><trkpt lat="43.47133979112539" lon="12.233133016158083"><ele>284.5</ele><time>2026-04-26T08:57:45Z</time></trkpt><trkpt lat="43.47141047750314" lon="12.233303088838703"><ele>283.75</ele><time>2026-04-26T08:57:46Z</time></trkpt><trkpt lat="43.471484961980906" lon="12.2334794942449"><ele>283.0</ele><time>2026-04-26T08:57:47Z</time></trkpt><trkpt lat="43.47156001842983" lon="12.233653382412225"><ele>283.0</ele><time>2026-04-26T08:57:48Z</time></trkpt><trkpt lat="43.47163630935757" lon="12.233829467317765"><ele>283.0</ele><time>2026-04-26T08:57:49Z</time></trkpt><trkpt lat="43.47171113897448" lon="12.234004449384829"><ele>283.0</ele><time>2026-04-26T08:57:50Z</time></trkpt><trkpt lat="43.47178502882854" lon="12.234181446717496"><ele>283.0</ele><time>2026-04-26T08:57:51Z</time></trkpt><trkpt lat="43.47185778824715" lon="12.234356627940713"><ele>284.25</ele><time>2026-04-26T08:57:52Z</time></trkpt><trkpt lat="43.471925217430545" lon="12.23451897568915"><ele>285.5</ele><time>2026-04-26T08:57:53Z</time></trkpt><trkpt lat="43.47198711889659" lon="12.234668014465534"><ele>286.75</ele><time>2026-04-26T08:57:54Z</time></trkpt><trkpt lat="43.47204240868688" lon="12.234801134475331"><ele>288.0</ele><time>2026-04-26T08:57:55Z</time></trkpt><trkpt lat="43.4720924119065" lon="12.234921526053324"><ele>287.6</ele><time>2026-04-26T08:57:56Z</time></trkpt><trkpt lat="43.472148282828535" lon="12.23501795744558"><ele>287.20000000000005</ele><time>2026-04-26T08:57:57Z</time></trkpt><trkpt lat="43.47215757635484" lon="12.235130236605526"><ele>286.8</ele><time>2026-04-26T08:57:58Z</time></trkpt><trkpt lat="43.47214142678279" lon="12.235253889463495"><ele>286.40000000000003</ele><time>2026-04-26T08:57:59Z</time></trkpt><trkpt lat="43.472110804512546" lon="12.235386367654908"><ele>286.0</ele><time>2026-04-26T08:58:00Z</time></trkpt><trkpt lat="43.47209319937271" lon="12.235531955412519"><ele>285.8</ele><time>2026-04-26T08:58:01Z</time></trkpt><trkpt lat="43.472088909639595" lon="12.235684620605662"><ele>285.6</ele><time>2026-04-26T08:58:02Z</time></trkpt><trkpt lat="43.472110614647164" lon="12.235834899316599"><ele>285.4</ele><time>2026-04-26T08:58:03Z</time></trkpt><trkpt lat="43.47216401182597" lon="12.235961008018176"><ele>285.2</ele><time>2026-04-26T08:58:04Z</time></trkpt><trkpt lat="43.472243672305176" lon="12.236049348732577"><ele>285.0</ele><time>2026-04-26T08:58:05Z</time></trkpt><trkpt lat="43.472341645425" lon="12.23610713041388"><ele>285.0</ele><time>2026-04-26T08:58:06Z</time></trkpt><trkpt lat="43.47245520622671" lon="12.236149362709114"><ele>285.0</ele><time>2026-04-26T08:58:07Z</time></trkpt><trkpt lat="43.472561314946006" lon="12.236181448562851"><ele>285.0</ele><time>2026-04-26T08:58:08Z</time></trkpt><trkpt lat="43.472661129095826" lon="12.236253674353962"><ele>285.0</ele><time>2026-04-26T08:58:09Z</time></trkpt><trkpt lat="43.4727358380879" lon="12.23637982181291"><ele>285.25</ele><time>2026-04-26T08:58:10Z</time></trkpt><trkpt lat="43.47280340821142" lon="12.23651758899238"><ele>285.5</ele><time>2026-04-26T08:58:11Z</time></trkpt><trkpt lat="43.47285427478326" lon="12.236648554687957"><ele>285.75</ele><time>2026-04-26T08:58:12Z</time></trkpt><trkpt lat="43.47290710057571" lon="12.236781459307783"><ele>286.0</ele><time>2026-04-26T08:58:13Z</time></trkpt><trkpt lat="43.472963056401" lon="12.236915930298991"><ele>286.0</ele><time>2026-04-26T08:58:14Z</time></trkpt><trkpt lat="43.47301957763066" lon="12.237059284259201"><ele>286.0</ele><time>2026-04-26T08:58:15Z</time></trkpt><trkpt lat="43.47306821041138" lon="12.2372152807374"><ele>286.0</ele><time>2026-04-26T08:58:16Z</time></trkpt><trkpt lat="43.473115380313345" lon="12.23737671828333"><ele>286.0</ele><time>2026-04-26T08:58:17Z</time></trkpt><trkpt lat="43.47315281199309" lon="12.237533612209441"><ele>286.0</ele><time>2026-04-26T08:58:18Z</time></trkpt><trkpt lat="43.47318748559853" lon="12.237698063410301"><ele>286.0</ele><time>2026-04-26T08:58:19Z</time></trkpt><trkpt lat="43.47320729883312" lon="12.237865598669938"><ele>286.0</ele><time>2026-04-26T08:58:20Z</time></trkpt><trkpt lat="43.47321949183192" lon="12.238028171785414"><ele>286.0</ele><time>2026-04-26T08:58:21Z</time></trkpt><trkpt lat="43.473226082175366" lon="12.238172267266659"><ele>286.3333333333333</ele><time>2026-04-26T08:58:22Z</time></trkpt><trkpt lat="43.47322743656215" lon="12.23831418837374"><ele>286.66666666666663</ele><time>2026-04-26T08:58:23Z</time></trkpt><trkpt lat="43.473222891658246" lon="12.238432431569942"><ele>287.0</ele><time>2026-04-26T08:58:24Z</time></trkpt><trkpt lat="43.473226070395036" lon="12.238538064065791"><ele>287.3333333333333</ele><time>2026-04-26T08:58:25Z</time></trkpt><trkpt lat="43.473207640608926" lon="12.238633532782314"><ele>287.6666666666667</ele><time>2026-04-26T08:58:26Z</time></trkpt><trkpt lat="43.473196212597" lon="12.238725615588049"><ele>288.0</ele><time>2026-04-26T08:58:27Z</time></trkpt><trkpt lat="43.47318701968237" lon="12.238814265559922"><ele>288.0</ele><time>2026-04-26T08:58:28Z</time></trkpt><trkpt lat="43.473179134358936" lon="12.238905300678104"><ele>288.0</ele><time>2026-04-26T08:58:29Z</time></trkpt><trkpt lat="43.4731624219928" lon="12.239051715767019"><ele>288.0</ele><time>2026-04-26T08:58:31Z</time></trkpt><trkpt lat="43.47312499529012" lon="12.239158283667201"><ele>288.0</ele><time>2026-04-26T08:58:33Z</time></trkpt><trkpt lat="43.47308010992734" lon="12.239220517288201"><ele>288.0</ele><time>2026-04-26T08:58:34Z</time></trkpt><trkpt lat="43.47301444641354" lon="12.239280187135408"><ele>288.0</ele><time>2026-04-26T08:58:35Z</time></trkpt><trkpt lat="43.47295288064182" lon="12.239350224343873"><ele>288.0</ele><time>2026-04-26T08:58:36Z</time></trkpt><trkpt lat="43.47291129193062" lon="12.239437171229108"><ele>288.0</ele><time>2026-04-26T08:58:37Z</time></trkpt><trkpt lat="43.472897993004985" lon="12.23955036688576"><ele>288.0</ele><time>2026-04-26T08:58:38Z</time></trkpt><trkpt lat="43.47291269204518" lon="12.239673037689657"><ele>288.0</ele><time>2026-04-26T08:58:39Z</time></trkpt><trkpt lat="43.47295335516394" lon="12.239785641500204"><ele>288.0</ele><time>2026-04-26T08:58:40Z</time></trkpt><trkpt lat="43.47293044797736" lon="12.239944232334691"><ele>288.0</ele><time>2026-04-26T08:58:41Z</time></trkpt><trkpt lat="43.47289995710882" lon="12.240098350916204"><ele>288.0</ele><time>2026-04-26T08:58:42Z</time></trkpt><trkpt lat="43.47286027048433" lon="12.240252500739798"><ele>288.0</ele><time>2026-04-26T08:58:43Z</time></trkpt><trkpt lat="43.47281856239467" lon="12.240433587240728"><ele>288.0</ele><time>2026-04-26T08:58:44Z</time></trkpt><trkpt lat="43.472775428589266" lon="12.240643418600186"><ele>288.6666666666667</ele><time>2026-04-26T08:58:45Z</time></trkpt><trkpt lat="43.4727299993849" lon="12.24085124910252"><ele>289.33333333333337</ele><time>2026-04-26T08:58:46Z</time></trkpt><trkpt lat="43.47267226281317" lon="12.24104523995655"><ele>290.0</ele><time>2026-04-26T08:58:47Z</time></trkpt><trkpt lat="43.472629729070015" lon="12.241238653594129"><ele>290.0</ele><time>2026-04-26T08:58:48Z</time></trkpt><trkpt lat="43.47258155744883" lon="12.241420545863665"><ele>290.0</ele><time>2026-04-26T08:58:49Z</time></trkpt><trkpt lat="43.47253874818059" lon="12.241591135956632"><ele>290.0</ele><time>2026-04-26T08:58:50Z</time></trkpt><trkpt lat="43.472501415664155" lon="12.241747339876103"><ele>290.0</ele><time>2026-04-26T08:58:51Z</time></trkpt><trkpt lat="43.47246337392164" lon="12.241897560408514"><ele>290.0</ele><time>2026-04-26T08:58:52Z</time></trkpt><trkpt lat="43.472426329012436" lon="12.242042683364676"><ele>290.0</ele><time>2026-04-26T08:58:53Z</time></trkpt><trkpt lat="43.47238767339989" lon="12.242196849182609"><ele>290.0</ele><time>2026-04-26T08:58:54Z</time></trkpt><trkpt lat="43.472352852776694" lon="12.242349938878501"><ele>290.0</ele><time>2026-04-26T08:58:55Z</time></trkpt><trkpt lat="43.4723149744485" lon="12.242512670500155"><ele>290.0</ele><time>2026-04-26T08:58:56Z</time></trkpt><trkpt lat="43.472277374996864" lon="12.24266790631307"><ele>290.0</ele><time>2026-04-26T08:58:57Z</time></trkpt><trkpt lat="43.47224092402116" lon="12.24280947824929"><ele>290.0</ele><time>2026-04-26T08:58:58Z</time></trkpt><trkpt lat="43.472207756397445" lon="12.242952498119749"><ele>290.0</ele><time>2026-04-26T08:58:59Z</time></trkpt><trkpt lat="43.47218003164457" lon="12.243086457912774"><ele>290.0</ele><time>2026-04-26T08:59:00Z</time></trkpt><trkpt lat="43.47215421445269" lon="12.243219569958052"><ele>290.0</ele><time>2026-04-26T08:59:01Z</time></trkpt><trkpt lat="43.472117260460216" lon="12.243368067138597"><ele>290.0</ele><time>2026-04-26T08:59:02Z</time></trkpt><trkpt lat="43.47207313866724" lon="12.243518274495797"><ele>290.0</ele><time>2026-04-26T08:59:03Z</time></trkpt><trkpt lat="43.47203178470387" lon="12.243657969949007"><ele>290.0</ele><time>2026-04-26T08:59:04Z</time></trkpt><trkpt lat="43.4720079315804" lon="12.243778107071533"><ele>290.0</ele><time>2026-04-26T08:59:05Z</time></trkpt><trkpt lat="43.471982398519465" lon="12.243888365049054"><ele>290.2</ele><time>2026-04-26T08:59:06Z</time></trkpt><trkpt lat="43.471958636054644" lon="12.244001582906229"><ele>290.4</ele><time>2026-04-26T08:59:07Z</time></trkpt><trkpt lat="43.47192429213349" lon="12.244138687320763"><ele>290.6</ele><time>2026-04-26T08:59:08Z</time></trkpt><trkpt lat="43.47188620692573" lon="12.244296519148827"><ele>290.8</ele><time>2026-04-26T08:59:09Z</time></trkpt><trkpt lat="43.47184217067471" lon="12.24446568745845"><ele>291.0</ele><time>2026-04-26T08:59:10Z</time></trkpt><trkpt lat="43.47179814458534" lon="12.244642397030974"><ele>291.0</ele><time>2026-04-26T08:59:11Z</time></trkpt><trkpt lat="43.47175223989597" lon="12.244826970505887"><ele>291.0</ele><time>2026-04-26T08:59:12Z</time></trkpt><trkpt lat="43.471709181071816" lon="12.244995296308023"><ele>291.0</ele><time>2026-04-26T08:59:13Z</time></trkpt><trkpt lat="43.471662869184634" lon="12.245163317546657"><ele>291.0</ele><time>2026-04-26T08:59:14Z</time></trkpt><trkpt lat="43.47161279973177" lon="12.245308545349012"><ele>291.0</ele><time>2026-04-26T08:59:15Z</time></trkpt><trkpt lat="43.47155369614566" lon="12.24543478072101"><ele>291.0</ele><time>2026-04-26T08:59:16Z</time></trkpt><trkpt lat="43.47147010558138" lon="12.24554242726427"><ele>291.0</ele><time>2026-04-26T08:59:17Z</time></trkpt><trkpt lat="43.471396658301714" lon="12.245659672816847"><ele>291.0</ele><time>2026-04-26T08:59:18Z</time></trkpt><trkpt lat="43.47126546197853" lon="12.245691394177843"><ele>291.25</ele><time>2026-04-26T08:59:19Z</time></trkpt><trkpt lat="43.4711704552387" lon="12.245786163849505"><ele>291.5</ele><time>2026-04-26T08:59:20Z</time></trkpt><trkpt lat="43.47111519797251" lon="12.245924936183565"><ele>291.75</ele><time>2026-04-26T08:59:21Z</time></trkpt><trkpt lat="43.4710840671809" lon="12.24608460386553"><ele>292.0</ele><time>2026-04-26T08:59:22Z</time></trkpt><trkpt lat="43.47109268366441" lon="12.246246187899676"><ele>292.0</ele><time>2026-04-26T08:59:23Z</time></trkpt><trkpt lat="43.47113518411816" lon="12.246411326397311"><ele>292.0</ele><time>2026-04-26T08:59:24Z</time></trkpt><trkpt lat="43.47119064364511" lon="12.246591254920922"><ele>292.0</ele><time>2026-04-26T08:59:25Z</time></trkpt><trkpt lat="43.47120615263295" lon="12.246805650725307"><ele>292.0</ele><time>2026-04-26T08:59:26Z</time></trkpt><trkpt lat="43.47118614940298" lon="12.246998088351619"><ele>292.3333333333333</ele><time>2026-04-26T08:59:27Z</time></trkpt><trkpt lat="43.47110328616796" lon="12.247210322801655"><ele>292.6666666666667</ele><time>2026-04-26T08:59:28Z</time></trkpt><trkpt lat="43.471029524839736" lon="12.247427701909835"><ele>293.0</ele><time>2026-04-26T08:59:29Z</time></trkpt><trkpt lat="43.47097229205295" lon="12.247650502074992"><ele>293.0</ele><time>2026-04-26T08:59:30Z</time></trkpt><trkpt lat="43.47091474492312" lon="12.24788569276788"><ele>293.0</ele><time>2026-04-26T08:59:31Z</time></trkpt><trkpt lat="43.470858864788" lon="12.248126854239977"><ele>293.0</ele><time>2026-04-26T08:59:32Z</time></trkpt><trkpt lat="43.47080791101253" lon="12.248380222610205"><ele>293.0</ele><time>2026-04-26T08:59:33Z</time></trkpt><trkpt lat="43.47076224519904" lon="12.248636476080392"><ele>293.0</ele><time>2026-04-26T08:59:34Z</time></trkpt><trkpt lat="43.470722458305275" lon="12.248881748251987"><ele>293.0</ele><time>2026-04-26T08:59:35Z</time></trkpt><trkpt lat="43.47068639620743" lon="12.249136585848772"><ele>293.33333333333337</ele><time>2026-04-26T08:59:36Z</time></trkpt><trkpt lat="43.470658350569174" lon="12.249395779056496"><ele>293.6666666666667</ele><time>2026-04-26T08:59:37Z</time></trkpt><trkpt lat="43.47063517424075" lon="12.249655420289335"><ele>294.0</ele><time>2026-04-26T08:59:38Z</time></trkpt><trkpt lat="43.47061864440894" lon="12.249910445935342"><ele>294.6666666666667</ele><time>2026-04-26T08:59:39Z</time></trkpt><trkpt lat="43.47061589928361" lon="12.25015726808334"><ele>295.33333333333337</ele><time>2026-04-26T08:59:40Z</time></trkpt><trkpt lat="43.47061135995219" lon="12.250408640118057"><ele>296.0</ele><time>2026-04-26T08:59:41Z</time></trkpt><trkpt lat="43.470609387548336" lon="12.250661612834804"><ele>296.0</ele><time>2026-04-26T08:59:42Z</time></trkpt><trkpt lat="43.47060951981983" lon="12.25091222728934"><ele>296.0</ele><time>2026-04-26T08:59:43Z</time></trkpt><trkpt lat="43.47061330606502" lon="12.251168011438272"><ele>296.0</ele><time>2026-04-26T08:59:44Z</time></trkpt><trkpt lat="43.47062064958624" lon="12.251425140446496"><ele>296.33333333333337</ele><time>2026-04-26T08:59:45Z</time></trkpt><trkpt lat="43.47062805937502" lon="12.251687043856657"><ele>296.6666666666667</ele><time>2026-04-26T08:59:46Z</time></trkpt><trkpt lat="43.47063725490153" lon="12.251950078979073"><ele>297.0</ele><time>2026-04-26T08:59:47Z</time></trkpt><trkpt lat="43.47064465335502" lon="12.252225012817213"><ele>297.3333333333333</ele><time>2026-04-26T08:59:48Z</time></trkpt><trkpt lat="43.47065052825852" lon="12.252503363662168"><ele>297.66666666666663</ele><time>2026-04-26T08:59:49Z</time></trkpt><trkpt lat="43.47065641110035" lon="12.252783472363527"><ele>298.0</ele><time>2026-04-26T08:59:50Z</time></trkpt><trkpt lat="43.47066832325943" lon="12.25306468221564"><ele>299.0</ele><time>2026-04-26T08:59:51Z</time></trkpt><trkpt lat="43.470690858986686" lon="12.253348029393917"><ele>300.0</ele><time>2026-04-26T08:59:52Z</time></trkpt><trkpt lat="43.470709161215694" lon="12.253628109509405"><ele>301.0</ele><time>2026-04-26T08:59:53Z</time></trkpt><trkpt lat="43.47075582031486" lon="12.253897105207816"><ele>301.3333333333333</ele><time>2026-04-26T08:59:54Z</time></trkpt><trkpt lat="43.47080371077512" lon="12.254154894818182"><ele>301.6666666666667</ele><time>2026-04-26T08:59:55Z</time></trkpt><trkpt lat="43.47084990253437" lon="12.254400749132058"><ele>302.0</ele><time>2026-04-26T08:59:56Z</time></trkpt><trkpt lat="43.470892079564" lon="12.254623273269322"><ele>302.75</ele><time>2026-04-26T08:59:57Z</time></trkpt><trkpt lat="43.470930319352696" lon="12.254817515669517"><ele>303.5</ele><time>2026-04-26T08:59:58Z</time></trkpt><trkpt lat="43.47095993111054" lon="12.254967930977237"><ele>304.25</ele><time>2026-04-26T08:59:59Z</time></trkpt><trkpt lat="43.4709962697993" lon="12.255077605543661"><ele>305.0</ele><time>2026-04-26T09:00:00Z</time></trkpt><trkpt lat="43.47098397285347" lon="12.255241387337664"><ele>305.0</ele><time>2026-04-26T09:00:02Z</time></trkpt><trkpt lat="43.47095801647958" lon="12.255355681619214"><ele>305.0</ele><time>2026-04-26T09:00:03Z</time></trkpt><trkpt lat="43.470928851444945" lon="12.25548668263281"><ele>305.0</ele><time>2026-04-26T09:00:04Z</time></trkpt><trkpt lat="43.47093218446183" lon="12.255628898507945"><ele>305.0</ele><time>2026-04-26T09:00:05Z</time></trkpt><trkpt lat="43.470987208990024" lon="12.255769737880634"><ele>305.0</ele><time>2026-04-26T09:00:06Z</time></trkpt><trkpt lat="43.471110473287084" lon="12.255845093119566"><ele>305.5</ele><time>2026-04-26T09:00:07Z</time></trkpt><trkpt lat="43.4711846882343" lon="12.255975932476824"><ele>306.0</ele><time>2026-04-26T09:00:08Z</time></trkpt><trkpt lat="43.471203152563085" lon="12.256160079061862"><ele>306.5</ele><time>2026-04-26T09:00:09Z</time></trkpt><trkpt lat="43.47123977145733" lon="12.256364467422076"><ele>307.0</ele><time>2026-04-26T09:00:10Z</time></trkpt><trkpt lat="43.47127927065144" lon="12.256584932302571"><ele>307.3333333333333</ele><time>2026-04-26T09:00:11Z</time></trkpt><trkpt lat="43.47132018787331" lon="12.256813312175279"><ele>307.6666666666667</ele><time>2026-04-26T09:00:12Z</time></trkpt><trkpt lat="43.47137496968018" lon="12.257040181399072"><ele>308.0</ele><time>2026-04-26T09:00:13Z</time></trkpt><trkpt lat="43.471400759049075" lon="12.257280010989575"><ele>308.33333333333337</ele><time>2026-04-26T09:00:14Z</time></trkpt><trkpt lat="43.471433181111266" lon="12.257508377930831"><ele>308.6666666666667</ele><time>2026-04-26T09:00:15Z</time></trkpt><trkpt lat="43.471480366076115" lon="12.257736246666612"><ele>309.0</ele><time>2026-04-26T09:00:16Z</time></trkpt><trkpt lat="43.47152229047881" lon="12.257963452828232"><ele>310.0</ele><time>2026-04-26T09:00:17Z</time></trkpt><trkpt lat="43.47158384506865" lon="12.25817502753321"><ele>311.0</ele><time>2026-04-26T09:00:18Z</time></trkpt><trkpt lat="43.471634776044326" lon="12.258393119542722"><ele>312.0</ele><time>2026-04-26T09:00:19Z</time></trkpt><trkpt lat="43.47169819994687" lon="12.258604603317927"><ele>312.0</ele><time>2026-04-26T09:00:20Z</time></trkpt><trkpt lat="43.471758147133784" lon="12.258822970390868"><ele>312.0</ele><time>2026-04-26T09:00:21Z</time></trkpt><trkpt lat="43.47184846170792" lon="12.259025468674729"><ele>312.0</ele><time>2026-04-26T09:00:22Z</time></trkpt><trkpt lat="43.47196382988446" lon="12.25920190251823"><ele>313.0</ele><time>2026-04-26T09:00:23Z</time></trkpt><trkpt lat="43.472082150415986" lon="12.259384638849681"><ele>314.0</ele><time>2026-04-26T09:00:24Z</time></trkpt><trkpt lat="43.4722041639439" lon="12.259586657950834"><ele>315.0</ele><time>2026-04-26T09:00:25Z</time></trkpt><trkpt lat="43.472339476189745" lon="12.259776197242381"><ele>316.6666666666667</ele><time>2026-04-26T09:00:26Z</time></trkpt><trkpt lat="43.4724760903468" lon="12.259961246426615"><ele>318.33333333333337</ele><time>2026-04-26T09:00:27Z</time></trkpt><trkpt lat="43.4726156330946" lon="12.260149195270621"><ele>320.0</ele><time>2026-04-26T09:00:28Z</time></trkpt><trkpt lat="43.47275595035463" lon="12.260338049281968"><ele>320.0</ele><time>2026-04-26T09:00:29Z</time></trkpt><trkpt lat="43.47289848884324" lon="12.260529892918612"><ele>320.0</ele><time>2026-04-26T09:00:30Z</time></trkpt><trkpt lat="43.473042889311586" lon="12.260723714111458"><ele>320.0</ele><time>2026-04-26T09:00:31Z</time></trkpt><trkpt lat="43.47318658371495" lon="12.260917049705288"><ele>321.0</ele><time>2026-04-26T09:00:32Z</time></trkpt><trkpt lat="43.473327431541975" lon="12.261106524114286"><ele>322.0</ele><time>2026-04-26T09:00:33Z</time></trkpt><trkpt lat="43.473466003725875" lon="12.26129531032061"><ele>323.0</ele><time>2026-04-26T09:00:34Z</time></trkpt><trkpt lat="43.47360175652268" lon="12.261481232393532"><ele>323.6666666666667</ele><time>2026-04-26T09:00:35Z</time></trkpt><trkpt lat="43.473731690735136" lon="12.261659213579218"><ele>324.3333333333333</ele><time>2026-04-26T09:00:36Z</time></trkpt><trkpt lat="43.473858149133896" lon="12.261832433890971"><ele>325.0</ele><time>2026-04-26T09:00:37Z</time></trkpt><trkpt lat="43.473976374051404" lon="12.261994376328975"><ele>325.0</ele><time>2026-04-26T09:00:38Z</time></trkpt><trkpt lat="43.474084775704675" lon="12.26214286275827"><ele>325.0</ele><time>2026-04-26T09:00:39Z</time></trkpt><trkpt lat="43.47418842948478" lon="12.262283584679901"><ele>325.0</ele><time>2026-04-26T09:00:40Z</time></trkpt><trkpt lat="43.474291140608" lon="12.262421272858406"><ele>325.0</ele><time>2026-04-26T09:00:41Z</time></trkpt><trkpt lat="43.47438746599822" lon="12.262550400748754"><ele>327.0</ele><time>2026-04-26T09:00:42Z</time></trkpt><trkpt lat="43.474474110269014" lon="12.262666035550708"><ele>329.0</ele><time>2026-04-26T09:00:43Z</time></trkpt><trkpt lat="43.47455508347773" lon="12.262774435848147"><ele>331.0</ele><time>2026-04-26T09:00:44Z</time></trkpt><trkpt lat="43.474626830708" lon="12.26287327504184"><ele>333.0</ele><time>2026-04-26T09:00:45Z</time></trkpt><trkpt lat="43.47470876244736" lon="12.262997530927533"><ele>336.0</ele><time>2026-04-26T09:00:46Z</time></trkpt><trkpt lat="43.474774818431094" lon="12.263115317360946"><ele>339.0</ele><time>2026-04-26T09:00:47Z</time></trkpt><trkpt lat="43.47478805696847" lon="12.263284782597509"><ele>342.0</ele><time>2026-04-26T09:00:48Z</time></trkpt><trkpt lat="43.47476353870241" lon="12.263461550582978"><ele>345.0</ele><time>2026-04-26T09:00:49Z</time></trkpt><trkpt lat="43.474708562801474" lon="12.26362235906082"><ele>345.0</ele><time>2026-04-26T09:00:50Z</time></trkpt><trkpt lat="43.474648467977666" lon="12.2637667972931"><ele>345.0</ele><time>2026-04-26T09:00:51Z</time></trkpt><trkpt lat="43.47460238681647" lon="12.26392266704007"><ele>345.0</ele><time>2026-04-26T09:00:52Z</time></trkpt><trkpt lat="43.474567668754204" lon="12.264080219324274"><ele>345.0</ele><time>2026-04-26T09:00:53Z</time></trkpt><trkpt lat="43.47455310024039" lon="12.264248126571793"><ele>344.25</ele><time>2026-04-26T09:00:54Z</time></trkpt><trkpt lat="43.47453491873757" lon="12.264425070854758"><ele>343.5</ele><time>2026-04-26T09:00:55Z</time></trkpt><trkpt lat="43.47454483356009" lon="12.264598247616695"><ele>342.75</ele><time>2026-04-26T09:00:56Z</time></trkpt><trkpt lat="43.4745608535955" lon="12.264768388185928"><ele>342.0</ele><time>2026-04-26T09:00:57Z</time></trkpt><trkpt lat="43.47458221334137" lon="12.264938326105035"><ele>345.25</ele><time>2026-04-26T09:00:58Z</time></trkpt><trkpt lat="43.47461296648984" lon="12.265102028453871"><ele>348.5</ele><time>2026-04-26T09:00:59Z</time></trkpt><trkpt lat="43.47465649605066" lon="12.26526579620864"><ele>351.75</ele><time>2026-04-26T09:01:00Z</time></trkpt><trkpt lat="43.47470939722072" lon="12.265422307038424"><ele>355.0</ele><time>2026-04-26T09:01:01Z</time></trkpt><trkpt lat="43.47476952655567" lon="12.265570767968432"><ele>354.5</ele><time>2026-04-26T09:01:02Z</time></trkpt><trkpt lat="43.47483696023204" lon="12.26571661851996"><ele>354.0</ele><time>2026-04-26T09:01:03Z</time></trkpt><trkpt lat="43.474919751633266" lon="12.265843659604235"><ele>353.5</ele><time>2026-04-26T09:01:04Z</time></trkpt><trkpt lat="43.47497177452177" lon="12.265995255942249"><ele>353.0</ele><time>2026-04-26T09:01:05Z</time></trkpt><trkpt lat="43.475023019240176" lon="12.266141123812709"><ele>353.0</ele><time>2026-04-26T09:01:06Z</time></trkpt><trkpt lat="43.475062281703515" lon="12.266291717844679"><ele>353.0</ele><time>2026-04-26T09:01:07Z</time></trkpt><trkpt lat="43.47508179600741" lon="12.266454067998312"><ele>353.0</ele><time>2026-04-26T09:01:08Z</time></trkpt><trkpt lat="43.475084074298415" lon="12.266612650674006"><ele>353.0</ele><time>2026-04-26T09:01:09Z</time></trkpt><trkpt lat="43.47508730264023" lon="12.266766777097105"><ele>353.59999999999997</ele><time>2026-04-26T09:01:10Z</time></trkpt><trkpt lat="43.47505006157332" lon="12.266908792491378"><ele>354.2</ele><time>2026-04-26T09:01:11Z</time></trkpt><trkpt lat="43.47503545107067" lon="12.267061811433772"><ele>354.8</ele><time>2026-04-26T09:01:12Z</time></trkpt><trkpt lat="43.47501444170881" lon="12.267209735836861"><ele>355.4</ele><time>2026-04-26T09:01:13Z</time></trkpt><trkpt lat="43.475002049098286" lon="12.267371172226502"><ele>356.0</ele><time>2026-04-26T09:01:14Z</time></trkpt><trkpt lat="43.475022453580934" lon="12.267523326860523"><ele>356.0</ele><time>2026-04-26T09:01:15Z</time></trkpt><trkpt lat="43.475029246438254" lon="12.267695389698574"><ele>356.0</ele><time>2026-04-26T09:01:16Z</time></trkpt><trkpt lat="43.47506388615481" lon="12.267859456404272"><ele>356.0</ele><time>2026-04-26T09:01:17Z</time></trkpt><trkpt lat="43.47510854120306" lon="12.268018983825806"><ele>356.0</ele><time>2026-04-26T09:01:18Z</time></trkpt><trkpt lat="43.475155959633845" lon="12.268169960405467"><ele>356.25</ele><time>2026-04-26T09:01:19Z</time></trkpt><trkpt lat="43.475234413684326" lon="12.268311353582167"><ele>356.5</ele><time>2026-04-26T09:01:20Z</time></trkpt><trkpt lat="43.475292319263374" lon="12.268465377109187"><ele>356.75</ele><time>2026-04-26T09:01:21Z</time></trkpt><trkpt lat="43.47535322879945" lon="12.268608302206847"><ele>357.0</ele><time>2026-04-26T09:01:22Z</time></trkpt><trkpt lat="43.47541645201452" lon="12.26875263595236"><ele>361.25</ele><time>2026-04-26T09:01:23Z</time></trkpt><trkpt lat="43.4754511305521" lon="12.268924196771657"><ele>365.5</ele><time>2026-04-26T09:01:24Z</time></trkpt><trkpt lat="43.47552161772695" lon="12.269064083970488"><ele>369.75</ele><time>2026-04-26T09:01:25Z</time></trkpt><trkpt lat="43.4755927640498" lon="12.269192448699501"><ele>374.0</ele><time>2026-04-26T09:01:26Z</time></trkpt><trkpt lat="43.47567823037971" lon="12.269314240213566"><ele>374.0</ele><time>2026-04-26T09:01:27Z</time></trkpt><trkpt lat="43.47578325641968" lon="12.269412320587458"><ele>374.0</ele><time>2026-04-26T09:01:28Z</time></trkpt><trkpt lat="43.47590649035183" lon="12.269477601196233"><ele>374.0</ele><time>2026-04-26T09:01:29Z</time></trkpt><trkpt lat="43.47603326881256" lon="12.269515293565187"><ele>374.0</ele><time>2026-04-26T09:01:30Z</time></trkpt><trkpt lat="43.47615215558974" lon="12.269542313522672"><ele>374.0</ele><time>2026-04-26T09:01:31Z</time></trkpt><trkpt lat="43.47625777492244" lon="12.269565984896886"><ele>374.0</ele><time>2026-04-26T09:01:32Z</time></trkpt><trkpt lat="43.4763567087813" lon="12.269588708841681"><ele>374.0</ele><time>2026-04-26T09:01:33Z</time></trkpt><trkpt lat="43.47645017931953" lon="12.269609057090024"><ele>374.0</ele><time>2026-04-26T09:01:34Z</time></trkpt><trkpt lat="43.47653138963929" lon="12.269619076048999"><ele>374.0</ele><time>2026-04-26T09:01:35Z</time></trkpt><trkpt lat="43.4765991799656" lon="12.26960525850827"><ele>374.57142857142856</ele><time>2026-04-26T09:01:36Z</time></trkpt><trkpt lat="43.476666575961595" lon="12.269572177700404"><ele>375.14285714285717</ele><time>2026-04-26T09:01:37Z</time></trkpt><trkpt lat="43.47671600494719" lon="12.26949485391531"><ele>375.7142857142857</ele><time>2026-04-26T09:01:38Z</time></trkpt><trkpt lat="43.476744177683976" lon="12.269410586932604"><ele>376.2857142857143</ele><time>2026-04-26T09:01:39Z</time></trkpt><trkpt lat="43.47673641988389" lon="12.269306380951468"><ele>376.8571428571429</ele><time>2026-04-26T09:01:40Z</time></trkpt><trkpt lat="43.47671622248792" lon="12.269207932663267"><ele>377.42857142857144</ele><time>2026-04-26T09:01:41Z</time></trkpt><trkpt lat="43.47666594627876" lon="12.269131602951449"><ele>378.0</ele><time>2026-04-26T09:01:42Z</time></trkpt><trkpt lat="43.47660413618673" lon="12.269102307614475"><ele>378.0</ele><time>2026-04-26T09:01:43Z</time></trkpt><trkpt lat="43.47652025803414" lon="12.269085031207856"><ele>378.0</ele><time>2026-04-26T09:01:44Z</time></trkpt><trkpt lat="43.47645713207519" lon="12.269077053633783"><ele>378.0</ele><time>2026-04-26T09:01:45Z</time></trkpt><trkpt lat="43.47636442249852" lon="12.269060038583117"><ele>378.0</ele><time>2026-04-26T09:01:46Z</time></trkpt><trkpt lat="43.476252542940244" lon="12.269047098489883"><ele>378.0</ele><time>2026-04-26T09:01:47Z</time></trkpt><trkpt lat="43.476132426364664" lon="12.269032123344184"><ele>377.2</ele><time>2026-04-26T09:01:48Z</time></trkpt><trkpt lat="43.476025112275295" lon="12.268981795803162"><ele>376.4</ele><time>2026-04-26T09:01:49Z</time></trkpt><trkpt lat="43.47591756489622" lon="12.26890555703732"><ele>375.59999999999997</ele><time>2026-04-26T09:01:50Z</time></trkpt><trkpt lat="43.47584006450389" lon="12.268805870802634"><ele>374.79999999999995</ele><time>2026-04-26T09:01:51Z</time></trkpt><trkpt lat="43.47577522405673" lon="12.268691849060314"><ele>374.0</ele><time>2026-04-26T09:01:52Z</time></trkpt><trkpt lat="43.47572907372688" lon="12.268548514522013"><ele>376.0</ele><time>2026-04-26T09:01:53Z</time></trkpt><trkpt lat="43.4756725442144" lon="12.268392173130103"><ele>378.0</ele><time>2026-04-26T09:01:54Z</time></trkpt><trkpt lat="43.47562845998691" lon="12.268252742271537"><ele>380.0</ele><time>2026-04-26T09:01:55Z</time></trkpt><trkpt lat="43.475604242395676" lon="12.268104654563368"><ele>382.0</ele><time>2026-04-26T09:01:56Z</time></trkpt><trkpt lat="43.47558644950205" lon="12.267962441107423"><ele>382.75</ele><time>2026-04-26T09:01:57Z</time></trkpt><trkpt lat="43.47559615847623" lon="12.26780827516699"><ele>383.5</ele><time>2026-04-26T09:01:58Z</time></trkpt><trkpt lat="43.475640106897806" lon="12.267662555458285"><ele>384.25</ele><time>2026-04-26T09:01:59Z</time></trkpt><trkpt lat="43.475693684454406" lon="12.267509609645092"><ele>385.0</ele><time>2026-04-26T09:02:00Z</time></trkpt><trkpt lat="43.47575666526728" lon="12.2673616874348"><ele>383.25</ele><time>2026-04-26T09:02:01Z</time></trkpt><trkpt lat="43.47582130827264" lon="12.267207954053557"><ele>381.5</ele><time>2026-04-26T09:02:02Z</time></trkpt><trkpt lat="43.47587745602944" lon="12.267063235282311"><ele>379.75</ele><time>2026-04-26T09:02:03Z</time></trkpt><trkpt lat="43.47592665230643" lon="12.266925266944172"><ele>378.0</ele><time>2026-04-26T09:02:04Z</time></trkpt><trkpt lat="43.475975290644016" lon="12.266773362803665"><ele>378.0</ele><time>2026-04-26T09:02:05Z</time></trkpt><trkpt lat="43.476013733965154" lon="12.266618933302492"><ele>378.0</ele><time>2026-04-26T09:02:06Z</time></trkpt><trkpt lat="43.47605474268935" lon="12.266451203520637"><ele>378.0</ele><time>2026-04-26T09:02:07Z</time></trkpt><trkpt lat="43.4760884603048" lon="12.266286030323863"><ele>378.0</ele><time>2026-04-26T09:02:08Z</time></trkpt><trkpt lat="43.47610310454287" lon="12.266130972437544"><ele>377.0</ele><time>2026-04-26T09:02:09Z</time></trkpt><trkpt lat="43.47611101799014" lon="12.265972958571249"><ele>376.0</ele><time>2026-04-26T09:02:10Z</time></trkpt><trkpt lat="43.47611183335151" lon="12.265800592695404"><ele>375.0</ele><time>2026-04-26T09:02:11Z</time></trkpt><trkpt lat="43.476092613576235" lon="12.265628844309168"><ele>374.0</ele><time>2026-04-26T09:02:12Z</time></trkpt><trkpt lat="43.47606909211109" lon="12.265466783413991"><ele>374.0</ele><time>2026-04-26T09:02:13Z</time></trkpt><trkpt lat="43.476036228716985" lon="12.265316776290373"><ele>374.0</ele><time>2026-04-26T09:02:14Z</time></trkpt><trkpt lat="43.47599640583081" lon="12.26516693259255"><ele>374.0</ele><time>2026-04-26T09:02:15Z</time></trkpt><trkpt lat="43.47596846377421" lon="12.265013600621268"><ele>374.0</ele><time>2026-04-26T09:02:16Z</time></trkpt><trkpt lat="43.47592375956578" lon="12.264873417523345"><ele>373.6</ele><time>2026-04-26T09:02:17Z</time></trkpt><trkpt lat="43.47593057482665" lon="12.264736066850901"><ele>373.2</ele><time>2026-04-26T09:02:18Z</time></trkpt><trkpt lat="43.475934873149626" lon="12.264602608155961"><ele>372.8</ele><time>2026-04-26T09:02:19Z</time></trkpt><trkpt lat="43.47596186476266" lon="12.264471164747139"><ele>372.40000000000003</ele><time>2026-04-26T09:02:20Z</time></trkpt><trkpt lat="43.47601259671144" lon="12.264358394812318"><ele>372.0</ele><time>2026-04-26T09:02:21Z</time></trkpt><trkpt lat="43.47608217533852" lon="12.26426663560261"><ele>372.0</ele><time>2026-04-26T09:02:22Z</time></trkpt><trkpt lat="43.47617988617048" lon="12.264203626966518"><ele>372.0</ele><time>2026-04-26T09:02:23Z</time></trkpt><trkpt lat="43.47629178254473" lon="12.264161166774631"><ele>372.0</ele><time>2026-04-26T09:02:24Z</time></trkpt><trkpt lat="43.47639592239922" lon="12.264144551747176"><ele>372.0</ele><time>2026-04-26T09:02:25Z</time></trkpt><trkpt lat="43.47650411220837" lon="12.264129127568669"><ele>372.0</ele><time>2026-04-26T09:02:26Z</time></trkpt><trkpt lat="43.47661652612065" lon="12.264115047006642"><ele>376.25</ele><time>2026-04-26T09:02:27Z</time></trkpt><trkpt lat="43.47673498795628" lon="12.264108878671975"><ele>380.5</ele><time>2026-04-26T09:02:28Z</time></trkpt><trkpt lat="43.47686275274999" lon="12.264112141262531"><ele>384.75</ele><time>2026-04-26T09:02:29Z</time></trkpt><trkpt lat="43.477010681814996" lon="12.264144550647561"><ele>389.0</ele><time>2026-04-26T09:02:30Z</time></trkpt><trkpt lat="43.47719861968848" lon="12.264188288067723"><ele>389.66666666666663</ele><time>2026-04-26T09:02:31Z</time></trkpt><trkpt lat="43.47740551568855" lon="12.264236063077872"><ele>390.33333333333337</ele><time>2026-04-26T09:02:32Z</time></trkpt><trkpt lat="43.477628381912865" lon="12.264290166981706"><ele>391.0</ele><time>2026-04-26T09:02:33Z</time></trkpt><trkpt lat="43.477870986797015" lon="12.264347980345883"><ele>390.0</ele><time>2026-04-26T09:02:34Z</time></trkpt><trkpt lat="43.47810691335106" lon="12.264405199828369"><ele>389.0</ele><time>2026-04-26T09:02:35Z</time></trkpt><trkpt lat="43.478330747443486" lon="12.264503532331808"><ele>389.0</ele><time>2026-04-26T09:02:36Z</time></trkpt><trkpt lat="43.478525211225644" lon="12.264613661793584"><ele>389.0</ele><time>2026-04-26T09:02:37Z</time></trkpt><trkpt lat="43.478690919459254" lon="12.264709878619435"><ele>389.0</ele><time>2026-04-26T09:02:38Z</time></trkpt><trkpt lat="43.47881445417871" lon="12.264783744838107"><ele>389.6</ele><time>2026-04-26T09:02:39Z</time></trkpt><trkpt lat="43.478914850405076" lon="12.264856381575218"><ele>390.2</ele><time>2026-04-26T09:02:40Z</time></trkpt><trkpt lat="43.478982955282696" lon="12.264940009599183"><ele>390.8</ele><time>2026-04-26T09:02:41Z</time></trkpt><trkpt lat="43.47901381538155" lon="12.265048429646209"><ele>391.40000000000003</ele><time>2026-04-26T09:02:42Z</time></trkpt><trkpt lat="43.47897139409222" lon="12.265156240000346"><ele>392.0</ele><time>2026-04-26T09:02:43Z</time></trkpt><trkpt lat="43.478901117096804" lon="12.265207253996085"><ele>392.0</ele><time>2026-04-26T09:02:44Z</time></trkpt><trkpt lat="43.47879815585937" lon="12.265199454994155"><ele>392.0</ele><time>2026-04-26T09:02:45Z</time></trkpt><trkpt lat="43.478665532331995" lon="12.265148953748291"><ele>392.0</ele><time>2026-04-26T09:02:46Z</time></trkpt><trkpt lat="43.478515160039215" lon="12.265061653325798"><ele>392.0</ele><time>2026-04-26T09:02:47Z</time></trkpt><trkpt lat="43.47833715135303" lon="12.264972511769972"><ele>397.0</ele><time>2026-04-26T09:02:48Z</time></trkpt><trkpt lat="43.478150779713665" lon="12.264908456528856"><ele>402.0</ele><time>2026-04-26T09:02:49Z</time></trkpt><trkpt lat="43.47795180554128" lon="12.264847575499076"><ele>407.0</ele><time>2026-04-26T09:02:50Z</time></trkpt><trkpt lat="43.47776685120026" lon="12.264792151294388"><ele>401.66666666666663</ele><time>2026-04-26T09:02:51Z</time></trkpt><trkpt lat="43.47758500329709" lon="12.264739213228841"><ele>396.33333333333337</ele><time>2026-04-26T09:02:52Z</time></trkpt><trkpt lat="43.47742219122601" lon="12.264705172479669"><ele>391.0</ele><time>2026-04-26T09:02:53Z</time></trkpt><trkpt lat="43.477282401653376" lon="12.26467798743511"><ele>391.0</ele><time>2026-04-26T09:02:54Z</time></trkpt><trkpt lat="43.4771655640027" lon="12.264691504681283"><ele>391.0</ele><time>2026-04-26T09:02:55Z</time></trkpt><trkpt lat="43.47705617022292" lon="12.264767131811302"><ele>391.0</ele><time>2026-04-26T09:02:56Z</time></trkpt><trkpt lat="43.476981895084556" lon="12.264913251374232"><ele>391.0</ele><time>2026-04-26T09:02:57Z</time></trkpt><trkpt lat="43.476932087430804" lon="12.265069678732521"><ele>393.6666666666667</ele><time>2026-04-26T09:02:58Z</time></trkpt><trkpt lat="43.47690278985412" lon="12.265275228916753"><ele>396.33333333333337</ele><time>2026-04-26T09:02:59Z</time></trkpt><trkpt lat="43.47692491948168" lon="12.26549015178036"><ele>399.0</ele><time>2026-04-26T09:03:00Z</time></trkpt><trkpt lat="43.47695437556024" lon="12.265701271883566"><ele>399.0</ele><time>2026-04-26T09:03:01Z</time></trkpt><trkpt lat="43.47699359793676" lon="12.265930521953594"><ele>399.0</ele><time>2026-04-26T09:03:02Z</time></trkpt><trkpt lat="43.47703696969449" lon="12.266163399577755"><ele>399.0</ele><time>2026-04-26T09:03:03Z</time></trkpt><trkpt lat="43.477083894472166" lon="12.2663964259982"><ele>407.33333333333337</ele><time>2026-04-26T09:03:04Z</time></trkpt><trkpt lat="43.47713464998723" lon="12.2666384916659"><ele>415.6666666666667</ele><time>2026-04-26T09:03:05Z</time></trkpt><trkpt lat="43.47720953241194" lon="12.266834922814342"><ele>424.0</ele><time>2026-04-26T09:03:06Z</time></trkpt><trkpt lat="43.47730866070603" lon="12.267031656813444"><ele>424.0</ele><time>2026-04-26T09:03:07Z</time></trkpt><trkpt lat="43.4774120946728" lon="12.26721285888789"><ele>424.0</ele><time>2026-04-26T09:03:08Z</time></trkpt><trkpt lat="43.47754235544531" lon="12.267393700845325"><ele>424.0</ele><time>2026-04-26T09:03:09Z</time></trkpt><trkpt lat="43.47767604195526" lon="12.267568696333177"><ele>426.0</ele><time>2026-04-26T09:03:10Z</time></trkpt><trkpt lat="43.47779686606888" lon="12.267765239856457"><ele>428.0</ele><time>2026-04-26T09:03:11Z</time></trkpt><trkpt lat="43.47794443697674" lon="12.267917313881053"><ele>430.0</ele><time>2026-04-26T09:03:12Z</time></trkpt><trkpt lat="43.47807255475024" lon="12.268093681669047"><ele>428.6666666666667</ele><time>2026-04-26T09:03:13Z</time></trkpt><trkpt lat="43.478205971305044" lon="12.268270064052729"><ele>427.33333333333337</ele><time>2026-04-26T09:03:14Z</time></trkpt><trkpt lat="43.47832966614163" lon="12.26845560664188"><ele>426.0</ele><time>2026-04-26T09:03:15Z</time></trkpt><trkpt lat="43.47844016522797" lon="12.268642092327397"><ele>426.0</ele><time>2026-04-26T09:03:16Z</time></trkpt><trkpt lat="43.478580751821525" lon="12.268795685306326"><ele>426.0</ele><time>2026-04-26T09:03:17Z</time></trkpt><trkpt lat="43.47873024818373" lon="12.26893155375925"><ele>426.0</ele><time>2026-04-26T09:03:18Z</time></trkpt><trkpt lat="43.47888617270179" lon="12.26906453668066"><ele>427.0</ele><time>2026-04-26T09:03:19Z</time></trkpt><trkpt lat="43.479046984371614" lon="12.269197330794563"><ele>428.0</ele><time>2026-04-26T09:03:20Z</time></trkpt><trkpt lat="43.47920771166386" lon="12.269333643536436"><ele>429.0</ele><time>2026-04-26T09:03:21Z</time></trkpt><trkpt lat="43.47936079263299" lon="12.269489108184704"><ele>429.0</ele><time>2026-04-26T09:03:22Z</time></trkpt><trkpt lat="43.47950843607603" lon="12.269662116708517"><ele>429.0</ele><time>2026-04-26T09:03:23Z</time></trkpt><trkpt lat="43.4796486811289" lon="12.26985162969683"><ele>429.0</ele><time>2026-04-26T09:03:24Z</time></trkpt><trkpt lat="43.479798983380554" lon="12.270030169739437"><ele>432.33333333333337</ele><time>2026-04-26T09:03:25Z</time></trkpt><trkpt lat="43.479949423904934" lon="12.27020082232825"><ele>435.6666666666667</ele><time>2026-04-26T09:03:26Z</time></trkpt><trkpt lat="43.4800945533796" lon="12.2703661045472"><ele>439.0</ele><time>2026-04-26T09:03:27Z</time></trkpt><trkpt lat="43.480227870098815" lon="12.270541103687975"><ele>435.6666666666667</ele><time>2026-04-26T09:03:28Z</time></trkpt><trkpt lat="43.48034002828504" lon="12.27073983689079"><ele>432.33333333333337</ele><time>2026-04-26T09:03:29Z</time></trkpt><trkpt lat="43.48043045977495" lon="12.270961180563217"><ele>429.0</ele><time>2026-04-26T09:03:30Z</time></trkpt><trkpt lat="43.48051864639884" lon="12.271196514827857"><ele>435.0</ele><time>2026-04-26T09:03:31Z</time></trkpt><trkpt lat="43.480607444185345" lon="12.271430584623527"><ele>441.0</ele><time>2026-04-26T09:03:32Z</time></trkpt><trkpt lat="43.48069534050835" lon="12.271665287434324"><ele>447.0</ele><time>2026-04-26T09:03:33Z</time></trkpt><trkpt lat="43.480767101410734" lon="12.271903522333236"><ele>447.0</ele><time>2026-04-26T09:03:34Z</time></trkpt><trkpt lat="43.48082750176052" lon="12.27214981654611"><ele>447.0</ele><time>2026-04-26T09:03:35Z</time></trkpt><trkpt lat="43.480880045785284" lon="12.272377006536383"><ele>447.0</ele><time>2026-04-26T09:03:36Z</time></trkpt><trkpt lat="43.48092591846613" lon="12.27258185276927"><ele>447.5</ele><time>2026-04-26T09:03:37Z</time></trkpt><trkpt lat="43.48096333379034" lon="12.27275649036313"><ele>448.0</ele><time>2026-04-26T09:03:38Z</time></trkpt><trkpt lat="43.48097392058015" lon="12.272911101096469"><ele>448.5</ele><time>2026-04-26T09:03:39Z</time></trkpt><trkpt lat="43.480952053338626" lon="12.273054952228426"><ele>449.0</ele><time>2026-04-26T09:03:40Z</time></trkpt><trkpt lat="43.480894548946" lon="12.27321070215848"><ele>452.0</ele><time>2026-04-26T09:03:41Z</time></trkpt><trkpt lat="43.480751302806254" lon="12.273285851817745"><ele>455.0</ele><time>2026-04-26T09:03:42Z</time></trkpt><trkpt lat="43.48057857687865" lon="12.273285521195245"><ele>458.0</ele><time>2026-04-26T09:03:43Z</time></trkpt><trkpt lat="43.48042476580107" lon="12.273220935010613"><ele>453.3333333333333</ele><time>2026-04-26T09:03:44Z</time></trkpt><trkpt lat="43.48024600324614" lon="12.273072542193418"><ele>448.66666666666663</ele><time>2026-04-26T09:03:45Z</time></trkpt><trkpt lat="43.48007866586157" lon="12.272967977486024"><ele>444.0</ele><time>2026-04-26T09:03:46Z</time></trkpt><trkpt lat="43.47993332100914" lon="12.272923537308124"><ele>444.0</ele><time>2026-04-26T09:03:47Z</time></trkpt><trkpt lat="43.479773483169915" lon="12.272963000479105"><ele>444.0</ele><time>2026-04-26T09:03:48Z</time></trkpt><trkpt lat="43.47963589102504" lon="12.273065389148107"><ele>444.0</ele><time>2026-04-26T09:03:49Z</time></trkpt><trkpt lat="43.479567964335125" lon="12.273228045937078"><ele>447.0</ele><time>2026-04-26T09:03:50Z</time></trkpt><trkpt lat="43.479527341952796" lon="12.273423791083081"><ele>450.0</ele><time>2026-04-26T09:03:51Z</time></trkpt><trkpt lat="43.47956737731015" lon="12.27363000979256"><ele>453.0</ele><time>2026-04-26T09:03:52Z</time></trkpt><trkpt lat="43.479685891266435" lon="12.273803350392848"><ele>454.0</ele><time>2026-04-26T09:03:53Z</time></trkpt><trkpt lat="43.47983777375637" lon="12.273948841060022"><ele>455.0</ele><time>2026-04-26T09:03:54Z</time></trkpt><trkpt lat="43.48001918277218" lon="12.27409655624383"><ele>456.0</ele><time>2026-04-26T09:03:55Z</time></trkpt><trkpt lat="43.480212788985675" lon="12.274237020972356"><ele>456.0</ele><time>2026-04-26T09:03:56Z</time></trkpt><trkpt lat="43.480376102348814" lon="12.274326139431574"><ele>456.0</ele><time>2026-04-26T09:03:57Z</time></trkpt><trkpt lat="43.48056008646788" lon="12.274393079744668"><ele>456.0</ele><time>2026-04-26T09:03:58Z</time></trkpt><trkpt lat="43.48077765545553" lon="12.274387937803281"><ele>457.0</ele><time>2026-04-26T09:03:59Z</time></trkpt><trkpt lat="43.480984553998574" lon="12.274354558486209"><ele>458.0</ele><time>2026-04-26T09:04:00Z</time></trkpt><trkpt lat="43.48117166789705" lon="12.274333920111646"><ele>459.0</ele><time>2026-04-26T09:04:01Z</time></trkpt><trkpt lat="43.481343848101844" lon="12.274379564909935"><ele>460.0</ele><time>2026-04-26T09:04:02Z</time></trkpt><trkpt lat="43.481525518173385" lon="12.274446264699263"><ele>461.0</ele><time>2026-04-26T09:04:03Z</time></trkpt><trkpt lat="43.48170465556733" lon="12.274493018346924"><ele>462.0</ele><time>2026-04-26T09:04:04Z</time></trkpt><trkpt lat="43.481878940557124" lon="12.274575774199372"><ele>462.0</ele><time>2026-04-26T09:04:05Z</time></trkpt><trkpt lat="43.48206257310505" lon="12.27459927793099"><ele>462.0</ele><time>2026-04-26T09:04:06Z</time></trkpt><trkpt lat="43.48223340060498" lon="12.274656777915943"><ele>462.0</ele><time>2026-04-26T09:04:07Z</time></trkpt><trkpt lat="43.48240469815089" lon="12.274717415191953"><ele>462.0</ele><time>2026-04-26T09:04:08Z</time></trkpt><trkpt lat="43.48254975084023" lon="12.274850936054007"><ele>462.0</ele><time>2026-04-26T09:04:09Z</time></trkpt><trkpt lat="43.48267959242366" lon="12.27504065309872"><ele>462.0</ele><time>2026-04-26T09:04:10Z</time></trkpt><trkpt lat="43.482808998976076" lon="12.275257761206998"><ele>463.66666666666663</ele><time>2026-04-26T09:04:11Z</time></trkpt><trkpt lat="43.48294060547961" lon="12.275479691438225"><ele>465.3333333333333</ele><time>2026-04-26T09:04:12Z</time></trkpt><trkpt lat="43.48306186543998" lon="12.275684173904484"><ele>467.0</ele><time>2026-04-26T09:04:13Z</time></trkpt><trkpt lat="43.483140008604266" lon="12.275849751640763"><ele>467.0</ele><time>2026-04-26T09:04:14Z</time></trkpt><trkpt lat="43.48316939211893" lon="12.276027574384841"><ele>467.0</ele><time>2026-04-26T09:04:15Z</time></trkpt><trkpt lat="43.483124982855514" lon="12.276226442619047"><ele>467.0</ele><time>2026-04-26T09:04:16Z</time></trkpt><trkpt lat="43.483005292367196" lon="12.276375151570663"><ele>467.0</ele><time>2026-04-26T09:04:17Z</time></trkpt><trkpt lat="43.48281450027388" lon="12.276434696430503"><ele>468.66666666666663</ele><time>2026-04-26T09:04:18Z</time></trkpt><trkpt lat="43.482600173419684" lon="12.276467388924505"><ele>470.33333333333337</ele><time>2026-04-26T09:04:19Z</time></trkpt><trkpt lat="43.48237597794933" lon="12.276432009337466"><ele>472.0</ele><time>2026-04-26T09:04:20Z</time></trkpt><trkpt lat="43.482179509873696" lon="12.2764456544701"><ele>469.0</ele><time>2026-04-26T09:04:21Z</time></trkpt><trkpt lat="43.48202608267867" lon="12.276501169640365"><ele>466.0</ele><time>2026-04-26T09:04:22Z</time></trkpt><trkpt lat="43.481905642156036" lon="12.276608194381629"><ele>463.0</ele><time>2026-04-26T09:04:23Z</time></trkpt><trkpt lat="43.48183194652876" lon="12.276769750184084"><ele>460.0</ele><time>2026-04-26T09:04:24Z</time></trkpt><trkpt lat="43.481821917940586" lon="12.276980853618596"><ele>460.0</ele><time>2026-04-26T09:04:25Z</time></trkpt><trkpt lat="43.48188747145943" lon="12.277168347786318"><ele>460.0</ele><time>2026-04-26T09:04:26Z</time></trkpt><trkpt lat="43.4820030235069" lon="12.277356902963758"><ele>460.0</ele><time>2026-04-26T09:04:27Z</time></trkpt><trkpt lat="43.4821297014385" lon="12.277514678643973"><ele>464.6666666666667</ele><time>2026-04-26T09:04:28Z</time></trkpt><trkpt lat="43.48227962388099" lon="12.277639033250937"><ele>469.33333333333337</ele><time>2026-04-26T09:04:29Z</time></trkpt><trkpt lat="43.48245508583677" lon="12.277706110444216"><ele>474.0</ele><time>2026-04-26T09:04:30Z</time></trkpt><trkpt lat="43.482651099557884" lon="12.27772559000105"><ele>474.0</ele><time>2026-04-26T09:04:31Z</time></trkpt><trkpt lat="43.48283589705842" lon="12.277830719441505"><ele>474.0</ele><time>2026-04-26T09:04:32Z</time></trkpt><trkpt lat="43.48300088531089" lon="12.277970587652195"><ele>474.0</ele><time>2026-04-26T09:04:33Z</time></trkpt><trkpt lat="43.48315894514738" lon="12.278116339489742"><ele>473.0</ele><time>2026-04-26T09:04:34Z</time></trkpt><trkpt lat="43.483306355782354" lon="12.278252272632757"><ele>472.0</ele><time>2026-04-26T09:04:35Z</time></trkpt><trkpt lat="43.48345664688717" lon="12.278389629908576"><ele>471.0</ele><time>2026-04-26T09:04:36Z</time></trkpt><trkpt lat="43.48360062852453" lon="12.278520496040146"><ele>471.0</ele><time>2026-04-26T09:04:37Z</time></trkpt><trkpt lat="43.48373043915875" lon="12.27863848197057"><ele>471.0</ele><time>2026-04-26T09:04:38Z</time></trkpt><trkpt lat="43.483853979270755" lon="12.278750768699668"><ele>471.0</ele><time>2026-04-26T09:04:39Z</time></trkpt><trkpt lat="43.483980264662335" lon="12.278866220295594"><ele>472.33333333333337</ele><time>2026-04-26T09:04:40Z</time></trkpt><trkpt lat="43.48409797544763" lon="12.278986944821687"><ele>473.6666666666667</ele><time>2026-04-26T09:04:41Z</time></trkpt><trkpt lat="43.48420969912746" lon="12.279129922661838"><ele>475.0</ele><time>2026-04-26T09:04:42Z</time></trkpt><trkpt lat="43.48429865403072" lon="12.279313721646695"><ele>475.0</ele><time>2026-04-26T09:04:43Z</time></trkpt><trkpt lat="43.48438926837665" lon="12.279517854188512"><ele>475.0</ele><time>2026-04-26T09:04:44Z</time></trkpt><trkpt lat="43.48447993347218" lon="12.279726183414617"><ele>475.0</ele><time>2026-04-26T09:04:45Z</time></trkpt><trkpt lat="43.484571817771766" lon="12.279937314280838"><ele>477.6666666666667</ele><time>2026-04-26T09:04:46Z</time></trkpt><trkpt lat="43.48466503733738" lon="12.280151548208428"><ele>480.33333333333337</ele><time>2026-04-26T09:04:47Z</time></trkpt><trkpt lat="43.48475679016326" lon="12.280363692577215"><ele>483.0</ele><time>2026-04-26T09:04:48Z</time></trkpt><trkpt lat="43.48484042138928" lon="12.280560821782876"><ele>483.75</ele><time>2026-04-26T09:04:49Z</time></trkpt><trkpt lat="43.484913354135934" lon="12.280745576776868"><ele>484.5</ele><time>2026-04-26T09:04:50Z</time></trkpt><trkpt lat="43.484946780203" lon="12.280938182041838"><ele>485.25</ele><time>2026-04-26T09:04:51Z</time></trkpt><trkpt lat="43.48494095255211" lon="12.281140376616339"><ele>486.0</ele><time>2026-04-26T09:04:52Z</time></trkpt><trkpt lat="43.4848903508528" lon="12.281344433621012"><ele>487.25</ele><time>2026-04-26T09:04:53Z</time></trkpt><trkpt lat="43.484836000321124" lon="12.281511371158453"><ele>488.5</ele><time>2026-04-26T09:04:54Z</time></trkpt><trkpt lat="43.48479811672691" lon="12.281677895880062"><ele>489.75</ele><time>2026-04-26T09:04:55Z</time></trkpt><trkpt lat="43.484802383723085" lon="12.28185112259004"><ele>491.0</ele><time>2026-04-26T09:04:56Z</time></trkpt><trkpt lat="43.48490173940372" lon="12.281998190014356"><ele>491.0</ele><time>2026-04-26T09:04:57Z</time></trkpt><trkpt lat="43.485047003774454" lon="12.282114473724882"><ele>491.0</ele><time>2026-04-26T09:04:58Z</time></trkpt><trkpt lat="43.48517553900577" lon="12.282214253451528"><ele>491.0</ele><time>2026-04-26T09:04:59Z</time></trkpt><trkpt lat="43.48532059295322" lon="12.282323497636813"><ele>492.0</ele><time>2026-04-26T09:05:00Z</time></trkpt><trkpt lat="43.48547249380926" lon="12.28243613635049"><ele>493.0</ele><time>2026-04-26T09:05:01Z</time></trkpt><trkpt lat="43.48562867207023" lon="12.282547700079963"><ele>494.0</ele><time>2026-04-26T09:05:02Z</time></trkpt><trkpt lat="43.4857990042587" lon="12.282663060934482"><ele>494.0</ele><time>2026-04-26T09:05:03Z</time></trkpt><trkpt lat="43.48598189390978" lon="12.282745274564556"><ele>494.0</ele><time>2026-04-26T09:05:04Z</time></trkpt><trkpt lat="43.48615400945943" lon="12.282861298876394"><ele>494.0</ele><time>2026-04-26T09:05:05Z</time></trkpt><trkpt lat="43.48632327548789" lon="12.282974243143359"><ele>493.75</ele><time>2026-04-26T09:05:06Z</time></trkpt><trkpt lat="43.486452951319265" lon="12.283063781105595"><ele>493.5</ele><time>2026-04-26T09:05:07Z</time></trkpt><trkpt lat="43.48656480604655" lon="12.283139730786623"><ele>493.25</ele><time>2026-04-26T09:05:08Z</time></trkpt><trkpt lat="43.48667779851673" lon="12.283217812658108"><ele>493.0</ele><time>2026-04-26T09:05:09Z</time></trkpt><trkpt lat="43.486800881958786" lon="12.283296815019298"><ele>491.25</ele><time>2026-04-26T09:05:10Z</time></trkpt><trkpt lat="43.486933688432" lon="12.283386190347377"><ele>489.5</ele><time>2026-04-26T09:05:11Z</time></trkpt><trkpt lat="43.487060193400794" lon="12.283470417810598"><ele>487.75</ele><time>2026-04-26T09:05:12Z</time></trkpt><trkpt lat="43.48718440392345" lon="12.28355079256602"><ele>486.0</ele><time>2026-04-26T09:05:13Z</time></trkpt><trkpt lat="43.48730721092334" lon="12.283632404180334"><ele>486.75</ele><time>2026-04-26T09:05:14Z</time></trkpt><trkpt lat="43.4874222078458" lon="12.283712614922743"><ele>487.5</ele><time>2026-04-26T09:05:15Z</time></trkpt><trkpt lat="43.48751709654799" lon="12.283839444431658"><ele>488.25</ele><time>2026-04-26T09:05:16Z</time></trkpt><trkpt lat="43.48761913256712" lon="12.283949494440582"><ele>489.0</ele><time>2026-04-26T09:05:17Z</time></trkpt><trkpt lat="43.48772036044196" lon="12.284069290629525"><ele>489.0</ele><time>2026-04-26T09:05:18Z</time></trkpt><trkpt lat="43.48782572425562" lon="12.284191204843802"><ele>489.0</ele><time>2026-04-26T09:05:19Z</time></trkpt><trkpt lat="43.487957894583495" lon="12.284287209121128"><ele>489.0</ele><time>2026-04-26T09:05:20Z</time></trkpt><trkpt lat="43.48809702096527" lon="12.28436445842151"><ele>489.0</ele><time>2026-04-26T09:05:21Z</time></trkpt><trkpt lat="43.48825032326852" lon="12.284418545862222"><ele>494.0</ele><time>2026-04-26T09:05:22Z</time></trkpt><trkpt lat="43.48841482545501" lon="12.284435768130056"><ele>499.0</ele><time>2026-04-26T09:05:23Z</time></trkpt><trkpt lat="43.4885758768224" lon="12.28441909383026"><ele>504.0</ele><time>2026-04-26T09:05:24Z</time></trkpt><trkpt lat="43.48873707335586" lon="12.28439152704043"><ele>507.0</ele><time>2026-04-26T09:05:25Z</time></trkpt><trkpt lat="43.48889318314696" lon="12.284397963568043"><ele>510.0</ele><time>2026-04-26T09:05:26Z</time></trkpt><trkpt lat="43.489036910386204" lon="12.284471846991305"><ele>513.0</ele><time>2026-04-26T09:05:27Z</time></trkpt><trkpt lat="43.48918762298955" lon="12.284575600682487"><ele>513.0</ele><time>2026-04-26T09:05:28Z</time></trkpt><trkpt lat="43.48933827050299" lon="12.284685839621241"><ele>513.0</ele><time>2026-04-26T09:05:29Z</time></trkpt><trkpt lat="43.48949487401385" lon="12.284797336260057"><ele>513.0</ele><time>2026-04-26T09:05:30Z</time></trkpt><trkpt lat="43.48965105854955" lon="12.284910413952426"><ele>511.5</ele><time>2026-04-26T09:05:31Z</time></trkpt><trkpt lat="43.4897957835287" lon="12.285017528894919"><ele>510.0</ele><time>2026-04-26T09:05:32Z</time></trkpt><trkpt lat="43.48991367637646" lon="12.285114451131692"><ele>508.5</ele><time>2026-04-26T09:05:33Z</time></trkpt><trkpt lat="43.49001013341974" lon="12.285236521534781"><ele>507.0</ele><time>2026-04-26T09:05:34Z</time></trkpt><trkpt lat="43.4900534159589" lon="12.2854220889965"><ele>505.33333333333337</ele><time>2026-04-26T09:05:35Z</time></trkpt><trkpt lat="43.490063628922435" lon="12.285658314575935"><ele>503.6666666666667</ele><time>2026-04-26T09:05:36Z</time></trkpt><trkpt lat="43.49005331314257" lon="12.285908075727246"><ele>502.0</ele><time>2026-04-26T09:05:37Z</time></trkpt><trkpt lat="43.49004798716767" lon="12.28615833018674"><ele>502.0</ele><time>2026-04-26T09:05:38Z</time></trkpt><trkpt lat="43.49008937611805" lon="12.286393275617726"><ele>502.0</ele><time>2026-04-26T09:05:39Z</time></trkpt><trkpt lat="43.490154761807084" lon="12.286599851149823"><ele>502.0</ele><time>2026-04-26T09:05:40Z</time></trkpt><trkpt lat="43.4902601620795" lon="12.28678365272757"><ele>500.33333333333337</ele><time>2026-04-26T09:05:41Z</time></trkpt><trkpt lat="43.49040419306789" lon="12.28692457441725"><ele>498.66666666666663</ele><time>2026-04-26T09:05:42Z</time></trkpt><trkpt lat="43.49055897351993" lon="12.28705349211537"><ele>497.0</ele><time>2026-04-26T09:05:43Z</time></trkpt><trkpt lat="43.49071713859481" lon="12.287186596500804"><ele>497.66666666666663</ele><time>2026-04-26T09:05:44Z</time></trkpt><trkpt lat="43.4908724659387" lon="12.287321213144732"><ele>498.33333333333337</ele><time>2026-04-26T09:05:45Z</time></trkpt><trkpt lat="43.49102697537017" lon="12.287454401262627"><ele>499.0</ele><time>2026-04-26T09:05:46Z</time></trkpt><trkpt lat="43.49118887069326" lon="12.287592180047032"><ele>505.0</ele><time>2026-04-26T09:05:47Z</time></trkpt><trkpt lat="43.49135375152948" lon="12.287731533456371"><ele>511.0</ele><time>2026-04-26T09:05:48Z</time></trkpt><trkpt lat="43.491519673456175" lon="12.287871685101761"><ele>517.0</ele><time>2026-04-26T09:05:49Z</time></trkpt><trkpt lat="43.491688265143885" lon="12.288014091885463"><ele>516.6666666666667</ele><time>2026-04-26T09:05:50Z</time></trkpt><trkpt lat="43.49185940585484" lon="12.288159138847131"><ele>516.3333333333334</ele><time>2026-04-26T09:05:51Z</time></trkpt><trkpt lat="43.49202981069178" lon="12.288303975424274"><ele>516.0</ele><time>2026-04-26T09:05:52Z</time></trkpt><trkpt lat="43.49220176648686" lon="12.288446742306803"><ele>516.0</ele><time>2026-04-26T09:05:53Z</time></trkpt><trkpt lat="43.49236174225845" lon="12.28858355913422"><ele>516.0</ele><time>2026-04-26T09:05:54Z</time></trkpt><trkpt lat="43.492505471985226" lon="12.288730844379236"><ele>516.0</ele><time>2026-04-26T09:05:55Z</time></trkpt><trkpt lat="43.49263724637969" lon="12.288906799940602"><ele>517.3333333333334</ele><time>2026-04-26T09:05:56Z</time></trkpt><trkpt lat="43.4927592748173" lon="12.289100032030792"><ele>518.6666666666667</ele><time>2026-04-26T09:05:57Z</time></trkpt><trkpt lat="43.492870738544674" lon="12.289309887624288"><ele>520.0</ele><time>2026-04-26T09:05:58Z</time></trkpt><trkpt lat="43.49298185536038" lon="12.289524696088714"><ele>520.0</ele><time>2026-04-26T09:05:59Z</time></trkpt><trkpt lat="43.493092989665705" lon="12.289743303219268"><ele>520.0</ele><time>2026-04-26T09:06:00Z</time></trkpt><trkpt lat="43.493203210565035" lon="12.289962462031362"><ele>520.0</ele><time>2026-04-26T09:06:01Z</time></trkpt><trkpt lat="43.493315149748724" lon="12.290180811926643"><ele>518.3333333333334</ele><time>2026-04-26T09:06:02Z</time></trkpt><trkpt lat="43.493428699380516" lon="12.290366510586045"><ele>516.6666666666666</ele><time>2026-04-26T09:06:03Z</time></trkpt><trkpt lat="43.49357401396913" lon="12.290520452293373"><ele>515.0</ele><time>2026-04-26T09:06:04Z</time></trkpt><trkpt lat="43.493718695951976" lon="12.290654255769505"><ele>517.6666666666666</ele><time>2026-04-26T09:06:05Z</time></trkpt><trkpt lat="43.49385997105128" lon="12.29077687876078"><ele>520.3333333333334</ele><time>2026-04-26T09:06:06Z</time></trkpt><trkpt lat="43.49395413856334" lon="12.290974369475563"><ele>523.0</ele><time>2026-04-26T09:06:07Z</time></trkpt><trkpt lat="43.494016892329725" lon="12.291200786255684"><ele>521.0</ele><time>2026-04-26T09:06:08Z</time></trkpt><trkpt lat="43.49404594857911" lon="12.291441444192772"><ele>519.0</ele><time>2026-04-26T09:06:09Z</time></trkpt><trkpt lat="43.494092717285035" lon="12.291682794970274"><ele>517.0</ele><time>2026-04-26T09:06:10Z</time></trkpt><trkpt lat="43.494207977450216" lon="12.291891249984658"><ele>517.0</ele><time>2026-04-26T09:06:11Z</time></trkpt><trkpt lat="43.49434318714614" lon="12.292072538339657"><ele>517.0</ele><time>2026-04-26T09:06:12Z</time></trkpt><trkpt lat="43.494480420530536" lon="12.292246403896954"><ele>517.0</ele><time>2026-04-26T09:06:13Z</time></trkpt><trkpt lat="43.49462250056146" lon="12.292418821799357"><ele>518.0</ele><time>2026-04-26T09:06:14Z</time></trkpt><trkpt lat="43.49478033296346" lon="12.29257536067411"><ele>519.0</ele><time>2026-04-26T09:06:15Z</time></trkpt><trkpt lat="43.49494872262863" lon="12.292698480127973"><ele>520.0</ele><time>2026-04-26T09:06:16Z</time></trkpt><trkpt lat="43.49512374092713" lon="12.292791389973443"><ele>520.0</ele><time>2026-04-26T09:06:17Z</time></trkpt><trkpt lat="43.49530470202531" lon="12.292885248418223"><ele>520.0</ele><time>2026-04-26T09:06:18Z</time></trkpt><trkpt lat="43.495482557036766" lon="12.292979789518784"><ele>520.0</ele><time>2026-04-26T09:06:19Z</time></trkpt><trkpt lat="43.49565468188156" lon="12.293075359841499"><ele>519.0</ele><time>2026-04-26T09:06:20Z</time></trkpt><trkpt lat="43.49582439099635" lon="12.293189517743569"><ele>518.0</ele><time>2026-04-26T09:06:21Z</time></trkpt><trkpt lat="43.49598200393745" lon="12.293331462258127"><ele>517.0</ele><time>2026-04-26T09:06:22Z</time></trkpt><trkpt lat="43.49612652854274" lon="12.293488568919285"><ele>517.0</ele><time>2026-04-26T09:06:23Z</time></trkpt><trkpt lat="43.49624717764653" lon="12.293655264111692"><ele>517.0</ele><time>2026-04-26T09:06:24Z</time></trkpt><trkpt lat="43.49636048283052" lon="12.293830653045074"><ele>517.0</ele><time>2026-04-26T09:06:25Z</time></trkpt><trkpt lat="43.496425880474355" lon="12.293990500993875"><ele>520.5</ele><time>2026-04-26T09:06:26Z</time></trkpt><trkpt lat="43.49646805923068" lon="12.294164857048969"><ele>524.0</ele><time>2026-04-26T09:06:27Z</time></trkpt><trkpt lat="43.49645967296967" lon="12.294351670490002"><ele>527.5</ele><time>2026-04-26T09:06:28Z</time></trkpt><trkpt lat="43.49641160719568" lon="12.294544048949875"><ele>531.0</ele><time>2026-04-26T09:06:29Z</time></trkpt><trkpt lat="43.49628306050917" lon="12.294699557333182"><ele>528.0</ele><time>2026-04-26T09:06:30Z</time></trkpt><trkpt lat="43.49612663149743" lon="12.294816201145384"><ele>525.0</ele><time>2026-04-26T09:06:31Z</time></trkpt><trkpt lat="43.49599888938427" lon="12.294918914165915"><ele>522.0</ele><time>2026-04-26T09:06:32Z</time></trkpt><trkpt lat="43.49592389349871" lon="12.29506837404494"><ele>522.0</ele><time>2026-04-26T09:06:33Z</time></trkpt><trkpt lat="43.49590025009408" lon="12.295259845684187"><ele>522.0</ele><time>2026-04-26T09:06:34Z</time></trkpt><trkpt lat="43.49591386416229" lon="12.29545063233307"><ele>522.0</ele><time>2026-04-26T09:06:35Z</time></trkpt><trkpt lat="43.4960272646571" lon="12.295579953006893"><ele>522.0</ele><time>2026-04-26T09:06:36Z</time></trkpt><trkpt lat="43.49616356978519" lon="12.29573098745974"><ele>525.6666666666666</ele><time>2026-04-26T09:06:37Z</time></trkpt><trkpt lat="43.496325395975376" lon="12.295874504367179"><ele>529.3333333333333</ele><time>2026-04-26T09:06:38Z</time></trkpt><trkpt lat="43.49648882179199" lon="12.296021597457367"><ele>533.0</ele><time>2026-04-26T09:06:39Z</time></trkpt><trkpt lat="43.49665270209393" lon="12.296169099641885"><ele>533.0</ele><time>2026-04-26T09:06:40Z</time></trkpt><trkpt lat="43.496796272974386" lon="12.296299090209617"><ele>533.0</ele><time>2026-04-26T09:06:41Z</time></trkpt><trkpt lat="43.49694508270842" lon="12.29643219744872"><ele>533.0</ele><time>2026-04-26T09:06:42Z</time></trkpt><trkpt lat="43.497100420236826" lon="12.296552109756023"><ele>532.3333333333333</ele><time>2026-04-26T09:06:43Z</time></trkpt><trkpt lat="43.49726439223845" lon="12.296642949246843"><ele>531.6666666666666</ele><time>2026-04-26T09:06:44Z</time></trkpt><trkpt lat="43.49743235885542" lon="12.296710908323943"><ele>531.0</ele><time>2026-04-26T09:06:45Z</time></trkpt><trkpt lat="43.49760591883577" lon="12.296770811534277"><ele>531.0</ele><time>2026-04-26T09:06:46Z</time></trkpt><trkpt lat="43.49778241697758" lon="12.296814608043153"><ele>531.0</ele><time>2026-04-26T09:06:47Z</time></trkpt><trkpt lat="43.49796052724084" lon="12.296820957838632"><ele>531.0</ele><time>2026-04-26T09:06:48Z</time></trkpt><trkpt lat="43.49811614847268" lon="12.296812971678689"><ele>533.5</ele><time>2026-04-26T09:06:49Z</time></trkpt><trkpt lat="43.49824933991853" lon="12.296847097412364"><ele>536.0</ele><time>2026-04-26T09:06:50Z</time></trkpt><trkpt lat="43.498374789360966" lon="12.296940404258482"><ele>538.5</ele><time>2026-04-26T09:06:51Z</time></trkpt><trkpt lat="43.498472564689344" lon="12.297072029390456"><ele>541.0</ele><time>2026-04-26T09:06:52Z</time></trkpt><trkpt lat="43.498530826494886" lon="12.297208874109893"><ele>538.5</ele><time>2026-04-26T09:06:53Z</time></trkpt><trkpt lat="43.49855498527476" lon="12.297364486035729"><ele>536.0</ele><time>2026-04-26T09:06:54Z</time></trkpt><trkpt lat="43.4985352894646" lon="12.297532641988635"><ele>533.5</ele><time>2026-04-26T09:06:55Z</time></trkpt><trkpt lat="43.49844726711871" lon="12.297669772862802"><ele>531.0</ele><time>2026-04-26T09:06:56Z</time></trkpt><trkpt lat="43.49831462800505" lon="12.297754800500572"><ele>531.0</ele><time>2026-04-26T09:06:57Z</time></trkpt><trkpt lat="43.49820622745032" lon="12.297821389624763"><ele>531.0</ele><time>2026-04-26T09:06:58Z</time></trkpt><trkpt lat="43.49814017310387" lon="12.297943728311225"><ele>531.0</ele><time>2026-04-26T09:06:59Z</time></trkpt><trkpt lat="43.498111436411655" lon="12.298119267172247"><ele>531.0</ele><time>2026-04-26T09:07:00Z</time></trkpt><trkpt lat="43.498192329449964" lon="12.298286734545943"><ele>531.4</ele><time>2026-04-26T09:07:01Z</time></trkpt><trkpt lat="43.49824849284691" lon="12.298422153114002"><ele>531.8</ele><time>2026-04-26T09:07:02Z</time></trkpt><trkpt lat="43.49830562004251" lon="12.298541750549987"><ele>532.1999999999999</ele><time>2026-04-26T09:07:03Z</time></trkpt><trkpt lat="43.49835845496882" lon="12.298652487096115"><ele>532.6</ele><time>2026-04-26T09:07:04Z</time></trkpt><trkpt lat="43.498422669536225" lon="12.298775279359429"><ele>533.0</ele><time>2026-04-26T09:07:05Z</time></trkpt><trkpt lat="43.49847311631742" lon="12.298913353969807"><ele>531.25</ele><time>2026-04-26T09:07:06Z</time></trkpt><trkpt lat="43.49854446660333" lon="12.299058451377125"><ele>529.5</ele><time>2026-04-26T09:07:07Z</time></trkpt><trkpt lat="43.4986417708478" lon="12.299224125264827"><ele>527.75</ele><time>2026-04-26T09:07:08Z</time></trkpt><trkpt lat="43.49876000656307" lon="12.299371978574987"><ele>526.0</ele><time>2026-04-26T09:07:09Z</time></trkpt><trkpt lat="43.498879404494865" lon="12.299532500046608"><ele>531.3333333333334</ele><time>2026-04-26T09:07:10Z</time></trkpt><trkpt lat="43.49897566296783" lon="12.299740569484072"><ele>536.6666666666666</ele><time>2026-04-26T09:07:11Z</time></trkpt><trkpt lat="43.49902267906328" lon="12.299992159210275"><ele>542.0</ele><time>2026-04-26T09:07:12Z</time></trkpt><trkpt lat="43.49906116417963" lon="12.300254202896928"><ele>542.0</ele><time>2026-04-26T09:07:13Z</time></trkpt><trkpt lat="43.499128966891334" lon="12.300525384234888"><ele>542.0</ele><time>2026-04-26T09:07:14Z</time></trkpt><trkpt lat="43.499193104272685" lon="12.300793435556836"><ele>542.0</ele><time>2026-04-26T09:07:15Z</time></trkpt><trkpt lat="43.49926503459941" lon="12.301054614322545"><ele>539.3333333333333</ele><time>2026-04-26T09:07:16Z</time></trkpt><trkpt lat="43.499324155089745" lon="12.301316492283144"><ele>536.6666666666666</ele><time>2026-04-26T09:07:17Z</time></trkpt><trkpt lat="43.4993719765974" lon="12.301558675656949"><ele>534.0</ele><time>2026-04-26T09:07:18Z</time></trkpt><trkpt lat="43.49944051931936" lon="12.301794515917402"><ele>534.3333333333334</ele><time>2026-04-26T09:07:19Z</time></trkpt><trkpt lat="43.49955139077611" lon="12.302019294876532"><ele>534.6666666666667</ele><time>2026-04-26T09:07:20Z</time></trkpt><trkpt lat="43.49968263430817" lon="12.30221241989206"><ele>535.0</ele><time>2026-04-26T09:07:21Z</time></trkpt><trkpt lat="43.49984205885331" lon="12.302375599241572"><ele>535.0</ele><time>2026-04-26T09:07:22Z</time></trkpt><trkpt lat="43.49999033311746" lon="12.302506217089558"><ele>535.0</ele><time>2026-04-26T09:07:23Z</time></trkpt><trkpt lat="43.50013909031191" lon="12.302616265219308"><ele>535.0</ele><time>2026-04-26T09:07:24Z</time></trkpt><trkpt lat="43.50029413234442" lon="12.302671179548973"><ele>536.6666666666667</ele><time>2026-04-26T09:07:25Z</time></trkpt><trkpt lat="43.50044793437427" lon="12.30261442889421"><ele>538.3333333333334</ele><time>2026-04-26T09:07:26Z</time></trkpt><trkpt lat="43.50059759989766" lon="12.302513204030891"><ele>540.0</ele><time>2026-04-26T09:07:27Z</time></trkpt><trkpt lat="43.50073733542345" lon="12.302433622388254"><ele>540.0</ele><time>2026-04-26T09:07:28Z</time></trkpt><trkpt lat="43.5009006258639" lon="12.302415740524733"><ele>540.0</ele><time>2026-04-26T09:07:29Z</time></trkpt><trkpt lat="43.501074512313195" lon="12.302486043362801"><ele>540.0</ele><time>2026-04-26T09:07:30Z</time></trkpt><trkpt lat="43.50122805505672" lon="12.302603755009349"><ele>544.3333333333334</ele><time>2026-04-26T09:07:31Z</time></trkpt><trkpt lat="43.501371360220446" lon="12.302766834570585"><ele>548.6666666666667</ele><time>2026-04-26T09:07:32Z</time></trkpt><trkpt lat="43.50151150247675" lon="12.30292208634256"><ele>553.0</ele><time>2026-04-26T09:07:33Z</time></trkpt><trkpt lat="43.501658641027895" lon="12.30306653934202"><ele>552.6666666666667</ele><time>2026-04-26T09:07:34Z</time></trkpt><trkpt lat="43.501810914823686" lon="12.30320658808989"><ele>552.3333333333334</ele><time>2026-04-26T09:07:35Z</time></trkpt><trkpt lat="43.50196712787621" lon="12.303344381453238"><ele>552.0</ele><time>2026-04-26T09:07:36Z</time></trkpt><trkpt lat="43.50212195954715" lon="12.303480064335979"><ele>552.0</ele><time>2026-04-26T09:07:37Z</time></trkpt><trkpt lat="43.50228133369029" lon="12.303613063007939"><ele>552.0</ele><time>2026-04-26T09:07:38Z</time></trkpt><trkpt lat="43.50244262459834" lon="12.30374070042337"><ele>552.0</ele><time>2026-04-26T09:07:39Z</time></trkpt><trkpt lat="43.50260971638678" lon="12.303865683073477"><ele>547.6666666666666</ele><time>2026-04-26T09:07:40Z</time></trkpt><trkpt lat="43.50278206505511" lon="12.303982957318189"><ele>543.3333333333333</ele><time>2026-04-26T09:07:41Z</time></trkpt><trkpt lat="43.502953397678496" lon="12.304089826166129"><ele>539.0</ele><time>2026-04-26T09:07:42Z</time></trkpt><trkpt lat="43.50311111237542" lon="12.30417984651648"><ele>539.0</ele><time>2026-04-26T09:07:43Z</time></trkpt><trkpt lat="43.5032647796802" lon="12.304266754053744"><ele>539.0</ele><time>2026-04-26T09:07:44Z</time></trkpt><trkpt lat="43.50341551708327" lon="12.304346818093308"><ele>539.0</ele><time>2026-04-26T09:07:45Z</time></trkpt><trkpt lat="43.50354887550217" lon="12.304488056006834"><ele>539.0</ele><time>2026-04-26T09:07:46Z</time></trkpt><trkpt lat="43.50366497358379" lon="12.304656873712538"><ele>539.0</ele><time>2026-04-26T09:07:47Z</time></trkpt><trkpt lat="43.50375581725839" lon="12.304830778866393"><ele>539.0</ele><time>2026-04-26T09:07:48Z</time></trkpt><trkpt lat="43.50382279075674" lon="12.305005622310947"><ele>539.75</ele><time>2026-04-26T09:07:49Z</time></trkpt><trkpt lat="43.50385554186646" lon="12.305180852967576"><ele>540.5</ele><time>2026-04-26T09:07:50Z</time></trkpt><trkpt lat="43.50387835372705" lon="12.305352800960817"><ele>541.25</ele><time>2026-04-26T09:07:51Z</time></trkpt><trkpt lat="43.50390099609972" lon="12.305521321475775"><ele>542.0</ele><time>2026-04-26T09:07:52Z</time></trkpt><trkpt lat="43.5039266455652" lon="12.305686561523151"><ele>542.0</ele><time>2026-04-26T09:07:53Z</time></trkpt><trkpt lat="43.503931624975706" lon="12.305861418406684"><ele>542.0</ele><time>2026-04-26T09:07:54Z</time></trkpt><trkpt lat="43.50395032419628" lon="12.306033993075054"><ele>542.0</ele><time>2026-04-26T09:07:55Z</time></trkpt><trkpt lat="43.5039664609865" lon="12.306206815693091"><ele>542.0</ele><time>2026-04-26T09:07:56Z</time></trkpt><trkpt lat="43.503980889586344" lon="12.306385174029458"><ele>543.25</ele><time>2026-04-26T09:07:57Z</time></trkpt><trkpt lat="43.503991237461065" lon="12.306554341863388"><ele>544.5</ele><time>2026-04-26T09:07:58Z</time></trkpt><trkpt lat="43.50402722050644" lon="12.306717004658754"><ele>545.75</ele><time>2026-04-26T09:07:59Z</time></trkpt><trkpt lat="43.50403269318717" lon="12.306876077918087"><ele>547.0</ele><time>2026-04-26T09:08:00Z</time></trkpt><trkpt lat="43.50404756833465" lon="12.30702822614688"><ele>547.0</ele><time>2026-04-26T09:08:01Z</time></trkpt><trkpt lat="43.504069131562" lon="12.307173642880853"><ele>547.0</ele><time>2026-04-26T09:08:02Z</time></trkpt><trkpt lat="43.50410617576668" lon="12.30731660272263"><ele>547.0</ele><time>2026-04-26T09:08:03Z</time></trkpt><trkpt lat="43.504138393749315" lon="12.30746931203771"><ele>547.0</ele><time>2026-04-26T09:08:04Z</time></trkpt><trkpt lat="43.50422108590025" lon="12.30759432160157"><ele>548.25</ele><time>2026-04-26T09:08:05Z</time></trkpt><trkpt lat="43.50431292617127" lon="12.307722656824005"><ele>549.5</ele><time>2026-04-26T09:08:06Z</time></trkpt><trkpt lat="43.50442260931917" lon="12.307860283814458"><ele>550.75</ele><time>2026-04-26T09:08:07Z</time></trkpt><trkpt lat="43.50453517339104" lon="12.307995902350052"><ele>552.0</ele><time>2026-04-26T09:08:08Z</time></trkpt><trkpt lat="43.50465677631261" lon="12.308142568974358"><ele>554.3333333333334</ele><time>2026-04-26T09:08:09Z</time></trkpt><trkpt lat="43.50478598270625" lon="12.308298406199542"><ele>556.6666666666667</ele><time>2026-04-26T09:08:10Z</time></trkpt><trkpt lat="43.50491562781062" lon="12.308454772559353"><ele>559.0</ele><time>2026-04-26T09:08:11Z</time></trkpt><trkpt lat="43.5050464283351" lon="12.308612532535657"><ele>559.0</ele><time>2026-04-26T09:08:12Z</time></trkpt><trkpt lat="43.50517829746601" lon="12.308771581345288"><ele>559.0</ele><time>2026-04-26T09:08:13Z</time></trkpt><trkpt lat="43.505308489352515" lon="12.308928366644636"><ele>559.0</ele><time>2026-04-26T09:08:14Z</time></trkpt><trkpt lat="43.50541984722537" lon="12.309072153691645"><ele>559.5</ele><time>2026-04-26T09:08:15Z</time></trkpt><trkpt lat="43.50550984574795" lon="12.309218805385367"><ele>560.0</ele><time>2026-04-26T09:08:16Z</time></trkpt><trkpt lat="43.50557868978124" lon="12.309401277052995"><ele>560.5</ele><time>2026-04-26T09:08:17Z</time></trkpt><trkpt lat="43.50560402013461" lon="12.309600888136575"><ele>561.0</ele><time>2026-04-26T09:08:18Z</time></trkpt><trkpt lat="43.50559897084854" lon="12.309804166944755"><ele>564.0</ele><time>2026-04-26T09:08:19Z</time></trkpt><trkpt lat="43.50559080621353" lon="12.310018516252244"><ele>567.0</ele><time>2026-04-26T09:08:20Z</time></trkpt><trkpt lat="43.50561695544404" lon="12.310232874358645"><ele>570.0</ele><time>2026-04-26T09:08:21Z</time></trkpt><trkpt lat="43.50569288000606" lon="12.310439857309294"><ele>569.3333333333334</ele><time>2026-04-26T09:08:22Z</time></trkpt><trkpt lat="43.50578069753553" lon="12.310639253297872"><ele>568.6666666666667</ele><time>2026-04-26T09:08:23Z</time></trkpt><trkpt lat="43.50588840650868" lon="12.310828703650262"><ele>568.0</ele><time>2026-04-26T09:08:24Z</time></trkpt><trkpt lat="43.5059980350072" lon="12.311021757904488"><ele>568.0</ele><time>2026-04-26T09:08:25Z</time></trkpt><trkpt lat="43.50609991246112" lon="12.311209785956537"><ele>568.0</ele><time>2026-04-26T09:08:26Z</time></trkpt><trkpt lat="43.50619914388746" lon="12.311406750009578"><ele>568.0</ele><time>2026-04-26T09:08:27Z</time></trkpt><trkpt lat="43.506232268149766" lon="12.311644953537483"><ele>570.3333333333334</ele><time>2026-04-26T09:08:28Z</time></trkpt><trkpt lat="43.506266767900684" lon="12.311887898819585"><ele>572.6666666666666</ele><time>2026-04-26T09:08:29Z</time></trkpt><trkpt lat="43.506327293935925" lon="12.312127808390077"><ele>575.0</ele><time>2026-04-26T09:08:30Z</time></trkpt><trkpt lat="43.506430047392094" lon="12.31234722778393"><ele>575.0</ele><time>2026-04-26T09:08:31Z</time></trkpt><trkpt lat="43.50653839337391" lon="12.312546710120719"><ele>575.0</ele><time>2026-04-26T09:08:32Z</time></trkpt><trkpt lat="43.50665440041555" lon="12.312748352556017"><ele>575.0</ele><time>2026-04-26T09:08:33Z</time></trkpt><trkpt lat="43.506772441415954" lon="12.31295353039916"><ele>573.3333333333333</ele><time>2026-04-26T09:08:34Z</time></trkpt><trkpt lat="43.506889942072284" lon="12.313157769010724"><ele>571.6666666666666</ele><time>2026-04-26T09:08:35Z</time></trkpt><trkpt lat="43.506990165122886" lon="12.313353457418708"><ele>570.0</ele><time>2026-04-26T09:08:36Z</time></trkpt><trkpt lat="43.507068595780126" lon="12.313570960479757"><ele>569.6666666666666</ele><time>2026-04-26T09:08:37Z</time></trkpt><trkpt lat="43.507109867519276" lon="12.313809919327955"><ele>569.3333333333333</ele><time>2026-04-26T09:08:38Z</time></trkpt><trkpt lat="43.50712567424538" lon="12.314075903915388"><ele>569.0</ele><time>2026-04-26T09:08:39Z</time></trkpt><trkpt lat="43.507136637790104" lon="12.314347728893893"><ele>573.6666666666666</ele><time>2026-04-26T09:08:40Z</time></trkpt><trkpt lat="43.507145319757235" lon="12.31462388209932"><ele>578.3333333333334</ele><time>2026-04-26T09:08:41Z</time></trkpt><trkpt lat="43.507153312921254" lon="12.3148987817153"><ele>583.0</ele><time>2026-04-26T09:08:42Z</time></trkpt><trkpt lat="43.50716010015974" lon="12.315171880520575"><ele>584.6666666666667</ele><time>2026-04-26T09:08:43Z</time></trkpt><trkpt lat="43.507156411054545" lon="12.315422708010601"><ele>586.3333333333334</ele><time>2026-04-26T09:08:44Z</time></trkpt><trkpt lat="43.507121785034094" lon="12.31564337270776"><ele>588.0</ele><time>2026-04-26T09:08:45Z</time></trkpt><trkpt lat="43.50709563732185" lon="12.31585141287677"><ele>588.6666666666666</ele><time>2026-04-26T09:08:46Z</time></trkpt><trkpt lat="43.50710826121873" lon="12.316055766193513"><ele>589.3333333333333</ele><time>2026-04-26T09:08:47Z</time></trkpt><trkpt lat="43.50719645238379" lon="12.316258727966758"><ele>590.0</ele><time>2026-04-26T09:08:48Z</time></trkpt><trkpt lat="43.50732859272863" lon="12.316440727916337"><ele>590.6666666666666</ele><time>2026-04-26T09:08:49Z</time></trkpt><trkpt lat="43.507430688789825" lon="12.316655071888912"><ele>591.3333333333334</ele><time>2026-04-26T09:08:50Z</time></trkpt><trkpt lat="43.50749769236282" lon="12.316878255518539"><ele>592.0</ele><time>2026-04-26T09:08:51Z</time></trkpt><trkpt lat="43.507540946227955" lon="12.317078229798412"><ele>592.0</ele><time>2026-04-26T09:08:52Z</time></trkpt><trkpt lat="43.507557183702026" lon="12.317255483539828"><ele>592.0</ele><time>2026-04-26T09:08:53Z</time></trkpt><trkpt lat="43.50753975625194" lon="12.317432546375557"><ele>592.0</ele><time>2026-04-26T09:08:54Z</time></trkpt><trkpt lat="43.507440456033386" lon="12.317590366035885"><ele>592.0</ele><time>2026-04-26T09:08:55Z</time></trkpt><trkpt lat="43.50731080270193" lon="12.317702257029792"><ele>592.0</ele><time>2026-04-26T09:08:56Z</time></trkpt><trkpt lat="43.50715599866216" lon="12.317734236794639"><ele>592.0</ele><time>2026-04-26T09:08:57Z</time></trkpt><trkpt lat="43.50701078272871" lon="12.317686791995442"><ele>592.0</ele><time>2026-04-26T09:08:58Z</time></trkpt><trkpt lat="43.50686084877742" lon="12.317580459368882"><ele>592.0</ele><time>2026-04-26T09:08:59Z</time></trkpt><trkpt lat="43.50670431832816" lon="12.31747538848449"><ele>592.0</ele><time>2026-04-26T09:09:00Z</time></trkpt><trkpt lat="43.5065559319102" lon="12.317434023055213"><ele>592.0</ele><time>2026-04-26T09:09:01Z</time></trkpt><trkpt lat="43.506400822452235" lon="12.31746678933394"><ele>592.0</ele><time>2026-04-26T09:09:02Z</time></trkpt><trkpt lat="43.50627771844026" lon="12.317531897461906"><ele>592.0</ele><time>2026-04-26T09:09:03Z</time></trkpt><trkpt lat="43.506166189919625" lon="12.317634210841"><ele>592.0</ele><time>2026-04-26T09:09:04Z</time></trkpt><trkpt lat="43.50606330027048" lon="12.317754778868533"><ele>592.0</ele><time>2026-04-26T09:09:05Z</time></trkpt><trkpt lat="43.50599498312435" lon="12.317900554811033"><ele>592.0</ele><time>2026-04-26T09:09:06Z</time></trkpt><trkpt lat="43.50595485396193" lon="12.318037943096098"><ele>592.0</ele><time>2026-04-26T09:09:07Z</time></trkpt><trkpt lat="43.50591691328451" lon="12.318166123669588"><ele>592.0</ele><time>2026-04-26T09:09:08Z</time></trkpt><trkpt lat="43.50586669433591" lon="12.318276026070897"><ele>592.0</ele><time>2026-04-26T09:09:09Z</time></trkpt><trkpt lat="43.50578766623025" lon="12.31832953549637"><ele>592.0</ele><time>2026-04-26T09:09:10Z</time></trkpt><trkpt lat="43.50570161146928" lon="12.318342212080296"><ele>594.8000000000001</ele><time>2026-04-26T09:09:11Z</time></trkpt><trkpt lat="43.505613221097946" lon="12.318328245701835"><ele>597.6</ele><time>2026-04-26T09:09:12Z</time></trkpt><trkpt lat="43.50551816600181" lon="12.318307422851982"><ele>600.4000000000001</ele><time>2026-04-26T09:09:13Z</time></trkpt><trkpt lat="43.505408422768866" lon="12.3182899287904"><ele>603.2</ele><time>2026-04-26T09:09:14Z</time></trkpt><trkpt lat="43.505293703133" lon="12.318269924282397"><ele>606.0</ele><time>2026-04-26T09:09:15Z</time></trkpt><trkpt lat="43.505188315243615" lon="12.318255835863704"><ele>606.0</ele><time>2026-04-26T09:09:16Z</time></trkpt><trkpt lat="43.50508744912426" lon="12.318263656419182"><ele>606.0</ele><time>2026-04-26T09:09:17Z</time></trkpt><trkpt lat="43.50499260241908" lon="12.318310812154516"><ele>606.0</ele><time>2026-04-26T09:09:18Z</time></trkpt><trkpt lat="43.50491754845367" lon="12.318425841946675"><ele>606.0</ele><time>2026-04-26T09:09:19Z</time></trkpt><trkpt lat="43.50485592215398" lon="12.318565758247779"><ele>606.0</ele><time>2026-04-26T09:09:20Z</time></trkpt><trkpt lat="43.50481349035068" lon="12.318720746703349"><ele>606.0</ele><time>2026-04-26T09:09:21Z</time></trkpt><trkpt lat="43.50479671073195" lon="12.318893815198015"><ele>606.0</ele><time>2026-04-26T09:09:22Z</time></trkpt><trkpt lat="43.50478899845919" lon="12.319081479400216"><ele>606.0</ele><time>2026-04-26T09:09:23Z</time></trkpt><trkpt lat="43.50478408699847" lon="12.319267556624652"><ele>606.0</ele><time>2026-04-26T09:09:24Z</time></trkpt><trkpt lat="43.504777941179476" lon="12.319450842324056"><ele>608.0</ele><time>2026-04-26T09:09:25Z</time></trkpt><trkpt lat="43.504789180021476" lon="12.319630104869645"><ele>610.0</ele><time>2026-04-26T09:09:26Z</time></trkpt><trkpt lat="43.504836365288384" lon="12.319803688392753"><ele>612.0</ele><time>2026-04-26T09:09:27Z</time></trkpt><trkpt lat="43.50491006303888" lon="12.319965097591398"><ele>614.0</ele><time>2026-04-26T09:09:28Z</time></trkpt><trkpt lat="43.504992663083264" lon="12.320121524650318"><ele>614.25</ele><time>2026-04-26T09:09:29Z</time></trkpt><trkpt lat="43.50506205094448" lon="12.32028493264059"><ele>614.5</ele><time>2026-04-26T09:09:30Z</time></trkpt><trkpt lat="43.50510447104159" lon="12.320481919772446"><ele>614.75</ele><time>2026-04-26T09:09:31Z</time></trkpt><trkpt lat="43.50512693543657" lon="12.320673683704692"><ele>615.0</ele><time>2026-04-26T09:09:32Z</time></trkpt><trkpt lat="43.50513340305653" lon="12.320852873595692"><ele>615.25</ele><time>2026-04-26T09:09:33Z</time></trkpt><trkpt lat="43.50515081656572" lon="12.321040258929678"><ele>615.5</ele><time>2026-04-26T09:09:34Z</time></trkpt><trkpt lat="43.50518444538561" lon="12.321232092084072"><ele>615.75</ele><time>2026-04-26T09:09:35Z</time></trkpt><trkpt lat="43.505279145803314" lon="12.321396625598654"><ele>616.0</ele><time>2026-04-26T09:09:36Z</time></trkpt><trkpt lat="43.5053808980159" lon="12.321546982020037"><ele>619.6666666666667</ele><time>2026-04-26T09:09:37Z</time></trkpt><trkpt lat="43.50549017233992" lon="12.321693510373048"><ele>623.3333333333334</ele><time>2026-04-26T09:09:38Z</time></trkpt><trkpt lat="43.50563710753788" lon="12.321830525319639"><ele>627.0</ele><time>2026-04-26T09:09:39Z</time></trkpt><trkpt lat="43.505829385494806" lon="12.32197165373968"><ele>627.0</ele><time>2026-04-26T09:09:40Z</time></trkpt><trkpt lat="43.50604799769252" lon="12.322125981472977"><ele>627.0</ele><time>2026-04-26T09:09:41Z</time></trkpt><trkpt lat="43.50627811236673" lon="12.32228842929527"><ele>627.5</ele><time>2026-04-26T09:09:42Z</time></trkpt><trkpt lat="43.50651488764744" lon="12.32245557912861"><ele>628.0</ele><time>2026-04-26T09:09:43Z</time></trkpt><trkpt lat="43.50672833855334" lon="12.32258753920658"><ele>628.0</ele><time>2026-04-26T09:09:44Z</time></trkpt><trkpt lat="43.50691166974918" lon="12.322763369209484"><ele>628.0</ele><time>2026-04-26T09:09:45Z</time></trkpt><trkpt lat="43.5070525718903" lon="12.322997407326248"><ele>628.0</ele><time>2026-04-26T09:09:46Z</time></trkpt><trkpt lat="43.50719993785128" lon="12.32320675740751"><ele>630.6666666666667</ele><time>2026-04-26T09:09:47Z</time></trkpt><trkpt lat="43.50732981924085" lon="12.32341892059551"><ele>633.3333333333334</ele><time>2026-04-26T09:09:48Z</time></trkpt><trkpt lat="43.50746173407392" lon="12.323625944643476"><ele>636.0</ele><time>2026-04-26T09:09:49Z</time></trkpt><trkpt lat="43.50758661006068" lon="12.323828180200902"><ele>632.6666666666666</ele><time>2026-04-26T09:09:50Z</time></trkpt><trkpt lat="43.50770482542723" lon="12.324033321161734"><ele>629.3333333333333</ele><time>2026-04-26T09:09:51Z</time></trkpt><trkpt lat="43.507846208039545" lon="12.324206315906657"><ele>626.0</ele><time>2026-04-26T09:09:52Z</time></trkpt><trkpt lat="43.50801375943857" lon="12.324324890744059"><ele>632.6666666666666</ele><time>2026-04-26T09:09:53Z</time></trkpt><trkpt lat="43.50817598619551" lon="12.324446545041745"><ele>639.3333333333334</ele><time>2026-04-26T09:09:54Z</time></trkpt><trkpt lat="43.50834278638878" lon="12.324555900540862"><ele>646.0</ele><time>2026-04-26T09:09:55Z</time></trkpt><trkpt lat="43.50849939062303" lon="12.324687592482174"><ele>646.6666666666667</ele><time>2026-04-26T09:09:56Z</time></trkpt><trkpt lat="43.50865882692526" lon="12.324803941878157"><ele>647.3333333333334</ele><time>2026-04-26T09:09:57Z</time></trkpt><trkpt lat="43.5088110763387" lon="12.324942125344869"><ele>648.0</ele><time>2026-04-26T09:09:58Z</time></trkpt><trkpt lat="43.50894790564108" lon="12.325113542040063"><ele>648.0</ele><time>2026-04-26T09:09:59Z</time></trkpt><trkpt lat="43.50908185731834" lon="12.325293759252924"><ele>648.0</ele><time>2026-04-26T09:10:00Z</time></trkpt><trkpt lat="43.50918617637541" lon="12.325477615024093"><ele>648.0</ele><time>2026-04-26T09:10:01Z</time></trkpt><trkpt lat="43.50931339407144" lon="12.325629312986628"><ele>648.6666666666666</ele><time>2026-04-26T09:10:02Z</time></trkpt><trkpt lat="43.50947987619193" lon="12.325735813593827"><ele>649.3333333333333</ele><time>2026-04-26T09:10:03Z</time></trkpt><trkpt lat="43.50965427154973" lon="12.325793240004392"><ele>650.0</ele><time>2026-04-26T09:10:04Z</time></trkpt><trkpt lat="43.50983769838948" lon="12.325814646667334"><ele>650.0</ele><time>2026-04-26T09:10:05Z</time></trkpt><trkpt lat="43.51001494392332" lon="12.325817825286629"><ele>650.0</ele><time>2026-04-26T09:10:06Z</time></trkpt><trkpt lat="43.51017881132859" lon="12.325823439355444"><ele>650.0</ele><time>2026-04-26T09:10:07Z</time></trkpt><trkpt lat="43.51032307249395" lon="12.325826774695923"><ele>651.0</ele><time>2026-04-26T09:10:08Z</time></trkpt><trkpt lat="43.51045284343285" lon="12.325858700412649"><ele>652.0</ele><time>2026-04-26T09:10:09Z</time></trkpt><trkpt lat="43.51055819796847" lon="12.325954262567985"><ele>653.0</ele><time>2026-04-26T09:10:10Z</time></trkpt><trkpt lat="43.51062534011333" lon="12.326091695929652"><ele>654.0</ele><time>2026-04-26T09:10:11Z</time></trkpt><trkpt lat="43.51063053952801" lon="12.326263395292747"><ele>655.0</ele><time>2026-04-26T09:10:12Z</time></trkpt><trkpt lat="43.51058146696749" lon="12.326437220102154"><ele>656.0</ele><time>2026-04-26T09:10:13Z</time></trkpt><trkpt lat="43.51049604964541" lon="12.32660819836379"><ele>657.0</ele><time>2026-04-26T09:10:14Z</time></trkpt><trkpt lat="43.51039638591182" lon="12.32676465367566"><ele>658.0</ele><time>2026-04-26T09:10:15Z</time></trkpt><trkpt lat="43.51032075948176" lon="12.32692032118503"><ele>658.25</ele><time>2026-04-26T09:10:16Z</time></trkpt><trkpt lat="43.5102417864436" lon="12.327071749367333"><ele>658.5</ele><time>2026-04-26T09:10:17Z</time></trkpt><trkpt lat="43.510161975797516" lon="12.327222431091608"><ele>658.75</ele><time>2026-04-26T09:10:18Z</time></trkpt><trkpt lat="43.51007170491209" lon="12.327362632422451"><ele>659.0</ele><time>2026-04-26T09:10:19Z</time></trkpt><trkpt lat="43.50995533826838" lon="12.327477346156742"><ele>659.0</ele><time>2026-04-26T09:10:20Z</time></trkpt><trkpt lat="43.50981891775757" lon="12.327530686099053"><ele>659.0</ele><time>2026-04-26T09:10:21Z</time></trkpt><trkpt lat="43.50967735712638" lon="12.327547977742885"><ele>659.0</ele><time>2026-04-26T09:10:22Z</time></trkpt><trkpt lat="43.509527653152716" lon="12.327570011458036"><ele>659.0</ele><time>2026-04-26T09:10:23Z</time></trkpt><trkpt lat="43.50937546124131" lon="12.327578968524271"><ele>657.0</ele><time>2026-04-26T09:10:24Z</time></trkpt><trkpt lat="43.50922205687907" lon="12.327600063606809"><ele>655.0</ele><time>2026-04-26T09:10:25Z</time></trkpt><trkpt lat="43.50906599547539" lon="12.327629639598694"><ele>653.0</ele><time>2026-04-26T09:10:26Z</time></trkpt><trkpt lat="43.50892371438353" lon="12.32769686242296"><ele>653.0</ele><time>2026-04-26T09:10:27Z</time></trkpt><trkpt lat="43.50879635763383" lon="12.327821840433957"><ele>653.0</ele><time>2026-04-26T09:10:28Z</time></trkpt><trkpt lat="43.50870588646618" lon="12.328007316228256"><ele>653.0</ele><time>2026-04-26T09:10:29Z</time></trkpt><trkpt lat="43.50865139057311" lon="12.32819816347676"><ele>653.6666666666666</ele><time>2026-04-26T09:10:30Z</time></trkpt><trkpt lat="43.50864909536562" lon="12.328412248897974"><ele>654.3333333333334</ele><time>2026-04-26T09:10:31Z</time></trkpt><trkpt lat="43.50869552822111" lon="12.32862258648383"><ele>655.0</ele><time>2026-04-26T09:10:32Z</time></trkpt><trkpt lat="43.508739329003525" lon="12.328831125950863"><ele>657.75</ele><time>2026-04-26T09:10:33Z</time></trkpt><trkpt lat="43.50880240884001" lon="12.328988721122347"><ele>660.5</ele><time>2026-04-26T09:10:34Z</time></trkpt><trkpt lat="43.50888183160906" lon="12.329124309772222"><ele>663.25</ele><time>2026-04-26T09:10:35Z</time></trkpt><trkpt lat="43.50898136593209" lon="12.329232938444234"><ele>666.0</ele><time>2026-04-26T09:10:36Z</time></trkpt><trkpt lat="43.509118572843356" lon="12.329286115312913"><ele>666.0</ele><time>2026-04-26T09:10:37Z</time></trkpt><trkpt lat="43.509247233217" lon="12.3292955000777"><ele>666.0</ele><time>2026-04-26T09:10:38Z</time></trkpt><trkpt lat="43.509365185627985" lon="12.329298609622258"><ele>666.0</ele><time>2026-04-26T09:10:39Z</time></trkpt><trkpt lat="43.509479284307545" lon="12.329243130921448"><ele>666.0</ele><time>2026-04-26T09:10:40Z</time></trkpt><trkpt lat="43.50961104722397" lon="12.329150227888533"><ele>666.0</ele><time>2026-04-26T09:10:41Z</time></trkpt><trkpt lat="43.50971522436345" lon="12.329067745796515"><ele>666.0</ele><time>2026-04-26T09:10:42Z</time></trkpt><trkpt lat="43.50980763096225" lon="12.328989974678922"><ele>666.0</ele><time>2026-04-26T09:10:43Z</time></trkpt><trkpt lat="43.50995676957597" lon="12.328845753519067"><ele>666.0</ele><time>2026-04-26T09:10:44Z</time></trkpt><trkpt lat="43.51008006595621" lon="12.328743430085346"><ele>666.0</ele><time>2026-04-26T09:10:45Z</time></trkpt><trkpt lat="43.51020006058348" lon="12.328646214042882"><ele>666.0</ele><time>2026-04-26T09:10:46Z</time></trkpt><trkpt lat="43.5103119847255" lon="12.328551913777137"><ele>666.0</ele><time>2026-04-26T09:10:47Z</time></trkpt><trkpt lat="43.51043459181965" lon="12.328471688927742"><ele>666.0</ele><time>2026-04-26T09:10:48Z</time></trkpt><trkpt lat="43.51057193419697" lon="12.328435232953744"><ele>665.3333333333334</ele><time>2026-04-26T09:10:49Z</time></trkpt><trkpt lat="43.510718494325666" lon="12.328445887836537"><ele>664.6666666666667</ele><time>2026-04-26T09:10:50Z</time></trkpt><trkpt lat="43.51087043122593" lon="12.328483250338667"><ele>664.0</ele><time>2026-04-26T09:10:51Z</time></trkpt><trkpt lat="43.51102378374525" lon="12.328528065949456"><ele>664.0</ele><time>2026-04-26T09:10:52Z</time></trkpt><trkpt lat="43.511173246802606" lon="12.328578291061215"><ele>664.0</ele><time>2026-04-26T09:10:53Z</time></trkpt><trkpt lat="43.511322524181466" lon="12.328623517001965"><ele>664.0</ele><time>2026-04-26T09:10:54Z</time></trkpt><trkpt lat="43.51147188612592" lon="12.328667808065921"><ele>668.3333333333334</ele><time>2026-04-26T09:10:55Z</time></trkpt><trkpt lat="43.51162247931092" lon="12.328710876191469"><ele>672.6666666666666</ele><time>2026-04-26T09:10:56Z</time></trkpt><trkpt lat="43.511774158634665" lon="12.328754091896386"><ele>677.0</ele><time>2026-04-26T09:10:57Z</time></trkpt><trkpt lat="43.51192309223778" lon="12.328801808586459"><ele>677.0</ele><time>2026-04-26T09:10:58Z</time></trkpt><trkpt lat="43.51206789767381" lon="12.328845437902705"><ele>677.0</ele><time>2026-04-26T09:10:59Z</time></trkpt><trkpt lat="43.51220348139736" lon="12.328883626259683"><ele>677.0</ele><time>2026-04-26T09:11:00Z</time></trkpt><trkpt lat="43.512338906969575" lon="12.328934624641127"><ele>677.0</ele><time>2026-04-26T09:11:01Z</time></trkpt><trkpt lat="43.51245821191608" lon="12.329027668251308"><ele>675.5</ele><time>2026-04-26T09:11:02Z</time></trkpt><trkpt lat="43.51254848504698" lon="12.329162493550028"><ele>674.0</ele><time>2026-04-26T09:11:03Z</time></trkpt><trkpt lat="43.51259211575482" lon="12.329336642190798"><ele>672.5</ele><time>2026-04-26T09:11:04Z</time></trkpt><trkpt lat="43.51261225018587" lon="12.329501231454405"><ele>671.0</ele><time>2026-04-26T09:11:05Z</time></trkpt><trkpt lat="43.5126076049191" lon="12.329680425959294"><ele>669.1999999999999</ele><time>2026-04-26T09:11:06Z</time></trkpt><trkpt lat="43.51259746670868" lon="12.329840704260477"><ele>667.4</ele><time>2026-04-26T09:11:07Z</time></trkpt><trkpt lat="43.51260214773688" lon="12.329986056122632"><ele>665.6</ele><time>2026-04-26T09:11:08Z</time></trkpt><trkpt lat="43.51260476245737" lon="12.330122328773857"><ele>663.8</ele><time>2026-04-26T09:11:09Z</time></trkpt><trkpt lat="43.512628964811995" lon="12.330267407275212"><ele>662.0</ele><time>2026-04-26T09:11:10Z</time></trkpt><trkpt lat="43.512720843265896" lon="12.33038752305014"><ele>662.0</ele><time>2026-04-26T09:11:11Z</time></trkpt><trkpt lat="43.51284943065465" lon="12.330442452893234"><ele>662.0</ele><time>2026-04-26T09:11:12Z</time></trkpt><trkpt lat="43.51297872898743" lon="12.330454173353456"><ele>662.0</ele><time>2026-04-26T09:11:13Z</time></trkpt><trkpt lat="43.51311106469625" lon="12.330475944382739"><ele>662.0</ele><time>2026-04-26T09:11:14Z</time></trkpt><trkpt lat="43.51323961858269" lon="12.330494699671013"><ele>663.75</ele><time>2026-04-26T09:11:15Z</time></trkpt><trkpt lat="43.513367131809304" lon="12.330512556160054"><ele>665.5</ele><time>2026-04-26T09:11:16Z</time></trkpt><trkpt lat="43.513493170192014" lon="12.330549879909025"><ele>667.25</ele><time>2026-04-26T09:11:17Z</time></trkpt><trkpt lat="43.51359400866231" lon="12.330672981903247"><ele>669.0</ele><time>2026-04-26T09:11:18Z</time></trkpt><trkpt lat="43.51367099683325" lon="12.330816533720396"><ele>669.0</ele><time>2026-04-26T09:11:19Z</time></trkpt><trkpt lat="43.513698757392284" lon="12.330985632068915"><ele>669.0</ele><time>2026-04-26T09:11:20Z</time></trkpt><trkpt lat="43.513696099738006" lon="12.331145141266882"><ele>669.0</ele><time>2026-04-26T09:11:21Z</time></trkpt><trkpt lat="43.51371359698666" lon="12.331281606216697"><ele>669.0</ele><time>2026-04-26T09:11:22Z</time></trkpt><trkpt lat="43.51371893809957" lon="12.331437058140438"><ele>670.5</ele><time>2026-04-26T09:11:23Z</time></trkpt><trkpt lat="43.513773975232674" lon="12.331584381083513"><ele>672.0</ele><time>2026-04-26T09:11:24Z</time></trkpt><trkpt lat="43.5139000781882" lon="12.331680417309794"><ele>673.5</ele><time>2026-04-26T09:11:25Z</time></trkpt><trkpt lat="43.51402522211245" lon="12.331677981507793"><ele>675.0</ele><time>2026-04-26T09:11:26Z</time></trkpt><trkpt lat="43.514150080094936" lon="12.331665935327734"><ele>675.0</ele><time>2026-04-26T09:11:27Z</time></trkpt><trkpt lat="43.51426325636704" lon="12.331625333893914"><ele>675.0</ele><time>2026-04-26T09:11:28Z</time></trkpt><trkpt lat="43.5143581477819" lon="12.33157493833677"><ele>675.0</ele><time>2026-04-26T09:11:29Z</time></trkpt><trkpt lat="43.51445492116458" lon="12.331495869756196"><ele>675.0</ele><time>2026-04-26T09:11:30Z</time></trkpt><trkpt lat="43.51455420549711" lon="12.331424305390795"><ele>675.0</ele><time>2026-04-26T09:11:31Z</time></trkpt><trkpt lat="43.51466549505046" lon="12.331365103660191"><ele>678.5</ele><time>2026-04-26T09:11:32Z</time></trkpt><trkpt lat="43.51479891720583" lon="12.33137183534724"><ele>682.0</ele><time>2026-04-26T09:11:33Z</time></trkpt><trkpt lat="43.51492806173543" lon="12.33143657996498"><ele>685.5</ele><time>2026-04-26T09:11:34Z</time></trkpt><trkpt lat="43.515036018388" lon="12.331555664440913"><ele>689.0</ele><time>2026-04-26T09:11:35Z</time></trkpt><trkpt lat="43.515109818085534" lon="12.331708290975536"><ele>689.0</ele><time>2026-04-26T09:11:36Z</time></trkpt><trkpt lat="43.515189406537715" lon="12.331866994616073"><ele>689.0</ele><time>2026-04-26T09:11:37Z</time></trkpt><trkpt lat="43.515296755226316" lon="12.33207221393782"><ele>689.0</ele><time>2026-04-26T09:11:38Z</time></trkpt><trkpt lat="43.51543100770445" lon="12.332319951775931"><ele>693.3333333333333</ele><time>2026-04-26T09:11:39Z</time></trkpt><trkpt lat="43.51557177317647" lon="12.332555923469274"><ele>697.6666666666666</ele><time>2026-04-26T09:11:40Z</time></trkpt><trkpt lat="43.515693360119265" lon="12.332729563678283"><ele>702.0</ele><time>2026-04-26T09:11:41Z</time></trkpt><trkpt lat="43.51577732221634" lon="12.332890706212051"><ele>702.0</ele><time>2026-04-26T09:11:42Z</time></trkpt><trkpt lat="43.515831127150875" lon="12.33305202834695"><ele>702.0</ele><time>2026-04-26T09:11:43Z</time></trkpt><trkpt lat="43.51580267899299" lon="12.333239090507785"><ele>702.0</ele><time>2026-04-26T09:11:44Z</time></trkpt><trkpt lat="43.51570406713694" lon="12.333386991844588"><ele>702.0</ele><time>2026-04-26T09:11:45Z</time></trkpt><trkpt lat="43.51554022874565" lon="12.333502572009774"><ele>692.5</ele><time>2026-04-26T09:11:46Z</time></trkpt><trkpt lat="43.515400290446514" lon="12.333614388407875"><ele>683.0</ele><time>2026-04-26T09:11:47Z</time></trkpt><trkpt lat="43.51532729634361" lon="12.333788149269724"><ele>673.5</ele><time>2026-04-26T09:11:48Z</time></trkpt><trkpt lat="43.515313005579415" lon="12.333982539848424"><ele>664.0</ele><time>2026-04-26T09:11:49Z</time></trkpt><trkpt lat="43.51534231324667" lon="12.334182745389771"><ele>672.6666666666667</ele><time>2026-04-26T09:11:50Z</time></trkpt><trkpt lat="43.5154701991807" lon="12.334323639044618"><ele>681.3333333333334</ele><time>2026-04-26T09:11:51Z</time></trkpt><trkpt lat="43.51561897940703" lon="12.334422409336192"><ele>690.0</ele><time>2026-04-26T09:11:52Z</time></trkpt><trkpt lat="43.515761635787" lon="12.334466973497666"><ele>690.0</ele><time>2026-04-26T09:11:53Z</time></trkpt><trkpt lat="43.51588621188757" lon="12.334502450006596"><ele>690.0</ele><time>2026-04-26T09:11:54Z</time></trkpt><trkpt lat="43.51600106588179" lon="12.334534631885143"><ele>690.0</ele><time>2026-04-26T09:11:55Z</time></trkpt><trkpt lat="43.51610592115302" lon="12.334564012034889"><ele>690.0</ele><time>2026-04-26T09:11:56Z</time></trkpt><trkpt lat="43.51622119988554" lon="12.334576655600046"><ele>687.5</ele><time>2026-04-26T09:11:57Z</time></trkpt><trkpt lat="43.51634949168591" lon="12.334614638411423"><ele>685.0</ele><time>2026-04-26T09:11:58Z</time></trkpt><trkpt lat="43.51648692758711" lon="12.334649982891596"><ele>682.5</ele><time>2026-04-26T09:11:59Z</time></trkpt><trkpt lat="43.51662786101212" lon="12.334691286984505"><ele>680.0</ele><time>2026-04-26T09:12:00Z</time></trkpt><trkpt lat="43.51677033613155" lon="12.334758674468512"><ele>680.0</ele><time>2026-04-26T09:12:01Z</time></trkpt><trkpt lat="43.51692415239184" lon="12.334792130401494"><ele>680.0</ele><time>2026-04-26T09:12:02Z</time></trkpt><trkpt lat="43.51707456131642" lon="12.334876910030296"><ele>680.0</ele><time>2026-04-26T09:12:03Z</time></trkpt><trkpt lat="43.5172382978216" lon="12.334925520109103"><ele>684.3333333333333</ele><time>2026-04-26T09:12:04Z</time></trkpt><trkpt lat="43.51739839532855" lon="12.334998359797895"><ele>688.6666666666666</ele><time>2026-04-26T09:12:05Z</time></trkpt><trkpt lat="43.51755380964516" lon="12.335095657041537"><ele>693.0</ele><time>2026-04-26T09:12:06Z</time></trkpt><trkpt lat="43.517707677492304" lon="12.33518464559583"><ele>693.0</ele><time>2026-04-26T09:12:07Z</time></trkpt><trkpt lat="43.51784331004948" lon="12.335312717485849"><ele>693.0</ele><time>2026-04-26T09:12:08Z</time></trkpt><trkpt lat="43.517935202750586" lon="12.33552086820058"><ele>693.0</ele><time>2026-04-26T09:12:09Z</time></trkpt><trkpt lat="43.51798146557506" lon="12.335767526356333"><ele>691.3333333333334</ele><time>2026-04-26T09:12:10Z</time></trkpt><trkpt lat="43.517991819693286" lon="12.33604041164369"><ele>689.6666666666667</ele><time>2026-04-26T09:12:11Z</time></trkpt><trkpt lat="43.51797632358826" lon="12.336318046274435"><ele>688.0</ele><time>2026-04-26T09:12:12Z</time></trkpt><trkpt lat="43.51789899812573" lon="12.336579693932018"><ele>688.0</ele><time>2026-04-26T09:12:13Z</time></trkpt><trkpt lat="43.51777229409905" lon="12.336805906475353"><ele>688.0</ele><time>2026-04-26T09:12:14Z</time></trkpt><trkpt lat="43.51760313447086" lon="12.336999701783839"><ele>688.0</ele><time>2026-04-26T09:12:15Z</time></trkpt><trkpt lat="43.51742498145104" lon="12.337172589247148"><ele>688.3333333333334</ele><time>2026-04-26T09:12:16Z</time></trkpt><trkpt lat="43.517256544469326" lon="12.337361522735248"><ele>688.6666666666666</ele><time>2026-04-26T09:12:17Z</time></trkpt><trkpt lat="43.51709137696569" lon="12.337568034222754"><ele>689.0</ele><time>2026-04-26T09:12:18Z</time></trkpt><trkpt lat="43.51689539779392" lon="12.337725018626953"><ele>689.0</ele><time>2026-04-26T09:12:19Z</time></trkpt><trkpt lat="43.516684785236" lon="12.337883158635822"><ele>689.0</ele><time>2026-04-26T09:12:20Z</time></trkpt><trkpt lat="43.51646885076925" lon="12.338043200518813"><ele>690.6666666666666</ele><time>2026-04-26T09:12:21Z</time></trkpt><trkpt lat="43.51626697575049" lon="12.338191437231014"><ele>692.3333333333334</ele><time>2026-04-26T09:12:22Z</time></trkpt><trkpt lat="43.51608103547472" lon="12.338324110705805"><ele>694.0</ele><time>2026-04-26T09:12:23Z</time></trkpt><trkpt lat="43.51592731903635" lon="12.338432286865762"><ele>694.0</ele><time>2026-04-26T09:12:24Z</time></trkpt><trkpt lat="43.51579704957306" lon="12.33855007144052"><ele>694.0</ele><time>2026-04-26T09:12:25Z</time></trkpt><trkpt lat="43.515671881226886" lon="12.338667031652045"><ele>694.0</ele><time>2026-04-26T09:12:26Z</time></trkpt><trkpt lat="43.51559285787978" lon="12.338887434446924"><ele>696.3333333333334</ele><time>2026-04-26T09:12:27Z</time></trkpt><trkpt lat="43.51557955056441" lon="12.339138549487304"><ele>698.6666666666666</ele><time>2026-04-26T09:12:28Z</time></trkpt><trkpt lat="43.5156384543582" lon="12.339350525522388"><ele>701.0</ele><time>2026-04-26T09:12:29Z</time></trkpt><trkpt lat="43.51574734883156" lon="12.339538183990037"><ele>701.0</ele><time>2026-04-26T09:12:30Z</time></trkpt><trkpt lat="43.51590215492032" lon="12.339638219385096"><ele>701.0</ele><time>2026-04-26T09:12:31Z</time></trkpt><trkpt lat="43.51604467094639" lon="12.339729274294566"><ele>701.0</ele><time>2026-04-26T09:12:32Z</time></trkpt><trkpt lat="43.5162022994371" lon="12.339812863455071"><ele>703.0</ele><time>2026-04-26T09:12:33Z</time></trkpt><trkpt lat="43.51636114905927" lon="12.339891135409864"><ele>705.0</ele><time>2026-04-26T09:12:34Z</time></trkpt><trkpt lat="43.51651498371852" lon="12.339978553304613"><ele>707.0</ele><time>2026-04-26T09:12:35Z</time></trkpt><trkpt lat="43.51667752842128" lon="12.340064159925644"><ele>707.0</ele><time>2026-04-26T09:12:36Z</time></trkpt><trkpt lat="43.5168410562226" lon="12.340151474902832"><ele>707.0</ele><time>2026-04-26T09:12:37Z</time></trkpt><trkpt lat="43.51700428909831" lon="12.340236353083254"><ele>707.0</ele><time>2026-04-26T09:12:38Z</time></trkpt><trkpt lat="43.51716897434434" lon="12.340297829597654"><ele>712.0</ele><time>2026-04-26T09:12:39Z</time></trkpt><trkpt lat="43.51732953808003" lon="12.340323086356713"><ele>717.0</ele><time>2026-04-26T09:12:40Z</time></trkpt><trkpt lat="43.51747997122641" lon="12.340307790762703"><ele>722.0</ele><time>2026-04-26T09:12:41Z</time></trkpt><trkpt lat="43.51762685911011" lon="12.340290398523372"><ele>722.0</ele><time>2026-04-26T09:12:42Z</time></trkpt><trkpt lat="43.51777408408974" lon="12.340301622055597"><ele>722.0</ele><time>2026-04-26T09:12:43Z</time></trkpt><trkpt lat="43.51791775700429" lon="12.340286914836282"><ele>722.0</ele><time>2026-04-26T09:12:44Z</time></trkpt><trkpt lat="43.51805856454809" lon="12.340333030905372"><ele>722.0</ele><time>2026-04-26T09:12:45Z</time></trkpt><trkpt lat="43.518191615417976" lon="12.340378306287311"><ele>724.25</ele><time>2026-04-26T09:12:46Z</time></trkpt><trkpt lat="43.51831267491237" lon="12.340434621509408"><ele>726.5</ele><time>2026-04-26T09:12:47Z</time></trkpt><trkpt lat="43.51843262519866" lon="12.340503773998686"><ele>728.75</ele><time>2026-04-26T09:12:48Z</time></trkpt><trkpt lat="43.51855102922445" lon="12.340579673541836"><ele>731.0</ele><time>2026-04-26T09:12:49Z</time></trkpt><trkpt lat="43.5186634054732" lon="12.340661163355515"><ele>727.75</ele><time>2026-04-26T09:12:50Z</time></trkpt><trkpt lat="43.51876620152" lon="12.34076240796411"><ele>724.5</ele><time>2026-04-26T09:12:51Z</time></trkpt><trkpt lat="43.51886495500596" lon="12.340870648403888"><ele>721.25</ele><time>2026-04-26T09:12:52Z</time></trkpt><trkpt lat="43.518947109274755" lon="12.340992067263882"><ele>718.0</ele><time>2026-04-26T09:12:53Z</time></trkpt><trkpt lat="43.518996849217814" lon="12.341139215319338"><ele>718.0</ele><time>2026-04-26T09:12:54Z</time></trkpt><trkpt lat="43.51901402539605" lon="12.341304988234375"><ele>718.0</ele><time>2026-04-26T09:12:55Z</time></trkpt><trkpt lat="43.518995712868886" lon="12.341478746373006"><ele>718.0</ele><time>2026-04-26T09:12:56Z</time></trkpt><trkpt lat="43.51892768746349" lon="12.34165067621995"><ele>718.0</ele><time>2026-04-26T09:12:57Z</time></trkpt><trkpt lat="43.518829863977174" lon="12.34179138349198"><ele>711.75</ele><time>2026-04-26T09:12:58Z</time></trkpt><trkpt lat="43.51872596999758" lon="12.34193602406367"><ele>705.5</ele><time>2026-04-26T09:12:59Z</time></trkpt><trkpt lat="43.5186386611619" lon="12.342077293070568"><ele>699.25</ele><time>2026-04-26T09:13:00Z</time></trkpt><trkpt lat="43.51856290479332" lon="12.3422165164073"><ele>693.0</ele><time>2026-04-26T09:13:01Z</time></trkpt><trkpt lat="43.5185192151841" lon="12.342383920012182"><ele>693.0</ele><time>2026-04-26T09:13:02Z</time></trkpt><trkpt lat="43.51850605908051" lon="12.342576394093895"><ele>693.0</ele><time>2026-04-26T09:13:03Z</time></trkpt><trkpt lat="43.51851608118046" lon="12.34276810380972"><ele>693.0</ele><time>2026-04-26T09:13:04Z</time></trkpt><trkpt lat="43.51854204353613" lon="12.342964595252806"><ele>693.0</ele><time>2026-04-26T09:13:05Z</time></trkpt><trkpt lat="43.51862260491785" lon="12.343144794729097"><ele>693.6666666666666</ele><time>2026-04-26T09:13:06Z</time></trkpt><trkpt lat="43.51869662067908" lon="12.343317971999241"><ele>694.3333333333333</ele><time>2026-04-26T09:13:07Z</time></trkpt><trkpt lat="43.51872814142579" lon="12.343522427708143"><ele>695.0</ele><time>2026-04-26T09:13:08Z</time></trkpt><trkpt lat="43.51866603188119" lon="12.343728617989683"><ele>694.3333333333333</ele><time>2026-04-26T09:13:09Z</time></trkpt><trkpt lat="43.51861148026367" lon="12.343945618012574"><ele>693.6666666666666</ele><time>2026-04-26T09:13:10Z</time></trkpt><trkpt lat="43.51855233869321" lon="12.344171189402926"><ele>693.0</ele><time>2026-04-26T09:13:11Z</time></trkpt><trkpt lat="43.5185546938652" lon="12.34441463113348"><ele>693.0</ele><time>2026-04-26T09:13:12Z</time></trkpt><trkpt lat="43.51859082905516" lon="12.34466823930667"><ele>693.0</ele><time>2026-04-26T09:13:13Z</time></trkpt><trkpt lat="43.51864584530627" lon="12.344902862406904"><ele>693.0</ele><time>2026-04-26T09:13:14Z</time></trkpt><trkpt lat="43.51871347606036" lon="12.34513362403565"><ele>703.6666666666666</ele><time>2026-04-26T09:13:15Z</time></trkpt><trkpt lat="43.51879691547753" lon="12.34536868512139"><ele>714.3333333333333</ele><time>2026-04-26T09:13:16Z</time></trkpt><trkpt lat="43.51888979304089" lon="12.34559479107628"><ele>725.0</ele><time>2026-04-26T09:13:17Z</time></trkpt><trkpt lat="43.51896888648634" lon="12.34578976291043"><ele>725.0</ele><time>2026-04-26T09:13:18Z</time></trkpt><trkpt lat="43.51902044386603" lon="12.345950174914778"><ele>725.0</ele><time>2026-04-26T09:13:19Z</time></trkpt><trkpt lat="43.51904023233222" lon="12.346104951417297"><ele>725.0</ele><time>2026-04-26T09:13:20Z</time></trkpt><trkpt lat="43.519008971666175" lon="12.346284254514144"><ele>725.0</ele><time>2026-04-26T09:13:21Z</time></trkpt><trkpt lat="43.51887395623581" lon="12.34642970701878"><ele>717.6666666666666</ele><time>2026-04-26T09:13:22Z</time></trkpt><trkpt lat="43.518695909397195" lon="12.346567028898134"><ele>710.3333333333334</ele><time>2026-04-26T09:13:23Z</time></trkpt><trkpt lat="43.518514379682486" lon="12.346710582751774"><ele>703.0</ele><time>2026-04-26T09:13:24Z</time></trkpt><trkpt lat="43.518358999373795" lon="12.346847902325003"><ele>703.0</ele><time>2026-04-26T09:13:25Z</time></trkpt><trkpt lat="43.51821375573515" lon="12.34697218310647"><ele>703.0</ele><time>2026-04-26T09:13:26Z</time></trkpt><trkpt lat="43.51808477503366" lon="12.347088864803753"><ele>703.0</ele><time>2026-04-26T09:13:27Z</time></trkpt><trkpt lat="43.51797945946456" lon="12.347197297039534"><ele>702.25</ele><time>2026-04-26T09:13:28Z</time></trkpt><trkpt lat="43.517895432518316" lon="12.347325894649922"><ele>701.5</ele><time>2026-04-26T09:13:29Z</time></trkpt><trkpt lat="43.51785026152448" lon="12.347504653005965"><ele>700.75</ele><time>2026-04-26T09:13:30Z</time></trkpt><trkpt lat="43.51783662438687" lon="12.347692596581819"><ele>700.0</ele><time>2026-04-26T09:13:31Z</time></trkpt><trkpt lat="43.517819395298595" lon="12.347875842832128"><ele>700.0</ele><time>2026-04-26T09:13:32Z</time></trkpt><trkpt lat="43.5177802226818" lon="12.348032641548222"><ele>700.0</ele><time>2026-04-26T09:13:33Z</time></trkpt><trkpt lat="43.51772464126178" lon="12.348182951348926"><ele>700.0</ele><time>2026-04-26T09:13:34Z</time></trkpt><trkpt lat="43.517651599668106" lon="12.348319258000844"><ele>700.0</ele><time>2026-04-26T09:13:35Z</time></trkpt><trkpt lat="43.51755005807843" lon="12.348416367566061"><ele>704.25</ele><time>2026-04-26T09:13:36Z</time></trkpt><trkpt lat="43.51744037917862" lon="12.34850037841961"><ele>708.5</ele><time>2026-04-26T09:13:37Z</time></trkpt><trkpt lat="43.517334470627375" lon="12.348604171250274"><ele>712.75</ele><time>2026-04-26T09:13:38Z</time></trkpt><trkpt lat="43.51722378265504" lon="12.348647170145309"><ele>717.0</ele><time>2026-04-26T09:13:39Z</time></trkpt><trkpt lat="43.517114924465155" lon="12.348649947758535"><ele>719.5</ele><time>2026-04-26T09:13:40Z</time></trkpt><trkpt lat="43.517003048191654" lon="12.348589782058639"><ele>722.0</ele><time>2026-04-26T09:13:41Z</time></trkpt><trkpt lat="43.51690957908697" lon="12.348488546062105"><ele>724.5</ele><time>2026-04-26T09:13:42Z</time></trkpt><trkpt lat="43.51683020747956" lon="12.34836658004285"><ele>727.0</ele><time>2026-04-26T09:13:43Z</time></trkpt><trkpt lat="43.5167532090283" lon="12.348240648106215"><ele>727.0</ele><time>2026-04-26T09:13:44Z</time></trkpt><trkpt lat="43.51669469524644" lon="12.348097705232272"><ele>727.0</ele><time>2026-04-26T09:13:45Z</time></trkpt><trkpt lat="43.516643266767254" lon="12.347966550975539"><ele>727.0</ele><time>2026-04-26T09:13:46Z</time></trkpt><trkpt lat="43.51658279478227" lon="12.347852206712965"><ele>727.0</ele><time>2026-04-26T09:13:47Z</time></trkpt><trkpt lat="43.51650963259439" lon="12.34777857411348"><ele>727.0</ele><time>2026-04-26T09:13:48Z</time></trkpt><trkpt lat="43.51642629056604" lon="12.347733923173898"><ele>724.25</ele><time>2026-04-26T09:13:49Z</time></trkpt><trkpt lat="43.51632836627309" lon="12.347710958577288"><ele>721.5</ele><time>2026-04-26T09:13:50Z</time></trkpt><trkpt lat="43.51621821176841" lon="12.347698733461783"><ele>718.75</ele><time>2026-04-26T09:13:51Z</time></trkpt><trkpt lat="43.516087213982786" lon="12.347690581242938"><ele>716.0</ele><time>2026-04-26T09:13:52Z</time></trkpt><trkpt lat="43.51593932641781" lon="12.347678440713327"><ele>716.0</ele><time>2026-04-26T09:13:53Z</time></trkpt><trkpt lat="43.515783081137144" lon="12.347663629962693"><ele>716.0</ele><time>2026-04-26T09:13:54Z</time></trkpt><trkpt lat="43.51561885311832" lon="12.347643347339114"><ele>716.0</ele><time>2026-04-26T09:13:55Z</time></trkpt><trkpt lat="43.51545368851302" lon="12.347613356749724"><ele>717.25</ele><time>2026-04-26T09:13:56Z</time></trkpt><trkpt lat="43.51529899429043" lon="12.34756484220033"><ele>718.5</ele><time>2026-04-26T09:13:57Z</time></trkpt><trkpt lat="43.51516299150408" lon="12.34750869789256"><ele>719.75</ele><time>2026-04-26T09:13:58Z</time></trkpt><trkpt lat="43.51503630946376" lon="12.347465526118594"><ele>721.0</ele><time>2026-04-26T09:13:59Z</time></trkpt><trkpt lat="43.51489505539961" lon="12.347472031926513"><ele>721.0</ele><time>2026-04-26T09:14:00Z</time></trkpt><trkpt lat="43.51475179326976" lon="12.3474950532438"><ele>721.0</ele><time>2026-04-26T09:14:01Z</time></trkpt><trkpt lat="43.514609437831346" lon="12.347508739055263"><ele>721.0</ele><time>2026-04-26T09:14:02Z</time></trkpt><trkpt lat="43.51446649628352" lon="12.347526262445417"><ele>721.0</ele><time>2026-04-26T09:14:03Z</time></trkpt><trkpt lat="43.51433813820263" lon="12.347550021441343"><ele>720.4</ele><time>2026-04-26T09:14:04Z</time></trkpt><trkpt lat="43.514228902481996" lon="12.347574544058057"><ele>719.8</ele><time>2026-04-26T09:14:05Z</time></trkpt><trkpt lat="43.51413858115502" lon="12.347627273298547"><ele>719.1999999999999</ele><time>2026-04-26T09:14:06Z</time></trkpt><trkpt lat="43.51406572336628" lon="12.34773056575414"><ele>718.5999999999999</ele><time>2026-04-26T09:14:07Z</time></trkpt><trkpt lat="43.51403201260441" lon="12.347865484206842"><ele>718.0</ele><time>2026-04-26T09:14:08Z</time></trkpt><trkpt lat="43.51402979960248" lon="12.34802625785725"><ele>719.25</ele><time>2026-04-26T09:14:09Z</time></trkpt><trkpt lat="43.51407946871439" lon="12.348213751512663"><ele>720.5</ele><time>2026-04-26T09:14:10Z</time></trkpt><trkpt lat="43.514113120995965" lon="12.348396710742046"><ele>721.75</ele><time>2026-04-26T09:14:11Z</time></trkpt><trkpt lat="43.51411919484871" lon="12.348599203823294"><ele>723.0</ele><time>2026-04-26T09:14:12Z</time></trkpt><trkpt lat="43.51409338710171" lon="12.348841412563697"><ele>723.6666666666666</ele><time>2026-04-26T09:14:13Z</time></trkpt><trkpt lat="43.514068602176856" lon="12.349126113254286"><ele>724.3333333333333</ele><time>2026-04-26T09:14:14Z</time></trkpt><trkpt lat="43.51408629423602" lon="12.349401587655052"><ele>725.0</ele><time>2026-04-26T09:14:15Z</time></trkpt><trkpt lat="43.51410796562578" lon="12.349626077411106"><ele>727.75</ele><time>2026-04-26T09:14:16Z</time></trkpt><trkpt lat="43.51410607846781" lon="12.349817391658465"><ele>730.5</ele><time>2026-04-26T09:14:17Z</time></trkpt><trkpt lat="43.51406441937654" lon="12.349975267994997"><ele>733.25</ele><time>2026-04-26T09:14:18Z</time></trkpt><trkpt lat="43.513969875268515" lon="12.350113364175108"><ele>736.0</ele><time>2026-04-26T09:14:19Z</time></trkpt><trkpt lat="43.51382972445779" lon="12.350176751694312"><ele>731.6666666666667</ele><time>2026-04-26T09:14:20Z</time></trkpt><trkpt lat="43.51367370815539" lon="12.35018059690359"><ele>727.3333333333334</ele><time>2026-04-26T09:14:21Z</time></trkpt><trkpt lat="43.51350176416966" lon="12.35015170673777"><ele>723.0</ele><time>2026-04-26T09:14:22Z</time></trkpt><trkpt lat="43.51332657887315" lon="12.3501317081072"><ele>723.0</ele><time>2026-04-26T09:14:23Z</time></trkpt><trkpt lat="43.51315022132794" lon="12.350101584039818"><ele>723.0</ele><time>2026-04-26T09:14:24Z</time></trkpt><trkpt lat="43.51296994708372" lon="12.350047792759307"><ele>723.0</ele><time>2026-04-26T09:14:25Z</time></trkpt><trkpt lat="43.51280065165638" lon="12.349935093378996"><ele>724.3333333333334</ele><time>2026-04-26T09:14:26Z</time></trkpt><trkpt lat="43.5126440446412" lon="12.349772899756871"><ele>725.6666666666667</ele><time>2026-04-26T09:14:27Z</time></trkpt><trkpt lat="43.51251561173588" lon="12.349566673080762"><ele>727.0</ele><time>2026-04-26T09:14:28Z</time></trkpt><trkpt lat="43.51238536163875" lon="12.349371999374926"><ele>724.6666666666667</ele><time>2026-04-26T09:14:29Z</time></trkpt><trkpt lat="43.51224114003444" lon="12.349208483346947"><ele>722.3333333333334</ele><time>2026-04-26T09:14:30Z</time></trkpt><trkpt lat="43.5121033799189" lon="12.349068504075023"><ele>720.0</ele><time>2026-04-26T09:14:31Z</time></trkpt><trkpt lat="43.51198215836204" lon="12.34894562671186"><ele>720.0</ele><time>2026-04-26T09:14:32Z</time></trkpt><trkpt lat="43.5118803524713" lon="12.3488563658021"><ele>720.0</ele><time>2026-04-26T09:14:33Z</time></trkpt><trkpt lat="43.51180626274923" lon="12.348798653218541"><ele>720.0</ele><time>2026-04-26T09:14:34Z</time></trkpt><trkpt lat="43.51173218090475" lon="12.348779781609894"><ele>720.0</ele><time>2026-04-26T09:14:35Z</time></trkpt><trkpt lat="43.51165044847616" lon="12.348824673231665"><ele>720.0</ele><time>2026-04-26T09:14:36Z</time></trkpt><trkpt lat="43.511600018077374" lon="12.348934269335395"><ele>720.0</ele><time>2026-04-26T09:14:37Z</time></trkpt><trkpt lat="43.511585384562906" lon="12.349084415597822"><ele>720.0</ele><time>2026-04-26T09:14:38Z</time></trkpt><trkpt lat="43.51160376860472" lon="12.349278312587494"><ele>720.0</ele><time>2026-04-26T09:14:39Z</time></trkpt><trkpt lat="43.51167165887716" lon="12.349484739923572"><ele>720.0</ele><time>2026-04-26T09:14:40Z</time></trkpt><trkpt lat="43.51176206162932" lon="12.34967328750133"><ele>718.3333333333334</ele><time>2026-04-26T09:14:41Z</time></trkpt><trkpt lat="43.511862269806954" lon="12.349849833384669"><ele>716.6666666666667</ele><time>2026-04-26T09:14:42Z</time></trkpt><trkpt lat="43.51196392898946" lon="12.350014729951264"><ele>715.0</ele><time>2026-04-26T09:14:43Z</time></trkpt><trkpt lat="43.512056093307606" lon="12.350170037034967"><ele>718.0</ele><time>2026-04-26T09:14:44Z</time></trkpt><trkpt lat="43.51212063309713" lon="12.350326633689583"><ele>721.0</ele><time>2026-04-26T09:14:45Z</time></trkpt><trkpt lat="43.51215450875202" lon="12.350506250006996"><ele>724.0</ele><time>2026-04-26T09:14:46Z</time></trkpt><trkpt lat="43.51217711627665" lon="12.350703529325505"><ele>727.0</ele><time>2026-04-26T09:14:47Z</time></trkpt><trkpt lat="43.51217305973938" lon="12.350925700948991"><ele>729.5</ele><time>2026-04-26T09:14:48Z</time></trkpt><trkpt lat="43.512158957411835" lon="12.351132916411993"><ele>732.0</ele><time>2026-04-26T09:14:49Z</time></trkpt><trkpt lat="43.51214882865798" lon="12.35131459828941"><ele>734.5</ele><time>2026-04-26T09:14:50Z</time></trkpt><trkpt lat="43.5121408393439" lon="12.351481637415"><ele>737.0</ele><time>2026-04-26T09:14:51Z</time></trkpt><trkpt lat="43.51217706027099" lon="12.351655243105188"><ele>737.0</ele><time>2026-04-26T09:14:52Z</time></trkpt><trkpt lat="43.51226015554111" lon="12.351808363759838"><ele>737.0</ele><time>2026-04-26T09:14:53Z</time></trkpt><trkpt lat="43.51237209381803" lon="12.351945315998268"><ele>737.0</ele><time>2026-04-26T09:14:54Z</time></trkpt><trkpt lat="43.51248066177508" lon="12.352058514781032"><ele>737.0</ele><time>2026-04-26T09:14:55Z</time></trkpt><trkpt lat="43.51260025030099" lon="12.352196248468331"><ele>732.3333333333333</ele><time>2026-04-26T09:14:56Z</time></trkpt><trkpt lat="43.51270593129981" lon="12.352350963027483"><ele>727.6666666666666</ele><time>2026-04-26T09:14:57Z</time></trkpt><trkpt lat="43.51278131728443" lon="12.352527961440911"><ele>723.0</ele><time>2026-04-26T09:14:58Z</time></trkpt><trkpt lat="43.512858900638456" lon="12.3527167351994"><ele>726.0</ele><time>2026-04-26T09:14:59Z</time></trkpt><trkpt lat="43.51291086040789" lon="12.352889335195727"><ele>729.0</ele><time>2026-04-26T09:15:00Z</time></trkpt><trkpt lat="43.5129650826044" lon="12.353043459318943"><ele>732.0</ele><time>2026-04-26T09:15:01Z</time></trkpt><trkpt lat="43.513043389340424" lon="12.353197915480086"><ele>735.0</ele><time>2026-04-26T09:15:02Z</time></trkpt><trkpt lat="43.51315631793675" lon="12.353304625340476"><ele>735.0</ele><time>2026-04-26T09:15:03Z</time></trkpt><trkpt lat="43.51329308798679" lon="12.353393698776344"><ele>735.0</ele><time>2026-04-26T09:15:04Z</time></trkpt><trkpt lat="43.51345611200642" lon="12.353476000506646"><ele>735.0</ele><time>2026-04-26T09:15:05Z</time></trkpt><trkpt lat="43.51361697028608" lon="12.353545304748375"><ele>740.0</ele><time>2026-04-26T09:15:06Z</time></trkpt><trkpt lat="43.513796090272464" lon="12.353589586727542"><ele>745.0</ele><time>2026-04-26T09:15:07Z</time></trkpt><trkpt lat="43.51398154635448" lon="12.353607178352396"><ele>750.0</ele><time>2026-04-26T09:15:08Z</time></trkpt><trkpt lat="43.51414779357686" lon="12.353621322877869"><ele>750.0</ele><time>2026-04-26T09:15:09Z</time></trkpt><trkpt lat="43.514309934582975" lon="12.35363345730089"><ele>750.0</ele><time>2026-04-26T09:15:10Z</time></trkpt><trkpt lat="43.51445547525165" lon="12.353643314543774"><ele>750.0</ele><time>2026-04-26T09:15:11Z</time></trkpt><trkpt lat="43.5145860175436" lon="12.353647876030431"><ele>750.0</ele><time>2026-04-26T09:15:12Z</time></trkpt><trkpt lat="43.5147162530606" lon="12.35359608334596"><ele>749.0</ele><time>2026-04-26T09:15:13Z</time></trkpt><trkpt lat="43.51484402206036" lon="12.353529844178107"><ele>748.0</ele><time>2026-04-26T09:15:14Z</time></trkpt><trkpt lat="43.51497767212107" lon="12.353438755504046"><ele>747.0</ele><time>2026-04-26T09:15:15Z</time></trkpt><trkpt lat="43.51511434772359" lon="12.35334532336574"><ele>746.0</ele><time>2026-04-26T09:15:16Z</time></trkpt><trkpt lat="43.515252735536286" lon="12.353275434661224"><ele>746.0</ele><time>2026-04-26T09:15:17Z</time></trkpt><trkpt lat="43.515395868714" lon="12.353194815997117"><ele>746.0</ele><time>2026-04-26T09:15:18Z</time></trkpt><trkpt lat="43.51554056890313" lon="12.35316687676413"><ele>746.0</ele><time>2026-04-26T09:15:19Z</time></trkpt><trkpt lat="43.51566846575911" lon="12.353149210464673"><ele>746.0</ele><time>2026-04-26T09:15:20Z</time></trkpt><trkpt lat="43.51578745840618" lon="12.353149733448696"><ele>745.75</ele><time>2026-04-26T09:15:21Z</time></trkpt><trkpt lat="43.51588637216018" lon="12.353234698992802"><ele>745.5</ele><time>2026-04-26T09:15:22Z</time></trkpt><trkpt lat="43.51598091513635" lon="12.35333871516113"><ele>745.25</ele><time>2026-04-26T09:15:23Z</time></trkpt><trkpt lat="43.516042683611495" lon="12.353477467937028"><ele>745.0</ele><time>2026-04-26T09:15:24Z</time></trkpt><trkpt lat="43.51607636988114" lon="12.353647336250361"><ele>745.0</ele><time>2026-04-26T09:15:25Z</time></trkpt><trkpt lat="43.516095396786646" lon="12.353834631399872"><ele>745.0</ele><time>2026-04-26T09:15:26Z</time></trkpt><trkpt lat="43.516064474670266" lon="12.354008162774914"><ele>745.0</ele><time>2026-04-26T09:15:27Z</time></trkpt><trkpt lat="43.51602546764263" lon="12.354176797208572"><ele>745.0</ele><time>2026-04-26T09:15:28Z</time></trkpt><trkpt lat="43.51600480662432" lon="12.354333409322884"><ele>742.2</ele><time>2026-04-26T09:15:29Z</time></trkpt><trkpt lat="43.515979168547254" lon="12.354481414923413"><ele>739.4</ele><time>2026-04-26T09:15:30Z</time></trkpt><trkpt lat="43.51598287901334" lon="12.354638192714338"><ele>736.5999999999999</ele><time>2026-04-26T09:15:31Z</time></trkpt><trkpt lat="43.51600099097028" lon="12.354797479261975"><ele>733.8</ele><time>2026-04-26T09:15:32Z</time></trkpt><trkpt lat="43.51601442531714" lon="12.354930594122022"><ele>731.0</ele><time>2026-04-26T09:15:33Z</time></trkpt><trkpt lat="43.51601947970437" lon="12.355057747908244"><ele>730.8</ele><time>2026-04-26T09:15:34Z</time></trkpt><trkpt lat="43.516013543130555" lon="12.355161076684526"><ele>730.5999999999999</ele><time>2026-04-26T09:15:35Z</time></trkpt><trkpt lat="43.515982873121175" lon="12.355317201704448"><ele>730.4</ele><time>2026-04-26T09:15:37Z</time></trkpt><trkpt lat="43.51595709037552" lon="12.35540288927653"><ele>730.2</ele><time>2026-04-26T09:15:38Z</time></trkpt><trkpt lat="43.515903925086526" lon="12.35553558847611"><ele>730.0</ele><time>2026-04-26T09:15:40Z</time></trkpt><trkpt lat="43.515854926315136" lon="12.355638047564518"><ele>730.0</ele><time>2026-04-26T09:15:42Z</time></trkpt><trkpt lat="43.51579717428254" lon="12.35575254723516"><ele>730.0</ele><time>2026-04-26T09:15:44Z</time></trkpt><trkpt lat="43.515745061406044" lon="12.355863954534081"><ele>730.0</ele><time>2026-04-26T09:15:46Z</time></trkpt><trkpt lat="43.51567853005768" lon="12.35598121144438"><ele>730.0</ele><time>2026-04-26T09:15:48Z</time></trkpt><trkpt lat="43.51564699138193" lon="12.356062224082018"><ele>730.0</ele><time>2026-04-26T09:15:49Z</time></trkpt><trkpt lat="43.515606301886926" lon="12.356156721786856"><ele>730.0</ele><time>2026-04-26T09:15:50Z</time></trkpt><trkpt lat="43.51559063391625" lon="12.356264972015639"><ele>730.0</ele><time>2026-04-26T09:15:51Z</time></trkpt><trkpt lat="43.51558779834563" lon="12.356370031120072"><ele>730.0</ele><time>2026-04-26T09:15:52Z</time></trkpt><trkpt lat="43.51559667653166" lon="12.35648644019172"><ele>730.0</ele><time>2026-04-26T09:15:53Z</time></trkpt><trkpt lat="43.51561307127468" lon="12.356605356648577"><ele>730.0</ele><time>2026-04-26T09:15:54Z</time></trkpt><trkpt lat="43.51563306251689" lon="12.356714079346482"><ele>730.0</ele><time>2026-04-26T09:15:55Z</time></trkpt><trkpt lat="43.51565110009238" lon="12.356801763360878"><ele>730.6666666666667</ele><time>2026-04-26T09:15:56Z</time></trkpt><trkpt lat="43.515672528904275" lon="12.35689883952078"><ele>731.3333333333334</ele><time>2026-04-26T09:15:57Z</time></trkpt><trkpt lat="43.515702047493015" lon="12.357011616601476"><ele>732.0</ele><time>2026-04-26T09:15:58Z</time></trkpt><trkpt lat="43.51573928927903" lon="12.3570995623009"><ele>732.6666666666666</ele><time>2026-04-26T09:15:59Z</time></trkpt><trkpt lat="43.51578986909048" lon="12.357174590742664"><ele>733.3333333333333</ele><time>2026-04-26T09:16:00Z</time></trkpt><trkpt lat="43.51586064769076" lon="12.357236625403493"><ele>734.0</ele><time>2026-04-26T09:16:01Z</time></trkpt><trkpt lat="43.51594864616664" lon="12.357266228396055"><ele>734.0</ele><time>2026-04-26T09:16:02Z</time></trkpt><trkpt lat="43.51603754552234" lon="12.357217249603037"><ele>734.0</ele><time>2026-04-26T09:16:03Z</time></trkpt><trkpt lat="43.516125382527335" lon="12.357170977856981"><ele>734.0</ele><time>2026-04-26T09:16:04Z</time></trkpt><trkpt lat="43.516213708829135" lon="12.357093035940892"><ele>734.0</ele><time>2026-04-26T09:16:05Z</time></trkpt><trkpt lat="43.51628931164193" lon="12.357014263279806"><ele>734.0</ele><time>2026-04-26T09:16:06Z</time></trkpt><trkpt lat="43.51634717011362" lon="12.356940500664006"><ele>735.0</ele><time>2026-04-26T09:16:07Z</time></trkpt><trkpt lat="43.51641083006376" lon="12.356876594819878"><ele>736.0</ele><time>2026-04-26T09:16:08Z</time></trkpt><trkpt lat="43.51647520540763" lon="12.356788733134348"><ele>737.0</ele><time>2026-04-26T09:16:09Z</time></trkpt><trkpt lat="43.51652853060954" lon="12.35668547133764"><ele>738.0</ele><time>2026-04-26T09:16:10Z</time></trkpt><trkpt lat="43.51658392990332" lon="12.356589164491044"><ele>739.0</ele><time>2026-04-26T09:16:11Z</time></trkpt><trkpt lat="43.51666154289653" lon="12.356532738233481"><ele>740.0</ele><time>2026-04-26T09:16:12Z</time></trkpt><trkpt lat="43.51675089002162" lon="12.356569908677951"><ele>740.0</ele><time>2026-04-26T09:16:13Z</time></trkpt><trkpt lat="43.51682859730824" lon="12.356619391294325"><ele>740.0</ele><time>2026-04-26T09:16:14Z</time></trkpt><trkpt lat="43.51688218541432" lon="12.356731372339777"><ele>740.0</ele><time>2026-04-26T09:16:15Z</time></trkpt><trkpt lat="43.516936249487074" lon="12.356881426637198"><ele>740.0</ele><time>2026-04-26T09:16:16Z</time></trkpt><trkpt lat="43.516995438966035" lon="12.357056985607302"><ele>740.0</ele><time>2026-04-26T09:16:17Z</time></trkpt><trkpt lat="43.517053470261466" lon="12.357240554747971"><ele>738.25</ele><time>2026-04-26T09:16:18Z</time></trkpt><trkpt lat="43.517108775756974" lon="12.357406101849508"><ele>736.5</ele><time>2026-04-26T09:16:19Z</time></trkpt><trkpt lat="43.51717398171492" lon="12.357541281349016"><ele>734.75</ele><time>2026-04-26T09:16:20Z</time></trkpt><trkpt lat="43.51722468179529" lon="12.35768449747936"><ele>733.0</ele><time>2026-04-26T09:16:21Z</time></trkpt><trkpt lat="43.517321275736165" lon="12.357784174697741"><ele>733.0</ele><time>2026-04-26T09:16:22Z</time></trkpt><trkpt lat="43.517465364988524" lon="12.35786079610076"><ele>733.0</ele><time>2026-04-26T09:16:23Z</time></trkpt><trkpt lat="43.517623148966635" lon="12.357929086267115"><ele>733.0</ele><time>2026-04-26T09:16:24Z</time></trkpt><trkpt lat="43.517771413585905" lon="12.357994982724485"><ele>731.0</ele><time>2026-04-26T09:16:25Z</time></trkpt><trkpt lat="43.51789915850538" lon="12.358105719376411"><ele>729.0</ele><time>2026-04-26T09:16:26Z</time></trkpt><trkpt lat="43.5180287267771" lon="12.358205627050836"><ele>727.0</ele><time>2026-04-26T09:16:27Z</time></trkpt><trkpt lat="43.51816057089797" lon="12.358298326422887"><ele>725.0</ele><time>2026-04-26T09:16:28Z</time></trkpt><trkpt lat="43.51829890702131" lon="12.358363646445278"><ele>724.25</ele><time>2026-04-26T09:16:29Z</time></trkpt><trkpt lat="43.51844358147587" lon="12.358407937393242"><ele>723.5</ele><time>2026-04-26T09:16:30Z</time></trkpt><trkpt lat="43.51858382923581" lon="12.358450678994373"><ele>722.75</ele><time>2026-04-26T09:16:31Z</time></trkpt><trkpt lat="43.51869976498176" lon="12.358486011317586"><ele>722.0</ele><time>2026-04-26T09:16:32Z</time></trkpt><trkpt lat="43.51878535880908" lon="12.358512096704484"><ele>721.6</ele><time>2026-04-26T09:16:33Z</time></trkpt><trkpt lat="43.51887554455818" lon="12.358421097589924"><ele>721.2</ele><time>2026-04-26T09:16:34Z</time></trkpt><trkpt lat="43.51895114370304" lon="12.358359296784748"><ele>720.8</ele><time>2026-04-26T09:16:35Z</time></trkpt><trkpt lat="43.519017938738116" lon="12.358235419641131"><ele>720.4</ele><time>2026-04-26T09:16:36Z</time></trkpt><trkpt lat="43.519060428013546" lon="12.358096477675495"><ele>720.0</ele><time>2026-04-26T09:16:37Z</time></trkpt><trkpt lat="43.51907827144849" lon="12.357934210046468"><ele>720.0</ele><time>2026-04-26T09:16:38Z</time></trkpt><trkpt lat="43.51908876509421" lon="12.357791146081551"><ele>720.0</ele><time>2026-04-26T09:16:39Z</time></trkpt><trkpt lat="43.519123095533146" lon="12.357659580813028"><ele>720.0</ele><time>2026-04-26T09:16:40Z</time></trkpt><trkpt lat="43.51918223745286" lon="12.357548330741059"><ele>720.0</ele><time>2026-04-26T09:16:41Z</time></trkpt><trkpt lat="43.51926897196871" lon="12.35747819691517"><ele>720.0</ele><time>2026-04-26T09:16:42Z</time></trkpt><trkpt lat="43.51936125255755" lon="12.35746245618661"><ele>720.0</ele><time>2026-04-26T09:16:43Z</time></trkpt><trkpt lat="43.51945956639993" lon="12.357512325367646"><ele>720.0</ele><time>2026-04-26T09:16:44Z</time></trkpt><trkpt lat="43.51952757214611" lon="12.357634682459791"><ele>720.0</ele><time>2026-04-26T09:16:45Z</time></trkpt><trkpt lat="43.51954300700667" lon="12.357785601072662"><ele>720.0</ele><time>2026-04-26T09:16:46Z</time></trkpt><trkpt lat="43.519509370594776" lon="12.3579530792354"><ele>718.0</ele><time>2026-04-26T09:16:47Z</time></trkpt><trkpt lat="43.519466149953125" lon="12.358117743388098"><ele>716.0</ele><time>2026-04-26T09:16:48Z</time></trkpt><trkpt lat="43.519453147268045" lon="12.35825245331327"><ele>714.0</ele><time>2026-04-26T09:16:49Z</time></trkpt><trkpt lat="43.51948786234481" lon="12.358405403369584"><ele>712.0</ele><time>2026-04-26T09:16:50Z</time></trkpt><trkpt lat="43.519549884266176" lon="12.358556740735862"><ele>710.25</ele><time>2026-04-26T09:16:51Z</time></trkpt><trkpt lat="43.51963581691103" lon="12.358694281201709"><ele>708.5</ele><time>2026-04-26T09:16:52Z</time></trkpt><trkpt lat="43.51975011583478" lon="12.35881960134075"><ele>706.75</ele><time>2026-04-26T09:16:53Z</time></trkpt><trkpt lat="43.519888581359204" lon="12.358906829880434"><ele>705.0</ele><time>2026-04-26T09:16:54Z</time></trkpt><trkpt lat="43.520046469439926" lon="12.358983377788975"><ele>705.0</ele><time>2026-04-26T09:16:55Z</time></trkpt><trkpt lat="43.52022868403839" lon="12.359061629645385"><ele>705.0</ele><time>2026-04-26T09:16:56Z</time></trkpt><trkpt lat="43.52041255992801" lon="12.35916200526655"><ele>705.0</ele><time>2026-04-26T09:16:57Z</time></trkpt><trkpt lat="43.520618079830605" lon="12.359290881089908"><ele>706.5</ele><time>2026-04-26T09:16:58Z</time></trkpt><trkpt lat="43.52083145434797" lon="12.359454814810356"><ele>708.0</ele><time>2026-04-26T09:16:59Z</time></trkpt><trkpt lat="43.521029636717834" lon="12.359608777615364"><ele>705.6666666666666</ele><time>2026-04-26T09:17:00Z</time></trkpt><trkpt lat="43.52121400056031" lon="12.359750492692958"><ele>703.3333333333333</ele><time>2026-04-26T09:17:01Z</time></trkpt><trkpt lat="43.52138095817215" lon="12.35995783271071"><ele>701.0</ele><time>2026-04-26T09:17:02Z</time></trkpt><trkpt lat="43.52153518114723" lon="12.360222103949251"><ele>701.0</ele><time>2026-04-26T09:17:03Z</time></trkpt><trkpt lat="43.521690675513256" lon="12.360450178048124"><ele>701.0</ele><time>2026-04-26T09:17:04Z</time></trkpt><trkpt lat="43.5218333650695" lon="12.360641746397675"><ele>701.0</ele><time>2026-04-26T09:17:05Z</time></trkpt><trkpt lat="43.52197204484022" lon="12.36079790692136"><ele>697.3333333333333</ele><time>2026-04-26T09:17:06Z</time></trkpt><trkpt lat="43.52213043329592" lon="12.360899907004063"><ele>693.6666666666666</ele><time>2026-04-26T09:17:07Z</time></trkpt><trkpt lat="43.52227722717196" lon="12.360955986032291"><ele>690.0</ele><time>2026-04-26T09:17:08Z</time></trkpt><trkpt lat="43.52240354539761" lon="12.361060483666746"><ele>690.0</ele><time>2026-04-26T09:17:09Z</time></trkpt><trkpt lat="43.522495818418776" lon="12.361246062073597"><ele>690.0</ele><time>2026-04-26T09:17:10Z</time></trkpt><trkpt lat="43.522553590582454" lon="12.361473492780801"><ele>690.0</ele><time>2026-04-26T09:17:11Z</time></trkpt><trkpt lat="43.52260664036121" lon="12.361686563560772"><ele>692.0</ele><time>2026-04-26T09:17:12Z</time></trkpt><trkpt lat="43.522706861257625" lon="12.361843379045503"><ele>694.0</ele><time>2026-04-26T09:17:13Z</time></trkpt><trkpt lat="43.52286013567722" lon="12.361957831451688"><ele>696.0</ele><time>2026-04-26T09:17:14Z</time></trkpt><trkpt lat="43.523060165212684" lon="12.362060201430012"><ele>689.3333333333334</ele><time>2026-04-26T09:17:15Z</time></trkpt><trkpt lat="43.523222868764776" lon="12.362228530147929"><ele>682.6666666666667</ele><time>2026-04-26T09:17:16Z</time></trkpt><trkpt lat="43.52337034312338" lon="12.362456352351058"><ele>676.0</ele><time>2026-04-26T09:17:17Z</time></trkpt><trkpt lat="43.52349885014892" lon="12.362698817107114"><ele>676.0</ele><time>2026-04-26T09:17:18Z</time></trkpt><trkpt lat="43.52363454066213" lon="12.362923833544487"><ele>676.0</ele><time>2026-04-26T09:17:19Z</time></trkpt><trkpt lat="43.52380519929064" lon="12.363087397150144"><ele>676.0</ele><time>2026-04-26T09:17:20Z</time></trkpt><trkpt lat="43.52398423396057" lon="12.363206731855955"><ele>674.6666666666667</ele><time>2026-04-26T09:17:21Z</time></trkpt><trkpt lat="43.52415608899149" lon="12.3632988294242"><ele>673.3333333333334</ele><time>2026-04-26T09:17:22Z</time></trkpt><trkpt lat="43.52433441305574" lon="12.363337330201794"><ele>672.0</ele><time>2026-04-26T09:17:23Z</time></trkpt><trkpt lat="43.52451889246057" lon="12.363334913193118"><ele>673.6666666666666</ele><time>2026-04-26T09:17:24Z</time></trkpt><trkpt lat="43.52471325801581" lon="12.363352217631116"><ele>675.3333333333333</ele><time>2026-04-26T09:17:25Z</time></trkpt><trkpt lat="43.524899577252945" lon="12.363433474497182"><ele>677.0</ele><time>2026-04-26T09:17:26Z</time></trkpt><trkpt lat="43.52507946766988" lon="12.363555177114884"><ele>677.0</ele><time>2026-04-26T09:17:27Z</time></trkpt><trkpt lat="43.525243095169984" lon="12.363727103923255"><ele>677.0</ele><time>2026-04-26T09:17:28Z</time></trkpt><trkpt lat="43.52538848110403" lon="12.363931703910062"><ele>677.0</ele><time>2026-04-26T09:17:29Z</time></trkpt><trkpt lat="43.52552669660994" lon="12.364137148042397"><ele>676.0</ele><time>2026-04-26T09:17:30Z</time></trkpt><trkpt lat="43.525660397435395" lon="12.364325275242592"><ele>675.0</ele><time>2026-04-26T09:17:31Z</time></trkpt><trkpt lat="43.52579999513407" lon="12.364479153707169"><ele>674.0</ele><time>2026-04-26T09:17:32Z</time></trkpt><trkpt lat="43.52594621288067" lon="12.364594277222738"><ele>674.0</ele><time>2026-04-26T09:17:33Z</time></trkpt><trkpt lat="43.52611616911971" lon="12.364663325261027"><ele>674.0</ele><time>2026-04-26T09:17:34Z</time></trkpt><trkpt lat="43.526298973011926" lon="12.364700654200249"><ele>674.0</ele><time>2026-04-26T09:17:35Z</time></trkpt><trkpt lat="43.52647995055263" lon="12.364743803265217"><ele>669.6666666666666</ele><time>2026-04-26T09:17:36Z</time></trkpt><trkpt lat="43.52665679366379" lon="12.364802573553593"><ele>665.3333333333334</ele><time>2026-04-26T09:17:37Z</time></trkpt><trkpt lat="43.52683161834464" lon="12.364866994049356"><ele>661.0</ele><time>2026-04-26T09:17:38Z</time></trkpt><trkpt lat="43.526997005486564" lon="12.364955528173727"><ele>661.0</ele><time>2026-04-26T09:17:39Z</time></trkpt><trkpt lat="43.527162401079266" lon="12.365050404817833"><ele>661.0</ele><time>2026-04-26T09:17:40Z</time></trkpt><trkpt lat="43.52731753812754" lon="12.365139637311291"><ele>661.0</ele><time>2026-04-26T09:17:41Z</time></trkpt><trkpt lat="43.52746056144478" lon="12.365238209713938"><ele>661.0</ele><time>2026-04-26T09:17:42Z</time></trkpt><trkpt lat="43.527597447035184" lon="12.365347867633838"><ele>661.0</ele><time>2026-04-26T09:17:43Z</time></trkpt><trkpt lat="43.52772281904183" lon="12.365471547530216"><ele>661.0</ele><time>2026-04-26T09:17:44Z</time></trkpt><trkpt lat="43.52785165367263" lon="12.3655943850349"><ele>658.3333333333334</ele><time>2026-04-26T09:17:45Z</time></trkpt><trkpt lat="43.528000348345444" lon="12.36565738471592"><ele>655.6666666666666</ele><time>2026-04-26T09:17:46Z</time></trkpt><trkpt lat="43.52815707362048" lon="12.365691765088796"><ele>653.0</ele><time>2026-04-26T09:17:47Z</time></trkpt><trkpt lat="43.52831916280115" lon="12.365728786752545"><ele>653.0</ele><time>2026-04-26T09:17:48Z</time></trkpt><trkpt lat="43.52848078683184" lon="12.365764108605237"><ele>653.0</ele><time>2026-04-26T09:17:49Z</time></trkpt><trkpt lat="43.52863862756616" lon="12.365800849614615"><ele>653.0</ele><time>2026-04-26T09:17:50Z</time></trkpt><trkpt lat="43.52879100431134" lon="12.36584079089735"><ele>651.5</ele><time>2026-04-26T09:17:51Z</time></trkpt><trkpt lat="43.52892791830592" lon="12.365911212197375"><ele>650.0</ele><time>2026-04-26T09:17:52Z</time></trkpt><trkpt lat="43.52903887651982" lon="12.366034646797699"><ele>648.5</ele><time>2026-04-26T09:17:53Z</time></trkpt><trkpt lat="43.52910973238196" lon="12.366220018189377"><ele>647.0</ele><time>2026-04-26T09:17:54Z</time></trkpt><trkpt lat="43.529128239913284" lon="12.36640878177"><ele>647.0</ele><time>2026-04-26T09:17:55Z</time></trkpt><trkpt lat="43.52914687023515" lon="12.366575963301566"><ele>647.0</ele><time>2026-04-26T09:17:56Z</time></trkpt><trkpt lat="43.52923612449479" lon="12.366717426102822"><ele>647.0</ele><time>2026-04-26T09:17:57Z</time></trkpt><trkpt lat="43.52937438611014" lon="12.366811602867731"><ele>647.0</ele><time>2026-04-26T09:17:58Z</time></trkpt><trkpt lat="43.52955084268841" lon="12.366849368024166"><ele>650.0</ele><time>2026-04-26T09:17:59Z</time></trkpt><trkpt lat="43.52971703120924" lon="12.366883619316026"><ele>653.0</ele><time>2026-04-26T09:18:00Z</time></trkpt><trkpt lat="43.52988928384639" lon="12.366917880948344"><ele>656.0</ele><time>2026-04-26T09:18:01Z</time></trkpt><trkpt lat="43.53005352773728" lon="12.366931936618435"><ele>656.0</ele><time>2026-04-26T09:18:02Z</time></trkpt><trkpt lat="43.53020133213274" lon="12.366931766102615"><ele>656.0</ele><time>2026-04-26T09:18:03Z</time></trkpt><trkpt lat="43.53033700361378" lon="12.366960228416803"><ele>656.0</ele><time>2026-04-26T09:18:04Z</time></trkpt><trkpt lat="43.530463576477025" lon="12.367054467906978"><ele>656.0</ele><time>2026-04-26T09:18:05Z</time></trkpt><trkpt lat="43.5305629713138" lon="12.367234951673371"><ele>655.3333333333333</ele><time>2026-04-26T09:18:06Z</time></trkpt><trkpt lat="43.530637187674955" lon="12.367453961285005"><ele>654.6666666666666</ele><time>2026-04-26T09:18:07Z</time></trkpt><trkpt lat="43.530692374626476" lon="12.367674752904154"><ele>654.0</ele><time>2026-04-26T09:18:08Z</time></trkpt><trkpt lat="43.53078509742322" lon="12.367882793208723"><ele>649.6666666666666</ele><time>2026-04-26T09:18:09Z</time></trkpt><trkpt lat="43.53092853330103" lon="12.368064223076049"><ele>645.3333333333333</ele><time>2026-04-26T09:18:10Z</time></trkpt><trkpt lat="43.53107353889088" lon="12.368232843429366"><ele>641.0</ele><time>2026-04-26T09:18:11Z</time></trkpt><trkpt lat="43.5312202637916" lon="12.368367439146896"><ele>643.75</ele><time>2026-04-26T09:18:12Z</time></trkpt><trkpt lat="43.53135582282911" lon="12.36847703763638"><ele>646.5</ele><time>2026-04-26T09:18:13Z</time></trkpt><trkpt lat="43.53147821258925" lon="12.368564624820689"><ele>649.25</ele><time>2026-04-26T09:18:14Z</time></trkpt><trkpt lat="43.531605853545585" lon="12.368596443145726"><ele>652.0</ele><time>2026-04-26T09:18:15Z</time></trkpt><trkpt lat="43.531734175909456" lon="12.368554540419055"><ele>652.0</ele><time>2026-04-26T09:18:16Z</time></trkpt><trkpt lat="43.53184305884141" lon="12.368435546839182"><ele>652.0</ele><time>2026-04-26T09:18:17Z</time></trkpt><trkpt lat="43.531945392748284" lon="12.368358399752408"><ele>652.0</ele><time>2026-04-26T09:18:18Z</time></trkpt><trkpt lat="43.53206018197736" lon="12.368373636060385"><ele>652.0</ele><time>2026-04-26T09:18:19Z</time></trkpt><trkpt lat="43.53214673582753" lon="12.368478084461847"><ele>652.0</ele><time>2026-04-26T09:18:20Z</time></trkpt><trkpt lat="43.53216945154337" lon="12.368630692419114"><ele>652.0</ele><time>2026-04-26T09:18:21Z</time></trkpt><trkpt lat="43.53213053252862" lon="12.368783483978476"><ele>652.0</ele><time>2026-04-26T09:18:22Z</time></trkpt><trkpt lat="43.53206927214204" lon="12.368951181537291"><ele>652.0</ele><time>2026-04-26T09:18:23Z</time></trkpt><trkpt lat="43.53204130077764" lon="12.369107685337145"><ele>652.0</ele><time>2026-04-26T09:18:24Z</time></trkpt><trkpt lat="43.53205665071866" lon="12.369245905713209"><ele>652.0</ele><time>2026-04-26T09:18:25Z</time></trkpt><trkpt lat="43.53214445168969" lon="12.369370270742298"><ele>652.0</ele><time>2026-04-26T09:18:26Z</time></trkpt><trkpt lat="43.53227415605777" lon="12.369445633710791"><ele>652.0</ele><time>2026-04-26T09:18:27Z</time></trkpt><trkpt lat="43.53241999504859" lon="12.369475607599634"><ele>652.0</ele><time>2026-04-26T09:18:28Z</time></trkpt><trkpt lat="43.532571887258136" lon="12.369478910260836"><ele>652.0</ele><time>2026-04-26T09:18:29Z</time></trkpt><trkpt lat="43.53272840039357" lon="12.369477350077162"><ele>652.0</ele><time>2026-04-26T09:18:30Z</time></trkpt><trkpt lat="43.5328897746368" lon="12.36948528508478"><ele>654.25</ele><time>2026-04-26T09:18:31Z</time></trkpt><trkpt lat="43.5330386392033" lon="12.369491270786412"><ele>656.5</ele><time>2026-04-26T09:18:32Z</time></trkpt><trkpt lat="43.53318206718427" lon="12.36951689603215"><ele>658.75</ele><time>2026-04-26T09:18:33Z</time></trkpt><trkpt lat="43.533313602155154" lon="12.369586376367716"><ele>661.0</ele><time>2026-04-26T09:18:34Z</time></trkpt><trkpt lat="43.533427907829406" lon="12.369689762730522"><ele>655.75</ele><time>2026-04-26T09:18:35Z</time></trkpt><trkpt lat="43.53353314285577" lon="12.36979798608311"><ele>650.5</ele><time>2026-04-26T09:18:36Z</time></trkpt><trkpt lat="43.53364108447162" lon="12.369888450626568"><ele>645.25</ele><time>2026-04-26T09:18:37Z</time></trkpt><trkpt lat="43.53375841745054" lon="12.369971255613653"><ele>640.0</ele><time>2026-04-26T09:18:38Z</time></trkpt><trkpt lat="43.533883392726345" lon="12.370038589170077"><ele>640.0</ele><time>2026-04-26T09:18:39Z</time></trkpt><trkpt lat="43.53402212690854" lon="12.370076524350369"><ele>640.0</ele><time>2026-04-26T09:18:40Z</time></trkpt><trkpt lat="43.534175762700734" lon="12.37009143160239"><ele>640.0</ele><time>2026-04-26T09:18:41Z</time></trkpt><trkpt lat="43.53434023496399" lon="12.370105409008666"><ele>640.0</ele><time>2026-04-26T09:18:42Z</time></trkpt><trkpt lat="43.53451357880765" lon="12.370121924521436"><ele>640.0</ele><time>2026-04-26T09:18:43Z</time></trkpt><trkpt lat="43.53468519896322" lon="12.370130248475245"><ele>640.0</ele><time>2026-04-26T09:18:44Z</time></trkpt><trkpt lat="43.53486327037367" lon="12.370131607354958"><ele>639.3333333333334</ele><time>2026-04-26T09:18:45Z</time></trkpt><trkpt lat="43.53504709855977" lon="12.370162300831689"><ele>638.6666666666666</ele><time>2026-04-26T09:18:46Z</time></trkpt><trkpt lat="43.535234942001104" lon="12.370224176961742"><ele>638.0</ele><time>2026-04-26T09:18:47Z</time></trkpt><trkpt lat="43.53542254360736" lon="12.370309670607302"><ele>639.6666666666666</ele><time>2026-04-26T09:18:48Z</time></trkpt><trkpt lat="43.535610398489325" lon="12.370401501705894"><ele>641.3333333333334</ele><time>2026-04-26T09:18:49Z</time></trkpt><trkpt lat="43.53579268962408" lon="12.370503435678572"><ele>643.0</ele><time>2026-04-26T09:18:50Z</time></trkpt><trkpt lat="43.535956817411055" lon="12.37063601358335"><ele>637.0</ele><time>2026-04-26T09:18:51Z</time></trkpt><trkpt lat="43.536097874179426" lon="12.370795973323053"><ele>631.0</ele><time>2026-04-26T09:18:52Z</time></trkpt><trkpt lat="43.536239909123815" lon="12.370938326810789"><ele>625.0</ele><time>2026-04-26T09:18:53Z</time></trkpt><trkpt lat="43.53640514564881" lon="12.371046512503227"><ele>625.0</ele><time>2026-04-26T09:18:54Z</time></trkpt><trkpt lat="43.5365801837759" lon="12.371142805557106"><ele>625.0</ele><time>2026-04-26T09:18:55Z</time></trkpt><trkpt lat="43.536767157367336" lon="12.371194374624881"><ele>625.0</ele><time>2026-04-26T09:18:56Z</time></trkpt><trkpt lat="43.536961872407105" lon="12.371217863850802"><ele>623.3333333333334</ele><time>2026-04-26T09:18:57Z</time></trkpt><trkpt lat="43.53715632555151" lon="12.37123887499333"><ele>621.6666666666666</ele><time>2026-04-26T09:18:58Z</time></trkpt><trkpt lat="43.53735606321204" lon="12.371259742501683"><ele>620.0</ele><time>2026-04-26T09:18:59Z</time></trkpt><trkpt lat="43.53756048474516" lon="12.3712779991687"><ele>620.0</ele><time>2026-04-26T09:19:00Z</time></trkpt><trkpt lat="43.537750006436184" lon="12.37130623803588"><ele>620.0</ele><time>2026-04-26T09:19:01Z</time></trkpt><trkpt lat="43.53795146409958" lon="12.371335574211269"><ele>620.0</ele><time>2026-04-26T09:19:02Z</time></trkpt><trkpt lat="43.53815142576166" lon="12.371362185358793"><ele>614.3333333333333</ele><time>2026-04-26T09:19:03Z</time></trkpt><trkpt lat="43.53834095072798" lon="12.371387086595831"><ele>608.6666666666666</ele><time>2026-04-26T09:19:04Z</time></trkpt><trkpt lat="43.53853796244183" lon="12.371402797438297"><ele>603.0</ele><time>2026-04-26T09:19:05Z</time></trkpt><trkpt lat="43.538733142061524" lon="12.371415650261874"><ele>602.3333333333334</ele><time>2026-04-26T09:19:06Z</time></trkpt><trkpt lat="43.53893142321133" lon="12.371418317744746"><ele>601.6666666666667</ele><time>2026-04-26T09:19:07Z</time></trkpt><trkpt lat="43.53913110411431" lon="12.371407614460397"><ele>601.0</ele><time>2026-04-26T09:19:08Z</time></trkpt><trkpt lat="43.53933138548026" lon="12.371392900387185"><ele>601.0</ele><time>2026-04-26T09:19:09Z</time></trkpt><trkpt lat="43.539529248300525" lon="12.371383817119328"><ele>601.0</ele><time>2026-04-26T09:19:10Z</time></trkpt><trkpt lat="43.53973143456981" lon="12.371374494101053"><ele>601.0</ele><time>2026-04-26T09:19:11Z</time></trkpt><trkpt lat="43.53993293151696" lon="12.371362239279375"><ele>602.0</ele><time>2026-04-26T09:19:12Z</time></trkpt><trkpt lat="43.54013674927918" lon="12.371352133136622"><ele>603.0</ele><time>2026-04-26T09:19:13Z</time></trkpt><trkpt lat="43.5403355679951" lon="12.371343984791347"><ele>604.0</ele><time>2026-04-26T09:19:14Z</time></trkpt><trkpt lat="43.54051765924669" lon="12.37133853170408"><ele>601.5</ele><time>2026-04-26T09:19:15Z</time></trkpt><trkpt lat="43.540663766681234" lon="12.371325116352144"><ele>599.0</ele><time>2026-04-26T09:19:16Z</time></trkpt><trkpt lat="43.540778722704815" lon="12.37129070007894"><ele>596.5</ele><time>2026-04-26T09:19:17Z</time></trkpt><trkpt lat="43.540880516768915" lon="12.371188110463999"><ele>594.0</ele><time>2026-04-26T09:19:18Z</time></trkpt><trkpt lat="43.54092267839601" lon="12.371017306362646"><ele>594.0</ele><time>2026-04-26T09:19:19Z</time></trkpt><trkpt lat="43.540940672995625" lon="12.370788430613956"><ele>594.0</ele><time>2026-04-26T09:19:20Z</time></trkpt><trkpt lat="43.540942315175194" lon="12.370515643036496"><ele>594.0</ele><time>2026-04-26T09:19:21Z</time></trkpt><trkpt lat="43.54095360827653" lon="12.370245366475988"><ele>596.6666666666666</ele><time>2026-04-26T09:19:22Z</time></trkpt><trkpt lat="43.54098799304838" lon="12.370019858271325"><ele>599.3333333333333</ele><time>2026-04-26T09:19:23Z</time></trkpt><trkpt lat="43.54106284895264" lon="12.369817532106083"><ele>602.0</ele><time>2026-04-26T09:19:24Z</time></trkpt><trkpt lat="43.541186471054374" lon="12.369647882865584"><ele>595.3333333333333</ele><time>2026-04-26T09:19:25Z</time></trkpt><trkpt lat="43.54134533186166" lon="12.369514778729801"><ele>588.6666666666666</ele><time>2026-04-26T09:19:26Z</time></trkpt><trkpt lat="43.541500723293524" lon="12.369405261558871"><ele>582.0</ele><time>2026-04-26T09:19:27Z</time></trkpt><trkpt lat="43.54162009701553" lon="12.36928212645706"><ele>582.0</ele><time>2026-04-26T09:19:28Z</time></trkpt><trkpt lat="43.54170583807281" lon="12.369116625527829"><ele>582.0</ele><time>2026-04-26T09:19:29Z</time></trkpt><trkpt lat="43.54175961805306" lon="12.368897813392092"><ele>582.0</ele><time>2026-04-26T09:19:30Z</time></trkpt><trkpt lat="43.541792982766204" lon="12.36867681784088"><ele>581.5</ele><time>2026-04-26T09:19:31Z</time></trkpt><trkpt lat="43.541841426456116" lon="12.368492979522946"><ele>581.0</ele><time>2026-04-26T09:19:32Z</time></trkpt><trkpt lat="43.54192309719581" lon="12.368369539222684"><ele>580.5</ele><time>2026-04-26T09:19:33Z</time></trkpt><trkpt lat="43.54202977184435" lon="12.36829021951303"><ele>580.0</ele><time>2026-04-26T09:19:34Z</time></trkpt><trkpt lat="43.54214916592702" lon="12.368264597880051"><ele>581.5</ele><time>2026-04-26T09:19:35Z</time></trkpt><trkpt lat="43.54226571274198" lon="12.36829899634896"><ele>583.0</ele><time>2026-04-26T09:19:36Z</time></trkpt><trkpt lat="43.542385518667615" lon="12.368407525616956"><ele>584.5</ele><time>2026-04-26T09:19:37Z</time></trkpt><trkpt lat="43.54249842662788" lon="12.368554023528759"><ele>586.0</ele><time>2026-04-26T09:19:38Z</time></trkpt><trkpt lat="43.542613100348596" lon="12.368730443803502"><ele>586.6666666666667</ele><time>2026-04-26T09:19:39Z</time></trkpt><trkpt lat="43.54273123763518" lon="12.368899199078049"><ele>587.3333333333334</ele><time>2026-04-26T09:19:40Z</time></trkpt><trkpt lat="43.54285196265924" lon="12.369070505979854"><ele>588.0</ele><time>2026-04-26T09:19:41Z</time></trkpt><trkpt lat="43.542976889234026" lon="12.369245445875796"><ele>588.0</ele><time>2026-04-26T09:19:42Z</time></trkpt><trkpt lat="43.54311797086191" lon="12.369409560307114"><ele>588.0</ele><time>2026-04-26T09:19:43Z</time></trkpt><trkpt lat="43.54327165225144" lon="12.369560924272134"><ele>588.0</ele><time>2026-04-26T09:19:44Z</time></trkpt><trkpt lat="43.543430002039536" lon="12.369704611280211"><ele>584.0</ele><time>2026-04-26T09:19:45Z</time></trkpt><trkpt lat="43.54360731511875" lon="12.369828735271497"><ele>580.0</ele><time>2026-04-26T09:19:46Z</time></trkpt><trkpt lat="43.54379149944249" lon="12.369926200929033"><ele>576.0</ele><time>2026-04-26T09:19:47Z</time></trkpt><trkpt lat="43.54397888865947" lon="12.370009903426988"><ele>576.0</ele><time>2026-04-26T09:19:48Z</time></trkpt><trkpt lat="43.54416961259128" lon="12.370100138201016"><ele>576.0</ele><time>2026-04-26T09:19:49Z</time></trkpt><trkpt lat="43.54436399288748" lon="12.370189271344518"><ele>576.0</ele><time>2026-04-26T09:19:50Z</time></trkpt><trkpt lat="43.54456085869581" lon="12.370277025482377"><ele>576.3333333333334</ele><time>2026-04-26T09:19:51Z</time></trkpt><trkpt lat="43.544757656028814" lon="12.37036865024487"><ele>576.6666666666667</ele><time>2026-04-26T09:19:52Z</time></trkpt><trkpt lat="43.54495380684286" lon="12.370461235165337"><ele>577.0</ele><time>2026-04-26T09:19:53Z</time></trkpt><trkpt lat="43.54515208718425" lon="12.370547756753991"><ele>572.6666666666667</ele><time>2026-04-26T09:19:54Z</time></trkpt><trkpt lat="43.54535128938509" lon="12.370636641172988"><ele>568.3333333333334</ele><time>2026-04-26T09:19:55Z</time></trkpt><trkpt lat="43.545551086785686" lon="12.37072639480625"><ele>564.0</ele><time>2026-04-26T09:19:56Z</time></trkpt><trkpt lat="43.5457517550163" lon="12.370811056745207"><ele>561.6666666666666</ele><time>2026-04-26T09:19:57Z</time></trkpt><trkpt lat="43.545947051209744" lon="12.370901976321528"><ele>559.3333333333333</ele><time>2026-04-26T09:19:58Z</time></trkpt><trkpt lat="43.54613724012198" lon="12.370995371293878"><ele>557.0</ele><time>2026-04-26T09:19:59Z</time></trkpt><trkpt lat="43.546314723590385" lon="12.371116985601686"><ele>556.3333333333333</ele><time>2026-04-26T09:20:00Z</time></trkpt><trkpt lat="43.54646998386307" lon="12.371297879100148"><ele>555.6666666666666</ele><time>2026-04-26T09:20:01Z</time></trkpt><trkpt lat="43.5466129894241" lon="12.371507680482061"><ele>555.0</ele><time>2026-04-26T09:20:02Z</time></trkpt><trkpt lat="43.546754857055106" lon="12.371728585604883"><ele>554.0</ele><time>2026-04-26T09:20:03Z</time></trkpt><trkpt lat="43.54690246011239" lon="12.371935749635231"><ele>553.0</ele><time>2026-04-26T09:20:04Z</time></trkpt><trkpt lat="43.54704753422908" lon="12.37214786673618"><ele>552.0</ele><time>2026-04-26T09:20:05Z</time></trkpt><trkpt lat="43.547193129829616" lon="12.372361639642774"><ele>554.0</ele><time>2026-04-26T09:20:06Z</time></trkpt><trkpt lat="43.54733842436256" lon="12.372572510347023"><ele>556.0</ele><time>2026-04-26T09:20:07Z</time></trkpt><trkpt lat="43.54748288653581" lon="12.372785320363546"><ele>558.0</ele><time>2026-04-26T09:20:08Z</time></trkpt><trkpt lat="43.54762603001299" lon="12.372997913300988"><ele>559.0</ele><time>2026-04-26T09:20:09Z</time></trkpt><trkpt lat="43.54777332867116" lon="12.373210687681723"><ele>560.0</ele><time>2026-04-26T09:20:10Z</time></trkpt><trkpt lat="43.54792209859332" lon="12.373427241506544"><ele>561.0</ele><time>2026-04-26T09:20:11Z</time></trkpt><trkpt lat="43.54807128213653" lon="12.373644834652675"><ele>557.6666666666666</ele><time>2026-04-26T09:20:12Z</time></trkpt><trkpt lat="43.54822364760332" lon="12.373866345729843"><ele>554.3333333333333</ele><time>2026-04-26T09:20:13Z</time></trkpt><trkpt lat="43.5483751671234" lon="12.374080495695816"><ele>551.0</ele><time>2026-04-26T09:20:14Z</time></trkpt><trkpt lat="43.54852602825048" lon="12.374298913408218"><ele>551.0</ele><time>2026-04-26T09:20:15Z</time></trkpt><trkpt lat="43.5486778653372" lon="12.374514395353513"><ele>551.0</ele><time>2026-04-26T09:20:16Z</time></trkpt><trkpt lat="43.54883645945203" lon="12.374734738674348"><ele>551.0</ele><time>2026-04-26T09:20:17Z</time></trkpt><trkpt lat="43.548987723004394" lon="12.374949463277085"><ele>550.0</ele><time>2026-04-26T09:20:18Z</time></trkpt><trkpt lat="43.54913924870322" lon="12.375167863956689"><ele>549.0</ele><time>2026-04-26T09:20:19Z</time></trkpt><trkpt lat="43.54929051683184" lon="12.375385549195695"><ele>548.0</ele><time>2026-04-26T09:20:20Z</time></trkpt><trkpt lat="43.54944112846698" lon="12.375604419676517"><ele>552.3333333333333</ele><time>2026-04-26T09:20:21Z</time></trkpt><trkpt lat="43.5495879082912" lon="12.375819420321232"><ele>556.6666666666666</ele><time>2026-04-26T09:20:22Z</time></trkpt><trkpt lat="43.549732031842865" lon="12.376031829565298"><ele>561.0</ele><time>2026-04-26T09:20:23Z</time></trkpt><trkpt lat="43.54987402118156" lon="12.376244586009518"><ele>556.0</ele><time>2026-04-26T09:20:24Z</time></trkpt><trkpt lat="43.55001681288353" lon="12.376454113460142"><ele>551.0</ele><time>2026-04-26T09:20:25Z</time></trkpt><trkpt lat="43.55016142370572" lon="12.376660726097214"><ele>546.0</ele><time>2026-04-26T09:20:26Z</time></trkpt><trkpt lat="43.55030547999407" lon="12.376858934556477"><ele>547.0</ele><time>2026-04-26T09:20:27Z</time></trkpt><trkpt lat="43.550453263891015" lon="12.377055327285154"><ele>548.0</ele><time>2026-04-26T09:20:28Z</time></trkpt><trkpt lat="43.550605276826914" lon="12.377250206528984"><ele>549.0</ele><time>2026-04-26T09:20:29Z</time></trkpt><trkpt lat="43.55075312043867" lon="12.37744869915562"><ele>549.0</ele><time>2026-04-26T09:20:30Z</time></trkpt><trkpt lat="43.55090019969782" lon="12.377645061093709"><ele>549.0</ele><time>2026-04-26T09:20:31Z</time></trkpt><trkpt lat="43.55105330939987" lon="12.377838252674442"><ele>549.0</ele><time>2026-04-26T09:20:32Z</time></trkpt><trkpt lat="43.55119813213516" lon="12.37803109607827"><ele>548.6666666666666</ele><time>2026-04-26T09:20:33Z</time></trkpt><trkpt lat="43.5513402867579" lon="12.378229058842397"><ele>548.3333333333333</ele><time>2026-04-26T09:20:34Z</time></trkpt><trkpt lat="43.551485979369026" lon="12.378417692302477"><ele>548.0</ele><time>2026-04-26T09:20:35Z</time></trkpt><trkpt lat="43.55162922029381" lon="12.378614043958303"><ele>548.0</ele><time>2026-04-26T09:20:36Z</time></trkpt><trkpt lat="43.55177155081422" lon="12.378801912232356"><ele>548.0</ele><time>2026-04-26T09:20:37Z</time></trkpt><trkpt lat="43.55191795450825" lon="12.378992762668267"><ele>548.0</ele><time>2026-04-26T09:20:38Z</time></trkpt><trkpt lat="43.55207067821371" lon="12.379181456032867"><ele>549.0</ele><time>2026-04-26T09:20:39Z</time></trkpt><trkpt lat="43.552224594888614" lon="12.379367592109379"><ele>550.0</ele><time>2026-04-26T09:20:40Z</time></trkpt><trkpt lat="43.552364500263636" lon="12.37957996026626"><ele>551.0</ele><time>2026-04-26T09:20:41Z</time></trkpt><trkpt lat="43.55252279275061" lon="12.379763879467609"><ele>549.6666666666666</ele><time>2026-04-26T09:20:42Z</time></trkpt><trkpt lat="43.5526850059862" lon="12.379949567648197"><ele>548.3333333333334</ele><time>2026-04-26T09:20:43Z</time></trkpt><trkpt lat="43.552840234497246" lon="12.380133243522152"><ele>547.0</ele><time>2026-04-26T09:20:44Z</time></trkpt><trkpt lat="43.55297502290047" lon="12.380328261611101"><ele>542.0</ele><time>2026-04-26T09:20:45Z</time></trkpt><trkpt lat="43.55309069423945" lon="12.380539355346404"><ele>537.0</ele><time>2026-04-26T09:20:46Z</time></trkpt><trkpt lat="43.55319948286745" lon="12.380760120324103"><ele>532.0</ele><time>2026-04-26T09:20:47Z</time></trkpt><trkpt lat="43.55327306419763" lon="12.381016017824987"><ele>532.0</ele><time>2026-04-26T09:20:48Z</time></trkpt><trkpt lat="43.553343580563286" lon="12.381264351334066"><ele>532.0</ele><time>2026-04-26T09:20:49Z</time></trkpt><trkpt lat="43.55341140881769" lon="12.381482183987535"><ele>532.0</ele><time>2026-04-26T09:20:50Z</time></trkpt><trkpt lat="43.553437749047596" lon="12.381690498779069"><ele>531.3333333333334</ele><time>2026-04-26T09:20:51Z</time></trkpt><trkpt lat="43.55346032682323" lon="12.381895241805363"><ele>530.6666666666666</ele><time>2026-04-26T09:20:52Z</time></trkpt><trkpt lat="43.553414924997135" lon="12.382110902045348"><ele>530.0</ele><time>2026-04-26T09:20:53Z</time></trkpt><trkpt lat="43.55333325761983" lon="12.382330973319844"><ele>533.0</ele><time>2026-04-26T09:20:54Z</time></trkpt><trkpt lat="43.55323690637205" lon="12.382543323949243"><ele>536.0</ele><time>2026-04-26T09:20:55Z</time></trkpt><trkpt lat="43.55312623863498" lon="12.382742179713972"><ele>539.0</ele><time>2026-04-26T09:20:56Z</time></trkpt><trkpt lat="43.553016928051456" lon="12.382933226934382"><ele>537.6666666666666</ele><time>2026-04-26T09:20:57Z</time></trkpt><trkpt lat="43.55292581975545" lon="12.383132049714188"><ele>536.3333333333334</ele><time>2026-04-26T09:20:58Z</time></trkpt><trkpt lat="43.55285646536646" lon="12.383353068719815"><ele>535.0</ele><time>2026-04-26T09:20:59Z</time></trkpt><trkpt lat="43.552836101076956" lon="12.383612016614784"><ele>534.0</ele><time>2026-04-26T09:21:00Z</time></trkpt><trkpt lat="43.55282903892852" lon="12.38387959311818"><ele>533.0</ele><time>2026-04-26T09:21:01Z</time></trkpt><trkpt lat="43.55283733092624" lon="12.384165535690325"><ele>532.0</ele><time>2026-04-26T09:21:02Z</time></trkpt><trkpt lat="43.552844784112935" lon="12.384443839081202"><ele>531.0</ele><time>2026-04-26T09:21:03Z</time></trkpt><trkpt lat="43.55285159023246" lon="12.38471907259747"><ele>530.0</ele><time>2026-04-26T09:21:04Z</time></trkpt><trkpt lat="43.55285886266313" lon="12.385005325609065"><ele>529.0</ele><time>2026-04-26T09:21:05Z</time></trkpt><trkpt lat="43.55286645962945" lon="12.385282037189967"><ele>529.3333333333334</ele><time>2026-04-26T09:21:06Z</time></trkpt><trkpt lat="43.5528719502638" lon="12.385562002495954"><ele>529.6666666666666</ele><time>2026-04-26T09:21:07Z</time></trkpt><trkpt lat="43.55286504986275" lon="12.385838132455383"><ele>530.0</ele><time>2026-04-26T09:21:08Z</time></trkpt><trkpt lat="43.55284018181602" lon="12.386120156982853"><ele>531.3333333333333</ele><time>2026-04-26T09:21:09Z</time></trkpt><trkpt lat="43.552804305027365" lon="12.386408264146935"><ele>532.6666666666666</ele><time>2026-04-26T09:21:10Z</time></trkpt><trkpt lat="43.55273198262578" lon="12.386698811426804"><ele>534.0</ele><time>2026-04-26T09:21:11Z</time></trkpt><trkpt lat="43.55268327644672" lon="12.38698975196868"><ele>537.6666666666666</ele><time>2026-04-26T09:21:12Z</time></trkpt><trkpt lat="43.55262707511153" lon="12.387254030009201"><ele>541.3333333333333</ele><time>2026-04-26T09:21:13Z</time></trkpt><trkpt lat="43.55255323117232" lon="12.387488240460977"><ele>545.0</ele><time>2026-04-26T09:21:14Z</time></trkpt><trkpt lat="43.55245736260607" lon="12.38770078877481"><ele>545.0</ele><time>2026-04-26T09:21:15Z</time></trkpt><trkpt lat="43.552376170238745" lon="12.387910449207398"><ele>545.0</ele><time>2026-04-26T09:21:16Z</time></trkpt><trkpt lat="43.55233555878664" lon="12.388168744097392"><ele>545.0</ele><time>2026-04-26T09:21:17Z</time></trkpt><trkpt lat="43.55233562261567" lon="12.388435432024552"><ele>547.3333333333333</ele><time>2026-04-26T09:21:18Z</time></trkpt><trkpt lat="43.552350960656746" lon="12.388719928239928"><ele>549.6666666666666</ele><time>2026-04-26T09:21:19Z</time></trkpt><trkpt lat="43.55236955500279" lon="12.389002231130203"><ele>552.0</ele><time>2026-04-26T09:21:20Z</time></trkpt><trkpt lat="43.55236441187471" lon="12.389264711769897"><ele>552.0</ele><time>2026-04-26T09:21:21Z</time></trkpt><trkpt lat="43.552311946008146" lon="12.389526218752176"><ele>552.0</ele><time>2026-04-26T09:21:22Z</time></trkpt><trkpt lat="43.55224673060554" lon="12.389794179689135"><ele>552.0</ele><time>2026-04-26T09:21:23Z</time></trkpt><trkpt lat="43.55213999392506" lon="12.390037478806345"><ele>547.0</ele><time>2026-04-26T09:21:24Z</time></trkpt><trkpt lat="43.55201232409649" lon="12.390265433310038"><ele>542.0</ele><time>2026-04-26T09:21:25Z</time></trkpt><trkpt lat="43.55189315977218" lon="12.39050220355465"><ele>537.0</ele><time>2026-04-26T09:21:26Z</time></trkpt><trkpt lat="43.55176634733178" lon="12.390732698785785"><ele>537.0</ele><time>2026-04-26T09:21:27Z</time></trkpt><trkpt lat="43.55162156378074" lon="12.3909425553859"><ele>537.0</ele><time>2026-04-26T09:21:28Z</time></trkpt><trkpt lat="43.5514529819701" lon="12.391121532947471"><ele>537.0</ele><time>2026-04-26T09:21:29Z</time></trkpt><trkpt lat="43.55128903280417" lon="12.391298075728562"><ele>533.3333333333334</ele><time>2026-04-26T09:21:30Z</time></trkpt><trkpt lat="43.55113657715813" lon="12.391499285077632"><ele>529.6666666666667</ele><time>2026-04-26T09:21:31Z</time></trkpt><trkpt lat="43.550988769709875" lon="12.391714028739903"><ele>526.0</ele><time>2026-04-26T09:21:32Z</time></trkpt><trkpt lat="43.55084009971254" lon="12.391925169816647"><ele>526.0</ele><time>2026-04-26T09:21:33Z</time></trkpt><trkpt lat="43.5506894432755" lon="12.392146007173082"><ele>526.0</ele><time>2026-04-26T09:21:34Z</time></trkpt><trkpt lat="43.550543261365796" lon="12.39236509639022"><ele>526.0</ele><time>2026-04-26T09:21:35Z</time></trkpt><trkpt lat="43.55040902642578" lon="12.392582830150182"><ele>525.3333333333334</ele><time>2026-04-26T09:21:36Z</time></trkpt><trkpt lat="43.55029529801734" lon="12.392802700551936"><ele>524.6666666666666</ele><time>2026-04-26T09:21:37Z</time></trkpt><trkpt lat="43.55020434018818" lon="12.393028881953818"><ele>524.0</ele><time>2026-04-26T09:21:38Z</time></trkpt><trkpt lat="43.55014099557598" lon="12.393290972069686"><ele>524.0</ele><time>2026-04-26T09:21:39Z</time></trkpt><trkpt lat="43.550110002958704" lon="12.393575608659251"><ele>524.0</ele><time>2026-04-26T09:21:40Z</time></trkpt><trkpt lat="43.55011884689746" lon="12.39386729222019"><ele>524.0</ele><time>2026-04-26T09:21:41Z</time></trkpt><trkpt lat="43.550143281549424" lon="12.394157293040712"><ele>525.0</ele><time>2026-04-26T09:21:42Z</time></trkpt><trkpt lat="43.55023632596623" lon="12.39443314882948"><ele>526.0</ele><time>2026-04-26T09:21:43Z</time></trkpt><trkpt lat="43.55031524678969" lon="12.394722540621277"><ele>527.0</ele><time>2026-04-26T09:21:44Z</time></trkpt><trkpt lat="43.550403804071685" lon="12.395003756404185"><ele>529.3333333333333</ele><time>2026-04-26T09:21:45Z</time></trkpt><trkpt lat="43.550490982005364" lon="12.39528322356114"><ele>531.6666666666666</ele><time>2026-04-26T09:21:46Z</time></trkpt><trkpt lat="43.55057832543086" lon="12.395553632579725"><ele>534.0</ele><time>2026-04-26T09:21:47Z</time></trkpt><trkpt lat="43.55061138355265" lon="12.395846869493203"><ele>534.0</ele><time>2026-04-26T09:21:48Z</time></trkpt><trkpt lat="43.550646368196475" lon="12.396138432846314"><ele>534.0</ele><time>2026-04-26T09:21:49Z</time></trkpt><trkpt lat="43.55069630713976" lon="12.396431780579942"><ele>534.0</ele><time>2026-04-26T09:21:50Z</time></trkpt><trkpt lat="43.550766431968746" lon="12.396717612309834"><ele>530.6666666666666</ele><time>2026-04-26T09:21:51Z</time></trkpt><trkpt lat="43.550840111287954" lon="12.396999424470234"><ele>527.3333333333333</ele><time>2026-04-26T09:21:52Z</time></trkpt><trkpt lat="43.550915081277516" lon="12.397281655279604"><ele>524.0</ele><time>2026-04-26T09:21:53Z</time></trkpt><trkpt lat="43.550989589128704" lon="12.397562184674708"><ele>520.0</ele><time>2026-04-26T09:21:54Z</time></trkpt><trkpt lat="43.55106233108762" lon="12.397836139911961"><ele>516.0</ele><time>2026-04-26T09:21:55Z</time></trkpt><trkpt lat="43.55111792943593" lon="12.398107144172561"><ele>512.0</ele><time>2026-04-26T09:21:56Z</time></trkpt><trkpt lat="43.55114317915902" lon="12.398381642938617"><ele>509.0</ele><time>2026-04-26T09:21:57Z</time></trkpt><trkpt lat="43.55115607952413" lon="12.39866333500488"><ele>506.0</ele><time>2026-04-26T09:21:58Z</time></trkpt><trkpt lat="43.55116507777051" lon="12.398943316416936"><ele>503.0</ele><time>2026-04-26T09:21:59Z</time></trkpt><trkpt lat="43.551174004180695" lon="12.399219876613182"><ele>502.3333333333333</ele><time>2026-04-26T09:22:00Z</time></trkpt><trkpt lat="43.55119167517237" lon="12.399493837834813"><ele>501.66666666666663</ele><time>2026-04-26T09:22:01Z</time></trkpt><trkpt lat="43.55122593471914" lon="12.399763801372677"><ele>501.0</ele><time>2026-04-26T09:22:02Z</time></trkpt><trkpt lat="43.55128715804544" lon="12.400022198127902"><ele>503.33333333333337</ele><time>2026-04-26T09:22:03Z</time></trkpt><trkpt lat="43.55138216103183" lon="12.400276973768852"><ele>505.6666666666667</ele><time>2026-04-26T09:22:04Z</time></trkpt><trkpt lat="43.55149159058849" lon="12.400523313060487"><ele>508.0</ele><time>2026-04-26T09:22:05Z</time></trkpt><trkpt lat="43.55160972974213" lon="12.40076631063567"><ele>508.0</ele><time>2026-04-26T09:22:06Z</time></trkpt><trkpt lat="43.55173896812301" lon="12.401006344214226"><ele>508.0</ele><time>2026-04-26T09:22:07Z</time></trkpt><trkpt lat="43.55187321728" lon="12.401241332139746"><ele>508.0</ele><time>2026-04-26T09:22:08Z</time></trkpt><trkpt lat="43.55201265988106" lon="12.401458399244516"><ele>510.6666666666667</ele><time>2026-04-26T09:22:09Z</time></trkpt><trkpt lat="43.55217492567395" lon="12.40163844371627"><ele>513.3333333333334</ele><time>2026-04-26T09:22:10Z</time></trkpt><trkpt lat="43.552347688813036" lon="12.40180357604821"><ele>516.0</ele><time>2026-04-26T09:22:11Z</time></trkpt><trkpt lat="43.55253614981258" lon="12.401943292464715"><ele>516.0</ele><time>2026-04-26T09:22:12Z</time></trkpt><trkpt lat="43.55272978374523" lon="12.402079984785196"><ele>516.0</ele><time>2026-04-26T09:22:13Z</time></trkpt><trkpt lat="43.552906281151856" lon="12.402237060376375"><ele>516.0</ele><time>2026-04-26T09:22:14Z</time></trkpt><trkpt lat="43.55307780808756" lon="12.402386709559648"><ele>516.0</ele><time>2026-04-26T09:22:15Z</time></trkpt><trkpt lat="43.55322649721534" lon="12.402572638539228"><ele>516.0</ele><time>2026-04-26T09:22:16Z</time></trkpt><trkpt lat="43.5533398536717" lon="12.402824970750245"><ele>516.0</ele><time>2026-04-26T09:22:17Z</time></trkpt><trkpt lat="43.55342311167359" lon="12.40312581891199"><ele>509.5</ele><time>2026-04-26T09:22:18Z</time></trkpt><trkpt lat="43.55349963111065" lon="12.403437827060678"><ele>503.0</ele><time>2026-04-26T09:22:19Z</time></trkpt><trkpt lat="43.5535805777908" lon="12.40370948963137"><ele>500.3333333333333</ele><time>2026-04-26T09:22:20Z</time></trkpt><trkpt lat="43.55362620244171" lon="12.40396464221448"><ele>497.66666666666663</ele><time>2026-04-26T09:22:21Z</time></trkpt><trkpt lat="43.55368058260763" lon="12.404190983313606"><ele>495.0</ele><time>2026-04-26T09:22:22Z</time></trkpt><trkpt lat="43.55373373253703" lon="12.404403110527946"><ele>497.0</ele><time>2026-04-26T09:22:23Z</time></trkpt><trkpt lat="43.55385266064657" lon="12.404567924685661"><ele>499.0</ele><time>2026-04-26T09:22:24Z</time></trkpt><trkpt lat="43.55396427286587" lon="12.404741655628497"><ele>501.0</ele><time>2026-04-26T09:22:25Z</time></trkpt><trkpt lat="43.55409852716061" lon="12.404906028651393"><ele>501.0</ele><time>2026-04-26T09:22:26Z</time></trkpt><trkpt lat="43.55423862257155" lon="12.405075482518289"><ele>501.0</ele><time>2026-04-26T09:22:27Z</time></trkpt><trkpt lat="43.55438244624368" lon="12.405257190852419"><ele>501.0</ele><time>2026-04-26T09:22:28Z</time></trkpt><trkpt lat="43.55452995966231" lon="12.405444650752907"><ele>502.33333333333337</ele><time>2026-04-26T09:22:29Z</time></trkpt><trkpt lat="43.55467857838513" lon="12.405635808727483"><ele>503.6666666666667</ele><time>2026-04-26T09:22:30Z</time></trkpt><trkpt lat="43.554821644452666" lon="12.405838935795552"><ele>505.0</ele><time>2026-04-26T09:22:31Z</time></trkpt><trkpt lat="43.55494266556879" lon="12.406070647551411"><ele>502.0</ele><time>2026-04-26T09:22:32Z</time></trkpt><trkpt lat="43.55503314817771" lon="12.406329963888481"><ele>499.0</ele><time>2026-04-26T09:22:33Z</time></trkpt><trkpt lat="43.5551185015116" lon="12.406589477529225"><ele>496.0</ele><time>2026-04-26T09:22:34Z</time></trkpt><trkpt lat="43.555232483003394" lon="12.406827430288672"><ele>496.33333333333337</ele><time>2026-04-26T09:22:35Z</time></trkpt><trkpt lat="43.55537123919246" lon="12.407044975294205"><ele>496.66666666666663</ele><time>2026-04-26T09:22:36Z</time></trkpt><trkpt lat="43.55550578977333" lon="12.407264666755827"><ele>497.0</ele><time>2026-04-26T09:22:37Z</time></trkpt><trkpt lat="43.555649469412515" lon="12.407482888715986"><ele>497.0</ele><time>2026-04-26T09:22:38Z</time></trkpt><trkpt lat="43.55578380750304" lon="12.407697077587915"><ele>497.0</ele><time>2026-04-26T09:22:39Z</time></trkpt><trkpt lat="43.555927197999694" lon="12.407905079935997"><ele>497.0</ele><time>2026-04-26T09:22:40Z</time></trkpt><trkpt lat="43.556074205207125" lon="12.408109969551056"><ele>495.66666666666663</ele><time>2026-04-26T09:22:41Z</time></trkpt><trkpt lat="43.556227499790886" lon="12.408302523822805"><ele>494.33333333333337</ele><time>2026-04-26T09:22:42Z</time></trkpt><trkpt lat="43.556382400783555" lon="12.408488004331247"><ele>493.0</ele><time>2026-04-26T09:22:43Z</time></trkpt><trkpt lat="43.5565430758532" lon="12.4086680304221"><ele>493.0</ele><time>2026-04-26T09:22:44Z</time></trkpt><trkpt lat="43.55671047778872" lon="12.40884243143026"><ele>493.0</ele><time>2026-04-26T09:22:45Z</time></trkpt><trkpt lat="43.556881714158024" lon="12.409006341957253"><ele>493.0</ele><time>2026-04-26T09:22:46Z</time></trkpt><trkpt lat="43.55705196118587" lon="12.409170530979496"><ele>493.0</ele><time>2026-04-26T09:22:47Z</time></trkpt><trkpt lat="43.557221994770835" lon="12.409330127403212"><ele>493.0</ele><time>2026-04-26T09:22:48Z</time></trkpt><trkpt lat="43.55739048673529" lon="12.40948726014647"><ele>493.0</ele><time>2026-04-26T09:22:49Z</time></trkpt><trkpt lat="43.55755883126409" lon="12.40964480717871"><ele>491.6666666666667</ele><time>2026-04-26T09:22:50Z</time></trkpt><trkpt lat="43.55771926439465" lon="12.409801881952996"><ele>490.33333333333337</ele><time>2026-04-26T09:22:51Z</time></trkpt><trkpt lat="43.55787384765843" lon="12.409956087302836"><ele>489.0</ele><time>2026-04-26T09:22:52Z</time></trkpt><trkpt lat="43.55801562291045" lon="12.41010005114689"><ele>489.0</ele><time>2026-04-26T09:22:53Z</time></trkpt><trkpt lat="43.55814684628981" lon="12.410233055781216"><ele>489.0</ele><time>2026-04-26T09:22:54Z</time></trkpt><trkpt lat="43.558269152417566" lon="12.410358679686016"><ele>489.0</ele><time>2026-04-26T09:22:55Z</time></trkpt><trkpt lat="43.55838169349328" lon="12.41048077935503"><ele>488.75</ele><time>2026-04-26T09:22:56Z</time></trkpt><trkpt lat="43.55848664967365" lon="12.410599485016418"><ele>488.5</ele><time>2026-04-26T09:22:57Z</time></trkpt><trkpt lat="43.55857685107939" lon="12.410713131908185"><ele>488.25</ele><time>2026-04-26T09:22:58Z</time></trkpt><trkpt lat="43.558648389545844" lon="12.410824521223546"><ele>488.0</ele><time>2026-04-26T09:22:59Z</time></trkpt><trkpt lat="43.55870563433773" lon="12.41092799748627"><ele>490.66666666666663</ele><time>2026-04-26T09:23:00Z</time></trkpt><trkpt lat="43.55875320537021" lon="12.411030256551877"><ele>493.3333333333333</ele><time>2026-04-26T09:23:01Z</time></trkpt><trkpt lat="43.558796328581806" lon="12.411131692273655"><ele>496.0</ele><time>2026-04-26T09:23:02Z</time></trkpt><trkpt lat="43.55883477781929" lon="12.411234440858564"><ele>498.66666666666663</ele><time>2026-04-26T09:23:03Z</time></trkpt><trkpt lat="43.55886283233405" lon="12.411337442512583"><ele>501.3333333333333</ele><time>2026-04-26T09:23:04Z</time></trkpt><trkpt lat="43.558889482266316" lon="12.411439349089784"><ele>504.0</ele><time>2026-04-26T09:23:05Z</time></trkpt><trkpt lat="43.55891704261072" lon="12.411537608581268"><ele>504.0</ele><time>2026-04-26T09:23:06Z</time></trkpt><trkpt lat="43.55894546280467" lon="12.41163817270657"><ele>504.0</ele><time>2026-04-26T09:23:07Z</time></trkpt><trkpt lat="43.55897564534856" lon="12.411742102846574"><ele>504.0</ele><time>2026-04-26T09:23:08Z</time></trkpt><trkpt lat="43.55900656442" lon="12.411844023025974"><ele>504.0</ele><time>2026-04-26T09:23:09Z</time></trkpt><trkpt lat="43.5590335222679" lon="12.411943614428589"><ele>504.0</ele><time>2026-04-26T09:23:10Z</time></trkpt><trkpt lat="43.55905934877698" lon="12.412043786575449"><ele>504.0</ele><time>2026-04-26T09:23:11Z</time></trkpt><trkpt lat="43.559090304785386" lon="12.412145481751091"><ele>502.1666666666667</ele><time>2026-04-26T09:23:12Z</time></trkpt><trkpt lat="43.55911840744542" lon="12.412243879486224"><ele>500.33333333333337</ele><time>2026-04-26T09:23:13Z</time></trkpt><trkpt lat="43.559148987150394" lon="12.412336845080985"><ele>498.5</ele><time>2026-04-26T09:23:14Z</time></trkpt><trkpt lat="43.55917885793779" lon="12.412435551830841"><ele>496.6666666666667</ele><time>2026-04-26T09:23:15Z</time></trkpt><trkpt lat="43.55920659464273" lon="12.412544792437982"><ele>494.83333333333337</ele><time>2026-04-26T09:23:16Z</time></trkpt><trkpt lat="43.55923215479263" lon="12.412648417201387"><ele>493.0</ele><time>2026-04-26T09:23:17Z</time></trkpt><trkpt lat="43.559261400370936" lon="12.412740284534044"><ele>493.00000000000006</ele><time>2026-04-26T09:23:18Z</time></trkpt><trkpt lat="43.55928969539277" lon="12.412830741786793"><ele>493.0</ele><time>2026-04-26T09:23:19Z</time></trkpt><trkpt lat="43.5593137878907" lon="12.412918208949144"><ele>493.0</ele><time>2026-04-26T09:23:20Z</time></trkpt><trkpt lat="43.559340358664265" lon="12.41301315505813"><ele>493.0</ele><time>2026-04-26T09:23:21Z</time></trkpt><trkpt lat="43.559371151276466" lon="12.41311566595781"><ele>493.00000000000006</ele><time>2026-04-26T09:23:22Z</time></trkpt><trkpt lat="43.55939017515617" lon="12.413209371488222"><ele>493.0</ele><time>2026-04-26T09:23:23Z</time></trkpt><trkpt lat="43.55943561523182" lon="12.413364212697212"><ele>491.59999999999997</ele><time>2026-04-26T09:23:25Z</time></trkpt><trkpt lat="43.559481599397756" lon="12.413525937431231"><ele>490.19999999999993</ele><time>2026-04-26T09:23:27Z</time></trkpt><trkpt lat="43.55950404619382" lon="12.413641293491503"><ele>488.8</ele><time>2026-04-26T09:23:28Z</time></trkpt><trkpt lat="43.55953597460009" lon="12.413775441297323"><ele>487.4</ele><time>2026-04-26T09:23:29Z</time></trkpt><trkpt lat="43.55952900172681" lon="12.413944853970062"><ele>486.0</ele><time>2026-04-26T09:23:30Z</time></trkpt><trkpt lat="43.559555378650586" lon="12.414103860165504"><ele>488.4</ele><time>2026-04-26T09:23:31Z</time></trkpt><trkpt lat="43.559566825243" lon="12.414249439959656"><ele>490.8</ele><time>2026-04-26T09:23:32Z</time></trkpt><trkpt lat="43.55956715013583" lon="12.414387379718491"><ele>493.19999999999993</ele><time>2026-04-26T09:23:33Z</time></trkpt><trkpt lat="43.55956293250547" lon="12.41451106229208"><ele>495.59999999999997</ele><time>2026-04-26T09:23:34Z</time></trkpt><trkpt lat="43.55955652503645" lon="12.414623118077454"><ele>498.0</ele><time>2026-04-26T09:23:35Z</time></trkpt><trkpt lat="43.55954924255148" lon="12.414733826818837"><ele>498.0</ele><time>2026-04-26T09:23:36Z</time></trkpt><trkpt lat="43.55954155465871" lon="12.414850698584546"><ele>497.99999999999994</ele><time>2026-04-26T09:23:37Z</time></trkpt><trkpt lat="43.55953314054582" lon="12.414978610377869"><ele>497.99999999999994</ele><time>2026-04-26T09:23:38Z</time></trkpt><trkpt lat="43.55952481814087" lon="12.415105128056823"><ele>498.0</ele><time>2026-04-26T09:23:39Z</time></trkpt><trkpt lat="43.55952435013642" lon="12.415230797971644"><ele>498.0</ele><time>2026-04-26T09:23:40Z</time></trkpt><trkpt lat="43.55954170299422" lon="12.41535733795306"><ele>498.0</ele><time>2026-04-26T09:23:41Z</time></trkpt><trkpt lat="43.55957659916862" lon="12.415475695574486"><ele>498.0</ele><time>2026-04-26T09:23:42Z</time></trkpt><trkpt lat="43.55961576884893" lon="12.415582331803957"><ele>498.0</ele><time>2026-04-26T09:23:43Z</time></trkpt><trkpt lat="43.55965398604411" lon="12.415680265188604"><ele>498.0</ele><time>2026-04-26T09:23:44Z</time></trkpt><trkpt lat="43.55969611679107" lon="12.415782764256752"><ele>498.0</ele><time>2026-04-26T09:23:45Z</time></trkpt><trkpt lat="43.5597366012439" lon="12.415875855363758"><ele>498.0</ele><time>2026-04-26T09:23:46Z</time></trkpt><trkpt lat="43.559776837024465" lon="12.415969053995052"><ele>497.5</ele><time>2026-04-26T09:23:47Z</time></trkpt><trkpt lat="43.55981811034338" lon="12.416066120996925"><ele>497.0</ele><time>2026-04-26T09:23:48Z</time></trkpt><trkpt lat="43.55987484308171" lon="12.416163309428098"><ele>496.5</ele><time>2026-04-26T09:23:49Z</time></trkpt><trkpt lat="43.559904107823236" lon="12.41626484785725"><ele>496.0</ele><time>2026-04-26T09:23:50Z</time></trkpt><trkpt lat="43.55993363779443" lon="12.416364481960594"><ele>495.5</ele><time>2026-04-26T09:23:51Z</time></trkpt><trkpt lat="43.559930776945144" lon="12.41647047832685"><ele>495.0</ele><time>2026-04-26T09:23:52Z</time></trkpt><trkpt lat="43.55993455012929" lon="12.416568185655782"><ele>494.1666666666667</ele><time>2026-04-26T09:23:53Z</time></trkpt><trkpt lat="43.55992826502549" lon="12.416655080062146"><ele>493.33333333333337</ele><time>2026-04-26T09:23:54Z</time></trkpt><trkpt lat="43.55990128922278" lon="12.416808031568198"><ele>492.5</ele><time>2026-04-26T09:23:56Z</time></trkpt><trkpt lat="43.559848001194055" lon="12.416889982519612"><ele>491.6666666666667</ele><time>2026-04-26T09:23:57Z</time></trkpt><trkpt lat="43.55979438613817" lon="12.416983632924161"><ele>490.83333333333337</ele><time>2026-04-26T09:23:58Z</time></trkpt><trkpt lat="43.55972496384723" lon="12.417090088641121"><ele>490.0</ele><time>2026-04-26T09:23:59Z</time></trkpt><trkpt lat="43.559637567044874" lon="12.417198557996201"><ele>488.25</ele><time>2026-04-26T09:24:00Z</time></trkpt><trkpt lat="43.55954708329796" lon="12.417308414871071"><ele>486.5</ele><time>2026-04-26T09:24:01Z</time></trkpt><trkpt lat="43.55945361275511" lon="12.417420545177741"><ele>484.75</ele><time>2026-04-26T09:24:02Z</time></trkpt><trkpt lat="43.5593543191481" lon="12.417536562756835"><ele>483.0</ele><time>2026-04-26T09:24:03Z</time></trkpt><trkpt lat="43.55927424582673" lon="12.417634758610292"><ele>483.0</ele><time>2026-04-26T09:24:04Z</time></trkpt><trkpt lat="43.559200326223966" lon="12.41773937096564"><ele>482.99999999999994</ele><time>2026-04-26T09:24:05Z</time></trkpt><trkpt lat="43.559138348976504" lon="12.417851301448724"><ele>482.99999999999994</ele><time>2026-04-26T09:24:06Z</time></trkpt><trkpt lat="43.55909303615471" lon="12.417978458135687"><ele>483.0</ele><time>2026-04-26T09:24:07Z</time></trkpt><trkpt lat="43.55906453162821" lon="12.418121510279313"><ele>483.0</ele><time>2026-04-26T09:24:08Z</time></trkpt><trkpt lat="43.559045265297094" lon="12.418274785032553"><ele>482.79999999999995</ele><time>2026-04-26T09:24:09Z</time></trkpt><trkpt lat="43.5590295383186" lon="12.418412841961235"><ele>482.59999999999997</ele><time>2026-04-26T09:24:10Z</time></trkpt><trkpt lat="43.5590167890794" lon="12.418557167459982"><ele>482.40000000000003</ele><time>2026-04-26T09:24:11Z</time></trkpt><trkpt lat="43.55902068587345" lon="12.418691785075143"><ele>482.20000000000005</ele><time>2026-04-26T09:24:12Z</time></trkpt><trkpt lat="43.55901585052593" lon="12.418819996918188"><ele>482.0</ele><time>2026-04-26T09:24:13Z</time></trkpt><trkpt lat="43.55899791609067" lon="12.418918158382933"><ele>481.66666666666663</ele><time>2026-04-26T09:24:14Z</time></trkpt><trkpt lat="43.55899469108219" lon="12.419008498359668"><ele>481.3333333333333</ele><time>2026-04-26T09:24:15Z</time></trkpt><trkpt lat="43.558991123880496" lon="12.419152032849585"><ele>481.0</ele><time>2026-04-26T09:24:17Z</time></trkpt><trkpt lat="43.55898975012754" lon="12.419279665156472"><ele>480.66666666666663</ele><time>2026-04-26T09:24:19Z</time></trkpt><trkpt lat="43.55899062998894" lon="12.419370497935159"><ele>480.3333333333333</ele><time>2026-04-26T09:24:21Z</time></trkpt><trkpt lat="43.558993597584184" lon="12.419487984842478"><ele>480.0</ele><time>2026-04-26T09:24:23Z</time></trkpt><trkpt lat="43.558998857822516" lon="12.41960830497246"><ele>479.6666666666667</ele><time>2026-04-26T09:24:25Z</time></trkpt><trkpt lat="43.559005147208865" lon="12.419718911455934"><ele>479.33333333333337</ele><time>2026-04-26T09:24:27Z</time></trkpt><trkpt lat="43.55901055579085" lon="12.419814027928679"><ele>479.0</ele><time>2026-04-26T09:24:29Z</time></trkpt><trkpt lat="43.55902902809958" lon="12.419926834245125"><ele>478.6666666666667</ele><time>2026-04-26T09:24:31Z</time></trkpt><trkpt lat="43.55903909377695" lon="12.420017367662943"><ele>478.33333333333337</ele><time>2026-04-26T09:24:32Z</time></trkpt><trkpt lat="43.55905330660351" lon="12.42014520163155"><ele>478.0</ele><time>2026-04-26T09:24:33Z</time></trkpt><trkpt lat="43.5590812913965" lon="12.420252305978012"><ele>478.0</ele><time>2026-04-26T09:24:34Z</time></trkpt><trkpt lat="43.559093254554526" lon="12.420367863846053"><ele>478.0</ele><time>2026-04-26T09:24:35Z</time></trkpt><trkpt lat="43.559094463341715" lon="12.420513064210432"><ele>478.0</ele><time>2026-04-26T09:24:36Z</time></trkpt><trkpt lat="43.55911398198947" lon="12.420696328466544"><ele>478.0</ele><time>2026-04-26T09:24:37Z</time></trkpt><trkpt lat="43.55914421856235" lon="12.420881725219898"><ele>478.0</ele><time>2026-04-26T09:24:38Z</time></trkpt><trkpt lat="43.55916093911667" lon="12.421101729529498"><ele>478.0</ele><time>2026-04-26T09:24:39Z</time></trkpt><trkpt lat="43.559183532892" lon="12.421311414685764"><ele>478.0</ele><time>2026-04-26T09:24:40Z</time></trkpt><trkpt lat="43.55920934784549" lon="12.421524860006015"><ele>478.0</ele><time>2026-04-26T09:24:41Z</time></trkpt><trkpt lat="43.55923598733222" lon="12.421742183834132"><ele>478.0</ele><time>2026-04-26T09:24:42Z</time></trkpt><trkpt lat="43.559252903031" lon="12.421962889581566"><ele>478.0</ele><time>2026-04-26T09:24:43Z</time></trkpt><trkpt lat="43.55927224548511" lon="12.422189990623677"><ele>479.0</ele><time>2026-04-26T09:24:44Z</time></trkpt><trkpt lat="43.55927212104817" lon="12.422422359984642"><ele>480.0</ele><time>2026-04-26T09:24:45Z</time></trkpt><trkpt lat="43.559250490138346" lon="12.422651729567757"><ele>481.0</ele><time>2026-04-26T09:24:46Z</time></trkpt><trkpt lat="43.5592333043194" lon="12.422863362862824"><ele>481.75</ele><time>2026-04-26T09:24:47Z</time></trkpt><trkpt lat="43.559215953053894" lon="12.423056904848092"><ele>482.5</ele><time>2026-04-26T09:24:48Z</time></trkpt><trkpt lat="43.559195289483704" lon="12.42325400677261"><ele>483.25</ele><time>2026-04-26T09:24:49Z</time></trkpt><trkpt lat="43.5591807781502" lon="12.423451023302187"><ele>484.0</ele><time>2026-04-26T09:24:50Z</time></trkpt><trkpt lat="43.5591747545322" lon="12.423641071067244"><ele>484.0</ele><time>2026-04-26T09:24:51Z</time></trkpt><trkpt lat="43.559172262765124" lon="12.423805879312239"><ele>484.0</ele><time>2026-04-26T09:24:52Z</time></trkpt><trkpt lat="43.55917142243849" lon="12.423969852776668"><ele>484.0</ele><time>2026-04-26T09:24:53Z</time></trkpt><trkpt lat="43.55918533233067" lon="12.42413692053779"><ele>484.0</ele><time>2026-04-26T09:24:54Z</time></trkpt><trkpt lat="43.559224558921464" lon="12.424327560454499"><ele>483.6666666666667</ele><time>2026-04-26T09:24:55Z</time></trkpt><trkpt lat="43.559268100070696" lon="12.424524917407423"><ele>483.33333333333337</ele><time>2026-04-26T09:24:56Z</time></trkpt><trkpt lat="43.55930181180671" lon="12.424737156606914"><ele>483.0</ele><time>2026-04-26T09:24:57Z</time></trkpt><trkpt lat="43.559334696002516" lon="12.424956894217743"><ele>480.66666666666663</ele><time>2026-04-26T09:24:58Z</time></trkpt><trkpt lat="43.55936819379406" lon="12.425175137883468"><ele>478.3333333333333</ele><time>2026-04-26T09:24:59Z</time></trkpt><trkpt lat="43.55938151339421" lon="12.425403205377963"><ele>476.0</ele><time>2026-04-26T09:25:00Z</time></trkpt><trkpt lat="43.559418685422" lon="12.42563047135933"><ele>475.0</ele><time>2026-04-26T09:25:01Z</time></trkpt><trkpt lat="43.559456421315666" lon="12.425861516583357"><ele>474.0</ele><time>2026-04-26T09:25:02Z</time></trkpt><trkpt lat="43.55949574192888" lon="12.426093140180267"><ele>473.0</ele><time>2026-04-26T09:25:03Z</time></trkpt><trkpt lat="43.55953908526275" lon="12.426325394788632"><ele>477.66666666666663</ele><time>2026-04-26T09:25:04Z</time></trkpt><trkpt lat="43.55959736472955" lon="12.426557888416573"><ele>482.33333333333337</ele><time>2026-04-26T09:25:05Z</time></trkpt><trkpt lat="43.55968412631102" lon="12.426776710483463"><ele>487.0</ele><time>2026-04-26T09:25:06Z</time></trkpt><trkpt lat="43.559802265749134" lon="12.426974844638387"><ele>482.33333333333337</ele><time>2026-04-26T09:25:07Z</time></trkpt><trkpt lat="43.559933027849404" lon="12.42715261692418"><ele>477.66666666666663</ele><time>2026-04-26T09:25:08Z</time></trkpt><trkpt lat="43.56007850562571" lon="12.427317166981695"><ele>473.0</ele><time>2026-04-26T09:25:09Z</time></trkpt><trkpt lat="43.56024264474623" lon="12.427454351442515"><ele>476.3333333333333</ele><time>2026-04-26T09:25:10Z</time></trkpt><trkpt lat="43.56039841753526" lon="12.427601518158058"><ele>479.66666666666663</ele><time>2026-04-26T09:25:11Z</time></trkpt><trkpt lat="43.560571435435975" lon="12.427726643116046"><ele>483.0</ele><time>2026-04-26T09:25:12Z</time></trkpt><trkpt lat="43.56075108367721" lon="12.42782448999774"><ele>483.0</ele><time>2026-04-26T09:25:13Z</time></trkpt><trkpt lat="43.560942771225314" lon="12.42788584214976"><ele>483.0</ele><time>2026-04-26T09:25:14Z</time></trkpt><trkpt lat="43.56114367813748" lon="12.427924667446218"><ele>483.0</ele><time>2026-04-26T09:25:15Z</time></trkpt><trkpt lat="43.56134471296473" lon="12.427969112232331"><ele>478.66666666666663</ele><time>2026-04-26T09:25:16Z</time></trkpt><trkpt lat="43.561544666000614" lon="12.42801699881095"><ele>474.3333333333333</ele><time>2026-04-26T09:25:17Z</time></trkpt><trkpt lat="43.56174211782904" lon="12.428063270674942"><ele>470.0</ele><time>2026-04-26T09:25:18Z</time></trkpt><trkpt lat="43.561947179773334" lon="12.428119268840584"><ele>472.0</ele><time>2026-04-26T09:25:19Z</time></trkpt><trkpt lat="43.56214812942074" lon="12.428171856486912"><ele>474.0</ele><time>2026-04-26T09:25:20Z</time></trkpt><trkpt lat="43.562346905462434" lon="12.428235007532377"><ele>476.0</ele><time>2026-04-26T09:25:21Z</time></trkpt><trkpt lat="43.56255529906376" lon="12.428287468562118"><ele>476.0</ele><time>2026-04-26T09:25:22Z</time></trkpt><trkpt lat="43.5627545755386" lon="12.428356009468878"><ele>476.0</ele><time>2026-04-26T09:25:23Z</time></trkpt><trkpt lat="43.56295318405654" lon="12.428412061812413"><ele>476.0</ele><time>2026-04-26T09:25:24Z</time></trkpt><trkpt lat="43.5631460404181" lon="12.42850117659266"><ele>481.0</ele><time>2026-04-26T09:25:25Z</time></trkpt><trkpt lat="43.56333768916167" lon="12.428568037715824"><ele>486.0</ele><time>2026-04-26T09:25:26Z</time></trkpt><trkpt lat="43.56353246370095" lon="12.428628833516077"><ele>491.0</ele><time>2026-04-26T09:25:27Z</time></trkpt><trkpt lat="43.56371182145083" lon="12.428741901541493"><ele>487.66666666666663</ele><time>2026-04-26T09:25:28Z</time></trkpt><trkpt lat="43.56387000442933" lon="12.428901136492104"><ele>484.33333333333337</ele><time>2026-04-26T09:25:29Z</time></trkpt><trkpt lat="43.56402143682255" lon="12.42907352816841"><ele>481.0</ele><time>2026-04-26T09:25:30Z</time></trkpt><trkpt lat="43.56416145977468" lon="12.429269988930521"><ele>481.0</ele><time>2026-04-26T09:25:31Z</time></trkpt><trkpt lat="43.564284388245305" lon="12.429483705424555"><ele>481.0</ele><time>2026-04-26T09:25:32Z</time></trkpt><trkpt lat="43.56439888057377" lon="12.429703366342586"><ele>481.0</ele><time>2026-04-26T09:25:33Z</time></trkpt><trkpt lat="43.56450441773163" lon="12.429911194496034"><ele>482.6666666666667</ele><time>2026-04-26T09:25:34Z</time></trkpt><trkpt lat="43.56459468038844" lon="12.430122118819092"><ele>484.33333333333337</ele><time>2026-04-26T09:25:35Z</time></trkpt><trkpt lat="43.56465858189814" lon="12.430353050450794"><ele>486.0</ele><time>2026-04-26T09:25:36Z</time></trkpt><trkpt lat="43.56470648249942" lon="12.43060210971854"><ele>481.66666666666663</ele><time>2026-04-26T09:25:37Z</time></trkpt><trkpt lat="43.56474096200096" lon="12.430835314614722"><ele>477.3333333333333</ele><time>2026-04-26T09:25:38Z</time></trkpt><trkpt lat="43.56481171023788" lon="12.431082249167495"><ele>473.0</ele><time>2026-04-26T09:25:39Z</time></trkpt><trkpt lat="43.56492709781664" lon="12.431318266192056"><ele>470.3333333333333</ele><time>2026-04-26T09:25:40Z</time></trkpt><trkpt lat="43.565071345446995" lon="12.431535635786334"><ele>467.66666666666663</ele><time>2026-04-26T09:25:41Z</time></trkpt><trkpt lat="43.56520873372739" lon="12.431744347593654"><ele>465.0</ele><time>2026-04-26T09:25:42Z</time></trkpt><trkpt lat="43.56535319494748" lon="12.43196425207242"><ele>464.66666666666663</ele><time>2026-04-26T09:25:43Z</time></trkpt><trkpt lat="43.56549819318516" lon="12.432184230250845"><ele>464.3333333333333</ele><time>2026-04-26T09:25:44Z</time></trkpt><trkpt lat="43.56564187705781" lon="12.432402214395427"><ele>464.0</ele><time>2026-04-26T09:25:45Z</time></trkpt><trkpt lat="43.56578712833811" lon="12.432624248164851"><ele>464.0</ele><time>2026-04-26T09:25:46Z</time></trkpt><trkpt lat="43.56593199840452" lon="12.432842224402394"><ele>464.0</ele><time>2026-04-26T09:25:47Z</time></trkpt><trkpt lat="43.56607696436776" lon="12.433059250988327"><ele>464.0</ele><time>2026-04-26T09:25:48Z</time></trkpt><trkpt lat="43.56622393987551" lon="12.433276305893118"><ele>464.66666666666663</ele><time>2026-04-26T09:25:49Z</time></trkpt><trkpt lat="43.566375169207824" lon="12.433491038959511"><ele>465.33333333333337</ele><time>2026-04-26T09:25:50Z</time></trkpt><trkpt lat="43.56652804378605" lon="12.433701200485137"><ele>466.0</ele><time>2026-04-26T09:25:51Z</time></trkpt><trkpt lat="43.56670676060302" lon="12.433869330890834"><ele>466.0</ele><time>2026-04-26T09:25:52Z</time></trkpt><trkpt lat="43.56687649319207" lon="12.434047775304409"><ele>466.0</ele><time>2026-04-26T09:25:53Z</time></trkpt><trkpt lat="43.56705750667417" lon="12.434198779005094"><ele>466.0</ele><time>2026-04-26T09:25:54Z</time></trkpt><trkpt lat="43.56724400759828" lon="12.434338671503722"><ele>463.6666666666667</ele><time>2026-04-26T09:25:55Z</time></trkpt><trkpt lat="43.56742907079161" lon="12.434490494634366"><ele>461.33333333333337</ele><time>2026-04-26T09:25:56Z</time></trkpt><trkpt lat="43.56762308749491" lon="12.434613019150078"><ele>459.0</ele><time>2026-04-26T09:25:57Z</time></trkpt><trkpt lat="43.56781493478863" lon="12.434734073038"><ele>459.0</ele><time>2026-04-26T09:25:58Z</time></trkpt><trkpt lat="43.568008453261896" lon="12.434855883996473"><ele>459.0</ele><time>2026-04-26T09:25:59Z</time></trkpt><trkpt lat="43.56819836951099" lon="12.434978317621793"><ele>459.0</ele><time>2026-04-26T09:26:00Z</time></trkpt><trkpt lat="43.56838243332651" lon="12.435097816508652"><ele>459.0</ele><time>2026-04-26T09:26:01Z</time></trkpt><trkpt lat="43.56855483412472" lon="12.43521182172776"><ele>459.0</ele><time>2026-04-26T09:26:02Z</time></trkpt><trkpt lat="43.568719950957735" lon="12.435323063282581"><ele>459.0</ele><time>2026-04-26T09:26:03Z</time></trkpt><trkpt lat="43.56888095380163" lon="12.435424224897538"><ele>459.66666666666663</ele><time>2026-04-26T09:26:04Z</time></trkpt><trkpt lat="43.56902178605996" lon="12.435577001655385"><ele>460.3333333333333</ele><time>2026-04-26T09:26:05Z</time></trkpt><trkpt lat="43.56912598447934" lon="12.435795220917273"><ele>461.0</ele><time>2026-04-26T09:26:06Z</time></trkpt><trkpt lat="43.569211694532775" lon="12.436032135709844"><ele>461.0</ele><time>2026-04-26T09:26:07Z</time></trkpt><trkpt lat="43.56928752579054" lon="12.436287485269496"><ele>461.0</ele><time>2026-04-26T09:26:08Z</time></trkpt><trkpt lat="43.56935724923072" lon="12.436553911942848"><ele>461.0</ele><time>2026-04-26T09:26:09Z</time></trkpt><trkpt lat="43.569431220824264" lon="12.436828503501161"><ele>460.0</ele><time>2026-04-26T09:26:10Z</time></trkpt><trkpt lat="43.56950703180606" lon="12.4371061902197"><ele>459.0</ele><time>2026-04-26T09:26:11Z</time></trkpt><trkpt lat="43.569588159227806" lon="12.437384049649786"><ele>458.0</ele><time>2026-04-26T09:26:12Z</time></trkpt><trkpt lat="43.56967789335565" lon="12.43766021275279"><ele>458.0</ele><time>2026-04-26T09:26:13Z</time></trkpt><trkpt lat="43.56977746427332" lon="12.43792986376001"><ele>458.0</ele><time>2026-04-26T09:26:14Z</time></trkpt><trkpt lat="43.569878648703" lon="12.438196783131097"><ele>458.0</ele><time>2026-04-26T09:26:15Z</time></trkpt><trkpt lat="43.56997945406366" lon="12.438462700880386"><ele>458.0</ele><time>2026-04-26T09:26:16Z</time></trkpt><trkpt lat="43.57007819248012" lon="12.438723166167929"><ele>458.0</ele><time>2026-04-26T09:26:17Z</time></trkpt><trkpt lat="43.570203052927084" lon="12.438967722509279"><ele>458.0</ele><time>2026-04-26T09:26:18Z</time></trkpt><trkpt lat="43.5702995486781" lon="12.439229925817903"><ele>459.66666666666663</ele><time>2026-04-26T09:26:19Z</time></trkpt><trkpt lat="43.57040306970524" lon="12.439482793842142"><ele>461.33333333333337</ele><time>2026-04-26T09:26:20Z</time></trkpt><trkpt lat="43.57051823260028" lon="12.439722502252827"><ele>463.0</ele><time>2026-04-26T09:26:21Z</time></trkpt><trkpt lat="43.57065196248696" lon="12.439944866032915"><ele>463.0</ele><time>2026-04-26T09:26:22Z</time></trkpt><trkpt lat="43.57080300480841" lon="12.440146174957468"><ele>463.0</ele><time>2026-04-26T09:26:23Z</time></trkpt><trkpt lat="43.570969823044265" lon="12.440320513511093"><ele>463.0</ele><time>2026-04-26T09:26:24Z</time></trkpt><trkpt lat="43.57115108082614" lon="12.440474754332891"><ele>463.33333333333337</ele><time>2026-04-26T09:26:25Z</time></trkpt><trkpt lat="43.57134016612729" lon="12.440618923686186"><ele>463.66666666666663</ele><time>2026-04-26T09:26:26Z</time></trkpt><trkpt lat="43.571525499383654" lon="12.440769757052054"><ele>464.0</ele><time>2026-04-26T09:26:27Z</time></trkpt><trkpt lat="43.57171579509089" lon="12.440921040412107"><ele>464.0</ele><time>2026-04-26T09:26:28Z</time></trkpt><trkpt lat="43.57190117203445" lon="12.441088653086123"><ele>464.0</ele><time>2026-04-26T09:26:29Z</time></trkpt><trkpt lat="43.57208298855611" lon="12.44126643825807"><ele>464.0</ele><time>2026-04-26T09:26:30Z</time></trkpt><trkpt lat="43.57226235543239" lon="12.441448497467793"><ele>461.5</ele><time>2026-04-26T09:26:31Z</time></trkpt><trkpt lat="43.57244507756939" lon="12.441632210038168"><ele>459.0</ele><time>2026-04-26T09:26:32Z</time></trkpt><trkpt lat="43.572628823753135" lon="12.441815022846692"><ele>459.0</ele><time>2026-04-26T09:26:33Z</time></trkpt><trkpt lat="43.572819320316135" lon="12.441987073645342"><ele>459.0</ele><time>2026-04-26T09:26:34Z</time></trkpt><trkpt lat="43.57302071327799" lon="12.442135777513847"><ele>456.0</ele><time>2026-04-26T09:26:35Z</time></trkpt><trkpt lat="43.57323016931476" lon="12.442263638830465"><ele>453.0</ele><time>2026-04-26T09:26:36Z</time></trkpt><trkpt lat="43.57343570359494" lon="12.442393538000426"><ele>453.0</ele><time>2026-04-26T09:26:37Z</time></trkpt><trkpt lat="43.573640963386005" lon="12.442528284365755"><ele>453.0</ele><time>2026-04-26T09:26:38Z</time></trkpt><trkpt lat="43.57384619548623" lon="12.442661823065919"><ele>458.0</ele><time>2026-04-26T09:26:39Z</time></trkpt><trkpt lat="43.574050538084784" lon="12.442797404471726"><ele>463.0</ele><time>2026-04-26T09:26:40Z</time></trkpt><trkpt lat="43.57424993273813" lon="12.442938855414758"><ele>460.6666666666667</ele><time>2026-04-26T09:26:41Z</time></trkpt><trkpt lat="43.57444314669591" lon="12.443075283611467"><ele>458.33333333333337</ele><time>2026-04-26T09:26:42Z</time></trkpt><trkpt lat="43.5746316886201" lon="12.443207318176572"><ele>456.0</ele><time>2026-04-26T09:26:43Z</time></trkpt><trkpt lat="43.57482048139362" lon="12.44332743519435"><ele>456.0</ele><time>2026-04-26T09:26:44Z</time></trkpt><trkpt lat="43.57501691300258" lon="12.443422445009563"><ele>456.0</ele><time>2026-04-26T09:26:45Z</time></trkpt><trkpt lat="43.57521669644673" lon="12.44349430888708"><ele>456.0</ele><time>2026-04-26T09:26:46Z</time></trkpt><trkpt lat="43.57541663310767" lon="12.443569686883848"><ele>458.66666666666663</ele><time>2026-04-26T09:26:47Z</time></trkpt><trkpt lat="43.57561887698598" lon="12.443642829553589"><ele>461.3333333333333</ele><time>2026-04-26T09:26:48Z</time></trkpt><trkpt lat="43.57582484390011" lon="12.443710459967965"><ele>464.0</ele><time>2026-04-26T09:26:49Z</time></trkpt><trkpt lat="43.57603251945264" lon="12.443775915201213"><ele>462.0</ele><time>2026-04-26T09:26:50Z</time></trkpt><trkpt lat="43.57622551688645" lon="12.443850210851828"><ele>460.0</ele><time>2026-04-26T09:26:51Z</time></trkpt><trkpt lat="43.57640281026282" lon="12.443952296338244"><ele>458.0</ele><time>2026-04-26T09:26:52Z</time></trkpt><trkpt lat="43.57656214907968" lon="12.444103817315087"><ele>458.0</ele><time>2026-04-26T09:26:53Z</time></trkpt><trkpt lat="43.57670112041777" lon="12.444311755845465"><ele>458.0</ele><time>2026-04-26T09:26:54Z</time></trkpt><trkpt lat="43.57681155505519" lon="12.444555910931328"><ele>458.0</ele><time>2026-04-26T09:26:55Z</time></trkpt><trkpt lat="43.5768923095787" lon="12.444815507062234"><ele>459.3333333333333</ele><time>2026-04-26T09:26:56Z</time></trkpt><trkpt lat="43.57696748067561" lon="12.445057188625087"><ele>460.66666666666663</ele><time>2026-04-26T09:26:57Z</time></trkpt><trkpt lat="43.57705905408403" lon="12.445274622883625"><ele>462.0</ele><time>2026-04-26T09:26:58Z</time></trkpt><trkpt lat="43.57719022097039" lon="12.445465776166246"><ele>457.0</ele><time>2026-04-26T09:26:59Z</time></trkpt><trkpt lat="43.57734523507635" lon="12.445645882015304"><ele>452.0</ele><time>2026-04-26T09:27:00Z</time></trkpt><trkpt lat="43.57750860885703" lon="12.44581819196436"><ele>447.0</ele><time>2026-04-26T09:27:01Z</time></trkpt><trkpt lat="43.57767262559639" lon="12.445989705079887"><ele>447.0</ele><time>2026-04-26T09:27:02Z</time></trkpt><trkpt lat="43.57783731377535" lon="12.446157337848176"><ele>447.0</ele><time>2026-04-26T09:27:03Z</time></trkpt><trkpt lat="43.57799535709567" lon="12.446330947654648"><ele>447.0</ele><time>2026-04-26T09:27:04Z</time></trkpt><trkpt lat="43.57812882540566" lon="12.44654226268862"><ele>447.0</ele><time>2026-04-26T09:27:05Z</time></trkpt><trkpt lat="43.578230129648475" lon="12.446787340782976"><ele>447.0</ele><time>2026-04-26T09:27:06Z</time></trkpt><trkpt lat="43.5783101406089" lon="12.447050665669163"><ele>447.0</ele><time>2026-04-26T09:27:07Z</time></trkpt><trkpt lat="43.57837469566423" lon="12.447317332304964"><ele>446.0</ele><time>2026-04-26T09:27:08Z</time></trkpt><trkpt lat="43.57845918726679" lon="12.447575964105619"><ele>445.0</ele><time>2026-04-26T09:27:09Z</time></trkpt><trkpt lat="43.57857806372476" lon="12.447811208298692"><ele>444.0</ele><time>2026-04-26T09:27:10Z</time></trkpt><trkpt lat="43.57871613978117" lon="12.448038571944359"><ele>444.0</ele><time>2026-04-26T09:27:11Z</time></trkpt><trkpt lat="43.57886158308458" lon="12.44825660920286"><ele>444.0</ele><time>2026-04-26T09:27:12Z</time></trkpt><trkpt lat="43.57900348259468" lon="12.448473246690252"><ele>444.0</ele><time>2026-04-26T09:27:13Z</time></trkpt><trkpt lat="43.57915442763243" lon="12.448686370074173"><ele>443.33333333333337</ele><time>2026-04-26T09:27:14Z</time></trkpt><trkpt lat="43.57930402092492" lon="12.448892495987748"><ele>442.6666666666667</ele><time>2026-04-26T09:27:15Z</time></trkpt><trkpt lat="43.579445898413034" lon="12.449095918324462"><ele>442.0</ele><time>2026-04-26T09:27:16Z</time></trkpt><trkpt lat="43.579576585140046" lon="12.449289332621724"><ele>442.0</ele><time>2026-04-26T09:27:17Z</time></trkpt><trkpt lat="43.57970678077103" lon="12.449485287365462"><ele>442.0</ele><time>2026-04-26T09:27:18Z</time></trkpt><trkpt lat="43.579835254246404" lon="12.449674280379853"><ele>442.0</ele><time>2026-04-26T09:27:19Z</time></trkpt><trkpt lat="43.57995593785733" lon="12.449863838020057"><ele>439.33333333333337</ele><time>2026-04-26T09:27:20Z</time></trkpt><trkpt lat="43.580045403103085" lon="12.450071986221127"><ele>436.66666666666663</ele><time>2026-04-26T09:27:21Z</time></trkpt><trkpt lat="43.580102411983894" lon="12.450308980357558"><ele>434.0</ele><time>2026-04-26T09:27:22Z</time></trkpt><trkpt lat="43.580101441097035" lon="12.450561615412896"><ele>434.0</ele><time>2026-04-26T09:27:23Z</time></trkpt><trkpt lat="43.5801080771432" lon="12.45081936304057"><ele>434.0</ele><time>2026-04-26T09:27:24Z</time></trkpt><trkpt lat="43.58004547897252" lon="12.451076800863914"><ele>434.0</ele><time>2026-04-26T09:27:25Z</time></trkpt><trkpt lat="43.57999872257259" lon="12.451334409947846"><ele>434.3333333333333</ele><time>2026-04-26T09:27:26Z</time></trkpt><trkpt lat="43.5799931814614" lon="12.451602973421553"><ele>434.66666666666663</ele><time>2026-04-26T09:27:27Z</time></trkpt><trkpt lat="43.57999198213499" lon="12.451861083031918"><ele>435.0</ele><time>2026-04-26T09:27:28Z</time></trkpt><trkpt lat="43.580039402813746" lon="12.45211961590542"><ele>437.66666666666663</ele><time>2026-04-26T09:27:29Z</time></trkpt><trkpt lat="43.580142080292426" lon="12.452361792501932"><ele>440.3333333333333</ele><time>2026-04-26T09:27:30Z</time></trkpt><trkpt lat="43.58028681268682" lon="12.452558835751097"><ele>443.0</ele><time>2026-04-26T09:27:31Z</time></trkpt><trkpt lat="43.580427176763386" lon="12.452776252171487"><ele>438.66666666666663</ele><time>2026-04-26T09:27:32Z</time></trkpt><trkpt lat="43.580554798226366" lon="12.453008918120014"><ele>434.33333333333337</ele><time>2026-04-26T09:27:33Z</time></trkpt><trkpt lat="43.58064225062862" lon="12.453284551442152"><ele>430.0</ele><time>2026-04-26T09:27:34Z</time></trkpt><trkpt lat="43.5806862508118" lon="12.453590825751116"><ele>426.0</ele><time>2026-04-26T09:27:35Z</time></trkpt><trkpt lat="43.58067507534484" lon="12.453913739953997"><ele>422.0</ele><time>2026-04-26T09:27:36Z</time></trkpt><trkpt lat="43.58065432636022" lon="12.454233675136138"><ele>422.0</ele><time>2026-04-26T09:27:37Z</time></trkpt><trkpt lat="43.580632343817065" lon="12.454548890870855"><ele>422.0</ele><time>2026-04-26T09:27:38Z</time></trkpt><trkpt lat="43.580611028619586" lon="12.45485316666379"><ele>421.3333333333333</ele><time>2026-04-26T09:27:39Z</time></trkpt><trkpt lat="43.58059025740602" lon="12.455147998794551"><ele>420.66666666666663</ele><time>2026-04-26T09:27:40Z</time></trkpt><trkpt lat="43.58056929206961" lon="12.455439994654839"><ele>420.0</ele><time>2026-04-26T09:27:41Z</time></trkpt><trkpt lat="43.580548855460655" lon="12.45573480560379"><ele>418.66666666666663</ele><time>2026-04-26T09:27:42Z</time></trkpt><trkpt lat="43.58052776114573" lon="12.456025405636131"><ele>417.3333333333333</ele><time>2026-04-26T09:27:43Z</time></trkpt><trkpt lat="43.58050157384654" lon="12.456309124447744"><ele>416.0</ele><time>2026-04-26T09:27:44Z</time></trkpt><trkpt lat="43.58047228040589" lon="12.45659624815218"><ele>416.0</ele><time>2026-04-26T09:27:45Z</time></trkpt><trkpt lat="43.58040420076058" lon="12.456868075456814"><ele>416.0</ele><time>2026-04-26T09:27:46Z</time></trkpt><trkpt lat="43.580326360906284" lon="12.457136689064008"><ele>416.0</ele><time>2026-04-26T09:27:47Z</time></trkpt><trkpt lat="43.58024904669767" lon="12.457401160172758"><ele>416.3333333333333</ele><time>2026-04-26T09:27:48Z</time></trkpt><trkpt lat="43.58016752477893" lon="12.45766590911174"><ele>416.66666666666663</ele><time>2026-04-26T09:27:49Z</time></trkpt><trkpt lat="43.5800865959354" lon="12.457931114752185"><ele>417.0</ele><time>2026-04-26T09:27:50Z</time></trkpt><trkpt lat="43.580003188374924" lon="12.458199555901093"><ele>418.33333333333337</ele><time>2026-04-26T09:27:51Z</time></trkpt><trkpt lat="43.57991993838751" lon="12.458468639500044"><ele>419.6666666666667</ele><time>2026-04-26T09:27:52Z</time></trkpt><trkpt lat="43.579838311248814" lon="12.458737498463165"><ele>421.0</ele><time>2026-04-26T09:27:53Z</time></trkpt><trkpt lat="43.57975545078012" lon="12.459019559678099"><ele>418.0</ele><time>2026-04-26T09:27:54Z</time></trkpt><trkpt lat="43.5796637590413" lon="12.459294495319133"><ele>415.0</ele><time>2026-04-26T09:27:55Z</time></trkpt><trkpt lat="43.57958581744664" lon="12.459576901049541"><ele>412.0</ele><time>2026-04-26T09:27:56Z</time></trkpt><trkpt lat="43.57950305428174" lon="12.459849363135445"><ele>412.0</ele><time>2026-04-26T09:27:57Z</time></trkpt><trkpt lat="43.57942106717121" lon="12.460111533207627"><ele>412.0</ele><time>2026-04-26T09:27:58Z</time></trkpt><trkpt lat="43.579363346794125" lon="12.460379844332726"><ele>412.0</ele><time>2026-04-26T09:27:59Z</time></trkpt><trkpt lat="43.57931188071479" lon="12.460650115063816"><ele>412.33333333333337</ele><time>2026-04-26T09:28:00Z</time></trkpt><trkpt lat="43.57927311790057" lon="12.460934764353386"><ele>412.66666666666663</ele><time>2026-04-26T09:28:01Z</time></trkpt><trkpt lat="43.579259510234884" lon="12.461240599406088"><ele>413.0</ele><time>2026-04-26T09:28:02Z</time></trkpt><trkpt lat="43.579257750005176" lon="12.461521938570783"><ele>413.66666666666663</ele><time>2026-04-26T09:28:03Z</time></trkpt><trkpt lat="43.57926720547723" lon="12.461814348561774"><ele>414.33333333333337</ele><time>2026-04-26T09:28:04Z</time></trkpt><trkpt lat="43.57925943198667" lon="12.462091136176834"><ele>415.0</ele><time>2026-04-26T09:28:05Z</time></trkpt><trkpt lat="43.57922992549026" lon="12.462367903783187"><ele>415.33333333333337</ele><time>2026-04-26T09:28:06Z</time></trkpt><trkpt lat="43.579155053622316" lon="12.462618373198604"><ele>415.66666666666663</ele><time>2026-04-26T09:28:07Z</time></trkpt><trkpt lat="43.57904522970669" lon="12.462858329178028"><ele>416.0</ele><time>2026-04-26T09:28:08Z</time></trkpt><trkpt lat="43.57889728372049" lon="12.463062919993895"><ele>418.0</ele><time>2026-04-26T09:28:09Z</time></trkpt><trkpt lat="43.57874921144804" lon="12.463267607768458"><ele>420.0</ele><time>2026-04-26T09:28:10Z</time></trkpt><trkpt lat="43.57858383882201" lon="12.463439218032486"><ele>422.0</ele><time>2026-04-26T09:28:11Z</time></trkpt><trkpt lat="43.578421236053345" lon="12.46361205874789"><ele>421.3333333333333</ele><time>2026-04-26T09:28:12Z</time></trkpt><trkpt lat="43.57825982274742" lon="12.463786755665119"><ele>420.66666666666663</ele><time>2026-04-26T09:28:13Z</time></trkpt><trkpt lat="43.57810008774889" lon="12.463956233095312"><ele>420.0</ele><time>2026-04-26T09:28:14Z</time></trkpt><trkpt lat="43.57793790903214" lon="12.464131433753495"><ele>417.33333333333337</ele><time>2026-04-26T09:28:15Z</time></trkpt><trkpt lat="43.57778246043676" lon="12.464300125370086"><ele>414.6666666666667</ele><time>2026-04-26T09:28:16Z</time></trkpt><trkpt lat="43.577615015847336" lon="12.464472118652045"><ele>412.0</ele><time>2026-04-26T09:28:17Z</time></trkpt><trkpt lat="43.57745718929008" lon="12.46465193477102"><ele>412.0</ele><time>2026-04-26T09:28:18Z</time></trkpt><trkpt lat="43.577304624769994" lon="12.464820634562262"><ele>412.0</ele><time>2026-04-26T09:28:19Z</time></trkpt><trkpt lat="43.57717347755175" lon="12.465015467844706"><ele>412.0</ele><time>2026-04-26T09:28:20Z</time></trkpt><trkpt lat="43.57706256382171" lon="12.465224672378248"><ele>406.33333333333337</ele><time>2026-04-26T09:28:21Z</time></trkpt><trkpt lat="43.57698821676864" lon="12.465454904967908"><ele>400.66666666666663</ele><time>2026-04-26T09:28:22Z</time></trkpt><trkpt lat="43.57696464838393" lon="12.46569505286248"><ele>395.0</ele><time>2026-04-26T09:28:23Z</time></trkpt><trkpt lat="43.5769378580386" lon="12.465922498349453"><ele>395.0</ele><time>2026-04-26T09:28:24Z</time></trkpt><trkpt lat="43.57693943883498" lon="12.466138964779914"><ele>395.0</ele><time>2026-04-26T09:28:25Z</time></trkpt><trkpt lat="43.57694677099045" lon="12.466349427477963"><ele>395.0</ele><time>2026-04-26T09:28:26Z</time></trkpt><trkpt lat="43.57697397063279" lon="12.466546684384417"><ele>396.75</ele><time>2026-04-26T09:28:27Z</time></trkpt><trkpt lat="43.57701264858159" lon="12.466726318459738"><ele>398.5</ele><time>2026-04-26T09:28:28Z</time></trkpt><trkpt lat="43.57707168625688" lon="12.466894274012592"><ele>400.25</ele><time>2026-04-26T09:28:29Z</time></trkpt><trkpt lat="43.57714910726458" lon="12.467049084886323"><ele>402.0</ele><time>2026-04-26T09:28:30Z</time></trkpt><trkpt lat="43.577236042921925" lon="12.46718361242608"><ele>403.25</ele><time>2026-04-26T09:28:31Z</time></trkpt><trkpt lat="43.57732771330503" lon="12.467305546870145"><ele>404.5</ele><time>2026-04-26T09:28:32Z</time></trkpt><trkpt lat="43.57741852860536" lon="12.467422247766713"><ele>405.75</ele><time>2026-04-26T09:28:33Z</time></trkpt><trkpt lat="43.57750624725348" lon="12.467534969357715"><ele>407.0</ele><time>2026-04-26T09:28:34Z</time></trkpt><trkpt lat="43.57759174812515" lon="12.467644357734672"><ele>407.0</ele><time>2026-04-26T09:28:35Z</time></trkpt><trkpt lat="43.577675609122025" lon="12.467750121391203"><ele>407.0</ele><time>2026-04-26T09:28:36Z</time></trkpt><trkpt lat="43.57775693885884" lon="12.46785269267952"><ele>407.0</ele><time>2026-04-26T09:28:37Z</time></trkpt><trkpt lat="43.57783972069149" lon="12.467957095317653"><ele>407.0</ele><time>2026-04-26T09:28:38Z</time></trkpt><trkpt lat="43.57792873770373" lon="12.468049219691881"><ele>407.0</ele><time>2026-04-26T09:28:39Z</time></trkpt><trkpt lat="43.578002613498604" lon="12.468152867730351"><ele>406.0</ele><time>2026-04-26T09:28:40Z</time></trkpt><trkpt lat="43.57807638919113" lon="12.4682563794836"><ele>405.0</ele><time>2026-04-26T09:28:41Z</time></trkpt><trkpt lat="43.57815118987668" lon="12.4683521822034"><ele>404.0</ele><time>2026-04-26T09:28:42Z</time></trkpt><trkpt lat="43.57822382080077" lon="12.468446271911729"><ele>403.0</ele><time>2026-04-26T09:28:43Z</time></trkpt><trkpt lat="43.57829260555385" lon="12.468536117614697"><ele>402.0</ele><time>2026-04-26T09:28:44Z</time></trkpt><trkpt lat="43.57836359904169" lon="12.46862480001568"><ele>402.0</ele><time>2026-04-26T09:28:45Z</time></trkpt><trkpt lat="43.57843941156196" lon="12.468720059505499"><ele>402.0</ele><time>2026-04-26T09:28:46Z</time></trkpt><trkpt lat="43.5785151826392" lon="12.468823390265898"><ele>402.0</ele><time>2026-04-26T09:28:47Z</time></trkpt><trkpt lat="43.57858826748271" lon="12.468932478550204"><ele>402.0</ele><time>2026-04-26T09:28:48Z</time></trkpt><trkpt lat="43.57863817126865" lon="12.469056787505949"><ele>402.0</ele><time>2026-04-26T09:28:49Z</time></trkpt><trkpt lat="43.578670699175916" lon="12.469193476284229"><ele>403.8</ele><time>2026-04-26T09:28:50Z</time></trkpt><trkpt lat="43.57867752170845" lon="12.469341055078116"><ele>405.6</ele><time>2026-04-26T09:28:51Z</time></trkpt><trkpt lat="43.5786635664945" lon="12.469489697464947"><ele>407.40000000000003</ele><time>2026-04-26T09:28:52Z</time></trkpt><trkpt lat="43.57861986850396" lon="12.469628654250412"><ele>409.20000000000005</ele><time>2026-04-26T09:28:53Z</time></trkpt><trkpt lat="43.578557133493135" lon="12.469750909870362"><ele>411.0</ele><time>2026-04-26T09:28:54Z</time></trkpt><trkpt lat="43.57852871642263" lon="12.469878255508766"><ele>411.0</ele><time>2026-04-26T09:28:55Z</time></trkpt><trkpt lat="43.578432095440505" lon="12.469987960876933"><ele>411.0</ele><time>2026-04-26T09:28:56Z</time></trkpt><trkpt lat="43.57837344880641" lon="12.470111372004837"><ele>411.0</ele><time>2026-04-26T09:28:57Z</time></trkpt><trkpt lat="43.578321985043345" lon="12.470243619875928"><ele>411.0</ele><time>2026-04-26T09:28:58Z</time></trkpt><trkpt lat="43.57828380928606" lon="12.47038646242468"><ele>407.6</ele><time>2026-04-26T09:28:59Z</time></trkpt><trkpt lat="43.57825076194639" lon="12.470522712340353"><ele>404.20000000000005</ele><time>2026-04-26T09:29:00Z</time></trkpt><trkpt lat="43.57822513118012" lon="12.470666150651313"><ele>400.79999999999995</ele><time>2026-04-26T09:29:01Z</time></trkpt><trkpt lat="43.57819660369007" lon="12.470804725654888"><ele>397.4</ele><time>2026-04-26T09:29:02Z</time></trkpt><trkpt lat="43.57817582337519" lon="12.470944763124521"><ele>394.0</ele><time>2026-04-26T09:29:03Z</time></trkpt><trkpt lat="43.578157927784225" lon="12.471080401894683"><ele>394.0</ele><time>2026-04-26T09:29:04Z</time></trkpt><trkpt lat="43.57813577098294" lon="12.471215450646811"><ele>394.0</ele><time>2026-04-26T09:29:05Z</time></trkpt><trkpt lat="43.57811306101027" lon="12.471341755656933"><ele>394.0</ele><time>2026-04-26T09:29:06Z</time></trkpt><trkpt lat="43.57809625085961" lon="12.471474004109657"><ele>394.0</ele><time>2026-04-26T09:29:07Z</time></trkpt><trkpt lat="43.57807151299015" lon="12.471609932481698"><ele>394.0</ele><time>2026-04-26T09:29:08Z</time></trkpt><trkpt lat="43.57804675387917" lon="12.471748273239271"><ele>392.4</ele><time>2026-04-26T09:29:09Z</time></trkpt><trkpt lat="43.578021433488225" lon="12.4718928671812"><ele>390.79999999999995</ele><time>2026-04-26T09:29:10Z</time></trkpt><trkpt lat="43.57799284121779" lon="12.472037449714632"><ele>389.20000000000005</ele><time>2026-04-26T09:29:11Z</time></trkpt><trkpt lat="43.57796628613268" lon="12.472184014552663"><ele>387.6</ele><time>2026-04-26T09:29:12Z</time></trkpt><trkpt lat="43.5779427686541" lon="12.472333662470621"><ele>386.0</ele><time>2026-04-26T09:29:13Z</time></trkpt><trkpt lat="43.57792121917882" lon="12.472482706042781"><ele>385.75</ele><time>2026-04-26T09:29:14Z</time></trkpt><trkpt lat="43.57790000672926" lon="12.472644830150639"><ele>385.5</ele><time>2026-04-26T09:29:15Z</time></trkpt><trkpt lat="43.57789164578197" lon="12.472807878736637"><ele>385.25</ele><time>2026-04-26T09:29:16Z</time></trkpt><trkpt lat="43.577888905386" lon="12.472971627715577"><ele>385.0</ele><time>2026-04-26T09:29:17Z</time></trkpt><trkpt lat="43.577888612717395" lon="12.473143939285533"><ele>385.5</ele><time>2026-04-26T09:29:18Z</time></trkpt><trkpt lat="43.57789720466891" lon="12.473315800569065"><ele>386.0</ele><time>2026-04-26T09:29:19Z</time></trkpt><trkpt lat="43.5779165871514" lon="12.473485240823345"><ele>386.5</ele><time>2026-04-26T09:29:20Z</time></trkpt><trkpt lat="43.577946117369265" lon="12.473640888231778"><ele>387.0</ele><time>2026-04-26T09:29:21Z</time></trkpt><trkpt lat="43.57797665129046" lon="12.473780501358942"><ele>387.20000000000005</ele><time>2026-04-26T09:29:22Z</time></trkpt><trkpt lat="43.578012338476135" lon="12.473907632985958"><ele>387.4</ele><time>2026-04-26T09:29:23Z</time></trkpt><trkpt lat="43.578056287585035" lon="12.474033179296322"><ele>387.6</ele><time>2026-04-26T09:29:24Z</time></trkpt><trkpt lat="43.5781036817526" lon="12.474177394383538"><ele>387.79999999999995</ele><time>2026-04-26T09:29:25Z</time></trkpt><trkpt lat="43.57816700234384" lon="12.474331330388715"><ele>388.0</ele><time>2026-04-26T09:29:26Z</time></trkpt><trkpt lat="43.57824387632334" lon="12.47449611402619"><ele>387.6666666666667</ele><time>2026-04-26T09:29:27Z</time></trkpt><trkpt lat="43.57831911134081" lon="12.47467254535384"><ele>387.33333333333337</ele><time>2026-04-26T09:29:28Z</time></trkpt><trkpt lat="43.578378242353786" lon="12.474878587720763"><ele>387.0</ele><time>2026-04-26T09:29:29Z</time></trkpt><trkpt lat="43.57847195999579" lon="12.47505137022783"><ele>387.0</ele><time>2026-04-26T09:29:30Z</time></trkpt><trkpt lat="43.578540859611216" lon="12.475238060808769"><ele>387.0</ele><time>2026-04-26T09:29:31Z</time></trkpt><trkpt lat="43.57861811031972" lon="12.475404844731186"><ele>387.0</ele><time>2026-04-26T09:29:32Z</time></trkpt><trkpt lat="43.57869392488786" lon="12.475567959253201"><ele>387.0</ele><time>2026-04-26T09:29:33Z</time></trkpt><trkpt lat="43.5787683264675" lon="12.475737373034733"><ele>389.0</ele><time>2026-04-26T09:29:34Z</time></trkpt><trkpt lat="43.578837240142825" lon="12.475909698502134"><ele>391.0</ele><time>2026-04-26T09:29:35Z</time></trkpt><trkpt lat="43.57891068171899" lon="12.476072376319337"><ele>393.0</ele><time>2026-04-26T09:29:36Z</time></trkpt><trkpt lat="43.57896641926" lon="12.476241291832464"><ele>395.0</ele><time>2026-04-26T09:29:37Z</time></trkpt><trkpt lat="43.57902600357147" lon="12.476407688726798"><ele>395.0</ele><time>2026-04-26T09:29:38Z</time></trkpt><trkpt lat="43.57906506860656" lon="12.4765700559566"><ele>395.0</ele><time>2026-04-26T09:29:39Z</time></trkpt><trkpt lat="43.579088845379" lon="12.476743911193571"><ele>395.0</ele><time>2026-04-26T09:29:40Z</time></trkpt><trkpt lat="43.57909454994102" lon="12.476921025202639"><ele>395.0</ele><time>2026-04-26T09:29:41Z</time></trkpt><trkpt lat="43.57908372631748" lon="12.477086675399912"><ele>396.4</ele><time>2026-04-26T09:29:42Z</time></trkpt><trkpt lat="43.57905238154451" lon="12.477232701432627"><ele>397.8</ele><time>2026-04-26T09:29:43Z</time></trkpt><trkpt lat="43.579012420810706" lon="12.477367018934483"><ele>399.20000000000005</ele><time>2026-04-26T09:29:44Z</time></trkpt><trkpt lat="43.57896666777425" lon="12.477489809935067"><ele>400.6</ele><time>2026-04-26T09:29:45Z</time></trkpt><trkpt lat="43.578914339785506" lon="12.47762043512456"><ele>402.0</ele><time>2026-04-26T09:29:46Z</time></trkpt><trkpt lat="43.57885361018591" lon="12.477776954708448"><ele>402.0</ele><time>2026-04-26T09:29:47Z</time></trkpt><trkpt lat="43.57880518724595" lon="12.477932780078596"><ele>402.0</ele><time>2026-04-26T09:29:48Z</time></trkpt><trkpt lat="43.57877682890716" lon="12.478085915877614"><ele>402.0</ele><time>2026-04-26T09:29:49Z</time></trkpt><trkpt lat="43.578764720057336" lon="12.478240781331998"><ele>402.0</ele><time>2026-04-26T09:29:50Z</time></trkpt><trkpt lat="43.57877094158634" lon="12.478403726332948"><ele>402.25</ele><time>2026-04-26T09:29:51Z</time></trkpt><trkpt lat="43.57879565265748" lon="12.47856582429711"><ele>402.5</ele><time>2026-04-26T09:29:52Z</time></trkpt><trkpt lat="43.57883668805998" lon="12.47871429270625"><ele>402.75</ele><time>2026-04-26T09:29:53Z</time></trkpt><trkpt lat="43.57888469573122" lon="12.478864939531007"><ele>403.0</ele><time>2026-04-26T09:29:54Z</time></trkpt><trkpt lat="43.57893186882929" lon="12.479012032063377"><ele>399.5</ele><time>2026-04-26T09:29:55Z</time></trkpt><trkpt lat="43.578972114840965" lon="12.47916603534801"><ele>396.0</ele><time>2026-04-26T09:29:56Z</time></trkpt><trkpt lat="43.579005218093386" lon="12.47932789501336"><ele>392.5</ele><time>2026-04-26T09:29:57Z</time></trkpt><trkpt lat="43.579026966703424" lon="12.47948731106337"><ele>389.0</ele><time>2026-04-26T09:29:58Z</time></trkpt><trkpt lat="43.579031449923" lon="12.479654422564739"><ele>386.5</ele><time>2026-04-26T09:29:59Z</time></trkpt><trkpt lat="43.57902679004856" lon="12.47982880129739"><ele>384.0</ele><time>2026-04-26T09:30:00Z</time></trkpt><trkpt lat="43.579012063459516" lon="12.480006060482317"><ele>381.5</ele><time>2026-04-26T09:30:01Z</time></trkpt><trkpt lat="43.57898641468691" lon="12.480167537253621"><ele>379.0</ele><time>2026-04-26T09:30:02Z</time></trkpt><trkpt lat="43.578948137869034" lon="12.48031393816794"><ele>379.0</ele><time>2026-04-26T09:30:03Z</time></trkpt><trkpt lat="43.578902145535125" lon="12.480449992795826"><ele>379.0</ele><time>2026-04-26T09:30:04Z</time></trkpt><trkpt lat="43.578850729969055" lon="12.480594364085691"><ele>379.0</ele><time>2026-04-26T09:30:05Z</time></trkpt><trkpt lat="43.578800585227505" lon="12.48074200116361"><ele>379.0</ele><time>2026-04-26T09:30:06Z</time></trkpt><trkpt lat="43.57876121283707" lon="12.48089196727409"><ele>379.0</ele><time>2026-04-26T09:30:07Z</time></trkpt><trkpt lat="43.578746720620906" lon="12.481049798753533"><ele>379.0</ele><time>2026-04-26T09:30:08Z</time></trkpt><trkpt lat="43.57874876546284" lon="12.481188423291327"><ele>379.0</ele><time>2026-04-26T09:30:09Z</time></trkpt><trkpt lat="43.578767436506176" lon="12.481362585265368"><ele>379.0</ele><time>2026-04-26T09:30:10Z</time></trkpt><trkpt lat="43.578798968432174" lon="12.481529201766577"><ele>379.79999999999995</ele><time>2026-04-26T09:30:11Z</time></trkpt><trkpt lat="43.57882778906694" lon="12.481682058905488"><ele>380.59999999999997</ele><time>2026-04-26T09:30:12Z</time></trkpt><trkpt lat="43.57884870997623" lon="12.48179440009309"><ele>381.4</ele><time>2026-04-26T09:30:13Z</time></trkpt><trkpt lat="43.578866494988766" lon="12.481917216001317"><ele>382.2</ele><time>2026-04-26T09:30:14Z</time></trkpt><trkpt lat="43.57888074970463" lon="12.482113583145411"><ele>383.0</ele><time>2026-04-26T09:30:15Z</time></trkpt><trkpt lat="43.5788489864433" lon="12.482289779967884"><ele>382.5</ele><time>2026-04-26T09:30:16Z</time></trkpt><trkpt lat="43.57879210719429" lon="12.482423204895206"><ele>382.0</ele><time>2026-04-26T09:30:17Z</time></trkpt><trkpt lat="43.5787330481542" lon="12.482561185038662"><ele>381.5</ele><time>2026-04-26T09:30:18Z</time></trkpt><trkpt lat="43.57864243487666" lon="12.482667925876573"><ele>381.0</ele><time>2026-04-26T09:30:19Z</time></trkpt><trkpt lat="43.57853967691983" lon="12.48275891643762"><ele>381.0</ele><time>2026-04-26T09:30:20Z</time></trkpt><trkpt lat="43.57843657289683" lon="12.48282897242565"><ele>381.0</ele><time>2026-04-26T09:30:21Z</time></trkpt><trkpt lat="43.57832720883811" lon="12.482841443162057"><ele>381.0</ele><time>2026-04-26T09:30:22Z</time></trkpt><trkpt lat="43.57821142965626" lon="12.482858187541368"><ele>381.0</ele><time>2026-04-26T09:30:23Z</time></trkpt><trkpt lat="43.57810899010305" lon="12.482845988953907"><ele>381.0</ele><time>2026-04-26T09:30:24Z</time></trkpt><trkpt lat="43.57801156125332" lon="12.482846739755988"><ele>381.0</ele><time>2026-04-26T09:30:25Z</time></trkpt><trkpt lat="43.57790970586849" lon="12.482860671120537"><ele>381.0</ele><time>2026-04-26T09:30:26Z</time></trkpt><trkpt lat="43.57782121579931" lon="12.482929430700052"><ele>381.0</ele><time>2026-04-26T09:30:27Z</time></trkpt><trkpt lat="43.577745934114176" lon="12.483026222116656"><ele>381.0</ele><time>2026-04-26T09:30:28Z</time></trkpt><trkpt lat="43.577683955924364" lon="12.483139189192649"><ele>381.0</ele><time>2026-04-26T09:30:29Z</time></trkpt><trkpt lat="43.57764229059019" lon="12.483283779108007"><ele>384.75</ele><time>2026-04-26T09:30:30Z</time></trkpt><trkpt lat="43.57762787824587" lon="12.483437083316034"><ele>388.5</ele><time>2026-04-26T09:30:31Z</time></trkpt><trkpt lat="43.577642016206596" lon="12.483605416673909"><ele>392.25</ele><time>2026-04-26T09:30:32Z</time></trkpt><trkpt lat="43.577691983229215" lon="12.483776196970005"><ele>396.0</ele><time>2026-04-26T09:30:33Z</time></trkpt><trkpt lat="43.5777433585528" lon="12.483920789671505"><ele>396.0</ele><time>2026-04-26T09:30:34Z</time></trkpt><trkpt lat="43.57780323864876" lon="12.484072211757509"><ele>396.0</ele><time>2026-04-26T09:30:35Z</time></trkpt><trkpt lat="43.57786346056271" lon="12.48421113741478"><ele>396.0</ele><time>2026-04-26T09:30:36Z</time></trkpt><trkpt lat="43.57792926972123" lon="12.484348659603135"><ele>396.0</ele><time>2026-04-26T09:30:37Z</time></trkpt><trkpt lat="43.57800280502754" lon="12.484487870465436"><ele>390.6666666666667</ele><time>2026-04-26T09:30:38Z</time></trkpt><trkpt lat="43.578095334480665" lon="12.48461185608053"><ele>385.33333333333337</ele><time>2026-04-26T09:30:39Z</time></trkpt><trkpt lat="43.578182878245606" lon="12.484777765354538"><ele>380.0</ele><time>2026-04-26T09:30:40Z</time></trkpt><trkpt lat="43.57830396399225" lon="12.48495905666522"><ele>380.0</ele><time>2026-04-26T09:30:41Z</time></trkpt><trkpt lat="43.57842642598991" lon="12.48513483801764"><ele>380.0</ele><time>2026-04-26T09:30:42Z</time></trkpt><trkpt lat="43.57854634095311" lon="12.485296354061981"><ele>380.0</ele><time>2026-04-26T09:30:43Z</time></trkpt><trkpt lat="43.57865949786388" lon="12.485439079748934"><ele>381.5</ele><time>2026-04-26T09:30:44Z</time></trkpt><trkpt lat="43.578781245685455" lon="12.485580582236853"><ele>383.0</ele><time>2026-04-26T09:30:45Z</time></trkpt><trkpt lat="43.57889614890445" lon="12.48570408140646"><ele>384.5</ele><time>2026-04-26T09:30:46Z</time></trkpt><trkpt lat="43.57901187364278" lon="12.485820939384272"><ele>386.0</ele><time>2026-04-26T09:30:47Z</time></trkpt><trkpt lat="43.579142345324705" lon="12.485916974237673"><ele>386.0</ele><time>2026-04-26T09:30:48Z</time></trkpt><trkpt lat="43.579266071120266" lon="12.486023854619853"><ele>386.0</ele><time>2026-04-26T09:30:49Z</time></trkpt><trkpt lat="43.57940101560329" lon="12.48613299633059"><ele>386.0</ele><time>2026-04-26T09:30:50Z</time></trkpt><trkpt lat="43.57952631485407" lon="12.486254224022332"><ele>383.66666666666663</ele><time>2026-04-26T09:30:51Z</time></trkpt><trkpt lat="43.5796678457252" lon="12.486351820995516"><ele>381.3333333333333</ele><time>2026-04-26T09:30:52Z</time></trkpt><trkpt lat="43.57981317720911" lon="12.486438853800966"><ele>379.0</ele><time>2026-04-26T09:30:53Z</time></trkpt><trkpt lat="43.57996655211773" lon="12.486515157688935"><ele>379.0</ele><time>2026-04-26T09:30:54Z</time></trkpt><trkpt lat="43.58010226828863" lon="12.486574944582781"><ele>379.0</ele><time>2026-04-26T09:30:55Z</time></trkpt><trkpt lat="43.58023596637942" lon="12.486632925021286"><ele>379.0</ele><time>2026-04-26T09:30:56Z</time></trkpt><trkpt lat="43.58037193409758" lon="12.486691889724476"><ele>379.0</ele><time>2026-04-26T09:30:57Z</time></trkpt><trkpt lat="43.580507891463654" lon="12.486749679423083"><ele>381.25</ele><time>2026-04-26T09:30:58Z</time></trkpt><trkpt lat="43.58064608973541" lon="12.486805694701067"><ele>383.5</ele><time>2026-04-26T09:30:59Z</time></trkpt><trkpt lat="43.58078119882507" lon="12.486858681349313"><ele>385.75</ele><time>2026-04-26T09:31:00Z</time></trkpt><trkpt lat="43.58091725341649" lon="12.486900532343112"><ele>388.0</ele><time>2026-04-26T09:31:01Z</time></trkpt><trkpt lat="43.58106013812939" lon="12.48692005970367"><ele>386.5</ele><time>2026-04-26T09:31:02Z</time></trkpt><trkpt lat="43.581200110833514" lon="12.486908484041631"><ele>385.0</ele><time>2026-04-26T09:31:03Z</time></trkpt><trkpt lat="43.581328681641274" lon="12.486884362923965"><ele>383.5</ele><time>2026-04-26T09:31:04Z</time></trkpt><trkpt lat="43.58144345995038" lon="12.486848391903507"><ele>382.0</ele><time>2026-04-26T09:31:05Z</time></trkpt><trkpt lat="43.581559079896955" lon="12.486803727622291"><ele>382.0</ele><time>2026-04-26T09:31:06Z</time></trkpt><trkpt lat="43.581676121649636" lon="12.486725004994067"><ele>382.0</ele><time>2026-04-26T09:31:07Z</time></trkpt><trkpt lat="43.581802751097875" lon="12.486684862522909"><ele>382.0</ele><time>2026-04-26T09:31:08Z</time></trkpt><trkpt lat="43.58192510541604" lon="12.486656270874855"><ele>382.0</ele><time>2026-04-26T09:31:09Z</time></trkpt><trkpt lat="43.582046709241794" lon="12.486639177087092"><ele>378.75</ele><time>2026-04-26T09:31:10Z</time></trkpt><trkpt lat="43.58216888694525" lon="12.486641842836113"><ele>375.5</ele><time>2026-04-26T09:31:11Z</time></trkpt><trkpt lat="43.58228843637462" lon="12.48665215147684"><ele>372.25</ele><time>2026-04-26T09:31:12Z</time></trkpt><trkpt lat="43.58240134716246" lon="12.486703232478726"><ele>369.0</ele><time>2026-04-26T09:31:13Z</time></trkpt><trkpt lat="43.582516586339715" lon="12.486764533976688"><ele>369.0</ele><time>2026-04-26T09:31:14Z</time></trkpt><trkpt lat="43.58261952428467" lon="12.486843224132132"><ele>369.0</ele><time>2026-04-26T09:31:15Z</time></trkpt><trkpt lat="43.58271712847463" lon="12.48693985240649"><ele>369.0</ele><time>2026-04-26T09:31:16Z</time></trkpt><trkpt lat="43.5828047798878" lon="12.48704990272842"><ele>369.0</ele><time>2026-04-26T09:31:17Z</time></trkpt><trkpt lat="43.582889357574174" lon="12.487179704731593"><ele>367.5</ele><time>2026-04-26T09:31:18Z</time></trkpt><trkpt lat="43.582960674211925" lon="12.487324424496922"><ele>366.0</ele><time>2026-04-26T09:31:19Z</time></trkpt><trkpt lat="43.58301219301297" lon="12.487469385532526"><ele>364.5</ele><time>2026-04-26T09:31:20Z</time></trkpt><trkpt lat="43.58305513187351" lon="12.487629329001118"><ele>363.0</ele><time>2026-04-26T09:31:21Z</time></trkpt><trkpt lat="43.5830836470257" lon="12.487800723600845"><ele>362.0</ele><time>2026-04-26T09:31:22Z</time></trkpt><trkpt lat="43.583092235205044" lon="12.487998394222203"><ele>361.0</ele><time>2026-04-26T09:31:23Z</time></trkpt><trkpt lat="43.583087361907346" lon="12.488242216404853"><ele>360.0</ele><time>2026-04-26T09:31:24Z</time></trkpt><trkpt lat="43.583077107061996" lon="12.488478211784132"><ele>359.6666666666667</ele><time>2026-04-26T09:31:25Z</time></trkpt><trkpt lat="43.583062345559036" lon="12.488774731268732"><ele>359.33333333333337</ele><time>2026-04-26T09:31:26Z</time></trkpt><trkpt lat="43.583048098417564" lon="12.489049524401542"><ele>359.0</ele><time>2026-04-26T09:31:27Z</time></trkpt><trkpt lat="43.583033114744005" lon="12.489343477342508"><ele>357.6666666666667</ele><time>2026-04-26T09:31:28Z</time></trkpt><trkpt lat="43.583018494467424" lon="12.489655985745943"><ele>356.3333333333333</ele><time>2026-04-26T09:31:29Z</time></trkpt><trkpt lat="43.58300490198863" lon="12.489957772685456"><ele>355.0</ele><time>2026-04-26T09:31:30Z</time></trkpt><trkpt lat="43.583006082684975" lon="12.490274643413152"><ele>355.5</ele><time>2026-04-26T09:31:31Z</time></trkpt><trkpt lat="43.58298422396796" lon="12.490593652823712"><ele>356.0</ele><time>2026-04-26T09:31:32Z</time></trkpt><trkpt lat="43.582969815307216" lon="12.490907589302257"><ele>356.0</ele><time>2026-04-26T09:31:33Z</time></trkpt><trkpt lat="43.582964782960005" lon="12.49122063862091"><ele>356.0</ele><time>2026-04-26T09:31:34Z</time></trkpt><trkpt lat="43.58294759695476" lon="12.491520761305623"><ele>356.0</ele><time>2026-04-26T09:31:35Z</time></trkpt><trkpt lat="43.582907362857355" lon="12.491822145656473"><ele>359.6666666666667</ele><time>2026-04-26T09:31:36Z</time></trkpt><trkpt lat="43.58283652870722" lon="12.492114168762875"><ele>363.3333333333333</ele><time>2026-04-26T09:31:37Z</time></trkpt><trkpt lat="43.58274569127435" lon="12.492388354882907"><ele>367.0</ele><time>2026-04-26T09:31:38Z</time></trkpt><trkpt lat="43.58262134913275" lon="12.492637950362113"><ele>367.0</ele><time>2026-04-26T09:31:39Z</time></trkpt><trkpt lat="43.58245806937107" lon="12.492872989164319"><ele>367.0</ele><time>2026-04-26T09:31:40Z</time></trkpt><trkpt lat="43.58229612651338" lon="12.493110141102992"><ele>361.5</ele><time>2026-04-26T09:31:41Z</time></trkpt><trkpt lat="43.58213385243282" lon="12.493340566667953"><ele>356.0</ele><time>2026-04-26T09:31:42Z</time></trkpt><trkpt lat="43.58197431239708" lon="12.493555271870175"><ele>358.0</ele><time>2026-04-26T09:31:43Z</time></trkpt><trkpt lat="43.581803420515165" lon="12.493746936851963"><ele>360.0</ele><time>2026-04-26T09:31:44Z</time></trkpt><trkpt lat="43.58160295298814" lon="12.493881656274658"><ele>362.0</ele><time>2026-04-26T09:31:45Z</time></trkpt><trkpt lat="43.58139269934659" lon="12.49398610922852"><ele>360.6666666666667</ele><time>2026-04-26T09:31:46Z</time></trkpt><trkpt lat="43.58118099285737" lon="12.49408073147463"><ele>359.3333333333333</ele><time>2026-04-26T09:31:47Z</time></trkpt><trkpt lat="43.580973773123446" lon="12.494160835274917"><ele>358.0</ele><time>2026-04-26T09:31:48Z</time></trkpt><trkpt lat="43.58078703846428" lon="12.494260268735028"><ele>358.0</ele><time>2026-04-26T09:31:49Z</time></trkpt><trkpt lat="43.58061168574733" lon="12.494349055746607"><ele>358.0</ele><time>2026-04-26T09:31:50Z</time></trkpt><trkpt lat="43.58045841110067" lon="12.494427766909665"><ele>358.0</ele><time>2026-04-26T09:31:51Z</time></trkpt><trkpt lat="43.58030591757033" lon="12.4945480122592"><ele>362.0</ele><time>2026-04-26T09:31:52Z</time></trkpt><trkpt lat="43.580140942084945" lon="12.494742174528643"><ele>366.0</ele><time>2026-04-26T09:31:53Z</time></trkpt><trkpt lat="43.5799969991789" lon="12.495012059547026"><ele>366.0</ele><time>2026-04-26T09:31:54Z</time></trkpt><trkpt lat="43.579883195080306" lon="12.495263406109336"><ele>366.0</ele><time>2026-04-26T09:31:55Z</time></trkpt><trkpt lat="43.579772719695555" lon="12.49551957185657"><ele>366.0</ele><time>2026-04-26T09:31:56Z</time></trkpt><trkpt lat="43.57968139312475" lon="12.49574302334489"><ele>373.33333333333337</ele><time>2026-04-26T09:31:57Z</time></trkpt><trkpt lat="43.57960439948651" lon="12.496000924867785"><ele>380.6666666666667</ele><time>2026-04-26T09:31:58Z</time></trkpt><trkpt lat="43.579546423690275" lon="12.496273041604072"><ele>388.0</ele><time>2026-04-26T09:31:59Z</time></trkpt><trkpt lat="43.57953397774441" lon="12.496547140515325"><ele>388.33333333333337</ele><time>2026-04-26T09:32:00Z</time></trkpt><trkpt lat="43.579562704790526" lon="12.496818302970313"><ele>388.66666666666663</ele><time>2026-04-26T09:32:01Z</time></trkpt><trkpt lat="43.57963537945779" lon="12.49707934260133"><ele>389.0</ele><time>2026-04-26T09:32:02Z</time></trkpt><trkpt lat="43.57973249341812" lon="12.497324245706817"><ele>381.3333333333333</ele><time>2026-04-26T09:32:03Z</time></trkpt><trkpt lat="43.57987324041356" lon="12.49754220068639"><ele>373.66666666666663</ele><time>2026-04-26T09:32:04Z</time></trkpt><trkpt lat="43.58004951381559" lon="12.497719797170525"><ele>366.0</ele><time>2026-04-26T09:32:05Z</time></trkpt><trkpt lat="43.580243182181036" lon="12.497853922063955"><ele>362.0</ele><time>2026-04-26T09:32:06Z</time></trkpt><trkpt lat="43.58045634592475" lon="12.49793820389144"><ele>358.0</ele><time>2026-04-26T09:32:07Z</time></trkpt><trkpt lat="43.580679666089445" lon="12.498025736278754"><ele>358.0</ele><time>2026-04-26T09:32:08Z</time></trkpt><trkpt lat="43.580905907726184" lon="12.498073017240051"><ele>358.0</ele><time>2026-04-26T09:32:09Z</time></trkpt><trkpt lat="43.58112591881121" lon="12.498166034516643"><ele>357.5</ele><time>2026-04-26T09:32:10Z</time></trkpt><trkpt lat="43.58134696605507" lon="12.498238414506792"><ele>357.0</ele><time>2026-04-26T09:32:11Z</time></trkpt><trkpt lat="43.58156814648685" lon="12.498303269415201"><ele>357.0</ele><time>2026-04-26T09:32:12Z</time></trkpt><trkpt lat="43.58179642047353" lon="12.498353654402578"><ele>357.0</ele><time>2026-04-26T09:32:13Z</time></trkpt><trkpt lat="43.58202423958113" lon="12.498381192673332"><ele>356.5</ele><time>2026-04-26T09:32:14Z</time></trkpt><trkpt lat="43.582253799943864" lon="12.498390358813856"><ele>356.0</ele><time>2026-04-26T09:32:15Z</time></trkpt><trkpt lat="43.58248011825961" lon="12.49836958244455"><ele>356.0</ele><time>2026-04-26T09:32:16Z</time></trkpt><trkpt lat="43.58271338371166" lon="12.498364854943976"><ele>356.0</ele><time>2026-04-26T09:32:17Z</time></trkpt><trkpt lat="43.582949061767174" lon="12.498381363306425"><ele>355.0</ele><time>2026-04-26T09:32:18Z</time></trkpt><trkpt lat="43.583181126024506" lon="12.498358354646106"><ele>354.0</ele><time>2026-04-26T09:32:19Z</time></trkpt><trkpt lat="43.58341483702491" lon="12.49836341356398"><ele>354.0</ele><time>2026-04-26T09:32:20Z</time></trkpt><trkpt lat="43.58364607352544" lon="12.498376025112659"><ele>354.0</ele><time>2026-04-26T09:32:21Z</time></trkpt><trkpt lat="43.58387570195361" lon="12.498397483841151"><ele>353.6666666666667</ele><time>2026-04-26T09:32:22Z</time></trkpt><trkpt lat="43.58409548785779" lon="12.498431569885911"><ele>353.33333333333337</ele><time>2026-04-26T09:32:23Z</time></trkpt><trkpt lat="43.58431382404038" lon="12.498475988194773"><ele>353.0</ele><time>2026-04-26T09:32:24Z</time></trkpt><trkpt lat="43.584530062597786" lon="12.498529413237343"><ele>351.33333333333337</ele><time>2026-04-26T09:32:25Z</time></trkpt><trkpt lat="43.58474370234461" lon="12.498593366293772"><ele>349.6666666666667</ele><time>2026-04-26T09:32:26Z</time></trkpt><trkpt lat="43.58495687376263" lon="12.498664844393511"><ele>348.0</ele><time>2026-04-26T09:32:27Z</time></trkpt><trkpt lat="43.58516628196283" lon="12.498764423459475"><ele>352.0</ele><time>2026-04-26T09:32:28Z</time></trkpt><trkpt lat="43.58537979108034" lon="12.49884894809762"><ele>356.0</ele><time>2026-04-26T09:32:29Z</time></trkpt><trkpt lat="43.585577499294395" lon="12.498933185019443"><ele>360.0</ele><time>2026-04-26T09:32:30Z</time></trkpt><trkpt lat="43.58576106949384" lon="12.499038326859996"><ele>360.0</ele><time>2026-04-26T09:32:31Z</time></trkpt><trkpt lat="43.58592461389636" lon="12.49917898878474"><ele>360.0</ele><time>2026-04-26T09:32:32Z</time></trkpt><trkpt lat="43.58602832722518" lon="12.499396617361626"><ele>360.0</ele><time>2026-04-26T09:32:33Z</time></trkpt><trkpt lat="43.586134172461136" lon="12.499627986347608"><ele>357.0</ele><time>2026-04-26T09:32:34Z</time></trkpt><trkpt lat="43.586163428593956" lon="12.49991540895507"><ele>354.0</ele><time>2026-04-26T09:32:35Z</time></trkpt><trkpt lat="43.58617019569186" lon="12.50022991324696"><ele>351.0</ele><time>2026-04-26T09:32:36Z</time></trkpt><trkpt lat="43.58612610635391" lon="12.50056050602524"><ele>351.0</ele><time>2026-04-26T09:32:37Z</time></trkpt><trkpt lat="43.5860897725953" lon="12.500872301159518"><ele>351.0</ele><time>2026-04-26T09:32:38Z</time></trkpt><trkpt lat="43.586053164385746" lon="12.501209007336099"><ele>351.0</ele><time>2026-04-26T09:32:39Z</time></trkpt><trkpt lat="43.586015942000806" lon="12.501551362412615"><ele>351.0</ele><time>2026-04-26T09:32:40Z</time></trkpt><trkpt lat="43.58598033063022" lon="12.501880717729415"><ele>349.5</ele><time>2026-04-26T09:32:41Z</time></trkpt><trkpt lat="43.58594375138471" lon="12.502219358976776"><ele>348.0</ele><time>2026-04-26T09:32:42Z</time></trkpt><trkpt lat="43.58590627921818" lon="12.502566265846964"><ele>348.0</ele><time>2026-04-26T09:32:43Z</time></trkpt><trkpt lat="43.58586968713757" lon="12.50290502372406"><ele>348.0</ele><time>2026-04-26T09:32:44Z</time></trkpt><trkpt lat="43.58583331181698" lon="12.503241774919275"><ele>349.0</ele><time>2026-04-26T09:32:45Z</time></trkpt><trkpt lat="43.58581504644834" lon="12.503582992625299"><ele>350.0</ele><time>2026-04-26T09:32:46Z</time></trkpt><trkpt lat="43.585775720345566" lon="12.503923186965956"><ele>350.5</ele><time>2026-04-26T09:32:47Z</time></trkpt><trkpt lat="43.585743018390545" lon="12.50426044552034"><ele>351.0</ele><time>2026-04-26T09:32:48Z</time></trkpt><trkpt lat="43.58570770694423" lon="12.504572148806492"><ele>351.3333333333333</ele><time>2026-04-26T09:32:49Z</time></trkpt><trkpt lat="43.58566887364423" lon="12.504853600354327"><ele>351.66666666666663</ele><time>2026-04-26T09:32:50Z</time></trkpt><trkpt lat="43.585619348815726" lon="12.5051081608091"><ele>352.0</ele><time>2026-04-26T09:32:51Z</time></trkpt><trkpt lat="43.585554367955204" lon="12.505329457795403"><ele>352.5</ele><time>2026-04-26T09:32:52Z</time></trkpt><trkpt lat="43.58548855294081" lon="12.505529050289697"><ele>353.0</ele><time>2026-04-26T09:32:53Z</time></trkpt><trkpt lat="43.58543646846269" lon="12.50571339810045"><ele>353.5</ele><time>2026-04-26T09:32:54Z</time></trkpt><trkpt lat="43.5854050373327" lon="12.505895199951025"><ele>354.0</ele><time>2026-04-26T09:32:55Z</time></trkpt><trkpt lat="43.58539211960619" lon="12.506071266888839"><ele>354.0</ele><time>2026-04-26T09:32:56Z</time></trkpt><trkpt lat="43.58539141444699" lon="12.50623756019993"><ele>354.0</ele><time>2026-04-26T09:32:57Z</time></trkpt><trkpt lat="43.58540283347777" lon="12.506401073704685"><ele>354.0</ele><time>2026-04-26T09:32:58Z</time></trkpt><trkpt lat="43.5854276972506" lon="12.506571438301528"><ele>354.0</ele><time>2026-04-26T09:32:59Z</time></trkpt><trkpt lat="43.585473157365044" lon="12.506746007205088"><ele>353.25</ele><time>2026-04-26T09:33:00Z</time></trkpt><trkpt lat="43.58554150148574" lon="12.506920121598666"><ele>352.5</ele><time>2026-04-26T09:33:01Z</time></trkpt><trkpt lat="43.585633481733716" lon="12.507087268205929"><ele>351.75</ele><time>2026-04-26T09:33:02Z</time></trkpt><trkpt lat="43.58573597334435" lon="12.507244004398297"><ele>351.0</ele><time>2026-04-26T09:33:03Z</time></trkpt><trkpt lat="43.58584723848446" lon="12.507373294437986"><ele>349.75</ele><time>2026-04-26T09:33:04Z</time></trkpt><trkpt lat="43.58597533691756" lon="12.507478873677396"><ele>348.5</ele><time>2026-04-26T09:33:05Z</time></trkpt><trkpt lat="43.58611101767805" lon="12.507558069293099"><ele>347.25</ele><time>2026-04-26T09:33:06Z</time></trkpt><trkpt lat="43.586236786865456" lon="12.507642227322831"><ele>346.0</ele><time>2026-04-26T09:33:07Z</time></trkpt><trkpt lat="43.58636213681224" lon="12.507708459668171"><ele>346.0</ele><time>2026-04-26T09:33:08Z</time></trkpt><trkpt lat="43.586481733913885" lon="12.507769918850196"><ele>346.0</ele><time>2026-04-26T09:33:09Z</time></trkpt><trkpt lat="43.5865909960636" lon="12.507831115295089"><ele>346.0</ele><time>2026-04-26T09:33:10Z</time></trkpt><trkpt lat="43.58668845202975" lon="12.507891391014358"><ele>346.0</ele><time>2026-04-26T09:33:11Z</time></trkpt><trkpt lat="43.586770606381506" lon="12.507938113556527"><ele>346.0</ele><time>2026-04-26T09:33:12Z</time></trkpt><trkpt lat="43.58684185442965" lon="12.507975171623078"><ele>345.16666666666663</ele><time>2026-04-26T09:33:13Z</time></trkpt><trkpt lat="43.58690616541794" lon="12.508007651425329"><ele>344.3333333333333</ele><time>2026-04-26T09:33:14Z</time></trkpt><trkpt lat="43.58697415538631" lon="12.508041441322948"><ele>343.5</ele><time>2026-04-26T09:33:15Z</time></trkpt><trkpt lat="43.587054193985864" lon="12.508079574968564"><ele>342.6666666666667</ele><time>2026-04-26T09:33:16Z</time></trkpt><trkpt lat="43.58712880206521" lon="12.508136887394242"><ele>341.83333333333337</ele><time>2026-04-26T09:33:17Z</time></trkpt><trkpt lat="43.58720027068363" lon="12.508185497746252"><ele>341.0</ele><time>2026-04-26T09:33:18Z</time></trkpt><trkpt lat="43.58726828226047" lon="12.50822862262502"><ele>341.0</ele><time>2026-04-26T09:33:19Z</time></trkpt><trkpt lat="43.587336572550505" lon="12.508272829525353"><ele>341.0</ele><time>2026-04-26T09:33:20Z</time></trkpt><trkpt lat="43.58740823391371" lon="12.508317556087606"><ele>341.0</ele><time>2026-04-26T09:33:21Z</time></trkpt><trkpt lat="43.587479209238" lon="12.508365643595178"><ele>341.0</ele><time>2026-04-26T09:33:22Z</time></trkpt><trkpt lat="43.587563493196704" lon="12.508413371450967"><ele>341.0</ele><time>2026-04-26T09:33:23Z</time></trkpt><trkpt lat="43.587644285738186" lon="12.508474943028506"><ele>341.0</ele><time>2026-04-26T09:33:24Z</time></trkpt><trkpt lat="43.587741366350585" lon="12.508525192857794"><ele>341.0</ele><time>2026-04-26T09:33:25Z</time></trkpt><trkpt lat="43.58783303555141" lon="12.50858775430097"><ele>341.0</ele><time>2026-04-26T09:33:26Z</time></trkpt><trkpt lat="43.58792189956312" lon="12.50864061406132"><ele>341.0</ele><time>2026-04-26T09:33:27Z</time></trkpt><trkpt lat="43.58800175538488" lon="12.508690251571164"><ele>341.0</ele><time>2026-04-26T09:33:28Z</time></trkpt><trkpt lat="43.588091274699444" lon="12.50875016324839"><ele>341.0</ele><time>2026-04-26T09:33:29Z</time></trkpt><trkpt lat="43.58818247380209" lon="12.508781953839032"><ele>340.4</ele><time>2026-04-26T09:33:30Z</time></trkpt><trkpt lat="43.588266380676984" lon="12.508833730588455"><ele>339.8</ele><time>2026-04-26T09:33:31Z</time></trkpt><trkpt lat="43.58835107217527" lon="12.508886652513283"><ele>339.2</ele><time>2026-04-26T09:33:32Z</time></trkpt><trkpt lat="43.58843413875036" lon="12.508940642885312"><ele>338.59999999999997</ele><time>2026-04-26T09:33:33Z</time></trkpt><trkpt lat="43.58852441022241" lon="12.50899102594812"><ele>338.0</ele><time>2026-04-26T09:33:34Z</time></trkpt><trkpt lat="43.58860037737084" lon="12.509036019120021"><ele>338.1666666666667</ele><time>2026-04-26T09:33:35Z</time></trkpt><trkpt lat="43.58868013907802" lon="12.50908049634584"><ele>338.33333333333337</ele><time>2026-04-26T09:33:36Z</time></trkpt><trkpt lat="43.58875007447163" lon="12.509126530980744"><ele>338.5</ele><time>2026-04-26T09:33:37Z</time></trkpt><trkpt lat="43.58883234393934" lon="12.509137179164181"><ele>338.6666666666667</ele><time>2026-04-26T09:33:38Z</time></trkpt><trkpt lat="43.58888253493567" lon="12.50921191101228"><ele>338.8333333333333</ele><time>2026-04-26T09:33:39Z</time></trkpt><trkpt lat="43.58894133026157" lon="12.509243641573178"><ele>339.0</ele><time>2026-04-26T09:33:40Z</time></trkpt><trkpt lat="43.589043768682146" lon="12.509320370725614"><ele>339.0</ele><time>2026-04-26T09:33:42Z</time></trkpt><trkpt lat="43.58918246389878" lon="12.50935630675629"><ele>339.0</ele><time>2026-04-26T09:33:44Z</time></trkpt><trkpt lat="43.58926526459802" lon="12.509429532552897"><ele>339.0</ele><time>2026-04-26T09:33:45Z</time></trkpt><trkpt lat="43.5893294619501" lon="12.509511041506698"><ele>339.0</ele><time>2026-04-26T09:33:46Z</time></trkpt><trkpt lat="43.5893584091881" lon="12.509607609092386"><ele>339.0</ele><time>2026-04-26T09:33:47Z</time></trkpt><trkpt lat="43.58935329207202" lon="12.509720009850854"><ele>338.2</ele><time>2026-04-26T09:33:48Z</time></trkpt><trkpt lat="43.58931542390603" lon="12.509835676203734"><ele>337.4</ele><time>2026-04-26T09:33:49Z</time></trkpt><trkpt lat="43.589264217779224" lon="12.509938392634986"><ele>336.6</ele><time>2026-04-26T09:33:50Z</time></trkpt><trkpt lat="43.58921579086941" lon="12.510057928100174"><ele>335.8</ele><time>2026-04-26T09:33:51Z</time></trkpt><trkpt lat="43.589154879973805" lon="12.51018116319593"><ele>335.0</ele><time>2026-04-26T09:33:52Z</time></trkpt><trkpt lat="43.58909168001926" lon="12.51031549880559"><ele>335.2</ele><time>2026-04-26T09:33:53Z</time></trkpt><trkpt lat="43.58902540550143" lon="12.510447684929915"><ele>335.4</ele><time>2026-04-26T09:33:54Z</time></trkpt><trkpt lat="43.58896022327763" lon="12.510574591643563"><ele>335.6</ele><time>2026-04-26T09:33:55Z</time></trkpt><trkpt lat="43.588897167976974" lon="12.510700631091032"><ele>335.8</ele><time>2026-04-26T09:33:56Z</time></trkpt><trkpt lat="43.58882608059181" lon="12.510813583720289"><ele>336.0</ele><time>2026-04-26T09:33:57Z</time></trkpt><trkpt lat="43.5887505932797" lon="12.510914236186741"><ele>336.75</ele><time>2026-04-26T09:33:58Z</time></trkpt><trkpt lat="43.588660042406744" lon="12.511012317400855"><ele>337.5</ele><time>2026-04-26T09:33:59Z</time></trkpt><trkpt lat="43.5885600295333" lon="12.511105529029198"><ele>338.25</ele><time>2026-04-26T09:34:00Z</time></trkpt><trkpt lat="43.5884706132841" lon="12.511210162859117"><ele>339.0</ele><time>2026-04-26T09:34:01Z</time></trkpt><trkpt lat="43.588365875865755" lon="12.511308746698353"><ele>339.5</ele><time>2026-04-26T09:34:02Z</time></trkpt><trkpt lat="43.58826200974663" lon="12.511404287025046"><ele>340.0</ele><time>2026-04-26T09:34:03Z</time></trkpt><trkpt lat="43.58815900065022" lon="12.511501297605458"><ele>340.5</ele><time>2026-04-26T09:34:04Z</time></trkpt><trkpt lat="43.588057609095294" lon="12.511597891915066"><ele>341.0</ele><time>2026-04-26T09:34:05Z</time></trkpt><trkpt lat="43.58796547127629" lon="12.511688560776859"><ele>341.0</ele><time>2026-04-26T09:34:06Z</time></trkpt><trkpt lat="43.587868959946945" lon="12.511776743063203"><ele>341.0</ele><time>2026-04-26T09:34:07Z</time></trkpt><trkpt lat="43.58777656364644" lon="12.511862805079748"><ele>341.0</ele><time>2026-04-26T09:34:08Z</time></trkpt><trkpt lat="43.587686327019796" lon="12.511945586866142"><ele>341.0</ele><time>2026-04-26T09:34:09Z</time></trkpt><trkpt lat="43.58759763512421" lon="12.51203511579843"><ele>341.0</ele><time>2026-04-26T09:34:10Z</time></trkpt><trkpt lat="43.58750639087335" lon="12.512116338291145"><ele>341.4</ele><time>2026-04-26T09:34:11Z</time></trkpt><trkpt lat="43.58741694718083" lon="12.512200533042568"><ele>341.8</ele><time>2026-04-26T09:34:12Z</time></trkpt><trkpt lat="43.58733282465233" lon="12.512299029662476"><ele>342.2</ele><time>2026-04-26T09:34:13Z</time></trkpt><trkpt lat="43.58725960534624" lon="12.512376427849457"><ele>342.59999999999997</ele><time>2026-04-26T09:34:14Z</time></trkpt><trkpt lat="43.587188393625816" lon="12.512444115736244"><ele>343.0</ele><time>2026-04-26T09:34:15Z</time></trkpt><trkpt lat="43.58711386241104" lon="12.512512822343584"><ele>343.0</ele><time>2026-04-26T09:34:16Z</time></trkpt><trkpt lat="43.587051488661906" lon="12.512571724468993"><ele>343.0</ele><time>2026-04-26T09:34:17Z</time></trkpt><trkpt lat="43.5869949121662" lon="12.512628233779909"><ele>343.0</ele><time>2026-04-26T09:34:18Z</time></trkpt><trkpt lat="43.58692396596148" lon="12.512706173230258"><ele>343.0</ele><time>2026-04-26T09:34:19Z</time></trkpt><trkpt lat="43.5868436873505" lon="12.512800459315123"><ele>343.0</ele><time>2026-04-26T09:34:20Z</time></trkpt><trkpt lat="43.58674744093765" lon="12.512902484321282"><ele>342.5</ele><time>2026-04-26T09:34:21Z</time></trkpt><trkpt lat="43.58664547991991" lon="12.513007033705955"><ele>342.0</ele><time>2026-04-26T09:34:22Z</time></trkpt><trkpt lat="43.58653660095067" lon="12.513115985139262"><ele>341.5</ele><time>2026-04-26T09:34:23Z</time></trkpt><trkpt lat="43.586426088488366" lon="12.513225694857484"><ele>341.0</ele><time>2026-04-26T09:34:24Z</time></trkpt><trkpt lat="43.58631025921853" lon="12.513336862221413"><ele>341.0</ele><time>2026-04-26T09:34:25Z</time></trkpt><trkpt lat="43.586195713080635" lon="12.513450006020125"><ele>341.0</ele><time>2026-04-26T09:34:26Z</time></trkpt><trkpt lat="43.586091959647" lon="12.513553303465864"><ele>341.0</ele><time>2026-04-26T09:34:27Z</time></trkpt><trkpt lat="43.58599648484333" lon="12.513644897292485"><ele>341.0</ele><time>2026-04-26T09:34:28Z</time></trkpt><trkpt lat="43.58590569371381" lon="12.513734859153944"><ele>342.0</ele><time>2026-04-26T09:34:29Z</time></trkpt><trkpt lat="43.585819467882374" lon="12.513827107703635"><ele>343.0</ele><time>2026-04-26T09:34:30Z</time></trkpt><trkpt lat="43.58572742053031" lon="12.513927587713864"><ele>344.0</ele><time>2026-04-26T09:34:31Z</time></trkpt><trkpt lat="43.5856315045827" lon="12.51402731176954"><ele>345.0</ele><time>2026-04-26T09:34:32Z</time></trkpt><trkpt lat="43.585531870147186" lon="12.514134893771327"><ele>345.0</ele><time>2026-04-26T09:34:33Z</time></trkpt><trkpt lat="43.58543203729432" lon="12.514265093783882"><ele>345.0</ele><time>2026-04-26T09:34:34Z</time></trkpt><trkpt lat="43.58533448225376" lon="12.514434358018447"><ele>345.0</ele><time>2026-04-26T09:34:35Z</time></trkpt><trkpt lat="43.58523918728714" lon="12.514615586833992"><ele>346.3333333333333</ele><time>2026-04-26T09:34:36Z</time></trkpt><trkpt lat="43.58515787772515" lon="12.514818472467395"><ele>347.66666666666663</ele><time>2026-04-26T09:34:37Z</time></trkpt><trkpt lat="43.58507550589665" lon="12.515006830379399"><ele>349.0</ele><time>2026-04-26T09:34:38Z</time></trkpt><trkpt lat="43.585026242502416" lon="12.515223499031443"><ele>346.3333333333333</ele><time>2026-04-26T09:34:39Z</time></trkpt><trkpt lat="43.58498621304512" lon="12.515458907725955"><ele>343.6666666666667</ele><time>2026-04-26T09:34:40Z</time></trkpt><trkpt lat="43.58496620457623" lon="12.515696013884517"><ele>341.0</ele><time>2026-04-26T09:34:41Z</time></trkpt><trkpt lat="43.584963049850984" lon="12.5159310334745"><ele>341.0</ele><time>2026-04-26T09:34:42Z</time></trkpt><trkpt lat="43.58496432838536" lon="12.516171624678027"><ele>341.0</ele><time>2026-04-26T09:34:43Z</time></trkpt><trkpt lat="43.584969144330096" lon="12.516416104559989"><ele>341.0</ele><time>2026-04-26T09:34:44Z</time></trkpt><trkpt lat="43.58497339575846" lon="12.516663500821975"><ele>342.33333333333337</ele><time>2026-04-26T09:34:45Z</time></trkpt><trkpt lat="43.58497378027916" lon="12.516905938952526"><ele>343.6666666666667</ele><time>2026-04-26T09:34:46Z</time></trkpt><trkpt lat="43.58496765759139" lon="12.517148372789423"><ele>345.0</ele><time>2026-04-26T09:34:47Z</time></trkpt><trkpt lat="43.58495542145898" lon="12.517388138413951"><ele>345.6666666666667</ele><time>2026-04-26T09:34:48Z</time></trkpt><trkpt lat="43.584893094055" lon="12.517619725405789"><ele>346.33333333333337</ele><time>2026-04-26T09:34:49Z</time></trkpt><trkpt lat="43.584804941345496" lon="12.517845303165723"><ele>347.0</ele><time>2026-04-26T09:34:50Z</time></trkpt><trkpt lat="43.584720549540584" lon="12.518071046392274"><ele>344.0</ele><time>2026-04-26T09:34:51Z</time></trkpt><trkpt lat="43.58463227842962" lon="12.518300242497386"><ele>341.0</ele><time>2026-04-26T09:34:52Z</time></trkpt><trkpt lat="43.584549735653475" lon="12.518538824447488"><ele>338.0</ele><time>2026-04-26T09:34:53Z</time></trkpt><trkpt lat="43.5844547937757" lon="12.518789328762786"><ele>340.33333333333337</ele><time>2026-04-26T09:34:54Z</time></trkpt><trkpt lat="43.584369971806574" lon="12.519055611798594"><ele>342.6666666666667</ele><time>2026-04-26T09:34:55Z</time></trkpt><trkpt lat="43.58428630811905" lon="12.519327422393424"><ele>345.0</ele><time>2026-04-26T09:34:56Z</time></trkpt><trkpt lat="43.58420117515288" lon="12.519588177153537"><ele>345.0</ele><time>2026-04-26T09:34:57Z</time></trkpt><trkpt lat="43.584117790379985" lon="12.519848084312972"><ele>345.0</ele><time>2026-04-26T09:34:58Z</time></trkpt><trkpt lat="43.584054726529736" lon="12.520097178068823"><ele>345.0</ele><time>2026-04-26T09:34:59Z</time></trkpt><trkpt lat="43.58399358175459" lon="12.52036061574999"><ele>344.3333333333333</ele><time>2026-04-26T09:35:00Z</time></trkpt><trkpt lat="43.58397710275343" lon="12.520630837941779"><ele>343.66666666666663</ele><time>2026-04-26T09:35:01Z</time></trkpt><trkpt lat="43.58396183534187" lon="12.520901854456895"><ele>343.0</ele><time>2026-04-26T09:35:02Z</time></trkpt><trkpt lat="43.583947118741705" lon="12.52115437403177"><ele>342.66666666666663</ele><time>2026-04-26T09:35:03Z</time></trkpt><trkpt lat="43.583932914280034" lon="12.521398105793619"><ele>342.3333333333333</ele><time>2026-04-26T09:35:04Z</time></trkpt><trkpt lat="43.583919521710094" lon="12.521639158086915"><ele>342.0</ele><time>2026-04-26T09:35:05Z</time></trkpt><trkpt lat="43.5839129947364" lon="12.521888527248448"><ele>342.6666666666667</ele><time>2026-04-26T09:35:06Z</time></trkpt><trkpt lat="43.583956531194374" lon="12.522155118859038"><ele>343.33333333333337</ele><time>2026-04-26T09:35:07Z</time></trkpt><trkpt lat="43.5840189165326" lon="12.522416113130674"><ele>344.0</ele><time>2026-04-26T09:35:08Z</time></trkpt><trkpt lat="43.5840882543167" lon="12.522678121732222"><ele>346.33333333333337</ele><time>2026-04-26T09:35:09Z</time></trkpt><trkpt lat="43.58415741109808" lon="12.522951870058526"><ele>348.6666666666667</ele><time>2026-04-26T09:35:10Z</time></trkpt><trkpt lat="43.58422903866147" lon="12.52323293486318"><ele>351.0</ele><time>2026-04-26T09:35:11Z</time></trkpt><trkpt lat="43.584300586266856" lon="12.523512736378088"><ele>353.3333333333333</ele><time>2026-04-26T09:35:12Z</time></trkpt><trkpt lat="43.58437214408246" lon="12.52377762165877"><ele>355.66666666666663</ele><time>2026-04-26T09:35:13Z</time></trkpt><trkpt lat="43.584465161932414" lon="12.524019611793966"><ele>358.0</ele><time>2026-04-26T09:35:14Z</time></trkpt><trkpt lat="43.584592223621286" lon="12.524249045059562"><ele>353.3333333333333</ele><time>2026-04-26T09:35:15Z</time></trkpt><trkpt lat="43.58474081171331" lon="12.524449840163303"><ele>348.6666666666667</ele><time>2026-04-26T09:35:16Z</time></trkpt><trkpt lat="43.58489851581877" lon="12.524658231572527"><ele>344.0</ele><time>2026-04-26T09:35:17Z</time></trkpt><trkpt lat="43.585044926158766" lon="12.524851699302662"><ele>344.0</ele><time>2026-04-26T09:35:18Z</time></trkpt><trkpt lat="43.585186093331814" lon="12.525067050874803"><ele>344.0</ele><time>2026-04-26T09:35:19Z</time></trkpt><trkpt lat="43.585297014273905" lon="12.525307312785337"><ele>344.0</ele><time>2026-04-26T09:35:20Z</time></trkpt><trkpt lat="43.58538522907287" lon="12.525570529233434"><ele>339.33333333333337</ele><time>2026-04-26T09:35:21Z</time></trkpt><trkpt lat="43.58546491966454" lon="12.525851236859761"><ele>334.6666666666667</ele><time>2026-04-26T09:35:22Z</time></trkpt><trkpt lat="43.585501280395704" lon="12.526150043383327"><ele>330.0</ele><time>2026-04-26T09:35:23Z</time></trkpt><trkpt lat="43.58552848195856" lon="12.526457995703929"><ele>330.0</ele><time>2026-04-26T09:35:24Z</time></trkpt><trkpt lat="43.58556138063707" lon="12.526770030163615"><ele>330.0</ele><time>2026-04-26T09:35:25Z</time></trkpt><trkpt lat="43.58559100217261" lon="12.527087911621166"><ele>329.5</ele><time>2026-04-26T09:35:26Z</time></trkpt><trkpt lat="43.58561881567143" lon="12.527410339144259"><ele>329.0</ele><time>2026-04-26T09:35:27Z</time></trkpt><trkpt lat="43.58565023478472" lon="12.527722815689225"><ele>328.0</ele><time>2026-04-26T09:35:28Z</time></trkpt><trkpt lat="43.58566401078254" lon="12.528042491473066"><ele>327.0</ele><time>2026-04-26T09:35:29Z</time></trkpt><trkpt lat="43.58570059330118" lon="12.528348370324142"><ele>327.0</ele><time>2026-04-26T09:35:30Z</time></trkpt><trkpt lat="43.585759797043764" lon="12.52865052453268"><ele>327.0</ele><time>2026-04-26T09:35:31Z</time></trkpt><trkpt lat="43.585848663049205" lon="12.528933150190555"><ele>326.6666666666667</ele><time>2026-04-26T09:35:32Z</time></trkpt><trkpt lat="43.585961587193665" lon="12.529193587088782"><ele>326.33333333333337</ele><time>2026-04-26T09:35:33Z</time></trkpt><trkpt lat="43.586113276415134" lon="12.529406781581892"><ele>326.0</ele><time>2026-04-26T09:35:34Z</time></trkpt><trkpt lat="43.586272705516166" lon="12.529616939104883"><ele>325.33333333333337</ele><time>2026-04-26T09:35:35Z</time></trkpt><trkpt lat="43.58646737360277" lon="12.529757864506886"><ele>324.6666666666667</ele><time>2026-04-26T09:35:36Z</time></trkpt><trkpt lat="43.58666374369618" lon="12.529895896940472"><ele>324.0</ele><time>2026-04-26T09:35:37Z</time></trkpt><trkpt lat="43.586859577848344" lon="12.530048194921912"><ele>323.3333333333333</ele><time>2026-04-26T09:35:38Z</time></trkpt><trkpt lat="43.587062899605186" lon="12.53018316384147"><ele>322.66666666666663</ele><time>2026-04-26T09:35:39Z</time></trkpt><trkpt lat="43.587262052923805" lon="12.530320630272278"><ele>322.0</ele><time>2026-04-26T09:35:40Z</time></trkpt><trkpt lat="43.58745426292812" lon="12.530463172957157"><ele>322.0</ele><time>2026-04-26T09:35:41Z</time></trkpt><trkpt lat="43.587622089161684" lon="12.530627078707065"><ele>322.0</ele><time>2026-04-26T09:35:42Z</time></trkpt><trkpt lat="43.58776320565672" lon="12.53082296198455"><ele>322.0</ele><time>2026-04-26T09:35:43Z</time></trkpt><trkpt lat="43.58789044364829" lon="12.531031606072766"><ele>326.0</ele><time>2026-04-26T09:35:44Z</time></trkpt><trkpt lat="43.588016593061326" lon="12.531238398424023"><ele>330.0</ele><time>2026-04-26T09:35:45Z</time></trkpt><trkpt lat="43.588155629531705" lon="12.531437394231071"><ele>334.0</ele><time>2026-04-26T09:35:46Z</time></trkpt><trkpt lat="43.58831465565" lon="12.531608268801772"><ele>334.0</ele><time>2026-04-26T09:35:47Z</time></trkpt><trkpt lat="43.58849641041049" lon="12.531740802856405"><ele>334.0</ele><time>2026-04-26T09:35:48Z</time></trkpt><trkpt lat="43.588700808868566" lon="12.531812070080406"><ele>334.0</ele><time>2026-04-26T09:35:49Z</time></trkpt><trkpt lat="43.58890317128457" lon="12.531886423734884"><ele>334.66666666666663</ele><time>2026-04-26T09:35:50Z</time></trkpt><trkpt lat="43.58910478070892" lon="12.531970561184316"><ele>335.3333333333333</ele><time>2026-04-26T09:35:51Z</time></trkpt><trkpt lat="43.58930146735771" lon="12.53204642970159"><ele>336.0</ele><time>2026-04-26T09:35:52Z</time></trkpt><trkpt lat="43.589482088354515" lon="12.532143100065689"><ele>330.6666666666667</ele><time>2026-04-26T09:35:53Z</time></trkpt><trkpt lat="43.5896492994093" lon="12.532278903588963"><ele>325.33333333333337</ele><time>2026-04-26T09:35:54Z</time></trkpt><trkpt lat="43.589800705253445" lon="12.532453407112872"><ele>320.0</ele><time>2026-04-26T09:35:55Z</time></trkpt><trkpt lat="43.589926601487825" lon="12.532660926203038"><ele>324.33333333333337</ele><time>2026-04-26T09:35:56Z</time></trkpt><trkpt lat="43.590028038984315" lon="12.532898657986426"><ele>328.6666666666667</ele><time>2026-04-26T09:35:57Z</time></trkpt><trkpt lat="43.59012190563623" lon="12.53315117531296"><ele>333.0</ele><time>2026-04-26T09:35:58Z</time></trkpt><trkpt lat="43.5902140173689" lon="12.533408539292866"><ele>333.0</ele><time>2026-04-26T09:35:59Z</time></trkpt><trkpt lat="43.5903117201443" lon="12.533658929058197"><ele>333.0</ele><time>2026-04-26T09:36:00Z</time></trkpt><trkpt lat="43.590410156832256" lon="12.53388831799944"><ele>333.0</ele><time>2026-04-26T09:36:01Z</time></trkpt><trkpt lat="43.59050490695466" lon="12.534109116467327"><ele>331.0</ele><time>2026-04-26T09:36:02Z</time></trkpt><trkpt lat="43.590737949544646" lon="12.534209374296783"><ele>329.0</ele><time>2026-04-26T09:36:03Z</time></trkpt><trkpt lat="43.59092423535019" lon="12.5343104553444"><ele>327.0</ele><time>2026-04-26T09:36:04Z</time></trkpt><trkpt lat="43.5911115521789" lon="12.534389141632003"><ele>328.0</ele><time>2026-04-26T09:36:05Z</time></trkpt><trkpt lat="43.59130635006061" lon="12.534457079758676"><ele>329.0</ele><time>2026-04-26T09:36:06Z</time></trkpt><trkpt lat="43.5914971434263" lon="12.534541991104147"><ele>330.0</ele><time>2026-04-26T09:36:07Z</time></trkpt><trkpt lat="43.59167435527996" lon="12.534675597332953"><ele>330.0</ele><time>2026-04-26T09:36:08Z</time></trkpt><trkpt lat="43.59183516513173" lon="12.534861549323596"><ele>330.0</ele><time>2026-04-26T09:36:09Z</time></trkpt><trkpt lat="43.59198513270153" lon="12.535061205079383"><ele>330.0</ele><time>2026-04-26T09:36:10Z</time></trkpt><trkpt lat="43.59210855347365" lon="12.535269571965523"><ele>326.6666666666667</ele><time>2026-04-26T09:36:11Z</time></trkpt><trkpt lat="43.59220526486125" lon="12.53550374563994"><ele>323.33333333333337</ele><time>2026-04-26T09:36:12Z</time></trkpt><trkpt lat="43.59227394610571" lon="12.535758524693062"><ele>320.0</ele><time>2026-04-26T09:36:13Z</time></trkpt><trkpt lat="43.59232331696802" lon="12.53604108149732"><ele>321.33333333333337</ele><time>2026-04-26T09:36:14Z</time></trkpt><trkpt lat="43.59234242457436" lon="12.536332178057398"><ele>322.6666666666667</ele><time>2026-04-26T09:36:15Z</time></trkpt><trkpt lat="43.592349166322904" lon="12.536628348893828"><ele>324.0</ele><time>2026-04-26T09:36:16Z</time></trkpt><trkpt lat="43.592365742250024" lon="12.536926098215208"><ele>322.6666666666667</ele><time>2026-04-26T09:36:17Z</time></trkpt><trkpt lat="43.59238566328831" lon="12.537233828219437"><ele>321.33333333333337</ele><time>2026-04-26T09:36:18Z</time></trkpt><trkpt lat="43.59240760358824" lon="12.537538065898767"><ele>320.0</ele><time>2026-04-26T09:36:19Z</time></trkpt><trkpt lat="43.592423764701294" lon="12.537841502923621"><ele>316.5</ele><time>2026-04-26T09:36:20Z</time></trkpt><trkpt lat="43.59242405253527" lon="12.538151540407439"><ele>313.0</ele><time>2026-04-26T09:36:21Z</time></trkpt><trkpt lat="43.59241230445529" lon="12.538462238320394"><ele>312.0</ele><time>2026-04-26T09:36:22Z</time></trkpt><trkpt lat="43.592403278517324" lon="12.538775534678397"><ele>311.0</ele><time>2026-04-26T09:36:23Z</time></trkpt><trkpt lat="43.592393371726445" lon="12.539093356092971"><ele>311.0</ele><time>2026-04-26T09:36:24Z</time></trkpt><trkpt lat="43.59238595056172" lon="12.539403433048218"><ele>311.0</ele><time>2026-04-26T09:36:25Z</time></trkpt><trkpt lat="43.59238638204793" lon="12.539713545256719"><ele>311.0</ele><time>2026-04-26T09:36:26Z</time></trkpt><trkpt lat="43.59237270301504" lon="12.540024091107238"><ele>313.5</ele><time>2026-04-26T09:36:27Z</time></trkpt><trkpt lat="43.59235221217902" lon="12.540332677474506"><ele>316.0</ele><time>2026-04-26T09:36:28Z</time></trkpt><trkpt lat="43.59233471323177" lon="12.540643303555571"><ele>316.0</ele><time>2026-04-26T09:36:29Z</time></trkpt><trkpt lat="43.59232134719294" lon="12.540950357884606"><ele>316.0</ele><time>2026-04-26T09:36:30Z</time></trkpt><trkpt lat="43.59230211564421" lon="12.541258696205084"><ele>316.0</ele><time>2026-04-26T09:36:31Z</time></trkpt><trkpt lat="43.59228788741937" lon="12.541557627096273"><ele>314.0</ele><time>2026-04-26T09:36:32Z</time></trkpt><trkpt lat="43.59228130965487" lon="12.541839101380925"><ele>312.0</ele><time>2026-04-26T09:36:33Z</time></trkpt><trkpt lat="43.59230105322889" lon="12.542127604560552"><ele>310.0</ele><time>2026-04-26T09:36:34Z</time></trkpt><trkpt lat="43.59234689225272" lon="12.542421552254572"><ele>309.66666666666663</ele><time>2026-04-26T09:36:35Z</time></trkpt><trkpt lat="43.592409252243016" lon="12.542704993286078"><ele>309.3333333333333</ele><time>2026-04-26T09:36:36Z</time></trkpt><trkpt lat="43.59249861532274" lon="12.542976596995368"><ele>309.0</ele><time>2026-04-26T09:36:37Z</time></trkpt><trkpt lat="43.59261682069885" lon="12.543230697059776"><ele>309.0</ele><time>2026-04-26T09:36:38Z</time></trkpt><trkpt lat="43.59275255394037" lon="12.543472077516538"><ele>309.0</ele><time>2026-04-26T09:36:39Z</time></trkpt><trkpt lat="43.59289757814053" lon="12.543704607596192"><ele>309.0</ele><time>2026-04-26T09:36:40Z</time></trkpt><trkpt lat="43.59305094915087" lon="12.543935619891913"><ele>309.0</ele><time>2026-04-26T09:36:41Z</time></trkpt><trkpt lat="43.593201031974424" lon="12.544169637750889"><ele>309.0</ele><time>2026-04-26T09:36:42Z</time></trkpt><trkpt lat="43.5933528563224" lon="12.54440763131144"><ele>318.5</ele><time>2026-04-26T09:36:43Z</time></trkpt><trkpt lat="43.5935067728226" lon="12.544647023220705"><ele>328.0</ele><time>2026-04-26T09:36:44Z</time></trkpt><trkpt lat="43.593658733652724" lon="12.544887491548584"><ele>317.5</ele><time>2026-04-26T09:36:45Z</time></trkpt><trkpt lat="43.59381360135325" lon="12.545124186073913"><ele>307.0</ele><time>2026-04-26T09:36:46Z</time></trkpt><trkpt lat="43.59397184592979" lon="12.545360496728957"><ele>308.5</ele><time>2026-04-26T09:36:47Z</time></trkpt><trkpt lat="43.5941292182375" lon="12.545596148793818"><ele>310.0</ele><time>2026-04-26T09:36:48Z</time></trkpt><trkpt lat="43.59428646614697" lon="12.545833003026312"><ele>310.0</ele><time>2026-04-26T09:36:49Z</time></trkpt><trkpt lat="43.594440527364284" lon="12.546071661891935"><ele>310.0</ele><time>2026-04-26T09:36:50Z</time></trkpt><trkpt lat="43.59458900538219" lon="12.546316327058804"><ele>319.5</ele><time>2026-04-26T09:36:51Z</time></trkpt><trkpt lat="43.5947163960411" lon="12.546580324164545"><ele>329.0</ele><time>2026-04-26T09:36:52Z</time></trkpt><trkpt lat="43.59482140524605" lon="12.546860103907468"><ele>324.0</ele><time>2026-04-26T09:36:53Z</time></trkpt><trkpt lat="43.59491639472128" lon="12.547147287030935"><ele>319.0</ele><time>2026-04-26T09:36:54Z</time></trkpt><trkpt lat="43.59500338881604" lon="12.547435968893659"><ele>319.0</ele><time>2026-04-26T09:36:55Z</time></trkpt><trkpt lat="43.59509217253091" lon="12.547719377410468"><ele>319.0</ele><time>2026-04-26T09:36:56Z</time></trkpt><trkpt lat="43.595185249106336" lon="12.547998454908807"><ele>319.0</ele><time>2026-04-26T09:36:57Z</time></trkpt><trkpt lat="43.595288705453505" lon="12.54826669124544"><ele>320.3333333333333</ele><time>2026-04-26T09:36:58Z</time></trkpt><trkpt lat="43.59541070066031" lon="12.548520657499672"><ele>321.6666666666667</ele><time>2026-04-26T09:36:59Z</time></trkpt><trkpt lat="43.595538192025835" lon="12.548766609132642"><ele>323.0</ele><time>2026-04-26T09:37:00Z</time></trkpt><trkpt lat="43.5956615858227" lon="12.5490068974089"><ele>323.0</ele><time>2026-04-26T09:37:01Z</time></trkpt><trkpt lat="43.59578697970282" lon="12.54923646682621"><ele>323.0</ele><time>2026-04-26T09:37:02Z</time></trkpt><trkpt lat="43.59592008569657" lon="12.549451404331675"><ele>323.0</ele><time>2026-04-26T09:37:03Z</time></trkpt><trkpt lat="43.59607233585416" lon="12.549641704263527"><ele>319.0</ele><time>2026-04-26T09:37:04Z</time></trkpt><trkpt lat="43.59622993835601" lon="12.549818858182743"><ele>315.0</ele><time>2026-04-26T09:37:05Z</time></trkpt><trkpt lat="43.59638330728377" lon="12.55000006600713"><ele>311.0</ele><time>2026-04-26T09:37:06Z</time></trkpt><trkpt lat="43.59654098820197" lon="12.550162412456249"><ele>311.0</ele><time>2026-04-26T09:37:07Z</time></trkpt><trkpt lat="43.59671834754305" lon="12.550275160648933"><ele>311.0</ele><time>2026-04-26T09:37:08Z</time></trkpt><trkpt lat="43.59692274129007" lon="12.550332740781016"><ele>311.0</ele><time>2026-04-26T09:37:09Z</time></trkpt><trkpt lat="43.59713862974563" lon="12.550336408300677"><ele>314.0</ele><time>2026-04-26T09:37:10Z</time></trkpt><trkpt lat="43.59734778883998" lon="12.550284419512888"><ele>317.0</ele><time>2026-04-26T09:37:11Z</time></trkpt><trkpt lat="43.597585751200086" lon="12.550262892851473"><ele>317.0</ele><time>2026-04-26T09:37:12Z</time></trkpt><trkpt lat="43.59781218169671" lon="12.550310737273241"><ele>317.0</ele><time>2026-04-26T09:37:13Z</time></trkpt><trkpt lat="43.59803620930453" lon="12.550367516248933"><ele>311.33333333333337</ele><time>2026-04-26T09:37:14Z</time></trkpt><trkpt lat="43.598256702078" lon="12.550441370907132"><ele>305.6666666666667</ele><time>2026-04-26T09:37:15Z</time></trkpt><trkpt lat="43.59845573291595" lon="12.550515422194605"><ele>300.0</ele><time>2026-04-26T09:37:16Z</time></trkpt><trkpt lat="43.59863990390399" lon="12.550650095812102"><ele>303.6666666666667</ele><time>2026-04-26T09:37:17Z</time></trkpt><trkpt lat="43.59880754725361" lon="12.550823808711607"><ele>307.33333333333337</ele><time>2026-04-26T09:37:18Z</time></trkpt><trkpt lat="43.59894618031884" lon="12.551046707188664"><ele>311.0</ele><time>2026-04-26T09:37:19Z</time></trkpt><trkpt lat="43.59906002758322" lon="12.551303671140703"><ele>311.0</ele><time>2026-04-26T09:37:20Z</time></trkpt><trkpt lat="43.59917323337352" lon="12.551569116870754"><ele>311.0</ele><time>2026-04-26T09:37:21Z</time></trkpt><trkpt lat="43.59928787634591" lon="12.55182987165416"><ele>311.0</ele><time>2026-04-26T09:37:22Z</time></trkpt><trkpt lat="43.59938711691657" lon="12.552098116016301"><ele>316.5</ele><time>2026-04-26T09:37:23Z</time></trkpt><trkpt lat="43.599508156585294" lon="12.552392278113462"><ele>322.0</ele><time>2026-04-26T09:37:24Z</time></trkpt><trkpt lat="43.59962061828339" lon="12.552656966640841"><ele>311.0</ele><time>2026-04-26T09:37:25Z</time></trkpt><trkpt lat="43.5997481497189" lon="12.552920043712122"><ele>300.0</ele><time>2026-04-26T09:37:26Z</time></trkpt><trkpt lat="43.599900608794535" lon="12.553177826332501"><ele>300.0</ele><time>2026-04-26T09:37:27Z</time></trkpt><trkpt lat="43.6000654810426" lon="12.553405273321088"><ele>300.0</ele><time>2026-04-26T09:37:28Z</time></trkpt><trkpt lat="43.60025322222306" lon="12.553613177728185"><ele>295.0</ele><time>2026-04-26T09:37:29Z</time></trkpt><trkpt lat="43.60045598419768" lon="12.553804697220373"><ele>290.0</ele><time>2026-04-26T09:37:30Z</time></trkpt><trkpt lat="43.60066077072721" lon="12.553990626024627"><ele>290.0</ele><time>2026-04-26T09:37:31Z</time></trkpt><trkpt lat="43.60085871912098" lon="12.554177185513053"><ele>290.0</ele><time>2026-04-26T09:37:32Z</time></trkpt><trkpt lat="43.60105912387137" lon="12.554366266757201"><ele>288.5</ele><time>2026-04-26T09:37:33Z</time></trkpt><trkpt lat="43.60125974753523" lon="12.554558832736301"><ele>287.0</ele><time>2026-04-26T09:37:34Z</time></trkpt><trkpt lat="43.60146163078935" lon="12.554753912355245"><ele>287.0</ele><time>2026-04-26T09:37:35Z</time></trkpt><trkpt lat="43.60165765889018" lon="12.55495929521753"><ele>287.0</ele><time>2026-04-26T09:37:36Z</time></trkpt><trkpt lat="43.60185045175834" lon="12.555173195605981"><ele>288.0</ele><time>2026-04-26T09:37:37Z</time></trkpt><trkpt lat="43.602038861729774" lon="12.55538910272771"><ele>289.0</ele><time>2026-04-26T09:37:38Z</time></trkpt><trkpt lat="43.60223023742559" lon="12.555599529494753"><ele>289.0</ele><time>2026-04-26T09:37:39Z</time></trkpt><trkpt lat="43.602424253207424" lon="12.555810571129557"><ele>289.0</ele><time>2026-04-26T09:37:40Z</time></trkpt><trkpt lat="43.60261169406793" lon="12.556022194978755"><ele>289.5</ele><time>2026-04-26T09:37:41Z</time></trkpt><trkpt lat="43.6028012657877" lon="12.5562343654865"><ele>290.0</ele><time>2026-04-26T09:37:42Z</time></trkpt><trkpt lat="43.60299040670091" lon="12.556442639619487"><ele>290.0</ele><time>2026-04-26T09:37:43Z</time></trkpt><trkpt lat="43.603183379326715" lon="12.556644467995742"><ele>290.0</ele><time>2026-04-26T09:37:44Z</time></trkpt><trkpt lat="43.60338257490875" lon="12.556830675727237"><ele>290.0</ele><time>2026-04-26T09:37:45Z</time></trkpt><trkpt lat="43.60359428803583" lon="12.556988090493814"><ele>290.0</ele><time>2026-04-26T09:37:46Z</time></trkpt><trkpt lat="43.60381827205821" lon="12.557108673879872"><ele>289.0</ele><time>2026-04-26T09:37:47Z</time></trkpt><trkpt lat="43.60404479992073" lon="12.557219621968319"><ele>288.0</ele><time>2026-04-26T09:37:48Z</time></trkpt><trkpt lat="43.60426712021222" lon="12.557338336013313"><ele>288.0</ele><time>2026-04-26T09:37:49Z</time></trkpt><trkpt lat="43.60448208294139" lon="12.557466746615274"><ele>288.0</ele><time>2026-04-26T09:37:50Z</time></trkpt><trkpt lat="43.6046818540369" lon="12.557624471164797"><ele>290.0</ele><time>2026-04-26T09:37:51Z</time></trkpt><trkpt lat="43.604859942502046" lon="12.557834185870492"><ele>292.0</ele><time>2026-04-26T09:37:52Z</time></trkpt><trkpt lat="43.60502105650662" lon="12.558075464218998"><ele>285.5</ele><time>2026-04-26T09:37:53Z</time></trkpt><trkpt lat="43.60515298988088" lon="12.558346295268112"><ele>279.0</ele><time>2026-04-26T09:37:54Z</time></trkpt><trkpt lat="43.60528334036425" lon="12.558623625110016"><ele>283.5</ele><time>2026-04-26T09:37:55Z</time></trkpt><trkpt lat="43.60542308025153" lon="12.558897631039809"><ele>288.0</ele><time>2026-04-26T09:37:56Z</time></trkpt><trkpt lat="43.60556296453064" lon="12.55917243862962"><ele>288.0</ele><time>2026-04-26T09:37:57Z</time></trkpt><trkpt lat="43.60570655607101" lon="12.55944442345577"><ele>288.0</ele><time>2026-04-26T09:37:58Z</time></trkpt><trkpt lat="43.605849356424805" lon="12.559716260819306"><ele>289.5</ele><time>2026-04-26T09:37:59Z</time></trkpt><trkpt lat="43.605986744250394" lon="12.559981179238392"><ele>291.0</ele><time>2026-04-26T09:38:00Z</time></trkpt><trkpt lat="43.606109202078414" lon="12.560258960824404"><ele>289.5</ele><time>2026-04-26T09:38:01Z</time></trkpt><trkpt lat="43.60621831424068" lon="12.560548541150016"><ele>288.0</ele><time>2026-04-26T09:38:02Z</time></trkpt><trkpt lat="43.60631485138896" lon="12.56085185142138"><ele>288.0</ele><time>2026-04-26T09:38:03Z</time></trkpt><trkpt lat="43.60640789401452" lon="12.561159309357423"><ele>288.0</ele><time>2026-04-26T09:38:04Z</time></trkpt><trkpt lat="43.606504643540795" lon="12.561465894175253"><ele>289.0</ele><time>2026-04-26T09:38:05Z</time></trkpt><trkpt lat="43.60659602516571" lon="12.561777007245439"><ele>290.0</ele><time>2026-04-26T09:38:06Z</time></trkpt><trkpt lat="43.60668985451846" lon="12.562089028403"><ele>291.5</ele><time>2026-04-26T09:38:07Z</time></trkpt><trkpt lat="43.60678335152444" lon="12.562399327375367"><ele>293.0</ele><time>2026-04-26T09:38:08Z</time></trkpt><trkpt lat="43.60687626794082" lon="12.562707379684026"><ele>295.0</ele><time>2026-04-26T09:38:09Z</time></trkpt><trkpt lat="43.606968078655164" lon="12.563013783378741"><ele>297.0</ele><time>2026-04-26T09:38:10Z</time></trkpt><trkpt lat="43.607064008608944" lon="12.563317725589835"><ele>293.0</ele><time>2026-04-26T09:38:11Z</time></trkpt><trkpt lat="43.60715738279968" lon="12.563617631453308"><ele>289.0</ele><time>2026-04-26T09:38:12Z</time></trkpt><trkpt lat="43.60724889927453" lon="12.563913603809812"><ele>289.0</ele><time>2026-04-26T09:38:13Z</time></trkpt><trkpt lat="43.60733930055545" lon="12.564208381003105"><ele>289.0</ele><time>2026-04-26T09:38:14Z</time></trkpt><trkpt lat="43.60743141178913" lon="12.564497741185852"><ele>291.0</ele><time>2026-04-26T09:38:15Z</time></trkpt><trkpt lat="43.60752283380369" lon="12.564783594353191"><ele>293.0</ele><time>2026-04-26T09:38:16Z</time></trkpt><trkpt lat="43.60760871526404" lon="12.565068879108875"><ele>293.0</ele><time>2026-04-26T09:38:17Z</time></trkpt><trkpt lat="43.60769365529229" lon="12.565355702421016"><ele>293.0</ele><time>2026-04-26T09:38:18Z</time></trkpt><trkpt lat="43.60778314913226" lon="12.565638504888323"><ele>293.0</ele><time>2026-04-26T09:38:19Z</time></trkpt><trkpt lat="43.607879798459365" lon="12.565916553633341"><ele>291.6666666666667</ele><time>2026-04-26T09:38:20Z</time></trkpt><trkpt lat="43.60798190034786" lon="12.566176440471974"><ele>290.3333333333333</ele><time>2026-04-26T09:38:21Z</time></trkpt><trkpt lat="43.60809881545477" lon="12.566416285896299"><ele>289.0</ele><time>2026-04-26T09:38:22Z</time></trkpt><trkpt lat="43.60822851120554" lon="12.566653644644214"><ele>289.0</ele><time>2026-04-26T09:38:23Z</time></trkpt><trkpt lat="43.608361307223724" lon="12.566897180468606"><ele>289.0</ele><time>2026-04-26T09:38:24Z</time></trkpt><trkpt lat="43.60849868532152" lon="12.567146215216741"><ele>289.0</ele><time>2026-04-26T09:38:25Z</time></trkpt><trkpt lat="43.60864088552964" lon="12.56739358093689"><ele>288.0</ele><time>2026-04-26T09:38:26Z</time></trkpt><trkpt lat="43.608781466562235" lon="12.56763931153945"><ele>287.0</ele><time>2026-04-26T09:38:27Z</time></trkpt><trkpt lat="43.60891927350529" lon="12.567878742813683"><ele>286.0</ele><time>2026-04-26T09:38:28Z</time></trkpt><trkpt lat="43.60905035660864" lon="12.568109147991414"><ele>286.0</ele><time>2026-04-26T09:38:29Z</time></trkpt><trkpt lat="43.60917714563192" lon="12.568328375538815"><ele>286.0</ele><time>2026-04-26T09:38:30Z</time></trkpt><trkpt lat="43.60929250075611" lon="12.568543895423213"><ele>286.0</ele><time>2026-04-26T09:38:31Z</time></trkpt><trkpt lat="43.60940924243818" lon="12.568749489235026"><ele>284.3333333333333</ele><time>2026-04-26T09:38:32Z</time></trkpt><trkpt lat="43.609519801926965" lon="12.568945518317467"><ele>282.6666666666667</ele><time>2026-04-26T09:38:33Z</time></trkpt><trkpt lat="43.60962905181561" lon="12.569138080856977"><ele>281.0</ele><time>2026-04-26T09:38:34Z</time></trkpt><trkpt lat="43.609732574676606" lon="12.569343950091472"><ele>281.33333333333337</ele><time>2026-04-26T09:38:35Z</time></trkpt><trkpt lat="43.60981059906476" lon="12.569575591383739"><ele>281.6666666666667</ele><time>2026-04-26T09:38:36Z</time></trkpt><trkpt lat="43.60985687586293" lon="12.56982675053184"><ele>282.0</ele><time>2026-04-26T09:38:37Z</time></trkpt><trkpt lat="43.60987868407318" lon="12.570100226157042"><ele>281.6666666666667</ele><time>2026-04-26T09:38:38Z</time></trkpt><trkpt lat="43.60990030723265" lon="12.57039696392524"><ele>281.33333333333337</ele><time>2026-04-26T09:38:39Z</time></trkpt><trkpt lat="43.60992985319733" lon="12.570708474946555"><ele>281.0</ele><time>2026-04-26T09:38:40Z</time></trkpt><trkpt lat="43.60996229599118" lon="12.571031645125869"><ele>282.5</ele><time>2026-04-26T09:38:41Z</time></trkpt><trkpt lat="43.609988126938816" lon="12.57136698185021"><ele>284.0</ele><time>2026-04-26T09:38:42Z</time></trkpt><trkpt lat="43.61001093007236" lon="12.571709606373634"><ele>282.0</ele><time>2026-04-26T09:38:43Z</time></trkpt><trkpt lat="43.6100315035245" lon="12.572063434783159"><ele>280.0</ele><time>2026-04-26T09:38:44Z</time></trkpt><trkpt lat="43.610046556232646" lon="12.57242385577571"><ele>280.0</ele><time>2026-04-26T09:38:45Z</time></trkpt><trkpt lat="43.610064981765724" lon="12.572792357132418"><ele>280.0</ele><time>2026-04-26T09:38:46Z</time></trkpt><trkpt lat="43.61008913175021" lon="12.573165469199086"><ele>280.5</ele><time>2026-04-26T09:38:47Z</time></trkpt><trkpt lat="43.6101168544812" lon="12.573543773956185"><ele>281.0</ele><time>2026-04-26T09:38:48Z</time></trkpt><trkpt lat="43.61014608705653" lon="12.573926919554303"><ele>283.0</ele><time>2026-04-26T09:38:49Z</time></trkpt><trkpt lat="43.610171714681144" lon="12.574308551483444"><ele>285.0</ele><time>2026-04-26T09:38:50Z</time></trkpt><trkpt lat="43.61019718506291" lon="12.57467848918434"><ele>285.0</ele><time>2026-04-26T09:38:51Z</time></trkpt><trkpt lat="43.61021873856819" lon="12.575034646567476"><ele>285.0</ele><time>2026-04-26T09:38:52Z</time></trkpt><trkpt lat="43.61023264176895" lon="12.575378633151153"><ele>282.0</ele><time>2026-04-26T09:38:53Z</time></trkpt><trkpt lat="43.61023067343172" lon="12.575705331998195"><ele>279.0</ele><time>2026-04-26T09:38:54Z</time></trkpt><trkpt lat="43.61019459811037" lon="12.576014109613178"><ele>278.0</ele><time>2026-04-26T09:38:55Z</time></trkpt><trkpt lat="43.6101348364746" lon="12.576318639703782"><ele>277.0</ele><time>2026-04-26T09:38:56Z</time></trkpt><trkpt lat="43.61004936891506" lon="12.576608316671111"><ele>277.0</ele><time>2026-04-26T09:38:57Z</time></trkpt><trkpt lat="43.60995472306378" lon="12.576884547261715"><ele>277.0</ele><time>2026-04-26T09:38:58Z</time></trkpt><trkpt lat="43.609865264249756" lon="12.577159245432577"><ele>277.0</ele><time>2026-04-26T09:38:59Z</time></trkpt><trkpt lat="43.609778989625575" lon="12.57740980434497"><ele>276.3333333333333</ele><time>2026-04-26T09:39:00Z</time></trkpt><trkpt lat="43.60969627143647" lon="12.577652040992852"><ele>275.6666666666667</ele><time>2026-04-26T09:39:01Z</time></trkpt><trkpt lat="43.60961761223135" lon="12.577876318114502"><ele>275.0</ele><time>2026-04-26T09:39:02Z</time></trkpt><trkpt lat="43.60953819241218" lon="12.578094138725643"><ele>277.0</ele><time>2026-04-26T09:39:03Z</time></trkpt><trkpt lat="43.609438186292095" lon="12.578298200422411"><ele>279.0</ele><time>2026-04-26T09:39:04Z</time></trkpt><trkpt lat="43.609324127713585" lon="12.578484634355855"><ele>281.0</ele><time>2026-04-26T09:39:05Z</time></trkpt><trkpt lat="43.6091964696063" lon="12.578650760814329"><ele>280.6666666666667</ele><time>2026-04-26T09:39:06Z</time></trkpt><trkpt lat="43.60906173936262" lon="12.578797852437171"><ele>280.3333333333333</ele><time>2026-04-26T09:39:07Z</time></trkpt><trkpt lat="43.608911773799846" lon="12.578920806355086"><ele>280.0</ele><time>2026-04-26T09:39:08Z</time></trkpt><trkpt lat="43.60875269496166" lon="12.57901774603096"><ele>278.3333333333333</ele><time>2026-04-26T09:39:09Z</time></trkpt><trkpt lat="43.60857289147274" lon="12.579091654564913"><ele>276.6666666666667</ele><time>2026-04-26T09:39:10Z</time></trkpt><trkpt lat="43.60837236110845" lon="12.57916107751893"><ele>275.0</ele><time>2026-04-26T09:39:11Z</time></trkpt><trkpt lat="43.60815860826524" lon="12.579211188700716"><ele>275.0</ele><time>2026-04-26T09:39:12Z</time></trkpt><trkpt lat="43.607933605718095" lon="12.57925137732587"><ele>275.0</ele><time>2026-04-26T09:39:13Z</time></trkpt><trkpt lat="43.6076980914989" lon="12.57928298774119"><ele>274.0</ele><time>2026-04-26T09:39:14Z</time></trkpt><trkpt lat="43.607462409601574" lon="12.579304705663146"><ele>273.0</ele><time>2026-04-26T09:39:15Z</time></trkpt><trkpt lat="43.60722236693018" lon="12.57931148675885"><ele>275.0</ele><time>2026-04-26T09:39:16Z</time></trkpt><trkpt lat="43.606989142495124" lon="12.579316175742187"><ele>277.0</ele><time>2026-04-26T09:39:17Z</time></trkpt><trkpt lat="43.606758513109135" lon="12.579332710441975"><ele>277.0</ele><time>2026-04-26T09:39:18Z</time></trkpt><trkpt lat="43.60654160927666" lon="12.5793493455253"><ele>277.0</ele><time>2026-04-26T09:39:19Z</time></trkpt><trkpt lat="43.60633365531465" lon="12.579376227340777"><ele>277.0</ele><time>2026-04-26T09:39:20Z</time></trkpt><trkpt lat="43.60613384843949" lon="12.57939718283105"><ele>276.66666666666663</ele><time>2026-04-26T09:39:21Z</time></trkpt><trkpt lat="43.605935935798804" lon="12.579410646626723"><ele>276.3333333333333</ele><time>2026-04-26T09:39:22Z</time></trkpt><trkpt lat="43.60573855618535" lon="12.579426770354537"><ele>276.0</ele><time>2026-04-26T09:39:23Z</time></trkpt><trkpt lat="43.60553952333206" lon="12.579453828462482"><ele>276.0</ele><time>2026-04-26T09:39:24Z</time></trkpt><trkpt lat="43.60534008548064" lon="12.579488214497784"><ele>276.0</ele><time>2026-04-26T09:39:25Z</time></trkpt><trkpt lat="43.605148960055864" lon="12.579523572614985"><ele>276.0</ele><time>2026-04-26T09:39:26Z</time></trkpt><trkpt lat="43.60497310138192" lon="12.579582999881117"><ele>271.6666666666667</ele><time>2026-04-26T09:39:27Z</time></trkpt><trkpt lat="43.604805102999464" lon="12.579663203441266"><ele>267.33333333333337</ele><time>2026-04-26T09:39:28Z</time></trkpt><trkpt lat="43.60465017389713" lon="12.579764287831672"><ele>263.0</ele><time>2026-04-26T09:39:29Z</time></trkpt><trkpt lat="43.6044980965564" lon="12.579888405411808"><ele>264.0</ele><time>2026-04-26T09:39:30Z</time></trkpt><trkpt lat="43.6043539502137" lon="12.58003273494378"><ele>265.0</ele><time>2026-04-26T09:39:31Z</time></trkpt><trkpt lat="43.604221588738966" lon="12.58019438927325"><ele>266.0</ele><time>2026-04-26T09:39:32Z</time></trkpt><trkpt lat="43.60409710999662" lon="12.580368258137876"><ele>266.0</ele><time>2026-04-26T09:39:33Z</time></trkpt><trkpt lat="43.60397847349269" lon="12.580553383167965"><ele>266.0</ele><time>2026-04-26T09:39:34Z</time></trkpt><trkpt lat="43.60386190852685" lon="12.58075917612722"><ele>266.0</ele><time>2026-04-26T09:39:35Z</time></trkpt><trkpt lat="43.60374119373878" lon="12.58093995463577"><ele>266.6666666666667</ele><time>2026-04-26T09:39:36Z</time></trkpt><trkpt lat="43.6036247092939" lon="12.58113241258183"><ele>267.3333333333333</ele><time>2026-04-26T09:39:37Z</time></trkpt><trkpt lat="43.60350409654472" lon="12.581321174806959"><ele>268.0</ele><time>2026-04-26T09:39:38Z</time></trkpt><trkpt lat="43.60338324706527" lon="12.581516876137805"><ele>268.0</ele><time>2026-04-26T09:39:39Z</time></trkpt><trkpt lat="43.60325922278872" lon="12.581707715087688"><ele>268.0</ele><time>2026-04-26T09:39:40Z</time></trkpt><trkpt lat="43.60314080043683" lon="12.581907035638151"><ele>268.0</ele><time>2026-04-26T09:39:41Z</time></trkpt><trkpt lat="43.603027523262924" lon="12.5821239928437"><ele>273.3333333333333</ele><time>2026-04-26T09:39:42Z</time></trkpt><trkpt lat="43.60291982893556" lon="12.582358308353351"><ele>278.6666666666667</ele><time>2026-04-26T09:39:43Z</time></trkpt><trkpt lat="43.602814854588864" lon="12.58259477631329"><ele>284.0</ele><time>2026-04-26T09:39:44Z</time></trkpt><trkpt lat="43.602713635657224" lon="12.582826512211398"><ele>276.0</ele><time>2026-04-26T09:39:45Z</time></trkpt><trkpt lat="43.602615645371316" lon="12.583043710336863"><ele>268.0</ele><time>2026-04-26T09:39:46Z</time></trkpt><trkpt lat="43.602519128772215" lon="12.583257634660775"><ele>260.0</ele><time>2026-04-26T09:39:47Z</time></trkpt><trkpt lat="43.602426083913414" lon="12.583478693363842"><ele>264.6666666666667</ele><time>2026-04-26T09:39:48Z</time></trkpt><trkpt lat="43.60233215821584" lon="12.583699479947711"><ele>269.3333333333333</ele><time>2026-04-26T09:39:49Z</time></trkpt><trkpt lat="43.60223878565022" lon="12.583916717626217"><ele>274.0</ele><time>2026-04-26T09:39:50Z</time></trkpt><trkpt lat="43.60214503282167" lon="12.58413481893113"><ele>274.0</ele><time>2026-04-26T09:39:51Z</time></trkpt><trkpt lat="43.602055577237074" lon="12.584345177983078"><ele>274.0</ele><time>2026-04-26T09:39:52Z</time></trkpt><trkpt lat="43.60197314475038" lon="12.584549636276732"><ele>274.0</ele><time>2026-04-26T09:39:53Z</time></trkpt><trkpt lat="43.601888236665026" lon="12.584734222952205"><ele>270.25</ele><time>2026-04-26T09:39:54Z</time></trkpt><trkpt lat="43.60180521964849" lon="12.584907058189513"><ele>266.5</ele><time>2026-04-26T09:39:55Z</time></trkpt><trkpt lat="43.60173327676952" lon="12.585076533693721"><ele>262.75</ele><time>2026-04-26T09:39:56Z</time></trkpt><trkpt lat="43.60167152779375" lon="12.58523907784769"><ele>259.0</ele><time>2026-04-26T09:39:57Z</time></trkpt><trkpt lat="43.60160644466019" lon="12.585391323102618"><ele>259.0</ele><time>2026-04-26T09:39:58Z</time></trkpt><trkpt lat="43.601547897847546" lon="12.585534757235036"><ele>259.0</ele><time>2026-04-26T09:39:59Z</time></trkpt><trkpt lat="43.60149473116976" lon="12.585666691848575"><ele>259.0</ele><time>2026-04-26T09:40:00Z</time></trkpt><trkpt lat="43.60144873050902" lon="12.585801510248801"><ele>259.0</ele><time>2026-04-26T09:40:01Z</time></trkpt><trkpt lat="43.60143043234046" lon="12.585954476530489"><ele>259.0</ele><time>2026-04-26T09:40:02Z</time></trkpt><trkpt lat="43.601455871983404" lon="12.58610027186286"><ele>260.25</ele><time>2026-04-26T09:40:03Z</time></trkpt><trkpt lat="43.60151349818867" lon="12.586230412945014"><ele>261.5</ele><time>2026-04-26T09:40:04Z</time></trkpt><trkpt lat="43.601598302312404" lon="12.586347611066348"><ele>262.75</ele><time>2026-04-26T09:40:05Z</time></trkpt><trkpt lat="43.60166635515421" lon="12.586466750308782"><ele>264.0</ele><time>2026-04-26T09:40:06Z</time></trkpt><trkpt lat="43.601732798493686" lon="12.586596479041814"><ele>264.0</ele><time>2026-04-26T09:40:07Z</time></trkpt><trkpt lat="43.60179357423928" lon="12.586731366666804"><ele>264.0</ele><time>2026-04-26T09:40:08Z</time></trkpt><trkpt lat="43.6018453970998" lon="12.586887825358174"><ele>264.0</ele><time>2026-04-26T09:40:09Z</time></trkpt><trkpt lat="43.601886451873575" lon="12.587056464013198"><ele>264.0</ele><time>2026-04-26T09:40:10Z</time></trkpt><trkpt lat="43.6019120078216" lon="12.587238120690355"><ele>266.0</ele><time>2026-04-26T09:40:11Z</time></trkpt><trkpt lat="43.601932511220205" lon="12.587424392220099"><ele>268.0</ele><time>2026-04-26T09:40:12Z</time></trkpt><trkpt lat="43.601952355304384" lon="12.587616355309674"><ele>270.0</ele><time>2026-04-26T09:40:13Z</time></trkpt><trkpt lat="43.60195791135204" lon="12.587815754140795"><ele>272.0</ele><time>2026-04-26T09:40:14Z</time></trkpt><trkpt lat="43.601978591702945" lon="12.588016354000441"><ele>264.6666666666667</ele><time>2026-04-26T09:40:15Z</time></trkpt><trkpt lat="43.602019007677534" lon="12.588208497813133"><ele>257.3333333333333</ele><time>2026-04-26T09:40:16Z</time></trkpt><trkpt lat="43.60209825618615" lon="12.588410182225214"><ele>250.0</ele><time>2026-04-26T09:40:17Z</time></trkpt><trkpt lat="43.602183484309116" lon="12.588613700041378"><ele>251.0</ele><time>2026-04-26T09:40:18Z</time></trkpt><trkpt lat="43.602226553692624" lon="12.588841845118154"><ele>252.0</ele><time>2026-04-26T09:40:19Z</time></trkpt><trkpt lat="43.602307599926796" lon="12.589044055981269"><ele>253.0</ele><time>2026-04-26T09:40:20Z</time></trkpt><trkpt lat="43.60239108139473" lon="12.589252547769679"><ele>253.0</ele><time>2026-04-26T09:40:21Z</time></trkpt><trkpt lat="43.60247614856034" lon="12.58946548373637"><ele>253.0</ele><time>2026-04-26T09:40:22Z</time></trkpt><trkpt lat="43.60256089117493" lon="12.58967760729709"><ele>253.0</ele><time>2026-04-26T09:40:23Z</time></trkpt><trkpt lat="43.60264601084034" lon="12.589890674717475"><ele>255.0</ele><time>2026-04-26T09:40:24Z</time></trkpt><trkpt lat="43.60272657442702" lon="12.590091716743183"><ele>257.0</ele><time>2026-04-26T09:40:25Z</time></trkpt><trkpt lat="43.60280660227306" lon="12.590291376677765"><ele>259.0</ele><time>2026-04-26T09:40:26Z</time></trkpt><trkpt lat="43.60288833887911" lon="12.590496013845334"><ele>259.0</ele><time>2026-04-26T09:40:27Z</time></trkpt><trkpt lat="43.60297064696785" lon="12.59070232582346"><ele>259.0</ele><time>2026-04-26T09:40:28Z</time></trkpt><trkpt lat="43.60305327938785" lon="12.590909450764746"><ele>259.0</ele><time>2026-04-26T09:40:29Z</time></trkpt><trkpt lat="43.603136992291375" lon="12.591119284028151"><ele>261.66666666666663</ele><time>2026-04-26T09:40:30Z</time></trkpt><trkpt lat="43.60322014076662" lon="12.59132770249096"><ele>264.3333333333333</ele><time>2026-04-26T09:40:31Z</time></trkpt><trkpt lat="43.60330432474863" lon="12.591538770918515"><ele>267.0</ele><time>2026-04-26T09:40:32Z</time></trkpt><trkpt lat="43.603389109824626" lon="12.591751380955643"><ele>267.0</ele><time>2026-04-26T09:40:33Z</time></trkpt><trkpt lat="43.603473794238646" lon="12.591963738574362"><ele>267.0</ele><time>2026-04-26T09:40:34Z</time></trkpt><trkpt lat="43.603560446337845" lon="12.592181030443335"><ele>267.0</ele><time>2026-04-26T09:40:35Z</time></trkpt><trkpt lat="43.60364743727692" lon="12.592399171983315"><ele>266.3333333333333</ele><time>2026-04-26T09:40:36Z</time></trkpt><trkpt lat="43.6037348579913" lon="12.592618068225622"><ele>265.66666666666663</ele><time>2026-04-26T09:40:37Z</time></trkpt><trkpt lat="43.603823907455784" lon="12.592840160446405"><ele>265.0</ele><time>2026-04-26T09:40:38Z</time></trkpt><trkpt lat="43.603912869895105" lon="12.593062035620708"><ele>265.0</ele><time>2026-04-26T09:40:39Z</time></trkpt><trkpt lat="43.604002786351835" lon="12.593286290149292"><ele>265.0</ele><time>2026-04-26T09:40:40Z</time></trkpt><trkpt lat="43.6040923810585" lon="12.593509742218739"><ele>265.0</ele><time>2026-04-26T09:40:41Z</time></trkpt><trkpt lat="43.604183661385115" lon="12.593737398287987"><ele>264.0</ele><time>2026-04-26T09:40:42Z</time></trkpt><trkpt lat="43.604275744863564" lon="12.5939669465328"><ele>263.0</ele><time>2026-04-26T09:40:43Z</time></trkpt><trkpt lat="43.60437108992914" lon="12.594204368138216"><ele>262.0</ele><time>2026-04-26T09:40:44Z</time></trkpt><trkpt lat="43.60446699276168" lon="12.594443178634794"><ele>261.0</ele><time>2026-04-26T09:40:45Z</time></trkpt><trkpt lat="43.60456510877705" lon="12.59468750024774"><ele>260.0</ele><time>2026-04-26T09:40:46Z</time></trkpt><trkpt lat="43.60466446486752" lon="12.5949349098159"><ele>259.0</ele><time>2026-04-26T09:40:47Z</time></trkpt><trkpt lat="43.60476474539112" lon="12.59518462133514"><ele>259.3333333333333</ele><time>2026-04-26T09:40:48Z</time></trkpt><trkpt lat="43.604865227258735" lon="12.59543616033314"><ele>259.6666666666667</ele><time>2026-04-26T09:40:49Z</time></trkpt><trkpt lat="43.604965552493056" lon="12.595688375313985"><ele>260.0</ele><time>2026-04-26T09:40:50Z</time></trkpt><trkpt lat="43.60506640250752" lon="12.595941909583836"><ele>260.0</ele><time>2026-04-26T09:40:51Z</time></trkpt><trkpt lat="43.60516861325567" lon="12.596198864706247"><ele>260.0</ele><time>2026-04-26T09:40:52Z</time></trkpt><trkpt lat="43.60526964380021" lon="12.596452852812604"><ele>260.0</ele><time>2026-04-26T09:40:53Z</time></trkpt><trkpt lat="43.60537244763146" lon="12.596706341096457"><ele>260.0</ele><time>2026-04-26T09:40:54Z</time></trkpt><trkpt lat="43.60548946916444" lon="12.596948427391766"><ele>260.0</ele><time>2026-04-26T09:40:55Z</time></trkpt><trkpt lat="43.605577246717885" lon="12.597212306234438"><ele>260.0</ele><time>2026-04-26T09:40:56Z</time></trkpt><trkpt lat="43.60567831684215" lon="12.597463761073024"><ele>260.0</ele><time>2026-04-26T09:40:57Z</time></trkpt><trkpt lat="43.60577813874007" lon="12.597714871782626"><ele>260.0</ele><time>2026-04-26T09:40:58Z</time></trkpt><trkpt lat="43.60587739987242" lon="12.597963665238622"><ele>260.0</ele><time>2026-04-26T09:40:59Z</time></trkpt><trkpt lat="43.605974736572456" lon="12.598207635024798"><ele>259.6666666666667</ele><time>2026-04-26T09:41:00Z</time></trkpt><trkpt lat="43.606072779682975" lon="12.598453375172461"><ele>259.3333333333333</ele><time>2026-04-26T09:41:01Z</time></trkpt><trkpt lat="43.60616947000287" lon="12.598695724798084"><ele>259.0</ele><time>2026-04-26T09:41:02Z</time></trkpt><trkpt lat="43.60626681071943" lon="12.598939704504035"><ele>258.3333333333333</ele><time>2026-04-26T09:41:03Z</time></trkpt><trkpt lat="43.606363291667" lon="12.599181529365126"><ele>257.6666666666667</ele><time>2026-04-26T09:41:04Z</time></trkpt><trkpt lat="43.606459349519284" lon="12.599422293717954"><ele>257.0</ele><time>2026-04-26T09:41:05Z</time></trkpt><trkpt lat="43.606554400560796" lon="12.599660534583837"><ele>257.0</ele><time>2026-04-26T09:41:06Z</time></trkpt><trkpt lat="43.60664962141011" lon="12.599899200955756"><ele>257.0</ele><time>2026-04-26T09:41:07Z</time></trkpt><trkpt lat="43.60674458186794" lon="12.600137214595291"><ele>257.0</ele><time>2026-04-26T09:41:08Z</time></trkpt><trkpt lat="43.606839387362804" lon="12.600377191013052"><ele>256.33333333333337</ele><time>2026-04-26T09:41:09Z</time></trkpt><trkpt lat="43.60693235454715" lon="12.60062102454603"><ele>255.66666666666669</ele><time>2026-04-26T09:41:10Z</time></trkpt><trkpt lat="43.60702057455664" lon="12.60086969820149"><ele>255.0</ele><time>2026-04-26T09:41:11Z</time></trkpt><trkpt lat="43.60710339453815" lon="12.601125270617423"><ele>251.66666666666669</ele><time>2026-04-26T09:41:12Z</time></trkpt><trkpt lat="43.607187933606504" lon="12.601385419753711"><ele>248.33333333333334</ele><time>2026-04-26T09:41:13Z</time></trkpt><trkpt lat="43.60727281109743" lon="12.601645304709681"><ele>245.0</ele><time>2026-04-26T09:41:14Z</time></trkpt><trkpt lat="43.60735829138172" lon="12.601907035260217"><ele>245.66666666666669</ele><time>2026-04-26T09:41:15Z</time></trkpt><trkpt lat="43.60744498786311" lon="12.602171894122113"><ele>246.33333333333331</ele><time>2026-04-26T09:41:16Z</time></trkpt><trkpt lat="43.607530069466826" lon="12.602431797663762"><ele>247.0</ele><time>2026-04-26T09:41:17Z</time></trkpt><trkpt lat="43.60761580754814" lon="12.602693706482222"><ele>247.33333333333331</ele><time>2026-04-26T09:41:18Z</time></trkpt><trkpt lat="43.60770010953168" lon="12.602951228575671"><ele>247.66666666666669</ele><time>2026-04-26T09:41:19Z</time></trkpt><trkpt lat="43.60778562481845" lon="12.60321245673134"><ele>248.0</ele><time>2026-04-26T09:41:20Z</time></trkpt><trkpt lat="43.60787072554493" lon="12.603473165241278"><ele>243.0</ele><time>2026-04-26T09:41:21Z</time></trkpt><trkpt lat="43.60795572922326" lon="12.603731882074468"><ele>238.0</ele><time>2026-04-26T09:41:22Z</time></trkpt><trkpt lat="43.60804047172227" lon="12.603987736337467"><ele>233.0</ele><time>2026-04-26T09:41:23Z</time></trkpt><trkpt lat="43.608127794532415" lon="12.604249563648622"><ele>232.66666666666669</ele><time>2026-04-26T09:41:24Z</time></trkpt><trkpt lat="43.60822897463636" lon="12.604498698708852"><ele>232.33333333333331</ele><time>2026-04-26T09:41:25Z</time></trkpt><trkpt lat="43.60829998099428" lon="12.604772154154075"><ele>232.0</ele><time>2026-04-26T09:41:26Z</time></trkpt><trkpt lat="43.60840071179367" lon="12.605029190910884"><ele>232.0</ele><time>2026-04-26T09:41:27Z</time></trkpt><trkpt lat="43.60847849015597" lon="12.605298028239707"><ele>232.0</ele><time>2026-04-26T09:41:28Z</time></trkpt><trkpt lat="43.60857600279193" lon="12.605567432921625"><ele>232.0</ele><time>2026-04-26T09:41:29Z</time></trkpt><trkpt lat="43.60865883069487" lon="12.605834969171893"><ele>231.0</ele><time>2026-04-26T09:41:30Z</time></trkpt><trkpt lat="43.60874804025288" lon="12.606103361983363"><ele>230.0</ele><time>2026-04-26T09:41:31Z</time></trkpt><trkpt lat="43.60883318855843" lon="12.606370312973583"><ele>229.0</ele><time>2026-04-26T09:41:32Z</time></trkpt><trkpt lat="43.60891990024983" lon="12.6066324316331"><ele>228.66666666666666</ele><time>2026-04-26T09:41:33Z</time></trkpt><trkpt lat="43.60900747445925" lon="12.606896660365267"><ele>228.33333333333331</ele><time>2026-04-26T09:41:34Z</time></trkpt><trkpt lat="43.60909633229274" lon="12.60715371545742"><ele>228.0</ele><time>2026-04-26T09:41:35Z</time></trkpt><trkpt lat="43.60917062109632" lon="12.607419354900765"><ele>230.66666666666669</ele><time>2026-04-26T09:41:36Z</time></trkpt><trkpt lat="43.60926893393339" lon="12.607663830106205"><ele>233.33333333333334</ele><time>2026-04-26T09:41:37Z</time></trkpt><trkpt lat="43.60935087891807" lon="12.60791754616455"><ele>236.0</ele><time>2026-04-26T09:41:38Z</time></trkpt><trkpt lat="43.609436211224356" lon="12.608171917848205"><ele>235.66666666666669</ele><time>2026-04-26T09:41:39Z</time></trkpt><trkpt lat="43.60951897956855" lon="12.608423963230097"><ele>235.33333333333331</ele><time>2026-04-26T09:41:40Z</time></trkpt><trkpt lat="43.60959997832727" lon="12.608676719660588"><ele>235.0</ele><time>2026-04-26T09:41:41Z</time></trkpt><trkpt lat="43.60968292867726" lon="12.608928071430519"><ele>235.0</ele><time>2026-04-26T09:41:42Z</time></trkpt><trkpt lat="43.60976618191308" lon="12.609182668081823"><ele>235.0</ele><time>2026-04-26T09:41:43Z</time></trkpt><trkpt lat="43.60985829673733" lon="12.609434517045049"><ele>235.0</ele><time>2026-04-26T09:41:44Z</time></trkpt><trkpt lat="43.6099477741144" lon="12.609688744304677"><ele>235.0</ele><time>2026-04-26T09:41:45Z</time></trkpt><trkpt lat="43.610033535874564" lon="12.609937153963209"><ele>235.0</ele><time>2026-04-26T09:41:46Z</time></trkpt><trkpt lat="43.6101230209785" lon="12.610192498349571"><ele>235.0</ele><time>2026-04-26T09:41:47Z</time></trkpt><trkpt lat="43.61020021225745" lon="12.610453564071419"><ele>232.66666666666666</ele><time>2026-04-26T09:41:48Z</time></trkpt><trkpt lat="43.61027037165822" lon="12.610716054430025"><ele>230.33333333333331</ele><time>2026-04-26T09:41:49Z</time></trkpt><trkpt lat="43.610326393409366" lon="12.610983818273132"><ele>228.0</ele><time>2026-04-26T09:41:50Z</time></trkpt><trkpt lat="43.61036651725846" lon="12.611258625999017"><ele>226.66666666666669</ele><time>2026-04-26T09:41:51Z</time></trkpt><trkpt lat="43.610400390291446" lon="12.61152993628769"><ele>225.33333333333334</ele><time>2026-04-26T09:41:52Z</time></trkpt><trkpt lat="43.61043492176883" lon="12.611798847832686"><ele>224.0</ele><time>2026-04-26T09:41:53Z</time></trkpt><trkpt lat="43.610466580325095" lon="12.612061988267104"><ele>223.66666666666669</ele><time>2026-04-26T09:41:54Z</time></trkpt><trkpt lat="43.610494636473675" lon="12.612314085959373"><ele>223.33333333333331</ele><time>2026-04-26T09:41:55Z</time></trkpt><trkpt lat="43.610526488354836" lon="12.612554810670828"><ele>223.0</ele><time>2026-04-26T09:41:56Z</time></trkpt><trkpt lat="43.610554418110446" lon="12.612782184218329"><ele>224.66666666666666</ele><time>2026-04-26T09:41:57Z</time></trkpt><trkpt lat="43.61057854049881" lon="12.613003509033122"><ele>226.33333333333331</ele><time>2026-04-26T09:41:58Z</time></trkpt><trkpt lat="43.61058307518815" lon="12.613220200214672"><ele>228.0</ele><time>2026-04-26T09:41:59Z</time></trkpt><trkpt lat="43.610557834530404" lon="12.61344243631233"><ele>230.0</ele><time>2026-04-26T09:42:00Z</time></trkpt><trkpt lat="43.610504134699845" lon="12.613660706703334"><ele>232.0</ele><time>2026-04-26T09:42:01Z</time></trkpt><trkpt lat="43.610430814427794" lon="12.613868616130619"><ele>234.0</ele><time>2026-04-26T09:42:02Z</time></trkpt><trkpt lat="43.61034455861951" lon="12.614065320731614"><ele>233.33333333333331</ele><time>2026-04-26T09:42:03Z</time></trkpt><trkpt lat="43.61025999984856" lon="12.614260947765114"><ele>232.66666666666666</ele><time>2026-04-26T09:42:04Z</time></trkpt><trkpt lat="43.61018111347227" lon="12.614453142079595"><ele>232.0</ele><time>2026-04-26T09:42:05Z</time></trkpt><trkpt lat="43.61010031416697" lon="12.614637661346064"><ele>232.0</ele><time>2026-04-26T09:42:06Z</time></trkpt><trkpt lat="43.61001625869717" lon="12.614819571392157"><ele>232.0</ele><time>2026-04-26T09:42:07Z</time></trkpt><trkpt lat="43.60993465363168" lon="12.615008266198608"><ele>232.0</ele><time>2026-04-26T09:42:08Z</time></trkpt><trkpt lat="43.60985998976736" lon="12.61519595262786"><ele>231.5</ele><time>2026-04-26T09:42:09Z</time></trkpt><trkpt lat="43.60980674385084" lon="12.615365780177154"><ele>231.0</ele><time>2026-04-26T09:42:10Z</time></trkpt><trkpt lat="43.6097859746301" lon="12.61553708407178"><ele>230.5</ele><time>2026-04-26T09:42:11Z</time></trkpt><trkpt lat="43.609813843868835" lon="12.61570152554301"><ele>230.0</ele><time>2026-04-26T09:42:12Z</time></trkpt><trkpt lat="43.6098854344108" lon="12.615852687475199"><ele>230.0</ele><time>2026-04-26T09:42:13Z</time></trkpt><trkpt lat="43.6099818631624" lon="12.615970495306756"><ele>230.0</ele><time>2026-04-26T09:42:14Z</time></trkpt><trkpt lat="43.610109643912615" lon="12.616078273656084"><ele>230.0</ele><time>2026-04-26T09:42:15Z</time></trkpt><trkpt lat="43.61023515174018" lon="12.616186733813306"><ele>230.0</ele><time>2026-04-26T09:42:16Z</time></trkpt><trkpt lat="43.61036958576464" lon="12.61630384802078"><ele>230.33333333333334</ele><time>2026-04-26T09:42:17Z</time></trkpt><trkpt lat="43.610505749717056" lon="12.616423701581772"><ele>230.66666666666669</ele><time>2026-04-26T09:42:18Z</time></trkpt><trkpt lat="43.610636875658095" lon="12.61654151365614"><ele>231.0</ele><time>2026-04-26T09:42:19Z</time></trkpt><trkpt lat="43.61077064403717" lon="12.616662953266488"><ele>231.0</ele><time>2026-04-26T09:42:20Z</time></trkpt><trkpt lat="43.610889059094966" lon="12.616806428447275"><ele>231.0</ele><time>2026-04-26T09:42:21Z</time></trkpt><trkpt lat="43.61099547775961" lon="12.616968015998191"><ele>231.0</ele><time>2026-04-26T09:42:22Z</time></trkpt><trkpt lat="43.61109716763593" lon="12.617135731428103"><ele>231.0</ele><time>2026-04-26T09:42:23Z</time></trkpt><trkpt lat="43.611199000229924" lon="12.617304592903983"><ele>231.0</ele><time>2026-04-26T09:42:24Z</time></trkpt><trkpt lat="43.61129632168485" lon="12.617477809357476"><ele>231.0</ele><time>2026-04-26T09:42:25Z</time></trkpt><trkpt lat="43.611393709038246" lon="12.617655570098965"><ele>230.33333333333331</ele><time>2026-04-26T09:42:26Z</time></trkpt><trkpt lat="43.61148856724782" lon="12.61783626654809"><ele>229.66666666666666</ele><time>2026-04-26T09:42:27Z</time></trkpt><trkpt lat="43.61158470867264" lon="12.618016058064505"><ele>229.0</ele><time>2026-04-26T09:42:28Z</time></trkpt><trkpt lat="43.611682557626104" lon="12.618201432886755"><ele>229.0</ele><time>2026-04-26T09:42:29Z</time></trkpt><trkpt lat="43.61176686993102" lon="12.61839390690247"><ele>229.0</ele><time>2026-04-26T09:42:30Z</time></trkpt><trkpt lat="43.61182918238871" lon="12.618604559964727"><ele>229.0</ele><time>2026-04-26T09:42:31Z</time></trkpt><trkpt lat="43.61188251780768" lon="12.618836170991873"><ele>228.0</ele><time>2026-04-26T09:42:32Z</time></trkpt><trkpt lat="43.61193960987337" lon="12.61906418925833"><ele>227.0</ele><time>2026-04-26T09:42:33Z</time></trkpt><trkpt lat="43.61199298161272" lon="12.619289036034669"><ele>226.0</ele><time>2026-04-26T09:42:34Z</time></trkpt><trkpt lat="43.61205687169731" lon="12.61951128799287"><ele>229.33333333333331</ele><time>2026-04-26T09:42:35Z</time></trkpt><trkpt lat="43.61210321391418" lon="12.619733204463362"><ele>232.66666666666669</ele><time>2026-04-26T09:42:36Z</time></trkpt><trkpt lat="43.612162690732134" lon="12.61995622095057"><ele>236.0</ele><time>2026-04-26T09:42:37Z</time></trkpt><trkpt lat="43.612221803696315" lon="12.620174470938514"><ele>236.33333333333334</ele><time>2026-04-26T09:42:38Z</time></trkpt><trkpt lat="43.61226922002075" lon="12.620397845646027"><ele>236.66666666666669</ele><time>2026-04-26T09:42:39Z</time></trkpt><trkpt lat="43.612306005136666" lon="12.620618650886502"><ele>237.0</ele><time>2026-04-26T09:42:40Z</time></trkpt><trkpt lat="43.6123200083006" lon="12.620843849490862"><ele>237.0</ele><time>2026-04-26T09:42:41Z</time></trkpt><trkpt lat="43.6123197231282" lon="12.621067298740849"><ele>237.0</ele><time>2026-04-26T09:42:42Z</time></trkpt><trkpt lat="43.61230847649988" lon="12.621294497787485"><ele>237.0</ele><time>2026-04-26T09:42:43Z</time></trkpt><trkpt lat="43.61229225138768" lon="12.621522518233236"><ele>237.33333333333331</ele><time>2026-04-26T09:42:44Z</time></trkpt><trkpt lat="43.612276041089586" lon="12.621753138685909"><ele>237.66666666666666</ele><time>2026-04-26T09:42:45Z</time></trkpt><trkpt lat="43.61225621258006" lon="12.621982346924858"><ele>238.0</ele><time>2026-04-26T09:42:46Z</time></trkpt><trkpt lat="43.61223899075044" lon="12.622198892335623"><ele>237.5</ele><time>2026-04-26T09:42:47Z</time></trkpt><trkpt lat="43.612223438229975" lon="12.622407140204489"><ele>237.0</ele><time>2026-04-26T09:42:48Z</time></trkpt><trkpt lat="43.61221117586805" lon="12.622607273505267"><ele>236.5</ele><time>2026-04-26T09:42:49Z</time></trkpt><trkpt lat="43.61219238504625" lon="12.622794076583487"><ele>236.0</ele><time>2026-04-26T09:42:50Z</time></trkpt><trkpt lat="43.61217873152161" lon="12.622972480091121"><ele>235.75</ele><time>2026-04-26T09:42:51Z</time></trkpt><trkpt lat="43.612167610632085" lon="12.62313525656769"><ele>235.5</ele><time>2026-04-26T09:42:52Z</time></trkpt><trkpt lat="43.612169869934284" lon="12.623306221525958"><ele>235.25</ele><time>2026-04-26T09:42:53Z</time></trkpt><trkpt lat="43.61216614573291" lon="12.6234586311892"><ele>235.0</ele><time>2026-04-26T09:42:54Z</time></trkpt><trkpt lat="43.61216909853399" lon="12.623603529750405"><ele>235.0</ele><time>2026-04-26T09:42:55Z</time></trkpt><trkpt lat="43.61215905014981" lon="12.623762963721303"><ele>235.0</ele><time>2026-04-26T09:42:56Z</time></trkpt><trkpt lat="43.612183158590454" lon="12.623916369773685"><ele>235.0</ele><time>2026-04-26T09:42:57Z</time></trkpt><trkpt lat="43.61222267439266" lon="12.62407816959445"><ele>235.0</ele><time>2026-04-26T09:42:58Z</time></trkpt><trkpt lat="43.61227309271549" lon="12.6242329779787"><ele>235.0</ele><time>2026-04-26T09:42:59Z</time></trkpt><trkpt lat="43.61233926821125" lon="12.624394926256935"><ele>235.0</ele><time>2026-04-26T09:43:00Z</time></trkpt><trkpt lat="43.612422602012764" lon="12.624550757009967"><ele>235.0</ele><time>2026-04-26T09:43:01Z</time></trkpt><trkpt lat="43.6125204783096" lon="12.624702919148849"><ele>235.0</ele><time>2026-04-26T09:43:02Z</time></trkpt><trkpt lat="43.61263415148249" lon="12.624850412116611"><ele>233.0</ele><time>2026-04-26T09:43:03Z</time></trkpt><trkpt lat="43.612748937429195" lon="12.624986254795015"><ele>231.0</ele><time>2026-04-26T09:43:04Z</time></trkpt><trkpt lat="43.612865906964466" lon="12.625122369209237"><ele>229.0</ele><time>2026-04-26T09:43:05Z</time></trkpt><trkpt lat="43.6129813100191" lon="12.625250646514363"><ele>228.25</ele><time>2026-04-26T09:43:06Z</time></trkpt><trkpt lat="43.613090705716196" lon="12.625371946294383"><ele>227.5</ele><time>2026-04-26T09:43:07Z</time></trkpt><trkpt lat="43.613192174110644" lon="12.6254840305028"><ele>226.75</ele><time>2026-04-26T09:43:08Z</time></trkpt><trkpt lat="43.61328960561342" lon="12.625591655475326"><ele>226.0</ele><time>2026-04-26T09:43:09Z</time></trkpt><trkpt lat="43.6133817427989" lon="12.625698617333333"><ele>226.0</ele><time>2026-04-26T09:43:10Z</time></trkpt><trkpt lat="43.61346754834482" lon="12.625797870962739"><ele>226.00000000000003</ele><time>2026-04-26T09:43:11Z</time></trkpt><trkpt lat="43.613543510651326" lon="12.625898598689792"><ele>226.00000000000003</ele><time>2026-04-26T09:43:12Z</time></trkpt><trkpt lat="43.613610527008305" lon="12.626018236911882"><ele>226.0</ele><time>2026-04-26T09:43:13Z</time></trkpt><trkpt lat="43.6136486948834" lon="12.626153183940374"><ele>226.0</ele><time>2026-04-26T09:43:14Z</time></trkpt><trkpt lat="43.61364994961807" lon="12.626300336741277"><ele>225.75</ele><time>2026-04-26T09:43:15Z</time></trkpt><trkpt lat="43.613609348689096" lon="12.626450750701162"><ele>225.5</ele><time>2026-04-26T09:43:16Z</time></trkpt><trkpt lat="43.613555802080995" lon="12.62662662120377"><ele>225.25</ele><time>2026-04-26T09:43:17Z</time></trkpt><trkpt lat="43.61350410350481" lon="12.626792613334782"><ele>225.0</ele><time>2026-04-26T09:43:18Z</time></trkpt><trkpt lat="43.613464377232624" lon="12.626974563312338"><ele>226.75</ele><time>2026-04-26T09:43:19Z</time></trkpt><trkpt lat="43.61341038502433" lon="12.627150141488443"><ele>228.5</ele><time>2026-04-26T09:43:20Z</time></trkpt><trkpt lat="43.613358944630455" lon="12.627321373821552"><ele>230.25</ele><time>2026-04-26T09:43:21Z</time></trkpt><trkpt lat="43.61330506992612" lon="12.627481500354628"><ele>232.0</ele><time>2026-04-26T09:43:22Z</time></trkpt><trkpt lat="43.61324435185791" lon="12.627631528978267"><ele>232.0</ele><time>2026-04-26T09:43:23Z</time></trkpt><trkpt lat="43.61317872556549" lon="12.62776513712938"><ele>232.0</ele><time>2026-04-26T09:43:24Z</time></trkpt><trkpt lat="43.613086588476854" lon="12.627896853296257"><ele>232.0</ele><time>2026-04-26T09:43:25Z</time></trkpt><trkpt lat="43.612992477496825" lon="12.628025830789525"><ele>232.0</ele><time>2026-04-26T09:43:26Z</time></trkpt><trkpt lat="43.61290141358996" lon="12.628153964790966"><ele>231.75</ele><time>2026-04-26T09:43:27Z</time></trkpt><trkpt lat="43.61281245613306" lon="12.62829120684917"><ele>231.5</ele><time>2026-04-26T09:43:28Z</time></trkpt><trkpt lat="43.612767377886016" lon="12.628474168122645"><ele>231.25</ele><time>2026-04-26T09:43:29Z</time></trkpt><trkpt lat="43.61277375845058" lon="12.628677096816098"><ele>231.0</ele><time>2026-04-26T09:43:30Z</time></trkpt><trkpt lat="43.612791422274775" lon="12.62889838756126"><ele>232.33333333333331</ele><time>2026-04-26T09:43:31Z</time></trkpt><trkpt lat="43.61280408911328" lon="12.629136930337166"><ele>233.66666666666666</ele><time>2026-04-26T09:43:32Z</time></trkpt><trkpt lat="43.61283206543975" lon="12.62937003540923"><ele>235.0</ele><time>2026-04-26T09:43:33Z</time></trkpt><trkpt lat="43.61286146792582" lon="12.629615023563016"><ele>236.33333333333331</ele><time>2026-04-26T09:43:34Z</time></trkpt><trkpt lat="43.61289285649809" lon="12.62987656022861"><ele>237.66666666666669</ele><time>2026-04-26T09:43:35Z</time></trkpt><trkpt lat="43.612924631563786" lon="12.630145773107664"><ele>239.0</ele><time>2026-04-26T09:43:36Z</time></trkpt><trkpt lat="43.61295929379895" lon="12.630419410145583"><ele>239.33333333333334</ele><time>2026-04-26T09:43:37Z</time></trkpt><trkpt lat="43.612993726512855" lon="12.630690657711819"><ele>239.66666666666669</ele><time>2026-04-26T09:43:38Z</time></trkpt><trkpt lat="43.61302921283406" lon="12.630970205175364"><ele>240.0</ele><time>2026-04-26T09:43:39Z</time></trkpt><trkpt lat="43.61306480780627" lon="12.631253377480485"><ele>240.0</ele><time>2026-04-26T09:43:40Z</time></trkpt><trkpt lat="43.613098522124496" lon="12.631540877054963"><ele>240.0</ele><time>2026-04-26T09:43:41Z</time></trkpt><trkpt lat="43.6131323355024" lon="12.631831181710547"><ele>240.0</ele><time>2026-04-26T09:43:42Z</time></trkpt><trkpt lat="43.61316483116766" lon="12.632110173137084"><ele>239.66666666666669</ele><time>2026-04-26T09:43:43Z</time></trkpt><trkpt lat="43.61319510192294" lon="12.632381870711283"><ele>239.33333333333334</ele><time>2026-04-26T09:43:44Z</time></trkpt><trkpt lat="43.61322110983383" lon="12.632654854532912"><ele>239.0</ele><time>2026-04-26T09:43:45Z</time></trkpt><trkpt lat="43.61325918247017" lon="12.63290613023"><ele>237.66666666666669</ele><time>2026-04-26T09:43:46Z</time></trkpt><trkpt lat="43.61328238812802" lon="12.633143299644903"><ele>236.33333333333331</ele><time>2026-04-26T09:43:47Z</time></trkpt><trkpt lat="43.61330471765801" lon="12.633378620924017"><ele>235.0</ele><time>2026-04-26T09:43:48Z</time></trkpt><trkpt lat="43.613322552059586" lon="12.633614017976942"><ele>234.33333333333331</ele><time>2026-04-26T09:43:49Z</time></trkpt><trkpt lat="43.61334731584655" lon="12.63384940994216"><ele>233.66666666666669</ele><time>2026-04-26T09:43:50Z</time></trkpt><trkpt lat="43.61336772968581" lon="12.634083627378526"><ele>233.0</ele><time>2026-04-26T09:43:51Z</time></trkpt><trkpt lat="43.61338666658879" lon="12.634318698449048"><ele>233.33333333333334</ele><time>2026-04-26T09:43:52Z</time></trkpt><trkpt lat="43.61339299387153" lon="12.634565972074673"><ele>233.66666666666669</ele><time>2026-04-26T09:43:53Z</time></trkpt><trkpt lat="43.613415570554594" lon="12.634817062346862"><ele>234.0</ele><time>2026-04-26T09:43:54Z</time></trkpt><trkpt lat="43.61343923217643" lon="12.635081764323123"><ele>233.33333333333331</ele><time>2026-04-26T09:43:55Z</time></trkpt><trkpt lat="43.613480053848434" lon="12.635354974867425"><ele>232.66666666666666</ele><time>2026-04-26T09:43:56Z</time></trkpt><trkpt lat="43.613491022086976" lon="12.635638732217474"><ele>232.0</ele><time>2026-04-26T09:43:57Z</time></trkpt><trkpt lat="43.61351514148492" lon="12.635919938889135"><ele>231.0</ele><time>2026-04-26T09:43:58Z</time></trkpt><trkpt lat="43.61355525125322" lon="12.636200945921455"><ele>230.0</ele><time>2026-04-26T09:43:59Z</time></trkpt><trkpt lat="43.61358266560496" lon="12.63648449142041"><ele>229.0</ele><time>2026-04-26T09:44:00Z</time></trkpt><trkpt lat="43.6135933780007" lon="12.636773270800925"><ele>228.66666666666666</ele><time>2026-04-26T09:44:01Z</time></trkpt><trkpt lat="43.61362028938465" lon="12.637060456540874"><ele>228.33333333333331</ele><time>2026-04-26T09:44:02Z</time></trkpt><trkpt lat="43.61364745480112" lon="12.637350353193039"><ele>228.0</ele><time>2026-04-26T09:44:03Z</time></trkpt><trkpt lat="43.61367300973861" lon="12.637638326841765"><ele>229.33333333333331</ele><time>2026-04-26T09:44:04Z</time></trkpt><trkpt lat="43.61369813357263" lon="12.637928817732437"><ele>230.66666666666666</ele><time>2026-04-26T09:44:05Z</time></trkpt><trkpt lat="43.61372660573619" lon="12.638217914462478"><ele>232.0</ele><time>2026-04-26T09:44:06Z</time></trkpt><trkpt lat="43.61375246504249" lon="12.638502552214195"><ele>231.66666666666666</ele><time>2026-04-26T09:44:07Z</time></trkpt><trkpt lat="43.61377629662405" lon="12.638786076435956"><ele>231.33333333333331</ele><time>2026-04-26T09:44:08Z</time></trkpt><trkpt lat="43.61379926478264" lon="12.63905932851383"><ele>231.0</ele><time>2026-04-26T09:44:09Z</time></trkpt><trkpt lat="43.6138162164269" lon="12.639323639901583"><ele>231.66666666666669</ele><time>2026-04-26T09:44:10Z</time></trkpt><trkpt lat="43.61381305015362" lon="12.639583906924264"><ele>232.33333333333334</ele><time>2026-04-26T09:44:11Z</time></trkpt><trkpt lat="43.61378504600301" lon="12.639842105038403"><ele>233.0</ele><time>2026-04-26T09:44:12Z</time></trkpt><trkpt lat="43.61373568698205" lon="12.640092095922528"><ele>234.0</ele><time>2026-04-26T09:44:13Z</time></trkpt><trkpt lat="43.61366697032223" lon="12.640333708476158"><ele>235.0</ele><time>2026-04-26T09:44:14Z</time></trkpt><trkpt lat="43.61358009846805" lon="12.640576002666668"><ele>236.0</ele><time>2026-04-26T09:44:15Z</time></trkpt><trkpt lat="43.61347508452652" lon="12.640814502111272"><ele>234.33333333333334</ele><time>2026-04-26T09:44:16Z</time></trkpt><trkpt lat="43.613369744434436" lon="12.641074751507041"><ele>232.66666666666669</ele><time>2026-04-26T09:44:17Z</time></trkpt><trkpt lat="43.61325409697983" lon="12.641313228097916"><ele>231.0</ele><time>2026-04-26T09:44:18Z</time></trkpt><trkpt lat="43.613129999840076" lon="12.64154002698122"><ele>231.0</ele><time>2026-04-26T09:44:19Z</time></trkpt><trkpt lat="43.61303517531392" lon="12.641760396729104"><ele>231.0</ele><time>2026-04-26T09:44:20Z</time></trkpt><trkpt lat="43.61291353777655" lon="12.641985237748122"><ele>231.0</ele><time>2026-04-26T09:44:21Z</time></trkpt><trkpt lat="43.61279052629128" lon="12.642251095294817"><ele>230.0</ele><time>2026-04-26T09:44:22Z</time></trkpt><trkpt lat="43.61268785679296" lon="12.642513216898815"><ele>229.0</ele><time>2026-04-26T09:44:23Z</time></trkpt><trkpt lat="43.612578953349484" lon="12.642760151684529"><ele>228.0</ele><time>2026-04-26T09:44:24Z</time></trkpt><trkpt lat="43.61247193682196" lon="12.642990360650533"><ele>228.0</ele><time>2026-04-26T09:44:25Z</time></trkpt><trkpt lat="43.61237457881504" lon="12.643212320989877"><ele>228.0</ele><time>2026-04-26T09:44:26Z</time></trkpt><trkpt lat="43.61230109664481" lon="12.643440998637603"><ele>228.0</ele><time>2026-04-26T09:44:27Z</time></trkpt><trkpt lat="43.61225941938541" lon="12.643687792237746"><ele>228.0</ele><time>2026-04-26T09:44:28Z</time></trkpt><trkpt lat="43.61224614027987" lon="12.643943768013362"><ele>228.0</ele><time>2026-04-26T09:44:29Z</time></trkpt><trkpt lat="43.61225986723747" lon="12.64419323127486"><ele>228.0</ele><time>2026-04-26T09:44:30Z</time></trkpt><trkpt lat="43.612265750953576" lon="12.644433127209915"><ele>226.0</ele><time>2026-04-26T09:44:31Z</time></trkpt><trkpt lat="43.61235198083168" lon="12.644629034181598"><ele>224.0</ele><time>2026-04-26T09:44:32Z</time></trkpt><trkpt lat="43.61249182616889" lon="12.64481416895937"><ele>222.0</ele><time>2026-04-26T09:44:33Z</time></trkpt><trkpt lat="43.612634447755084" lon="12.644982444147592"><ele>222.0</ele><time>2026-04-26T09:44:34Z</time></trkpt><trkpt lat="43.61276173932152" lon="12.645156557502435"><ele>222.0</ele><time>2026-04-26T09:44:35Z</time></trkpt><trkpt lat="43.61284621528943" lon="12.645350797886032"><ele>222.0</ele><time>2026-04-26T09:44:36Z</time></trkpt><trkpt lat="43.612936290546564" lon="12.645569623962732"><ele>223.0</ele><time>2026-04-26T09:44:37Z</time></trkpt><trkpt lat="43.6130765807866" lon="12.645731595356077"><ele>224.0</ele><time>2026-04-26T09:44:38Z</time></trkpt><trkpt lat="43.613139892444465" lon="12.645920812530635"><ele>225.0</ele><time>2026-04-26T09:44:39Z</time></trkpt><trkpt lat="43.61320799975552" lon="12.646119566192795"><ele>223.33333333333331</ele><time>2026-04-26T09:44:40Z</time></trkpt><trkpt lat="43.61325303848472" lon="12.646333952461879"><ele>221.66666666666666</ele><time>2026-04-26T09:44:41Z</time></trkpt><trkpt lat="43.61322235311342" lon="12.646558817814904"><ele>220.0</ele><time>2026-04-26T09:44:42Z</time></trkpt><trkpt lat="43.61319986246707" lon="12.64676586012335"><ele>220.25</ele><time>2026-04-26T09:44:43Z</time></trkpt><trkpt lat="43.61317257042832" lon="12.646966279596258"><ele>220.5</ele><time>2026-04-26T09:44:44Z</time></trkpt><trkpt lat="43.61314450458716" lon="12.647160991917417"><ele>220.75</ele><time>2026-04-26T09:44:45Z</time></trkpt><trkpt lat="43.613118639097976" lon="12.647357826456732"><ele>221.0</ele><time>2026-04-26T09:44:46Z</time></trkpt><trkpt lat="43.61309546402172" lon="12.647564005695193"><ele>221.0</ele><time>2026-04-26T09:44:47Z</time></trkpt><trkpt lat="43.61308530326097" lon="12.64778438356963"><ele>221.0</ele><time>2026-04-26T09:44:48Z</time></trkpt><trkpt lat="43.61309120406426" lon="12.647995668392516"><ele>221.0</ele><time>2026-04-26T09:44:49Z</time></trkpt><trkpt lat="43.6131095206983" lon="12.648213797891193"><ele>221.33333333333334</ele><time>2026-04-26T09:44:50Z</time></trkpt><trkpt lat="43.61314765468434" lon="12.64843033011117"><ele>221.66666666666669</ele><time>2026-04-26T09:44:51Z</time></trkpt><trkpt lat="43.61320460995314" lon="12.64863936508126"><ele>222.0</ele><time>2026-04-26T09:44:52Z</time></trkpt><trkpt lat="43.61329812080188" lon="12.648849514815383"><ele>221.33333333333331</ele><time>2026-04-26T09:44:53Z</time></trkpt><trkpt lat="43.61340008772183" lon="12.649060332547311"><ele>220.66666666666666</ele><time>2026-04-26T09:44:54Z</time></trkpt><trkpt lat="43.61350200326265" lon="12.649275690742867"><ele>220.0</ele><time>2026-04-26T09:44:55Z</time></trkpt><trkpt lat="43.613592645421036" lon="12.64947069645788"><ele>221.33333333333331</ele><time>2026-04-26T09:44:56Z</time></trkpt><trkpt lat="43.613685697782444" lon="12.649672657741393"><ele>222.66666666666669</ele><time>2026-04-26T09:44:57Z</time></trkpt><trkpt lat="43.61378391503353" lon="12.649888181390233"><ele>224.0</ele><time>2026-04-26T09:44:58Z</time></trkpt><trkpt lat="43.61388090922531" lon="12.650095819984715"><ele>222.66666666666669</ele><time>2026-04-26T09:44:59Z</time></trkpt><trkpt lat="43.613981142499576" lon="12.650313017388465"><ele>221.33333333333331</ele><time>2026-04-26T09:45:00Z</time></trkpt><trkpt lat="43.614074634176816" lon="12.650529579109978"><ele>220.0</ele><time>2026-04-26T09:45:01Z</time></trkpt><trkpt lat="43.61415640607065" lon="12.650752843653207"><ele>220.0</ele><time>2026-04-26T09:45:02Z</time></trkpt><trkpt lat="43.61420700281693" lon="12.650977216323449"><ele>220.0</ele><time>2026-04-26T09:45:03Z</time></trkpt><trkpt lat="43.614237635221805" lon="12.651218376097582"><ele>220.0</ele><time>2026-04-26T09:45:04Z</time></trkpt><trkpt lat="43.61424531493211" lon="12.651483039108612"><ele>219.66666666666666</ele><time>2026-04-26T09:45:05Z</time></trkpt><trkpt lat="43.61424524958124" lon="12.65173096654128"><ele>219.33333333333331</ele><time>2026-04-26T09:45:06Z</time></trkpt><trkpt lat="43.614243611117395" lon="12.651977286852556"><ele>219.0</ele><time>2026-04-26T09:45:07Z</time></trkpt><trkpt lat="43.614240608159726" lon="12.652217170186967"><ele>219.0</ele><time>2026-04-26T09:45:08Z</time></trkpt><trkpt lat="43.61423806229766" lon="12.652445760222669"><ele>219.0</ele><time>2026-04-26T09:45:09Z</time></trkpt><trkpt lat="43.61423642525065" lon="12.652682765148025"><ele>219.0</ele><time>2026-04-26T09:45:10Z</time></trkpt><trkpt lat="43.6142347014278" lon="12.652932333001202"><ele>217.66666666666669</ele><time>2026-04-26T09:45:11Z</time></trkpt><trkpt lat="43.61423292147742" lon="12.65319002694017"><ele>216.33333333333334</ele><time>2026-04-26T09:45:12Z</time></trkpt><trkpt lat="43.61423097295675" lon="12.653466630778272"><ele>215.0</ele><time>2026-04-26T09:45:13Z</time></trkpt><trkpt lat="43.61423015150642" lon="12.653777577630443"><ele>214.0</ele><time>2026-04-26T09:45:14Z</time></trkpt><trkpt lat="43.614229512441334" lon="12.654117728449517"><ele>213.0</ele><time>2026-04-26T09:45:15Z</time></trkpt><trkpt lat="43.61422885407068" lon="12.65446815434303"><ele>213.0</ele><time>2026-04-26T09:45:16Z</time></trkpt><trkpt lat="43.61423010716525" lon="12.654811396615013"><ele>213.0</ele><time>2026-04-26T09:45:17Z</time></trkpt><trkpt lat="43.614235914216636" lon="12.655134243170327"><ele>213.33333333333331</ele><time>2026-04-26T09:45:18Z</time></trkpt><trkpt lat="43.61424858710909" lon="12.655437855470767"><ele>213.66666666666666</ele><time>2026-04-26T09:45:19Z</time></trkpt><trkpt lat="43.614264435039516" lon="12.655721729086892"><ele>214.0</ele><time>2026-04-26T09:45:20Z</time></trkpt><trkpt lat="43.61428838634468" lon="12.655994069295465"><ele>213.66666666666666</ele><time>2026-04-26T09:45:21Z</time></trkpt><trkpt lat="43.61434307307946" lon="12.656263991028224"><ele>213.33333333333331</ele><time>2026-04-26T09:45:22Z</time></trkpt><trkpt lat="43.614464175519906" lon="12.656504423914132"><ele>213.0</ele><time>2026-04-26T09:45:23Z</time></trkpt><trkpt lat="43.614541927211754" lon="12.656770360114555"><ele>215.0</ele><time>2026-04-26T09:45:24Z</time></trkpt><trkpt lat="43.61462122184048" lon="12.65701328111996"><ele>217.0</ele><time>2026-04-26T09:45:25Z</time></trkpt><trkpt lat="43.614695235077946" lon="12.65724084800184"><ele>219.0</ele><time>2026-04-26T09:45:26Z</time></trkpt><trkpt lat="43.61476572955971" lon="12.65745522673203"><ele>219.0</ele><time>2026-04-26T09:45:27Z</time></trkpt><trkpt lat="43.61483412755395" lon="12.657662465838792"><ele>219.0</ele><time>2026-04-26T09:45:28Z</time></trkpt><trkpt lat="43.61489861289277" lon="12.657859506419681"><ele>219.0</ele><time>2026-04-26T09:45:29Z</time></trkpt><trkpt lat="43.61494869417335" lon="12.658041390666053"><ele>218.79999999999998</ele><time>2026-04-26T09:45:30Z</time></trkpt><trkpt lat="43.61499832041558" lon="12.658208571139143"><ele>218.59999999999997</ele><time>2026-04-26T09:45:31Z</time></trkpt><trkpt lat="43.615014128925075" lon="12.65835795618718"><ele>218.4</ele><time>2026-04-26T09:45:32Z</time></trkpt><trkpt lat="43.61502710686806" lon="12.658490917778568"><ele>218.2</ele><time>2026-04-26T09:45:33Z</time></trkpt><trkpt lat="43.61502940856057" lon="12.658601667364104"><ele>218.0</ele><time>2026-04-26T09:45:34Z</time></trkpt><trkpt lat="43.61502222096491" lon="12.658688947464743"><ele>217.66666666666669</ele><time>2026-04-26T09:45:35Z</time></trkpt><trkpt lat="43.614968142372824" lon="12.658829417767423"><ele>217.33333333333334</ele><time>2026-04-26T09:45:37Z</time></trkpt><trkpt lat="43.61492298554459" lon="12.658898969728341"><ele>217.0</ele><time>2026-04-26T09:45:38Z</time></trkpt><trkpt lat="43.614870182077354" lon="12.658957123539844"><ele>216.66666666666669</ele><time>2026-04-26T09:45:39Z</time></trkpt><trkpt lat="43.61486137668132" lon="12.659054236540536"><ele>216.33333333333334</ele><time>2026-04-26T09:45:40Z</time></trkpt><trkpt lat="43.614893582255355" lon="12.659158498266954"><ele>216.0</ele><time>2026-04-26T09:45:41Z</time></trkpt><trkpt lat="43.61494230334492" lon="12.659249357767255"><ele>216.0</ele><time>2026-04-26T09:45:42Z</time></trkpt><trkpt lat="43.6149866855053" lon="12.659351830117682"><ele>216.00000000000003</ele><time>2026-04-26T09:45:43Z</time></trkpt><trkpt lat="43.61500614902513" lon="12.659497769764354"><ele>216.00000000000003</ele><time>2026-04-26T09:45:44Z</time></trkpt><trkpt lat="43.61498814958281" lon="12.659655509898931"><ele>216.0</ele><time>2026-04-26T09:45:45Z</time></trkpt><trkpt lat="43.61498837915307" lon="12.659812053902874"><ele>216.0</ele><time>2026-04-26T09:45:46Z</time></trkpt><trkpt lat="43.61500028853125" lon="12.659973169414002"><ele>216.0</ele><time>2026-04-26T09:45:47Z</time></trkpt><trkpt lat="43.61502855907967" lon="12.660149446659027"><ele>216.0</ele><time>2026-04-26T09:45:48Z</time></trkpt><trkpt lat="43.615056322824735" lon="12.660299404564766"><ele>216.0</ele><time>2026-04-26T09:45:49Z</time></trkpt><trkpt lat="43.61509158450913" lon="12.66047887615696"><ele>216.0</ele><time>2026-04-26T09:45:50Z</time></trkpt><trkpt lat="43.61513633137845" lon="12.660714349576331"><ele>216.0</ele><time>2026-04-26T09:45:51Z</time></trkpt><trkpt lat="43.615185217706255" lon="12.660978417092734"><ele>216.0</ele><time>2026-04-26T09:45:52Z</time></trkpt><trkpt lat="43.6152470409991" lon="12.661255325366485"><ele>216.0</ele><time>2026-04-26T09:45:53Z</time></trkpt><trkpt lat="43.61529564423415" lon="12.661558374146184"><ele>219.33333333333331</ele><time>2026-04-26T09:45:54Z</time></trkpt><trkpt lat="43.61535400356328" lon="12.661853256518755"><ele>222.66666666666666</ele><time>2026-04-26T09:45:55Z</time></trkpt><trkpt lat="43.6154046562965" lon="12.662160586582806"><ele>226.0</ele><time>2026-04-26T09:45:56Z</time></trkpt><trkpt lat="43.61545388521817" lon="12.66247399014228"><ele>226.5</ele><time>2026-04-26T09:45:57Z</time></trkpt><trkpt lat="43.61551252759073" lon="12.662788176458266"><ele>227.0</ele><time>2026-04-26T09:45:58Z</time></trkpt><trkpt lat="43.61556325435229" lon="12.66309718109019"><ele>227.0</ele><time>2026-04-26T09:45:59Z</time></trkpt><trkpt lat="43.61561696476781" lon="12.66340652251051"><ele>227.0</ele><time>2026-04-26T09:46:00Z</time></trkpt><trkpt lat="43.61567545684714" lon="12.663713862577133"><ele>226.5</ele><time>2026-04-26T09:46:01Z</time></trkpt><trkpt lat="43.61573509770159" lon="12.664020073991908"><ele>226.0</ele><time>2026-04-26T09:46:02Z</time></trkpt><trkpt lat="43.61579490123438" lon="12.664324040774893"><ele>223.33333333333331</ele><time>2026-04-26T09:46:03Z</time></trkpt><trkpt lat="43.6158334810758" lon="12.664630751033219"><ele>220.66666666666669</ele><time>2026-04-26T09:46:04Z</time></trkpt><trkpt lat="43.61590034031314" lon="12.664920864284092"><ele>218.0</ele><time>2026-04-26T09:46:05Z</time></trkpt><trkpt lat="43.61594690948674" lon="12.665219063431802"><ele>214.33333333333334</ele><time>2026-04-26T09:46:06Z</time></trkpt><trkpt lat="43.61597803181072" lon="12.665522952687015"><ele>210.66666666666669</ele><time>2026-04-26T09:46:07Z</time></trkpt><trkpt lat="43.615978516758794" lon="12.665826217241444"><ele>207.0</ele><time>2026-04-26T09:46:08Z</time></trkpt><trkpt lat="43.61598183541333" lon="12.666123355365523"><ele>205.66666666666669</ele><time>2026-04-26T09:46:09Z</time></trkpt><trkpt lat="43.615977611152516" lon="12.666415095427482"><ele>204.33333333333334</ele><time>2026-04-26T09:46:10Z</time></trkpt><trkpt lat="43.61596206559124" lon="12.666692159340998"><ele>203.0</ele><time>2026-04-26T09:46:11Z</time></trkpt><trkpt lat="43.6159435684514" lon="12.666945313653388"><ele>203.0</ele><time>2026-04-26T09:46:12Z</time></trkpt><trkpt lat="43.61593582627673" lon="12.667180822697901"><ele>203.0</ele><time>2026-04-26T09:46:13Z</time></trkpt><trkpt lat="43.615888663971546" lon="12.667397788193847"><ele>203.0</ele><time>2026-04-26T09:46:14Z</time></trkpt><trkpt lat="43.61585342117509" lon="12.667605836121473"><ele>203.33333333333334</ele><time>2026-04-26T09:46:15Z</time></trkpt><trkpt lat="43.61581441077649" lon="12.667815680003606"><ele>203.66666666666669</ele><time>2026-04-26T09:46:16Z</time></trkpt><trkpt lat="43.615769446727235" lon="12.668032909042225"><ele>204.0</ele><time>2026-04-26T09:46:17Z</time></trkpt><trkpt lat="43.61571422470749" lon="12.668255977542492"><ele>204.0</ele><time>2026-04-26T09:46:18Z</time></trkpt><trkpt lat="43.615659612414206" lon="12.668463918155927"><ele>204.0</ele><time>2026-04-26T09:46:19Z</time></trkpt><trkpt lat="43.61560464364643" lon="12.668669881528398"><ele>204.0</ele><time>2026-04-26T09:46:20Z</time></trkpt><trkpt lat="43.61554802868944" lon="12.668882487058916"><ele>203.33333333333331</ele><time>2026-04-26T09:46:21Z</time></trkpt><trkpt lat="43.61549171184964" lon="12.669093575257985"><ele>202.66666666666666</ele><time>2026-04-26T09:46:22Z</time></trkpt><trkpt lat="43.61543734178474" lon="12.669292354381774"><ele>202.0</ele><time>2026-04-26T09:46:23Z</time></trkpt><trkpt lat="43.61537968296861" lon="12.669500988867927"><ele>201.66666666666666</ele><time>2026-04-26T09:46:24Z</time></trkpt><trkpt lat="43.61532500058025" lon="12.669712474773986"><ele>201.33333333333331</ele><time>2026-04-26T09:46:25Z</time></trkpt><trkpt lat="43.615270986939144" lon="12.66992086338553"><ele>201.0</ele><time>2026-04-26T09:46:26Z</time></trkpt><trkpt lat="43.615214421991496" lon="12.670128814192156"><ele>202.33333333333331</ele><time>2026-04-26T09:46:27Z</time></trkpt><trkpt lat="43.6151576417974" lon="12.670337556308972"><ele>203.66666666666666</ele><time>2026-04-26T09:46:28Z</time></trkpt><trkpt lat="43.61509909681489" lon="12.670554297195954"><ele>205.0</ele><time>2026-04-26T09:46:29Z</time></trkpt><trkpt lat="43.61504125554956" lon="12.670771494136625"><ele>205.0</ele><time>2026-04-26T09:46:30Z</time></trkpt><trkpt lat="43.61498212218125" lon="12.670993542999058"><ele>205.0</ele><time>2026-04-26T09:46:31Z</time></trkpt><trkpt lat="43.6149238920232" lon="12.671212200258335"><ele>205.0</ele><time>2026-04-26T09:46:32Z</time></trkpt><trkpt lat="43.61486525111523" lon="12.671432612964088"><ele>204.66666666666666</ele><time>2026-04-26T09:46:33Z</time></trkpt><trkpt lat="43.614805674678735" lon="12.671656578856734"><ele>204.33333333333331</ele><time>2026-04-26T09:46:34Z</time></trkpt><trkpt lat="43.61474515526482" lon="12.671878258742037"><ele>204.0</ele><time>2026-04-26T09:46:35Z</time></trkpt><trkpt lat="43.6146784528023" lon="12.672089545368076"><ele>203.33333333333331</ele><time>2026-04-26T09:46:36Z</time></trkpt><trkpt lat="43.614609055030456" lon="12.672280188001324"><ele>202.66666666666666</ele><time>2026-04-26T09:46:37Z</time></trkpt><trkpt lat="43.61453326761398" lon="12.672470490315138"><ele>202.0</ele><time>2026-04-26T09:46:38Z</time></trkpt><trkpt lat="43.61445054173896" lon="12.672650772167545"><ele>203.25</ele><time>2026-04-26T09:46:39Z</time></trkpt><trkpt lat="43.61436229818215" lon="12.672812721065842"><ele>204.5</ele><time>2026-04-26T09:46:40Z</time></trkpt><trkpt lat="43.6142807233572" lon="12.67299037483116"><ele>205.75</ele><time>2026-04-26T09:46:41Z</time></trkpt><trkpt lat="43.614184114883386" lon="12.673143065829027"><ele>207.0</ele><time>2026-04-26T09:46:42Z</time></trkpt><trkpt lat="43.6140843510064" lon="12.673293132670915"><ele>207.0</ele><time>2026-04-26T09:46:43Z</time></trkpt><trkpt lat="43.61399161096251" lon="12.673451422494209"><ele>207.0</ele><time>2026-04-26T09:46:44Z</time></trkpt><trkpt lat="43.613897332706806" lon="12.673604395083885"><ele>207.0</ele><time>2026-04-26T09:46:45Z</time></trkpt><trkpt lat="43.61384729777203" lon="12.673790873604986"><ele>207.0</ele><time>2026-04-26T09:46:46Z</time></trkpt><trkpt lat="43.61379444637576" lon="12.673966493462544"><ele>206.75</ele><time>2026-04-26T09:46:47Z</time></trkpt><trkpt lat="43.613752135817364" lon="12.674136426282564"><ele>206.5</ele><time>2026-04-26T09:46:48Z</time></trkpt><trkpt lat="43.613724332340794" lon="12.674298354905046"><ele>206.25</ele><time>2026-04-26T09:46:49Z</time></trkpt><trkpt lat="43.6136937480943" lon="12.674445957931622"><ele>206.0</ele><time>2026-04-26T09:46:50Z</time></trkpt><trkpt lat="43.61366644728499" lon="12.674580839672364"><ele>205.60000000000002</ele><time>2026-04-26T09:46:51Z</time></trkpt><trkpt lat="43.613636301098786" lon="12.674700436359831"><ele>205.2</ele><time>2026-04-26T09:46:52Z</time></trkpt><trkpt lat="43.613585244802486" lon="12.67480302469122"><ele>204.8</ele><time>2026-04-26T09:46:53Z</time></trkpt><trkpt lat="43.61351904391232" lon="12.674887829863803"><ele>204.39999999999998</ele><time>2026-04-26T09:46:54Z</time></trkpt><trkpt lat="43.61344050716688" lon="12.674957371565423"><ele>204.0</ele><time>2026-04-26T09:46:55Z</time></trkpt><trkpt lat="43.61334272359571" lon="12.675005106931469"><ele>204.0</ele><time>2026-04-26T09:46:56Z</time></trkpt><trkpt lat="43.61322672282827" lon="12.6750427223801"><ele>204.0</ele><time>2026-04-26T09:46:57Z</time></trkpt><trkpt lat="43.613098624093325" lon="12.675071817565259"><ele>204.0</ele><time>2026-04-26T09:46:58Z</time></trkpt><trkpt lat="43.612962640875146" lon="12.675100664304859"><ele>204.0</ele><time>2026-04-26T09:46:59Z</time></trkpt><trkpt lat="43.612815863639284" lon="12.67513937778603"><ele>203.33333333333331</ele><time>2026-04-26T09:47:00Z</time></trkpt><trkpt lat="43.612651384927666" lon="12.675188301741622"><ele>202.66666666666666</ele><time>2026-04-26T09:47:01Z</time></trkpt><trkpt lat="43.61248042317464" lon="12.675238970022116"><ele>202.0</ele><time>2026-04-26T09:47:02Z</time></trkpt><trkpt lat="43.61230195384383" lon="12.675283537606662"><ele>201.66666666666666</ele><time>2026-04-26T09:47:03Z</time></trkpt><trkpt lat="43.612122697125834" lon="12.675325327760516"><ele>201.33333333333331</ele><time>2026-04-26T09:47:04Z</time></trkpt><trkpt lat="43.611961462652395" lon="12.675353989879726"><ele>201.0</ele><time>2026-04-26T09:47:05Z</time></trkpt><trkpt lat="43.61181230230306" lon="12.675370785695446"><ele>201.0</ele><time>2026-04-26T09:47:06Z</time></trkpt><trkpt lat="43.61164882531955" lon="12.675381971003976"><ele>201.0</ele><time>2026-04-26T09:47:07Z</time></trkpt><trkpt lat="43.61147609367219" lon="12.675398148394846"><ele>201.0</ele><time>2026-04-26T09:47:08Z</time></trkpt><trkpt lat="43.6112978967597" lon="12.675419494662071"><ele>201.66666666666669</ele><time>2026-04-26T09:47:09Z</time></trkpt><trkpt lat="43.611119627101075" lon="12.675441004811505"><ele>202.33333333333334</ele><time>2026-04-26T09:47:10Z</time></trkpt><trkpt lat="43.610940210463035" lon="12.675460964076654"><ele>203.0</ele><time>2026-04-26T09:47:11Z</time></trkpt><trkpt lat="43.61075892849514" lon="12.675475806897746"><ele>203.0</ele><time>2026-04-26T09:47:12Z</time></trkpt><trkpt lat="43.61057533002483" lon="12.675489618001698"><ele>203.0</ele><time>2026-04-26T09:47:13Z</time></trkpt><trkpt lat="43.610390947970046" lon="12.675498672256785"><ele>203.0</ele><time>2026-04-26T09:47:14Z</time></trkpt><trkpt lat="43.61020998735129" lon="12.675509323939195"><ele>203.33333333333334</ele><time>2026-04-26T09:47:15Z</time></trkpt><trkpt lat="43.610025125854555" lon="12.675522042320837"><ele>203.66666666666669</ele><time>2026-04-26T09:47:16Z</time></trkpt><trkpt lat="43.609843889688534" lon="12.675531656911554"><ele>204.0</ele><time>2026-04-26T09:47:17Z</time></trkpt><trkpt lat="43.60965745923258" lon="12.675544588078617"><ele>204.0</ele><time>2026-04-26T09:47:18Z</time></trkpt><trkpt lat="43.6094686075409" lon="12.675559344709333"><ele>204.0</ele><time>2026-04-26T09:47:19Z</time></trkpt><trkpt lat="43.60928454234089" lon="12.675573183872764"><ele>204.0</ele><time>2026-04-26T09:47:20Z</time></trkpt><trkpt lat="43.60910174453758" lon="12.675584232491195"><ele>204.0</ele><time>2026-04-26T09:47:21Z</time></trkpt><trkpt lat="43.608917564872854" lon="12.675596329231643"><ele>204.0</ele><time>2026-04-26T09:47:22Z</time></trkpt><trkpt lat="43.60873103167118" lon="12.675604537075873"><ele>204.0</ele><time>2026-04-26T09:47:23Z</time></trkpt><trkpt lat="43.60854160446302" lon="12.675613453949067"><ele>203.66666666666669</ele><time>2026-04-26T09:47:24Z</time></trkpt><trkpt lat="43.608352236754556" lon="12.67562637965345"><ele>203.33333333333334</ele><time>2026-04-26T09:47:25Z</time></trkpt><trkpt lat="43.608161442956664" lon="12.675638771121838"><ele>203.0</ele><time>2026-04-26T09:47:26Z</time></trkpt><trkpt lat="43.607968328683455" lon="12.675651173659244"><ele>204.0</ele><time>2026-04-26T09:47:27Z</time></trkpt><trkpt lat="43.60777515075798" lon="12.675662882772517"><ele>205.0</ele><time>2026-04-26T09:47:28Z</time></trkpt><trkpt lat="43.60758061634839" lon="12.67567087107593"><ele>206.0</ele><time>2026-04-26T09:47:29Z</time></trkpt><trkpt lat="43.60738565864344" lon="12.675685271208383"><ele>206.0</ele><time>2026-04-26T09:47:30Z</time></trkpt><trkpt lat="43.60719528521997" lon="12.675700648370055"><ele>206.0</ele><time>2026-04-26T09:47:31Z</time></trkpt><trkpt lat="43.60700425226585" lon="12.675715328412078"><ele>206.0</ele><time>2026-04-26T09:47:32Z</time></trkpt><trkpt lat="43.606822807094865" lon="12.675719482433452"><ele>205.33333333333334</ele><time>2026-04-26T09:47:33Z</time></trkpt><trkpt lat="43.60663510605529" lon="12.675730063161536"><ele>204.66666666666669</ele><time>2026-04-26T09:47:34Z</time></trkpt><trkpt lat="43.60644877930327" lon="12.675740253069927"><ele>204.0</ele><time>2026-04-26T09:47:35Z</time></trkpt><trkpt lat="43.60626675017173" lon="12.675752238091645"><ele>205.0</ele><time>2026-04-26T09:47:36Z</time></trkpt><trkpt lat="43.606084799381044" lon="12.675763619638616"><ele>206.0</ele><time>2026-04-26T09:47:37Z</time></trkpt><trkpt lat="43.60590635541525" lon="12.6757697609777"><ele>207.0</ele><time>2026-04-26T09:47:38Z</time></trkpt><trkpt lat="43.60572902152386" lon="12.675780828638269"><ele>207.0</ele><time>2026-04-26T09:47:39Z</time></trkpt><trkpt lat="43.60555140599472" lon="12.675794202925179"><ele>207.0</ele><time>2026-04-26T09:47:40Z</time></trkpt><trkpt lat="43.60537489620815" lon="12.67580932786606"><ele>207.0</ele><time>2026-04-26T09:47:41Z</time></trkpt><trkpt lat="43.605198626367354" lon="12.675823719367454"><ele>207.0</ele><time>2026-04-26T09:47:42Z</time></trkpt><trkpt lat="43.60501961624719" lon="12.675834488179827"><ele>207.0</ele><time>2026-04-26T09:47:43Z</time></trkpt><trkpt lat="43.60483921936868" lon="12.675842155554488"><ele>207.0</ele><time>2026-04-26T09:47:44Z</time></trkpt><trkpt lat="43.604665709700846" lon="12.675856344423376"><ele>208.33333333333331</ele><time>2026-04-26T09:47:45Z</time></trkpt><trkpt lat="43.60449400219317" lon="12.675866175932494"><ele>209.66666666666666</ele><time>2026-04-26T09:47:46Z</time></trkpt><trkpt lat="43.60432909335435" lon="12.675872092783374"><ele>211.0</ele><time>2026-04-26T09:47:47Z</time></trkpt><trkpt lat="43.60416956902826" lon="12.675878541795322"><ele>211.0</ele><time>2026-04-26T09:47:48Z</time></trkpt><trkpt lat="43.60400986327573" lon="12.675886124742354"><ele>211.0</ele><time>2026-04-26T09:47:49Z</time></trkpt><trkpt lat="43.60384724368363" lon="12.675895796475919"><ele>211.0</ele><time>2026-04-26T09:47:50Z</time></trkpt><trkpt lat="43.60368386838401" lon="12.675910754206583"><ele>211.0</ele><time>2026-04-26T09:47:51Z</time></trkpt><trkpt lat="43.60351823759761" lon="12.675925364677383"><ele>211.0</ele><time>2026-04-26T09:47:52Z</time></trkpt><trkpt lat="43.603349921954255" lon="12.675939929234401"><ele>211.0</ele><time>2026-04-26T09:47:53Z</time></trkpt><trkpt lat="43.60318087570667" lon="12.675952646693794"><ele>211.0</ele><time>2026-04-26T09:47:54Z</time></trkpt><trkpt lat="43.60301205880007" lon="12.675965143556583"><ele>211.0</ele><time>2026-04-26T09:47:55Z</time></trkpt><trkpt lat="43.60284223552504" lon="12.675976947389536"><ele>211.0</ele><time>2026-04-26T09:47:56Z</time></trkpt><trkpt lat="43.60266907671567" lon="12.675982739784775"><ele>210.66666666666666</ele><time>2026-04-26T09:47:57Z</time></trkpt><trkpt lat="43.60249706081171" lon="12.67598439999446"><ele>210.33333333333331</ele><time>2026-04-26T09:47:58Z</time></trkpt><trkpt lat="43.60232451686449" lon="12.675994120182713"><ele>210.0</ele><time>2026-04-26T09:47:59Z</time></trkpt><trkpt lat="43.60215131867565" lon="12.676003773500858"><ele>210.66666666666669</ele><time>2026-04-26T09:48:00Z</time></trkpt><trkpt lat="43.60197933485223" lon="12.676008876981301"><ele>211.33333333333334</ele><time>2026-04-26T09:48:01Z</time></trkpt><trkpt lat="43.60180580656761" lon="12.676018147552575"><ele>212.0</ele><time>2026-04-26T09:48:02Z</time></trkpt><trkpt lat="43.60163675893628" lon="12.676021487977952"><ele>212.0</ele><time>2026-04-26T09:48:03Z</time></trkpt><trkpt lat="43.601470156931455" lon="12.676026310478573"><ele>212.0</ele><time>2026-04-26T09:48:04Z</time></trkpt><trkpt lat="43.60130270277041" lon="12.676029474920746"><ele>212.0</ele><time>2026-04-26T09:48:05Z</time></trkpt><trkpt lat="43.60113354327072" lon="12.676032358950895"><ele>212.66666666666669</ele><time>2026-04-26T09:48:06Z</time></trkpt><trkpt lat="43.60096279411117" lon="12.676040141004387"><ele>213.33333333333331</ele><time>2026-04-26T09:48:07Z</time></trkpt><trkpt lat="43.60079083054176" lon="12.676043794121467"><ele>214.0</ele><time>2026-04-26T09:48:08Z</time></trkpt><trkpt lat="43.60061881436013" lon="12.676045998279173"><ele>214.0</ele><time>2026-04-26T09:48:09Z</time></trkpt><trkpt lat="43.60045023180676" lon="12.676047753211334"><ele>214.0</ele><time>2026-04-26T09:48:10Z</time></trkpt><trkpt lat="43.60028369763497" lon="12.676049449478722"><ele>214.0</ele><time>2026-04-26T09:48:11Z</time></trkpt><trkpt lat="43.60011411352977" lon="12.676053198446226"><ele>214.33333333333331</ele><time>2026-04-26T09:48:12Z</time></trkpt><trkpt lat="43.59994160473791" lon="12.676058027961693"><ele>214.66666666666669</ele><time>2026-04-26T09:48:13Z</time></trkpt><trkpt lat="43.599773381452124" lon="12.676061158534695"><ele>215.0</ele><time>2026-04-26T09:48:14Z</time></trkpt><trkpt lat="43.59961182640689" lon="12.676077324047638"><ele>215.0</ele><time>2026-04-26T09:48:15Z</time></trkpt><trkpt lat="43.599447460213376" lon="12.676077303665544"><ele>215.0</ele><time>2026-04-26T09:48:16Z</time></trkpt><trkpt lat="43.599281123220685" lon="12.67607158894352"><ele>215.0</ele><time>2026-04-26T09:48:17Z</time></trkpt><trkpt lat="43.599115693900664" lon="12.676070512164614"><ele>215.0</ele><time>2026-04-26T09:48:18Z</time></trkpt><trkpt lat="43.59894850563765" lon="12.676070567844258"><ele>215.0</ele><time>2026-04-26T09:48:19Z</time></trkpt><trkpt lat="43.59878313607875" lon="12.676071607560552"><ele>215.0</ele><time>2026-04-26T09:48:20Z</time></trkpt><trkpt lat="43.59861634783918" lon="12.676074140800125"><ele>215.66666666666669</ele><time>2026-04-26T09:48:21Z</time></trkpt><trkpt lat="43.59845237438512" lon="12.676079419164058"><ele>216.33333333333331</ele><time>2026-04-26T09:48:22Z</time></trkpt><trkpt lat="43.598292749090206" lon="12.676081274280769"><ele>217.0</ele><time>2026-04-26T09:48:23Z</time></trkpt><trkpt lat="43.598132181903736" lon="12.676086678865138"><ele>217.0</ele><time>2026-04-26T09:48:24Z</time></trkpt><trkpt lat="43.597977638986684" lon="12.676087217831173"><ele>217.0</ele><time>2026-04-26T09:48:25Z</time></trkpt><trkpt lat="43.59781887333741" lon="12.676092234682583"><ele>217.0</ele><time>2026-04-26T09:48:26Z</time></trkpt><trkpt lat="43.597659638094065" lon="12.67610039459553"><ele>217.66666666666666</ele><time>2026-04-26T09:48:27Z</time></trkpt><trkpt lat="43.59750163788746" lon="12.676100259666013"><ele>218.33333333333331</ele><time>2026-04-26T09:48:28Z</time></trkpt><trkpt lat="43.59734330570895" lon="12.676105971159608"><ele>219.0</ele><time>2026-04-26T09:48:29Z</time></trkpt><trkpt lat="43.59718557426025" lon="12.67610717664708"><ele>217.0</ele><time>2026-04-26T09:48:30Z</time></trkpt><trkpt lat="43.597015134605385" lon="12.676113761232568"><ele>215.0</ele><time>2026-04-26T09:48:31Z</time></trkpt><trkpt lat="43.59683523128932" lon="12.676113860134752"><ele>213.0</ele><time>2026-04-26T09:48:32Z</time></trkpt><trkpt lat="43.596652666712316" lon="12.676117426480612"><ele>213.0</ele><time>2026-04-26T09:48:33Z</time></trkpt><trkpt lat="43.59646199560073" lon="12.676123131987175"><ele>213.0</ele><time>2026-04-26T09:48:34Z</time></trkpt><trkpt lat="43.59626494104231" lon="12.676130367577581"><ele>213.0</ele><time>2026-04-26T09:48:35Z</time></trkpt><trkpt lat="43.596049889713655" lon="12.676115029585153"><ele>216.5</ele><time>2026-04-26T09:48:36Z</time></trkpt><trkpt lat="43.59582353487191" lon="12.676119398692096"><ele>220.0</ele><time>2026-04-26T09:48:37Z</time></trkpt><trkpt lat="43.59559220595424" lon="12.67614097075803"><ele>220.0</ele><time>2026-04-26T09:48:38Z</time></trkpt><trkpt lat="43.59536550867453" lon="12.67612990216821"><ele>220.0</ele><time>2026-04-26T09:48:39Z</time></trkpt><trkpt lat="43.59514023004836" lon="12.676129483940372"><ele>220.33333333333331</ele><time>2026-04-26T09:48:40Z</time></trkpt><trkpt lat="43.59492233166452" lon="12.676133169180465"><ele>220.66666666666669</ele><time>2026-04-26T09:48:41Z</time></trkpt><trkpt lat="43.59471082585501" lon="12.676135880563878"><ele>221.0</ele><time>2026-04-26T09:48:42Z</time></trkpt><trkpt lat="43.59449878433493" lon="12.676134472214326"><ele>220.33333333333334</ele><time>2026-04-26T09:48:43Z</time></trkpt><trkpt lat="43.59428689474758" lon="12.676137730525657"><ele>219.66666666666669</ele><time>2026-04-26T09:48:44Z</time></trkpt><trkpt lat="43.59407524329042" lon="12.676141979555185"><ele>219.0</ele><time>2026-04-26T09:48:45Z</time></trkpt><trkpt lat="43.593864136297704" lon="12.676143103202586"><ele>218.33333333333331</ele><time>2026-04-26T09:48:46Z</time></trkpt><trkpt lat="43.59366892211194" lon="12.676146420862535"><ele>217.66666666666666</ele><time>2026-04-26T09:48:47Z</time></trkpt><trkpt lat="43.59349719902264" lon="12.676146902956194"><ele>217.0</ele><time>2026-04-26T09:48:48Z</time></trkpt><trkpt lat="43.593335569164765" lon="12.676146030812454"><ele>217.0</ele><time>2026-04-26T09:48:49Z</time></trkpt><trkpt lat="43.59318151302535" lon="12.67613851252643"><ele>217.0</ele><time>2026-04-26T09:48:50Z</time></trkpt><trkpt lat="43.59302991700198" lon="12.676125837389645"><ele>217.0</ele><time>2026-04-26T09:48:51Z</time></trkpt><trkpt lat="43.59287760140199" lon="12.676107974771138"><ele>218.33333333333331</ele><time>2026-04-26T09:48:52Z</time></trkpt><trkpt lat="43.59272601460492" lon="12.676086133645187"><ele>219.66666666666669</ele><time>2026-04-26T09:48:53Z</time></trkpt><trkpt lat="43.59257368250375" lon="12.676061649545776"><ele>221.0</ele><time>2026-04-26T09:48:54Z</time></trkpt><trkpt lat="43.59242204028875" lon="12.676029155361812"><ele>221.0</ele><time>2026-04-26T09:48:55Z</time></trkpt><trkpt lat="43.5922672506346" lon="12.675987707593372"><ele>221.0</ele><time>2026-04-26T09:48:56Z</time></trkpt><trkpt lat="43.59210724587694" lon="12.675941622459169"><ele>221.0</ele><time>2026-04-26T09:48:57Z</time></trkpt><trkpt lat="43.59193769887257" lon="12.675888554684153"><ele>221.66666666666669</ele><time>2026-04-26T09:48:58Z</time></trkpt><trkpt lat="43.5917673889011" lon="12.67583136913529"><ele>222.33333333333331</ele><time>2026-04-26T09:48:59Z</time></trkpt><trkpt lat="43.59160348557021" lon="12.675772716667117"><ele>223.0</ele><time>2026-04-26T09:49:00Z</time></trkpt><trkpt lat="43.5914354287341" lon="12.675716515089325"><ele>223.0</ele><time>2026-04-26T09:49:01Z</time></trkpt><trkpt lat="43.5912650754587" lon="12.675656902809077"><ele>223.0</ele><time>2026-04-26T09:49:02Z</time></trkpt><trkpt lat="43.591091320302034" lon="12.675596683810776"><ele>223.0</ele><time>2026-04-26T09:49:03Z</time></trkpt><trkpt lat="43.59091509501466" lon="12.675539382823636"><ele>221.66666666666666</ele><time>2026-04-26T09:49:04Z</time></trkpt><trkpt lat="43.59073928944602" lon="12.675480730950271"><ele>220.33333333333331</ele><time>2026-04-26T09:49:05Z</time></trkpt><trkpt lat="43.590560794027375" lon="12.67541510677923"><ele>219.0</ele><time>2026-04-26T09:49:06Z</time></trkpt><trkpt lat="43.59037961699993" lon="12.675345137809341"><ele>217.66666666666669</ele><time>2026-04-26T09:49:07Z</time></trkpt><trkpt lat="43.590195992610724" lon="12.675273105382484"><ele>216.33333333333334</ele><time>2026-04-26T09:49:08Z</time></trkpt><trkpt lat="43.590008355548875" lon="12.67520590981293"><ele>215.0</ele><time>2026-04-26T09:49:09Z</time></trkpt><trkpt lat="43.589820545303525" lon="12.675134290082552"><ele>219.0</ele><time>2026-04-26T09:49:10Z</time></trkpt><trkpt lat="43.58963459575111" lon="12.675060890605778"><ele>223.0</ele><time>2026-04-26T09:49:11Z</time></trkpt><trkpt lat="43.589449801761404" lon="12.674988383160494"><ele>227.0</ele><time>2026-04-26T09:49:12Z</time></trkpt><trkpt lat="43.58926258290659" lon="12.674923857262227"><ele>227.0</ele><time>2026-04-26T09:49:13Z</time></trkpt><trkpt lat="43.58907620129679" lon="12.674861533157863"><ele>227.0</ele><time>2026-04-26T09:49:14Z</time></trkpt><trkpt lat="43.58888761824654" lon="12.674784512745994"><ele>227.0</ele><time>2026-04-26T09:49:15Z</time></trkpt><trkpt lat="43.58869272557174" lon="12.674710825479554"><ele>223.66666666666669</ele><time>2026-04-26T09:49:16Z</time></trkpt><trkpt lat="43.5884973114858" lon="12.674639145991062"><ele>220.33333333333331</ele><time>2026-04-26T09:49:17Z</time></trkpt><trkpt lat="43.58829582111284" lon="12.67456980021155"><ele>217.0</ele><time>2026-04-26T09:49:18Z</time></trkpt><trkpt lat="43.58809258556435" lon="12.674488587284642"><ele>220.66666666666666</ele><time>2026-04-26T09:49:19Z</time></trkpt><trkpt lat="43.58788648618307" lon="12.674411251371902"><ele>224.33333333333331</ele><time>2026-04-26T09:49:20Z</time></trkpt><trkpt lat="43.5876796931719" lon="12.67433808901443"><ele>228.0</ele><time>2026-04-26T09:49:21Z</time></trkpt><trkpt lat="43.587467450100974" lon="12.674264925591189"><ele>228.0</ele><time>2026-04-26T09:49:22Z</time></trkpt><trkpt lat="43.587256427812015" lon="12.674183548441437"><ele>228.0</ele><time>2026-04-26T09:49:23Z</time></trkpt><trkpt lat="43.58703660229309" lon="12.674103334356516"><ele>228.0</ele><time>2026-04-26T09:49:24Z</time></trkpt><trkpt lat="43.58681280225937" lon="12.67402407383721"><ele>225.0</ele><time>2026-04-26T09:49:25Z</time></trkpt><trkpt lat="43.58659052477357" lon="12.673937206514905"><ele>222.0</ele><time>2026-04-26T09:49:26Z</time></trkpt><trkpt lat="43.5863698514057" lon="12.67385718843298"><ele>219.0</ele><time>2026-04-26T09:49:27Z</time></trkpt><trkpt lat="43.58614811965928" lon="12.673780118319382"><ele>216.0</ele><time>2026-04-26T09:49:28Z</time></trkpt><trkpt lat="43.58592612795584" lon="12.673707599863546"><ele>216.0</ele><time>2026-04-26T09:49:29Z</time></trkpt><trkpt lat="43.585709545251454" lon="12.673627375673666"><ele>216.0</ele><time>2026-04-26T09:49:30Z</time></trkpt><trkpt lat="43.58548541652578" lon="12.673544640671164"><ele>219.66666666666669</ele><time>2026-04-26T09:49:31Z</time></trkpt><trkpt lat="43.585270181948275" lon="12.6734591403666"><ele>223.33333333333334</ele><time>2026-04-26T09:49:32Z</time></trkpt><trkpt lat="43.58505484852753" lon="12.673377689041015"><ele>227.0</ele><time>2026-04-26T09:49:33Z</time></trkpt><trkpt lat="43.58484295553491" lon="12.673291920438363"><ele>227.0</ele><time>2026-04-26T09:49:34Z</time></trkpt><trkpt lat="43.58463819190051" lon="12.673195930778476"><ele>227.0</ele><time>2026-04-26T09:49:35Z</time></trkpt><trkpt lat="43.58443799475857" lon="12.673096275323624"><ele>227.0</ele><time>2026-04-26T09:49:36Z</time></trkpt><trkpt lat="43.58424149976093" lon="12.67300596079591"><ele>227.0</ele><time>2026-04-26T09:49:37Z</time></trkpt><trkpt lat="43.58405265319916" lon="12.672907980302563"><ele>227.0</ele><time>2026-04-26T09:49:38Z</time></trkpt><trkpt lat="43.58386454222027" lon="12.67280443828103"><ele>227.0</ele><time>2026-04-26T09:49:39Z</time></trkpt><trkpt lat="43.58367442979781" lon="12.672696642838668"><ele>228.0</ele><time>2026-04-26T09:49:40Z</time></trkpt><trkpt lat="43.583495250527655" lon="12.672586869606032"><ele>229.0</ele><time>2026-04-26T09:49:41Z</time></trkpt><trkpt lat="43.58331316621634" lon="12.672466701553343"><ele>230.0</ele><time>2026-04-26T09:49:42Z</time></trkpt><trkpt lat="43.58313780381824" lon="12.672346256186838"><ele>230.0</ele><time>2026-04-26T09:49:43Z</time></trkpt><trkpt lat="43.582970801777606" lon="12.67222142657384"><ele>230.0</ele><time>2026-04-26T09:49:44Z</time></trkpt><trkpt lat="43.58279261438098" lon="12.67211695335527"><ele>230.0</ele><time>2026-04-26T09:49:45Z</time></trkpt><trkpt lat="43.58262781880816" lon="12.671993673862149"><ele>230.66666666666669</ele><time>2026-04-26T09:49:46Z</time></trkpt><trkpt lat="43.582466399950974" lon="12.671878622131816"><ele>231.33333333333331</ele><time>2026-04-26T09:49:47Z</time></trkpt><trkpt lat="43.582313234044626" lon="12.6717528810664"><ele>232.0</ele><time>2026-04-26T09:49:48Z</time></trkpt><trkpt lat="43.58215885421996" lon="12.67163571948789"><ele>231.0</ele><time>2026-04-26T09:49:49Z</time></trkpt><trkpt lat="43.58200492783292" lon="12.671509794453376"><ele>230.0</ele><time>2026-04-26T09:49:50Z</time></trkpt><trkpt lat="43.58184908429241" lon="12.67139377273175"><ele>229.0</ele><time>2026-04-26T09:49:51Z</time></trkpt><trkpt lat="43.58169699989404" lon="12.671278041069478"><ele>229.0</ele><time>2026-04-26T09:49:52Z</time></trkpt><trkpt lat="43.581544177425634" lon="12.671158976537297"><ele>229.0</ele><time>2026-04-26T09:49:53Z</time></trkpt><trkpt lat="43.58139690872387" lon="12.671042147284089"><ele>229.0</ele><time>2026-04-26T09:49:54Z</time></trkpt><trkpt lat="43.58124154448163" lon="12.67093049365993"><ele>229.66666666666666</ele><time>2026-04-26T09:49:55Z</time></trkpt><trkpt lat="43.5810906813516" lon="12.670817390996785"><ele>230.33333333333331</ele><time>2026-04-26T09:49:56Z</time></trkpt><trkpt lat="43.580950723782735" lon="12.670707199800466"><ele>231.0</ele><time>2026-04-26T09:49:57Z</time></trkpt><trkpt lat="43.5808192742687" lon="12.670609437653816"><ele>231.0</ele><time>2026-04-26T09:49:58Z</time></trkpt><trkpt lat="43.580688639747585" lon="12.670518607669095"><ele>231.0</ele><time>2026-04-26T09:49:59Z</time></trkpt><trkpt lat="43.58055335452021" lon="12.670417326865177"><ele>231.0</ele><time>2026-04-26T09:50:00Z</time></trkpt><trkpt lat="43.58042516685338" lon="12.670323907280599"><ele>231.0</ele><time>2026-04-26T09:50:01Z</time></trkpt><trkpt lat="43.58029919077995" lon="12.670227765630317"><ele>231.5</ele><time>2026-04-26T09:50:02Z</time></trkpt><trkpt lat="43.58017443620952" lon="12.670134369967796"><ele>232.0</ele><time>2026-04-26T09:50:03Z</time></trkpt><trkpt lat="43.5800504939028" lon="12.670042863450389"><ele>232.5</ele><time>2026-04-26T09:50:04Z</time></trkpt><trkpt lat="43.57992673589753" lon="12.669952701407803"><ele>233.0</ele><time>2026-04-26T09:50:05Z</time></trkpt><trkpt lat="43.57980646811968" lon="12.669857034861177"><ele>233.0</ele><time>2026-04-26T09:50:06Z</time></trkpt><trkpt lat="43.57968428677004" lon="12.669762738837585"><ele>233.0</ele><time>2026-04-26T09:50:07Z</time></trkpt><trkpt lat="43.579561518618064" lon="12.669666865392822"><ele>233.0</ele><time>2026-04-26T09:50:08Z</time></trkpt><trkpt lat="43.57943708695929" lon="12.669573507700555"><ele>233.0</ele><time>2026-04-26T09:50:09Z</time></trkpt><trkpt lat="43.57931423957831" lon="12.669477334300622"><ele>234.5</ele><time>2026-04-26T09:50:10Z</time></trkpt><trkpt lat="43.5791919116312" lon="12.669378479785019"><ele>236.0</ele><time>2026-04-26T09:50:11Z</time></trkpt><trkpt lat="43.57906427309834" lon="12.669280999890024"><ele>237.5</ele><time>2026-04-26T09:50:12Z</time></trkpt><trkpt lat="43.578938608890894" lon="12.669180440711836"><ele>239.0</ele><time>2026-04-26T09:50:13Z</time></trkpt><trkpt lat="43.57881254258461" lon="12.669079994933941"><ele>237.75</ele><time>2026-04-26T09:50:14Z</time></trkpt><trkpt lat="43.57868363025391" lon="12.66898604831797"><ele>236.5</ele><time>2026-04-26T09:50:15Z</time></trkpt><trkpt lat="43.57855097069026" lon="12.668892615095382"><ele>235.25</ele><time>2026-04-26T09:50:16Z</time></trkpt><trkpt lat="43.57841273915687" lon="12.668801620747402"><ele>234.0</ele><time>2026-04-26T09:50:17Z</time></trkpt><trkpt lat="43.578283106412506" lon="12.668706799838265"><ele>235.66666666666669</ele><time>2026-04-26T09:50:18Z</time></trkpt><trkpt lat="43.57815239046776" lon="12.668608499523087"><ele>237.33333333333334</ele><time>2026-04-26T09:50:19Z</time></trkpt><trkpt lat="43.57801602715417" lon="12.668505734398988"><ele>239.0</ele><time>2026-04-26T09:50:20Z</time></trkpt><trkpt lat="43.57787059186213" lon="12.66839328677785"><ele>237.33333333333334</ele><time>2026-04-26T09:50:21Z</time></trkpt><trkpt lat="43.577725075854914" lon="12.668280886196037"><ele>235.66666666666669</ele><time>2026-04-26T09:50:22Z</time></trkpt><trkpt lat="43.577579442069414" lon="12.668166041292354"><ele>234.0</ele><time>2026-04-26T09:50:23Z</time></trkpt><trkpt lat="43.57742667975036" lon="12.668059335181495"><ele>234.0</ele><time>2026-04-26T09:50:24Z</time></trkpt><trkpt lat="43.57727303939967" lon="12.667945827899386"><ele>234.0</ele><time>2026-04-26T09:50:25Z</time></trkpt><trkpt lat="43.57711805854758" lon="12.667833929801787"><ele>234.0</ele><time>2026-04-26T09:50:26Z</time></trkpt><trkpt lat="43.576960452393386" lon="12.667718825281234"><ele>234.66666666666669</ele><time>2026-04-26T09:50:27Z</time></trkpt><trkpt lat="43.57680287874167" lon="12.667601220234427"><ele>235.33333333333334</ele><time>2026-04-26T09:50:28Z</time></trkpt><trkpt lat="43.576641962354195" lon="12.667481940036001"><ele>236.0</ele><time>2026-04-26T09:50:29Z</time></trkpt><trkpt lat="43.57647965482021" lon="12.667360789608137"><ele>236.0</ele><time>2026-04-26T09:50:30Z</time></trkpt><trkpt lat="43.57631480120342" lon="12.667240535195813"><ele>236.0</ele><time>2026-04-26T09:50:31Z</time></trkpt><trkpt lat="43.57615462443177" lon="12.667111017295419"><ele>236.0</ele><time>2026-04-26T09:50:32Z</time></trkpt><trkpt lat="43.57598851643722" lon="12.66698109536232"><ele>237.0</ele><time>2026-04-26T09:50:33Z</time></trkpt><trkpt lat="43.57581821437102" lon="12.666850492679096"><ele>238.0</ele><time>2026-04-26T09:50:34Z</time></trkpt><trkpt lat="43.57564315784571" lon="12.66671802903169"><ele>239.0</ele><time>2026-04-26T09:50:35Z</time></trkpt><trkpt lat="43.57546214453024" lon="12.666585788606856"><ele>238.0</ele><time>2026-04-26T09:50:36Z</time></trkpt><trkpt lat="43.57528006782768" lon="12.666452791046213"><ele>237.0</ele><time>2026-04-26T09:50:37Z</time></trkpt><trkpt lat="43.57509482460556" lon="12.666309052158116"><ele>236.0</ele><time>2026-04-26T09:50:38Z</time></trkpt><trkpt lat="43.57491033814479" lon="12.66616571950035"><ele>236.66666666666669</ele><time>2026-04-26T09:50:39Z</time></trkpt><trkpt lat="43.57472538534878" lon="12.666020942195189"><ele>237.33333333333331</ele><time>2026-04-26T09:50:40Z</time></trkpt><trkpt lat="43.57453983181474" lon="12.665875677456519"><ele>238.0</ele><time>2026-04-26T09:50:41Z</time></trkpt><trkpt lat="43.57435255189113" lon="12.665732788346153"><ele>238.0</ele><time>2026-04-26T09:50:42Z</time></trkpt><trkpt lat="43.57417999536041" lon="12.665583605637998"><ele>238.0</ele><time>2026-04-26T09:50:43Z</time></trkpt><trkpt lat="43.57398943755012" lon="12.665447431413728"><ele>238.0</ele><time>2026-04-26T09:50:44Z</time></trkpt><trkpt lat="43.57379706186214" lon="12.665306966064524"><ele>236.33333333333331</ele><time>2026-04-26T09:50:45Z</time></trkpt><trkpt lat="43.573608748585045" lon="12.665167087359917"><ele>234.66666666666669</ele><time>2026-04-26T09:50:46Z</time></trkpt><trkpt lat="43.57342051715742" lon="12.665027264156059"><ele>233.0</ele><time>2026-04-26T09:50:47Z</time></trkpt><trkpt lat="43.5732319406941" lon="12.664889714339397"><ele>233.0</ele><time>2026-04-26T09:50:48Z</time></trkpt><trkpt lat="43.57304412903037" lon="12.664749970214965"><ele>233.0</ele><time>2026-04-26T09:50:49Z</time></trkpt><trkpt lat="43.57286104372333" lon="12.664610016772343"><ele>233.0</ele><time>2026-04-26T09:50:50Z</time></trkpt><trkpt lat="43.57267505444795" lon="12.664472442891832"><ele>235.33333333333334</ele><time>2026-04-26T09:50:51Z</time></trkpt><trkpt lat="43.57248927199273" lon="12.664338746951085"><ele>237.66666666666669</ele><time>2026-04-26T09:50:52Z</time></trkpt><trkpt lat="43.57230545615124" lon="12.66420715517935"><ele>240.0</ele><time>2026-04-26T09:50:53Z</time></trkpt><trkpt lat="43.57212504752074" lon="12.664070327183635"><ele>240.0</ele><time>2026-04-26T09:50:54Z</time></trkpt><trkpt lat="43.57194301916057" lon="12.663935830623391"><ele>240.0</ele><time>2026-04-26T09:50:55Z</time></trkpt><trkpt lat="43.57176059858436" lon="12.663802712166158"><ele>240.0</ele><time>2026-04-26T09:50:56Z</time></trkpt><trkpt lat="43.5715788540982" lon="12.663670049514907"><ele>240.33333333333331</ele><time>2026-04-26T09:50:57Z</time></trkpt><trkpt lat="43.57140072865686" lon="12.663535967425355"><ele>240.66666666666666</ele><time>2026-04-26T09:50:58Z</time></trkpt><trkpt lat="43.571225004990815" lon="12.663402321604305"><ele>241.0</ele><time>2026-04-26T09:50:59Z</time></trkpt><trkpt lat="43.5710459418341" lon="12.663268940819911"><ele>241.0</ele><time>2026-04-26T09:51:00Z</time></trkpt><trkpt lat="43.57087081743779" lon="12.663132334183949"><ele>241.0</ele><time>2026-04-26T09:51:01Z</time></trkpt><trkpt lat="43.57069506164189" lon="12.662998401091247"><ele>241.0</ele><time>2026-04-26T09:51:02Z</time></trkpt><trkpt lat="43.57052027552137" lon="12.662865578729782"><ele>242.66666666666666</ele><time>2026-04-26T09:51:03Z</time></trkpt><trkpt lat="43.57034387309822" lon="12.662734849902536"><ele>244.33333333333331</ele><time>2026-04-26T09:51:04Z</time></trkpt><trkpt lat="43.57016783199906" lon="12.662604354766037"><ele>246.0</ele><time>2026-04-26T09:51:05Z</time></trkpt><trkpt lat="43.569993081975035" lon="12.662478230389336"><ele>246.0</ele><time>2026-04-26T09:51:06Z</time></trkpt><trkpt lat="43.569820498935606" lon="12.662346854740703"><ele>246.0</ele><time>2026-04-26T09:51:07Z</time></trkpt><trkpt lat="43.5696463993585" lon="12.662216970193757"><ele>246.0</ele><time>2026-04-26T09:51:08Z</time></trkpt><trkpt lat="43.56947688525095" lon="12.662083428674753"><ele>246.33333333333331</ele><time>2026-04-26T09:51:09Z</time></trkpt><trkpt lat="43.56930283190184" lon="12.66195241237566"><ele>246.66666666666666</ele><time>2026-04-26T09:51:10Z</time></trkpt><trkpt lat="43.5691298874465" lon="12.661821032880866"><ele>247.0</ele><time>2026-04-26T09:51:11Z</time></trkpt><trkpt lat="43.56895501156729" lon="12.661688917410864"><ele>247.0</ele><time>2026-04-26T09:51:12Z</time></trkpt><trkpt lat="43.568782315429814" lon="12.661558705342955"><ele>247.0</ele><time>2026-04-26T09:51:13Z</time></trkpt><trkpt lat="43.56860362387507" lon="12.661441643869416"><ele>247.0</ele><time>2026-04-26T09:51:14Z</time></trkpt><trkpt lat="43.56843499640829" lon="12.661311244736613"><ele>246.66666666666666</ele><time>2026-04-26T09:51:15Z</time></trkpt><trkpt lat="43.56826233737942" lon="12.661194666267628"><ele>246.33333333333331</ele><time>2026-04-26T09:51:16Z</time></trkpt><trkpt lat="43.568086777220564" lon="12.661081277663092"><ele>246.0</ele><time>2026-04-26T09:51:17Z</time></trkpt><trkpt lat="43.5679026981041" lon="12.660985092044234"><ele>247.0</ele><time>2026-04-26T09:51:18Z</time></trkpt><trkpt lat="43.56772667286931" lon="12.660869879315264"><ele>248.0</ele><time>2026-04-26T09:51:19Z</time></trkpt><trkpt lat="43.567557836837025" lon="12.660736589045772"><ele>249.0</ele><time>2026-04-26T09:51:20Z</time></trkpt><trkpt lat="43.567382100134445" lon="12.660622459990876"><ele>249.0</ele><time>2026-04-26T09:51:21Z</time></trkpt><trkpt lat="43.5672050214268" lon="12.660508801653936"><ele>249.0</ele><time>2026-04-26T09:51:22Z</time></trkpt><trkpt lat="43.56703181460182" lon="12.660399108552387"><ele>249.0</ele><time>2026-04-26T09:51:23Z</time></trkpt><trkpt lat="43.566859305513645" lon="12.660303296288326"><ele>250.33333333333331</ele><time>2026-04-26T09:51:24Z</time></trkpt><trkpt lat="43.56669576658164" lon="12.660195582447894"><ele>251.66666666666666</ele><time>2026-04-26T09:51:25Z</time></trkpt><trkpt lat="43.56653796738426" lon="12.660086905559588"><ele>253.0</ele><time>2026-04-26T09:51:26Z</time></trkpt><trkpt lat="43.56638583164369" lon="12.659985881027858"><ele>253.0</ele><time>2026-04-26T09:51:27Z</time></trkpt><trkpt lat="43.566240618802794" lon="12.659883086829952"><ele>253.0</ele><time>2026-04-26T09:51:28Z</time></trkpt><trkpt lat="43.56609328651281" lon="12.659793018717794"><ele>253.0</ele><time>2026-04-26T09:51:29Z</time></trkpt><trkpt lat="43.565947545949555" lon="12.659703710491"><ele>252.33333333333331</ele><time>2026-04-26T09:51:30Z</time></trkpt><trkpt lat="43.56579299363433" lon="12.659607866284697"><ele>251.66666666666669</ele><time>2026-04-26T09:51:31Z</time></trkpt><trkpt lat="43.565642787093594" lon="12.659513647705666"><ele>251.0</ele><time>2026-04-26T09:51:32Z</time></trkpt><trkpt lat="43.56548986562543" lon="12.659415561231057"><ele>251.0</ele><time>2026-04-26T09:51:33Z</time></trkpt><trkpt lat="43.565335862391535" lon="12.659311298772774"><ele>251.0</ele><time>2026-04-26T09:51:34Z</time></trkpt><trkpt lat="43.56518031950969" lon="12.65920256353067"><ele>251.0</ele><time>2026-04-26T09:51:35Z</time></trkpt><trkpt lat="43.56503613204986" lon="12.65909178092955"><ele>251.0</ele><time>2026-04-26T09:51:36Z</time></trkpt><trkpt lat="43.56490267315635" lon="12.658977989202656"><ele>251.0</ele><time>2026-04-26T09:51:37Z</time></trkpt><trkpt lat="43.56476920067479" lon="12.658858052309965"><ele>251.0</ele><time>2026-04-26T09:51:38Z</time></trkpt><trkpt lat="43.56463801197913" lon="12.658729519130885"><ele>251.0</ele><time>2026-04-26T09:51:39Z</time></trkpt><trkpt lat="43.56450612053957" lon="12.6585880162043"><ele>251.0</ele><time>2026-04-26T09:51:40Z</time></trkpt><trkpt lat="43.56437339510033" lon="12.65844007115863"><ele>251.0</ele><time>2026-04-26T09:51:41Z</time></trkpt><trkpt lat="43.56424298919897" lon="12.658282067569443"><ele>251.0</ele><time>2026-04-26T09:51:42Z</time></trkpt><trkpt lat="43.56411872980279" lon="12.658108482155038"><ele>251.0</ele><time>2026-04-26T09:51:43Z</time></trkpt><trkpt lat="43.564001283701664" lon="12.657925161941373"><ele>251.0</ele><time>2026-04-26T09:51:44Z</time></trkpt><trkpt lat="43.56389736363737" lon="12.657722538221424"><ele>251.33333333333334</ele><time>2026-04-26T09:51:45Z</time></trkpt><trkpt lat="43.56380523983964" lon="12.657507461353946"><ele>251.66666666666669</ele><time>2026-04-26T09:51:46Z</time></trkpt><trkpt lat="43.56372578072785" lon="12.657281161881548"><ele>252.0</ele><time>2026-04-26T09:51:47Z</time></trkpt><trkpt lat="43.563654846995426" lon="12.657050987893419"><ele>250.0</ele><time>2026-04-26T09:51:48Z</time></trkpt><trkpt lat="43.56359351015751" lon="12.656819541338232"><ele>248.0</ele><time>2026-04-26T09:51:49Z</time></trkpt><trkpt lat="43.56354100065691" lon="12.656583355436313"><ele>246.0</ele><time>2026-04-26T09:51:50Z</time></trkpt><trkpt lat="43.563487172021844" lon="12.65634147979978"><ele>245.33333333333331</ele><time>2026-04-26T09:51:51Z</time></trkpt><trkpt lat="43.5634438516142" lon="12.65609421055061"><ele>244.66666666666666</ele><time>2026-04-26T09:51:52Z</time></trkpt><trkpt lat="43.56339922580632" lon="12.655845709474255"><ele>244.0</ele><time>2026-04-26T09:51:53Z</time></trkpt><trkpt lat="43.56334864165475" lon="12.655595323146695"><ele>244.0</ele><time>2026-04-26T09:51:54Z</time></trkpt><trkpt lat="43.56328773761127" lon="12.65534683849314"><ele>244.0</ele><time>2026-04-26T09:51:55Z</time></trkpt><trkpt lat="43.563212252249556" lon="12.655103669101255"><ele>244.0</ele><time>2026-04-26T09:51:56Z</time></trkpt><trkpt lat="43.563125144942745" lon="12.654865380833094"><ele>244.33333333333331</ele><time>2026-04-26T09:51:57Z</time></trkpt><trkpt lat="43.56302819880405" lon="12.65463601244038"><ele>244.66666666666669</ele><time>2026-04-26T09:51:58Z</time></trkpt><trkpt lat="43.56291225342779" lon="12.654421042301768"><ele>245.0</ele><time>2026-04-26T09:51:59Z</time></trkpt><trkpt lat="43.562789091541326" lon="12.65421663673366"><ele>247.33333333333334</ele><time>2026-04-26T09:52:00Z</time></trkpt><trkpt lat="43.56266045150452" lon="12.65401868974689"><ele>249.66666666666669</ele><time>2026-04-26T09:52:01Z</time></trkpt><trkpt lat="43.56252309752332" lon="12.653836269412153"><ele>252.0</ele><time>2026-04-26T09:52:02Z</time></trkpt><trkpt lat="43.56238554364516" lon="12.653674952706897"><ele>253.0</ele><time>2026-04-26T09:52:03Z</time></trkpt><trkpt lat="43.562252285319936" lon="12.653533568250037"><ele>254.0</ele><time>2026-04-26T09:52:04Z</time></trkpt><trkpt lat="43.56212743004004" lon="12.653412671786946"><ele>255.0</ele><time>2026-04-26T09:52:05Z</time></trkpt><trkpt lat="43.562018376732176" lon="12.653307107503803"><ele>255.0</ele><time>2026-04-26T09:52:06Z</time></trkpt><trkpt lat="43.561925181152986" lon="12.65321709870773"><ele>255.0</ele><time>2026-04-26T09:52:07Z</time></trkpt><trkpt lat="43.561846532497235" lon="12.653143307458835"><ele>255.0</ele><time>2026-04-26T09:52:08Z</time></trkpt><trkpt lat="43.56177119169138" lon="12.653077588544571"><ele>255.0</ele><time>2026-04-26T09:52:09Z</time></trkpt><trkpt lat="43.56170116887656" lon="12.653015297552038"><ele>255.0</ele><time>2026-04-26T09:52:10Z</time></trkpt><trkpt lat="43.56162940618684" lon="12.652954670915516"><ele>255.0</ele><time>2026-04-26T09:52:11Z</time></trkpt><trkpt lat="43.56154932230645" lon="12.65288731933509"><ele>255.0</ele><time>2026-04-26T09:52:12Z</time></trkpt><trkpt lat="43.56145728663682" lon="12.652813146296278"><ele>255.0</ele><time>2026-04-26T09:52:13Z</time></trkpt><trkpt lat="43.56135688877888" lon="12.652733730318833"><ele>255.0</ele><time>2026-04-26T09:52:14Z</time></trkpt><trkpt lat="43.56124837059159" lon="12.65265116247312"><ele>255.0</ele><time>2026-04-26T09:52:15Z</time></trkpt><trkpt lat="43.56113564928472" lon="12.652562350252323"><ele>256.0</ele><time>2026-04-26T09:52:16Z</time></trkpt><trkpt lat="43.56102319628954" lon="12.652474855540264"><ele>257.0</ele><time>2026-04-26T09:52:17Z</time></trkpt><trkpt lat="43.56091537686491" lon="12.65239219727814"><ele>258.0</ele><time>2026-04-26T09:52:18Z</time></trkpt><trkpt lat="43.56081070090078" lon="12.65230733718089"><ele>259.0</ele><time>2026-04-26T09:52:19Z</time></trkpt><trkpt lat="43.560707984791" lon="12.652218448081733"><ele>259.0</ele><time>2026-04-26T09:52:20Z</time></trkpt><trkpt lat="43.56060700470103" lon="12.652127647115332"><ele>259.0</ele><time>2026-04-26T09:52:21Z</time></trkpt><trkpt lat="43.56049920277908" lon="12.652039975447657"><ele>259.0</ele><time>2026-04-26T09:52:22Z</time></trkpt><trkpt lat="43.56039596942511" lon="12.65194573471058"><ele>259.0</ele><time>2026-04-26T09:52:23Z</time></trkpt><trkpt lat="43.56029427594099" lon="12.651850515795486"><ele>261.25</ele><time>2026-04-26T09:52:24Z</time></trkpt><trkpt lat="43.56019167833646" lon="12.65175598221032"><ele>263.5</ele><time>2026-04-26T09:52:25Z</time></trkpt><trkpt lat="43.56008447874202" lon="12.651659282367596"><ele>265.75</ele><time>2026-04-26T09:52:26Z</time></trkpt><trkpt lat="43.559976542193816" lon="12.651550584977533"><ele>268.0</ele><time>2026-04-26T09:52:27Z</time></trkpt><trkpt lat="43.55987122386168" lon="12.65142424710275"><ele>268.0</ele><time>2026-04-26T09:52:28Z</time></trkpt><trkpt lat="43.55976883738853" lon="12.651287123905153"><ele>268.0</ele><time>2026-04-26T09:52:29Z</time></trkpt><trkpt lat="43.55966135015368" lon="12.651153894921956"><ele>268.0</ele><time>2026-04-26T09:52:30Z</time></trkpt><trkpt lat="43.559551527413696" lon="12.651026383752733"><ele>268.0</ele><time>2026-04-26T09:52:31Z</time></trkpt><trkpt lat="43.55945123148439" lon="12.650900966534735"><ele>268.2</ele><time>2026-04-26T09:52:32Z</time></trkpt><trkpt lat="43.55936015249904" lon="12.650790789975305"><ele>268.4</ele><time>2026-04-26T09:52:33Z</time></trkpt><trkpt lat="43.559297128034636" lon="12.650682667055174"><ele>268.59999999999997</ele><time>2026-04-26T09:52:34Z</time></trkpt><trkpt lat="43.559267339148995" lon="12.650568048764162"><ele>268.8</ele><time>2026-04-26T09:52:35Z</time></trkpt><trkpt lat="43.55927218628748" lon="12.650459731300277"><ele>269.0</ele><time>2026-04-26T09:52:36Z</time></trkpt><trkpt lat="43.55932009579781" lon="12.650375202757035"><ele>269.0</ele><time>2026-04-26T09:52:37Z</time></trkpt><trkpt lat="43.55937491985105" lon="12.650327138309581"><ele>269.0</ele><time>2026-04-26T09:52:38Z</time></trkpt><trkpt lat="43.55945065935006" lon="12.650322663941258"><ele>269.0</ele><time>2026-04-26T09:52:40Z</time></trkpt><trkpt lat="43.559527910739675" lon="12.650422855960562"><ele>269.0</ele><time>2026-04-26T09:52:42Z</time></trkpt><trkpt lat="43.55955277942276" lon="12.65052171616056"><ele>269.0</ele><time>2026-04-26T09:52:43Z</time></trkpt><trkpt lat="43.55956814190302" lon="12.650657744983071"><ele>269.0</ele><time>2026-04-26T09:52:44Z</time></trkpt><trkpt lat="43.559595885969806" lon="12.650802022373652"><ele>268.75</ele><time>2026-04-26T09:52:45Z</time></trkpt><trkpt lat="43.559672356265125" lon="12.65093829746525"><ele>268.5</ele><time>2026-04-26T09:52:46Z</time></trkpt><trkpt lat="43.55974795801049" lon="12.651085111271954"><ele>268.25</ele><time>2026-04-26T09:52:47Z</time></trkpt><trkpt lat="43.55983748234929" lon="12.651221183029502"><ele>268.0</ele><time>2026-04-26T09:52:48Z</time></trkpt><trkpt lat="43.559942619299946" lon="12.651348671701752"><ele>268.0</ele><time>2026-04-26T09:52:49Z</time></trkpt><trkpt lat="43.56005663615724" lon="12.651474743684831"><ele>268.0</ele><time>2026-04-26T09:52:50Z</time></trkpt><trkpt lat="43.56017929184587" lon="12.651601553626364"><ele>268.0</ele><time>2026-04-26T09:52:51Z</time></trkpt><trkpt lat="43.56030354092592" lon="12.651721116741916"><ele>267.25</ele><time>2026-04-26T09:52:52Z</time></trkpt><trkpt lat="43.56042901498011" lon="12.651826390058048"><ele>266.5</ele><time>2026-04-26T09:52:53Z</time></trkpt><trkpt lat="43.56054437313174" lon="12.65190628040212"><ele>265.75</ele><time>2026-04-26T09:52:54Z</time></trkpt><trkpt lat="43.5606476688927" lon="12.651970080683446"><ele>265.0</ele><time>2026-04-26T09:52:55Z</time></trkpt><trkpt lat="43.560736781446586" lon="12.652021927589328"><ele>264.0</ele><time>2026-04-26T09:52:56Z</time></trkpt><trkpt lat="43.56079659457693" lon="12.65210302785215"><ele>263.0</ele><time>2026-04-26T09:52:57Z</time></trkpt><trkpt lat="43.560850884830025" lon="12.652226263390085"><ele>262.0</ele><time>2026-04-26T09:52:59Z</time></trkpt><trkpt lat="43.56079032983027" lon="12.652349815135565"><ele>261.0</ele><time>2026-04-26T09:53:01Z</time></trkpt><trkpt lat="43.5607551275394" lon="12.652423499144597"><ele>260.0</ele><time>2026-04-26T09:53:02Z</time></trkpt><trkpt lat="43.56072683201092" lon="12.652518719583657"><ele>259.0</ele><time>2026-04-26T09:53:03Z</time></trkpt><trkpt lat="43.56071884998179" lon="12.6526634426367"><ele>257.2</ele><time>2026-04-26T09:53:04Z</time></trkpt><trkpt lat="43.56072374953753" lon="12.652806992369575"><ele>255.39999999999998</ele><time>2026-04-26T09:53:05Z</time></trkpt><trkpt lat="43.560726166517526" lon="12.652960775676922"><ele>253.6</ele><time>2026-04-26T09:53:06Z</time></trkpt><trkpt lat="43.56073888810879" lon="12.653127390078899"><ele>251.8</ele><time>2026-04-26T09:53:07Z</time></trkpt><trkpt lat="43.56075582360586" lon="12.653278455818432"><ele>250.0</ele><time>2026-04-26T09:53:08Z</time></trkpt><trkpt lat="43.560762026115135" lon="12.653398637370678"><ele>249.99999999999997</ele><time>2026-04-26T09:53:09Z</time></trkpt><trkpt lat="43.560776581252654" lon="12.653487112765214"><ele>250.0</ele><time>2026-04-26T09:53:10Z</time></trkpt><trkpt lat="43.560769739743506" lon="12.653585320648755"><ele>250.0</ele><time>2026-04-26T09:53:12Z</time></trkpt><trkpt lat="43.56075039883462" lon="12.653670645458586"><ele>250.0</ele><time>2026-04-26T09:53:14Z</time></trkpt><trkpt lat="43.56073323583438" lon="12.653825959611172"><ele>249.99999999999997</ele><time>2026-04-26T09:53:16Z</time></trkpt><trkpt lat="43.56070917866313" lon="12.653925469505328"><ele>250.0</ele><time>2026-04-26T09:53:17Z</time></trkpt><trkpt lat="43.5606886035351" lon="12.65402919232707"><ele>248.99999999999997</ele><time>2026-04-26T09:53:18Z</time></trkpt><trkpt lat="43.56066835079359" lon="12.654133391311422"><ele>248.0</ele><time>2026-04-26T09:53:19Z</time></trkpt><trkpt lat="43.560649580690196" lon="12.654270233237341"><ele>247.0</ele><time>2026-04-26T09:53:21Z</time></trkpt><trkpt lat="43.560606209923826" lon="12.654339300939073"><ele>246.0</ele><time>2026-04-26T09:53:24Z</time></trkpt><trkpt lat="43.56049124396839" lon="12.654303822644984"><ele>244.99999999999997</ele><time>2026-04-26T09:53:26Z</time></trkpt><trkpt lat="43.5604191317332" lon="12.654254578615015"><ele>244.0</ele><time>2026-04-26T09:53:27Z</time></trkpt><trkpt lat="43.56033228632225" lon="12.654230014949002"><ele>243.79999999999998</ele><time>2026-04-26T09:53:28Z</time></trkpt><trkpt lat="43.560230171244974" lon="12.654218295872885"><ele>243.59999999999997</ele><time>2026-04-26T09:53:29Z</time></trkpt><trkpt lat="43.56012517482748" lon="12.654227021832464"><ele>243.4</ele><time>2026-04-26T09:53:30Z</time></trkpt><trkpt lat="43.56001303562267" lon="12.654240017599962"><ele>243.2</ele><time>2026-04-26T09:53:31Z</time></trkpt><trkpt lat="43.5598928019166" lon="12.654228638590826"><ele>243.0</ele><time>2026-04-26T09:53:32Z</time></trkpt><trkpt lat="43.55976784402409" lon="12.654253195964563"><ele>243.0</ele><time>2026-04-26T09:53:33Z</time></trkpt><trkpt lat="43.5596408374423" lon="12.654245170193215"><ele>243.0</ele><time>2026-04-26T09:53:34Z</time></trkpt><trkpt lat="43.55950808953543" lon="12.6542333058756"><ele>243.0</ele><time>2026-04-26T09:53:35Z</time></trkpt><trkpt lat="43.55937500985166" lon="12.6542187574435"><ele>243.0</ele><time>2026-04-26T09:53:36Z</time></trkpt><trkpt lat="43.55924936028418" lon="12.654199269251421"><ele>242.4</ele><time>2026-04-26T09:53:37Z</time></trkpt><trkpt lat="43.559133865364146" lon="12.654173267803"><ele>241.8</ele><time>2026-04-26T09:53:38Z</time></trkpt><trkpt lat="43.55902290165882" lon="12.654146959283887"><ele>241.2</ele><time>2026-04-26T09:53:39Z</time></trkpt><trkpt lat="43.55891773746835" lon="12.654119623295081"><ele>240.6</ele><time>2026-04-26T09:53:40Z</time></trkpt><trkpt lat="43.55881587952414" lon="12.654094105315579"><ele>240.0</ele><time>2026-04-26T09:53:41Z</time></trkpt><trkpt lat="43.55871801891673" lon="12.654067955300162"><ele>239.6</ele><time>2026-04-26T09:53:42Z</time></trkpt><trkpt lat="43.55862075189781" lon="12.654048182495824"><ele>239.2</ele><time>2026-04-26T09:53:43Z</time></trkpt><trkpt lat="43.558522628603136" lon="12.65402962739942"><ele>238.8</ele><time>2026-04-26T09:53:44Z</time></trkpt><trkpt lat="43.55842206252731" lon="12.654013726572318"><ele>238.4</ele><time>2026-04-26T09:53:45Z</time></trkpt><trkpt lat="43.558323026161034" lon="12.653992809416863"><ele>238.0</ele><time>2026-04-26T09:53:46Z</time></trkpt><trkpt lat="43.55821996391398" lon="12.653973246159621"><ele>238.0</ele><time>2026-04-26T09:53:47Z</time></trkpt><trkpt lat="43.55811499441785" lon="12.653952928359406"><ele>238.0</ele><time>2026-04-26T09:53:48Z</time></trkpt><trkpt lat="43.55800989007035" lon="12.65392979917829"><ele>238.0</ele><time>2026-04-26T09:53:49Z</time></trkpt><trkpt lat="43.55790615499054" lon="12.653897393203119"><ele>238.0</ele><time>2026-04-26T09:53:50Z</time></trkpt><trkpt lat="43.557803693306155" lon="12.653859222361527"><ele>238.0</ele><time>2026-04-26T09:53:51Z</time></trkpt><trkpt lat="43.55770476936808" lon="12.653813710421018"><ele>238.4</ele><time>2026-04-26T09:53:52Z</time></trkpt><trkpt lat="43.55761161554302" lon="12.65376002706626"><ele>238.8</ele><time>2026-04-26T09:53:53Z</time></trkpt><trkpt lat="43.557520179004804" lon="12.653706927824292"><ele>239.2</ele><time>2026-04-26T09:53:54Z</time></trkpt><trkpt lat="43.55743053926567" lon="12.65364841640755"><ele>239.6</ele><time>2026-04-26T09:53:55Z</time></trkpt><trkpt lat="43.55733958276982" lon="12.653590372934785"><ele>240.0</ele><time>2026-04-26T09:53:56Z</time></trkpt><trkpt lat="43.557249033173775" lon="12.653528558042934"><ele>241.0</ele><time>2026-04-26T09:53:57Z</time></trkpt><trkpt lat="43.55715881624255" lon="12.653470869398936"><ele>242.0</ele><time>2026-04-26T09:53:58Z</time></trkpt><trkpt lat="43.55707093442596" lon="12.653411681719895"><ele>243.0</ele><time>2026-04-26T09:53:59Z</time></trkpt><trkpt lat="43.556984600553314" lon="12.65335345792269"><ele>244.0</ele><time>2026-04-26T09:54:00Z</time></trkpt><trkpt lat="43.556893672642765" lon="12.653295356722973"><ele>245.0</ele><time>2026-04-26T09:54:01Z</time></trkpt><trkpt lat="43.55680511860967" lon="12.65323432626367"><ele>245.0</ele><time>2026-04-26T09:54:02Z</time></trkpt><trkpt lat="43.55671861504026" lon="12.65316723921369"><ele>245.0</ele><time>2026-04-26T09:54:03Z</time></trkpt><trkpt lat="43.55663261167771" lon="12.653095871948432"><ele>245.0</ele><time>2026-04-26T09:54:04Z</time></trkpt><trkpt lat="43.55654923311784" lon="12.653017848106886"><ele>245.0</ele><time>2026-04-26T09:54:05Z</time></trkpt><trkpt lat="43.55647291906086" lon="12.652924486061707"><ele>245.0</ele><time>2026-04-26T09:54:06Z</time></trkpt><trkpt lat="43.556401679853664" lon="12.652820291289643"><ele>244.8</ele><time>2026-04-26T09:54:07Z</time></trkpt><trkpt lat="43.55632785970622" lon="12.652713591375182"><ele>244.6</ele><time>2026-04-26T09:54:08Z</time></trkpt><trkpt lat="43.55625183975552" lon="12.6526096524135"><ele>244.39999999999998</ele><time>2026-04-26T09:54:09Z</time></trkpt><trkpt lat="43.556168718509085" lon="12.652518747113726"><ele>244.2</ele><time>2026-04-26T09:54:10Z</time></trkpt><trkpt lat="43.556075442818106" lon="12.652446945742312"><ele>244.0</ele><time>2026-04-26T09:54:11Z</time></trkpt><trkpt lat="43.555974647249045" lon="12.652394770844907"><ele>244.0</ele><time>2026-04-26T09:54:12Z</time></trkpt><trkpt lat="43.55587148762548" lon="12.65235724769285"><ele>243.99999999999997</ele><time>2026-04-26T09:54:13Z</time></trkpt><trkpt lat="43.55576445626134" lon="12.652326694518885"><ele>243.99999999999997</ele><time>2026-04-26T09:54:14Z</time></trkpt><trkpt lat="43.55565912443484" lon="12.652298251285854"><ele>244.0</ele><time>2026-04-26T09:54:15Z</time></trkpt><trkpt lat="43.5555620464302" lon="12.652264185342927"><ele>244.0</ele><time>2026-04-26T09:54:16Z</time></trkpt><trkpt lat="43.5554702658056" lon="12.652266226776222"><ele>244.0</ele><time>2026-04-26T09:54:17Z</time></trkpt><trkpt lat="43.555384042917446" lon="12.652296675958958"><ele>243.99999999999997</ele><time>2026-04-26T09:54:18Z</time></trkpt><trkpt lat="43.555273902088736" lon="12.652308198902297"><ele>243.99999999999997</ele><time>2026-04-26T09:54:19Z</time></trkpt><trkpt lat="43.55516838332673" lon="12.652317721481175"><ele>244.0</ele><time>2026-04-26T09:54:20Z</time></trkpt><trkpt lat="43.55507407194419" lon="12.65232759682944"><ele>244.0</ele><time>2026-04-26T09:54:21Z</time></trkpt><trkpt lat="43.55495628358479" lon="12.652331696969203"><ele>244.2</ele><time>2026-04-26T09:54:22Z</time></trkpt><trkpt lat="43.55485371240256" lon="12.652345690445292"><ele>244.39999999999998</ele><time>2026-04-26T09:54:23Z</time></trkpt><trkpt lat="43.55475410613919" lon="12.652331214662643"><ele>244.6</ele><time>2026-04-26T09:54:24Z</time></trkpt><trkpt lat="43.554680908010575" lon="12.652322765429364"><ele>244.8</ele><time>2026-04-26T09:54:25Z</time></trkpt><trkpt lat="43.55458031534737" lon="12.65231876700972"><ele>245.0</ele><time>2026-04-26T09:54:26Z</time></trkpt><trkpt lat="43.554470733989646" lon="12.65231888867334"><ele>245.25</ele><time>2026-04-26T09:54:27Z</time></trkpt><trkpt lat="43.554337891046245" lon="12.652347769780908"><ele>245.5</ele><time>2026-04-26T09:54:28Z</time></trkpt><trkpt lat="43.55420629072906" lon="12.652368079820938"><ele>245.75</ele><time>2026-04-26T09:54:29Z</time></trkpt><trkpt lat="43.55408878638804" lon="12.652374079504328"><ele>246.0</ele><time>2026-04-26T09:54:30Z</time></trkpt><trkpt lat="43.55397637244181" lon="12.652374935220081"><ele>246.0</ele><time>2026-04-26T09:54:31Z</time></trkpt><trkpt lat="43.55386144029701" lon="12.652379070573202"><ele>246.00000000000003</ele><time>2026-04-26T09:54:32Z</time></trkpt><trkpt lat="43.55375057218022" lon="12.652378206392529"><ele>246.00000000000003</ele><time>2026-04-26T09:54:33Z</time></trkpt><trkpt lat="43.55364693747644" lon="12.65236237392912"><ele>246.0</ele><time>2026-04-26T09:54:34Z</time></trkpt><trkpt lat="43.55353013967519" lon="12.652349144030287"><ele>246.0</ele><time>2026-04-26T09:54:35Z</time></trkpt><trkpt lat="43.55340679068127" lon="12.652333643740253"><ele>245.75</ele><time>2026-04-26T09:54:36Z</time></trkpt><trkpt lat="43.553282186907836" lon="12.652316975425633"><ele>245.5</ele><time>2026-04-26T09:54:37Z</time></trkpt><trkpt lat="43.55315947172624" lon="12.652289382176571"><ele>245.25</ele><time>2026-04-26T09:54:38Z</time></trkpt><trkpt lat="43.55305172485916" lon="12.652252323230792"><ele>245.0</ele><time>2026-04-26T09:54:39Z</time></trkpt><trkpt lat="43.552944634332825" lon="12.652207074417808"><ele>245.0</ele><time>2026-04-26T09:54:40Z</time></trkpt><trkpt lat="43.552838331251344" lon="12.652157251212449"><ele>245.0</ele><time>2026-04-26T09:54:41Z</time></trkpt><trkpt lat="43.55274596723306" lon="12.652109760305136"><ele>245.0</ele><time>2026-04-26T09:54:42Z</time></trkpt><trkpt lat="43.55266349171965" lon="12.652065883536578"><ele>245.0</ele><time>2026-04-26T09:54:43Z</time></trkpt><trkpt lat="43.552582303340635" lon="12.652030391105733"><ele>245.0</ele><time>2026-04-26T09:54:44Z</time></trkpt><trkpt lat="43.55250341205888" lon="12.651994764039156"><ele>245.16666666666669</ele><time>2026-04-26T09:54:45Z</time></trkpt><trkpt lat="43.55241846602391" lon="12.651953040577949"><ele>245.33333333333334</ele><time>2026-04-26T09:54:46Z</time></trkpt><trkpt lat="43.552344827687534" lon="12.651904475624338"><ele>245.5</ele><time>2026-04-26T09:54:47Z</time></trkpt><trkpt lat="43.55226167392376" lon="12.651859368316138"><ele>245.66666666666669</ele><time>2026-04-26T09:54:48Z</time></trkpt><trkpt lat="43.552173459155625" lon="12.651813131023356"><ele>245.83333333333334</ele><time>2026-04-26T09:54:49Z</time></trkpt><trkpt lat="43.552085505007454" lon="12.651771921348743"><ele>246.0</ele><time>2026-04-26T09:54:50Z</time></trkpt><trkpt lat="43.551996455688204" lon="12.651725664567984"><ele>246.0</ele><time>2026-04-26T09:54:51Z</time></trkpt><trkpt lat="43.551910703397084" lon="12.651680112732464"><ele>246.00000000000003</ele><time>2026-04-26T09:54:52Z</time></trkpt><trkpt lat="43.55183046069883" lon="12.651638184160351"><ele>246.00000000000003</ele><time>2026-04-26T09:54:53Z</time></trkpt><trkpt lat="43.55174341438158" lon="12.651595869216495"><ele>246.0</ele><time>2026-04-26T09:54:54Z</time></trkpt><trkpt lat="43.551657405943914" lon="12.651551706294365"><ele>246.0</ele><time>2026-04-26T09:54:55Z</time></trkpt><trkpt lat="43.55156563922392" lon="12.651504425128765"><ele>246.0</ele><time>2026-04-26T09:54:56Z</time></trkpt><trkpt lat="43.55147142919758" lon="12.651453839334124"><ele>246.00000000000003</ele><time>2026-04-26T09:54:57Z</time></trkpt><trkpt lat="43.55137640229641" lon="12.651403363741089"><ele>246.00000000000003</ele><time>2026-04-26T09:54:58Z</time></trkpt><trkpt lat="43.551284782297955" lon="12.651352061727895"><ele>246.0</ele><time>2026-04-26T09:54:59Z</time></trkpt><trkpt lat="43.55118762396888" lon="12.651297927215008"><ele>246.0</ele><time>2026-04-26T09:55:00Z</time></trkpt><trkpt lat="43.55108708387934" lon="12.651244527021959"><ele>245.20000000000002</ele><time>2026-04-26T09:55:01Z</time></trkpt><trkpt lat="43.55098468124028" lon="12.651195340288446"><ele>244.40000000000003</ele><time>2026-04-26T09:55:02Z</time></trkpt><trkpt lat="43.55088534959544" lon="12.65114546860802"><ele>243.6</ele><time>2026-04-26T09:55:03Z</time></trkpt><trkpt lat="43.5507933239948" lon="12.65109690985133"><ele>242.8</ele><time>2026-04-26T09:55:04Z</time></trkpt><trkpt lat="43.55070773257046" lon="12.651057166023085"><ele>242.0</ele><time>2026-04-26T09:55:05Z</time></trkpt><trkpt lat="43.55062956534257" lon="12.651018364908827"><ele>242.00000000000003</ele><time>2026-04-26T09:55:06Z</time></trkpt><trkpt lat="43.55055582330831" lon="12.650980884476958"><ele>242.0</ele><time>2026-04-26T09:55:07Z</time></trkpt><trkpt lat="43.550487711939034" lon="12.650946148727717"><ele>242.0</ele><time>2026-04-26T09:55:08Z</time></trkpt><trkpt lat="43.5504208907944" lon="12.650911856917032"><ele>242.0</ele><time>2026-04-26T09:55:09Z</time></trkpt><trkpt lat="43.55035477167325" lon="12.650874543572229"><ele>242.00000000000003</ele><time>2026-04-26T09:55:10Z</time></trkpt><trkpt lat="43.550291828142456" lon="12.650844232570696"><ele>242.0</ele><time>2026-04-26T09:55:11Z</time></trkpt><trkpt lat="43.55018744870868" lon="12.650787444453574"><ele>242.33333333333334</ele><time>2026-04-26T09:55:13Z</time></trkpt><trkpt lat="43.550084953632435" lon="12.650732147889345"><ele>242.66666666666669</ele><time>2026-04-26T09:55:15Z</time></trkpt><trkpt lat="43.54999707276279" lon="12.650686173518785"><ele>243.0</ele><time>2026-04-26T09:55:17Z</time></trkpt><trkpt lat="43.54993097834757" lon="12.650648015017017"><ele>243.33333333333331</ele><time>2026-04-26T09:55:19Z</time></trkpt><trkpt lat="43.54987406732359" lon="12.650580208667174"><ele>243.66666666666666</ele><time>2026-04-26T09:55:23Z</time></trkpt><trkpt lat="43.54981845314453" lon="12.650504075893728"><ele>244.0</ele><time>2026-04-26T09:55:25Z</time></trkpt><trkpt lat="43.54971708183084" lon="12.650451546154763"><ele>244.0</ele><time>2026-04-26T09:55:27Z</time></trkpt><trkpt lat="43.5495924763516" lon="12.650489606551861"><ele>243.99999999999997</ele><time>2026-04-26T09:55:29Z</time></trkpt><trkpt lat="43.549517971572804" lon="12.650534545861005"><ele>243.99999999999997</ele><time>2026-04-26T09:55:30Z</time></trkpt><trkpt lat="43.549434777389244" lon="12.650577447890665"><ele>244.0</ele><time>2026-04-26T09:55:31Z</time></trkpt><trkpt lat="43.54934529454321" lon="12.650608837503773"><ele>244.0</ele><time>2026-04-26T09:55:32Z</time></trkpt><trkpt lat="43.54925688374854" lon="12.650641105906029"><ele>245.16666666666666</ele><time>2026-04-26T09:55:33Z</time></trkpt><trkpt lat="43.549167518806165" lon="12.650670849670979"><ele>246.33333333333331</ele><time>2026-04-26T09:55:34Z</time></trkpt><trkpt lat="43.54908753799334" lon="12.65069696062823"><ele>247.5</ele><time>2026-04-26T09:55:35Z</time></trkpt><trkpt lat="43.549015287565766" lon="12.650716226824605"><ele>248.66666666666669</ele><time>2026-04-26T09:55:36Z</time></trkpt><trkpt lat="43.54894586208497" lon="12.650736811870836"><ele>249.83333333333334</ele><time>2026-04-26T09:55:37Z</time></trkpt><trkpt lat="43.54885276698547" lon="12.650769899619657"><ele>251.0</ele><time>2026-04-26T09:55:38Z</time></trkpt><trkpt lat="43.54874814952056" lon="12.650803937207172"><ele>253.20000000000002</ele><time>2026-04-26T09:55:39Z</time></trkpt><trkpt lat="43.54864019840868" lon="12.650840994221419"><ele>255.40000000000003</ele><time>2026-04-26T09:55:40Z</time></trkpt><trkpt lat="43.548531772840626" lon="12.650875829146408"><ele>257.6</ele><time>2026-04-26T09:55:41Z</time></trkpt><trkpt lat="43.54842663962068" lon="12.65090889456239"><ele>259.8</ele><time>2026-04-26T09:55:42Z</time></trkpt><trkpt lat="43.548336241244215" lon="12.650939644833427"><ele>262.0</ele><time>2026-04-26T09:55:43Z</time></trkpt><trkpt lat="43.548256500771856" lon="12.650963357499226"><ele>262.0</ele><time>2026-04-26T09:55:44Z</time></trkpt><trkpt lat="43.54818310337056" lon="12.65098247493058"><ele>262.0</ele><time>2026-04-26T09:55:45Z</time></trkpt><trkpt lat="43.5481149231998" lon="12.651002714305326"><ele>262.0</ele><time>2026-04-26T09:55:46Z</time></trkpt><trkpt lat="43.54804936489854" lon="12.651020944801486"><ele>262.0</ele><time>2026-04-26T09:55:47Z</time></trkpt><trkpt lat="43.547981846531854" lon="12.651042304296933"><ele>262.0</ele><time>2026-04-26T09:55:48Z</time></trkpt><trkpt lat="43.547912590702296" lon="12.651063042833348"><ele>262.0</ele><time>2026-04-26T09:55:49Z</time></trkpt><trkpt lat="43.54783864615956" lon="12.651081643500268"><ele>262.0</ele><time>2026-04-26T09:55:50Z</time></trkpt><trkpt lat="43.54776076466948" lon="12.651100266217007"><ele>261.8</ele><time>2026-04-26T09:55:51Z</time></trkpt><trkpt lat="43.54767006720746" lon="12.651119221955545"><ele>261.6</ele><time>2026-04-26T09:55:52Z</time></trkpt><trkpt lat="43.54757214706554" lon="12.651124511206705"><ele>261.40000000000003</ele><time>2026-04-26T09:55:53Z</time></trkpt><trkpt lat="43.54746263499965" lon="12.651098249995533"><ele>261.2</ele><time>2026-04-26T09:55:54Z</time></trkpt><trkpt lat="43.547363243727645" lon="12.651083025638385"><ele>261.0</ele><time>2026-04-26T09:55:55Z</time></trkpt><trkpt lat="43.54727401560688" lon="12.651058082265822"><ele>261.0</ele><time>2026-04-26T09:55:56Z</time></trkpt><trkpt lat="43.5472115874139" lon="12.651030933811905"><ele>261.0</ele><time>2026-04-26T09:55:57Z</time></trkpt><trkpt lat="43.5471267194652" lon="12.650974376173691"><ele>261.0</ele><time>2026-04-26T09:55:59Z</time></trkpt><trkpt lat="43.547069802200475" lon="12.65093568679219"><ele>261.0</ele><time>2026-04-26T09:56:00Z</time></trkpt><trkpt lat="43.54699979228536" lon="12.650895838126125"><ele>261.0</ele><time>2026-04-26T09:56:01Z</time></trkpt><trkpt lat="43.54692026802548" lon="12.650856030407292"><ele>261.0</ele><time>2026-04-26T09:56:02Z</time></trkpt><trkpt lat="43.546838796890086" lon="12.65081194472971"><ele>261.0</ele><time>2026-04-26T09:56:03Z</time></trkpt><trkpt lat="43.54676096681682" lon="12.650769746136932"><ele>261.0</ele><time>2026-04-26T09:56:04Z</time></trkpt><trkpt lat="43.54668873358637" lon="12.650726819138916"><ele>261.0</ele><time>2026-04-26T09:56:05Z</time></trkpt><trkpt lat="43.546620845777504" lon="12.650689704157227"><ele>261.0</ele><time>2026-04-26T09:56:06Z</time></trkpt><trkpt lat="43.546525510873295" lon="12.650637711461282"><ele>261.0</ele><time>2026-04-26T09:56:08Z</time></trkpt><trkpt lat="43.546457015945585" lon="12.650603321723382"><ele>261.0</ele><time>2026-04-26T09:56:12Z</time></trkpt><trkpt lat="43.54636663948185" lon="12.650558472380723"><ele>261.0</ele><time>2026-04-26T09:56:22Z</time></trkpt><trkpt lat="43.54630768234752" lon="12.650525679216436"><ele>261.0</ele><time>2026-04-26T09:56:25Z</time></trkpt><trkpt lat="43.5462238443917" lon="12.650478746370586"><ele>261.0</ele><time>2026-04-26T09:56:31Z</time></trkpt><trkpt lat="43.54614122278209" lon="12.650431008083068"><ele>261.0</ele><time>2026-04-26T09:56:33Z</time></trkpt><trkpt lat="43.54605375409393" lon="12.650380469198492"><ele>261.0</ele><time>2026-04-26T09:56:35Z</time></trkpt><trkpt lat="43.545950693298835" lon="12.650337449355076"><ele>261.0</ele><time>2026-04-26T09:56:37Z</time></trkpt><trkpt lat="43.54588502396005" lon="12.65056141218323"><ele>260.0</ele><time>2026-04-26T09:56:38Z</time></trkpt><trkpt lat="43.54584639642498" lon="12.650663308230891"><ele>259.0</ele><time>2026-04-26T09:56:39Z</time></trkpt><trkpt lat="43.54581783396351" lon="12.650793911543673"><ele>258.0</ele><time>2026-04-26T09:56:40Z</time></trkpt><trkpt lat="43.54577793490982" lon="12.650909903068563"><ele>257.0</ele><time>2026-04-26T09:56:41Z</time></trkpt><trkpt lat="43.54573500446904" lon="12.651039891733056"><ele>256.0</ele><time>2026-04-26T09:56:42Z</time></trkpt><trkpt lat="43.545688681132816" lon="12.651175274524544"><ele>254.60000000000002</ele><time>2026-04-26T09:56:43Z</time></trkpt><trkpt lat="43.545647127426825" lon="12.651315600822791"><ele>253.20000000000002</ele><time>2026-04-26T09:56:44Z</time></trkpt><trkpt lat="43.54559758467047" lon="12.651457773117865"><ele>251.79999999999998</ele><time>2026-04-26T09:56:45Z</time></trkpt><trkpt lat="43.54555274416889" lon="12.651597805111482"><ele>250.39999999999998</ele><time>2026-04-26T09:56:46Z</time></trkpt><trkpt lat="43.54550858045046" lon="12.651741296065298"><ele>249.0</ele><time>2026-04-26T09:56:47Z</time></trkpt><trkpt lat="43.54546247313371" lon="12.651883856711665"><ele>250.79999999999998</ele><time>2026-04-26T09:56:48Z</time></trkpt><trkpt lat="43.54541659637187" lon="12.65202485348853"><ele>252.59999999999997</ele><time>2026-04-26T09:56:49Z</time></trkpt><trkpt lat="43.545370990298295" lon="12.652161575050515"><ele>254.4</ele><time>2026-04-26T09:56:50Z</time></trkpt><trkpt lat="43.545327379568114" lon="12.652292916518489"><ele>256.2</ele><time>2026-04-26T09:56:51Z</time></trkpt><trkpt lat="43.545298471987074" lon="12.652431972713844"><ele>258.0</ele><time>2026-04-26T09:56:52Z</time></trkpt><trkpt lat="43.54528132028674" lon="12.652577613724713"><ele>260.2</ele><time>2026-04-26T09:56:53Z</time></trkpt><trkpt lat="43.545283882548894" lon="12.652727164326272"><ele>262.4</ele><time>2026-04-26T09:56:54Z</time></trkpt><trkpt lat="43.54530638340599" lon="12.65287398403018"><ele>264.59999999999997</ele><time>2026-04-26T09:56:55Z</time></trkpt><trkpt lat="43.54535069211074" lon="12.653022857948713"><ele>266.8</ele><time>2026-04-26T09:56:56Z</time></trkpt><trkpt lat="43.54540369972963" lon="12.653160447082387"><ele>269.0</ele><time>2026-04-26T09:56:57Z</time></trkpt><trkpt lat="43.545475545474844" lon="12.653288401526284"><ele>269.0</ele><time>2026-04-26T09:56:58Z</time></trkpt><trkpt lat="43.545564834875336" lon="12.653404017838437"><ele>269.0</ele><time>2026-04-26T09:56:59Z</time></trkpt><trkpt lat="43.54565802186421" lon="12.653518812704885"><ele>269.0</ele><time>2026-04-26T09:57:00Z</time></trkpt><trkpt lat="43.54574483553383" lon="12.653646389695938"><ele>269.0</ele><time>2026-04-26T09:57:01Z</time></trkpt><trkpt lat="43.54583924793877" lon="12.6537766777126"><ele>268.0</ele><time>2026-04-26T09:57:02Z</time></trkpt><trkpt lat="43.545935111026054" lon="12.653899047558147"><ele>267.0</ele><time>2026-04-26T09:57:03Z</time></trkpt><trkpt lat="43.54602516492282" lon="12.654025783570868"><ele>266.0</ele><time>2026-04-26T09:57:04Z</time></trkpt><trkpt lat="43.54611826620709" lon="12.654158213384608"><ele>265.0</ele><time>2026-04-26T09:57:05Z</time></trkpt><trkpt lat="43.54621495249584" lon="12.654284346498688"><ele>265.0</ele><time>2026-04-26T09:57:06Z</time></trkpt><trkpt lat="43.54630939198718" lon="12.654414224439048"><ele>265.0</ele><time>2026-04-26T09:57:07Z</time></trkpt><trkpt lat="43.546397509278144" lon="12.654544330447207"><ele>265.0</ele><time>2026-04-26T09:57:08Z</time></trkpt><trkpt lat="43.54649041124502" lon="12.654673988806056"><ele>265.0</ele><time>2026-04-26T09:57:09Z</time></trkpt><trkpt lat="43.546577336708445" lon="12.654800410617801"><ele>266.5</ele><time>2026-04-26T09:57:10Z</time></trkpt><trkpt lat="43.54665710517661" lon="12.65492331394987"><ele>268.0</ele><time>2026-04-26T09:57:11Z</time></trkpt><trkpt lat="43.5467273241999" lon="12.65503335259818"><ele>269.5</ele><time>2026-04-26T09:57:12Z</time></trkpt><trkpt lat="43.5467866580262" lon="12.655158980347371"><ele>271.0</ele><time>2026-04-26T09:57:13Z</time></trkpt><trkpt lat="43.54683976682307" lon="12.65530024523287"><ele>273.0</ele><time>2026-04-26T09:57:14Z</time></trkpt><trkpt lat="43.546881944343276" lon="12.65546741847452"><ele>275.0</ele><time>2026-04-26T09:57:15Z</time></trkpt><trkpt lat="43.54693752391289" lon="12.65562633670844"><ele>277.0</ele><time>2026-04-26T09:57:16Z</time></trkpt><trkpt lat="43.54697318203757" lon="12.655810933739746"><ele>279.0</ele><time>2026-04-26T09:57:17Z</time></trkpt><trkpt lat="43.5469839444233" lon="12.655988605747662"><ele>279.5</ele><time>2026-04-26T09:57:18Z</time></trkpt><trkpt lat="43.54701788514318" lon="12.656178462531889"><ele>280.0</ele><time>2026-04-26T09:57:19Z</time></trkpt><trkpt lat="43.54702536961094" lon="12.656368355297106"><ele>280.5</ele><time>2026-04-26T09:57:20Z</time></trkpt><trkpt lat="43.54702650649892" lon="12.656556306448532"><ele>281.0</ele><time>2026-04-26T09:57:21Z</time></trkpt><trkpt lat="43.54701264260113" lon="12.656741423326132"><ele>281.0</ele><time>2026-04-26T09:57:22Z</time></trkpt><trkpt lat="43.54699454221908" lon="12.656923863161646"><ele>281.0</ele><time>2026-04-26T09:57:23Z</time></trkpt><trkpt lat="43.54696282916868" lon="12.657085733228042"><ele>281.0</ele><time>2026-04-26T09:57:24Z</time></trkpt><trkpt lat="43.546923511699795" lon="12.657240821717489"><ele>281.0</ele><time>2026-04-26T09:57:25Z</time></trkpt><trkpt lat="43.54687993682925" lon="12.65739646300341"><ele>281.25</ele><time>2026-04-26T09:57:26Z</time></trkpt><trkpt lat="43.54682952836838" lon="12.657549010151593"><ele>281.5</ele><time>2026-04-26T09:57:27Z</time></trkpt><trkpt lat="43.54677557653707" lon="12.657700453512355"><ele>281.75</ele><time>2026-04-26T09:57:28Z</time></trkpt><trkpt lat="43.54672519233247" lon="12.657846456081668"><ele>282.0</ele><time>2026-04-26T09:57:29Z</time></trkpt><trkpt lat="43.54667606218061" lon="12.657989966727452"><ele>282.0</ele><time>2026-04-26T09:57:30Z</time></trkpt><trkpt lat="43.546625133959274" lon="12.658130875525018"><ele>282.0</ele><time>2026-04-26T09:57:31Z</time></trkpt><trkpt lat="43.546570400605134" lon="12.658267654308363"><ele>282.0</ele><time>2026-04-26T09:57:32Z</time></trkpt><trkpt lat="43.54651814941759" lon="12.658412837165855"><ele>282.0</ele><time>2026-04-26T09:57:33Z</time></trkpt><trkpt lat="43.54647141178235" lon="12.658556700223492"><ele>281.0</ele><time>2026-04-26T09:57:34Z</time></trkpt><trkpt lat="43.546425467566785" lon="12.658707008518181"><ele>280.0</ele><time>2026-04-26T09:57:35Z</time></trkpt><trkpt lat="43.54637491992546" lon="12.658855586854948"><ele>279.0</ele><time>2026-04-26T09:57:36Z</time></trkpt><trkpt lat="43.54632657807392" lon="12.659000815282111"><ele>278.0</ele><time>2026-04-26T09:57:37Z</time></trkpt><trkpt lat="43.54627992598669" lon="12.659130434944169"><ele>278.0</ele><time>2026-04-26T09:57:38Z</time></trkpt><trkpt lat="43.54623723250135" lon="12.659250460234665"><ele>278.0</ele><time>2026-04-26T09:57:39Z</time></trkpt><trkpt lat="43.54619495344123" lon="12.65936840971634"><ele>278.0</ele><time>2026-04-26T09:57:40Z</time></trkpt><trkpt lat="43.54614742732609" lon="12.659486533511114"><ele>278.0</ele><time>2026-04-26T09:57:41Z</time></trkpt><trkpt lat="43.54610025690064" lon="12.659602767516002"><ele>278.0</ele><time>2026-04-26T09:57:42Z</time></trkpt><trkpt lat="43.546048167091115" lon="12.659713983768162"><ele>278.83333333333337</ele><time>2026-04-26T09:57:43Z</time></trkpt><trkpt lat="43.545998762737646" lon="12.65981747292094"><ele>279.6666666666667</ele><time>2026-04-26T09:57:44Z</time></trkpt><trkpt lat="43.54593843905259" lon="12.659892408834127"><ele>280.5</ele><time>2026-04-26T09:57:45Z</time></trkpt><trkpt lat="43.54586637759964" lon="12.659926366296649"><ele>281.3333333333333</ele><time>2026-04-26T09:57:46Z</time></trkpt><trkpt lat="43.54579845920905" lon="12.659921701509306"><ele>282.16666666666663</ele><time>2026-04-26T09:57:47Z</time></trkpt><trkpt lat="43.54573854749064" lon="12.659894944080738"><ele>283.0</ele><time>2026-04-26T09:57:48Z</time></trkpt><trkpt lat="43.54562884070598" lon="12.659977959907689"><ele>283.0</ele><time>2026-04-26T09:57:50Z</time></trkpt><trkpt lat="43.54559725877176" lon="12.660081344140314"><ele>283.0</ele><time>2026-04-26T09:57:51Z</time></trkpt><trkpt lat="43.54557189973727" lon="12.660193299468611"><ele>283.0</ele><time>2026-04-26T09:57:52Z</time></trkpt><trkpt lat="43.54552047258037" lon="12.660302299282105"><ele>283.0</ele><time>2026-04-26T09:57:53Z</time></trkpt><trkpt lat="43.545492624965924" lon="12.660411352494576"><ele>283.0</ele><time>2026-04-26T09:57:54Z</time></trkpt><trkpt lat="43.545386239045726" lon="12.660501715052801"><ele>284.5</ele><time>2026-04-26T09:57:55Z</time></trkpt><trkpt lat="43.545292148155426" lon="12.66059050739768"><ele>286.0</ele><time>2026-04-26T09:57:56Z</time></trkpt><trkpt lat="43.5451988634341" lon="12.66067663628663"><ele>287.5</ele><time>2026-04-26T09:57:57Z</time></trkpt><trkpt lat="43.54511297338951" lon="12.6607954102141"><ele>289.0</ele><time>2026-04-26T09:57:58Z</time></trkpt><trkpt lat="43.54502884316782" lon="12.660935423820275"><ele>289.0</ele><time>2026-04-26T09:57:59Z</time></trkpt><trkpt lat="43.544944104039494" lon="12.66105194824468"><ele>289.0</ele><time>2026-04-26T09:58:00Z</time></trkpt><trkpt lat="43.54487973487796" lon="12.66119212082549"><ele>289.0</ele><time>2026-04-26T09:58:01Z</time></trkpt><trkpt lat="43.54482856853851" lon="12.661352508307107"><ele>289.0</ele><time>2026-04-26T09:58:02Z</time></trkpt><trkpt lat="43.54475564711855" lon="12.66149498586648"><ele>288.25</ele><time>2026-04-26T09:58:03Z</time></trkpt><trkpt lat="43.54471071413263" lon="12.661658993200334"><ele>287.5</ele><time>2026-04-26T09:58:04Z</time></trkpt><trkpt lat="43.54464638498377" lon="12.661811803169192"><ele>286.75</ele><time>2026-04-26T09:58:05Z</time></trkpt><trkpt lat="43.54458439285246" lon="12.661968512613594"><ele>286.0</ele><time>2026-04-26T09:58:06Z</time></trkpt><trkpt lat="43.54452797720665" lon="12.662113187002106"><ele>288.25</ele><time>2026-04-26T09:58:07Z</time></trkpt><trkpt lat="43.54446377605998" lon="12.662253855166249"><ele>290.5</ele><time>2026-04-26T09:58:08Z</time></trkpt><trkpt lat="43.54440624876205" lon="12.662403814392343"><ele>292.75</ele><time>2026-04-26T09:58:09Z</time></trkpt><trkpt lat="43.54436994799367" lon="12.662574388269741"><ele>295.0</ele><time>2026-04-26T09:58:10Z</time></trkpt><trkpt lat="43.544310946373464" lon="12.662725996496532"><ele>294.75</ele><time>2026-04-26T09:58:11Z</time></trkpt><trkpt lat="43.54424659731654" lon="12.662879918590633"><ele>294.5</ele><time>2026-04-26T09:58:12Z</time></trkpt><trkpt lat="43.54418972609224" lon="12.663036986728967"><ele>294.25</ele><time>2026-04-26T09:58:13Z</time></trkpt><trkpt lat="43.54410788750994" lon="12.663184476715688"><ele>294.0</ele><time>2026-04-26T09:58:14Z</time></trkpt><trkpt lat="43.54404326022647" lon="12.663352517883695"><ele>294.0</ele><time>2026-04-26T09:58:15Z</time></trkpt><trkpt lat="43.543976978986024" lon="12.663524774805241"><ele>294.0</ele><time>2026-04-26T09:58:16Z</time></trkpt><trkpt lat="43.54392247147983" lon="12.663708585194167"><ele>294.0</ele><time>2026-04-26T09:58:17Z</time></trkpt><trkpt lat="43.543854586721395" lon="12.663885148524008"><ele>294.0</ele><time>2026-04-26T09:58:18Z</time></trkpt><trkpt lat="43.54377879173079" lon="12.664060394885663"><ele>296.3333333333333</ele><time>2026-04-26T09:58:19Z</time></trkpt><trkpt lat="43.543709393664706" lon="12.664243645500674"><ele>298.66666666666663</ele><time>2026-04-26T09:58:20Z</time></trkpt><trkpt lat="43.54364330790139" lon="12.664430753978893"><ele>301.0</ele><time>2026-04-26T09:58:21Z</time></trkpt><trkpt lat="43.54356966897801" lon="12.664612013279536"><ele>301.0</ele><time>2026-04-26T09:58:22Z</time></trkpt><trkpt lat="43.543516813241034" lon="12.66479613516068"><ele>301.0</ele><time>2026-04-26T09:58:23Z</time></trkpt><trkpt lat="43.543470074231514" lon="12.664963550558229"><ele>301.0</ele><time>2026-04-26T09:58:24Z</time></trkpt><trkpt lat="43.54342614783726" lon="12.665119447362642"><ele>301.0</ele><time>2026-04-26T09:58:25Z</time></trkpt><trkpt lat="43.54338703312987" lon="12.665263484842491"><ele>301.0</ele><time>2026-04-26T09:58:26Z</time></trkpt><trkpt lat="43.543351753135674" lon="12.665399356599794"><ele>301.0</ele><time>2026-04-26T09:58:27Z</time></trkpt><trkpt lat="43.54331057654661" lon="12.665534160658764"><ele>301.0</ele><time>2026-04-26T09:58:28Z</time></trkpt><trkpt lat="43.54326302694531" lon="12.665667727515967"><ele>301.0</ele><time>2026-04-26T09:58:29Z</time></trkpt><trkpt lat="43.54321141790077" lon="12.665798398087588"><ele>301.0</ele><time>2026-04-26T09:58:30Z</time></trkpt><trkpt lat="43.54315673444956" lon="12.665937784872042"><ele>301.0</ele><time>2026-04-26T09:58:31Z</time></trkpt><trkpt lat="43.54310239037091" lon="12.666073611945867"><ele>301.0</ele><time>2026-04-26T09:58:32Z</time></trkpt><trkpt lat="43.543049296759065" lon="12.666208583937625"><ele>301.0</ele><time>2026-04-26T09:58:33Z</time></trkpt><trkpt lat="43.54299202381483" lon="12.666345513604126"><ele>301.0</ele><time>2026-04-26T09:58:34Z</time></trkpt><trkpt lat="43.54293999132898" lon="12.666480807709627"><ele>301.0</ele><time>2026-04-26T09:58:35Z</time></trkpt><trkpt lat="43.54287992473924" lon="12.666617949159145"><ele>302.0</ele><time>2026-04-26T09:58:36Z</time></trkpt><trkpt lat="43.542827616430046" lon="12.66676349303035"><ele>303.0</ele><time>2026-04-26T09:58:37Z</time></trkpt><trkpt lat="43.54277966898973" lon="12.6669112944469"><ele>304.0</ele><time>2026-04-26T09:58:38Z</time></trkpt><trkpt lat="43.54275215597877" lon="12.66708075022396"><ele>305.0</ele><time>2026-04-26T09:58:39Z</time></trkpt><trkpt lat="43.542735150273145" lon="12.667244491952301"><ele>305.0</ele><time>2026-04-26T09:58:40Z</time></trkpt><trkpt lat="43.54272045706943" lon="12.667416802083652"><ele>305.0</ele><time>2026-04-26T09:58:41Z</time></trkpt><trkpt lat="43.54270681739132" lon="12.667594676783969"><ele>305.0</ele><time>2026-04-26T09:58:42Z</time></trkpt><trkpt lat="43.54268802627719" lon="12.667774069179563"><ele>305.0</ele><time>2026-04-26T09:58:43Z</time></trkpt><trkpt lat="43.54266198065471" lon="12.667955695962057"><ele>304.75</ele><time>2026-04-26T09:58:44Z</time></trkpt><trkpt lat="43.54261961521402" lon="12.668131959161451"><ele>304.5</ele><time>2026-04-26T09:58:45Z</time></trkpt><trkpt lat="43.54257087821793" lon="12.668304910453495"><ele>304.25</ele><time>2026-04-26T09:58:46Z</time></trkpt><trkpt lat="43.542521605302895" lon="12.668472371838947"><ele>304.0</ele><time>2026-04-26T09:58:47Z</time></trkpt><trkpt lat="43.542471620149485" lon="12.668636699243839"><ele>304.0</ele><time>2026-04-26T09:58:48Z</time></trkpt><trkpt lat="43.5424228887727" lon="12.668799619891093"><ele>304.0</ele><time>2026-04-26T09:58:49Z</time></trkpt><trkpt lat="43.54237191779039" lon="12.668966599191029"><ele>304.0</ele><time>2026-04-26T09:58:50Z</time></trkpt><trkpt lat="43.54231989760815" lon="12.669151362750522"><ele>304.0</ele><time>2026-04-26T09:58:51Z</time></trkpt><trkpt lat="43.542251898465494" lon="12.66934901415546"><ele>303.3333333333333</ele><time>2026-04-26T09:58:52Z</time></trkpt><trkpt lat="43.54217652576853" lon="12.669562105340335"><ele>302.6666666666667</ele><time>2026-04-26T09:58:53Z</time></trkpt><trkpt lat="43.542081619263236" lon="12.669785116865095"><ele>302.0</ele><time>2026-04-26T09:58:54Z</time></trkpt><trkpt lat="43.54198125483469" lon="12.670011867975198"><ele>302.0</ele><time>2026-04-26T09:58:55Z</time></trkpt><trkpt lat="43.541874154348115" lon="12.670246428800615"><ele>302.0</ele><time>2026-04-26T09:58:56Z</time></trkpt><trkpt lat="43.541755664962245" lon="12.670501968527487"><ele>302.0</ele><time>2026-04-26T09:58:57Z</time></trkpt><trkpt lat="43.54164244598098" lon="12.670775715849684"><ele>302.0</ele><time>2026-04-26T09:58:58Z</time></trkpt><trkpt lat="43.54152953136738" lon="12.671058507084972"><ele>302.0</ele><time>2026-04-26T09:58:59Z</time></trkpt><trkpt lat="43.54141460981039" lon="12.671341764638681"><ele>302.0</ele><time>2026-04-26T09:59:00Z</time></trkpt><trkpt lat="43.54130684542707" lon="12.671611799397446"><ele>302.0</ele><time>2026-04-26T09:59:01Z</time></trkpt><trkpt lat="43.54120378874362" lon="12.671850775941234"><ele>302.0</ele><time>2026-04-26T09:59:02Z</time></trkpt><trkpt lat="43.54111528474684" lon="12.672080756105027"><ele>302.0</ele><time>2026-04-26T09:59:03Z</time></trkpt><trkpt lat="43.54103895005799" lon="12.672301115299332"><ele>302.0</ele><time>2026-04-26T09:59:04Z</time></trkpt><trkpt lat="43.54097999009022" lon="12.672530827837383"><ele>302.0</ele><time>2026-04-26T09:59:05Z</time></trkpt><trkpt lat="43.54093833229678" lon="12.672768237007382"><ele>304.0</ele><time>2026-04-26T09:59:06Z</time></trkpt><trkpt lat="43.540911251777175" lon="12.673009446211822"><ele>306.0</ele><time>2026-04-26T09:59:07Z</time></trkpt><trkpt lat="43.54089123972028" lon="12.673238694186141"><ele>308.0</ele><time>2026-04-26T09:59:08Z</time></trkpt><trkpt lat="43.54087077998993" lon="12.673452388381541"><ele>309.25</ele><time>2026-04-26T09:59:09Z</time></trkpt><trkpt lat="43.5408507364027" lon="12.673659737745755"><ele>310.5</ele><time>2026-04-26T09:59:10Z</time></trkpt><trkpt lat="43.540831236024545" lon="12.673854081845871"><ele>311.75</ele><time>2026-04-26T09:59:11Z</time></trkpt><trkpt lat="43.54081351976772" lon="12.674044392091195"><ele>313.0</ele><time>2026-04-26T09:59:12Z</time></trkpt><trkpt lat="43.54079952405371" lon="12.674232852846142"><ele>313.0</ele><time>2026-04-26T09:59:13Z</time></trkpt><trkpt lat="43.54078712549541" lon="12.674409108347891"><ele>313.0</ele><time>2026-04-26T09:59:14Z</time></trkpt><trkpt lat="43.54077598488796" lon="12.674575678405828"><ele>313.0</ele><time>2026-04-26T09:59:15Z</time></trkpt><trkpt lat="43.54076736388157" lon="12.674731167630393"><ele>313.0</ele><time>2026-04-26T09:59:16Z</time></trkpt><trkpt lat="43.540759250355" lon="12.674880286487742"><ele>313.4</ele><time>2026-04-26T09:59:17Z</time></trkpt><trkpt lat="43.54074150757134" lon="12.675026647985481"><ele>313.8</ele><time>2026-04-26T09:59:18Z</time></trkpt><trkpt lat="43.54072769455188" lon="12.675167890026124"><ele>314.2</ele><time>2026-04-26T09:59:19Z</time></trkpt><trkpt lat="43.54070040381579" lon="12.675302753991003"><ele>314.6</ele><time>2026-04-26T09:59:20Z</time></trkpt><trkpt lat="43.54066412701908" lon="12.675421820503548"><ele>315.0</ele><time>2026-04-26T09:59:21Z</time></trkpt><trkpt lat="43.540609740040125" lon="12.675529636935257"><ele>315.8</ele><time>2026-04-26T09:59:22Z</time></trkpt><trkpt lat="43.54053866691888" lon="12.675630388192179"><ele>316.6</ele><time>2026-04-26T09:59:23Z</time></trkpt><trkpt lat="43.54047711212334" lon="12.675747559425877"><ele>317.4</ele><time>2026-04-26T09:59:24Z</time></trkpt><trkpt lat="43.54041528069216" lon="12.6758787802849"><ele>318.2</ele><time>2026-04-26T09:59:25Z</time></trkpt><trkpt lat="43.540327358949554" lon="12.675988715711728"><ele>319.0</ele><time>2026-04-26T09:59:26Z</time></trkpt><trkpt lat="43.54020439543909" lon="12.676081783043475"><ele>320.66666666666663</ele><time>2026-04-26T09:59:27Z</time></trkpt><trkpt lat="43.540070909392696" lon="12.676191192692212"><ele>322.3333333333333</ele><time>2026-04-26T09:59:28Z</time></trkpt><trkpt lat="43.539945320512984" lon="12.676305149627725"><ele>324.0</ele><time>2026-04-26T09:59:29Z</time></trkpt><trkpt lat="43.539819985789194" lon="12.676419343995747"><ele>324.0</ele><time>2026-04-26T09:59:30Z</time></trkpt><trkpt lat="43.53969193956256" lon="12.676527734964376"><ele>324.0</ele><time>2026-04-26T09:59:31Z</time></trkpt><trkpt lat="43.539559396410795" lon="12.676634537249772"><ele>324.0</ele><time>2026-04-26T09:59:32Z</time></trkpt><trkpt lat="43.53943035193029" lon="12.676750240416613"><ele>326.3333333333333</ele><time>2026-04-26T09:59:33Z</time></trkpt><trkpt lat="43.53929881870977" lon="12.676865366845501"><ele>328.66666666666663</ele><time>2026-04-26T09:59:34Z</time></trkpt><trkpt lat="43.53916715082508" lon="12.676982466609712"><ele>331.0</ele><time>2026-04-26T09:59:35Z</time></trkpt><trkpt lat="43.5390369834323" lon="12.677097396876711"><ele>332.0</ele><time>2026-04-26T09:59:36Z</time></trkpt><trkpt lat="43.53890975691671" lon="12.677212885377031"><ele>333.0</ele><time>2026-04-26T09:59:37Z</time></trkpt><trkpt lat="43.538789030594515" lon="12.677323697529786"><ele>334.0</ele><time>2026-04-26T09:59:38Z</time></trkpt><trkpt lat="43.53866600463626" lon="12.677435284707341"><ele>335.0</ele><time>2026-04-26T09:59:39Z</time></trkpt><trkpt lat="43.5385433854954" lon="12.677543590935008"><ele>336.0</ele><time>2026-04-26T09:59:40Z</time></trkpt><trkpt lat="43.538421124845456" lon="12.677652275472944"><ele>337.0</ele><time>2026-04-26T09:59:41Z</time></trkpt><trkpt lat="43.538300223992714" lon="12.677757296581513"><ele>338.0</ele><time>2026-04-26T09:59:42Z</time></trkpt><trkpt lat="43.538180521790785" lon="12.677864361071002"><ele>339.0</ele><time>2026-04-26T09:59:43Z</time></trkpt><trkpt lat="43.53806089987543" lon="12.67797181222874"><ele>339.5</ele><time>2026-04-26T09:59:44Z</time></trkpt><trkpt lat="43.5379386344323" lon="12.67807864349452"><ele>340.0</ele><time>2026-04-26T09:59:45Z</time></trkpt><trkpt lat="43.5378193724213" lon="12.678183258865667"><ele>340.5</ele><time>2026-04-26T09:59:46Z</time></trkpt><trkpt lat="43.537708483229395" lon="12.678300977544733"><ele>341.0</ele><time>2026-04-26T09:59:47Z</time></trkpt><trkpt lat="43.53759910034624" lon="12.678436330276341"><ele>341.0</ele><time>2026-04-26T09:59:48Z</time></trkpt><trkpt lat="43.53749739809531" lon="12.678590821429143"><ele>341.0</ele><time>2026-04-26T09:59:49Z</time></trkpt><trkpt lat="43.53740621277926" lon="12.678771370169327"><ele>341.0</ele><time>2026-04-26T09:59:50Z</time></trkpt><trkpt lat="43.53733516553869" lon="12.67897298960339"><ele>342.6666666666667</ele><time>2026-04-26T09:59:51Z</time></trkpt><trkpt lat="43.53728420408436" lon="12.679184349222684"><ele>344.3333333333333</ele><time>2026-04-26T09:59:52Z</time></trkpt><trkpt lat="43.537230442569424" lon="12.679387017498822"><ele>346.0</ele><time>2026-04-26T09:59:53Z</time></trkpt><trkpt lat="43.53721463280151" lon="12.67959193469064"><ele>346.0</ele><time>2026-04-26T09:59:54Z</time></trkpt><trkpt lat="43.5371836484273" lon="12.679793270157873"><ele>346.0</ele><time>2026-04-26T09:59:55Z</time></trkpt><trkpt lat="43.53715442010928" lon="12.679998346577332"><ele>346.0</ele><time>2026-04-26T09:59:56Z</time></trkpt><trkpt lat="43.53712561026174" lon="12.68020343232364"><ele>346.0</ele><time>2026-04-26T09:59:57Z</time></trkpt><trkpt lat="43.53709107060572" lon="12.680409514358733"><ele>346.0</ele><time>2026-04-26T09:59:58Z</time></trkpt><trkpt lat="43.53705727274327" lon="12.680616940383034"><ele>346.0</ele><time>2026-04-26T09:59:59Z</time></trkpt><trkpt lat="43.53702549555551" lon="12.68083057042432"><ele>346.0</ele><time>2026-04-26T10:00:00Z</time></trkpt><trkpt lat="43.5369843078107" lon="12.681045899954125"><ele>346.0</ele><time>2026-04-26T10:00:01Z</time></trkpt><trkpt lat="43.5369260507948" lon="12.681260492562485"><ele>346.0</ele><time>2026-04-26T10:00:02Z</time></trkpt><trkpt lat="43.536856183673166" lon="12.681477503413085"><ele>346.3333333333333</ele><time>2026-04-26T10:00:03Z</time></trkpt><trkpt lat="43.53677629153876" lon="12.681693295164857"><ele>346.6666666666667</ele><time>2026-04-26T10:00:04Z</time></trkpt><trkpt lat="43.53668437683861" lon="12.68190866655833"><ele>347.0</ele><time>2026-04-26T10:00:05Z</time></trkpt><trkpt lat="43.53659088968273" lon="12.682124662598708"><ele>347.0</ele><time>2026-04-26T10:00:06Z</time></trkpt><trkpt lat="43.53649090522166" lon="12.682337998255484"><ele>347.0</ele><time>2026-04-26T10:00:07Z</time></trkpt><trkpt lat="43.5363887542743" lon="12.682553911270391"><ele>347.0</ele><time>2026-04-26T10:00:08Z</time></trkpt><trkpt lat="43.536287141188254" lon="12.682771752427744"><ele>349.0</ele><time>2026-04-26T10:00:09Z</time></trkpt><trkpt lat="43.53619135933499" lon="12.682987619210001"><ele>351.0</ele><time>2026-04-26T10:00:10Z</time></trkpt><trkpt lat="43.53609130768347" lon="12.68320198097026"><ele>353.0</ele><time>2026-04-26T10:00:11Z</time></trkpt><trkpt lat="43.53599642682666" lon="12.683414050345561"><ele>355.0</ele><time>2026-04-26T10:00:12Z</time></trkpt><trkpt lat="43.53589492675726" lon="12.683621658110132"><ele>357.0</ele><time>2026-04-26T10:00:13Z</time></trkpt><trkpt lat="43.53579460024617" lon="12.683837781217049"><ele>359.0</ele><time>2026-04-26T10:00:14Z</time></trkpt><trkpt lat="43.535704177289496" lon="12.684044399417866"><ele>359.0</ele><time>2026-04-26T10:00:15Z</time></trkpt><trkpt lat="43.53561862096282" lon="12.684229776646772"><ele>359.0</ele><time>2026-04-26T10:00:16Z</time></trkpt><trkpt lat="43.53554455798717" lon="12.684401810861084"><ele>359.0</ele><time>2026-04-26T10:00:17Z</time></trkpt><trkpt lat="43.53547151612908" lon="12.684563241460488"><ele>359.0</ele><time>2026-04-26T10:00:18Z</time></trkpt><trkpt lat="43.53539862894525" lon="12.684729340341564"><ele>359.75</ele><time>2026-04-26T10:00:19Z</time></trkpt><trkpt lat="43.53531954721035" lon="12.684882803490007"><ele>360.5</ele><time>2026-04-26T10:00:20Z</time></trkpt><trkpt lat="43.53523361358997" lon="12.685028478196351"><ele>361.25</ele><time>2026-04-26T10:00:21Z</time></trkpt><trkpt lat="43.535130371996935" lon="12.685164934165204"><ele>362.0</ele><time>2026-04-26T10:00:22Z</time></trkpt><trkpt lat="43.53502134626718" lon="12.685292667514418"><ele>362.0</ele><time>2026-04-26T10:00:23Z</time></trkpt><trkpt lat="43.53490817400379" lon="12.685414203219478"><ele>362.0</ele><time>2026-04-26T10:00:24Z</time></trkpt><trkpt lat="43.53478177061739" lon="12.685527385874767"><ele>362.0</ele><time>2026-04-26T10:00:25Z</time></trkpt><trkpt lat="43.53465516581811" lon="12.685640379621862"><ele>362.0</ele><time>2026-04-26T10:00:26Z</time></trkpt><trkpt lat="43.53452645992909" lon="12.68576150484643"><ele>365.33333333333337</ele><time>2026-04-26T10:00:27Z</time></trkpt><trkpt lat="43.53439653362397" lon="12.685890796427078"><ele>368.6666666666667</ele><time>2026-04-26T10:00:28Z</time></trkpt><trkpt lat="43.5342682545448" lon="12.686018983681352"><ele>372.0</ele><time>2026-04-26T10:00:29Z</time></trkpt><trkpt lat="43.534137952890994" lon="12.686150603543348"><ele>372.0</ele><time>2026-04-26T10:00:30Z</time></trkpt><trkpt lat="43.534006837240455" lon="12.686281052712822"><ele>372.0</ele><time>2026-04-26T10:00:31Z</time></trkpt><trkpt lat="43.53387524237352" lon="12.68641146210284"><ele>372.0</ele><time>2026-04-26T10:00:32Z</time></trkpt><trkpt lat="43.53374547641297" lon="12.686541862148706"><ele>374.0</ele><time>2026-04-26T10:00:33Z</time></trkpt><trkpt lat="43.53360898273245" lon="12.686666834514831"><ele>376.0</ele><time>2026-04-26T10:00:34Z</time></trkpt><trkpt lat="43.533475699063196" lon="12.686795477100869"><ele>378.0</ele><time>2026-04-26T10:00:35Z</time></trkpt><trkpt lat="43.53334524627246" lon="12.686925491248713"><ele>377.6666666666667</ele><time>2026-04-26T10:00:36Z</time></trkpt><trkpt lat="43.53321068154062" lon="12.687049496460093"><ele>377.33333333333337</ele><time>2026-04-26T10:00:37Z</time></trkpt><trkpt lat="43.5330766124971" lon="12.68717043588317"><ele>377.0</ele><time>2026-04-26T10:00:38Z</time></trkpt><trkpt lat="43.53293725251765" lon="12.687288031995148"><ele>377.33333333333337</ele><time>2026-04-26T10:00:39Z</time></trkpt><trkpt lat="43.53279561548199" lon="12.687403191186595"><ele>377.6666666666667</ele><time>2026-04-26T10:00:40Z</time></trkpt><trkpt lat="43.53265075114901" lon="12.687520064733521"><ele>378.0</ele><time>2026-04-26T10:00:41Z</time></trkpt><trkpt lat="43.532507894326194" lon="12.687630422730589"><ele>378.0</ele><time>2026-04-26T10:00:42Z</time></trkpt><trkpt lat="43.53236267935378" lon="12.687749833278193"><ele>378.0</ele><time>2026-04-26T10:00:43Z</time></trkpt><trkpt lat="43.53221425409438" lon="12.68786746028385"><ele>378.0</ele><time>2026-04-26T10:00:44Z</time></trkpt><trkpt lat="43.532069273479635" lon="12.687986535354465"><ele>376.3333333333333</ele><time>2026-04-26T10:00:45Z</time></trkpt><trkpt lat="43.531925605034225" lon="12.688104912270685"><ele>374.66666666666663</ele><time>2026-04-26T10:00:46Z</time></trkpt><trkpt lat="43.531790237602735" lon="12.68821276110925"><ele>373.0</ele><time>2026-04-26T10:00:47Z</time></trkpt><trkpt lat="43.53166166752348" lon="12.688315266114351"><ele>373.0</ele><time>2026-04-26T10:00:48Z</time></trkpt><trkpt lat="43.531549147006686" lon="12.688410240202307"><ele>373.0</ele><time>2026-04-26T10:00:49Z</time></trkpt><trkpt lat="43.531429814279115" lon="12.688497476390763"><ele>373.0</ele><time>2026-04-26T10:00:50Z</time></trkpt><trkpt lat="43.531315396035176" lon="12.688580684666704"><ele>373.0</ele><time>2026-04-26T10:00:51Z</time></trkpt><trkpt lat="43.531185725271335" lon="12.688627262178803"><ele>373.0</ele><time>2026-04-26T10:00:52Z</time></trkpt><trkpt lat="43.531062477831" lon="12.68862477468299"><ele>373.0</ele><time>2026-04-26T10:00:53Z</time></trkpt><trkpt lat="43.53094186181328" lon="12.688579818474606"><ele>373.0</ele><time>2026-04-26T10:00:54Z</time></trkpt><trkpt lat="43.53083142573694" lon="12.688500666240214"><ele>373.0</ele><time>2026-04-26T10:00:55Z</time></trkpt><trkpt lat="43.53072293218856" lon="12.688411858615135"><ele>373.5</ele><time>2026-04-26T10:00:56Z</time></trkpt><trkpt lat="43.53061342622535" lon="12.688321861510216"><ele>374.0</ele><time>2026-04-26T10:00:57Z</time></trkpt><trkpt lat="43.530501247910486" lon="12.68823032680397"><ele>374.5</ele><time>2026-04-26T10:00:58Z</time></trkpt><trkpt lat="43.53038794290738" lon="12.688142303287389"><ele>375.0</ele><time>2026-04-26T10:00:59Z</time></trkpt><trkpt lat="43.530273156118206" lon="12.688048484099244"><ele>375.25</ele><time>2026-04-26T10:01:00Z</time></trkpt><trkpt lat="43.530158602145036" lon="12.687953082981426"><ele>375.5</ele><time>2026-04-26T10:01:01Z</time></trkpt><trkpt lat="43.53004878138893" lon="12.687859224252543"><ele>375.75</ele><time>2026-04-26T10:01:02Z</time></trkpt><trkpt lat="43.529932236036515" lon="12.687767739991903"><ele>376.0</ele><time>2026-04-26T10:01:03Z</time></trkpt><trkpt lat="43.5298219144142" lon="12.687676760790696"><ele>376.0</ele><time>2026-04-26T10:01:04Z</time></trkpt><trkpt lat="43.52970901463233" lon="12.68758463805047"><ele>376.0</ele><time>2026-04-26T10:01:05Z</time></trkpt><trkpt lat="43.52959334281166" lon="12.687497066347985"><ele>376.0</ele><time>2026-04-26T10:01:06Z</time></trkpt><trkpt lat="43.52947923687655" lon="12.687406845945695"><ele>376.0</ele><time>2026-04-26T10:01:07Z</time></trkpt><trkpt lat="43.52936894124973" lon="12.68731428883162"><ele>376.75</ele><time>2026-04-26T10:01:08Z</time></trkpt><trkpt lat="43.529263910756285" lon="12.687206208370247"><ele>377.5</ele><time>2026-04-26T10:01:09Z</time></trkpt><trkpt lat="43.52916355737683" lon="12.687073614547726"><ele>378.25</ele><time>2026-04-26T10:01:10Z</time></trkpt><trkpt lat="43.529062405970436" lon="12.686936798455115"><ele>379.0</ele><time>2026-04-26T10:01:11Z</time></trkpt><trkpt lat="43.52895657549462" lon="12.686802491359872"><ele>379.0</ele><time>2026-04-26T10:01:12Z</time></trkpt><trkpt lat="43.52883089447288" lon="12.686685184399892"><ele>379.0</ele><time>2026-04-26T10:01:13Z</time></trkpt><trkpt lat="43.52869301380277" lon="12.686575054269172"><ele>379.0</ele><time>2026-04-26T10:01:14Z</time></trkpt><trkpt lat="43.528545813733665" lon="12.68647338363717"><ele>374.75</ele><time>2026-04-26T10:01:15Z</time></trkpt><trkpt lat="43.528413626371595" lon="12.68637597712832"><ele>370.5</ele><time>2026-04-26T10:01:16Z</time></trkpt><trkpt lat="43.52827052224233" lon="12.68629388074633"><ele>366.25</ele><time>2026-04-26T10:01:17Z</time></trkpt><trkpt lat="43.528143452655215" lon="12.686217826509827"><ele>362.0</ele><time>2026-04-26T10:01:18Z</time></trkpt><trkpt lat="43.52803850299836" lon="12.686135144825851"><ele>360.5</ele><time>2026-04-26T10:01:19Z</time></trkpt><trkpt lat="43.52795632417323" lon="12.68599258001471"><ele>359.0</ele><time>2026-04-26T10:01:20Z</time></trkpt><trkpt lat="43.527902112971944" lon="12.68579668509579"><ele>357.5</ele><time>2026-04-26T10:01:21Z</time></trkpt><trkpt lat="43.527860138452695" lon="12.685604993217813"><ele>356.0</ele><time>2026-04-26T10:01:22Z</time></trkpt><trkpt lat="43.52781860456876" lon="12.685409259566915"><ele>358.0</ele><time>2026-04-26T10:01:23Z</time></trkpt><trkpt lat="43.52777945036098" lon="12.6852288343075"><ele>360.0</ele><time>2026-04-26T10:01:24Z</time></trkpt><trkpt lat="43.52773759618359" lon="12.685064125088632"><ele>362.0</ele><time>2026-04-26T10:01:25Z</time></trkpt><trkpt lat="43.52767161816375" lon="12.684920442651753"><ele>364.0</ele><time>2026-04-26T10:01:26Z</time></trkpt><trkpt lat="43.52758316849394" lon="12.684801156822342"><ele>364.0</ele><time>2026-04-26T10:01:27Z</time></trkpt><trkpt lat="43.52747242855195" lon="12.68472094898509"><ele>364.0</ele><time>2026-04-26T10:01:28Z</time></trkpt><trkpt lat="43.527347276145704" lon="12.684659692486658"><ele>364.0</ele><time>2026-04-26T10:01:29Z</time></trkpt><trkpt lat="43.52723662328923" lon="12.684591573133922"><ele>364.0</ele><time>2026-04-26T10:01:30Z</time></trkpt><trkpt lat="43.527110104966745" lon="12.684563006729352"><ele>362.5</ele><time>2026-04-26T10:01:31Z</time></trkpt><trkpt lat="43.526989949870995" lon="12.684573679927306"><ele>361.0</ele><time>2026-04-26T10:01:32Z</time></trkpt><trkpt lat="43.52686320985311" lon="12.684647854008919"><ele>359.5</ele><time>2026-04-26T10:01:33Z</time></trkpt><trkpt lat="43.52674441515638" lon="12.684736745718542"><ele>358.0</ele><time>2026-04-26T10:01:34Z</time></trkpt><trkpt lat="43.52662126254306" lon="12.684817829354362"><ele>358.0</ele><time>2026-04-26T10:01:35Z</time></trkpt><trkpt lat="43.52650934625622" lon="12.684900940261004"><ele>358.0</ele><time>2026-04-26T10:01:36Z</time></trkpt><trkpt lat="43.526412561819264" lon="12.685002924340305"><ele>358.0</ele><time>2026-04-26T10:01:37Z</time></trkpt><trkpt lat="43.526337856164496" lon="12.685144104560344"><ele>358.0</ele><time>2026-04-26T10:01:38Z</time></trkpt><trkpt lat="43.526297731417934" lon="12.685307144970391"><ele>358.5</ele><time>2026-04-26T10:01:39Z</time></trkpt><trkpt lat="43.526303986929385" lon="12.685494087064436"><ele>359.0</ele><time>2026-04-26T10:01:40Z</time></trkpt><trkpt lat="43.52632780187113" lon="12.685688897708578"><ele>359.5</ele><time>2026-04-26T10:01:41Z</time></trkpt><trkpt lat="43.52635606503653" lon="12.685871658451534"><ele>360.0</ele><time>2026-04-26T10:01:42Z</time></trkpt><trkpt lat="43.526391535468115" lon="12.686053344943037"><ele>361.5</ele><time>2026-04-26T10:01:43Z</time></trkpt><trkpt lat="43.526405095478054" lon="12.686234828589228"><ele>363.0</ele><time>2026-04-26T10:01:44Z</time></trkpt><trkpt lat="43.52645075491331" lon="12.686402925457955"><ele>364.5</ele><time>2026-04-26T10:01:45Z</time></trkpt><trkpt lat="43.52648676024841" lon="12.68657273450082"><ele>366.0</ele><time>2026-04-26T10:01:46Z</time></trkpt><trkpt lat="43.526534028968946" lon="12.686733874942561"><ele>366.0</ele><time>2026-04-26T10:01:47Z</time></trkpt><trkpt lat="43.526600172019315" lon="12.686885406336357"><ele>366.0</ele><time>2026-04-26T10:01:48Z</time></trkpt><trkpt lat="43.526683360938705" lon="12.687020850794301"><ele>366.0</ele><time>2026-04-26T10:01:49Z</time></trkpt><trkpt lat="43.52678097881843" lon="12.68714465850606"><ele>366.0</ele><time>2026-04-26T10:01:50Z</time></trkpt><trkpt lat="43.52686413484659" lon="12.68726608404936"><ele>365.25</ele><time>2026-04-26T10:01:51Z</time></trkpt><trkpt lat="43.52695148182943" lon="12.687379223552385"><ele>364.5</ele><time>2026-04-26T10:01:52Z</time></trkpt><trkpt lat="43.52703957609624" lon="12.687492764243046"><ele>363.75</ele><time>2026-04-26T10:01:53Z</time></trkpt><trkpt lat="43.52713005360848" lon="12.687604646587342"><ele>363.0</ele><time>2026-04-26T10:01:54Z</time></trkpt><trkpt lat="43.52721393561669" lon="12.687718070639118"><ele>367.25</ele><time>2026-04-26T10:01:55Z</time></trkpt><trkpt lat="43.52729470106882" lon="12.687832020481988"><ele>371.5</ele><time>2026-04-26T10:01:56Z</time></trkpt><trkpt lat="43.52737785013218" lon="12.687948020964624"><ele>375.75</ele><time>2026-04-26T10:01:57Z</time></trkpt><trkpt lat="43.52743980250638" lon="12.68808137166097"><ele>380.0</ele><time>2026-04-26T10:01:58Z</time></trkpt><trkpt lat="43.52750061818008" lon="12.688203432085682"><ele>380.0</ele><time>2026-04-26T10:01:59Z</time></trkpt><trkpt lat="43.52751235821116" lon="12.688348584819673"><ele>380.0</ele><time>2026-04-26T10:02:00Z</time></trkpt><trkpt lat="43.527480538271355" lon="12.688494127929772"><ele>380.0</ele><time>2026-04-26T10:02:01Z</time></trkpt><trkpt lat="43.527438417588854" lon="12.688633777988692"><ele>380.0</ele><time>2026-04-26T10:02:02Z</time></trkpt><trkpt lat="43.527361219750276" lon="12.688759947073613"><ele>380.0</ele><time>2026-04-26T10:02:03Z</time></trkpt><trkpt lat="43.527266589257465" lon="12.688889778015469"><ele>380.0</ele><time>2026-04-26T10:02:04Z</time></trkpt><trkpt lat="43.527171095997915" lon="12.689053773800271"><ele>380.0</ele><time>2026-04-26T10:02:05Z</time></trkpt><trkpt lat="43.52704595991045" lon="12.689214567399276"><ele>380.0</ele><time>2026-04-26T10:02:06Z</time></trkpt><trkpt lat="43.52692107092281" lon="12.68939615542696"><ele>378.6666666666667</ele><time>2026-04-26T10:02:07Z</time></trkpt><trkpt lat="43.52679153683879" lon="12.689585322174157"><ele>377.3333333333333</ele><time>2026-04-26T10:02:08Z</time></trkpt><trkpt lat="43.52665008820399" lon="12.689794097039496"><ele>376.0</ele><time>2026-04-26T10:02:09Z</time></trkpt><trkpt lat="43.526501909581306" lon="12.690014294840172"><ele>376.0</ele><time>2026-04-26T10:02:10Z</time></trkpt><trkpt lat="43.52635471913574" lon="12.69025022491163"><ele>376.0</ele><time>2026-04-26T10:02:11Z</time></trkpt><trkpt lat="43.526202914615354" lon="12.690480625045415"><ele>376.66666666666663</ele><time>2026-04-26T10:02:12Z</time></trkpt><trkpt lat="43.526046107646685" lon="12.690691535379187"><ele>377.3333333333333</ele><time>2026-04-26T10:02:13Z</time></trkpt><trkpt lat="43.52591828809973" lon="12.690916066892797"><ele>378.0</ele><time>2026-04-26T10:02:14Z</time></trkpt><trkpt lat="43.525782766846" lon="12.691114132204055"><ele>378.3333333333333</ele><time>2026-04-26T10:02:15Z</time></trkpt><trkpt lat="43.52564092578675" lon="12.691295661673744"><ele>378.66666666666663</ele><time>2026-04-26T10:02:16Z</time></trkpt><trkpt lat="43.52549658808876" lon="12.691460672181336"><ele>379.0</ele><time>2026-04-26T10:02:17Z</time></trkpt><trkpt lat="43.525342008414206" lon="12.691592570090613"><ele>380.3333333333333</ele><time>2026-04-26T10:02:18Z</time></trkpt><trkpt lat="43.52517458813359" lon="12.691686055970969"><ele>381.6666666666667</ele><time>2026-04-26T10:02:19Z</time></trkpt><trkpt lat="43.52500038218281" lon="12.691761618504165"><ele>383.0</ele><time>2026-04-26T10:02:20Z</time></trkpt><trkpt lat="43.5248206404802" lon="12.691805980993184"><ele>383.0</ele><time>2026-04-26T10:02:21Z</time></trkpt><trkpt lat="43.52463864789424" lon="12.691812129024756"><ele>383.0</ele><time>2026-04-26T10:02:22Z</time></trkpt><trkpt lat="43.52445767064258" lon="12.691820220273016"><ele>383.0</ele><time>2026-04-26T10:02:23Z</time></trkpt><trkpt lat="43.52427352012619" lon="12.691821338416691"><ele>384.0</ele><time>2026-04-26T10:02:24Z</time></trkpt><trkpt lat="43.52408706953741" lon="12.691816809349636"><ele>385.0</ele><time>2026-04-26T10:02:25Z</time></trkpt><trkpt lat="43.52389998826282" lon="12.691821282758493"><ele>386.0</ele><time>2026-04-26T10:02:26Z</time></trkpt><trkpt lat="43.52371161065985" lon="12.691829236527287"><ele>387.0</ele><time>2026-04-26T10:02:27Z</time></trkpt><trkpt lat="43.52352404222848" lon="12.691834061433486"><ele>388.0</ele><time>2026-04-26T10:02:28Z</time></trkpt><trkpt lat="43.523342252098665" lon="12.691838006755194"><ele>389.0</ele><time>2026-04-26T10:02:29Z</time></trkpt><trkpt lat="43.52316328757292" lon="12.691840498207352"><ele>389.0</ele><time>2026-04-26T10:02:30Z</time></trkpt><trkpt lat="43.52299940370649" lon="12.691846336526323"><ele>389.0</ele><time>2026-04-26T10:02:31Z</time></trkpt><trkpt lat="43.52282967797958" lon="12.691850571530406"><ele>389.0</ele><time>2026-04-26T10:02:32Z</time></trkpt><trkpt lat="43.522662534947095" lon="12.691858325189946"><ele>387.66666666666663</ele><time>2026-04-26T10:02:33Z</time></trkpt><trkpt lat="43.52247670223652" lon="12.6918760384438"><ele>386.33333333333337</ele><time>2026-04-26T10:02:34Z</time></trkpt><trkpt lat="43.522300170754406" lon="12.691917040406798"><ele>385.0</ele><time>2026-04-26T10:02:35Z</time></trkpt><trkpt lat="43.522125041618374" lon="12.691960008302674"><ele>386.6666666666667</ele><time>2026-04-26T10:02:36Z</time></trkpt><trkpt lat="43.52194938871376" lon="12.692010867247895"><ele>388.33333333333337</ele><time>2026-04-26T10:02:37Z</time></trkpt><trkpt lat="43.52177097724776" lon="12.692061414907716"><ele>390.0</ele><time>2026-04-26T10:02:38Z</time></trkpt><trkpt lat="43.52159451111641" lon="12.692106967812403"><ele>390.0</ele><time>2026-04-26T10:02:39Z</time></trkpt><trkpt lat="43.52142026698303" lon="12.692153670790889"><ele>390.0</ele><time>2026-04-26T10:02:40Z</time></trkpt><trkpt lat="43.52126120810107" lon="12.692211982778698"><ele>390.0</ele><time>2026-04-26T10:02:41Z</time></trkpt><trkpt lat="43.52110693337651" lon="12.692301831062506"><ele>389.66666666666663</ele><time>2026-04-26T10:02:42Z</time></trkpt><trkpt lat="43.52095733301297" lon="12.692425548025447"><ele>389.3333333333333</ele><time>2026-04-26T10:02:43Z</time></trkpt><trkpt lat="43.520831636360604" lon="12.692608415399887"><ele>389.0</ele><time>2026-04-26T10:02:44Z</time></trkpt><trkpt lat="43.52071540840746" lon="12.692772830045891"><ele>389.0</ele><time>2026-04-26T10:02:45Z</time></trkpt><trkpt lat="43.52057033226188" lon="12.69291369502988"><ele>389.0</ele><time>2026-04-26T10:02:46Z</time></trkpt><trkpt lat="43.52040859126776" lon="12.693032741447865"><ele>389.0</ele><time>2026-04-26T10:02:47Z</time></trkpt><trkpt lat="43.5202380381298" lon="12.69308090027126"><ele>392.3333333333333</ele><time>2026-04-26T10:02:48Z</time></trkpt><trkpt lat="43.52008006969628" lon="12.693097608616386"><ele>395.66666666666663</ele><time>2026-04-26T10:02:49Z</time></trkpt><trkpt lat="43.51993982711686" lon="12.69314302921235"><ele>399.0</ele><time>2026-04-26T10:02:50Z</time></trkpt><trkpt lat="43.51981461701465" lon="12.693262329146389"><ele>399.0</ele><time>2026-04-26T10:02:51Z</time></trkpt><trkpt lat="43.519713513412945" lon="12.69344226862974"><ele>399.0</ele><time>2026-04-26T10:02:52Z</time></trkpt><trkpt lat="43.519654454181605" lon="12.693651800476722"><ele>399.0</ele><time>2026-04-26T10:02:53Z</time></trkpt><trkpt lat="43.519630655525084" lon="12.69388820984116"><ele>397.33333333333337</ele><time>2026-04-26T10:02:54Z</time></trkpt><trkpt lat="43.51958729354849" lon="12.694133030246547"><ele>395.6666666666667</ele><time>2026-04-26T10:02:55Z</time></trkpt><trkpt lat="43.51956216345764" lon="12.694393586746342"><ele>394.0</ele><time>2026-04-26T10:02:56Z</time></trkpt><trkpt lat="43.519538404065685" lon="12.694670222518486"><ele>399.6666666666667</ele><time>2026-04-26T10:02:57Z</time></trkpt><trkpt lat="43.51951809215549" lon="12.694929796796647"><ele>405.33333333333337</ele><time>2026-04-26T10:02:58Z</time></trkpt><trkpt lat="43.51949402758655" lon="12.695185173309378"><ele>411.0</ele><time>2026-04-26T10:02:59Z</time></trkpt><trkpt lat="43.519483291246125" lon="12.695434627713661"><ele>411.0</ele><time>2026-04-26T10:03:00Z</time></trkpt><trkpt lat="43.5194568188366" lon="12.69566959770112"><ele>411.0</ele><time>2026-04-26T10:03:01Z</time></trkpt><trkpt lat="43.519435326726835" lon="12.695906131279212"><ele>411.0</ele><time>2026-04-26T10:03:02Z</time></trkpt><trkpt lat="43.519418669622645" lon="12.69613929303714"><ele>410.0</ele><time>2026-04-26T10:03:03Z</time></trkpt><trkpt lat="43.519395374252234" lon="12.696369650354864"><ele>409.0</ele><time>2026-04-26T10:03:04Z</time></trkpt><trkpt lat="43.51937572580599" lon="12.696597411875107"><ele>408.0</ele><time>2026-04-26T10:03:05Z</time></trkpt><trkpt lat="43.51935249144731" lon="12.696820156564646"><ele>407.66666666666663</ele><time>2026-04-26T10:03:06Z</time></trkpt><trkpt lat="43.519334400021144" lon="12.69702875438824"><ele>407.3333333333333</ele><time>2026-04-26T10:03:07Z</time></trkpt><trkpt lat="43.5193106646359" lon="12.69723325301311"><ele>407.0</ele><time>2026-04-26T10:03:08Z</time></trkpt><trkpt lat="43.51925261283437" lon="12.697430403563713"><ele>407.0</ele><time>2026-04-26T10:03:09Z</time></trkpt><trkpt lat="43.51920145832009" lon="12.697633548053256"><ele>407.0</ele><time>2026-04-26T10:03:10Z</time></trkpt><trkpt lat="43.51910180183922" lon="12.697815361982405"><ele>407.0</ele><time>2026-04-26T10:03:11Z</time></trkpt><trkpt lat="43.5190057817182" lon="12.698008330156075"><ele>406.3333333333333</ele><time>2026-04-26T10:03:12Z</time></trkpt><trkpt lat="43.51891048322284" lon="12.698205106265439"><ele>405.66666666666663</ele><time>2026-04-26T10:03:13Z</time></trkpt><trkpt lat="43.51882076175704" lon="12.698408199441047"><ele>405.0</ele><time>2026-04-26T10:03:14Z</time></trkpt><trkpt lat="43.518724629908974" lon="12.69860876390102"><ele>403.66666666666663</ele><time>2026-04-26T10:03:15Z</time></trkpt><trkpt lat="43.518619439964525" lon="12.698805034681943"><ele>402.3333333333333</ele><time>2026-04-26T10:03:16Z</time></trkpt><trkpt lat="43.5185325605383" lon="12.69898757352502"><ele>401.0</ele><time>2026-04-26T10:03:17Z</time></trkpt><trkpt lat="43.518439539966955" lon="12.699147288708359"><ele>401.0</ele><time>2026-04-26T10:03:18Z</time></trkpt><trkpt lat="43.518348811879115" lon="12.699330489685273"><ele>401.0</ele><time>2026-04-26T10:03:19Z</time></trkpt><trkpt lat="43.51826676091214" lon="12.69952701946594"><ele>401.0</ele><time>2026-04-26T10:03:20Z</time></trkpt><trkpt lat="43.518217463984904" lon="12.699741080345833"><ele>400.3333333333333</ele><time>2026-04-26T10:03:21Z</time></trkpt><trkpt lat="43.5181625437191" lon="12.699948855389842"><ele>399.66666666666663</ele><time>2026-04-26T10:03:22Z</time></trkpt><trkpt lat="43.518104831012195" lon="12.70015634037336"><ele>399.0</ele><time>2026-04-26T10:03:23Z</time></trkpt><trkpt lat="43.51804330490637" lon="12.700346170465798"><ele>398.33333333333337</ele><time>2026-04-26T10:03:24Z</time></trkpt><trkpt lat="43.51798717739418" lon="12.700541265529951"><ele>397.6666666666667</ele><time>2026-04-26T10:03:25Z</time></trkpt><trkpt lat="43.51791781557491" lon="12.700737473269033"><ele>397.0</ele><time>2026-04-26T10:03:26Z</time></trkpt><trkpt lat="43.51786204010046" lon="12.70094626893495"><ele>395.6666666666667</ele><time>2026-04-26T10:03:27Z</time></trkpt><trkpt lat="43.51780440118778" lon="12.701162270096594"><ele>394.33333333333337</ele><time>2026-04-26T10:03:28Z</time></trkpt><trkpt lat="43.51775912439075" lon="12.701389357253216"><ele>393.0</ele><time>2026-04-26T10:03:29Z</time></trkpt><trkpt lat="43.51769965570908" lon="12.701613018653477"><ele>393.0</ele><time>2026-04-26T10:03:30Z</time></trkpt><trkpt lat="43.51763647448766" lon="12.701827871289238"><ele>393.0</ele><time>2026-04-26T10:03:31Z</time></trkpt><trkpt lat="43.517579298261296" lon="12.70204270506468"><ele>393.0</ele><time>2026-04-26T10:03:32Z</time></trkpt><trkpt lat="43.51752063067847" lon="12.702252548854316"><ele>392.0</ele><time>2026-04-26T10:03:33Z</time></trkpt><trkpt lat="43.517464260052684" lon="12.702453068644083"><ele>391.0</ele><time>2026-04-26T10:03:34Z</time></trkpt><trkpt lat="43.5174053226946" lon="12.70265480577563"><ele>390.0</ele><time>2026-04-26T10:03:35Z</time></trkpt><trkpt lat="43.51734172159463" lon="12.702857001838245"><ele>389.33333333333337</ele><time>2026-04-26T10:03:36Z</time></trkpt><trkpt lat="43.517271692903265" lon="12.703062263771121"><ele>388.6666666666667</ele><time>2026-04-26T10:03:37Z</time></trkpt><trkpt lat="43.51719701266048" lon="12.703264778357504"><ele>388.0</ele><time>2026-04-26T10:03:38Z</time></trkpt><trkpt lat="43.51712563242796" lon="12.703467484378619"><ele>390.6666666666667</ele><time>2026-04-26T10:03:39Z</time></trkpt><trkpt lat="43.5170588002549" lon="12.703665158001668"><ele>393.33333333333337</ele><time>2026-04-26T10:03:40Z</time></trkpt><trkpt lat="43.51698904498899" lon="12.703857586774108"><ele>396.0</ele><time>2026-04-26T10:03:41Z</time></trkpt><trkpt lat="43.51691835670162" lon="12.704043265899422"><ele>396.0</ele><time>2026-04-26T10:03:42Z</time></trkpt><trkpt lat="43.51684345061398" lon="12.70421889730749"><ele>396.0</ele><time>2026-04-26T10:03:43Z</time></trkpt><trkpt lat="43.516754166149326" lon="12.704375365096638"><ele>396.0</ele><time>2026-04-26T10:03:44Z</time></trkpt><trkpt lat="43.516647291444684" lon="12.70450725364357"><ele>396.0</ele><time>2026-04-26T10:03:45Z</time></trkpt><trkpt lat="43.51652944607913" lon="12.704609857006526"><ele>394.75</ele><time>2026-04-26T10:03:46Z</time></trkpt><trkpt lat="43.51640143335672" lon="12.704686175989764"><ele>393.5</ele><time>2026-04-26T10:03:47Z</time></trkpt><trkpt lat="43.51627085701719" lon="12.704747460690193"><ele>392.25</ele><time>2026-04-26T10:03:48Z</time></trkpt><trkpt lat="43.51614151470727" lon="12.704805237983145"><ele>391.0</ele><time>2026-04-26T10:03:49Z</time></trkpt><trkpt lat="43.51601199420062" lon="12.704863246791877"><ele>393.5</ele><time>2026-04-26T10:03:50Z</time></trkpt><trkpt lat="43.51587955431104" lon="12.704918513816533"><ele>396.0</ele><time>2026-04-26T10:03:51Z</time></trkpt><trkpt lat="43.5157461716498" lon="12.704977534702753"><ele>398.5</ele><time>2026-04-26T10:03:52Z</time></trkpt><trkpt lat="43.5156158806768" lon="12.705054208535286"><ele>401.0</ele><time>2026-04-26T10:03:53Z</time></trkpt><trkpt lat="43.51548983605016" lon="12.705152653426842"><ele>402.3333333333333</ele><time>2026-04-26T10:03:54Z</time></trkpt><trkpt lat="43.51536498165612" lon="12.705270002003683"><ele>403.66666666666663</ele><time>2026-04-26T10:03:55Z</time></trkpt><trkpt lat="43.51524173484784" lon="12.705401510273417"><ele>405.0</ele><time>2026-04-26T10:03:56Z</time></trkpt><trkpt lat="43.51511983691756" lon="12.705530039528524"><ele>405.0</ele><time>2026-04-26T10:03:57Z</time></trkpt><trkpt lat="43.515004437664395" lon="12.705656214686023"><ele>405.0</ele><time>2026-04-26T10:03:58Z</time></trkpt><trkpt lat="43.51488577539058" lon="12.705783771783445"><ele>405.0</ele><time>2026-04-26T10:03:59Z</time></trkpt><trkpt lat="43.514749748300915" lon="12.705906000479395"><ele>405.0</ele><time>2026-04-26T10:04:00Z</time></trkpt><trkpt lat="43.51465039486385" lon="12.706063148818481"><ele>405.0</ele><time>2026-04-26T10:04:01Z</time></trkpt><trkpt lat="43.514588274147115" lon="12.706252255228252"><ele>405.0</ele><time>2026-04-26T10:04:02Z</time></trkpt><trkpt lat="43.51453509393041" lon="12.706454571443741"><ele>406.66666666666663</ele><time>2026-04-26T10:04:03Z</time></trkpt><trkpt lat="43.51449998805081" lon="12.706661318150402"><ele>408.3333333333333</ele><time>2026-04-26T10:04:04Z</time></trkpt><trkpt lat="43.51444722132003" lon="12.706866051905873"><ele>410.0</ele><time>2026-04-26T10:04:05Z</time></trkpt><trkpt lat="43.5143854256201" lon="12.707061597140138"><ele>410.75</ele><time>2026-04-26T10:04:06Z</time></trkpt><trkpt lat="43.51434852555935" lon="12.7072562765939"><ele>411.5</ele><time>2026-04-26T10:04:07Z</time></trkpt><trkpt lat="43.514340772939384" lon="12.707438813850782"><ele>412.25</ele><time>2026-04-26T10:04:08Z</time></trkpt><trkpt lat="43.51434099539133" lon="12.707633458827209"><ele>413.0</ele><time>2026-04-26T10:04:09Z</time></trkpt><trkpt lat="43.514371019611445" lon="12.70783772240252"><ele>414.0</ele><time>2026-04-26T10:04:10Z</time></trkpt><trkpt lat="43.514401775720465" lon="12.708034989956312"><ele>415.0</ele><time>2026-04-26T10:04:11Z</time></trkpt><trkpt lat="43.51443722857007" lon="12.708236595442125"><ele>416.0</ele><time>2026-04-26T10:04:12Z</time></trkpt><trkpt lat="43.51445948945054" lon="12.708448427675583"><ele>417.66666666666663</ele><time>2026-04-26T10:04:13Z</time></trkpt><trkpt lat="43.514495525693206" lon="12.708654571402384"><ele>419.33333333333337</ele><time>2026-04-26T10:04:14Z</time></trkpt><trkpt lat="43.51454969395514" lon="12.708854781476282"><ele>421.0</ele><time>2026-04-26T10:04:15Z</time></trkpt><trkpt lat="43.51458331142796" lon="12.70906238765131"><ele>423.33333333333337</ele><time>2026-04-26T10:04:16Z</time></trkpt><trkpt lat="43.5146300307137" lon="12.709266383316658"><ele>425.66666666666663</ele><time>2026-04-26T10:04:17Z</time></trkpt><trkpt lat="43.514670244013615" lon="12.709476083002965"><ele>428.0</ele><time>2026-04-26T10:04:18Z</time></trkpt><trkpt lat="43.51472916324412" lon="12.709676140302257"><ele>428.0</ele><time>2026-04-26T10:04:19Z</time></trkpt><trkpt lat="43.5147930802928" lon="12.709869137936893"><ele>428.0</ele><time>2026-04-26T10:04:20Z</time></trkpt><trkpt lat="43.51485868824382" lon="12.71005674973006"><ele>428.0</ele><time>2026-04-26T10:04:21Z</time></trkpt><trkpt lat="43.51492625002503" lon="12.710244333497736"><ele>428.25</ele><time>2026-04-26T10:04:22Z</time></trkpt><trkpt lat="43.51499405536678" lon="12.71042610240265"><ele>428.5</ele><time>2026-04-26T10:04:23Z</time></trkpt><trkpt lat="43.51506095754636" lon="12.71060287371052"><ele>428.75</ele><time>2026-04-26T10:04:24Z</time></trkpt><trkpt lat="43.515124993032096" lon="12.710772999244073"><ele>429.0</ele><time>2026-04-26T10:04:25Z</time></trkpt><trkpt lat="43.51518628256148" lon="12.71093582950767"><ele>429.5</ele><time>2026-04-26T10:04:26Z</time></trkpt><trkpt lat="43.515245845845534" lon="12.71110037754234"><ele>430.0</ele><time>2026-04-26T10:04:27Z</time></trkpt><trkpt lat="43.515301921469614" lon="12.711262115422965"><ele>430.5</ele><time>2026-04-26T10:04:28Z</time></trkpt><trkpt lat="43.51535422748708" lon="12.711428646301432"><ele>431.0</ele><time>2026-04-26T10:04:29Z</time></trkpt><trkpt lat="43.51539074260826" lon="12.711600252996996"><ele>434.75</ele><time>2026-04-26T10:04:30Z</time></trkpt><trkpt lat="43.51542214571295" lon="12.711776018582569"><ele>438.5</ele><time>2026-04-26T10:04:31Z</time></trkpt><trkpt lat="43.515445716137165" lon="12.711956525863982"><ele>442.25</ele><time>2026-04-26T10:04:32Z</time></trkpt><trkpt lat="43.51546687360817" lon="12.712146668674972"><ele>446.0</ele><time>2026-04-26T10:04:33Z</time></trkpt><trkpt lat="43.51548629550446" lon="12.712338635210703"><ele>446.5</ele><time>2026-04-26T10:04:34Z</time></trkpt><trkpt lat="43.51550388810206" lon="12.712539435395204"><ele>447.0</ele><time>2026-04-26T10:04:35Z</time></trkpt><trkpt lat="43.5155356894441" lon="12.712739473058535"><ele>447.5</ele><time>2026-04-26T10:04:36Z</time></trkpt><trkpt lat="43.51554595490299" lon="12.712943869847733"><ele>448.0</ele><time>2026-04-26T10:04:37Z</time></trkpt><trkpt lat="43.51556312906281" lon="12.71315023576706"><ele>448.5</ele><time>2026-04-26T10:04:38Z</time></trkpt><trkpt lat="43.51557903653462" lon="12.713350977929293"><ele>449.0</ele><time>2026-04-26T10:04:39Z</time></trkpt><trkpt lat="43.51559470770534" lon="12.713547459281159"><ele>449.5</ele><time>2026-04-26T10:04:40Z</time></trkpt><trkpt lat="43.515606487287926" lon="12.713738220989633"><ele>450.0</ele><time>2026-04-26T10:04:41Z</time></trkpt><trkpt lat="43.515606330536414" lon="12.713933710521085"><ele>451.5</ele><time>2026-04-26T10:04:42Z</time></trkpt><trkpt lat="43.51562295318198" lon="12.714135629876955"><ele>453.0</ele><time>2026-04-26T10:04:43Z</time></trkpt><trkpt lat="43.515646489556566" lon="12.714337252856451"><ele>454.5</ele><time>2026-04-26T10:04:44Z</time></trkpt><trkpt lat="43.515693338740014" lon="12.714526456284506"><ele>456.0</ele><time>2026-04-26T10:04:45Z</time></trkpt><trkpt lat="43.51572259261755" lon="12.714729397343003"><ele>456.25</ele><time>2026-04-26T10:04:46Z</time></trkpt><trkpt lat="43.51577053783976" lon="12.714916748417195"><ele>456.5</ele><time>2026-04-26T10:04:47Z</time></trkpt><trkpt lat="43.51582061390112" lon="12.715107537734117"><ele>456.75</ele><time>2026-04-26T10:04:48Z</time></trkpt><trkpt lat="43.5158692067401" lon="12.715300696515596"><ele>457.0</ele><time>2026-04-26T10:04:49Z</time></trkpt><trkpt lat="43.515929728133" lon="12.715489311189987"><ele>457.5</ele><time>2026-04-26T10:04:50Z</time></trkpt><trkpt lat="43.51596156016263" lon="12.715692336969404"><ele>458.0</ele><time>2026-04-26T10:04:51Z</time></trkpt><trkpt lat="43.51597594415183" lon="12.71589643403172"><ele>458.5</ele><time>2026-04-26T10:04:52Z</time></trkpt><trkpt lat="43.51597809864667" lon="12.716099180453938"><ele>459.0</ele><time>2026-04-26T10:04:53Z</time></trkpt><trkpt lat="43.51597957463803" lon="12.716302188534632"><ele>459.5</ele><time>2026-04-26T10:04:54Z</time></trkpt><trkpt lat="43.51597143451734" lon="12.716500751665576"><ele>460.0</ele><time>2026-04-26T10:04:55Z</time></trkpt><trkpt lat="43.515969109124065" lon="12.716698787646715"><ele>460.5</ele><time>2026-04-26T10:04:56Z</time></trkpt><trkpt lat="43.51596283774608" lon="12.716908879060538"><ele>461.0</ele><time>2026-04-26T10:04:57Z</time></trkpt><trkpt lat="43.51596609590311" lon="12.71709288469444"><ele>461.20000000000005</ele><time>2026-04-26T10:04:58Z</time></trkpt><trkpt lat="43.51596407609075" lon="12.717266681934245"><ele>461.40000000000003</ele><time>2026-04-26T10:04:59Z</time></trkpt><trkpt lat="43.51597142755408" lon="12.71742508927647"><ele>461.6</ele><time>2026-04-26T10:05:00Z</time></trkpt><trkpt lat="43.51598644516309" lon="12.717563533398167"><ele>461.8</ele><time>2026-04-26T10:05:01Z</time></trkpt><trkpt lat="43.51599038213913" lon="12.717701848131735"><ele>462.0</ele><time>2026-04-26T10:05:02Z</time></trkpt><trkpt lat="43.51602763441743" lon="12.717827404244227"><ele>460.5</ele><time>2026-04-26T10:05:03Z</time></trkpt><trkpt lat="43.51604112528536" lon="12.717974158444319"><ele>459.0</ele><time>2026-04-26T10:05:04Z</time></trkpt><trkpt lat="43.516038620929514" lon="12.718127494585673"><ele>457.5</ele><time>2026-04-26T10:05:05Z</time></trkpt><trkpt lat="43.516039655361695" lon="12.718283998554725"><ele>456.0</ele><time>2026-04-26T10:05:06Z</time></trkpt><trkpt lat="43.51604843472224" lon="12.718448150659983"><ele>453.75</ele><time>2026-04-26T10:05:07Z</time></trkpt><trkpt lat="43.5160696020746" lon="12.718615684106721"><ele>451.5</ele><time>2026-04-26T10:05:08Z</time></trkpt><trkpt lat="43.5160840347638" lon="12.718793198341714"><ele>449.25</ele><time>2026-04-26T10:05:09Z</time></trkpt><trkpt lat="43.51612472009865" lon="12.718965123712085"><ele>447.0</ele><time>2026-04-26T10:05:10Z</time></trkpt><trkpt lat="43.51617014058939" lon="12.71914545606617"><ele>447.0</ele><time>2026-04-26T10:05:11Z</time></trkpt><trkpt lat="43.51621453996466" lon="12.719325513389874"><ele>447.0</ele><time>2026-04-26T10:05:12Z</time></trkpt><trkpt lat="43.51625672412206" lon="12.71950558384313"><ele>447.0</ele><time>2026-04-26T10:05:13Z</time></trkpt><trkpt lat="43.51629821478965" lon="12.719684182827654"><ele>447.0</ele><time>2026-04-26T10:05:14Z</time></trkpt><trkpt lat="43.51633797175708" lon="12.719868088944187"><ele>449.0</ele><time>2026-04-26T10:05:15Z</time></trkpt><trkpt lat="43.516374259340274" lon="12.720045631127684"><ele>451.0</ele><time>2026-04-26T10:05:16Z</time></trkpt><trkpt lat="43.51639717703431" lon="12.720219256269196"><ele>453.0</ele><time>2026-04-26T10:05:17Z</time></trkpt><trkpt lat="43.51637659853595" lon="12.720396456263787"><ele>455.0</ele><time>2026-04-26T10:05:18Z</time></trkpt><trkpt lat="43.51636374945065" lon="12.72057084807617"><ele>455.0</ele><time>2026-04-26T10:05:19Z</time></trkpt><trkpt lat="43.516362377374065" lon="12.720743737111315"><ele>455.0</ele><time>2026-04-26T10:05:20Z</time></trkpt><trkpt lat="43.51634114990717" lon="12.720921260418008"><ele>455.0</ele><time>2026-04-26T10:05:21Z</time></trkpt><trkpt lat="43.51636204405636" lon="12.721105698626683"><ele>455.0</ele><time>2026-04-26T10:05:22Z</time></trkpt><trkpt lat="43.51641381040367" lon="12.721278256902648"><ele>452.5</ele><time>2026-04-26T10:05:23Z</time></trkpt><trkpt lat="43.51647970792819" lon="12.721442171960854"><ele>450.0</ele><time>2026-04-26T10:05:24Z</time></trkpt><trkpt lat="43.51655566555047" lon="12.721592504282727"><ele>447.5</ele><time>2026-04-26T10:05:25Z</time></trkpt><trkpt lat="43.51662598282394" lon="12.721730028563725"><ele>445.0</ele><time>2026-04-26T10:05:26Z</time></trkpt><trkpt lat="43.51669506739937" lon="12.721865136925006"><ele>443.75</ele><time>2026-04-26T10:05:27Z</time></trkpt><trkpt lat="43.51676264693654" lon="12.722002677681099"><ele>442.5</ele><time>2026-04-26T10:05:28Z</time></trkpt><trkpt lat="43.516801123929326" lon="12.722143882081653"><ele>441.25</ele><time>2026-04-26T10:05:29Z</time></trkpt><trkpt lat="43.51679970352454" lon="12.722303842437745"><ele>440.0</ele><time>2026-04-26T10:05:30Z</time></trkpt><trkpt lat="43.51679244989934" lon="12.722488972248703"><ele>440.0</ele><time>2026-04-26T10:05:31Z</time></trkpt><trkpt lat="43.516801005000694" lon="12.722663253223603"><ele>440.0</ele><time>2026-04-26T10:05:32Z</time></trkpt><trkpt lat="43.516821043967056" lon="12.722844882470255"><ele>440.0</ele><time>2026-04-26T10:05:33Z</time></trkpt><trkpt lat="43.51686709887013" lon="12.723016757501721"><ele>440.0</ele><time>2026-04-26T10:05:34Z</time></trkpt><trkpt lat="43.516925887221305" lon="12.723182180889832"><ele>440.75</ele><time>2026-04-26T10:05:35Z</time></trkpt><trkpt lat="43.51696102857639" lon="12.723336315153738"><ele>441.5</ele><time>2026-04-26T10:05:36Z</time></trkpt><trkpt lat="43.51696749145867" lon="12.723505953495629"><ele>442.25</ele><time>2026-04-26T10:05:37Z</time></trkpt><trkpt lat="43.51693093211442" lon="12.723671713887766"><ele>443.0</ele><time>2026-04-26T10:05:38Z</time></trkpt><trkpt lat="43.516879311346614" lon="12.723831325134011"><ele>443.0</ele><time>2026-04-26T10:05:39Z</time></trkpt><trkpt lat="43.516827566253994" lon="12.723986560425931"><ele>443.0</ele><time>2026-04-26T10:05:40Z</time></trkpt><trkpt lat="43.51677794343619" lon="12.724141068473578"><ele>443.0</ele><time>2026-04-26T10:05:41Z</time></trkpt><trkpt lat="43.51672849400233" lon="12.72429950847083"><ele>443.0</ele><time>2026-04-26T10:05:42Z</time></trkpt><trkpt lat="43.5166746686961" lon="12.724459605579776"><ele>446.5</ele><time>2026-04-26T10:05:43Z</time></trkpt><trkpt lat="43.51660926759643" lon="12.724614579553498"><ele>450.0</ele><time>2026-04-26T10:05:44Z</time></trkpt><trkpt lat="43.516543158182884" lon="12.72475861494616"><ele>453.5</ele><time>2026-04-26T10:05:45Z</time></trkpt><trkpt lat="43.51646824816883" lon="12.72491013687779"><ele>457.0</ele><time>2026-04-26T10:05:46Z</time></trkpt><trkpt lat="43.51639723626449" lon="12.725066559755435"><ele>457.0</ele><time>2026-04-26T10:05:47Z</time></trkpt><trkpt lat="43.516319568481755" lon="12.725227530709086"><ele>457.0</ele><time>2026-04-26T10:05:48Z</time></trkpt><trkpt lat="43.51621219462687" lon="12.725341732838002"><ele>457.0</ele><time>2026-04-26T10:05:49Z</time></trkpt><trkpt lat="43.5161183653713" lon="12.725480181921164"><ele>457.0</ele><time>2026-04-26T10:05:50Z</time></trkpt><trkpt lat="43.51600581482091" lon="12.725605883755513"><ele>458.25</ele><time>2026-04-26T10:05:51Z</time></trkpt><trkpt lat="43.51589573938862" lon="12.725733195197256"><ele>459.5</ele><time>2026-04-26T10:05:52Z</time></trkpt><trkpt lat="43.51579109773617" lon="12.725856788684737"><ele>460.75</ele><time>2026-04-26T10:05:53Z</time></trkpt><trkpt lat="43.515689991632634" lon="12.725992762110904"><ele>462.0</ele><time>2026-04-26T10:05:54Z</time></trkpt><trkpt lat="43.5155986384533" lon="12.726146640328146"><ele>462.0</ele><time>2026-04-26T10:05:55Z</time></trkpt><trkpt lat="43.515517013680885" lon="12.726306238958548"><ele>462.0</ele><time>2026-04-26T10:05:56Z</time></trkpt><trkpt lat="43.51544353733654" lon="12.726473177439624"><ele>462.0</ele><time>2026-04-26T10:05:57Z</time></trkpt><trkpt lat="43.51536125524816" lon="12.72664006623639"><ele>462.0</ele><time>2026-04-26T10:05:58Z</time></trkpt><trkpt lat="43.51526207304933" lon="12.726801439094999"><ele>456.66666666666663</ele><time>2026-04-26T10:05:59Z</time></trkpt><trkpt lat="43.51515893307022" lon="12.726959071215278"><ele>451.3333333333333</ele><time>2026-04-26T10:06:00Z</time></trkpt><trkpt lat="43.51505089712359" lon="12.727100149001554"><ele>446.0</ele><time>2026-04-26T10:06:01Z</time></trkpt><trkpt lat="43.514941616730006" lon="12.727248539343865"><ele>446.0</ele><time>2026-04-26T10:06:02Z</time></trkpt><trkpt lat="43.514838140247676" lon="12.727399640939337"><ele>446.0</ele><time>2026-04-26T10:06:03Z</time></trkpt><trkpt lat="43.514728554919046" lon="12.727551052302246"><ele>446.0</ele><time>2026-04-26T10:06:04Z</time></trkpt><trkpt lat="43.51462258247547" lon="12.727697664413766"><ele>441.75</ele><time>2026-04-26T10:06:05Z</time></trkpt><trkpt lat="43.51450652017526" lon="12.727819475988992"><ele>437.5</ele><time>2026-04-26T10:06:06Z</time></trkpt><trkpt lat="43.514401785531156" lon="12.727956935990944"><ele>433.25</ele><time>2026-04-26T10:06:07Z</time></trkpt><trkpt lat="43.51430264398463" lon="12.728090109818988"><ele>429.0</ele><time>2026-04-26T10:06:08Z</time></trkpt><trkpt lat="43.51421389043278" lon="12.728221207855293"><ele>429.0</ele><time>2026-04-26T10:06:09Z</time></trkpt><trkpt lat="43.51416282724914" lon="12.72839338450925"><ele>429.0</ele><time>2026-04-26T10:06:10Z</time></trkpt><trkpt lat="43.514104677962365" lon="12.728563853496066"><ele>429.0</ele><time>2026-04-26T10:06:11Z</time></trkpt><trkpt lat="43.51406280832969" lon="12.728745549774242"><ele>429.0</ele><time>2026-04-26T10:06:12Z</time></trkpt><trkpt lat="43.51402234013524" lon="12.728921939679791"><ele>430.5</ele><time>2026-04-26T10:06:13Z</time></trkpt><trkpt lat="43.51397794164366" lon="12.72910779381503"><ele>432.0</ele><time>2026-04-26T10:06:14Z</time></trkpt><trkpt lat="43.51393029070367" lon="12.729299647148022"><ele>433.5</ele><time>2026-04-26T10:06:15Z</time></trkpt><trkpt lat="43.51389236925724" lon="12.729500746545504"><ele>435.0</ele><time>2026-04-26T10:06:16Z</time></trkpt><trkpt lat="43.51384228700035" lon="12.729675063731772"><ele>435.0</ele><time>2026-04-26T10:06:17Z</time></trkpt><trkpt lat="43.513781178304185" lon="12.729819787637128"><ele>435.0</ele><time>2026-04-26T10:06:18Z</time></trkpt><trkpt lat="43.51373718850771" lon="12.729963457319526"><ele>435.0</ele><time>2026-04-26T10:06:19Z</time></trkpt><trkpt lat="43.51369594682296" lon="12.730101505156897"><ele>435.0</ele><time>2026-04-26T10:06:20Z</time></trkpt><trkpt lat="43.51365344154215" lon="12.730223929639227"><ele>435.0</ele><time>2026-04-26T10:06:21Z</time></trkpt><trkpt lat="43.51361634859414" lon="12.730326979506108"><ele>433.1666666666667</ele><time>2026-04-26T10:06:22Z</time></trkpt><trkpt lat="43.51354833052034" lon="12.730362444973403"><ele>431.33333333333337</ele><time>2026-04-26T10:06:23Z</time></trkpt><trkpt lat="43.51343620219573" lon="12.730336230932235"><ele>429.5</ele><time>2026-04-26T10:06:25Z</time></trkpt><trkpt lat="43.513380279888715" lon="12.730248807762239"><ele>427.6666666666667</ele><time>2026-04-26T10:06:27Z</time></trkpt><trkpt lat="43.51341382308383" lon="12.730115100311297"><ele>425.83333333333337</ele><time>2026-04-26T10:06:29Z</time></trkpt><trkpt lat="43.51344979136431" lon="12.730033305776658"><ele>424.0</ele><time>2026-04-26T10:06:30Z</time></trkpt><trkpt lat="43.513478076230584" lon="12.729927450203105"><ele>424.0</ele><time>2026-04-26T10:06:31Z</time></trkpt><trkpt lat="43.51351665840893" lon="12.72980671162938"><ele>424.0</ele><time>2026-04-26T10:06:32Z</time></trkpt><trkpt lat="43.51355691625723" lon="12.729674722850957"><ele>424.0</ele><time>2026-04-26T10:06:33Z</time></trkpt><trkpt lat="43.51361011230506" lon="12.729543645878165"><ele>424.0</ele><time>2026-04-26T10:06:34Z</time></trkpt><trkpt lat="43.51364226430521" lon="12.7294010025708"><ele>424.0</ele><time>2026-04-26T10:06:35Z</time></trkpt><trkpt lat="43.51367547897202" lon="12.72927026332846"><ele>424.4</ele><time>2026-04-26T10:06:36Z</time></trkpt><trkpt lat="43.513673724907065" lon="12.729132284487674"><ele>424.79999999999995</ele><time>2026-04-26T10:06:37Z</time></trkpt><trkpt lat="43.51362565238494" lon="12.72900074414447"><ele>425.20000000000005</ele><time>2026-04-26T10:06:38Z</time></trkpt><trkpt lat="43.51356682289943" lon="12.728880458092382"><ele>425.6</ele><time>2026-04-26T10:06:39Z</time></trkpt><trkpt lat="43.51351732380559" lon="12.728755781186223"><ele>426.0</ele><time>2026-04-26T10:06:40Z</time></trkpt><trkpt lat="43.513470808639426" lon="12.728636319611752"><ele>426.0</ele><time>2026-04-26T10:06:41Z</time></trkpt><trkpt lat="43.5134280711742" lon="12.72853182535718"><ele>426.0</ele><time>2026-04-26T10:06:42Z</time></trkpt><trkpt lat="43.5133886179811" lon="12.72844152540505"><ele>426.0</ele><time>2026-04-26T10:06:43Z</time></trkpt><trkpt lat="43.513348719039726" lon="12.728370849201683"><ele>426.0</ele><time>2026-04-26T10:06:44Z</time></trkpt><trkpt lat="43.51331163231138" lon="12.728298531521737"><ele>426.0</ele><time>2026-04-26T10:06:46Z</time></trkpt><trkpt lat="43.5132104300236" lon="12.728403883664761"><ele>426.0</ele><time>2026-04-26T10:06:47Z</time></trkpt><trkpt lat="43.513171383552255" lon="12.728486375790727"><ele>426.0</ele><time>2026-04-26T10:06:48Z</time></trkpt><trkpt lat="43.51312873124107" lon="12.728583232864542"><ele>426.0</ele><time>2026-04-26T10:06:49Z</time></trkpt><trkpt lat="43.51307725573966" lon="12.728692627657875"><ele>426.0</ele><time>2026-04-26T10:06:50Z</time></trkpt><trkpt lat="43.51300628507046" lon="12.728795318951441"><ele>426.0</ele><time>2026-04-26T10:06:51Z</time></trkpt><trkpt lat="43.51295042089304" lon="12.728930804835972"><ele>426.0</ele><time>2026-04-26T10:06:52Z</time></trkpt><trkpt lat="43.51291589640499" lon="12.729086288905524"><ele>425.75</ele><time>2026-04-26T10:06:53Z</time></trkpt><trkpt lat="43.51285634502096" lon="12.729244252903632"><ele>425.5</ele><time>2026-04-26T10:06:54Z</time></trkpt><trkpt lat="43.51280720084409" lon="12.72941824244119"><ele>425.25</ele><time>2026-04-26T10:06:55Z</time></trkpt><trkpt lat="43.512762690691744" lon="12.72960740645302"><ele>425.0</ele><time>2026-04-26T10:06:56Z</time></trkpt><trkpt lat="43.512723109335106" lon="12.729796014299932"><ele>425.0</ele><time>2026-04-26T10:06:57Z</time></trkpt><trkpt lat="43.51267163874718" lon="12.729971399929823"><ele>425.0</ele><time>2026-04-26T10:06:58Z</time></trkpt><trkpt lat="43.51262665861518" lon="12.730153953056673"><ele>425.0</ele><time>2026-04-26T10:06:59Z</time></trkpt><trkpt lat="43.51258103902793" lon="12.730338858366816"><ele>425.0</ele><time>2026-04-26T10:07:00Z</time></trkpt><trkpt lat="43.51253853413686" lon="12.730524478207514"><ele>424.75</ele><time>2026-04-26T10:07:01Z</time></trkpt><trkpt lat="43.51249223670412" lon="12.730712348325373"><ele>424.5</ele><time>2026-04-26T10:07:02Z</time></trkpt><trkpt lat="43.51244786257182" lon="12.730905243885616"><ele>424.25</ele><time>2026-04-26T10:07:03Z</time></trkpt><trkpt lat="43.512402156685184" lon="12.731097979656301"><ele>424.0</ele><time>2026-04-26T10:07:04Z</time></trkpt><trkpt lat="43.512366398771526" lon="12.731297042353114"><ele>423.0</ele><time>2026-04-26T10:07:05Z</time></trkpt><trkpt lat="43.512330086735126" lon="12.731494439215433"><ele>422.0</ele><time>2026-04-26T10:07:06Z</time></trkpt><trkpt lat="43.512280872219264" lon="12.731689056117693"><ele>421.0</ele><time>2026-04-26T10:07:07Z</time></trkpt><trkpt lat="43.51224336217129" lon="12.731883650932508"><ele>420.0</ele><time>2026-04-26T10:07:08Z</time></trkpt><trkpt lat="43.51219957217983" lon="12.73207349541025"><ele>419.75</ele><time>2026-04-26T10:07:09Z</time></trkpt><trkpt lat="43.51216143043622" lon="12.732269456318797"><ele>419.5</ele><time>2026-04-26T10:07:10Z</time></trkpt><trkpt lat="43.51213645105103" lon="12.732466831841991"><ele>419.25</ele><time>2026-04-26T10:07:11Z</time></trkpt><trkpt lat="43.512127114827436" lon="12.732666413798544"><ele>419.0</ele><time>2026-04-26T10:07:12Z</time></trkpt><trkpt lat="43.512125690178756" lon="12.732875382783373"><ele>419.25</ele><time>2026-04-26T10:07:13Z</time></trkpt><trkpt lat="43.512122070001986" lon="12.733075110587952"><ele>419.5</ele><time>2026-04-26T10:07:14Z</time></trkpt><trkpt lat="43.51212633996844" lon="12.73327981704715"><ele>419.75</ele><time>2026-04-26T10:07:15Z</time></trkpt><trkpt lat="43.51213989599949" lon="12.733487086475447"><ele>420.0</ele><time>2026-04-26T10:07:16Z</time></trkpt><trkpt lat="43.51216716284101" lon="12.73370002476075"><ele>420.0</ele><time>2026-04-26T10:07:17Z</time></trkpt><trkpt lat="43.512207244993846" lon="12.733915427018552"><ele>420.0</ele><time>2026-04-26T10:07:18Z</time></trkpt><trkpt lat="43.51226086080308" lon="12.734131416334714"><ele>420.0</ele><time>2026-04-26T10:07:19Z</time></trkpt><trkpt lat="43.512322905629176" lon="12.73434677221161"><ele>421.33333333333337</ele><time>2026-04-26T10:07:20Z</time></trkpt><trkpt lat="43.51239386139045" lon="12.73456052435008"><ele>422.6666666666667</ele><time>2026-04-26T10:07:21Z</time></trkpt><trkpt lat="43.5124687982823" lon="12.734769355972778"><ele>424.0</ele><time>2026-04-26T10:07:22Z</time></trkpt><trkpt lat="43.51254263975192" lon="12.734979090223984"><ele>424.0</ele><time>2026-04-26T10:07:23Z</time></trkpt><trkpt lat="43.51262075154416" lon="12.735176366965723"><ele>424.0</ele><time>2026-04-26T10:07:24Z</time></trkpt><trkpt lat="43.512698753500786" lon="12.735376747626853"><ele>424.0</ele><time>2026-04-26T10:07:25Z</time></trkpt><trkpt lat="43.51278362896114" lon="12.73557247201821"><ele>423.6666666666667</ele><time>2026-04-26T10:07:26Z</time></trkpt><trkpt lat="43.51285984850067" lon="12.735767064860974"><ele>423.33333333333337</ele><time>2026-04-26T10:07:27Z</time></trkpt><trkpt lat="43.51293223503747" lon="12.735955443805532"><ele>423.0</ele><time>2026-04-26T10:07:28Z</time></trkpt><trkpt lat="43.512999393944575" lon="12.73613298070375"><ele>423.0</ele><time>2026-04-26T10:07:29Z</time></trkpt><trkpt lat="43.51306600906605" lon="12.736302830993338"><ele>423.0</ele><time>2026-04-26T10:07:30Z</time></trkpt><trkpt lat="43.51313681435214" lon="12.736464895340346"><ele>423.0</ele><time>2026-04-26T10:07:31Z</time></trkpt><trkpt lat="43.51319941418933" lon="12.736629184948175"><ele>423.0</ele><time>2026-04-26T10:07:32Z</time></trkpt><trkpt lat="43.513237754604596" lon="12.736809225606143"><ele>422.25</ele><time>2026-04-26T10:07:33Z</time></trkpt><trkpt lat="43.51328762250302" lon="12.73697393383225"><ele>421.5</ele><time>2026-04-26T10:07:34Z</time></trkpt><trkpt lat="43.51333900845741" lon="12.73713358374584"><ele>420.75</ele><time>2026-04-26T10:07:35Z</time></trkpt><trkpt lat="43.51340166149101" lon="12.7372722143835"><ele>420.0</ele><time>2026-04-26T10:07:36Z</time></trkpt><trkpt lat="43.513456172177776" lon="12.737427987409328"><ele>420.0</ele><time>2026-04-26T10:07:37Z</time></trkpt><trkpt lat="43.513504084091466" lon="12.737576411063447"><ele>420.0</ele><time>2026-04-26T10:07:38Z</time></trkpt><trkpt lat="43.51356025415124" lon="12.73772106170841"><ele>420.0</ele><time>2026-04-26T10:07:39Z</time></trkpt><trkpt lat="43.5136099903388" lon="12.73784925817871"><ele>420.0</ele><time>2026-04-26T10:07:40Z</time></trkpt><trkpt lat="43.51366789647428" lon="12.737967634369612"><ele>420.0</ele><time>2026-04-26T10:07:41Z</time></trkpt><trkpt lat="43.513716281977516" lon="12.738066245039109"><ele>419.0</ele><time>2026-04-26T10:07:42Z</time></trkpt><trkpt lat="43.51377234234919" lon="12.738145912093117"><ele>418.0</ele><time>2026-04-26T10:07:43Z</time></trkpt><trkpt lat="43.51381477777064" lon="12.73821256382181"><ele>417.0</ele><time>2026-04-26T10:07:44Z</time></trkpt><trkpt lat="43.513850546617995" lon="12.738284699645376"><ele>416.0</ele><time>2026-04-26T10:07:45Z</time></trkpt><trkpt lat="43.51388493629928" lon="12.738370844885987"><ele>415.0</ele><time>2026-04-26T10:07:46Z</time></trkpt><trkpt lat="43.513910632308566" lon="12.738453525053473"><ele>414.0</ele><time>2026-04-26T10:07:47Z</time></trkpt><trkpt lat="43.513932409907085" lon="12.738557609286916"><ele>413.0</ele><time>2026-04-26T10:07:48Z</time></trkpt><trkpt lat="43.51392026260758" lon="12.738685516759807"><ele>412.75</ele><time>2026-04-26T10:07:49Z</time></trkpt><trkpt lat="43.513931637680656" lon="12.738830050722317"><ele>412.5</ele><time>2026-04-26T10:07:50Z</time></trkpt><trkpt lat="43.51394374862656" lon="12.738983934792463"><ele>412.25</ele><time>2026-04-26T10:07:51Z</time></trkpt><trkpt lat="43.51395601283808" lon="12.739139766136148"><ele>412.0</ele><time>2026-04-26T10:07:52Z</time></trkpt><trkpt lat="43.51396994946217" lon="12.739316847567908"><ele>413.0</ele><time>2026-04-26T10:07:53Z</time></trkpt><trkpt lat="43.51398347181971" lon="12.739488665150857"><ele>414.0</ele><time>2026-04-26T10:07:54Z</time></trkpt><trkpt lat="43.513999272903924" lon="12.739672088595704"><ele>415.0</ele><time>2026-04-26T10:07:55Z</time></trkpt><trkpt lat="43.51401472500284" lon="12.739847508054346"><ele>416.0</ele><time>2026-04-26T10:07:56Z</time></trkpt><trkpt lat="43.51403085323346" lon="12.740030603302769"><ele>416.5</ele><time>2026-04-26T10:07:57Z</time></trkpt><trkpt lat="43.514057375053646" lon="12.740222075496172"><ele>417.0</ele><time>2026-04-26T10:07:58Z</time></trkpt><trkpt lat="43.51407532540839" lon="12.740409191074658"><ele>417.5</ele><time>2026-04-26T10:07:59Z</time></trkpt><trkpt lat="43.51409239000654" lon="12.740598080985423"><ele>418.0</ele><time>2026-04-26T10:08:00Z</time></trkpt><trkpt lat="43.51410856740997" lon="12.740789686239365"><ele>418.0</ele><time>2026-04-26T10:08:01Z</time></trkpt><trkpt lat="43.514126700628545" lon="12.740985018662032"><ele>418.0</ele><time>2026-04-26T10:08:02Z</time></trkpt><trkpt lat="43.51414181490822" lon="12.741180844982976"><ele>418.0</ele><time>2026-04-26T10:08:03Z</time></trkpt><trkpt lat="43.51415574358377" lon="12.7413767539036"><ele>418.0</ele><time>2026-04-26T10:08:04Z</time></trkpt><trkpt lat="43.514167441675276" lon="12.7415718323395"><ele>418.0</ele><time>2026-04-26T10:08:05Z</time></trkpt><trkpt lat="43.51416995373781" lon="12.74176847492429"><ele>418.0</ele><time>2026-04-26T10:08:06Z</time></trkpt><trkpt lat="43.51415622992704" lon="12.741964711647292"><ele>418.0</ele><time>2026-04-26T10:08:07Z</time></trkpt><trkpt lat="43.51412611901418" lon="12.742160226850519"><ele>418.0</ele><time>2026-04-26T10:08:08Z</time></trkpt><trkpt lat="43.51407972144355" lon="12.742344117420194"><ele>418.25</ele><time>2026-04-26T10:08:09Z</time></trkpt><trkpt lat="43.514018615032974" lon="12.742516378206227"><ele>418.5</ele><time>2026-04-26T10:08:10Z</time></trkpt><trkpt lat="43.51395616952277" lon="12.742696081133849"><ele>418.75</ele><time>2026-04-26T10:08:11Z</time></trkpt><trkpt lat="43.51388715823058" lon="12.742868866354716"><ele>419.0</ele><time>2026-04-26T10:08:12Z</time></trkpt><trkpt lat="43.51382521652365" lon="12.743045320526816"><ele>419.25</ele><time>2026-04-26T10:08:13Z</time></trkpt><trkpt lat="43.513762243889744" lon="12.743216694428215"><ele>419.5</ele><time>2026-04-26T10:08:14Z</time></trkpt><trkpt lat="43.51369686688049" lon="12.743400383766227"><ele>419.75</ele><time>2026-04-26T10:08:15Z</time></trkpt><trkpt lat="43.51362537187007" lon="12.743577546315562"><ele>420.0</ele><time>2026-04-26T10:08:16Z</time></trkpt><trkpt lat="43.513556363320724" lon="12.743766048020476"><ele>425.33333333333337</ele><time>2026-04-26T10:08:17Z</time></trkpt><trkpt lat="43.51348235673169" lon="12.743977037551206"><ele>430.6666666666667</ele><time>2026-04-26T10:08:18Z</time></trkpt><trkpt lat="43.51340725406781" lon="12.744191892499597"><ele>436.0</ele><time>2026-04-26T10:08:19Z</time></trkpt><trkpt lat="43.513320370186854" lon="12.744406826337947"><ele>437.33333333333337</ele><time>2026-04-26T10:08:20Z</time></trkpt><trkpt lat="43.51323556949545" lon="12.744635925552611"><ele>438.66666666666663</ele><time>2026-04-26T10:08:21Z</time></trkpt><trkpt lat="43.513145257473056" lon="12.744849858106855"><ele>440.0</ele><time>2026-04-26T10:08:22Z</time></trkpt><trkpt lat="43.513063596475085" lon="12.745070579304803"><ele>445.3333333333333</ele><time>2026-04-26T10:08:23Z</time></trkpt><trkpt lat="43.51298294973438" lon="12.745293329077477"><ele>450.66666666666663</ele><time>2026-04-26T10:08:24Z</time></trkpt><trkpt lat="43.51292707532229" lon="12.745525056067772"><ele>456.0</ele><time>2026-04-26T10:08:25Z</time></trkpt><trkpt lat="43.5128494376875" lon="12.745747242422727"><ele>456.33333333333337</ele><time>2026-04-26T10:08:26Z</time></trkpt><trkpt lat="43.51279728922211" lon="12.745979392012135"><ele>456.6666666666667</ele><time>2026-04-26T10:08:27Z</time></trkpt><trkpt lat="43.512760801522376" lon="12.746211881034949"><ele>457.0</ele><time>2026-04-26T10:08:28Z</time></trkpt><trkpt lat="43.51268665619851" lon="12.746401013422734"><ele>458.33333333333337</ele><time>2026-04-26T10:08:29Z</time></trkpt><trkpt lat="43.51260084948246" lon="12.746577533266834"><ele>459.66666666666663</ele><time>2026-04-26T10:08:30Z</time></trkpt><trkpt lat="43.51248039715161" lon="12.746716974901169"><ele>461.0</ele><time>2026-04-26T10:08:31Z</time></trkpt><trkpt lat="43.51232608709313" lon="12.746841055335207"><ele>458.0</ele><time>2026-04-26T10:08:32Z</time></trkpt><trkpt lat="43.51217195636519" lon="12.746950270311272"><ele>455.0</ele><time>2026-04-26T10:08:33Z</time></trkpt><trkpt lat="43.51202414847074" lon="12.747032985710543"><ele>452.0</ele><time>2026-04-26T10:08:34Z</time></trkpt><trkpt lat="43.5118814484402" lon="12.747080226006378"><ele>452.0</ele><time>2026-04-26T10:08:35Z</time></trkpt><trkpt lat="43.51173373831818" lon="12.747082079121206"><ele>452.0</ele><time>2026-04-26T10:08:36Z</time></trkpt><trkpt lat="43.51157333777922" lon="12.747035013316697"><ele>452.0</ele><time>2026-04-26T10:08:37Z</time></trkpt><trkpt lat="43.51139885673423" lon="12.74698440060607"><ele>450.66666666666663</ele><time>2026-04-26T10:08:38Z</time></trkpt><trkpt lat="43.5112129410091" lon="12.746927325444206"><ele>449.33333333333337</ele><time>2026-04-26T10:08:39Z</time></trkpt><trkpt lat="43.51102227445101" lon="12.746846055972558"><ele>448.0</ele><time>2026-04-26T10:08:40Z</time></trkpt><trkpt lat="43.510822194987746" lon="12.7467777925777"><ele>448.0</ele><time>2026-04-26T10:08:41Z</time></trkpt><trkpt lat="43.5106148242264" lon="12.74672484528165"><ele>448.0</ele><time>2026-04-26T10:08:42Z</time></trkpt><trkpt lat="43.51042139323465" lon="12.746656795966663"><ele>448.0</ele><time>2026-04-26T10:08:43Z</time></trkpt><trkpt lat="43.510237219822464" lon="12.746592242485814"><ele>444.33333333333337</ele><time>2026-04-26T10:08:44Z</time></trkpt><trkpt lat="43.51005612711902" lon="12.746510471414544"><ele>440.66666666666663</ele><time>2026-04-26T10:08:45Z</time></trkpt><trkpt lat="43.509878134165966" lon="12.7464028684835"><ele>437.0</ele><time>2026-04-26T10:08:46Z</time></trkpt><trkpt lat="43.509708501725804" lon="12.746269180264814"><ele>439.0</ele><time>2026-04-26T10:08:47Z</time></trkpt><trkpt lat="43.50953615333406" lon="12.746124844916961"><ele>441.0</ele><time>2026-04-26T10:08:48Z</time></trkpt><trkpt lat="43.50936594265534" lon="12.74599216823519"><ele>443.0</ele><time>2026-04-26T10:08:49Z</time></trkpt><trkpt lat="43.509195378589176" lon="12.745860086776878"><ele>443.0</ele><time>2026-04-26T10:08:50Z</time></trkpt><trkpt lat="43.509026801674224" lon="12.745726923658397"><ele>443.0</ele><time>2026-04-26T10:08:51Z</time></trkpt><trkpt lat="43.50886350800946" lon="12.745596437625172"><ele>443.0</ele><time>2026-04-26T10:08:52Z</time></trkpt><trkpt lat="43.508700353209996" lon="12.745466987998569"><ele>442.0</ele><time>2026-04-26T10:08:53Z</time></trkpt><trkpt lat="43.50853496324274" lon="12.745334844917444"><ele>441.0</ele><time>2026-04-26T10:08:54Z</time></trkpt><trkpt lat="43.5083787906079" lon="12.745208243619109"><ele>440.0</ele><time>2026-04-26T10:08:55Z</time></trkpt><trkpt lat="43.50822899016347" lon="12.745090847919986"><ele>440.0</ele><time>2026-04-26T10:08:56Z</time></trkpt><trkpt lat="43.508089776369054" lon="12.744974040008817"><ele>440.0</ele><time>2026-04-26T10:08:57Z</time></trkpt><trkpt lat="43.50795606946729" lon="12.74486224160529"><ele>440.0</ele><time>2026-04-26T10:08:58Z</time></trkpt><trkpt lat="43.507822667333215" lon="12.744751032225208"><ele>438.5</ele><time>2026-04-26T10:08:59Z</time></trkpt><trkpt lat="43.507690907399855" lon="12.744644420240007"><ele>437.0</ele><time>2026-04-26T10:09:00Z</time></trkpt><trkpt lat="43.507569692001155" lon="12.74456780426577"><ele>435.5</ele><time>2026-04-26T10:09:01Z</time></trkpt><trkpt lat="43.50745303236339" lon="12.744535853673243"><ele>434.0</ele><time>2026-04-26T10:09:02Z</time></trkpt><trkpt lat="43.507341445366826" lon="12.744570288905978"><ele>434.0</ele><time>2026-04-26T10:09:03Z</time></trkpt><trkpt lat="43.50722834844879" lon="12.744645334763316"><ele>434.0</ele><time>2026-04-26T10:09:04Z</time></trkpt><trkpt lat="43.50712379254135" lon="12.744767939861163"><ele>434.0</ele><time>2026-04-26T10:09:05Z</time></trkpt><trkpt lat="43.50702777503751" lon="12.744883375985223"><ele>434.0</ele><time>2026-04-26T10:09:06Z</time></trkpt><trkpt lat="43.50694579470598" lon="12.745040678447008"><ele>437.75</ele><time>2026-04-26T10:09:07Z</time></trkpt><trkpt lat="43.50691051121684" lon="12.745224580260361"><ele>441.5</ele><time>2026-04-26T10:09:08Z</time></trkpt><trkpt lat="43.50694465632187" lon="12.745423802197385"><ele>445.25</ele><time>2026-04-26T10:09:09Z</time></trkpt><trkpt lat="43.50699252417157" lon="12.745599505594642"><ele>449.0</ele><time>2026-04-26T10:09:10Z</time></trkpt><trkpt lat="43.50702360617147" lon="12.74577996772719"><ele>449.0</ele><time>2026-04-26T10:09:11Z</time></trkpt><trkpt lat="43.50706894367644" lon="12.745954157971786"><ele>449.0</ele><time>2026-04-26T10:09:12Z</time></trkpt><trkpt lat="43.50710620205272" lon="12.746120670383705"><ele>449.0</ele><time>2026-04-26T10:09:13Z</time></trkpt><trkpt lat="43.5071319045136" lon="12.746297708357186"><ele>449.0</ele><time>2026-04-26T10:09:14Z</time></trkpt><trkpt lat="43.50715550095133" lon="12.746480227009942"><ele>443.0</ele><time>2026-04-26T10:09:15Z</time></trkpt><trkpt lat="43.50716260078289" lon="12.746680131953902"><ele>437.0</ele><time>2026-04-26T10:09:16Z</time></trkpt><trkpt lat="43.50715376855021" lon="12.746889570335723"><ele>431.0</ele><time>2026-04-26T10:09:17Z</time></trkpt><trkpt lat="43.50717531799606" lon="12.74709812901923"><ele>431.0</ele><time>2026-04-26T10:09:18Z</time></trkpt><trkpt lat="43.5071806447971" lon="12.747310798765438"><ele>431.0</ele><time>2026-04-26T10:09:19Z</time></trkpt><trkpt lat="43.507165593309445" lon="12.747526078077101"><ele>431.0</ele><time>2026-04-26T10:09:20Z</time></trkpt><trkpt lat="43.507157691853045" lon="12.747727829744496"><ele>430.3333333333333</ele><time>2026-04-26T10:09:21Z</time></trkpt><trkpt lat="43.50714306677023" lon="12.747940412763375"><ele>429.66666666666663</ele><time>2026-04-26T10:09:22Z</time></trkpt><trkpt lat="43.50712011576904" lon="12.748149463094819"><ele>429.0</ele><time>2026-04-26T10:09:23Z</time></trkpt><trkpt lat="43.50710401157421" lon="12.748357693535233"><ele>433.33333333333337</ele><time>2026-04-26T10:09:24Z</time></trkpt><trkpt lat="43.507056899660206" lon="12.748561536651437"><ele>437.6666666666667</ele><time>2026-04-26T10:09:25Z</time></trkpt><trkpt lat="43.50699931656411" lon="12.748768593954146"><ele>442.0</ele><time>2026-04-26T10:09:26Z</time></trkpt><trkpt lat="43.506931686967086" lon="12.74898193969709"><ele>442.0</ele><time>2026-04-26T10:09:27Z</time></trkpt><trkpt lat="43.50682934710734" lon="12.749200195369324"><ele>442.0</ele><time>2026-04-26T10:09:28Z</time></trkpt><trkpt lat="43.50671455667781" lon="12.74944626783408"><ele>442.0</ele><time>2026-04-26T10:09:29Z</time></trkpt><trkpt lat="43.50657997078881" lon="12.749722376922135"><ele>442.0</ele><time>2026-04-26T10:09:30Z</time></trkpt><trkpt lat="43.50643147470517" lon="12.750014604091625"><ele>442.0</ele><time>2026-04-26T10:09:31Z</time></trkpt><trkpt lat="43.5062906195062" lon="12.750329291603338"><ele>448.5</ele><time>2026-04-26T10:09:32Z</time></trkpt><trkpt lat="43.50613427068386" lon="12.750651370567265"><ele>455.0</ele><time>2026-04-26T10:09:33Z</time></trkpt><trkpt lat="43.50598332736988" lon="12.750980976253942"><ele>455.0</ele><time>2026-04-26T10:09:34Z</time></trkpt><trkpt lat="43.50585096139103" lon="12.751336903539967"><ele>455.0</ele><time>2026-04-26T10:09:35Z</time></trkpt><trkpt lat="43.50573176209027" lon="12.75167591234338"><ele>455.0</ele><time>2026-04-26T10:09:36Z</time></trkpt><trkpt lat="43.5056534426712" lon="12.751984483274628"><ele>455.0</ele><time>2026-04-26T10:09:37Z</time></trkpt><trkpt lat="43.505570871214246" lon="12.752230149962234"><ele>455.0</ele><time>2026-04-26T10:09:38Z</time></trkpt><trkpt lat="43.50547435466393" lon="12.752414808088067"><ele>457.0</ele><time>2026-04-26T10:09:39Z</time></trkpt><trkpt lat="43.50536293301514" lon="12.752597678287493"><ele>459.0</ele><time>2026-04-26T10:09:40Z</time></trkpt><trkpt lat="43.50520583394007" lon="12.752720804744278"><ele>461.0</ele><time>2026-04-26T10:09:41Z</time></trkpt><trkpt lat="43.505028351125326" lon="12.752763251262323"><ele>461.0</ele><time>2026-04-26T10:09:42Z</time></trkpt><trkpt lat="43.50484842738362" lon="12.752816952267276"><ele>461.0</ele><time>2026-04-26T10:09:43Z</time></trkpt><trkpt lat="43.5046395407514" lon="12.752834499309115"><ele>461.0</ele><time>2026-04-26T10:09:44Z</time></trkpt><trkpt lat="43.50442626392826" lon="12.752876768765255"><ele>463.0</ele><time>2026-04-26T10:09:45Z</time></trkpt><trkpt lat="43.504222544326176" lon="12.752990854085867"><ele>465.0</ele><time>2026-04-26T10:09:46Z</time></trkpt><trkpt lat="43.50403610534786" lon="12.753145363210082"><ele>467.0</ele><time>2026-04-26T10:09:47Z</time></trkpt><trkpt lat="43.503868039491046" lon="12.753350073381476"><ele>467.5</ele><time>2026-04-26T10:09:48Z</time></trkpt><trkpt lat="43.50374980910132" lon="12.75362048811714"><ele>468.0</ele><time>2026-04-26T10:09:49Z</time></trkpt><trkpt lat="43.50362810271745" lon="12.75389947850315"><ele>474.0</ele><time>2026-04-26T10:09:50Z</time></trkpt><trkpt lat="43.50353207863183" lon="12.754220397989846"><ele>480.0</ele><time>2026-04-26T10:09:51Z</time></trkpt><trkpt lat="43.50344097782966" lon="12.754528704014488"><ele>480.0</ele><time>2026-04-26T10:09:52Z</time></trkpt><trkpt lat="43.50335707271353" lon="12.754808579989339"><ele>480.0</ele><time>2026-04-26T10:09:53Z</time></trkpt><trkpt lat="43.503267075752106" lon="12.755095382136352"><ele>480.0</ele><time>2026-04-26T10:09:54Z</time></trkpt><trkpt lat="43.50317179777757" lon="12.755372759135204"><ele>480.33333333333337</ele><time>2026-04-26T10:09:55Z</time></trkpt><trkpt lat="43.50305748499685" lon="12.75560977463173"><ele>480.6666666666667</ele><time>2026-04-26T10:09:56Z</time></trkpt><trkpt lat="43.50291785323046" lon="12.75584951377048"><ele>481.0</ele><time>2026-04-26T10:09:57Z</time></trkpt><trkpt lat="43.502772653658226" lon="12.756105297012851"><ele>477.5</ele><time>2026-04-26T10:09:58Z</time></trkpt><trkpt lat="43.50262128144762" lon="12.756372900378452"><ele>474.0</ele><time>2026-04-26T10:09:59Z</time></trkpt><trkpt lat="43.502469747329314" lon="12.756649677002482"><ele>475.0</ele><time>2026-04-26T10:10:00Z</time></trkpt><trkpt lat="43.50232011843056" lon="12.756908341480568"><ele>476.0</ele><time>2026-04-26T10:10:01Z</time></trkpt><trkpt lat="43.50217624025151" lon="12.757142880062677"><ele>473.0</ele><time>2026-04-26T10:10:02Z</time></trkpt><trkpt lat="43.50201483138372" lon="12.757360340186638"><ele>470.0</ele><time>2026-04-26T10:10:03Z</time></trkpt><trkpt lat="43.501807290056334" lon="12.75753583199467"><ele>470.0</ele><time>2026-04-26T10:10:04Z</time></trkpt><trkpt lat="43.501588660930736" lon="12.757694067745733"><ele>470.0</ele><time>2026-04-26T10:10:05Z</time></trkpt><trkpt lat="43.50137916719842" lon="12.757842558186146"><ele>466.3333333333333</ele><time>2026-04-26T10:10:06Z</time></trkpt><trkpt lat="43.50119797966397" lon="12.757973004055382"><ele>462.66666666666663</ele><time>2026-04-26T10:10:07Z</time></trkpt><trkpt lat="43.50103474491416" lon="12.75809583100107"><ele>459.0</ele><time>2026-04-26T10:10:08Z</time></trkpt><trkpt lat="43.50085720474505" lon="12.758269552061549"><ele>459.0</ele><time>2026-04-26T10:10:09Z</time></trkpt><trkpt lat="43.50073113851262" lon="12.758522041921823"><ele>459.0</ele><time>2026-04-26T10:10:10Z</time></trkpt><trkpt lat="43.50060921797806" lon="12.758788336501727"><ele>458.0</ele><time>2026-04-26T10:10:11Z</time></trkpt><trkpt lat="43.500481849206665" lon="12.759062814079051"><ele>457.0</ele><time>2026-04-26T10:10:12Z</time></trkpt><trkpt lat="43.50036700523099" lon="12.759345254073885"><ele>457.5</ele><time>2026-04-26T10:10:13Z</time></trkpt><trkpt lat="43.50025933748609" lon="12.759625728225002"><ele>458.0</ele><time>2026-04-26T10:10:14Z</time></trkpt><trkpt lat="43.500116240274366" lon="12.759883464117545"><ele>458.0</ele><time>2026-04-26T10:10:15Z</time></trkpt><trkpt lat="43.49993191917387" lon="12.760164882354855"><ele>458.0</ele><time>2026-04-26T10:10:16Z</time></trkpt><trkpt lat="43.49974703363723" lon="12.760410904806623"><ele>459.5</ele><time>2026-04-26T10:10:17Z</time></trkpt><trkpt lat="43.499571370670445" lon="12.760682135427135"><ele>461.0</ele><time>2026-04-26T10:10:18Z</time></trkpt><trkpt lat="43.499368232142984" lon="12.7609369826433"><ele>459.5</ele><time>2026-04-26T10:10:19Z</time></trkpt><trkpt lat="43.49914001292593" lon="12.761158669282478"><ele>458.0</ele><time>2026-04-26T10:10:20Z</time></trkpt><trkpt lat="43.49892571065508" lon="12.761403008618384"><ele>461.5</ele><time>2026-04-26T10:10:21Z</time></trkpt><trkpt lat="43.49867613345011" lon="12.76160601128135"><ele>465.0</ele><time>2026-04-26T10:10:22Z</time></trkpt><trkpt lat="43.49842439838755" lon="12.761802350150639"><ele>463.0</ele><time>2026-04-26T10:10:23Z</time></trkpt><trkpt lat="43.49816526190588" lon="12.761986630588217"><ele>461.0</ele><time>2026-04-26T10:10:24Z</time></trkpt><trkpt lat="43.49792482225277" lon="12.762180938474437"><ele>464.0</ele><time>2026-04-26T10:10:25Z</time></trkpt><trkpt lat="43.497695837845846" lon="12.762326711278137"><ele>467.0</ele><time>2026-04-26T10:10:26Z</time></trkpt><trkpt lat="43.49749485714247" lon="12.762515786327443"><ele>464.0</ele><time>2026-04-26T10:10:27Z</time></trkpt><trkpt lat="43.49732549402107" lon="12.762787079647875"><ele>461.0</ele><time>2026-04-26T10:10:28Z</time></trkpt><trkpt lat="43.497143154583256" lon="12.763075820830359"><ele>465.0</ele><time>2026-04-26T10:10:29Z</time></trkpt><trkpt lat="43.4969688438386" lon="12.763389461811343"><ele>469.0</ele><time>2026-04-26T10:10:30Z</time></trkpt><trkpt lat="43.49678500508137" lon="12.763720230969698"><ele>469.0</ele><time>2026-04-26T10:10:31Z</time></trkpt><trkpt lat="43.49660802276241" lon="12.764075579536987"><ele>469.0</ele><time>2026-04-26T10:10:32Z</time></trkpt><trkpt lat="43.49641327576461" lon="12.764417146647062"><ele>472.5</ele><time>2026-04-26T10:10:33Z</time></trkpt><trkpt lat="43.49622781287618" lon="12.764740203109072"><ele>476.0</ele><time>2026-04-26T10:10:34Z</time></trkpt><trkpt lat="43.49606231193925" lon="12.765036690903571"><ele>474.5</ele><time>2026-04-26T10:10:35Z</time></trkpt><trkpt lat="43.49590305806044" lon="12.765318102975272"><ele>473.0</ele><time>2026-04-26T10:10:36Z</time></trkpt><trkpt lat="43.495757859484456" lon="12.765597567570925"><ele>473.0</ele><time>2026-04-26T10:10:37Z</time></trkpt><trkpt lat="43.49564621265657" lon="12.765918261463085"><ele>473.0</ele><time>2026-04-26T10:10:38Z</time></trkpt><trkpt lat="43.495548661657764" lon="12.766274114429578"><ele>473.0</ele><time>2026-04-26T10:10:39Z</time></trkpt><trkpt lat="43.4954503575624" lon="12.766612424106587"><ele>473.0</ele><time>2026-04-26T10:10:40Z</time></trkpt><trkpt lat="43.495359304527426" lon="12.766929165896398"><ele>473.3333333333333</ele><time>2026-04-26T10:10:41Z</time></trkpt><trkpt lat="43.49527320948762" lon="12.767222493789522"><ele>473.66666666666663</ele><time>2026-04-26T10:10:42Z</time></trkpt><trkpt lat="43.495196410476254" lon="12.767490642463164"><ele>474.0</ele><time>2026-04-26T10:10:43Z</time></trkpt><trkpt lat="43.49512183404401" lon="12.767719516530583"><ele>474.0</ele><time>2026-04-26T10:10:44Z</time></trkpt><trkpt lat="43.495035406827434" lon="12.767924082161263"><ele>474.0</ele><time>2026-04-26T10:10:45Z</time></trkpt><trkpt lat="43.49490170304425" lon="12.768081143163222"><ele>474.0</ele><time>2026-04-26T10:10:46Z</time></trkpt><trkpt lat="43.49474509435361" lon="12.768204534759258"><ele>476.33333333333337</ele><time>2026-04-26T10:10:47Z</time></trkpt><trkpt lat="43.49456146545438" lon="12.768257720714038"><ele>478.6666666666667</ele><time>2026-04-26T10:10:48Z</time></trkpt><trkpt lat="43.49439538408026" lon="12.768259718832647"><ele>481.0</ele><time>2026-04-26T10:10:49Z</time></trkpt><trkpt lat="43.49420110741519" lon="12.768211977683903"><ele>481.0</ele><time>2026-04-26T10:10:50Z</time></trkpt><trkpt lat="43.49397830427648" lon="12.768120946519868"><ele>481.0</ele><time>2026-04-26T10:10:51Z</time></trkpt><trkpt lat="43.493762701014035" lon="12.768091950992325"><ele>481.0</ele><time>2026-04-26T10:10:52Z</time></trkpt><trkpt lat="43.49353369032426" lon="12.768072031723088"><ele>481.0</ele><time>2026-04-26T10:10:53Z</time></trkpt><trkpt lat="43.493297311222285" lon="12.768103758535538"><ele>481.0</ele><time>2026-04-26T10:10:54Z</time></trkpt><trkpt lat="43.49306934704256" lon="12.768162517799048"><ele>484.6666666666667</ele><time>2026-04-26T10:10:55Z</time></trkpt><trkpt lat="43.4928577595064" lon="12.768214848708103"><ele>488.33333333333337</ele><time>2026-04-26T10:10:56Z</time></trkpt><trkpt lat="43.49266103215907" lon="12.768231132868088"><ele>492.0</ele><time>2026-04-26T10:10:57Z</time></trkpt><trkpt lat="43.49245218292524" lon="12.768208276555587"><ele>492.0</ele><time>2026-04-26T10:10:58Z</time></trkpt><trkpt lat="43.49223003422562" lon="12.7681567140695"><ele>492.0</ele><time>2026-04-26T10:10:59Z</time></trkpt><trkpt lat="43.491998646959104" lon="12.768105474356268"><ele>493.0</ele><time>2026-04-26T10:11:00Z</time></trkpt><trkpt lat="43.49176058540185" lon="12.768055685725159"><ele>494.0</ele><time>2026-04-26T10:11:01Z</time></trkpt><trkpt lat="43.491521193181136" lon="12.768003464878898"><ele>494.0</ele><time>2026-04-26T10:11:02Z</time></trkpt><trkpt lat="43.491301144689196" lon="12.767957352322588"><ele>494.0</ele><time>2026-04-26T10:11:03Z</time></trkpt><trkpt lat="43.49110858924959" lon="12.76791516540444"><ele>494.0</ele><time>2026-04-26T10:11:04Z</time></trkpt><trkpt lat="43.490944034000336" lon="12.767889260416318"><ele>496.3333333333333</ele><time>2026-04-26T10:11:05Z</time></trkpt><trkpt lat="43.490795366928914" lon="12.767898043282873"><ele>498.66666666666663</ele><time>2026-04-26T10:11:06Z</time></trkpt><trkpt lat="43.49064801397546" lon="12.76796410724548"><ele>501.0</ele><time>2026-04-26T10:11:07Z</time></trkpt><trkpt lat="43.490519907833715" lon="12.768093378597127"><ele>501.0</ele><time>2026-04-26T10:11:08Z</time></trkpt><trkpt lat="43.49042898189339" lon="12.768277525445168"><ele>501.0</ele><time>2026-04-26T10:11:09Z</time></trkpt><trkpt lat="43.49037362816319" lon="12.768509050709286"><ele>501.0</ele><time>2026-04-26T10:11:10Z</time></trkpt><trkpt lat="43.49033392698278" lon="12.76877857140085"><ele>510.0</ele><time>2026-04-26T10:11:11Z</time></trkpt><trkpt lat="43.49028757619689" lon="12.769089466019794"><ele>519.0</ele><time>2026-04-26T10:11:12Z</time></trkpt><trkpt lat="43.49024400155522" lon="12.769387232778103"><ele>519.0</ele><time>2026-04-26T10:11:13Z</time></trkpt><trkpt lat="43.49021163371254" lon="12.769629768890697"><ele>519.0</ele><time>2026-04-26T10:11:14Z</time></trkpt><trkpt lat="43.49018113550974" lon="12.769820453915997"><ele>519.0</ele><time>2026-04-26T10:11:15Z</time></trkpt><trkpt lat="43.49015131521213" lon="12.770005650240368"><ele>519.25</ele><time>2026-04-26T10:11:16Z</time></trkpt><trkpt lat="43.490124664486295" lon="12.770192066978828"><ele>519.5</ele><time>2026-04-26T10:11:17Z</time></trkpt><trkpt lat="43.49010679287251" lon="12.770369205734275"><ele>519.75</ele><time>2026-04-26T10:11:18Z</time></trkpt><trkpt lat="43.49011606862503" lon="12.770549268304451"><ele>520.0</ele><time>2026-04-26T10:11:19Z</time></trkpt><trkpt lat="43.490145428336604" lon="12.77072982629936"><ele>520.0</ele><time>2026-04-26T10:11:20Z</time></trkpt><trkpt lat="43.4901892397586" lon="12.770899360297745"><ele>520.0</ele><time>2026-04-26T10:11:21Z</time></trkpt><trkpt lat="43.49023640453042" lon="12.771061168425641"><ele>520.0</ele><time>2026-04-26T10:11:22Z</time></trkpt><trkpt lat="43.490278342998444" lon="12.771196686983057"><ele>520.0</ele><time>2026-04-26T10:11:23Z</time></trkpt><trkpt lat="43.49032325955722" lon="12.771341642440122"><ele>519.75</ele><time>2026-04-26T10:11:24Z</time></trkpt><trkpt lat="43.49037168507198" lon="12.771493530640344"><ele>519.5</ele><time>2026-04-26T10:11:25Z</time></trkpt><trkpt lat="43.490418995148495" lon="12.771651715761159"><ele>519.25</ele><time>2026-04-26T10:11:26Z</time></trkpt><trkpt lat="43.490451748343155" lon="12.77180693445945"><ele>519.0</ele><time>2026-04-26T10:11:27Z</time></trkpt><trkpt lat="43.490481502736316" lon="12.771965532400051"><ele>519.0</ele><time>2026-04-26T10:11:28Z</time></trkpt><trkpt lat="43.49050612062197" lon="12.772133043247308"><ele>519.0</ele><time>2026-04-26T10:11:29Z</time></trkpt><trkpt lat="43.490524578592435" lon="12.772317393832711"><ele>519.0</ele><time>2026-04-26T10:11:30Z</time></trkpt><trkpt lat="43.49054187824664" lon="12.772486749926871"><ele>519.0</ele><time>2026-04-26T10:11:31Z</time></trkpt><trkpt lat="43.49053031335261" lon="12.772653744381655"><ele>517.5</ele><time>2026-04-26T10:11:32Z</time></trkpt><trkpt lat="43.49052662755307" lon="12.772822046139927"><ele>516.0</ele><time>2026-04-26T10:11:33Z</time></trkpt><trkpt lat="43.4905235071617" lon="12.772985650507277"><ele>514.5</ele><time>2026-04-26T10:11:34Z</time></trkpt><trkpt lat="43.49050668800427" lon="12.773145371528752"><ele>513.0</ele><time>2026-04-26T10:11:35Z</time></trkpt><trkpt lat="43.49048535435886" lon="12.773310785568365"><ele>513.0</ele><time>2026-04-26T10:11:36Z</time></trkpt><trkpt lat="43.490479979663604" lon="12.77347247996001"><ele>513.0</ele><time>2026-04-26T10:11:37Z</time></trkpt><trkpt lat="43.49046616929687" lon="12.773635125568859"><ele>513.0</ele><time>2026-04-26T10:11:38Z</time></trkpt><trkpt lat="43.49044843436482" lon="12.773802780708104"><ele>513.0</ele><time>2026-04-26T10:11:39Z</time></trkpt><trkpt lat="43.490438546774435" lon="12.77397622688159"><ele>510.75</ele><time>2026-04-26T10:11:40Z</time></trkpt><trkpt lat="43.49042605235805" lon="12.77414655616318"><ele>508.5</ele><time>2026-04-26T10:11:41Z</time></trkpt><trkpt lat="43.49042752579829" lon="12.77430701228999"><ele>506.25</ele><time>2026-04-26T10:11:42Z</time></trkpt><trkpt lat="43.49041182288913" lon="12.774454942802556"><ele>504.0</ele><time>2026-04-26T10:11:43Z</time></trkpt><trkpt lat="43.49040696482181" lon="12.774597439321624"><ele>503.2</ele><time>2026-04-26T10:11:44Z</time></trkpt><trkpt lat="43.49042070128556" lon="12.774715310523142"><ele>502.4</ele><time>2026-04-26T10:11:45Z</time></trkpt><trkpt lat="43.490446563484625" lon="12.774835926551948"><ele>501.6</ele><time>2026-04-26T10:11:46Z</time></trkpt><trkpt lat="43.49048473305824" lon="12.774958028215606"><ele>500.8</ele><time>2026-04-26T10:11:47Z</time></trkpt><trkpt lat="43.49053621685005" lon="12.77507326883416"><ele>500.0</ele><time>2026-04-26T10:11:48Z</time></trkpt><trkpt lat="43.49059732483051" lon="12.77517928417665"><ele>498.4</ele><time>2026-04-26T10:11:49Z</time></trkpt><trkpt lat="43.49067476092207" lon="12.775272675721938"><ele>496.8</ele><time>2026-04-26T10:11:50Z</time></trkpt><trkpt lat="43.49076928270011" lon="12.775346450683344"><ele>495.20000000000005</ele><time>2026-04-26T10:11:51Z</time></trkpt><trkpt lat="43.49087355942424" lon="12.775405842482087"><ele>493.6</ele><time>2026-04-26T10:11:52Z</time></trkpt><trkpt lat="43.49098699567756" lon="12.775444066671438"><ele>492.0</ele><time>2026-04-26T10:11:53Z</time></trkpt><trkpt lat="43.49110653461883" lon="12.775478974099423"><ele>492.0</ele><time>2026-04-26T10:11:54Z</time></trkpt><trkpt lat="43.491227401344474" lon="12.775518720611522"><ele>492.0</ele><time>2026-04-26T10:11:55Z</time></trkpt><trkpt lat="43.49135397434929" lon="12.775554866776284"><ele>492.0</ele><time>2026-04-26T10:11:56Z</time></trkpt><trkpt lat="43.49148436847901" lon="12.775591504635912"><ele>492.0</ele><time>2026-04-26T10:11:57Z</time></trkpt><trkpt lat="43.491608852799224" lon="12.77562560688516"><ele>492.25</ele><time>2026-04-26T10:11:58Z</time></trkpt><trkpt lat="43.49172621495287" lon="12.775664298252002"><ele>492.5</ele><time>2026-04-26T10:11:59Z</time></trkpt><trkpt lat="43.49184737710837" lon="12.775701399040445"><ele>492.75</ele><time>2026-04-26T10:12:00Z</time></trkpt><trkpt lat="43.49197165977854" lon="12.775726680026384"><ele>493.0</ele><time>2026-04-26T10:12:01Z</time></trkpt><trkpt lat="43.492090345545456" lon="12.775756609645509"><ele>493.2</ele><time>2026-04-26T10:12:02Z</time></trkpt><trkpt lat="43.4922024294116" lon="12.775794361069824"><ele>493.4</ele><time>2026-04-26T10:12:03Z</time></trkpt><trkpt lat="43.492309500173256" lon="12.77583801841719"><ele>493.59999999999997</ele><time>2026-04-26T10:12:04Z</time></trkpt><trkpt lat="43.49240964314935" lon="12.775887571079714"><ele>493.79999999999995</ele><time>2026-04-26T10:12:05Z</time></trkpt><trkpt lat="43.492497553905295" lon="12.775957775168012"><ele>494.0</ele><time>2026-04-26T10:12:06Z</time></trkpt><trkpt lat="43.492563643714554" lon="12.776006254191024"><ele>494.0</ele><time>2026-04-26T10:12:07Z</time></trkpt><trkpt lat="43.49265635976994" lon="12.776088967321181"><ele>494.0</ele><time>2026-04-26T10:12:09Z</time></trkpt><trkpt lat="43.492757213336475" lon="12.776013119347688"><ele>494.0</ele><time>2026-04-26T10:12:11Z</time></trkpt><trkpt lat="43.492817540055704" lon="12.775911725356943"><ele>494.0</ele><time>2026-04-26T10:12:14Z</time></trkpt><trkpt lat="43.492797790127064" lon="12.775814045722926"><ele>494.0</ele><time>2026-04-26T10:12:15Z</time></trkpt><trkpt lat="43.492731003307405" lon="12.775648909650767"><ele>494.0</ele><time>2026-04-26T10:12:17Z</time></trkpt><trkpt lat="43.49268523931842" lon="12.775493813310693"><ele>494.0</ele><time>2026-04-26T10:12:18Z</time></trkpt><trkpt lat="43.49261821471192" lon="12.775290443960792"><ele>494.0</ele><time>2026-04-26T10:12:19Z</time></trkpt><trkpt lat="43.49253529570965" lon="12.775087211448161"><ele>495.25</ele><time>2026-04-26T10:12:20Z</time></trkpt><trkpt lat="43.49247201265202" lon="12.774918860567523"><ele>496.5</ele><time>2026-04-26T10:12:21Z</time></trkpt><trkpt lat="43.49241321107561" lon="12.774736385578677"><ele>497.75</ele><time>2026-04-26T10:12:22Z</time></trkpt><trkpt lat="43.492364020861075" lon="12.774562662803762"><ele>499.0</ele><time>2026-04-26T10:12:23Z</time></trkpt><trkpt lat="43.492308551492535" lon="12.77439014576429"><ele>501.0</ele><time>2026-04-26T10:12:24Z</time></trkpt><trkpt lat="43.492247616010054" lon="12.774220501054502"><ele>503.0</ele><time>2026-04-26T10:12:25Z</time></trkpt><trkpt lat="43.49221576512812" lon="12.774103156602033"><ele>505.0</ele><time>2026-04-26T10:12:26Z</time></trkpt><trkpt lat="43.492137615408545" lon="12.773931873272213"><ele>507.0</ele><time>2026-04-26T10:12:27Z</time></trkpt><trkpt lat="43.49209949073911" lon="12.773768395540072"><ele>507.40000000000003</ele><time>2026-04-26T10:12:28Z</time></trkpt><trkpt lat="43.492050009860606" lon="12.773619223061655"><ele>507.80000000000007</ele><time>2026-04-26T10:12:29Z</time></trkpt><trkpt lat="43.49200050387861" lon="12.773482725788629"><ele>508.2</ele><time>2026-04-26T10:12:30Z</time></trkpt><trkpt lat="43.49195670092492" lon="12.773364624765922"><ele>508.6</ele><time>2026-04-26T10:12:31Z</time></trkpt><trkpt lat="43.491917409835125" lon="12.77325798752274"><ele>509.0</ele><time>2026-04-26T10:12:32Z</time></trkpt><trkpt lat="43.49188411982049" lon="12.773137759965"><ele>510.8333333333333</ele><time>2026-04-26T10:12:33Z</time></trkpt><trkpt lat="43.491855050465986" lon="12.77304766211988"><ele>512.6666666666666</ele><time>2026-04-26T10:12:34Z</time></trkpt><trkpt lat="43.49180837442752" lon="12.772916117399795"><ele>514.5</ele><time>2026-04-26T10:12:36Z</time></trkpt><trkpt lat="43.49175638244419" lon="12.77279603846488"><ele>516.3333333333334</ele><time>2026-04-26T10:12:40Z</time></trkpt><trkpt lat="43.491721305580505" lon="12.772721716636307"><ele>518.1666666666667</ele><time>2026-04-26T10:12:43Z</time></trkpt><trkpt lat="43.4916738732215" lon="12.77262449183549"><ele>520.0</ele><time>2026-04-26T10:13:00Z</time></trkpt><trkpt lat="43.49163779481437" lon="12.772521637781644"><ele>521.2</ele><time>2026-04-26T10:13:02Z</time></trkpt><trkpt lat="43.49158233271878" lon="12.772386479026446"><ele>522.4</ele><time>2026-04-26T10:13:04Z</time></trkpt><trkpt lat="43.49155196938317" lon="12.772307395121834"><ele>523.6</ele><time>2026-04-26T10:13:05Z</time></trkpt><trkpt lat="43.49149269670788" lon="12.772163115061414"><ele>524.8</ele><time>2026-04-26T10:13:07Z</time></trkpt><trkpt lat="43.491440946343836" lon="12.77204712978946"><ele>526.0</ele><time>2026-04-26T10:13:09Z</time></trkpt><trkpt lat="43.49136935751601" lon="12.771931699792232"><ele>526.0</ele><time>2026-04-26T10:13:11Z</time></trkpt><trkpt lat="43.491350856973064" lon="12.771829929200422"><ele>526.0</ele><time>2026-04-26T10:13:32Z</time></trkpt><trkpt lat="43.49132018038745" lon="12.771720037447627"><ele>526.0</ele><time>2026-04-26T10:13:34Z</time></trkpt><trkpt lat="43.49126858000969" lon="12.771640823066008"><ele>526.0</ele><time>2026-04-26T10:13:36Z</time></trkpt><trkpt lat="43.491156405050525" lon="12.771686528152586"><ele>526.0</ele><time>2026-04-26T10:13:40Z</time></trkpt><trkpt lat="43.491094587808554" lon="12.771757089770869"><ele>526.0</ele><time>2026-04-26T10:13:42Z</time></trkpt><trkpt lat="43.491030647026" lon="12.771814744137039"><ele>524.6</ele><time>2026-04-26T10:13:45Z</time></trkpt><trkpt lat="43.49106940189686" lon="12.771902531478535"><ele>523.2</ele><time>2026-04-26T10:13:46Z</time></trkpt><trkpt lat="43.49110762511508" lon="12.771991947276536"><ele>521.8</ele><time>2026-04-26T10:13:51Z</time></trkpt><trkpt lat="43.49114904112704" lon="12.772091069485407"><ele>520.4</ele><time>2026-04-26T10:13:53Z</time></trkpt><trkpt lat="43.49120165770225" lon="12.772217226188108"><ele>519.0</ele><time>2026-04-26T10:13:55Z</time></trkpt><trkpt lat="43.49124389309619" lon="12.7723602836951"><ele>519.1666666666666</ele><time>2026-04-26T10:13:57Z</time></trkpt><trkpt lat="43.49129856023825" lon="12.772467808491117"><ele>519.3333333333334</ele><time>2026-04-26T10:13:59Z</time></trkpt><trkpt lat="43.49134616901817" lon="12.772579750939359"><ele>519.5</ele><time>2026-04-26T10:14:01Z</time></trkpt><trkpt lat="43.49139461181406" lon="12.77268564092754"><ele>519.6666666666667</ele><time>2026-04-26T10:14:03Z</time></trkpt><trkpt lat="43.49142936427263" lon="12.772768930679367"><ele>519.8333333333334</ele><time>2026-04-26T10:14:05Z</time></trkpt><trkpt lat="43.49143721373867" lon="12.772867904878922"><ele>520.0</ele><time>2026-04-26T10:14:08Z</time></trkpt><trkpt lat="43.49135325592414" lon="12.772873868820918"><ele>519.8333333333334</ele><time>2026-04-26T10:14:11Z</time></trkpt><trkpt lat="43.491244817475646" lon="12.772831770133463"><ele>519.6666666666667</ele><time>2026-04-26T10:14:13Z</time></trkpt><trkpt lat="43.49118519579614" lon="12.772799472443934"><ele>519.5</ele><time>2026-04-26T10:14:14Z</time></trkpt><trkpt lat="43.49112920263358" lon="12.772757135373821"><ele>519.3333333333334</ele><time>2026-04-26T10:14:15Z</time></trkpt><trkpt lat="43.49107340073883" lon="12.772699355121034"><ele>519.1666666666666</ele><time>2026-04-26T10:14:16Z</time></trkpt><trkpt lat="43.491026335544" lon="12.772619324893002"><ele>519.0</ele><time>2026-04-26T10:14:17Z</time></trkpt><trkpt lat="43.49097565396011" lon="12.772556017155255"><ele>519.0</ele><time>2026-04-26T10:14:18Z</time></trkpt><trkpt lat="43.49091854233875" lon="12.772412634033634"><ele>519.0</ele><time>2026-04-26T10:14:20Z</time></trkpt><trkpt lat="43.49089926041037" lon="12.772298320547831"><ele>519.0</ele><time>2026-04-26T10:14:22Z</time></trkpt><trkpt lat="43.49084386389199" lon="12.772247207044522"><ele>519.0</ele><time>2026-04-26T10:14:24Z</time></trkpt><trkpt lat="43.49080171849027" lon="12.772157108771589"><ele>519.0</ele><time>2026-04-26T10:14:28Z</time></trkpt><trkpt lat="43.49076850046424" lon="12.77205370108089"><ele>519.0</ele><time>2026-04-26T10:14:30Z</time></trkpt><trkpt lat="43.49076576584462" lon="12.771944857597676"><ele>519.0</ele><time>2026-04-26T10:14:32Z</time></trkpt><trkpt lat="43.490749702045285" lon="12.772072992729331"><ele>519.0</ele><time>2026-04-26T10:14:36Z</time></trkpt><trkpt lat="43.49078431982665" lon="12.772154253242682"><ele>519.0</ele><time>2026-04-26T10:14:37Z</time></trkpt><trkpt lat="43.49083520146903" lon="12.772231406159685"><ele>519.0</ele><time>2026-04-26T10:14:39Z</time></trkpt><trkpt lat="43.4908789994573" lon="12.772299686251609"><ele>519.0</ele><time>2026-04-26T10:16:47Z</time></trkpt><trkpt lat="43.49093518682933" lon="12.772348940552886"><ele>519.0</ele><time>2026-04-26T10:16:58Z</time></trkpt><trkpt lat="43.49086111033699" lon="12.772324673220453"><ele>519.0</ele><time>2026-04-26T10:17:39Z</time></trkpt><trkpt lat="43.49085355790135" lon="12.772416503848682"><ele>519.0</ele><time>2026-04-26T10:21:31Z</time></trkpt><trkpt lat="43.490744289051264" lon="12.772514373075936"><ele>519.0</ele><time>2026-04-26T10:22:02Z</time></trkpt><trkpt lat="43.490905784427945" lon="12.772497050487923"><ele>519.0</ele><time>2026-04-26T10:22:43Z</time></trkpt><trkpt lat="43.4910672070307" lon="12.7724184760325"><ele>519.0</ele><time>2026-04-26T10:22:51Z</time></trkpt><trkpt lat="43.49092825390089" lon="12.772405786759855"><ele>519.0</ele><time>2026-04-26T10:22:58Z</time></trkpt><trkpt lat="43.49087445798585" lon="12.772315928135695"><ele>519.0</ele><time>2026-04-26T10:23:04Z</time></trkpt><trkpt lat="43.49093264692559" lon="12.771906435679234"><ele>519.0</ele><time>2026-04-26T10:23:10Z</time></trkpt><trkpt lat="43.49093409724882" lon="12.772009531047914"><ele>519.0</ele><time>2026-04-26T10:23:12Z</time></trkpt><trkpt lat="43.49094060536784" lon="12.772106784470788"><ele>519.0</ele><time>2026-04-26T10:23:14Z</time></trkpt><trkpt lat="43.49082565650313" lon="12.772327651223327"><ele>519.0</ele><time>2026-04-26T10:23:15Z</time></trkpt><trkpt lat="43.4909436997003" lon="12.77228877025189"><ele>519.0</ele><time>2026-04-26T10:23:32Z</time></trkpt><trkpt lat="43.49102427215165" lon="12.772200461722282"><ele>519.0</ele><time>2026-04-26T10:23:35Z</time></trkpt><trkpt lat="43.490867394115604" lon="12.772291334252577"><ele>519.0</ele><time>2026-04-26T10:23:38Z</time></trkpt><trkpt lat="43.490825019902836" lon="12.772366119770128"><ele>519.0</ele><time>2026-04-26T10:23:39Z</time></trkpt><trkpt lat="43.490844515307536" lon="12.772515622337448"><ele>519.0</ele><time>2026-04-26T10:24:51.999Z</time></trkpt><trkpt lat="43.49073861862064" lon="12.772476177761423"><ele>519.0</ele><time>2026-04-26T10:24:57.999Z</time></trkpt><trkpt lat="43.49065421793328" lon="12.772506007647435"><ele>519.0</ele><time>2026-04-26T10:25:48Z</time></trkpt><trkpt lat="43.49069089931748" lon="12.772424048677275"><ele>519.0</ele><time>2026-04-26T10:25:53Z</time></trkpt><trkpt lat="43.49067295506947" lon="12.772321793905599"><ele>519.0</ele><time>2026-04-26T10:25:59Z</time></trkpt><trkpt lat="43.490667473857464" lon="12.772227611923038"><ele>519.0</ele><time>2026-04-26T10:26:03Z</time></trkpt><trkpt lat="43.4906482260151" lon="12.772342821888646"><ele>519.0</ele><time>2026-04-26T10:26:07Z</time></trkpt><trkpt lat="43.490703218969614" lon="12.772432796016133"><ele>519.0</ele><time>2026-04-26T10:26:08Z</time></trkpt><trkpt lat="43.490803098028124" lon="12.772396494590332"><ele>519.0</ele><time>2026-04-26T10:26:09Z</time></trkpt><trkpt lat="43.490877821338415" lon="12.772388348946647"><ele>519.0</ele><time>2026-04-26T10:26:11Z</time></trkpt><trkpt lat="43.490945257715225" lon="12.772361800593943"><ele>519.0</ele><time>2026-04-26T10:26:13Z</time></trkpt><trkpt lat="43.49089164621475" lon="12.772301363639473"><ele>519.0</ele><time>2026-04-26T10:26:49Z</time></trkpt><trkpt lat="43.49076832412433" lon="12.772303364960395"><ele>519.0</ele><time>2026-04-26T10:30:18Z</time></trkpt><trkpt lat="43.49078091502399" lon="12.772217358890037"><ele>519.0</ele><time>2026-04-26T10:30:37.001Z</time></trkpt><trkpt lat="43.49073891246401" lon="12.772091906136641"><ele>519.0</ele><time>2026-04-26T10:31:45Z</time></trkpt><trkpt lat="43.49073147271082" lon="12.771953461132703"><ele>519.0</ele><time>2026-04-26T10:31:47Z</time></trkpt><trkpt lat="43.49068769512979" lon="12.771835145290169"><ele>519.0</ele><time>2026-04-26T10:31:49Z</time></trkpt><trkpt lat="43.49063789601837" lon="12.771739348528062"><ele>519.0</ele><time>2026-04-26T10:31:51Z</time></trkpt><trkpt lat="43.49070247065458" lon="12.77161275813725"><ele>519.0</ele><time>2026-04-26T10:31:53Z</time></trkpt><trkpt lat="43.49062083839685" lon="12.771592187205437"><ele>519.0</ele><time>2026-04-26T10:31:54Z</time></trkpt><trkpt lat="43.49057004206671" lon="12.77165141742671"><ele>519.0</ele><time>2026-04-26T10:31:57Z</time></trkpt><trkpt lat="43.49062680135007" lon="12.771744777031916"><ele>519.0</ele><time>2026-04-26T10:31:59Z</time></trkpt><trkpt lat="43.49069149039999" lon="12.771825846430168"><ele>519.0</ele><time>2026-04-26T10:32:01Z</time></trkpt><trkpt lat="43.49071974072851" lon="12.771956801436994"><ele>519.0</ele><time>2026-04-26T10:32:03Z</time></trkpt><trkpt lat="43.49076060155443" lon="12.77202830354321"><ele>519.0</ele><time>2026-04-26T10:32:05Z</time></trkpt><trkpt lat="43.49080648822476" lon="12.772108343478616"><ele>519.0</ele><time>2026-04-26T10:32:07Z</time></trkpt><trkpt lat="43.49083793133436" lon="12.772241993152825"><ele>519.0</ele><time>2026-04-26T10:32:09Z</time></trkpt><trkpt lat="43.49087344016484" lon="12.772359440061496"><ele>519.0</ele><time>2026-04-26T10:32:10Z</time></trkpt><trkpt lat="43.4908968792855" lon="12.772473055138354"><ele>519.0</ele><time>2026-04-26T10:32:11Z</time></trkpt><trkpt lat="43.49093180123836" lon="12.77254570415447"><ele>519.0</ele><time>2026-04-26T10:32:12Z</time></trkpt><trkpt lat="43.49097903886966" lon="12.772634207505133"><ele>518.0</ele><time>2026-04-26T10:32:14Z</time></trkpt><trkpt lat="43.49089670831638" lon="12.772731829593576"><ele>517.0</ele><time>2026-04-26T10:32:16Z</time></trkpt><trkpt lat="43.490861926474004" lon="12.772819872704616"><ele>516.0</ele><time>2026-04-26T10:32:17Z</time></trkpt><trkpt lat="43.49082566882906" lon="12.772910963564232"><ele>515.0</ele><time>2026-04-26T10:32:18Z</time></trkpt><trkpt lat="43.490816635197284" lon="12.773037726289905"><ele>514.0</ele><time>2026-04-26T10:32:19Z</time></trkpt><trkpt lat="43.490813413564915" lon="12.773164659748282"><ele>513.0</ele><time>2026-04-26T10:32:20Z</time></trkpt><trkpt lat="43.49079870955916" lon="12.77328248296038"><ele>513.0</ele><time>2026-04-26T10:32:21Z</time></trkpt><trkpt lat="43.49080667934164" lon="12.773396448381996"><ele>513.0</ele><time>2026-04-26T10:32:22Z</time></trkpt><trkpt lat="43.490795121050525" lon="12.7735122177865"><ele>513.0</ele><time>2026-04-26T10:32:23Z</time></trkpt><trkpt lat="43.49076517996755" lon="12.77362967330764"><ele>513.0</ele><time>2026-04-26T10:32:24Z</time></trkpt><trkpt lat="43.490728182799195" lon="12.773741794826021"><ele>513.0</ele><time>2026-04-26T10:32:25Z</time></trkpt><trkpt lat="43.49069423131168" lon="12.773861236823231"><ele>513.0</ele><time>2026-04-26T10:32:26Z</time></trkpt><trkpt lat="43.490658466583035" lon="12.773979434040733"><ele>511.2</ele><time>2026-04-26T10:32:27Z</time></trkpt><trkpt lat="43.490620034738335" lon="12.774092542498822"><ele>509.4</ele><time>2026-04-26T10:32:28Z</time></trkpt><trkpt lat="43.49058572585925" lon="12.774201035403596"><ele>507.59999999999997</ele><time>2026-04-26T10:32:29Z</time></trkpt><trkpt lat="43.49055236338494" lon="12.774300953695768"><ele>505.79999999999995</ele><time>2026-04-26T10:32:30Z</time></trkpt><trkpt lat="43.49050258215167" lon="12.774414542874421"><ele>504.0</ele><time>2026-04-26T10:32:32Z</time></trkpt><trkpt lat="43.490427591740584" lon="12.774540487354876"><ele>503.2</ele><time>2026-04-26T10:32:36Z</time></trkpt><trkpt lat="43.49036878996435" lon="12.774693107695976"><ele>502.4</ele><time>2026-04-26T10:32:38Z</time></trkpt><trkpt lat="43.49038050536306" lon="12.774816892641978"><ele>501.6</ele><time>2026-04-26T10:32:39Z</time></trkpt><trkpt lat="43.49037453012164" lon="12.774937910047326"><ele>500.8</ele><time>2026-04-26T10:32:40Z</time></trkpt><trkpt lat="43.49039013099895" lon="12.775060242635382"><ele>500.0</ele><time>2026-04-26T10:32:41Z</time></trkpt><trkpt lat="43.49043396688126" lon="12.775184508937114"><ele>498.66666666666663</ele><time>2026-04-26T10:32:42Z</time></trkpt><trkpt lat="43.490493273653556" lon="12.775287134096885"><ele>497.3333333333333</ele><time>2026-04-26T10:32:43Z</time></trkpt><trkpt lat="43.49055230334632" lon="12.775367188531842"><ele>496.0</ele><time>2026-04-26T10:32:44Z</time></trkpt><trkpt lat="43.490585356818194" lon="12.775453279083006"><ele>494.66666666666663</ele><time>2026-04-26T10:32:45Z</time></trkpt><trkpt lat="43.490573944725874" lon="12.775566100991055"><ele>493.3333333333333</ele><time>2026-04-26T10:32:46Z</time></trkpt><trkpt lat="43.49050796571527" lon="12.775653051322251"><ele>492.0</ele><time>2026-04-26T10:32:47Z</time></trkpt><trkpt lat="43.490410209972005" lon="12.775670299258506"><ele>490.0</ele><time>2026-04-26T10:32:48Z</time></trkpt><trkpt lat="43.49030561734533" lon="12.775676462833692"><ele>488.0</ele><time>2026-04-26T10:32:49Z</time></trkpt><trkpt lat="43.49018967452313" lon="12.77571609194033"><ele>486.0</ele><time>2026-04-26T10:32:50Z</time></trkpt><trkpt lat="43.4900753126394" lon="12.775752338464056"><ele>484.0</ele><time>2026-04-26T10:32:51Z</time></trkpt><trkpt lat="43.48997021856316" lon="12.775794100865557"><ele>484.0</ele><time>2026-04-26T10:32:52Z</time></trkpt><trkpt lat="43.489883765066864" lon="12.775832289258824"><ele>484.0</ele><time>2026-04-26T10:32:53Z</time></trkpt><trkpt lat="43.48980528903089" lon="12.77583692330528"><ele>484.0</ele><time>2026-04-26T10:32:54Z</time></trkpt><trkpt lat="43.4897441801288" lon="12.775774780839335"><ele>484.0</ele><time>2026-04-26T10:32:55Z</time></trkpt><trkpt lat="43.48972913813373" lon="12.775655571304867"><ele>484.0</ele><time>2026-04-26T10:32:56Z</time></trkpt><trkpt lat="43.48975702667502" lon="12.775496462650583"><ele>484.0</ele><time>2026-04-26T10:32:57Z</time></trkpt><trkpt lat="43.489787734047326" lon="12.775330722544322"><ele>484.0</ele><time>2026-04-26T10:32:58Z</time></trkpt><trkpt lat="43.489814422542494" lon="12.775158933031179"><ele>484.0</ele><time>2026-04-26T10:32:59Z</time></trkpt><trkpt lat="43.489843281824584" lon="12.7749842890577"><ele>484.0</ele><time>2026-04-26T10:33:00Z</time></trkpt><trkpt lat="43.48987315459956" lon="12.774807756451901"><ele>484.5</ele><time>2026-04-26T10:33:01Z</time></trkpt><trkpt lat="43.4899003523393" lon="12.77462814623899"><ele>485.0</ele><time>2026-04-26T10:33:02Z</time></trkpt><trkpt lat="43.48992862378957" lon="12.774454185014468"><ele>485.5</ele><time>2026-04-26T10:33:03Z</time></trkpt><trkpt lat="43.48995027956856" lon="12.774285418445933"><ele>486.0</ele><time>2026-04-26T10:33:04Z</time></trkpt><trkpt lat="43.48995923864871" lon="12.774108846720841"><ele>486.0</ele><time>2026-04-26T10:33:05Z</time></trkpt><trkpt lat="43.48994484657375" lon="12.773935251898228"><ele>486.0</ele><time>2026-04-26T10:33:06Z</time></trkpt><trkpt lat="43.48991801013535" lon="12.773780016865135"><ele>486.0</ele><time>2026-04-26T10:33:07Z</time></trkpt><trkpt lat="43.48988365782171" lon="12.773644724587992"><ele>486.0</ele><time>2026-04-26T10:33:08Z</time></trkpt><trkpt lat="43.48982835088529" lon="12.773534597124648"><ele>486.0</ele><time>2026-04-26T10:33:09Z</time></trkpt><trkpt lat="43.48975250614322" lon="12.773457290202145"><ele>486.4</ele><time>2026-04-26T10:33:10Z</time></trkpt><trkpt lat="43.48966369870975" lon="12.773403968870523"><ele>486.8</ele><time>2026-04-26T10:33:11Z</time></trkpt><trkpt lat="43.48954991918081" lon="12.773449738544128"><ele>487.19999999999993</ele><time>2026-04-26T10:33:12Z</time></trkpt><trkpt lat="43.489454369067964" lon="12.77352073927711"><ele>487.59999999999997</ele><time>2026-04-26T10:33:13Z</time></trkpt><trkpt lat="43.48936946378598" lon="12.773645959479586"><ele>488.0</ele><time>2026-04-26T10:33:14Z</time></trkpt><trkpt lat="43.48927714402165" lon="12.773781107825236"><ele>484.25</ele><time>2026-04-26T10:33:15Z</time></trkpt><trkpt lat="43.48916866761644" lon="12.773895326608221"><ele>480.5</ele><time>2026-04-26T10:33:16Z</time></trkpt><trkpt lat="43.48904497772087" lon="12.774007791590726"><ele>476.75</ele><time>2026-04-26T10:33:17Z</time></trkpt><trkpt lat="43.48891374979679" lon="12.774124301699258"><ele>473.0</ele><time>2026-04-26T10:33:18Z</time></trkpt><trkpt lat="43.488777773090305" lon="12.774245031042117"><ele>469.66666666666663</ele><time>2026-04-26T10:33:19Z</time></trkpt><trkpt lat="43.488640763952915" lon="12.77437060356947"><ele>466.33333333333337</ele><time>2026-04-26T10:33:20Z</time></trkpt><trkpt lat="43.48850154106787" lon="12.774494496794834"><ele>463.0</ele><time>2026-04-26T10:33:21Z</time></trkpt><trkpt lat="43.48836722762615" lon="12.77460815248074"><ele>463.0</ele><time>2026-04-26T10:33:22Z</time></trkpt><trkpt lat="43.488229663167246" lon="12.774704248698535"><ele>463.0</ele><time>2026-04-26T10:33:23Z</time></trkpt><trkpt lat="43.488093170011076" lon="12.77479614069911"><ele>463.0</ele><time>2026-04-26T10:33:24Z</time></trkpt><trkpt lat="43.4879611881022" lon="12.774896853962353"><ele>465.25</ele><time>2026-04-26T10:33:25Z</time></trkpt><trkpt lat="43.48784287533045" lon="12.7750185183037"><ele>467.5</ele><time>2026-04-26T10:33:26Z</time></trkpt><trkpt lat="43.487745573365345" lon="12.775147655651015"><ele>469.75</ele><time>2026-04-26T10:33:27Z</time></trkpt><trkpt lat="43.487662769361464" lon="12.775259627835856"><ele>472.0</ele><time>2026-04-26T10:33:28Z</time></trkpt><trkpt lat="43.487588888282836" lon="12.775353132087735"><ele>467.8</ele><time>2026-04-26T10:33:29Z</time></trkpt><trkpt lat="43.48753759539328" lon="12.77543901059582"><ele>463.6</ele><time>2026-04-26T10:33:30Z</time></trkpt><trkpt lat="43.48752028251147" lon="12.775548630410551"><ele>459.40000000000003</ele><time>2026-04-26T10:33:31Z</time></trkpt><trkpt lat="43.487553651286255" lon="12.775680954262677"><ele>455.20000000000005</ele><time>2026-04-26T10:33:32Z</time></trkpt><trkpt lat="43.48763595472719" lon="12.775802459448013"><ele>451.0</ele><time>2026-04-26T10:33:33Z</time></trkpt><trkpt lat="43.48775107553172" lon="12.775895027852778"><ele>451.0</ele><time>2026-04-26T10:33:34Z</time></trkpt><trkpt lat="43.487874084251025" lon="12.776009615416177"><ele>451.0</ele><time>2026-04-26T10:33:35Z</time></trkpt><trkpt lat="43.48798831219911" lon="12.7761035558068"><ele>451.0</ele><time>2026-04-26T10:33:36Z</time></trkpt><trkpt lat="43.48807501458794" lon="12.77618210622323"><ele>451.0</ele><time>2026-04-26T10:33:37Z</time></trkpt><trkpt lat="43.48813331147964" lon="12.776252448691569"><ele>451.20000000000005</ele><time>2026-04-26T10:33:38Z</time></trkpt><trkpt lat="43.4881355773414" lon="12.776361858205245"><ele>451.40000000000003</ele><time>2026-04-26T10:33:39Z</time></trkpt><trkpt lat="43.488081092526954" lon="12.776463319230325"><ele>451.6</ele><time>2026-04-26T10:33:40Z</time></trkpt><trkpt lat="43.48799281133682" lon="12.776532881665824"><ele>451.8</ele><time>2026-04-26T10:33:41Z</time></trkpt><trkpt lat="43.48789957250886" lon="12.776631296466215"><ele>452.0</ele><time>2026-04-26T10:33:42Z</time></trkpt><trkpt lat="43.48780536572911" lon="12.776745376975185"><ele>447.0</ele><time>2026-04-26T10:33:43Z</time></trkpt><trkpt lat="43.487697432573036" lon="12.77686417583129"><ele>442.0</ele><time>2026-04-26T10:33:44Z</time></trkpt><trkpt lat="43.48757987788402" lon="12.776990951652545"><ele>437.0</ele><time>2026-04-26T10:33:45Z</time></trkpt><trkpt lat="43.487457807825564" lon="12.777125919942733"><ele>432.0</ele><time>2026-04-26T10:33:46Z</time></trkpt><trkpt lat="43.48733450255975" lon="12.777271172791092"><ele>432.0</ele><time>2026-04-26T10:33:47Z</time></trkpt><trkpt lat="43.48720992977368" lon="12.777428049571213"><ele>432.0</ele><time>2026-04-26T10:33:48Z</time></trkpt><trkpt lat="43.487087165127306" lon="12.77760366926525"><ele>432.0</ele><time>2026-04-26T10:33:49Z</time></trkpt><trkpt lat="43.48696945485919" lon="12.777801807902387"><ele>428.33333333333337</ele><time>2026-04-26T10:33:50Z</time></trkpt><trkpt lat="43.486856315868174" lon="12.778012885756175"><ele>424.6666666666667</ele><time>2026-04-26T10:33:51Z</time></trkpt><trkpt lat="43.48674415282995" lon="12.77822588860616"><ele>421.0</ele><time>2026-04-26T10:33:52Z</time></trkpt><trkpt lat="43.48663207859675" lon="12.77843536182272"><ele>423.6666666666667</ele><time>2026-04-26T10:33:53Z</time></trkpt><trkpt lat="43.48652413612193" lon="12.778651567613112"><ele>426.33333333333337</ele><time>2026-04-26T10:33:54Z</time></trkpt><trkpt lat="43.48642691539933" lon="12.77886813410406"><ele>429.0</ele><time>2026-04-26T10:33:55Z</time></trkpt><trkpt lat="43.486331681646" lon="12.779093025306617"><ele>430.33333333333337</ele><time>2026-04-26T10:33:56Z</time></trkpt><trkpt lat="43.486243390278545" lon="12.779324431123937"><ele>431.6666666666667</ele><time>2026-04-26T10:33:57Z</time></trkpt><trkpt lat="43.48616320694186" lon="12.77955703383675"><ele>433.0</ele><time>2026-04-26T10:33:58Z</time></trkpt><trkpt lat="43.48608555472949" lon="12.779794977343885"><ele>433.6666666666667</ele><time>2026-04-26T10:33:59Z</time></trkpt><trkpt lat="43.4860071503257" lon="12.780030819753977"><ele>434.33333333333337</ele><time>2026-04-26T10:34:00Z</time></trkpt><trkpt lat="43.48593309309049" lon="12.780267099598195"><ele>435.0</ele><time>2026-04-26T10:34:01Z</time></trkpt><trkpt lat="43.485864492852855" lon="12.780508364649021"><ele>436.0</ele><time>2026-04-26T10:34:02Z</time></trkpt><trkpt lat="43.485804314141085" lon="12.780754404872697"><ele>437.0</ele><time>2026-04-26T10:34:03Z</time></trkpt><trkpt lat="43.485745057749895" lon="12.781001591620731"><ele>438.0</ele><time>2026-04-26T10:34:04Z</time></trkpt><trkpt lat="43.485685466896214" lon="12.78124746106082"><ele>438.0</ele><time>2026-04-26T10:34:05Z</time></trkpt><trkpt lat="43.485626957243596" lon="12.781491502517136"><ele>438.0</ele><time>2026-04-26T10:34:06Z</time></trkpt><trkpt lat="43.485576176398325" lon="12.781738392539433"><ele>438.0</ele><time>2026-04-26T10:34:07Z</time></trkpt><trkpt lat="43.48552529478441" lon="12.781981712778085"><ele>441.0</ele><time>2026-04-26T10:34:08Z</time></trkpt><trkpt lat="43.48546425660507" lon="12.78222201267958"><ele>444.0</ele><time>2026-04-26T10:34:09Z</time></trkpt><trkpt lat="43.48539097475687" lon="12.782453040341943"><ele>447.0</ele><time>2026-04-26T10:34:10Z</time></trkpt><trkpt lat="43.485313213466895" lon="12.782681464639053"><ele>448.33333333333337</ele><time>2026-04-26T10:34:11Z</time></trkpt><trkpt lat="43.48523534373958" lon="12.782911850230587"><ele>449.6666666666667</ele><time>2026-04-26T10:34:12Z</time></trkpt><trkpt lat="43.485156000722654" lon="12.783148987720825"><ele>451.0</ele><time>2026-04-26T10:34:13Z</time></trkpt><trkpt lat="43.48507750247708" lon="12.783388565939319"><ele>451.6666666666667</ele><time>2026-04-26T10:34:14Z</time></trkpt><trkpt lat="43.48499349024321" lon="12.783634117494525"><ele>452.33333333333337</ele><time>2026-04-26T10:34:15Z</time></trkpt><trkpt lat="43.48491569739212" lon="12.783878051677556"><ele>453.0</ele><time>2026-04-26T10:34:16Z</time></trkpt><trkpt lat="43.48483982895875" lon="12.784111808555904"><ele>453.0</ele><time>2026-04-26T10:34:17Z</time></trkpt><trkpt lat="43.484772091227754" lon="12.784335699855903"><ele>453.0</ele><time>2026-04-26T10:34:18Z</time></trkpt><trkpt lat="43.48470698538147" lon="12.784558615270505"><ele>453.0</ele><time>2026-04-26T10:34:19Z</time></trkpt><trkpt lat="43.48464409561936" lon="12.784777645940864"><ele>452.33333333333337</ele><time>2026-04-26T10:34:20Z</time></trkpt><trkpt lat="43.484595338735765" lon="12.785007705114829"><ele>451.6666666666667</ele><time>2026-04-26T10:34:21Z</time></trkpt><trkpt lat="43.48457847055845" lon="12.785244860238416"><ele>451.0</ele><time>2026-04-26T10:34:22Z</time></trkpt><trkpt lat="43.48459680332714" lon="12.785463541861777"><ele>451.0</ele><time>2026-04-26T10:34:23Z</time></trkpt><trkpt lat="43.484622564401704" lon="12.785656510862468"><ele>451.0</ele><time>2026-04-26T10:34:24Z</time></trkpt><trkpt lat="43.48461023788295" lon="12.785838722512635"><ele>451.0</ele><time>2026-04-26T10:34:25Z</time></trkpt><trkpt lat="43.48454260603386" lon="12.78599901951254"><ele>451.0</ele><time>2026-04-26T10:34:26Z</time></trkpt><trkpt lat="43.484430089424514" lon="12.786136304688814"><ele>454.6666666666667</ele><time>2026-04-26T10:34:27Z</time></trkpt><trkpt lat="43.48428049053636" lon="12.786259945229109"><ele>458.33333333333337</ele><time>2026-04-26T10:34:28Z</time></trkpt><trkpt lat="43.48412176181268" lon="12.786391757113595"><ele>462.0</ele><time>2026-04-26T10:34:29Z</time></trkpt><trkpt lat="43.483949591084894" lon="12.78652731727536"><ele>462.0</ele><time>2026-04-26T10:34:30Z</time></trkpt><trkpt lat="43.48378744402165" lon="12.786666488415186"><ele>462.0</ele><time>2026-04-26T10:34:31Z</time></trkpt><trkpt lat="43.48361542485896" lon="12.786809195326173"><ele>462.0</ele><time>2026-04-26T10:34:32Z</time></trkpt><trkpt lat="43.4834384845116" lon="12.786946951350313"><ele>465.0</ele><time>2026-04-26T10:34:33Z</time></trkpt><trkpt lat="43.48325958556255" lon="12.787080643104272"><ele>468.0</ele><time>2026-04-26T10:34:34Z</time></trkpt><trkpt lat="43.48307941005328" lon="12.787213412997973"><ele>471.0</ele><time>2026-04-26T10:34:35Z</time></trkpt><trkpt lat="43.48290183804231" lon="12.787354045255633"><ele>474.0</ele><time>2026-04-26T10:34:36Z</time></trkpt><trkpt lat="43.48272801922102" lon="12.787491171189908"><ele>477.0</ele><time>2026-04-26T10:34:37Z</time></trkpt><trkpt lat="43.48257096480399" lon="12.787639861159244"><ele>480.0</ele><time>2026-04-26T10:34:38Z</time></trkpt><trkpt lat="43.48243433853829" lon="12.787811405377216"><ele>480.0</ele><time>2026-04-26T10:34:39Z</time></trkpt><trkpt lat="43.48232369786858" lon="12.787986369139853"><ele>480.0</ele><time>2026-04-26T10:34:40Z</time></trkpt><trkpt lat="43.48223680692607" lon="12.788174902477149"><ele>480.0</ele><time>2026-04-26T10:34:41Z</time></trkpt><trkpt lat="43.482176938130216" lon="12.788398811890637"><ele>480.66666666666663</ele><time>2026-04-26T10:34:42Z</time></trkpt><trkpt lat="43.48213909521572" lon="12.788652999964134"><ele>481.3333333333333</ele><time>2026-04-26T10:34:43Z</time></trkpt><trkpt lat="43.48209843360809" lon="12.788913754006115"><ele>482.0</ele><time>2026-04-26T10:34:44Z</time></trkpt><trkpt lat="43.48205316427334" lon="12.789171536939815"><ele>485.3333333333333</ele><time>2026-04-26T10:34:45Z</time></trkpt><trkpt lat="43.48200568317251" lon="12.78942471927832"><ele>488.66666666666663</ele><time>2026-04-26T10:34:46Z</time></trkpt><trkpt lat="43.48195942586723" lon="12.789668454724554"><ele>492.0</ele><time>2026-04-26T10:34:47Z</time></trkpt><trkpt lat="43.48191201016348" lon="12.789899876207105"><ele>492.0</ele><time>2026-04-26T10:34:48Z</time></trkpt><trkpt lat="43.48186272230555" lon="12.790121420681796"><ele>492.0</ele><time>2026-04-26T10:34:49Z</time></trkpt><trkpt lat="43.48181147417768" lon="12.790345821861592"><ele>492.0</ele><time>2026-04-26T10:34:50Z</time></trkpt><trkpt lat="43.481754630902884" lon="12.790572449575212"><ele>490.33333333333337</ele><time>2026-04-26T10:34:51Z</time></trkpt><trkpt lat="43.481691887625956" lon="12.790793107978493"><ele>488.6666666666667</ele><time>2026-04-26T10:34:52Z</time></trkpt><trkpt lat="43.481626330883934" lon="12.791027572006309"><ele>487.0</ele><time>2026-04-26T10:34:53Z</time></trkpt><trkpt lat="43.48156113674491" lon="12.791271016093084"><ele>486.0</ele><time>2026-04-26T10:34:54Z</time></trkpt><trkpt lat="43.48149484917062" lon="12.791521659262886"><ele>485.0</ele><time>2026-04-26T10:34:55Z</time></trkpt><trkpt lat="43.481436442144684" lon="12.791787542365887"><ele>484.0</ele><time>2026-04-26T10:34:56Z</time></trkpt><trkpt lat="43.48137328427538" lon="12.792059522970412"><ele>484.33333333333337</ele><time>2026-04-26T10:34:57Z</time></trkpt><trkpt lat="43.48130609612149" lon="12.79232273306954"><ele>484.66666666666663</ele><time>2026-04-26T10:34:58Z</time></trkpt><trkpt lat="43.481228454634746" lon="12.792575704178914"><ele>485.0</ele><time>2026-04-26T10:34:59Z</time></trkpt><trkpt lat="43.48115806021932" lon="12.792842362330385"><ele>485.0</ele><time>2026-04-26T10:35:00Z</time></trkpt><trkpt lat="43.481102518492" lon="12.793118946637472"><ele>485.0</ele><time>2026-04-26T10:35:01Z</time></trkpt><trkpt lat="43.481029732283474" lon="12.793387741195085"><ele>485.0</ele><time>2026-04-26T10:35:02Z</time></trkpt><trkpt lat="43.48096094567691" lon="12.793659999849961"><ele>484.66666666666663</ele><time>2026-04-26T10:35:03Z</time></trkpt><trkpt lat="43.48088422869069" lon="12.793930290121862"><ele>484.33333333333337</ele><time>2026-04-26T10:35:04Z</time></trkpt><trkpt lat="43.480806993834086" lon="12.794201555301726"><ele>484.0</ele><time>2026-04-26T10:35:05Z</time></trkpt><trkpt lat="43.48073007063244" lon="12.794474525820743"><ele>483.0</ele><time>2026-04-26T10:35:06Z</time></trkpt><trkpt lat="43.480656027664196" lon="12.79474705796381"><ele>482.0</ele><time>2026-04-26T10:35:07Z</time></trkpt><trkpt lat="43.48057917338953" lon="12.795023211365269"><ele>481.0</ele><time>2026-04-26T10:35:08Z</time></trkpt><trkpt lat="43.480504635614984" lon="12.795293846818002"><ele>481.0</ele><time>2026-04-26T10:35:09Z</time></trkpt><trkpt lat="43.48043443696423" lon="12.79556220552953"><ele>481.0</ele><time>2026-04-26T10:35:10Z</time></trkpt><trkpt lat="43.48036340447927" lon="12.79583023579532"><ele>481.0</ele><time>2026-04-26T10:35:11Z</time></trkpt><trkpt lat="43.48029195340804" lon="12.796082722127826"><ele>481.0</ele><time>2026-04-26T10:35:12Z</time></trkpt><trkpt lat="43.4802275711143" lon="12.79632208729021"><ele>481.0</ele><time>2026-04-26T10:35:13Z</time></trkpt><trkpt lat="43.48016694467131" lon="12.79656358332582"><ele>481.0</ele><time>2026-04-26T10:35:14Z</time></trkpt><trkpt lat="43.48013067765984" lon="12.796817920499263"><ele>478.6666666666667</ele><time>2026-04-26T10:35:15Z</time></trkpt><trkpt lat="43.48011336225848" lon="12.797085380834076"><ele>476.33333333333337</ele><time>2026-04-26T10:35:16Z</time></trkpt><trkpt lat="43.48013028023405" lon="12.797358926072912"><ele>474.0</ele><time>2026-04-26T10:35:17Z</time></trkpt><trkpt lat="43.48015506692632" lon="12.79763285537469"><ele>473.33333333333337</ele><time>2026-04-26T10:35:18Z</time></trkpt><trkpt lat="43.48018199137199" lon="12.797906148615086"><ele>472.6666666666667</ele><time>2026-04-26T10:35:19Z</time></trkpt><trkpt lat="43.48020718472428" lon="12.798179498430487"><ele>472.0</ele><time>2026-04-26T10:35:20Z</time></trkpt><trkpt lat="43.48023170745087" lon="12.798449323268963"><ele>471.6666666666667</ele><time>2026-04-26T10:35:21Z</time></trkpt><trkpt lat="43.48027147518262" lon="12.798714305291384"><ele>471.33333333333337</ele><time>2026-04-26T10:35:22Z</time></trkpt><trkpt lat="43.48029054161235" lon="12.798977823205105"><ele>471.0</ele><time>2026-04-26T10:35:23Z</time></trkpt><trkpt lat="43.480316735729936" lon="12.799229491510317"><ele>471.0</ele><time>2026-04-26T10:35:24Z</time></trkpt><trkpt lat="43.480348802582554" lon="12.79948318162331"><ele>471.0</ele><time>2026-04-26T10:35:25Z</time></trkpt><trkpt lat="43.48038259664334" lon="12.79973345087218"><ele>471.0</ele><time>2026-04-26T10:35:26Z</time></trkpt><trkpt lat="43.48040890016025" lon="12.79998442741751"><ele>472.33333333333337</ele><time>2026-04-26T10:35:27Z</time></trkpt><trkpt lat="43.48043159239215" lon="12.800234495903487"><ele>473.6666666666667</ele><time>2026-04-26T10:35:28Z</time></trkpt><trkpt lat="43.4804529841766" lon="12.8004876844641"><ele>475.0</ele><time>2026-04-26T10:35:29Z</time></trkpt><trkpt lat="43.48047167083449" lon="12.800739597874207"><ele>472.33333333333337</ele><time>2026-04-26T10:35:30Z</time></trkpt><trkpt lat="43.480490814267874" lon="12.800984880172457"><ele>469.66666666666663</ele><time>2026-04-26T10:35:31Z</time></trkpt><trkpt lat="43.4805080168682" lon="12.801226643153578"><ele>467.0</ele><time>2026-04-26T10:35:32Z</time></trkpt><trkpt lat="43.48052396507961" lon="12.801464234322406"><ele>466.0</ele><time>2026-04-26T10:35:33Z</time></trkpt><trkpt lat="43.48054200824996" lon="12.80169269279077"><ele>465.0</ele><time>2026-04-26T10:35:34Z</time></trkpt><trkpt lat="43.48056092445914" lon="12.801913102972543"><ele>464.0</ele><time>2026-04-26T10:35:35Z</time></trkpt><trkpt lat="43.48058045193292" lon="12.802133396260116"><ele>462.3333333333333</ele><time>2026-04-26T10:35:36Z</time></trkpt><trkpt lat="43.4805946770241" lon="12.802359919799146"><ele>460.66666666666663</ele><time>2026-04-26T10:35:37Z</time></trkpt><trkpt lat="43.48059759695941" lon="12.802592388157747"><ele>459.0</ele><time>2026-04-26T10:35:38Z</time></trkpt><trkpt lat="43.48057419669418" lon="12.802820981059517"><ele>458.33333333333337</ele><time>2026-04-26T10:35:39Z</time></trkpt><trkpt lat="43.48052292208903" lon="12.803040193850613"><ele>457.6666666666667</ele><time>2026-04-26T10:35:40Z</time></trkpt><trkpt lat="43.48045856747352" lon="12.803250378164478"><ele>457.0</ele><time>2026-04-26T10:35:41Z</time></trkpt><trkpt lat="43.48038850899362" lon="12.803462858085565"><ele>456.33333333333337</ele><time>2026-04-26T10:35:42Z</time></trkpt><trkpt lat="43.48032110384542" lon="12.803686290742318"><ele>455.66666666666663</ele><time>2026-04-26T10:35:43Z</time></trkpt><trkpt lat="43.480250747260534" lon="12.803913207207739"><ele>455.0</ele><time>2026-04-26T10:35:44Z</time></trkpt><trkpt lat="43.4801789559745" lon="12.80414423101923"><ele>452.66666666666663</ele><time>2026-04-26T10:35:45Z</time></trkpt><trkpt lat="43.480106582601366" lon="12.804382655554852"><ele>450.33333333333337</ele><time>2026-04-26T10:35:46Z</time></trkpt><trkpt lat="43.48003352462556" lon="12.804625750877948"><ele>448.0</ele><time>2026-04-26T10:35:47Z</time></trkpt><trkpt lat="43.47995994138727" lon="12.80487289680848"><ele>448.0</ele><time>2026-04-26T10:35:48Z</time></trkpt><trkpt lat="43.479884454168236" lon="12.805118397855276"><ele>448.0</ele><time>2026-04-26T10:35:49Z</time></trkpt><trkpt lat="43.479809385189824" lon="12.805362798138134"><ele>448.0</ele><time>2026-04-26T10:35:50Z</time></trkpt><trkpt lat="43.479735789832546" lon="12.805602230864976"><ele>445.6666666666667</ele><time>2026-04-26T10:35:51Z</time></trkpt><trkpt lat="43.47966344628554" lon="12.805837977816186"><ele>443.33333333333337</ele><time>2026-04-26T10:35:52Z</time></trkpt><trkpt lat="43.47958575167796" lon="12.806067748664882"><ele>441.0</ele><time>2026-04-26T10:35:53Z</time></trkpt><trkpt lat="43.479491751275496" lon="12.80628479940716"><ele>438.66666666666663</ele><time>2026-04-26T10:35:54Z</time></trkpt><trkpt lat="43.47937904751013" lon="12.80648804550374"><ele>436.3333333333333</ele><time>2026-04-26T10:35:55Z</time></trkpt><trkpt lat="43.47926188605853" lon="12.806688943300541"><ele>434.0</ele><time>2026-04-26T10:35:56Z</time></trkpt><trkpt lat="43.47914453161499" lon="12.806892298723874"><ele>432.66666666666663</ele><time>2026-04-26T10:35:57Z</time></trkpt><trkpt lat="43.47902874937162" lon="12.807100448925835"><ele>431.33333333333337</ele><time>2026-04-26T10:35:58Z</time></trkpt><trkpt lat="43.47891313567056" lon="12.807317728316832"><ele>430.0</ele><time>2026-04-26T10:35:59Z</time></trkpt><trkpt lat="43.47879730125075" lon="12.807532367387822"><ele>430.0</ele><time>2026-04-26T10:36:00Z</time></trkpt><trkpt lat="43.478675691532715" lon="12.80774702015218"><ele>430.0</ele><time>2026-04-26T10:36:01Z</time></trkpt><trkpt lat="43.478543974442715" lon="12.807952499560448"><ele>430.0</ele><time>2026-04-26T10:36:02Z</time></trkpt><trkpt lat="43.478398517668325" lon="12.808153016542596"><ele>430.0</ele><time>2026-04-26T10:36:03Z</time></trkpt><trkpt lat="43.47824301444567" lon="12.808349149484943"><ele>430.0</ele><time>2026-04-26T10:36:04Z</time></trkpt><trkpt lat="43.47808368235205" lon="12.808540683690245"><ele>430.0</ele><time>2026-04-26T10:36:05Z</time></trkpt><trkpt lat="43.47792871293999" lon="12.808733687799693"><ele>429.33333333333337</ele><time>2026-04-26T10:36:06Z</time></trkpt><trkpt lat="43.477774350218446" lon="12.808923389710051"><ele>428.66666666666663</ele><time>2026-04-26T10:36:07Z</time></trkpt><trkpt lat="43.47762478099877" lon="12.80911124752343"><ele>428.0</ele><time>2026-04-26T10:36:08Z</time></trkpt><trkpt lat="43.47747261576741" lon="12.80929376055014"><ele>427.3333333333333</ele><time>2026-04-26T10:36:09Z</time></trkpt><trkpt lat="43.47730976400466" lon="12.809453435762398"><ele>426.66666666666663</ele><time>2026-04-26T10:36:10Z</time></trkpt><trkpt lat="43.47713572670942" lon="12.809589752228415"><ele>426.0</ele><time>2026-04-26T10:36:11Z</time></trkpt><trkpt lat="43.4769655247227" lon="12.809725149128349"><ele>425.0</ele><time>2026-04-26T10:36:12Z</time></trkpt><trkpt lat="43.47679894499137" lon="12.809858421224602"><ele>424.0</ele><time>2026-04-26T10:36:13Z</time></trkpt><trkpt lat="43.47663694015698" lon="12.809993590653969"><ele>423.0</ele><time>2026-04-26T10:36:14Z</time></trkpt><trkpt lat="43.476489956767" lon="12.810126263958724"><ele>423.33333333333337</ele><time>2026-04-26T10:36:15Z</time></trkpt><trkpt lat="43.47633899387417" lon="12.810244658319835"><ele>423.6666666666667</ele><time>2026-04-26T10:36:16Z</time></trkpt><trkpt lat="43.47619282289535" lon="12.810368878305042"><ele>424.0</ele><time>2026-04-26T10:36:17Z</time></trkpt><trkpt lat="43.476049600714056" lon="12.81048731275155"><ele>422.33333333333337</ele><time>2026-04-26T10:36:18Z</time></trkpt><trkpt lat="43.47590098345057" lon="12.810603226193177"><ele>420.66666666666663</ele><time>2026-04-26T10:36:19Z</time></trkpt><trkpt lat="43.475757203313286" lon="12.81071680550481"><ele>419.0</ele><time>2026-04-26T10:36:20Z</time></trkpt><trkpt lat="43.47562130788455" lon="12.810825196646288"><ele>419.0</ele><time>2026-04-26T10:36:21Z</time></trkpt><trkpt lat="43.4754909976399" lon="12.810933059020984"><ele>419.0</ele><time>2026-04-26T10:36:22Z</time></trkpt><trkpt lat="43.475364623752164" lon="12.811036397462644"><ele>419.0</ele><time>2026-04-26T10:36:23Z</time></trkpt><trkpt lat="43.47524602205732" lon="12.811145977981784"><ele>419.0</ele><time>2026-04-26T10:36:24Z</time></trkpt><trkpt lat="43.47513793701735" lon="12.811251427263205"><ele>418.66666666666663</ele><time>2026-04-26T10:36:25Z</time></trkpt><trkpt lat="43.47504350321726" lon="12.811349915552723"><ele>418.3333333333333</ele><time>2026-04-26T10:36:26Z</time></trkpt><trkpt lat="43.47496761347002" lon="12.81145097140247"><ele>418.0</ele><time>2026-04-26T10:36:27Z</time></trkpt><trkpt lat="43.474910216216735" lon="12.811544505534629"><ele>417.66666666666663</ele><time>2026-04-26T10:36:28Z</time></trkpt><trkpt lat="43.47486860258284" lon="12.81162021955862"><ele>417.3333333333333</ele><time>2026-04-26T10:36:29Z</time></trkpt><trkpt lat="43.47482554599483" lon="12.811691970926557"><ele>417.0</ele><time>2026-04-26T10:36:30Z</time></trkpt><trkpt lat="43.47478301539928" lon="12.811772251934775"><ele>416.8</ele><time>2026-04-26T10:36:31Z</time></trkpt><trkpt lat="43.474723158688526" lon="12.811849190667806"><ele>416.6</ele><time>2026-04-26T10:36:32Z</time></trkpt><trkpt lat="43.47469741471009" lon="12.811965990665803"><ele>416.40000000000003</ele><time>2026-04-26T10:36:33Z</time></trkpt><trkpt lat="43.474562437633914" lon="12.812015904634153"><ele>416.20000000000005</ele><time>2026-04-26T10:36:34Z</time></trkpt><trkpt lat="43.474463502085335" lon="12.812098295986358"><ele>416.0</ele><time>2026-04-26T10:36:35Z</time></trkpt><trkpt lat="43.47435166068653" lon="12.812182157092353"><ele>416.0</ele><time>2026-04-26T10:36:36Z</time></trkpt><trkpt lat="43.474235240730486" lon="12.812270802961416"><ele>416.0</ele><time>2026-04-26T10:36:37Z</time></trkpt><trkpt lat="43.47411350450587" lon="12.8123645159032"><ele>416.0</ele><time>2026-04-26T10:36:38Z</time></trkpt><trkpt lat="43.4739874755748" lon="12.812461274685415"><ele>416.0</ele><time>2026-04-26T10:36:39Z</time></trkpt><trkpt lat="43.473848695720314" lon="12.812560600516823"><ele>416.3333333333333</ele><time>2026-04-26T10:36:40Z</time></trkpt><trkpt lat="43.473692416942626" lon="12.812641054835696"><ele>416.66666666666663</ele><time>2026-04-26T10:36:41Z</time></trkpt><trkpt lat="43.47352630082311" lon="12.812696824581211"><ele>417.0</ele><time>2026-04-26T10:36:42Z</time></trkpt><trkpt lat="43.473361152378445" lon="12.81274198399314"><ele>415.33333333333337</ele><time>2026-04-26T10:36:43Z</time></trkpt><trkpt lat="43.473192276000596" lon="12.812792521256494"><ele>413.6666666666667</ele><time>2026-04-26T10:36:44Z</time></trkpt><trkpt lat="43.47301635785731" lon="12.81284217674139"><ele>412.0</ele><time>2026-04-26T10:36:45Z</time></trkpt><trkpt lat="43.47283387607823" lon="12.812888592410086"><ele>412.0</ele><time>2026-04-26T10:36:46Z</time></trkpt><trkpt lat="43.472647157156004" lon="12.812928296617908"><ele>412.0</ele><time>2026-04-26T10:36:47Z</time></trkpt><trkpt lat="43.472457482076436" lon="12.81296082850289"><ele>412.0</ele><time>2026-04-26T10:36:48Z</time></trkpt><trkpt lat="43.472265762850576" lon="12.812990521685625"><ele>411.6666666666667</ele><time>2026-04-26T10:36:49Z</time></trkpt><trkpt lat="43.472072202834184" lon="12.813020728461002"><ele>411.33333333333337</ele><time>2026-04-26T10:36:50Z</time></trkpt><trkpt lat="43.471873618188674" lon="12.813049671379446"><ele>411.0</ele><time>2026-04-26T10:36:51Z</time></trkpt><trkpt lat="43.47167307817078" lon="12.813076853561665"><ele>411.0</ele><time>2026-04-26T10:36:52Z</time></trkpt><trkpt lat="43.47146890443023" lon="12.813097070416566"><ele>411.0</ele><time>2026-04-26T10:36:53Z</time></trkpt><trkpt lat="43.47126348421195" lon="12.813116862702424"><ele>411.0</ele><time>2026-04-26T10:36:54Z</time></trkpt><trkpt lat="43.47105878667612" lon="12.81313710644231"><ele>410.0</ele><time>2026-04-26T10:36:55Z</time></trkpt><trkpt lat="43.47085583709964" lon="12.81316146365949"><ele>409.0</ele><time>2026-04-26T10:36:56Z</time></trkpt><trkpt lat="43.47065660408696" lon="12.81319641906288"><ele>408.0</ele><time>2026-04-26T10:36:57Z</time></trkpt><trkpt lat="43.47046179797068" lon="12.813256842339229"><ele>408.0</ele><time>2026-04-26T10:36:58Z</time></trkpt><trkpt lat="43.470276688326116" lon="12.813350870328598"><ele>408.0</ele><time>2026-04-26T10:36:59Z</time></trkpt><trkpt lat="43.470099259318154" lon="12.813474771680697"><ele>408.0</ele><time>2026-04-26T10:37:00Z</time></trkpt><trkpt lat="43.46992582492399" lon="12.81361072043212"><ele>407.0</ele><time>2026-04-26T10:37:01Z</time></trkpt><trkpt lat="43.46975399938458" lon="12.813760220378368"><ele>406.0</ele><time>2026-04-26T10:37:02Z</time></trkpt><trkpt lat="43.469576959007384" lon="12.813923052484933"><ele>405.0</ele><time>2026-04-26T10:37:03Z</time></trkpt><trkpt lat="43.46940812822211" lon="12.814073221995026"><ele>405.0</ele><time>2026-04-26T10:37:04Z</time></trkpt><trkpt lat="43.4692306064712" lon="12.814213705064569"><ele>405.0</ele><time>2026-04-26T10:37:05Z</time></trkpt><trkpt lat="43.46904273702749" lon="12.814330289152927"><ele>405.0</ele><time>2026-04-26T10:37:06Z</time></trkpt><trkpt lat="43.468845697127755" lon="12.814415988672321"><ele>403.66666666666663</ele><time>2026-04-26T10:37:07Z</time></trkpt><trkpt lat="43.46864727938641" lon="12.81447977730384"><ele>402.3333333333333</ele><time>2026-04-26T10:37:08Z</time></trkpt><trkpt lat="43.468441961625274" lon="12.814532152689718"><ele>401.0</ele><time>2026-04-26T10:37:09Z</time></trkpt><trkpt lat="43.46823366634437" lon="12.814583779936417"><ele>401.0</ele><time>2026-04-26T10:37:10Z</time></trkpt><trkpt lat="43.468023339937325" lon="12.814639360398248"><ele>401.0</ele><time>2026-04-26T10:37:11Z</time></trkpt><trkpt lat="43.467811454324156" lon="12.814695376922444"><ele>401.0</ele><time>2026-04-26T10:37:12Z</time></trkpt><trkpt lat="43.467597999365346" lon="12.814747606499862"><ele>399.66666666666663</ele><time>2026-04-26T10:37:13Z</time></trkpt><trkpt lat="43.467382538665724" lon="12.814796638122127"><ele>398.33333333333337</ele><time>2026-04-26T10:37:14Z</time></trkpt><trkpt lat="43.46716613178534" lon="12.814842845350716"><ele>397.0</ele><time>2026-04-26T10:37:15Z</time></trkpt><trkpt lat="43.46694936027936" lon="12.814877291724091"><ele>396.33333333333337</ele><time>2026-04-26T10:37:16Z</time></trkpt><trkpt lat="43.46673409269432" lon="12.814906203181831"><ele>395.66666666666663</ele><time>2026-04-26T10:37:17Z</time></trkpt><trkpt lat="43.46652425494824" lon="12.81492625048455"><ele>395.0</ele><time>2026-04-26T10:37:18Z</time></trkpt><trkpt lat="43.466318278796" lon="12.814924412318627"><ele>393.3333333333333</ele><time>2026-04-26T10:37:19Z</time></trkpt><trkpt lat="43.46611803492752" lon="12.81488798117374"><ele>391.66666666666663</ele><time>2026-04-26T10:37:20Z</time></trkpt><trkpt lat="43.46593090488429" lon="12.814837349508487"><ele>390.0</ele><time>2026-04-26T10:37:21Z</time></trkpt><trkpt lat="43.46574604455768" lon="12.814793431241771"><ele>390.0</ele><time>2026-04-26T10:37:22Z</time></trkpt><trkpt lat="43.465570624295395" lon="12.814755435120777"><ele>390.0</ele><time>2026-04-26T10:37:23Z</time></trkpt><trkpt lat="43.465400333919604" lon="12.814745912152079"><ele>390.0</ele><time>2026-04-26T10:37:24Z</time></trkpt><trkpt lat="43.46522949995787" lon="12.814775875440265"><ele>389.33333333333337</ele><time>2026-04-26T10:37:25Z</time></trkpt><trkpt lat="43.4650587155674" lon="12.814835315926407"><ele>388.6666666666667</ele><time>2026-04-26T10:37:26Z</time></trkpt><trkpt lat="43.46489332594411" lon="12.81492320066669"><ele>388.0</ele><time>2026-04-26T10:37:27Z</time></trkpt><trkpt lat="43.46472640553637" lon="12.815001770904033"><ele>387.33333333333337</ele><time>2026-04-26T10:37:28Z</time></trkpt><trkpt lat="43.46456268939196" lon="12.815079226464345"><ele>386.66666666666663</ele><time>2026-04-26T10:37:29Z</time></trkpt><trkpt lat="43.46439920584745" lon="12.815155572441101"><ele>386.0</ele><time>2026-04-26T10:37:30Z</time></trkpt><trkpt lat="43.46424024361848" lon="12.815238655803647"><ele>386.0</ele><time>2026-04-26T10:37:31Z</time></trkpt><trkpt lat="43.46408820748308" lon="12.815323735635747"><ele>386.0</ele><time>2026-04-26T10:37:32Z</time></trkpt><trkpt lat="43.46394238250104" lon="12.815437328521085"><ele>386.0</ele><time>2026-04-26T10:37:33Z</time></trkpt><trkpt lat="43.46380964126191" lon="12.815586329856679"><ele>386.0</ele><time>2026-04-26T10:37:34Z</time></trkpt><trkpt lat="43.46367997571721" lon="12.81574810989504"><ele>386.0</ele><time>2026-04-26T10:37:35Z</time></trkpt><trkpt lat="43.463552636245126" lon="12.815917812301716"><ele>386.0</ele><time>2026-04-26T10:37:36Z</time></trkpt><trkpt lat="43.46342454118361" lon="12.816081052253814"><ele>385.3333333333333</ele><time>2026-04-26T10:37:37Z</time></trkpt><trkpt lat="43.4632959537486" lon="12.816236876841492"><ele>384.66666666666663</ele><time>2026-04-26T10:37:38Z</time></trkpt><trkpt lat="43.46316503211931" lon="12.816398118418832"><ele>384.0</ele><time>2026-04-26T10:37:39Z</time></trkpt><trkpt lat="43.463042969761354" lon="12.81656581074631"><ele>384.0</ele><time>2026-04-26T10:37:40Z</time></trkpt><trkpt lat="43.462922250044066" lon="12.81673124898937"><ele>384.0</ele><time>2026-04-26T10:37:41Z</time></trkpt><trkpt lat="43.46280206872588" lon="12.816888987521654"><ele>384.0</ele><time>2026-04-26T10:37:42Z</time></trkpt><trkpt lat="43.462683239439535" lon="12.817042456741422"><ele>384.0</ele><time>2026-04-26T10:37:43Z</time></trkpt><trkpt lat="43.462570402202466" lon="12.817196606020254"><ele>384.0</ele><time>2026-04-26T10:37:44Z</time></trkpt><trkpt lat="43.462456334919885" lon="12.817346564460387"><ele>384.0</ele><time>2026-04-26T10:37:45Z</time></trkpt><trkpt lat="43.4623450642116" lon="12.817497218332354"><ele>384.0</ele><time>2026-04-26T10:37:46Z</time></trkpt><trkpt lat="43.46223540905827" lon="12.817647096519629"><ele>384.0</ele><time>2026-04-26T10:37:47Z</time></trkpt><trkpt lat="43.462129353562695" lon="12.817796147712286"><ele>384.0</ele><time>2026-04-26T10:37:48Z</time></trkpt><trkpt lat="43.46201744081791" lon="12.817935132078784"><ele>384.0</ele><time>2026-04-26T10:37:49Z</time></trkpt><trkpt lat="43.46191014635665" lon="12.818081410426533"><ele>384.0</ele><time>2026-04-26T10:37:50Z</time></trkpt><trkpt lat="43.46180054074053" lon="12.818229630850382"><ele>384.0</ele><time>2026-04-26T10:37:51Z</time></trkpt><trkpt lat="43.46168962505704" lon="12.818374193305088"><ele>383.3333333333333</ele><time>2026-04-26T10:37:52Z</time></trkpt><trkpt lat="43.461577917909544" lon="12.818520253539493"><ele>382.66666666666663</ele><time>2026-04-26T10:37:53Z</time></trkpt><trkpt lat="43.461467070501946" lon="12.818662977556489"><ele>382.0</ele><time>2026-04-26T10:37:54Z</time></trkpt><trkpt lat="43.4613599177443" lon="12.818800681626232"><ele>382.0</ele><time>2026-04-26T10:37:55Z</time></trkpt><trkpt lat="43.46126021954328" lon="12.818936212078025"><ele>382.0</ele><time>2026-04-26T10:37:56Z</time></trkpt><trkpt lat="43.461173439062506" lon="12.819079425622347"><ele>382.0</ele><time>2026-04-26T10:37:57Z</time></trkpt><trkpt lat="43.4611125672101" lon="12.819233300222956"><ele>382.0</ele><time>2026-04-26T10:37:58Z</time></trkpt><trkpt lat="43.461083306819994" lon="12.819401169101589"><ele>381.0</ele><time>2026-04-26T10:37:59Z</time></trkpt><trkpt lat="43.46108785911975" lon="12.819576490409935"><ele>380.0</ele><time>2026-04-26T10:38:00Z</time></trkpt><trkpt lat="43.46111936095974" lon="12.81974791118806"><ele>379.0</ele><time>2026-04-26T10:38:01Z</time></trkpt><trkpt lat="43.461148773060025" lon="12.819935471849726"><ele>378.0</ele><time>2026-04-26T10:38:02Z</time></trkpt><trkpt lat="43.46117925983134" lon="12.820125536702776"><ele>377.6666666666667</ele><time>2026-04-26T10:38:03Z</time></trkpt><trkpt lat="43.46121193022036" lon="12.820330606578331"><ele>377.33333333333337</ele><time>2026-04-26T10:38:04Z</time></trkpt><trkpt lat="43.461248012776956" lon="12.820548941278462"><ele>377.0</ele><time>2026-04-26T10:38:05Z</time></trkpt><trkpt lat="43.46128680737078" lon="12.820779359489832"><ele>379.0</ele><time>2026-04-26T10:38:06Z</time></trkpt><trkpt lat="43.46132782959074" lon="12.821010644331865"><ele>381.0</ele><time>2026-04-26T10:38:07Z</time></trkpt><trkpt lat="43.461374171563556" lon="12.821250308695248"><ele>383.0</ele><time>2026-04-26T10:38:08Z</time></trkpt><trkpt lat="43.461422795060365" lon="12.821496015722962"><ele>383.0</ele><time>2026-04-26T10:38:09Z</time></trkpt><trkpt lat="43.46147222439608" lon="12.821746504424203"><ele>383.0</ele><time>2026-04-26T10:38:10Z</time></trkpt><trkpt lat="43.46152370684189" lon="12.822003379208017"><ele>383.0</ele><time>2026-04-26T10:38:11Z</time></trkpt><trkpt lat="43.461574976682584" lon="12.8222641577491"><ele>382.6666666666667</ele><time>2026-04-26T10:38:12Z</time></trkpt><trkpt lat="43.461624473497814" lon="12.822525584930371"><ele>382.3333333333333</ele><time>2026-04-26T10:38:13Z</time></trkpt><trkpt lat="43.461675837980245" lon="12.82278995691819"><ele>382.0</ele><time>2026-04-26T10:38:14Z</time></trkpt><trkpt lat="43.461726483827064" lon="12.823049426353405"><ele>380.3333333333333</ele><time>2026-04-26T10:38:15Z</time></trkpt><trkpt lat="43.46177737695062" lon="12.823302613628949"><ele>378.6666666666667</ele><time>2026-04-26T10:38:16Z</time></trkpt><trkpt lat="43.461827959161766" lon="12.823553779710386"><ele>377.0</ele><time>2026-04-26T10:38:17Z</time></trkpt><trkpt lat="43.46187648773135" lon="12.82380354517201"><ele>375.6666666666667</ele><time>2026-04-26T10:38:18Z</time></trkpt><trkpt lat="43.46192903061866" lon="12.824054335896165"><ele>374.3333333333333</ele><time>2026-04-26T10:38:19Z</time></trkpt><trkpt lat="43.46197893456043" lon="12.824305424094838"><ele>373.0</ele><time>2026-04-26T10:38:20Z</time></trkpt><trkpt lat="43.46203114231235" lon="12.824559638667422"><ele>371.0</ele><time>2026-04-26T10:38:21Z</time></trkpt><trkpt lat="43.46208344735959" lon="12.824808928422373"><ele>369.0</ele><time>2026-04-26T10:38:22Z</time></trkpt><trkpt lat="43.46213946896098" lon="12.825055925311215"><ele>367.0</ele><time>2026-04-26T10:38:23Z</time></trkpt><trkpt lat="43.46216218475868" lon="12.82531022644444"><ele>375.3333333333333</ele><time>2026-04-26T10:38:24Z</time></trkpt><trkpt lat="43.462170514726836" lon="12.825572726058914"><ele>383.66666666666663</ele><time>2026-04-26T10:38:25Z</time></trkpt><trkpt lat="43.46215834894797" lon="12.82583737583059"><ele>392.0</ele><time>2026-04-26T10:38:26Z</time></trkpt><trkpt lat="43.462132849126604" lon="12.826095606468398"><ele>385.0</ele><time>2026-04-26T10:38:27Z</time></trkpt><trkpt lat="43.462099912262" lon="12.826350472505425"><ele>378.0</ele><time>2026-04-26T10:38:28Z</time></trkpt><trkpt lat="43.46206205842799" lon="12.826599507562035"><ele>371.0</ele><time>2026-04-26T10:38:29Z</time></trkpt><trkpt lat="43.46201355113303" lon="12.826836066552543"><ele>371.0</ele><time>2026-04-26T10:38:30Z</time></trkpt><trkpt lat="43.46194757556047" lon="12.827061296471795"><ele>371.0</ele><time>2026-04-26T10:38:31Z</time></trkpt><trkpt lat="43.461867755730665" lon="12.827287338123133"><ele>371.0</ele><time>2026-04-26T10:38:32Z</time></trkpt><trkpt lat="43.461770947346814" lon="12.827509276671485"><ele>373.33333333333337</ele><time>2026-04-26T10:38:33Z</time></trkpt><trkpt lat="43.46166693917295" lon="12.827715193534779"><ele>375.6666666666667</ele><time>2026-04-26T10:38:34Z</time></trkpt><trkpt lat="43.46155045271479" lon="12.827906601953186"><ele>378.0</ele><time>2026-04-26T10:38:35Z</time></trkpt><trkpt lat="43.461426294028364" lon="12.828083033581855"><ele>378.0</ele><time>2026-04-26T10:38:36Z</time></trkpt><trkpt lat="43.46129703727148" lon="12.828251958899205"><ele>378.0</ele><time>2026-04-26T10:38:37Z</time></trkpt><trkpt lat="43.461158931263064" lon="12.828408141170256"><ele>378.0</ele><time>2026-04-26T10:38:38Z</time></trkpt><trkpt lat="43.46102120851959" lon="12.828565069977115"><ele>374.6666666666667</ele><time>2026-04-26T10:38:39Z</time></trkpt><trkpt lat="43.46088261455811" lon="12.828720866889567"><ele>371.33333333333337</ele><time>2026-04-26T10:38:40Z</time></trkpt><trkpt lat="43.46074618006659" lon="12.828873228189032"><ele>368.0</ele><time>2026-04-26T10:38:41Z</time></trkpt><trkpt lat="43.460609642820714" lon="12.829024650797075"><ele>368.0</ele><time>2026-04-26T10:38:42Z</time></trkpt><trkpt lat="43.460477325689105" lon="12.829178143054904"><ele>368.0</ele><time>2026-04-26T10:38:43Z</time></trkpt><trkpt lat="43.46035186059819" lon="12.829335641954316"><ele>368.0</ele><time>2026-04-26T10:38:44Z</time></trkpt><trkpt lat="43.46023773751741" lon="12.829503299131979"><ele>367.0</ele><time>2026-04-26T10:38:45Z</time></trkpt><trkpt lat="43.46013920098713" lon="12.829691830008194"><ele>366.0</ele><time>2026-04-26T10:38:46Z</time></trkpt><trkpt lat="43.46004961431957" lon="12.82989705814967"><ele>365.0</ele><time>2026-04-26T10:38:47Z</time></trkpt><trkpt lat="43.45997934144472" lon="12.830116782664685"><ele>365.0</ele><time>2026-04-26T10:38:48Z</time></trkpt><trkpt lat="43.45992827250325" lon="12.830348869720472"><ele>365.0</ele><time>2026-04-26T10:38:49Z</time></trkpt><trkpt lat="43.459894058526395" lon="12.830586840475029"><ele>365.0</ele><time>2026-04-26T10:38:50Z</time></trkpt><trkpt lat="43.45988436915218" lon="12.830842000460079"><ele>366.0</ele><time>2026-04-26T10:38:51Z</time></trkpt><trkpt lat="43.45988804062646" lon="12.831098277309247"><ele>367.0</ele><time>2026-04-26T10:38:52Z</time></trkpt><trkpt lat="43.4599127671422" lon="12.831370031536938"><ele>368.0</ele><time>2026-04-26T10:38:53Z</time></trkpt><trkpt lat="43.45994312048007" lon="12.831669474832609"><ele>368.5</ele><time>2026-04-26T10:38:54Z</time></trkpt><trkpt lat="43.459992811794066" lon="12.831988133905737"><ele>369.0</ele><time>2026-04-26T10:38:55Z</time></trkpt><trkpt lat="43.4600467447952" lon="12.83232667132543"><ele>369.0</ele><time>2026-04-26T10:38:56Z</time></trkpt><trkpt lat="43.460103159448224" lon="12.8326798811985"><ele>369.0</ele><time>2026-04-26T10:38:57Z</time></trkpt><trkpt lat="43.46017297661423" lon="12.833024765103652"><ele>369.0</ele><time>2026-04-26T10:38:58Z</time></trkpt><trkpt lat="43.460219036217836" lon="12.83338012649314"><ele>369.0</ele><time>2026-04-26T10:38:59Z</time></trkpt><trkpt lat="43.46027518161189" lon="12.833739813660678"><ele>369.5</ele><time>2026-04-26T10:39:00Z</time></trkpt><trkpt lat="43.46032832287934" lon="12.834093617392641"><ele>370.0</ele><time>2026-04-26T10:39:01Z</time></trkpt><trkpt lat="43.460384524677195" lon="12.834444314778096"><ele>370.5</ele><time>2026-04-26T10:39:02Z</time></trkpt><trkpt lat="43.460440105900375" lon="12.83479737386803"><ele>371.0</ele><time>2026-04-26T10:39:03Z</time></trkpt><trkpt lat="43.46049549987782" lon="12.83514558699688"><ele>364.0</ele><time>2026-04-26T10:39:04Z</time></trkpt><trkpt lat="43.460547472085544" lon="12.835470189017515"><ele>357.0</ele><time>2026-04-26T10:39:05Z</time></trkpt><trkpt lat="43.46059302956675" lon="12.835781120008702"><ele>355.6666666666667</ele><time>2026-04-26T10:39:06Z</time></trkpt><trkpt lat="43.46062746360317" lon="12.836069966103858"><ele>354.33333333333337</ele><time>2026-04-26T10:39:07Z</time></trkpt><trkpt lat="43.46063674601659" lon="12.836347181194"><ele>353.0</ele><time>2026-04-26T10:39:08Z</time></trkpt><trkpt lat="43.460609131669585" lon="12.83663339285831"><ele>351.6666666666667</ele><time>2026-04-26T10:39:09Z</time></trkpt><trkpt lat="43.46052860452664" lon="12.8369119522785"><ele>350.3333333333333</ele><time>2026-04-26T10:39:10Z</time></trkpt><trkpt lat="43.46041094713897" lon="12.837170670955798"><ele>349.0</ele><time>2026-04-26T10:39:11Z</time></trkpt><trkpt lat="43.460272862710816" lon="12.837426582797807"><ele>349.5</ele><time>2026-04-26T10:39:12Z</time></trkpt><trkpt lat="43.46013760578455" lon="12.837683629558367"><ele>350.0</ele><time>2026-04-26T10:39:13Z</time></trkpt><trkpt lat="43.460002939819894" lon="12.837949272776305"><ele>350.0</ele><time>2026-04-26T10:39:14Z</time></trkpt><trkpt lat="43.45987083031388" lon="12.838223087941303"><ele>350.0</ele><time>2026-04-26T10:39:15Z</time></trkpt><trkpt lat="43.459736031686965" lon="12.838499011157255"><ele>350.0</ele><time>2026-04-26T10:39:16Z</time></trkpt><trkpt lat="43.45959844777572" lon="12.838772467939974"><ele>350.0</ele><time>2026-04-26T10:39:17Z</time></trkpt><trkpt lat="43.45946016119027" lon="12.839046630167333"><ele>349.0</ele><time>2026-04-26T10:39:18Z</time></trkpt><trkpt lat="43.45932117107285" lon="12.83932325576001"><ele>348.0</ele><time>2026-04-26T10:39:19Z</time></trkpt><trkpt lat="43.4591811652701" lon="12.839600474640827"><ele>348.0</ele><time>2026-04-26T10:39:20Z</time></trkpt><trkpt lat="43.45904520437604" lon="12.839881391733837"><ele>348.0</ele><time>2026-04-26T10:39:21Z</time></trkpt><trkpt lat="43.45890809605784" lon="12.840162018415421"><ele>348.5</ele><time>2026-04-26T10:39:22Z</time></trkpt><trkpt lat="43.458770389928745" lon="12.840441297635806"><ele>349.0</ele><time>2026-04-26T10:39:23Z</time></trkpt><trkpt lat="43.45862995704992" lon="12.840719188423128"><ele>347.0</ele><time>2026-04-26T10:39:24Z</time></trkpt><trkpt lat="43.45849110304991" lon="12.840996927989936"><ele>345.0</ele><time>2026-04-26T10:39:25Z</time></trkpt><trkpt lat="43.45835129054892" lon="12.841271901355903"><ele>345.0</ele><time>2026-04-26T10:39:26Z</time></trkpt><trkpt lat="43.45821173305312" lon="12.84154498486447"><ele>345.0</ele><time>2026-04-26T10:39:27Z</time></trkpt><trkpt lat="43.45807122667569" lon="12.841819212328714"><ele>344.0</ele><time>2026-04-26T10:39:28Z</time></trkpt><trkpt lat="43.457930894751414" lon="12.842095279490948"><ele>343.0</ele><time>2026-04-26T10:39:29Z</time></trkpt><trkpt lat="43.45779260350811" lon="12.842373673592352"><ele>342.0</ele><time>2026-04-26T10:39:30Z</time></trkpt><trkpt lat="43.45765382328645" lon="12.842653351237633"><ele>341.0</ele><time>2026-04-26T10:39:31Z</time></trkpt><trkpt lat="43.457514545641125" lon="12.842932650497977"><ele>341.0</ele><time>2026-04-26T10:39:32Z</time></trkpt><trkpt lat="43.45737631751324" lon="12.843211897676722"><ele>341.0</ele><time>2026-04-26T10:39:33Z</time></trkpt><trkpt lat="43.45723967169425" lon="12.843483339527875"><ele>340.6666666666667</ele><time>2026-04-26T10:39:34Z</time></trkpt><trkpt lat="43.45711093626422" lon="12.843735429846575"><ele>340.3333333333333</ele><time>2026-04-26T10:39:35Z</time></trkpt><trkpt lat="43.45699217230497" lon="12.843978962082486"><ele>340.0</ele><time>2026-04-26T10:39:36Z</time></trkpt><trkpt lat="43.45687303935256" lon="12.844217270552932"><ele>339.3333333333333</ele><time>2026-04-26T10:39:37Z</time></trkpt><trkpt lat="43.45675925349709" lon="12.844443099669371"><ele>338.6666666666667</ele><time>2026-04-26T10:39:38Z</time></trkpt><trkpt lat="43.45665456703861" lon="12.844647415573908"><ele>338.0</ele><time>2026-04-26T10:39:39Z</time></trkpt><trkpt lat="43.45654082890483" lon="12.844822557523173"><ele>338.0</ele><time>2026-04-26T10:39:40Z</time></trkpt><trkpt lat="43.45640234488306" lon="12.844957272114062"><ele>338.0</ele><time>2026-04-26T10:39:41Z</time></trkpt><trkpt lat="43.45623730456111" lon="12.845075005913413"><ele>338.0</ele><time>2026-04-26T10:39:42Z</time></trkpt><trkpt lat="43.45606124011789" lon="12.84519123538994"><ele>337.6666666666667</ele><time>2026-04-26T10:39:43Z</time></trkpt><trkpt lat="43.45588005339379" lon="12.8453189009552"><ele>337.3333333333333</ele><time>2026-04-26T10:39:44Z</time></trkpt><trkpt lat="43.455689877711066" lon="12.84545399062866"><ele>337.0</ele><time>2026-04-26T10:39:45Z</time></trkpt><trkpt lat="43.45550343401576" lon="12.845586059306942"><ele>336.3333333333333</ele><time>2026-04-26T10:39:46Z</time></trkpt><trkpt lat="43.45530944779506" lon="12.84572328411519"><ele>335.6666666666667</ele><time>2026-04-26T10:39:47Z</time></trkpt><trkpt lat="43.455113358161576" lon="12.845856345187471"><ele>335.0</ele><time>2026-04-26T10:39:48Z</time></trkpt><trkpt lat="43.45491815315917" lon="12.845989810077844"><ele>335.0</ele><time>2026-04-26T10:39:49Z</time></trkpt><trkpt lat="43.45472355371519" lon="12.84612249785232"><ele>335.0</ele><time>2026-04-26T10:39:50Z</time></trkpt><trkpt lat="43.45452707463345" lon="12.846255328546961"><ele>335.0</ele><time>2026-04-26T10:39:51Z</time></trkpt><trkpt lat="43.4543307332269" lon="12.846387528784518"><ele>335.0</ele><time>2026-04-26T10:39:52Z</time></trkpt><trkpt lat="43.45413298816343" lon="12.8465128751313"><ele>335.0</ele><time>2026-04-26T10:39:53Z</time></trkpt><trkpt lat="43.45393119855326" lon="12.846630703271968"><ele>335.0</ele><time>2026-04-26T10:39:54Z</time></trkpt><trkpt lat="43.453722795267524" lon="12.846735854611875"><ele>333.0</ele><time>2026-04-26T10:39:55Z</time></trkpt><trkpt lat="43.4535104819803" lon="12.846830879960432"><ele>331.0</ele><time>2026-04-26T10:39:56Z</time></trkpt><trkpt lat="43.453297788463345" lon="12.846918999753132"><ele>329.0</ele><time>2026-04-26T10:39:57Z</time></trkpt><trkpt lat="43.453084076421625" lon="12.846997478473444"><ele>330.0</ele><time>2026-04-26T10:39:58Z</time></trkpt><trkpt lat="43.45287032796068" lon="12.847079213662637"><ele>331.0</ele><time>2026-04-26T10:39:59Z</time></trkpt><trkpt lat="43.45265527898908" lon="12.847150269839513"><ele>332.0</ele><time>2026-04-26T10:40:00Z</time></trkpt><trkpt lat="43.45243617962727" lon="12.847219879365962"><ele>332.0</ele><time>2026-04-26T10:40:01Z</time></trkpt><trkpt lat="43.45222267888192" lon="12.847282866328047"><ele>332.0</ele><time>2026-04-26T10:40:02Z</time></trkpt><trkpt lat="43.45200453719323" lon="12.847325985977688"><ele>332.0</ele><time>2026-04-26T10:40:03Z</time></trkpt><trkpt lat="43.45178118535945" lon="12.847357547906913"><ele>332.0</ele><time>2026-04-26T10:40:04Z</time></trkpt><trkpt lat="43.45155606566801" lon="12.84738509343429"><ele>332.0</ele><time>2026-04-26T10:40:05Z</time></trkpt><trkpt lat="43.45133384319731" lon="12.847410379166108"><ele>332.0</ele><time>2026-04-26T10:40:06Z</time></trkpt><trkpt lat="43.45111032553609" lon="12.847436525212656"><ele>332.0</ele><time>2026-04-26T10:40:07Z</time></trkpt><trkpt lat="43.450886544715715" lon="12.847460900532875"><ele>332.0</ele><time>2026-04-26T10:40:08Z</time></trkpt><trkpt lat="43.450662387275344" lon="12.847487998120995"><ele>332.0</ele><time>2026-04-26T10:40:09Z</time></trkpt><trkpt lat="43.4504379154334" lon="12.84751605711723"><ele>331.0</ele><time>2026-04-26T10:40:10Z</time></trkpt><trkpt lat="43.45021521999293" lon="12.847546007588111"><ele>330.0</ele><time>2026-04-26T10:40:11Z</time></trkpt><trkpt lat="43.44999296688979" lon="12.847577933678066"><ele>329.0</ele><time>2026-04-26T10:40:12Z</time></trkpt><trkpt lat="43.44977581398005" lon="12.84760969916858"><ele>328.0</ele><time>2026-04-26T10:40:13Z</time></trkpt><trkpt lat="43.44956577956965" lon="12.84763858566549"><ele>327.0</ele><time>2026-04-26T10:40:14Z</time></trkpt><trkpt lat="43.449354439576034" lon="12.847669742082967"><ele>326.0</ele><time>2026-04-26T10:40:15Z</time></trkpt><trkpt lat="43.44914097059643" lon="12.847699994670268"><ele>326.0</ele><time>2026-04-26T10:40:16Z</time></trkpt><trkpt lat="43.448931911533386" lon="12.847726299497749"><ele>326.0</ele><time>2026-04-26T10:40:17Z</time></trkpt><trkpt lat="43.448729452517846" lon="12.847754208762092"><ele>326.0</ele><time>2026-04-26T10:40:18Z</time></trkpt><trkpt lat="43.448544304610984" lon="12.84777883790841"><ele>326.0</ele><time>2026-04-26T10:40:19Z</time></trkpt><trkpt lat="43.4483635299044" lon="12.847799906575771"><ele>326.0</ele><time>2026-04-26T10:40:20Z</time></trkpt><trkpt lat="43.44818971106257" lon="12.847822428642575"><ele>326.0</ele><time>2026-04-26T10:40:21Z</time></trkpt><trkpt lat="43.44801661201795" lon="12.847838030720787"><ele>325.33333333333337</ele><time>2026-04-26T10:40:22Z</time></trkpt><trkpt lat="43.447836090441555" lon="12.84786262018494"><ele>324.6666666666667</ele><time>2026-04-26T10:40:23Z</time></trkpt><trkpt lat="43.44765891869924" lon="12.847883043939069"><ele>324.0</ele><time>2026-04-26T10:40:24Z</time></trkpt><trkpt lat="43.447480993361715" lon="12.847903750311392"><ele>324.0</ele><time>2026-04-26T10:40:25Z</time></trkpt><trkpt lat="43.44730478533963" lon="12.84791220817635"><ele>324.0</ele><time>2026-04-26T10:40:26Z</time></trkpt><trkpt lat="43.44712560811776" lon="12.847913736836665"><ele>324.0</ele><time>2026-04-26T10:40:27Z</time></trkpt><trkpt lat="43.44694509457765" lon="12.847870845936002"><ele>323.3333333333333</ele><time>2026-04-26T10:40:28Z</time></trkpt><trkpt lat="43.44676837866556" lon="12.847796780423995"><ele>322.66666666666663</ele><time>2026-04-26T10:40:29Z</time></trkpt><trkpt lat="43.44660433415121" lon="12.847686932799789"><ele>322.0</ele><time>2026-04-26T10:40:30Z</time></trkpt><trkpt lat="43.44644459818083" lon="12.847555604839236"><ele>319.3333333333333</ele><time>2026-04-26T10:40:31Z</time></trkpt><trkpt lat="43.4462899603393" lon="12.847421682951756"><ele>316.6666666666667</ele><time>2026-04-26T10:40:32Z</time></trkpt><trkpt lat="43.44613260031057" lon="12.847316379479723"><ele>314.0</ele><time>2026-04-26T10:40:33Z</time></trkpt><trkpt lat="43.445951981985935" lon="12.847252457789097"><ele>314.0</ele><time>2026-04-26T10:40:34Z</time></trkpt><trkpt lat="43.44576217878176" lon="12.8472398274805"><ele>314.0</ele><time>2026-04-26T10:40:35Z</time></trkpt><trkpt lat="43.44557720379665" lon="12.847256301982329"><ele>314.0</ele><time>2026-04-26T10:40:36Z</time></trkpt><trkpt lat="43.44539574079291" lon="12.847310090831002"><ele>313.33333333333337</ele><time>2026-04-26T10:40:37Z</time></trkpt><trkpt lat="43.44522635021183" lon="12.847412091218521"><ele>312.6666666666667</ele><time>2026-04-26T10:40:38Z</time></trkpt><trkpt lat="43.44506638710957" lon="12.84754301533602"><ele>312.0</ele><time>2026-04-26T10:40:39Z</time></trkpt><trkpt lat="43.44490591091486" lon="12.847693693458403"><ele>312.0</ele><time>2026-04-26T10:40:40Z</time></trkpt><trkpt lat="43.44474805594206" lon="12.84784502072833"><ele>312.0</ele><time>2026-04-26T10:40:41Z</time></trkpt><trkpt lat="43.44458905871437" lon="12.84800180121995"><ele>312.0</ele><time>2026-04-26T10:40:42Z</time></trkpt><trkpt lat="43.444422690460755" lon="12.848152330780184"><ele>313.3333333333333</ele><time>2026-04-26T10:40:43Z</time></trkpt><trkpt lat="43.44425785720315" lon="12.848304906029236"><ele>314.66666666666663</ele><time>2026-04-26T10:40:44Z</time></trkpt><trkpt lat="43.44409303239191" lon="12.848455030871884"><ele>316.0</ele><time>2026-04-26T10:40:45Z</time></trkpt><trkpt lat="43.44392505818349" lon="12.848601213393035"><ele>315.0</ele><time>2026-04-26T10:40:46Z</time></trkpt><trkpt lat="43.44375508380643" lon="12.848742378185525"><ele>314.0</ele><time>2026-04-26T10:40:47Z</time></trkpt><trkpt lat="43.443582939305735" lon="12.848877195712518"><ele>313.0</ele><time>2026-04-26T10:40:48Z</time></trkpt><trkpt lat="43.44340750915075" lon="12.849004089922067"><ele>313.0</ele><time>2026-04-26T10:40:49Z</time></trkpt><trkpt lat="43.44322496438535" lon="12.849113580537148"><ele>313.0</ele><time>2026-04-26T10:40:50Z</time></trkpt><trkpt lat="43.44303951603272" lon="12.849203969614425"><ele>313.0</ele><time>2026-04-26T10:40:51Z</time></trkpt><trkpt lat="43.442849454450005" lon="12.849267635664907"><ele>313.0</ele><time>2026-04-26T10:40:52Z</time></trkpt><trkpt lat="43.442664285618726" lon="12.849320176787192"><ele>313.0</ele><time>2026-04-26T10:40:53Z</time></trkpt><trkpt lat="43.44249131710041" lon="12.849372423629015"><ele>313.0</ele><time>2026-04-26T10:40:54Z</time></trkpt><trkpt lat="43.4423257217911" lon="12.849424724517768"><ele>313.0</ele><time>2026-04-26T10:40:55Z</time></trkpt><trkpt lat="43.44216860966123" lon="12.849472344959423"><ele>313.0</ele><time>2026-04-26T10:40:56Z</time></trkpt><trkpt lat="43.44201712748315" lon="12.849519688375691"><ele>313.0</ele><time>2026-04-26T10:40:57Z</time></trkpt><trkpt lat="43.44186250850684" lon="12.849568150492864"><ele>313.3333333333333</ele><time>2026-04-26T10:40:58Z</time></trkpt><trkpt lat="43.4417046407269" lon="12.84961991355208"><ele>313.6666666666667</ele><time>2026-04-26T10:40:59Z</time></trkpt><trkpt lat="43.44154297003124" lon="12.849673087730617"><ele>314.0</ele><time>2026-04-26T10:41:00Z</time></trkpt><trkpt lat="43.44138058289741" lon="12.849720681760795"><ele>313.6666666666667</ele><time>2026-04-26T10:41:01Z</time></trkpt><trkpt lat="43.441216023420786" lon="12.849775403484406"><ele>313.3333333333333</ele><time>2026-04-26T10:41:02Z</time></trkpt><trkpt lat="43.4410493227122" lon="12.849828183492454"><ele>313.0</ele><time>2026-04-26T10:41:03Z</time></trkpt><trkpt lat="43.440880525830956" lon="12.849883923686304"><ele>313.0</ele><time>2026-04-26T10:41:04Z</time></trkpt><trkpt lat="43.440711931475896" lon="12.849937519479678"><ele>313.0</ele><time>2026-04-26T10:41:05Z</time></trkpt><trkpt lat="43.44053850176792" lon="12.849993597140847"><ele>313.0</ele><time>2026-04-26T10:41:06Z</time></trkpt><trkpt lat="43.44036626217301" lon="12.850048213232666"><ele>312.66666666666663</ele><time>2026-04-26T10:41:07Z</time></trkpt><trkpt lat="43.44019383904201" lon="12.85010227865594"><ele>312.3333333333333</ele><time>2026-04-26T10:41:08Z</time></trkpt><trkpt lat="43.440019976332216" lon="12.850160404402601"><ele>312.0</ele><time>2026-04-26T10:41:09Z</time></trkpt><trkpt lat="43.439845022151864" lon="12.850210675599557"><ele>310.3333333333333</ele><time>2026-04-26T10:41:10Z</time></trkpt><trkpt lat="43.43966561221142" lon="12.850264616066521"><ele>308.66666666666663</ele><time>2026-04-26T10:41:11Z</time></trkpt><trkpt lat="43.43948682273867" lon="12.850321211074977"><ele>307.0</ele><time>2026-04-26T10:41:12Z</time></trkpt><trkpt lat="43.43930790321321" lon="12.850374127879846"><ele>307.0</ele><time>2026-04-26T10:41:13Z</time></trkpt><trkpt lat="43.43913252983208" lon="12.85043188308542"><ele>307.0</ele><time>2026-04-26T10:41:14Z</time></trkpt><trkpt lat="43.43895411723807" lon="12.850466555517597"><ele>307.0</ele><time>2026-04-26T10:41:15Z</time></trkpt><trkpt lat="43.4387823328207" lon="12.850541401785243"><ele>306.66666666666663</ele><time>2026-04-26T10:41:16Z</time></trkpt><trkpt lat="43.43861370428187" lon="12.85056975598395"><ele>306.3333333333333</ele><time>2026-04-26T10:41:17Z</time></trkpt><trkpt lat="43.43845884267367" lon="12.85064620819371"><ele>306.0</ele><time>2026-04-26T10:41:18Z</time></trkpt><trkpt lat="43.43830549148519" lon="12.85071541031019"><ele>306.0</ele><time>2026-04-26T10:41:19Z</time></trkpt><trkpt lat="43.43815536902327" lon="12.850813211086065"><ele>306.0</ele><time>2026-04-26T10:41:20Z</time></trkpt><trkpt lat="43.43800499557392" lon="12.850930436589627"><ele>306.0</ele><time>2026-04-26T10:41:21Z</time></trkpt><trkpt lat="43.43785505576924" lon="12.851057458681481"><ele>305.0</ele><time>2026-04-26T10:41:22Z</time></trkpt><trkpt lat="43.43771306947571" lon="12.851179747840414"><ele>304.0</ele><time>2026-04-26T10:41:23Z</time></trkpt><trkpt lat="43.43758357119771" lon="12.851292200942515"><ele>303.0</ele><time>2026-04-26T10:41:24Z</time></trkpt><trkpt lat="43.43746148888172" lon="12.851397491583242"><ele>303.0</ele><time>2026-04-26T10:41:25Z</time></trkpt><trkpt lat="43.437336318957364" lon="12.851475819097931"><ele>303.0</ele><time>2026-04-26T10:41:26Z</time></trkpt><trkpt lat="43.437192838407746" lon="12.85153905807266"><ele>303.0</ele><time>2026-04-26T10:41:27Z</time></trkpt><trkpt lat="43.43703705739819" lon="12.851595494184497"><ele>303.0</ele><time>2026-04-26T10:41:28Z</time></trkpt><trkpt lat="43.436880023900486" lon="12.85166007539517"><ele>302.6666666666667</ele><time>2026-04-26T10:41:29Z</time></trkpt><trkpt lat="43.43671773661253" lon="12.851731084782152"><ele>302.33333333333337</ele><time>2026-04-26T10:41:30Z</time></trkpt><trkpt lat="43.43656407792644" lon="12.85180973955617"><ele>302.0</ele><time>2026-04-26T10:41:31Z</time></trkpt><trkpt lat="43.43641498641359" lon="12.851891362016161"><ele>300.75</ele><time>2026-04-26T10:41:32Z</time></trkpt><trkpt lat="43.43627953934843" lon="12.851970979761607"><ele>299.5</ele><time>2026-04-26T10:41:33Z</time></trkpt><trkpt lat="43.43614766794594" lon="12.852046077088588"><ele>298.25</ele><time>2026-04-26T10:41:34Z</time></trkpt><trkpt lat="43.436006286956115" lon="12.852113158433337"><ele>297.0</ele><time>2026-04-26T10:41:35Z</time></trkpt><trkpt lat="43.43586097568315" lon="12.85216967539088"><ele>297.0</ele><time>2026-04-26T10:41:36Z</time></trkpt><trkpt lat="43.43571426567741" lon="12.852228671546607"><ele>297.0</ele><time>2026-04-26T10:41:37Z</time></trkpt><trkpt lat="43.43557169247928" lon="12.852291335136668"><ele>297.0</ele><time>2026-04-26T10:41:38Z</time></trkpt><trkpt lat="43.435442895478914" lon="12.85234723117641"><ele>297.0</ele><time>2026-04-26T10:41:39Z</time></trkpt><trkpt lat="43.43532792685275" lon="12.852393477012715"><ele>297.4</ele><time>2026-04-26T10:41:40Z</time></trkpt><trkpt lat="43.435212910089305" lon="12.852441304765266"><ele>297.79999999999995</ele><time>2026-04-26T10:41:41Z</time></trkpt><trkpt lat="43.435105500015275" lon="12.85249296223334"><ele>298.2</ele><time>2026-04-26T10:41:42Z</time></trkpt><trkpt lat="43.43501189012871" lon="12.852518280998686"><ele>298.59999999999997</ele><time>2026-04-26T10:41:43Z</time></trkpt><trkpt lat="43.43491849709894" lon="12.852501162293755"><ele>299.0</ele><time>2026-04-26T10:41:44Z</time></trkpt><trkpt lat="43.434830810369114" lon="12.852446255897643"><ele>299.0</ele><time>2026-04-26T10:41:45Z</time></trkpt><trkpt lat="43.43473760920633" lon="12.852400262858746"><ele>299.0</ele><time>2026-04-26T10:41:46Z</time></trkpt><trkpt lat="43.434634371411335" lon="12.852369631347537"><ele>299.0</ele><time>2026-04-26T10:41:47Z</time></trkpt><trkpt lat="43.43450563232758" lon="12.852373496709323"><ele>299.0</ele><time>2026-04-26T10:41:48Z</time></trkpt><trkpt lat="43.434359139659016" lon="12.852394893987627"><ele>299.5</ele><time>2026-04-26T10:41:49Z</time></trkpt><trkpt lat="43.43420986371058" lon="12.852429587026862"><ele>300.0</ele><time>2026-04-26T10:41:50Z</time></trkpt><trkpt lat="43.43405800844843" lon="12.85245928972847"><ele>300.5</ele><time>2026-04-26T10:41:51Z</time></trkpt><trkpt lat="43.43392200145077" lon="12.85249341901892"><ele>301.0</ele><time>2026-04-26T10:41:52Z</time></trkpt><trkpt lat="43.433789705840184" lon="12.852538040436508"><ele>300.25</ele><time>2026-04-26T10:41:53Z</time></trkpt><trkpt lat="43.43365771832423" lon="12.852605053114972"><ele>299.5</ele><time>2026-04-26T10:41:54Z</time></trkpt><trkpt lat="43.433537313515565" lon="12.852716098538759"><ele>298.75</ele><time>2026-04-26T10:41:55Z</time></trkpt><trkpt lat="43.433414527353875" lon="12.852840304350618"><ele>298.0</ele><time>2026-04-26T10:41:56Z</time></trkpt><trkpt lat="43.43328928966229" lon="12.85295188159954"><ele>298.0</ele><time>2026-04-26T10:41:57Z</time></trkpt><trkpt lat="43.43316816920055" lon="12.853070044138889"><ele>298.0</ele><time>2026-04-26T10:41:58Z</time></trkpt><trkpt lat="43.43304530076064" lon="12.853191525604037"><ele>298.0</ele><time>2026-04-26T10:41:59Z</time></trkpt><trkpt lat="43.43291275301828" lon="12.853299364589894"><ele>297.5</ele><time>2026-04-26T10:42:00Z</time></trkpt><trkpt lat="43.43278662599135" lon="12.853414708391881"><ele>297.0</ele><time>2026-04-26T10:42:01Z</time></trkpt><trkpt lat="43.43266764904273" lon="12.853532003414422"><ele>296.5</ele><time>2026-04-26T10:42:02Z</time></trkpt><trkpt lat="43.43254513643503" lon="12.853651428106904"><ele>296.0</ele><time>2026-04-26T10:42:03Z</time></trkpt><trkpt lat="43.43242924544218" lon="12.853759435810485"><ele>296.0</ele><time>2026-04-26T10:42:04Z</time></trkpt><trkpt lat="43.43232706045529" lon="12.853845800482024"><ele>296.0</ele><time>2026-04-26T10:42:05Z</time></trkpt><trkpt lat="43.43223909935669" lon="12.853931275220814"><ele>296.0</ele><time>2026-04-26T10:42:06Z</time></trkpt><trkpt lat="43.432159500330606" lon="12.854013745517229"><ele>296.0</ele><time>2026-04-26T10:42:07Z</time></trkpt><trkpt lat="43.43208292196202" lon="12.854076872206916"><ele>296.0</ele><time>2026-04-26T10:42:08Z</time></trkpt><trkpt lat="43.43201907509818" lon="12.854146260638164"><ele>296.0</ele><time>2026-04-26T10:42:09Z</time></trkpt><trkpt lat="43.43194256466555" lon="12.85424000202096"><ele>296.0</ele><time>2026-04-26T10:42:11Z</time></trkpt><trkpt lat="43.43188633801674" lon="12.854298849174793"><ele>296.0</ele><time>2026-04-26T10:42:13Z</time></trkpt><trkpt lat="43.43176374706813" lon="12.854399772759393"><ele>296.0</ele><time>2026-04-26T10:42:15Z</time></trkpt><trkpt lat="43.431678746838465" lon="12.854477547920837"><ele>296.0</ele><time>2026-04-26T10:42:16Z</time></trkpt><trkpt lat="43.43158784916814" lon="12.85456565452883"><ele>296.0</ele><time>2026-04-26T10:42:17Z</time></trkpt><trkpt lat="43.43148605839154" lon="12.854647108348685"><ele>296.0</ele><time>2026-04-26T10:42:18Z</time></trkpt><trkpt lat="43.43137177965491" lon="12.854713832408299"><ele>296.0</ele><time>2026-04-26T10:42:19Z</time></trkpt><trkpt lat="43.43125258525409" lon="12.85475544787983"><ele>296.0</ele><time>2026-04-26T10:42:20Z</time></trkpt><trkpt lat="43.43112620467096" lon="12.854760352149144"><ele>296.75</ele><time>2026-04-26T10:42:21Z</time></trkpt><trkpt lat="43.43099804246194" lon="12.854726014372448"><ele>297.5</ele><time>2026-04-26T10:42:22Z</time></trkpt><trkpt lat="43.4308628679555" lon="12.854682683956403"><ele>298.25</ele><time>2026-04-26T10:42:23Z</time></trkpt><trkpt lat="43.43072099642296" lon="12.854635049947156"><ele>299.0</ele><time>2026-04-26T10:42:24Z</time></trkpt><trkpt lat="43.43058214160586" lon="12.854593562297998"><ele>297.0</ele><time>2026-04-26T10:42:25Z</time></trkpt><trkpt lat="43.43043084378971" lon="12.85454417177882"><ele>295.0</ele><time>2026-04-26T10:42:26Z</time></trkpt><trkpt lat="43.4302690607287" lon="12.85449707017066"><ele>293.0</ele><time>2026-04-26T10:42:27Z</time></trkpt><trkpt lat="43.430104776961834" lon="12.854451142272211"><ele>293.0</ele><time>2026-04-26T10:42:28Z</time></trkpt><trkpt lat="43.429935684221164" lon="12.85440266559889"><ele>293.0</ele><time>2026-04-26T10:42:29Z</time></trkpt><trkpt lat="43.42977267614043" lon="12.854354265367997"><ele>293.0</ele><time>2026-04-26T10:42:30Z</time></trkpt><trkpt lat="43.429628974120995" lon="12.854310750386034"><ele>293.25</ele><time>2026-04-26T10:42:31Z</time></trkpt><trkpt lat="43.429503988743015" lon="12.854270612542885"><ele>293.5</ele><time>2026-04-26T10:42:32Z</time></trkpt><trkpt lat="43.42938493573054" lon="12.854236197069993"><ele>293.75</ele><time>2026-04-26T10:42:33Z</time></trkpt><trkpt lat="43.42926388403932" lon="12.85416188405825"><ele>294.0</ele><time>2026-04-26T10:42:34Z</time></trkpt><trkpt lat="43.42912940976422" lon="12.854112009578518"><ele>294.0</ele><time>2026-04-26T10:42:35Z</time></trkpt><trkpt lat="43.42899727078786" lon="12.854006859798249"><ele>294.0</ele><time>2026-04-26T10:42:36Z</time></trkpt><trkpt lat="43.428865948154616" lon="12.853879151545836"><ele>294.0</ele><time>2026-04-26T10:42:37Z</time></trkpt><trkpt lat="43.42873404319235" lon="12.853733899615248"><ele>294.0</ele><time>2026-04-26T10:42:38Z</time></trkpt><trkpt lat="43.42860941058433" lon="12.853590938529612"><ele>294.0</ele><time>2026-04-26T10:42:39Z</time></trkpt><trkpt lat="43.428482137259195" lon="12.853444442414103"><ele>294.0</ele><time>2026-04-26T10:42:40Z</time></trkpt><trkpt lat="43.42834957589548" lon="12.85330132579981"><ele>294.0</ele><time>2026-04-26T10:42:41Z</time></trkpt><trkpt lat="43.42821640153974" lon="12.853158348270803"><ele>294.0</ele><time>2026-04-26T10:42:42Z</time></trkpt><trkpt lat="43.42808437341519" lon="12.853025672041452"><ele>294.0</ele><time>2026-04-26T10:42:43Z</time></trkpt><trkpt lat="43.42794612256217" lon="12.852904721402581"><ele>293.6666666666667</ele><time>2026-04-26T10:42:44Z</time></trkpt><trkpt lat="43.42780970926576" lon="12.852796259701982"><ele>293.33333333333337</ele><time>2026-04-26T10:42:45Z</time></trkpt><trkpt lat="43.4276748758595" lon="12.852692625534349"><ele>293.0</ele><time>2026-04-26T10:42:46Z</time></trkpt><trkpt lat="43.42753811501195" lon="12.852584146514594"><ele>293.0</ele><time>2026-04-26T10:42:47Z</time></trkpt><trkpt lat="43.42739644079863" lon="12.852478118175648"><ele>293.0</ele><time>2026-04-26T10:42:48Z</time></trkpt><trkpt lat="43.42725262399754" lon="12.852371106598891"><ele>293.0</ele><time>2026-04-26T10:42:49Z</time></trkpt><trkpt lat="43.42710589379651" lon="12.852265435993763"><ele>291.6666666666667</ele><time>2026-04-26T10:42:50Z</time></trkpt><trkpt lat="43.42696023318301" lon="12.852160805378517"><ele>290.3333333333333</ele><time>2026-04-26T10:42:51Z</time></trkpt><trkpt lat="43.42681269444653" lon="12.852061189289572"><ele>289.0</ele><time>2026-04-26T10:42:52Z</time></trkpt><trkpt lat="43.42666637623673" lon="12.851981890579154"><ele>289.0</ele><time>2026-04-26T10:42:53Z</time></trkpt><trkpt lat="43.42651648209597" lon="12.851905905096956"><ele>289.0</ele><time>2026-04-26T10:42:54Z</time></trkpt><trkpt lat="43.4263697161554" lon="12.851843556952609"><ele>289.0</ele><time>2026-04-26T10:42:55Z</time></trkpt><trkpt lat="43.426229849279494" lon="12.851788564794012"><ele>289.5</ele><time>2026-04-26T10:42:56Z</time></trkpt><trkpt lat="43.426107862735975" lon="12.851732474334757"><ele>290.0</ele><time>2026-04-26T10:42:57Z</time></trkpt><trkpt lat="43.425992860936354" lon="12.851661534865912"><ele>290.5</ele><time>2026-04-26T10:42:58Z</time></trkpt><trkpt lat="43.425902357234854" lon="12.851553488613158"><ele>291.0</ele><time>2026-04-26T10:42:59Z</time></trkpt><trkpt lat="43.425836745998076" lon="12.851443707280183"><ele>291.0</ele><time>2026-04-26T10:43:00Z</time></trkpt><trkpt lat="43.42579842902867" lon="12.851307949386522"><ele>291.0</ele><time>2026-04-26T10:43:01Z</time></trkpt><trkpt lat="43.42577783969562" lon="12.851152113341238"><ele>291.0</ele><time>2026-04-26T10:43:02Z</time></trkpt><trkpt lat="43.425717881819246" lon="12.851000961792968"><ele>291.0</ele><time>2026-04-26T10:43:03Z</time></trkpt><trkpt lat="43.42561280364603" lon="12.850852270232103"><ele>290.6666666666667</ele><time>2026-04-26T10:43:04Z</time></trkpt><trkpt lat="43.42548885757556" lon="12.850699853693074"><ele>290.33333333333337</ele><time>2026-04-26T10:43:05Z</time></trkpt><trkpt lat="43.42537034145427" lon="12.850560560629896"><ele>290.0</ele><time>2026-04-26T10:43:06Z</time></trkpt><trkpt lat="43.42523844893374" lon="12.850422127909164"><ele>290.0</ele><time>2026-04-26T10:43:07Z</time></trkpt><trkpt lat="43.4251039608925" lon="12.850283429248739"><ele>290.0</ele><time>2026-04-26T10:43:08Z</time></trkpt><trkpt lat="43.42498339964346" lon="12.850122896013291"><ele>290.0</ele><time>2026-04-26T10:43:09Z</time></trkpt><trkpt lat="43.42487951213002" lon="12.84993422876406"><ele>290.33333333333337</ele><time>2026-04-26T10:43:10Z</time></trkpt><trkpt lat="43.424798311131596" lon="12.849726383336458"><ele>290.6666666666667</ele><time>2026-04-26T10:43:11Z</time></trkpt><trkpt lat="43.42473553172306" lon="12.849525631739844"><ele>291.0</ele><time>2026-04-26T10:43:12Z</time></trkpt><trkpt lat="43.424677101986" lon="12.84936117516285"><ele>290.8</ele><time>2026-04-26T10:43:13Z</time></trkpt><trkpt lat="43.42462403899459" lon="12.84923386755885"><ele>290.6</ele><time>2026-04-26T10:43:14Z</time></trkpt><trkpt lat="43.424557730617614" lon="12.84914484997718"><ele>290.4</ele><time>2026-04-26T10:43:15Z</time></trkpt><trkpt lat="43.42445840631754" lon="12.84909711217005"><ele>290.2</ele><time>2026-04-26T10:43:16Z</time></trkpt><trkpt lat="43.42432689235089" lon="12.849038175003098"><ele>290.0</ele><time>2026-04-26T10:43:17Z</time></trkpt><trkpt lat="43.424179969985" lon="12.848983627714663"><ele>290.0</ele><time>2026-04-26T10:43:18Z</time></trkpt><trkpt lat="43.42403226915511" lon="12.848931855955852"><ele>290.0</ele><time>2026-04-26T10:43:19Z</time></trkpt><trkpt lat="43.42388552605524" lon="12.848878347176752"><ele>290.0</ele><time>2026-04-26T10:43:20Z</time></trkpt><trkpt lat="43.42373892277434" lon="12.848817612623947"><ele>289.0</ele><time>2026-04-26T10:43:21Z</time></trkpt><trkpt lat="43.42359025937143" lon="12.848766805177583"><ele>288.0</ele><time>2026-04-26T10:43:22Z</time></trkpt><trkpt lat="43.4234558372337" lon="12.84867659624357"><ele>287.0</ele><time>2026-04-26T10:43:23Z</time></trkpt><trkpt lat="43.423341197717505" lon="12.848545580715342"><ele>287.0</ele><time>2026-04-26T10:43:24Z</time></trkpt><trkpt lat="43.42322306106959" lon="12.848428357328354"><ele>287.0</ele><time>2026-04-26T10:43:25Z</time></trkpt><trkpt lat="43.42309628374931" lon="12.848332770829176"><ele>287.0</ele><time>2026-04-26T10:43:26Z</time></trkpt><trkpt lat="43.42297664950035" lon="12.848218109584202"><ele>287.0</ele><time>2026-04-26T10:43:27Z</time></trkpt><trkpt lat="43.422831785401534" lon="12.848137010822201"><ele>286.6666666666667</ele><time>2026-04-26T10:43:28Z</time></trkpt><trkpt lat="43.42267565563965" lon="12.848115859027997"><ele>286.3333333333333</ele><time>2026-04-26T10:43:29Z</time></trkpt><trkpt lat="43.42253127954077" lon="12.848145909703977"><ele>286.0</ele><time>2026-04-26T10:43:30Z</time></trkpt><trkpt lat="43.42239542483748" lon="12.848232212780163"><ele>286.0</ele><time>2026-04-26T10:43:31Z</time></trkpt><trkpt lat="43.42227694560599" lon="12.848376035937548"><ele>286.0</ele><time>2026-04-26T10:43:32Z</time></trkpt><trkpt lat="43.42217183993515" lon="12.848553911431152"><ele>286.0</ele><time>2026-04-26T10:43:33Z</time></trkpt><trkpt lat="43.422058847239136" lon="12.848733606356836"><ele>287.3333333333333</ele><time>2026-04-26T10:43:34Z</time></trkpt><trkpt lat="43.421942717616524" lon="12.848905724540657"><ele>288.6666666666667</ele><time>2026-04-26T10:43:35Z</time></trkpt><trkpt lat="43.421819609249965" lon="12.849071314043735"><ele>290.0</ele><time>2026-04-26T10:43:36Z</time></trkpt><trkpt lat="43.42168246349016" lon="12.849223570367862"><ele>294.0</ele><time>2026-04-26T10:43:37Z</time></trkpt><trkpt lat="43.42153837491711" lon="12.849361831155507"><ele>298.0</ele><time>2026-04-26T10:43:38Z</time></trkpt><trkpt lat="43.421378650808826" lon="12.84948017396063"><ele>302.0</ele><time>2026-04-26T10:43:39Z</time></trkpt><trkpt lat="43.42121102887456" lon="12.849574880627923"><ele>302.0</ele><time>2026-04-26T10:43:40Z</time></trkpt><trkpt lat="43.42103016407521" lon="12.849637587192621"><ele>302.0</ele><time>2026-04-26T10:43:41Z</time></trkpt><trkpt lat="43.42084263452313" lon="12.849676444659325"><ele>302.0</ele><time>2026-04-26T10:43:42Z</time></trkpt><trkpt lat="43.42065645788363" lon="12.849723194028957"><ele>302.33333333333337</ele><time>2026-04-26T10:43:43Z</time></trkpt><trkpt lat="43.4204715920915" lon="12.849781828788466"><ele>302.6666666666667</ele><time>2026-04-26T10:43:44Z</time></trkpt><trkpt lat="43.42029282983385" lon="12.849836499790868"><ele>303.0</ele><time>2026-04-26T10:43:45Z</time></trkpt><trkpt lat="43.420129101593965" lon="12.849891736108129"><ele>303.0</ele><time>2026-04-26T10:43:46Z</time></trkpt><trkpt lat="43.41998295410365" lon="12.849940961794424"><ele>303.0</ele><time>2026-04-26T10:43:47Z</time></trkpt><trkpt lat="43.41984757078623" lon="12.849973260772607"><ele>303.0</ele><time>2026-04-26T10:43:48Z</time></trkpt><trkpt lat="43.419722810003634" lon="12.849984587314992"><ele>303.0</ele><time>2026-04-26T10:43:49Z</time></trkpt><trkpt lat="43.41961107614442" lon="12.849973362471154"><ele>304.8333333333333</ele><time>2026-04-26T10:43:50Z</time></trkpt><trkpt lat="43.419515000527426" lon="12.849983473289173"><ele>306.6666666666667</ele><time>2026-04-26T10:43:51Z</time></trkpt><trkpt lat="43.419437716383655" lon="12.849992543366627"><ele>308.5</ele><time>2026-04-26T10:43:52Z</time></trkpt><trkpt lat="43.41937184184568" lon="12.850000858063478"><ele>310.33333333333337</ele><time>2026-04-26T10:43:53Z</time></trkpt><trkpt lat="43.41930770683593" lon="12.85001353310453"><ele>312.1666666666667</ele><time>2026-04-26T10:43:54Z</time></trkpt><trkpt lat="43.41923988883762" lon="12.850036063955487"><ele>314.0</ele><time>2026-04-26T10:43:57Z</time></trkpt><trkpt lat="43.41920478733816" lon="12.850171712173816"><ele>314.25</ele><time>2026-04-26T10:44:01Z</time></trkpt><trkpt lat="43.41923526242475" lon="12.850271539503774"><ele>314.5</ele><time>2026-04-26T10:44:02Z</time></trkpt><trkpt lat="43.419299000385614" lon="12.85040210174568"><ele>314.75</ele><time>2026-04-26T10:44:03Z</time></trkpt><trkpt lat="43.41938180306185" lon="12.850610672356574"><ele>315.0</ele><time>2026-04-26T10:44:04Z</time></trkpt><trkpt lat="43.41945005489056" lon="12.850840655031709"><ele>314.0</ele><time>2026-04-26T10:44:05Z</time></trkpt><trkpt lat="43.41954057180033" lon="12.851055665880672"><ele>313.0</ele><time>2026-04-26T10:44:06Z</time></trkpt><trkpt lat="43.419617572938705" lon="12.851274569116507"><ele>312.0</ele><time>2026-04-26T10:44:07Z</time></trkpt><trkpt lat="43.41969198433322" lon="12.851467274723255"><ele>311.6</ele><time>2026-04-26T10:44:08Z</time></trkpt><trkpt lat="43.419763183958935" lon="12.851639291846308"><ele>311.2</ele><time>2026-04-26T10:44:09Z</time></trkpt><trkpt lat="43.41982609288454" lon="12.851776701273861"><ele>310.8</ele><time>2026-04-26T10:44:10Z</time></trkpt><trkpt lat="43.41987845241238" lon="12.851877880987386"><ele>310.4</ele><time>2026-04-26T10:44:11Z</time></trkpt><trkpt lat="43.419891140796224" lon="12.851991548034192"><ele>310.0</ele><time>2026-04-26T10:44:13Z</time></trkpt><trkpt lat="43.41978268763884" lon="12.851993293610333"><ele>310.4</ele><time>2026-04-26T10:44:15Z</time></trkpt><trkpt lat="43.41972137951546" lon="12.851922719981244"><ele>310.8</ele><time>2026-04-26T10:44:16Z</time></trkpt><trkpt lat="43.41963845111903" lon="12.851873792464787"><ele>311.2</ele><time>2026-04-26T10:44:17Z</time></trkpt><trkpt lat="43.41954018032537" lon="12.85183056174607"><ele>311.6</ele><time>2026-04-26T10:44:18Z</time></trkpt><trkpt lat="43.41944287863749" lon="12.851790044798898"><ele>312.0</ele><time>2026-04-26T10:44:19Z</time></trkpt><trkpt lat="43.41933385933315" lon="12.85174656012473"><ele>312.0</ele><time>2026-04-26T10:44:20Z</time></trkpt><trkpt lat="43.419209538571145" lon="12.851709640849235"><ele>312.0</ele><time>2026-04-26T10:44:21Z</time></trkpt><trkpt lat="43.419075738152586" lon="12.85168349786967"><ele>312.0</ele><time>2026-04-26T10:44:22Z</time></trkpt><trkpt lat="43.41894286860801" lon="12.851676297208437"><ele>312.0</ele><time>2026-04-26T10:44:23Z</time></trkpt><trkpt lat="43.418813153778345" lon="12.85167119325668"><ele>313.0</ele><time>2026-04-26T10:44:24Z</time></trkpt><trkpt lat="43.41866799496018" lon="12.85168416202568"><ele>314.0</ele><time>2026-04-26T10:44:25Z</time></trkpt><trkpt lat="43.41851331830504" lon="12.851698025925273"><ele>315.0</ele><time>2026-04-26T10:44:26Z</time></trkpt><trkpt lat="43.41835842574236" lon="12.851708489441178"><ele>315.0</ele><time>2026-04-26T10:44:27Z</time></trkpt><trkpt lat="43.41819907302399" lon="12.85171574549954"><ele>315.0</ele><time>2026-04-26T10:44:28Z</time></trkpt><trkpt lat="43.41803411065805" lon="12.851722372072146"><ele>315.0</ele><time>2026-04-26T10:44:29Z</time></trkpt><trkpt lat="43.4178703113966" lon="12.851727234814568"><ele>315.3333333333333</ele><time>2026-04-26T10:44:30Z</time></trkpt><trkpt lat="43.41770664921015" lon="12.851738998624526"><ele>315.66666666666663</ele><time>2026-04-26T10:44:31Z</time></trkpt><trkpt lat="43.417521930060005" lon="12.851750826788152"><ele>316.0</ele><time>2026-04-26T10:44:32Z</time></trkpt><trkpt lat="43.417326543923046" lon="12.851758164126304"><ele>316.3333333333333</ele><time>2026-04-26T10:44:33Z</time></trkpt><trkpt lat="43.41712757686612" lon="12.851766403329915"><ele>316.6666666666667</ele><time>2026-04-26T10:44:34Z</time></trkpt><trkpt lat="43.416922214392685" lon="12.851773766411599"><ele>317.0</ele><time>2026-04-26T10:44:35Z</time></trkpt><trkpt lat="43.4167117039427" lon="12.85177901552232"><ele>316.33333333333337</ele><time>2026-04-26T10:44:36Z</time></trkpt><trkpt lat="43.41649645026373" lon="12.851793910537255"><ele>315.6666666666667</ele><time>2026-04-26T10:44:37Z</time></trkpt><trkpt lat="43.416281921841765" lon="12.851803879768875"><ele>315.0</ele><time>2026-04-26T10:44:38Z</time></trkpt><trkpt lat="43.41606380173108" lon="12.851813807275665"><ele>315.0</ele><time>2026-04-26T10:44:39Z</time></trkpt><trkpt lat="43.415847148977335" lon="12.851822978970112"><ele>315.0</ele><time>2026-04-26T10:44:40Z</time></trkpt><trkpt lat="43.415634158406185" lon="12.851834741939252"><ele>315.0</ele><time>2026-04-26T10:44:41Z</time></trkpt><trkpt lat="43.41541835347833" lon="12.851842879521383"><ele>314.3333333333333</ele><time>2026-04-26T10:44:42Z</time></trkpt><trkpt lat="43.41520271606383" lon="12.8518490881823"><ele>313.66666666666663</ele><time>2026-04-26T10:44:43Z</time></trkpt><trkpt lat="43.414983919363806" lon="12.851858368119363"><ele>313.0</ele><time>2026-04-26T10:44:44Z</time></trkpt><trkpt lat="43.41476487944562" lon="12.851868145422994"><ele>313.66666666666663</ele><time>2026-04-26T10:44:45Z</time></trkpt><trkpt lat="43.414546215783666" lon="12.851879132061297"><ele>314.3333333333333</ele><time>2026-04-26T10:44:46Z</time></trkpt><trkpt lat="43.41432767261413" lon="12.851891478833611"><ele>315.0</ele><time>2026-04-26T10:44:47Z</time></trkpt><trkpt lat="43.414104435205026" lon="12.85190318534495"><ele>315.0</ele><time>2026-04-26T10:44:48Z</time></trkpt><trkpt lat="43.413879477611424" lon="12.851914009638191"><ele>315.0</ele><time>2026-04-26T10:44:49Z</time></trkpt><trkpt lat="43.413656323395294" lon="12.851924327836636"><ele>315.0</ele><time>2026-04-26T10:44:50Z</time></trkpt><trkpt lat="43.413432322288045" lon="12.851942241551512"><ele>315.6666666666667</ele><time>2026-04-26T10:44:51Z</time></trkpt><trkpt lat="43.41321436244813" lon="12.851949477440312"><ele>316.33333333333337</ele><time>2026-04-26T10:44:52Z</time></trkpt><trkpt lat="43.412998581778425" lon="12.851952916466658"><ele>317.0</ele><time>2026-04-26T10:44:53Z</time></trkpt><trkpt lat="43.41278235588009" lon="12.851955467450788"><ele>317.0</ele><time>2026-04-26T10:44:54Z</time></trkpt><trkpt lat="43.41256751737295" lon="12.851948671903058"><ele>317.0</ele><time>2026-04-26T10:44:55Z</time></trkpt><trkpt lat="43.41235390741925" lon="12.851930373722293"><ele>317.0</ele><time>2026-04-26T10:44:56Z</time></trkpt><trkpt lat="43.4121478794094" lon="12.851868725573748"><ele>316.33333333333337</ele><time>2026-04-26T10:44:57Z</time></trkpt><trkpt lat="43.41193724576238" lon="12.851792461262121"><ele>315.6666666666667</ele><time>2026-04-26T10:44:58Z</time></trkpt><trkpt lat="43.41172593463946" lon="12.851721533577024"><ele>315.0</ele><time>2026-04-26T10:44:59Z</time></trkpt><trkpt lat="43.41151292665873" lon="12.851651396162314"><ele>316.6666666666667</ele><time>2026-04-26T10:45:00Z</time></trkpt><trkpt lat="43.41129915048351" lon="12.851582348882495"><ele>318.33333333333337</ele><time>2026-04-26T10:45:01Z</time></trkpt><trkpt lat="43.411081990140964" lon="12.851514667200668"><ele>320.0</ele><time>2026-04-26T10:45:02Z</time></trkpt><trkpt lat="43.410860801606034" lon="12.85144241286677"><ele>320.0</ele><time>2026-04-26T10:45:03Z</time></trkpt><trkpt lat="43.41064067052497" lon="12.851369752828987"><ele>320.0</ele><time>2026-04-26T10:45:04Z</time></trkpt><trkpt lat="43.41041853963574" lon="12.851292798480108"><ele>320.0</ele><time>2026-04-26T10:45:05Z</time></trkpt><trkpt lat="43.41019333114298" lon="12.851219555861752"><ele>320.0</ele><time>2026-04-26T10:45:06Z</time></trkpt><trkpt lat="43.40996607695804" lon="12.851151351895771"><ele>320.0</ele><time>2026-04-26T10:45:07Z</time></trkpt><trkpt lat="43.4097399612528" lon="12.851080521145732"><ele>320.0</ele><time>2026-04-26T10:45:08Z</time></trkpt><trkpt lat="43.40951564809415" lon="12.851007113150997"><ele>323.5</ele><time>2026-04-26T10:45:09Z</time></trkpt><trkpt lat="43.409293654397736" lon="12.850933376679702"><ele>327.0</ele><time>2026-04-26T10:45:10Z</time></trkpt><trkpt lat="43.40907297255608" lon="12.85086169636336"><ele>327.0</ele><time>2026-04-26T10:45:11Z</time></trkpt><trkpt lat="43.40885424166233" lon="12.850792676331595"><ele>327.0</ele><time>2026-04-26T10:45:12Z</time></trkpt><trkpt lat="43.40863809988073" lon="12.850719689653628"><ele>327.0</ele><time>2026-04-26T10:45:13Z</time></trkpt><trkpt lat="43.40842345397544" lon="12.850646966532752"><ele>327.3333333333333</ele><time>2026-04-26T10:45:14Z</time></trkpt><trkpt lat="43.40821194792376" lon="12.850577323916298"><ele>327.66666666666663</ele><time>2026-04-26T10:45:15Z</time></trkpt><trkpt lat="43.408002723956216" lon="12.850508283563677"><ele>328.0</ele><time>2026-04-26T10:45:16Z</time></trkpt><trkpt lat="43.40778670219516" lon="12.850436984773959"><ele>328.0</ele><time>2026-04-26T10:45:17Z</time></trkpt><trkpt lat="43.407561116621466" lon="12.850364512289937"><ele>328.0</ele><time>2026-04-26T10:45:18Z</time></trkpt><trkpt lat="43.407334652655436" lon="12.850290176920312"><ele>327.0</ele><time>2026-04-26T10:45:19Z</time></trkpt><trkpt lat="43.40710543967664" lon="12.85021391513864"><ele>326.0</ele><time>2026-04-26T10:45:20Z</time></trkpt><trkpt lat="43.40687469153242" lon="12.850136122342471"><ele>328.5</ele><time>2026-04-26T10:45:21Z</time></trkpt><trkpt lat="43.40664331220692" lon="12.850059809757463"><ele>331.0</ele><time>2026-04-26T10:45:22Z</time></trkpt><trkpt lat="43.40640980872557" lon="12.849983689201427"><ele>330.0</ele><time>2026-04-26T10:45:23Z</time></trkpt><trkpt lat="43.406178932523794" lon="12.84990746622315"><ele>329.0</ele><time>2026-04-26T10:45:24Z</time></trkpt><trkpt lat="43.405948392112876" lon="12.849831486566865"><ele>329.0</ele><time>2026-04-26T10:45:25Z</time></trkpt><trkpt lat="43.405718235110605" lon="12.849756722442192"><ele>329.0</ele><time>2026-04-26T10:45:26Z</time></trkpt><trkpt lat="43.405490533728944" lon="12.849684934088689"><ele>329.0</ele><time>2026-04-26T10:45:27Z</time></trkpt><trkpt lat="43.405267328164626" lon="12.849614731313014"><ele>329.0</ele><time>2026-04-26T10:45:28Z</time></trkpt><trkpt lat="43.40504590862736" lon="12.849545215008376"><ele>329.0</ele><time>2026-04-26T10:45:29Z</time></trkpt><trkpt lat="43.40482780281263" lon="12.849472009203224"><ele>329.0</ele><time>2026-04-26T10:45:30Z</time></trkpt><trkpt lat="43.40461111372694" lon="12.849402044445444"><ele>329.0</ele><time>2026-04-26T10:45:31Z</time></trkpt><trkpt lat="43.4043911171679" lon="12.84932520465881"><ele>329.0</ele><time>2026-04-26T10:45:32Z</time></trkpt><trkpt lat="43.40417024586976" lon="12.849253207034428"><ele>329.0</ele><time>2026-04-26T10:45:33Z</time></trkpt><trkpt lat="43.40395113370182" lon="12.84918284115869"><ele>329.5</ele><time>2026-04-26T10:45:34Z</time></trkpt><trkpt lat="43.40373043393492" lon="12.849114644783443"><ele>330.0</ele><time>2026-04-26T10:45:35Z</time></trkpt><trkpt lat="43.40350822995103" lon="12.849043527040488"><ele>330.0</ele><time>2026-04-26T10:45:36Z</time></trkpt><trkpt lat="43.403283624786354" lon="12.848969095109048"><ele>330.0</ele><time>2026-04-26T10:45:37Z</time></trkpt><trkpt lat="43.40305927899254" lon="12.848893478261802"><ele>331.0</ele><time>2026-04-26T10:45:38Z</time></trkpt><trkpt lat="43.4028334023039" lon="12.84882588131565"><ele>332.0</ele><time>2026-04-26T10:45:39Z</time></trkpt><trkpt lat="43.402602597211335" lon="12.848780476233168"><ele>332.0</ele><time>2026-04-26T10:45:40Z</time></trkpt><trkpt lat="43.402370689457854" lon="12.8487581144539"><ele>332.0</ele><time>2026-04-26T10:45:41Z</time></trkpt><trkpt lat="43.40213422279647" lon="12.848757327392986"><ele>332.5</ele><time>2026-04-26T10:45:42Z</time></trkpt><trkpt lat="43.40189384639463" lon="12.848760635751397"><ele>333.0</ele><time>2026-04-26T10:45:43Z</time></trkpt><trkpt lat="43.40165312688406" lon="12.848761504023063"><ele>333.0</ele><time>2026-04-26T10:45:44Z</time></trkpt><trkpt lat="43.40141079879964" lon="12.84876149715333"><ele>333.0</ele><time>2026-04-26T10:45:45Z</time></trkpt><trkpt lat="43.40116771792577" lon="12.84876573158524"><ele>333.5</ele><time>2026-04-26T10:45:46Z</time></trkpt><trkpt lat="43.400925798746535" lon="12.848771036462114"><ele>334.0</ele><time>2026-04-26T10:45:47Z</time></trkpt><trkpt lat="43.40068203643172" lon="12.848771546269074"><ele>337.0</ele><time>2026-04-26T10:45:48Z</time></trkpt><trkpt lat="43.40043820704368" lon="12.84877269509176"><ele>340.0</ele><time>2026-04-26T10:45:49Z</time></trkpt><trkpt lat="43.400194166390456" lon="12.848776714364696"><ele>340.0</ele><time>2026-04-26T10:45:50Z</time></trkpt><trkpt lat="43.399951231392826" lon="12.848779405854396"><ele>340.0</ele><time>2026-04-26T10:45:51Z</time></trkpt><trkpt lat="43.3997101013365" lon="12.848778838799785"><ele>339.5</ele><time>2026-04-26T10:45:52Z</time></trkpt><trkpt lat="43.399471778297006" lon="12.848779514530392"><ele>339.0</ele><time>2026-04-26T10:45:53Z</time></trkpt><trkpt lat="43.39923741496901" lon="12.848782536733674"><ele>339.0</ele><time>2026-04-26T10:45:54Z</time></trkpt><trkpt lat="43.399006565433" lon="12.848782747611535"><ele>339.0</ele><time>2026-04-26T10:45:55Z</time></trkpt><trkpt lat="43.398777341372316" lon="12.84878456757098"><ele>338.3333333333333</ele><time>2026-04-26T10:45:56Z</time></trkpt><trkpt lat="43.398552131943106" lon="12.848783102464896"><ele>337.66666666666663</ele><time>2026-04-26T10:45:57Z</time></trkpt><trkpt lat="43.39833385464156" lon="12.8487708981889"><ele>337.0</ele><time>2026-04-26T10:45:58Z</time></trkpt><trkpt lat="43.39811675592594" lon="12.848737931472971"><ele>338.3333333333333</ele><time>2026-04-26T10:45:59Z</time></trkpt><trkpt lat="43.397898116660635" lon="12.848675604011827"><ele>339.6666666666667</ele><time>2026-04-26T10:46:00Z</time></trkpt><trkpt lat="43.39768789498491" lon="12.848576548098938"><ele>341.0</ele><time>2026-04-26T10:46:01Z</time></trkpt><trkpt lat="43.39747443978342" lon="12.848454677346542"><ele>341.0</ele><time>2026-04-26T10:46:02Z</time></trkpt><trkpt lat="43.39725772675834" lon="12.848342617271971"><ele>341.0</ele><time>2026-04-26T10:46:03Z</time></trkpt><trkpt lat="43.39703812100412" lon="12.848227816336873"><ele>336.5</ele><time>2026-04-26T10:46:04Z</time></trkpt><trkpt lat="43.39681700847605" lon="12.848110649183262"><ele>332.0</ele><time>2026-04-26T10:46:05Z</time></trkpt><trkpt lat="43.396592974563454" lon="12.84799594621844"><ele>332.0</ele><time>2026-04-26T10:46:06Z</time></trkpt><trkpt lat="43.396367799719904" lon="12.847878761632598"><ele>332.0</ele><time>2026-04-26T10:46:07Z</time></trkpt><trkpt lat="43.3961420847833" lon="12.847757797047937"><ele>333.5</ele><time>2026-04-26T10:46:08Z</time></trkpt><trkpt lat="43.3959156688545" lon="12.847637881692519"><ele>335.0</ele><time>2026-04-26T10:46:09Z</time></trkpt><trkpt lat="43.395690396175844" lon="12.847511943061962"><ele>340.5</ele><time>2026-04-26T10:46:10Z</time></trkpt><trkpt lat="43.39546112296955" lon="12.847396012007607"><ele>346.0</ele><time>2026-04-26T10:46:11Z</time></trkpt><trkpt lat="43.39523164627075" lon="12.847279236316409"><ele>346.0</ele><time>2026-04-26T10:46:12Z</time></trkpt><trkpt lat="43.3950035106038" lon="12.847170452870039"><ele>346.0</ele><time>2026-04-26T10:46:13Z</time></trkpt><trkpt lat="43.394781131637544" lon="12.84704960305468"><ele>345.5</ele><time>2026-04-26T10:46:14Z</time></trkpt><trkpt lat="43.39456084524365" lon="12.846931052463528"><ele>345.0</ele><time>2026-04-26T10:46:15Z</time></trkpt><trkpt lat="43.39434151405878" lon="12.846816077305492"><ele>347.5</ele><time>2026-04-26T10:46:16Z</time></trkpt><trkpt lat="43.39412447226066" lon="12.846702026260358"><ele>350.0</ele><time>2026-04-26T10:46:17Z</time></trkpt><trkpt lat="43.39390551190534" lon="12.846586882826067"><ele>352.0</ele><time>2026-04-26T10:46:18Z</time></trkpt><trkpt lat="43.39368710796518" lon="12.84647001707226"><ele>354.0</ele><time>2026-04-26T10:46:19Z</time></trkpt><trkpt lat="43.39346713244488" lon="12.846354666347423"><ele>354.0</ele><time>2026-04-26T10:46:20Z</time></trkpt><trkpt lat="43.39324680586154" lon="12.846240424298083"><ele>354.0</ele><time>2026-04-26T10:46:21Z</time></trkpt><trkpt lat="43.393023802176025" lon="12.846125196319928"><ele>354.0</ele><time>2026-04-26T10:46:22Z</time></trkpt><trkpt lat="43.39280195465395" lon="12.84600653601748"><ele>354.0</ele><time>2026-04-26T10:46:23Z</time></trkpt><trkpt lat="43.39257804779035" lon="12.845891465595043"><ele>356.0</ele><time>2026-04-26T10:46:24Z</time></trkpt><trkpt lat="43.39235320349531" lon="12.845775652813568"><ele>358.0</ele><time>2026-04-26T10:46:25Z</time></trkpt><trkpt lat="43.39213286289399" lon="12.845660223122472"><ele>358.0</ele><time>2026-04-26T10:46:26Z</time></trkpt><trkpt lat="43.39191074232531" lon="12.84554428485186"><ele>358.0</ele><time>2026-04-26T10:46:27Z</time></trkpt><trkpt lat="43.39169029124871" lon="12.845424573108648"><ele>358.0</ele><time>2026-04-26T10:46:28Z</time></trkpt><trkpt lat="43.3914681913309" lon="12.845309916475076"><ele>358.0</ele><time>2026-04-26T10:46:29Z</time></trkpt><trkpt lat="43.3912452279963" lon="12.845195239473382"><ele>359.0</ele><time>2026-04-26T10:46:30Z</time></trkpt><trkpt lat="43.391025380906335" lon="12.845077631610334"><ele>360.0</ele><time>2026-04-26T10:46:31Z</time></trkpt><trkpt lat="43.39080460602454" lon="12.8449610176701"><ele>360.0</ele><time>2026-04-26T10:46:32Z</time></trkpt><trkpt lat="43.390584279876414" lon="12.84484696530466"><ele>360.0</ele><time>2026-04-26T10:46:33Z</time></trkpt><trkpt lat="43.39036523021595" lon="12.844733054087472"><ele>359.5</ele><time>2026-04-26T10:46:34Z</time></trkpt><trkpt lat="43.39014336237414" lon="12.844615006329871"><ele>359.0</ele><time>2026-04-26T10:46:35Z</time></trkpt><trkpt lat="43.38992257108647" lon="12.844497412673563"><ele>359.0</ele><time>2026-04-26T10:46:36Z</time></trkpt><trkpt lat="43.38969813301122" lon="12.844376418881994"><ele>359.0</ele><time>2026-04-26T10:46:37Z</time></trkpt><trkpt lat="43.38946870767601" lon="12.84426251036236"><ele>359.5</ele><time>2026-04-26T10:46:38Z</time></trkpt><trkpt lat="43.38924011026659" lon="12.844146087216407"><ele>360.0</ele><time>2026-04-26T10:46:39Z</time></trkpt><trkpt lat="43.389009097168746" lon="12.84402716771242"><ele>360.0</ele><time>2026-04-26T10:46:40Z</time></trkpt><trkpt lat="43.38877747579096" lon="12.843906786162616"><ele>360.0</ele><time>2026-04-26T10:46:41Z</time></trkpt><trkpt lat="43.38854445549505" lon="12.843786415571845"><ele>360.0</ele><time>2026-04-26T10:46:42Z</time></trkpt><trkpt lat="43.38831537751914" lon="12.843659422974206"><ele>360.0</ele><time>2026-04-26T10:46:43Z</time></trkpt><trkpt lat="43.388083663386496" lon="12.843539823564122"><ele>361.5</ele><time>2026-04-26T10:46:44Z</time></trkpt><trkpt lat="43.387851257935075" lon="12.843420232863544"><ele>363.0</ele><time>2026-04-26T10:46:45Z</time></trkpt><trkpt lat="43.3876216936868" lon="12.843299714205706"><ele>363.0</ele><time>2026-04-26T10:46:46Z</time></trkpt><trkpt lat="43.38739234110021" lon="12.843178703233747"><ele>363.0</ele><time>2026-04-26T10:46:47Z</time></trkpt><trkpt lat="43.38716511863968" lon="12.84305877832931"><ele>363.0</ele><time>2026-04-26T10:46:48Z</time></trkpt><trkpt lat="43.38693836081723" lon="12.842938592246748"><ele>363.0</ele><time>2026-04-26T10:46:49Z</time></trkpt><trkpt lat="43.38671231933577" lon="12.842819238424324"><ele>363.0</ele><time>2026-04-26T10:46:50Z</time></trkpt><trkpt lat="43.38648773879066" lon="12.84269974218826"><ele>363.0</ele><time>2026-04-26T10:46:51Z</time></trkpt><trkpt lat="43.38626185120249" lon="12.842584337446509"><ele>366.0</ele><time>2026-04-26T10:46:52Z</time></trkpt><trkpt lat="43.38604040375899" lon="12.842470030939337"><ele>369.0</ele><time>2026-04-26T10:46:53Z</time></trkpt><trkpt lat="43.385820901208064" lon="12.842353700347292"><ele>369.0</ele><time>2026-04-26T10:46:54Z</time></trkpt><trkpt lat="43.38560219222244" lon="12.842239528160022"><ele>369.0</ele><time>2026-04-26T10:46:55Z</time></trkpt><trkpt lat="43.38538606923335" lon="12.842122167406465"><ele>369.0</ele><time>2026-04-26T10:46:56Z</time></trkpt><trkpt lat="43.38517425725684" lon="12.84198908709751"><ele>369.0</ele><time>2026-04-26T10:46:57Z</time></trkpt><trkpt lat="43.38497165569915" lon="12.841836744439114"><ele>369.5</ele><time>2026-04-26T10:46:58Z</time></trkpt><trkpt lat="43.384774097999426" lon="12.841670247212912"><ele>370.0</ele><time>2026-04-26T10:46:59Z</time></trkpt><trkpt lat="43.384573269006104" lon="12.841498097817286"><ele>370.0</ele><time>2026-04-26T10:47:00Z</time></trkpt><trkpt lat="43.38437799367601" lon="12.841317011026401"><ele>370.0</ele><time>2026-04-26T10:47:01Z</time></trkpt><trkpt lat="43.38419023962505" lon="12.841123932018512"><ele>370.0</ele><time>2026-04-26T10:47:02Z</time></trkpt><trkpt lat="43.384001944755745" lon="12.840931316826165"><ele>370.0</ele><time>2026-04-26T10:47:03Z</time></trkpt><trkpt lat="43.38381606219522" lon="12.840732265352978"><ele>370.5</ele><time>2026-04-26T10:47:04Z</time></trkpt><trkpt lat="43.383632208580934" lon="12.840528839664453"><ele>371.0</ele><time>2026-04-26T10:47:05Z</time></trkpt><trkpt lat="43.38344818638531" lon="12.840323820999751"><ele>371.5</ele><time>2026-04-26T10:47:06Z</time></trkpt><trkpt lat="43.38326286911074" lon="12.84011996293986"><ele>372.0</ele><time>2026-04-26T10:47:07Z</time></trkpt><trkpt lat="43.38307971418553" lon="12.839914822227296"><ele>372.0</ele><time>2026-04-26T10:47:08Z</time></trkpt><trkpt lat="43.382897946491475" lon="12.839708026544523"><ele>372.0</ele><time>2026-04-26T10:47:09Z</time></trkpt><trkpt lat="43.38271255916215" lon="12.839498533153565"><ele>372.5</ele><time>2026-04-26T10:47:10Z</time></trkpt><trkpt lat="43.38253015187984" lon="12.839290574399723"><ele>373.0</ele><time>2026-04-26T10:47:11Z</time></trkpt><trkpt lat="43.38234532680158" lon="12.839084679071357"><ele>372.5</ele><time>2026-04-26T10:47:12Z</time></trkpt><trkpt lat="43.382162582288416" lon="12.838878786010504"><ele>372.0</ele><time>2026-04-26T10:47:13Z</time></trkpt><trkpt lat="43.38197903487158" lon="12.838671437807916"><ele>373.5</ele><time>2026-04-26T10:47:14Z</time></trkpt><trkpt lat="43.38179274205409" lon="12.838465202882237"><ele>375.0</ele><time>2026-04-26T10:47:15Z</time></trkpt><trkpt lat="43.38160754813496" lon="12.838257786440801"><ele>375.0</ele><time>2026-04-26T10:47:16Z</time></trkpt><trkpt lat="43.38142080376797" lon="12.838051896429358"><ele>375.0</ele><time>2026-04-26T10:47:17Z</time></trkpt><trkpt lat="43.38123588657622" lon="12.83784307797483"><ele>376.0</ele><time>2026-04-26T10:47:18Z</time></trkpt><trkpt lat="43.38105369769279" lon="12.837633486622252"><ele>377.0</ele><time>2026-04-26T10:47:19Z</time></trkpt><trkpt lat="43.380871650338264" lon="12.837420378034155"><ele>377.0</ele><time>2026-04-26T10:47:20Z</time></trkpt><trkpt lat="43.38069457689365" lon="12.837198311457533"><ele>377.0</ele><time>2026-04-26T10:47:21Z</time></trkpt><trkpt lat="43.38053000641175" lon="12.83695867170517"><ele>375.0</ele><time>2026-04-26T10:47:22Z</time></trkpt><trkpt lat="43.38037282257392" lon="12.836707628019635"><ele>373.0</ele><time>2026-04-26T10:47:23Z</time></trkpt><trkpt lat="43.38021380340221" lon="12.836457459300473"><ele>373.0</ele><time>2026-04-26T10:47:24Z</time></trkpt><trkpt lat="43.38005538924128" lon="12.836209360674752"><ele>373.0</ele><time>2026-04-26T10:47:25Z</time></trkpt><trkpt lat="43.37989595672471" lon="12.835957337506443"><ele>372.0</ele><time>2026-04-26T10:47:26Z</time></trkpt><trkpt lat="43.37973895648535" lon="12.83570557174315"><ele>371.0</ele><time>2026-04-26T10:47:27Z</time></trkpt><trkpt lat="43.37958145398372" lon="12.835452302952737"><ele>371.0</ele><time>2026-04-26T10:47:28Z</time></trkpt><trkpt lat="43.379420130323005" lon="12.83520080853501"><ele>371.0</ele><time>2026-04-26T10:47:29Z</time></trkpt><trkpt lat="43.379260192631726" lon="12.834950346024355"><ele>373.5</ele><time>2026-04-26T10:47:30Z</time></trkpt><trkpt lat="43.37910175424808" lon="12.834699758001273"><ele>376.0</ele><time>2026-04-26T10:47:31Z</time></trkpt><trkpt lat="43.37894054580536" lon="12.834450537060189"><ele>374.0</ele><time>2026-04-26T10:47:32Z</time></trkpt><trkpt lat="43.37878004748211" lon="12.834200496316946"><ele>372.0</ele><time>2026-04-26T10:47:33Z</time></trkpt><trkpt lat="43.37862649802859" lon="12.8339457400183"><ele>372.0</ele><time>2026-04-26T10:47:34Z</time></trkpt><trkpt lat="43.378473473241726" lon="12.833689468094555"><ele>372.0</ele><time>2026-04-26T10:47:35Z</time></trkpt><trkpt lat="43.37832342452178" lon="12.833428576417413"><ele>378.0</ele><time>2026-04-26T10:47:36Z</time></trkpt><trkpt lat="43.37817738939822" lon="12.833168159494459"><ele>384.0</ele><time>2026-04-26T10:47:37Z</time></trkpt><trkpt lat="43.378037064085056" lon="12.83291037914291"><ele>384.0</ele><time>2026-04-26T10:47:38Z</time></trkpt><trkpt lat="43.37790826383089" lon="12.832648233847662"><ele>384.0</ele><time>2026-04-26T10:47:39Z</time></trkpt><trkpt lat="43.37773156868876" lon="12.832439770218382"><ele>383.6666666666667</ele><time>2026-04-26T10:47:40Z</time></trkpt><trkpt lat="43.377561274191606" lon="12.83223616442601"><ele>383.33333333333337</ele><time>2026-04-26T10:47:41Z</time></trkpt><trkpt lat="43.37737460662818" lon="12.832066238426338"><ele>383.0</ele><time>2026-04-26T10:47:42Z</time></trkpt><trkpt lat="43.37717352001934" lon="12.831921901595491"><ele>383.0</ele><time>2026-04-26T10:47:43Z</time></trkpt><trkpt lat="43.37695746117437" lon="12.831812674816714"><ele>383.0</ele><time>2026-04-26T10:47:44Z</time></trkpt><trkpt lat="43.37672658666194" lon="12.831741004913424"><ele>384.5</ele><time>2026-04-26T10:47:45Z</time></trkpt><trkpt lat="43.376491176009836" lon="12.831682719444593"><ele>386.0</ele><time>2026-04-26T10:47:46Z</time></trkpt><trkpt lat="43.37625506935785" lon="12.831626676351028"><ele>386.0</ele><time>2026-04-26T10:47:47Z</time></trkpt><trkpt lat="43.376020656419286" lon="12.831559262728124"><ele>386.0</ele><time>2026-04-26T10:47:48Z</time></trkpt><trkpt lat="43.3757880200129" lon="12.831483476104994"><ele>386.0</ele><time>2026-04-26T10:47:49Z</time></trkpt><trkpt lat="43.37556052064347" lon="12.83138946206342"><ele>386.0</ele><time>2026-04-26T10:47:50Z</time></trkpt><trkpt lat="43.375340215096195" lon="12.831255780221813"><ele>386.0</ele><time>2026-04-26T10:47:51Z</time></trkpt><trkpt lat="43.37513119812763" lon="12.831088547576178"><ele>386.0</ele><time>2026-04-26T10:47:52Z</time></trkpt><trkpt lat="43.37493304294077" lon="12.8308969833386"><ele>386.0</ele><time>2026-04-26T10:47:53Z</time></trkpt><trkpt lat="43.374740829711286" lon="12.830692147353433"><ele>386.0</ele><time>2026-04-26T10:47:54Z</time></trkpt><trkpt lat="43.37454359459347" lon="12.830498712785321"><ele>386.0</ele><time>2026-04-26T10:47:55Z</time></trkpt><trkpt lat="43.374346785154316" lon="12.830313290480154"><ele>386.0</ele><time>2026-04-26T10:47:56Z</time></trkpt><trkpt lat="43.3741655322833" lon="12.83013604303402"><ele>386.66666666666663</ele><time>2026-04-26T10:47:57Z</time></trkpt><trkpt lat="43.37399407164183" lon="12.829970534299207"><ele>387.33333333333337</ele><time>2026-04-26T10:47:58Z</time></trkpt><trkpt lat="43.373834750440054" lon="12.829812950225731"><ele>388.0</ele><time>2026-04-26T10:47:59Z</time></trkpt><trkpt lat="43.37366769399089" lon="12.829661635730538"><ele>388.0</ele><time>2026-04-26T10:48:00Z</time></trkpt><trkpt lat="43.373481759972485" lon="12.829535019749072"><ele>388.0</ele><time>2026-04-26T10:48:01Z</time></trkpt><trkpt lat="43.37327771665074" lon="12.829441007542929"><ele>388.0</ele><time>2026-04-26T10:48:02Z</time></trkpt><trkpt lat="43.373058518723724" lon="12.829401998915959"><ele>396.0</ele><time>2026-04-26T10:48:03Z</time></trkpt><trkpt lat="43.372836448361134" lon="12.829409101047897"><ele>404.0</ele><time>2026-04-26T10:48:04Z</time></trkpt><trkpt lat="43.37260655016387" lon="12.829446360104171"><ele>404.0</ele><time>2026-04-26T10:48:05Z</time></trkpt><trkpt lat="43.3723778106763" lon="12.829480428848271"><ele>404.0</ele><time>2026-04-26T10:48:06Z</time></trkpt><trkpt lat="43.37214521727973" lon="12.82952094292572"><ele>405.0</ele><time>2026-04-26T10:48:07Z</time></trkpt><trkpt lat="43.37190676876462" lon="12.829566064507388"><ele>406.0</ele><time>2026-04-26T10:48:08Z</time></trkpt><trkpt lat="43.371670705433246" lon="12.829603367087444"><ele>406.0</ele><time>2026-04-26T10:48:09Z</time></trkpt><trkpt lat="43.3714291137597" lon="12.829646657556562"><ele>406.0</ele><time>2026-04-26T10:48:10Z</time></trkpt><trkpt lat="43.371191044044004" lon="12.829695777677369"><ele>404.0</ele><time>2026-04-26T10:48:11Z</time></trkpt><trkpt lat="43.37095550791718" lon="12.829726862323579"><ele>402.0</ele><time>2026-04-26T10:48:12Z</time></trkpt><trkpt lat="43.370717024047394" lon="12.829735696140697"><ele>401.5</ele><time>2026-04-26T10:48:13Z</time></trkpt><trkpt lat="43.3704763980566" lon="12.829742175699819"><ele>401.0</ele><time>2026-04-26T10:48:14Z</time></trkpt><trkpt lat="43.370237829349605" lon="12.829730527218263"><ele>401.0</ele><time>2026-04-26T10:48:15Z</time></trkpt><trkpt lat="43.36999949435943" lon="12.829726171001003"><ele>401.0</ele><time>2026-04-26T10:48:16Z</time></trkpt><trkpt lat="43.369761747959274" lon="12.82971287068178"><ele>401.5</ele><time>2026-04-26T10:48:17Z</time></trkpt><trkpt lat="43.36952497705756" lon="12.829697186596066"><ele>402.0</ele><time>2026-04-26T10:48:18Z</time></trkpt><trkpt lat="43.36928722381059" lon="12.829685062818262"><ele>402.0</ele><time>2026-04-26T10:48:19Z</time></trkpt><trkpt lat="43.369050230032286" lon="12.829670590045795"><ele>402.0</ele><time>2026-04-26T10:48:20Z</time></trkpt><trkpt lat="43.368812502206254" lon="12.829658934251263"><ele>403.0</ele><time>2026-04-26T10:48:21Z</time></trkpt><trkpt lat="43.36857175191534" lon="12.829645303373685"><ele>404.0</ele><time>2026-04-26T10:48:22Z</time></trkpt><trkpt lat="43.368334036588145" lon="12.829630094732105"><ele>404.0</ele><time>2026-04-26T10:48:23Z</time></trkpt><trkpt lat="43.36809602963788" lon="12.829615483076166"><ele>404.0</ele><time>2026-04-26T10:48:24Z</time></trkpt><trkpt lat="43.36785949829704" lon="12.829602004034056"><ele>404.5</ele><time>2026-04-26T10:48:25Z</time></trkpt><trkpt lat="43.36762515312848" lon="12.82958860642083"><ele>405.0</ele><time>2026-04-26T10:48:26Z</time></trkpt><trkpt lat="43.36739043364558" lon="12.829575983433227"><ele>405.0</ele><time>2026-04-26T10:48:27Z</time></trkpt><trkpt lat="43.36715881944322" lon="12.829562103749511"><ele>405.0</ele><time>2026-04-26T10:48:28Z</time></trkpt><trkpt lat="43.36692972987423" lon="12.829552074985092"><ele>405.0</ele><time>2026-04-26T10:48:29Z</time></trkpt><trkpt lat="43.366707554379246" lon="12.8295399471159"><ele>405.0</ele><time>2026-04-26T10:48:30Z</time></trkpt><trkpt lat="43.36649537670035" lon="12.829530848782115"><ele>405.0</ele><time>2026-04-26T10:48:31Z</time></trkpt><trkpt lat="43.36628124313085" lon="12.829562878024111"><ele>407.0</ele><time>2026-04-26T10:48:32Z</time></trkpt><trkpt lat="43.36606461475999" lon="12.829656546891483"><ele>409.0</ele><time>2026-04-26T10:48:33Z</time></trkpt><trkpt lat="43.36586075437441" lon="12.829783217905923"><ele>409.0</ele><time>2026-04-26T10:48:34Z</time></trkpt><trkpt lat="43.365659178886176" lon="12.82993912247735"><ele>409.0</ele><time>2026-04-26T10:48:35Z</time></trkpt><trkpt lat="43.365458623630886" lon="12.830102610334036"><ele>412.5</ele><time>2026-04-26T10:48:36Z</time></trkpt><trkpt lat="43.36525836171056" lon="12.830265906123387"><ele>416.0</ele><time>2026-04-26T10:48:37Z</time></trkpt><trkpt lat="43.3650576689192" lon="12.830420980725362"><ele>416.0</ele><time>2026-04-26T10:48:38Z</time></trkpt><trkpt lat="43.364857599211014" lon="12.830573938898093"><ele>416.0</ele><time>2026-04-26T10:48:39Z</time></trkpt><trkpt lat="43.36465657486352" lon="12.830731103132107"><ele>416.5</ele><time>2026-04-26T10:48:40Z</time></trkpt><trkpt lat="43.364455259863284" lon="12.83088495312753"><ele>417.0</ele><time>2026-04-26T10:48:41Z</time></trkpt><trkpt lat="43.36425478862748" lon="12.831042959648391"><ele>418.5</ele><time>2026-04-26T10:48:42Z</time></trkpt><trkpt lat="43.36405727215894" lon="12.831198205082202"><ele>420.0</ele><time>2026-04-26T10:48:43Z</time></trkpt><trkpt lat="43.363862768700635" lon="12.831351105546094"><ele>420.0</ele><time>2026-04-26T10:48:44Z</time></trkpt><trkpt lat="43.363678666613" lon="12.831494820212946"><ele>420.0</ele><time>2026-04-26T10:48:45Z</time></trkpt><trkpt lat="43.36349625152895" lon="12.831624183918494"><ele>420.0</ele><time>2026-04-26T10:48:46Z</time></trkpt><trkpt lat="43.36331613452863" lon="12.831704214175069"><ele>420.0</ele><time>2026-04-26T10:48:47Z</time></trkpt><trkpt lat="43.36312756694234" lon="12.83173092907278"><ele>420.0</ele><time>2026-04-26T10:48:48Z</time></trkpt><trkpt lat="43.362929074462656" lon="12.831707548428477"><ele>420.0</ele><time>2026-04-26T10:48:49Z</time></trkpt><trkpt lat="43.36272889927007" lon="12.831619705054214"><ele>421.66666666666663</ele><time>2026-04-26T10:48:50Z</time></trkpt><trkpt lat="43.36253385470333" lon="12.831482966278084"><ele>423.3333333333333</ele><time>2026-04-26T10:48:51Z</time></trkpt><trkpt lat="43.36233664580828" lon="12.831330527346068"><ele>425.0</ele><time>2026-04-26T10:48:52Z</time></trkpt><trkpt lat="43.36213141067866" lon="12.83117974034038"><ele>428.5</ele><time>2026-04-26T10:48:53Z</time></trkpt><trkpt lat="43.36192586780796" lon="12.83103346258197"><ele>432.0</ele><time>2026-04-26T10:48:54Z</time></trkpt><trkpt lat="43.36172309662368" lon="12.830890275037667"><ele>432.33333333333337</ele><time>2026-04-26T10:48:55Z</time></trkpt><trkpt lat="43.36152093296434" lon="12.830747302862116"><ele>432.6666666666667</ele><time>2026-04-26T10:48:56Z</time></trkpt><trkpt lat="43.361331327327946" lon="12.830611262122503"><ele>433.0</ele><time>2026-04-26T10:48:57Z</time></trkpt><trkpt lat="43.361152542490096" lon="12.830486219352379"><ele>435.33333333333337</ele><time>2026-04-26T10:48:58Z</time></trkpt><trkpt lat="43.360956585974655" lon="12.830405565507203"><ele>437.66666666666663</ele><time>2026-04-26T10:48:59Z</time></trkpt><trkpt lat="43.36075685755156" lon="12.830379192599846"><ele>440.0</ele><time>2026-04-26T10:49:00Z</time></trkpt><trkpt lat="43.36056426203735" lon="12.83042417723571"><ele>440.0</ele><time>2026-04-26T10:49:01Z</time></trkpt><trkpt lat="43.36038545226" lon="12.830531293483833"><ele>440.0</ele><time>2026-04-26T10:49:02Z</time></trkpt><trkpt lat="43.3602241045622" lon="12.83069650756935"><ele>440.0</ele><time>2026-04-26T10:49:03Z</time></trkpt><trkpt lat="43.36007848210546" lon="12.830920841493395"><ele>437.5</ele><time>2026-04-26T10:49:04Z</time></trkpt><trkpt lat="43.359954345076716" lon="12.831207466744143"><ele>435.0</ele><time>2026-04-26T10:49:05Z</time></trkpt><trkpt lat="43.3598124356172" lon="12.831487088466385"><ele>431.0</ele><time>2026-04-26T10:49:06Z</time></trkpt><trkpt lat="43.35966244419714" lon="12.831764198313028"><ele>427.0</ele><time>2026-04-26T10:49:07Z</time></trkpt><trkpt lat="43.359523393784386" lon="12.832040418231282"><ele>426.6666666666667</ele><time>2026-04-26T10:49:08Z</time></trkpt><trkpt lat="43.35939406669685" lon="12.832272785329478"><ele>426.33333333333337</ele><time>2026-04-26T10:49:09Z</time></trkpt><trkpt lat="43.35925587364911" lon="12.832452427237026"><ele>426.0</ele><time>2026-04-26T10:49:10Z</time></trkpt><trkpt lat="43.35908560326532" lon="12.832561114556658"><ele>426.0</ele><time>2026-04-26T10:49:11Z</time></trkpt><trkpt lat="43.358894567867544" lon="12.832593895805067"><ele>426.0</ele><time>2026-04-26T10:49:12Z</time></trkpt><trkpt lat="43.358694416890636" lon="12.832546364851472"><ele>426.0</ele><time>2026-04-26T10:49:13Z</time></trkpt><trkpt lat="43.35849580503748" lon="12.832423600838805"><ele>425.0</ele><time>2026-04-26T10:49:14Z</time></trkpt><trkpt lat="43.35830528940804" lon="12.832214142759577"><ele>424.0</ele><time>2026-04-26T10:49:15Z</time></trkpt><trkpt lat="43.358118068910926" lon="12.831964211006113"><ele>420.5</ele><time>2026-04-26T10:49:16Z</time></trkpt><trkpt lat="43.3579122131834" lon="12.83172080061815"><ele>417.0</ele><time>2026-04-26T10:49:17Z</time></trkpt><trkpt lat="43.35769213745052" lon="12.831485364936817"><ele>417.0</ele><time>2026-04-26T10:49:18Z</time></trkpt><trkpt lat="43.35748084187246" lon="12.831233124928234"><ele>417.0</ele><time>2026-04-26T10:49:19Z</time></trkpt><trkpt lat="43.357285395335154" lon="12.830998214268078"><ele>417.0</ele><time>2026-04-26T10:49:20Z</time></trkpt><trkpt lat="43.35709540364375" lon="12.830777430351146"><ele>417.0</ele><time>2026-04-26T10:49:21Z</time></trkpt><trkpt lat="43.3569143720447" lon="12.83056322618103"><ele>417.0</ele><time>2026-04-26T10:49:22Z</time></trkpt><trkpt lat="43.35674116914451" lon="12.830356469237937"><ele>417.0</ele><time>2026-04-26T10:49:23Z</time></trkpt><trkpt lat="43.3565707587293" lon="12.830161202341086"><ele>417.33333333333337</ele><time>2026-04-26T10:49:24Z</time></trkpt><trkpt lat="43.35641441210382" lon="12.829977314662065"><ele>417.6666666666667</ele><time>2026-04-26T10:49:25Z</time></trkpt><trkpt lat="43.35626590486316" lon="12.829800212621294"><ele>418.0</ele><time>2026-04-26T10:49:26Z</time></trkpt><trkpt lat="43.35612146094766" lon="12.829628753302366"><ele>418.0</ele><time>2026-04-26T10:49:27Z</time></trkpt><trkpt lat="43.35598103810382" lon="12.829464550518994"><ele>418.0</ele><time>2026-04-26T10:49:28Z</time></trkpt><trkpt lat="43.355845351315224" lon="12.829305669157433"><ele>418.0</ele><time>2026-04-26T10:49:29Z</time></trkpt><trkpt lat="43.35571500356818" lon="12.829154524909512"><ele>418.0</ele><time>2026-04-26T10:49:30Z</time></trkpt><trkpt lat="43.35559051032633" lon="12.829012022611264"><ele>418.0</ele><time>2026-04-26T10:49:31Z</time></trkpt><trkpt lat="43.35547380644399" lon="12.828873022131145"><ele>418.0</ele><time>2026-04-26T10:49:32Z</time></trkpt><trkpt lat="43.35536406936279" lon="12.82874189545492"><ele>416.79999999999995</ele><time>2026-04-26T10:49:33Z</time></trkpt><trkpt lat="43.3552641193543" lon="12.828615273492579"><ele>415.6</ele><time>2026-04-26T10:49:34Z</time></trkpt><trkpt lat="43.355168024231894" lon="12.828521251947262"><ele>414.4</ele><time>2026-04-26T10:49:35Z</time></trkpt><trkpt lat="43.35508130126755" lon="12.828443143514052"><ele>413.20000000000005</ele><time>2026-04-26T10:49:36Z</time></trkpt><trkpt lat="43.355011693469265" lon="12.828387956836483"><ele>412.0</ele><time>2026-04-26T10:49:37Z</time></trkpt><trkpt lat="43.35495063616127" lon="12.828336705914015"><ele>411.40000000000003</ele><time>2026-04-26T10:49:38Z</time></trkpt><trkpt lat="43.35484848376427" lon="12.828259771504033"><ele>410.8</ele><time>2026-04-26T10:49:40Z</time></trkpt><trkpt lat="43.3547397877662" lon="12.828195140398051"><ele>410.2</ele><time>2026-04-26T10:49:42Z</time></trkpt><trkpt lat="43.35465852658441" lon="12.828160895343187"><ele>409.6</ele><time>2026-04-26T10:49:43Z</time></trkpt><trkpt lat="43.35454602231553" lon="12.828119629962554"><ele>409.0</ele><time>2026-04-26T10:49:44Z</time></trkpt><trkpt lat="43.35440004335477" lon="12.828070136761923"><ele>408.0</ele><time>2026-04-26T10:49:45Z</time></trkpt><trkpt lat="43.354230940064774" lon="12.828013199999422"><ele>407.0</ele><time>2026-04-26T10:49:46Z</time></trkpt><trkpt lat="43.35405016107428" lon="12.827945290401907"><ele>406.0</ele><time>2026-04-26T10:49:47Z</time></trkpt><trkpt lat="43.353850526511536" lon="12.827865287751118"><ele>404.0</ele><time>2026-04-26T10:49:48Z</time></trkpt><trkpt lat="43.35364617976385" lon="12.827774293790066"><ele>402.0</ele><time>2026-04-26T10:49:49Z</time></trkpt><trkpt lat="43.35342946226719" lon="12.827674389326882"><ele>400.0</ele><time>2026-04-26T10:49:50Z</time></trkpt><trkpt lat="43.35320589407396" lon="12.827579961803735"><ele>399.0</ele><time>2026-04-26T10:49:51Z</time></trkpt><trkpt lat="43.352976810149215" lon="12.827492338959212"><ele>398.0</ele><time>2026-04-26T10:49:52Z</time></trkpt><trkpt lat="43.352751797645325" lon="12.827400952179303"><ele>398.0</ele><time>2026-04-26T10:49:53Z</time></trkpt><trkpt lat="43.35253690263214" lon="12.827311771536957"><ele>398.0</ele><time>2026-04-26T10:49:54Z</time></trkpt><trkpt lat="43.352328255643855" lon="12.827229050829686"><ele>398.0</ele><time>2026-04-26T10:49:55Z</time></trkpt><trkpt lat="43.35213061629503" lon="12.82715110535548"><ele>396.66666666666663</ele><time>2026-04-26T10:49:56Z</time></trkpt><trkpt lat="43.35193499068975" lon="12.8270989721047"><ele>395.33333333333337</ele><time>2026-04-26T10:49:57Z</time></trkpt><trkpt lat="43.351752324870205" lon="12.82708251889957"><ele>394.0</ele><time>2026-04-26T10:49:58Z</time></trkpt><trkpt lat="43.35156808381387" lon="12.827122847142434"><ele>394.0</ele><time>2026-04-26T10:49:59Z</time></trkpt><trkpt lat="43.351388931547774" lon="12.827208174446357"><ele>394.0</ele><time>2026-04-26T10:50:00Z</time></trkpt><trkpt lat="43.351229102705155" lon="12.827332387850388"><ele>394.0</ele><time>2026-04-26T10:50:01Z</time></trkpt><trkpt lat="43.351085891353705" lon="12.827507122857044"><ele>393.6666666666667</ele><time>2026-04-26T10:50:02Z</time></trkpt><trkpt lat="43.350966021496994" lon="12.827725823961087"><ele>393.33333333333337</ele><time>2026-04-26T10:50:03Z</time></trkpt><trkpt lat="43.350877455121164" lon="12.82797794919971"><ele>393.0</ele><time>2026-04-26T10:50:04Z</time></trkpt><trkpt lat="43.350823957973226" lon="12.828260318810598"><ele>392.33333333333337</ele><time>2026-04-26T10:50:05Z</time></trkpt><trkpt lat="43.35077005929031" lon="12.82853255407241"><ele>391.6666666666667</ele><time>2026-04-26T10:50:06Z</time></trkpt><trkpt lat="43.35072342152691" lon="12.828827222160607"><ele>391.0</ele><time>2026-04-26T10:50:07Z</time></trkpt><trkpt lat="43.3506777520593" lon="12.829121234384845"><ele>390.0</ele><time>2026-04-26T10:50:08Z</time></trkpt><trkpt lat="43.35063602848487" lon="12.82942375335704"><ele>389.0</ele><time>2026-04-26T10:50:09Z</time></trkpt><trkpt lat="43.35059769819038" lon="12.829731505091793"><ele>389.0</ele><time>2026-04-26T10:50:10Z</time></trkpt><trkpt lat="43.35055704927962" lon="12.830045879034829"><ele>389.0</ele><time>2026-04-26T10:50:11Z</time></trkpt><trkpt lat="43.35051248810981" lon="12.830364042801582"><ele>393.0</ele><time>2026-04-26T10:50:12Z</time></trkpt><trkpt lat="43.35046435619026" lon="12.830679220048303"><ele>397.0</ele><time>2026-04-26T10:50:13Z</time></trkpt><trkpt lat="43.35041762835216" lon="12.830995292744866"><ele>397.0</ele><time>2026-04-26T10:50:14Z</time></trkpt><trkpt lat="43.350371437249905" lon="12.831316061817166"><ele>397.0</ele><time>2026-04-26T10:50:15Z</time></trkpt><trkpt lat="43.350324896631065" lon="12.831639343100028"><ele>392.5</ele><time>2026-04-26T10:50:16Z</time></trkpt><trkpt lat="43.35028031096426" lon="12.831961780918434"><ele>388.0</ele><time>2026-04-26T10:50:17Z</time></trkpt><trkpt lat="43.350233039749696" lon="12.832284303808265"><ele>388.0</ele><time>2026-04-26T10:50:18Z</time></trkpt><trkpt lat="43.35018897227802" lon="12.832612119684804"><ele>388.0</ele><time>2026-04-26T10:50:19Z</time></trkpt><trkpt lat="43.350141344040516" lon="12.832934878310894"><ele>386.5</ele><time>2026-04-26T10:50:20Z</time></trkpt><trkpt lat="43.35009494130922" lon="12.83325747965744"><ele>385.0</ele><time>2026-04-26T10:50:21Z</time></trkpt><trkpt lat="43.35004811129864" lon="12.833582483894203"><ele>382.5</ele><time>2026-04-26T10:50:22Z</time></trkpt><trkpt lat="43.34999747263034" lon="12.833909600678918"><ele>380.0</ele><time>2026-04-26T10:50:23Z</time></trkpt><trkpt lat="43.34994718287878" lon="12.834229383651792"><ele>379.6666666666667</ele><time>2026-04-26T10:50:24Z</time></trkpt><trkpt lat="43.349901431732654" lon="12.834536081763762"><ele>379.3333333333333</ele><time>2026-04-26T10:50:25Z</time></trkpt><trkpt lat="43.34985785811912" lon="12.834828187695619"><ele>379.0</ele><time>2026-04-26T10:50:26Z</time></trkpt><trkpt lat="43.34981651137217" lon="12.83511032897861"><ele>379.3333333333333</ele><time>2026-04-26T10:50:27Z</time></trkpt><trkpt lat="43.34977364584379" lon="12.83538383129913"><ele>379.6666666666667</ele><time>2026-04-26T10:50:28Z</time></trkpt><trkpt lat="43.34972709841217" lon="12.835645827164475"><ele>380.0</ele><time>2026-04-26T10:50:29Z</time></trkpt><trkpt lat="43.34967547936943" lon="12.835899746794368"><ele>379.33333333333337</ele><time>2026-04-26T10:50:30Z</time></trkpt><trkpt lat="43.34961160092807" lon="12.836134916138075"><ele>378.6666666666667</ele><time>2026-04-26T10:50:31Z</time></trkpt><trkpt lat="43.34953816361893" lon="12.836366689359203"><ele>378.0</ele><time>2026-04-26T10:50:32Z</time></trkpt><trkpt lat="43.349452802883086" lon="12.836587201915252"><ele>378.0</ele><time>2026-04-26T10:50:33Z</time></trkpt><trkpt lat="43.349357020258715" lon="12.836794872518068"><ele>378.0</ele><time>2026-04-26T10:50:34Z</time></trkpt><trkpt lat="43.349248488698706" lon="12.836985874714506"><ele>378.0</ele><time>2026-04-26T10:50:35Z</time></trkpt><trkpt lat="43.34913523142123" lon="12.837166186745174"><ele>376.6666666666667</ele><time>2026-04-26T10:50:36Z</time></trkpt><trkpt lat="43.34901612290266" lon="12.83733456075087"><ele>375.33333333333337</ele><time>2026-04-26T10:50:37Z</time></trkpt><trkpt lat="43.348886655909716" lon="12.837482580857834"><ele>374.0</ele><time>2026-04-26T10:50:38Z</time></trkpt><trkpt lat="43.34876169144313" lon="12.837628196409407"><ele>374.0</ele><time>2026-04-26T10:50:39Z</time></trkpt><trkpt lat="43.348637967298586" lon="12.837776803082113"><ele>374.0</ele><time>2026-04-26T10:50:40Z</time></trkpt><trkpt lat="43.34851217029857" lon="12.837919767121365"><ele>374.0</ele><time>2026-04-26T10:50:41Z</time></trkpt><trkpt lat="43.348389133614035" lon="12.83806321000573"><ele>374.0</ele><time>2026-04-26T10:50:42Z</time></trkpt><trkpt lat="43.34826680626119" lon="12.838208502946209"><ele>374.0</ele><time>2026-04-26T10:50:43Z</time></trkpt><trkpt lat="43.34814048689745" lon="12.838346986206341"><ele>374.0</ele><time>2026-04-26T10:50:44Z</time></trkpt><trkpt lat="43.34801698688007" lon="12.838490169668773"><ele>372.6666666666667</ele><time>2026-04-26T10:50:45Z</time></trkpt><trkpt lat="43.34789213930212" lon="12.838633281001997"><ele>371.3333333333333</ele><time>2026-04-26T10:50:46Z</time></trkpt><trkpt lat="43.34776947557881" lon="12.838773393581166"><ele>370.0</ele><time>2026-04-26T10:50:47Z</time></trkpt><trkpt lat="43.34764777679926" lon="12.838916462428607"><ele>370.0</ele><time>2026-04-26T10:50:48Z</time></trkpt><trkpt lat="43.34753126700968" lon="12.839067788100328"><ele>370.0</ele><time>2026-04-26T10:50:49Z</time></trkpt><trkpt lat="43.34741613454531" lon="12.839216666834727"><ele>370.0</ele><time>2026-04-26T10:50:50Z</time></trkpt><trkpt lat="43.347312257014515" lon="12.839377681165224"><ele>369.3333333333333</ele><time>2026-04-26T10:50:51Z</time></trkpt><trkpt lat="43.34722729848846" lon="12.83956343206613"><ele>368.6666666666667</ele><time>2026-04-26T10:50:52Z</time></trkpt><trkpt lat="43.34716548548959" lon="12.83976130151891"><ele>368.0</ele><time>2026-04-26T10:50:53Z</time></trkpt><trkpt lat="43.34712231283064" lon="12.839966155972432"><ele>368.0</ele><time>2026-04-26T10:50:54Z</time></trkpt><trkpt lat="43.34710557463236" lon="12.840177756728723"><ele>368.0</ele><time>2026-04-26T10:50:55Z</time></trkpt><trkpt lat="43.34710348570657" lon="12.840397377491298"><ele>368.0</ele><time>2026-04-26T10:50:56Z</time></trkpt><trkpt lat="43.34711928629175" lon="12.84065484978373"><ele>368.0</ele><time>2026-04-26T10:50:57Z</time></trkpt><trkpt lat="43.34712157856968" lon="12.840929690476626"><ele>368.0</ele><time>2026-04-26T10:50:58Z</time></trkpt><trkpt lat="43.3471307237288" lon="12.841229660252548"><ele>368.0</ele><time>2026-04-26T10:50:59Z</time></trkpt><trkpt lat="43.34714815262148" lon="12.841548762713973"><ele>367.0</ele><time>2026-04-26T10:51:00Z</time></trkpt><trkpt lat="43.34714284637932" lon="12.841873310911618"><ele>366.0</ele><time>2026-04-26T10:51:01Z</time></trkpt><trkpt lat="43.34714860223124" lon="12.84220323944807"><ele>366.0</ele><time>2026-04-26T10:51:02Z</time></trkpt><trkpt lat="43.347165445948704" lon="12.8425389941358"><ele>366.0</ele><time>2026-04-26T10:51:03Z</time></trkpt><trkpt lat="43.34718083420792" lon="12.842867073922035"><ele>365.5</ele><time>2026-04-26T10:51:04Z</time></trkpt><trkpt lat="43.347188812356684" lon="12.843184509109422"><ele>365.0</ele><time>2026-04-26T10:51:05Z</time></trkpt><trkpt lat="43.34718159581363" lon="12.843501878236067"><ele>365.0</ele><time>2026-04-26T10:51:06Z</time></trkpt><trkpt lat="43.34715569559075" lon="12.843814436488707"><ele>365.0</ele><time>2026-04-26T10:51:07Z</time></trkpt><trkpt lat="43.34710944794646" lon="12.844119908908398"><ele>363.6666666666667</ele><time>2026-04-26T10:51:08Z</time></trkpt><trkpt lat="43.34704165724329" lon="12.84440880895935"><ele>362.3333333333333</ele><time>2026-04-26T10:51:09Z</time></trkpt><trkpt lat="43.34695030259678" lon="12.84468542725299"><ele>361.0</ele><time>2026-04-26T10:51:10Z</time></trkpt><trkpt lat="43.34683674990585" lon="12.844942670379433"><ele>361.0</ele><time>2026-04-26T10:51:11Z</time></trkpt><trkpt lat="43.34671446508898" lon="12.845188240183507"><ele>361.0</ele><time>2026-04-26T10:51:12Z</time></trkpt><trkpt lat="43.34659264040245" lon="12.845432744849134"><ele>361.0</ele><time>2026-04-26T10:51:13Z</time></trkpt><trkpt lat="43.346474662968554" lon="12.845675573509117"><ele>361.0</ele><time>2026-04-26T10:51:14Z</time></trkpt><trkpt lat="43.34635667484873" lon="12.845914801795967"><ele>361.0</ele><time>2026-04-26T10:51:15Z</time></trkpt><trkpt lat="43.34623794988616" lon="12.846154908694093"><ele>361.0</ele><time>2026-04-26T10:51:16Z</time></trkpt><trkpt lat="43.34612011452207" lon="12.846397447763223"><ele>361.0</ele><time>2026-04-26T10:51:17Z</time></trkpt><trkpt lat="43.346003688158724" lon="12.846638246438358"><ele>361.0</ele><time>2026-04-26T10:51:18Z</time></trkpt><trkpt lat="43.345890126747165" lon="12.846878624902164"><ele>361.0</ele><time>2026-04-26T10:51:19Z</time></trkpt><trkpt lat="43.34577703404242" lon="12.847120923644665"><ele>360.66666666666663</ele><time>2026-04-26T10:51:20Z</time></trkpt><trkpt lat="43.34566877600691" lon="12.847359665335336"><ele>360.3333333333333</ele><time>2026-04-26T10:51:21Z</time></trkpt><trkpt lat="43.34556794340262" lon="12.847588531810464"><ele>360.0</ele><time>2026-04-26T10:51:22Z</time></trkpt><trkpt lat="43.34547822347381" lon="12.8477906816006"><ele>359.0</ele><time>2026-04-26T10:51:23Z</time></trkpt><trkpt lat="43.34540628912343" lon="12.847971210113768"><ele>358.0</ele><time>2026-04-26T10:51:24Z</time></trkpt><trkpt lat="43.345361369827266" lon="12.84813002305072"><ele>357.0</ele><time>2026-04-26T10:51:25Z</time></trkpt><trkpt lat="43.34535079220773" lon="12.848281308279061"><ele>356.0</ele><time>2026-04-26T10:51:26Z</time></trkpt><trkpt lat="43.345380282180706" lon="12.84842585195638"><ele>356.0</ele><time>2026-04-26T10:51:27Z</time></trkpt><trkpt lat="43.345439664212485" lon="12.848557085341577"><ele>356.0</ele><time>2026-04-26T10:51:28Z</time></trkpt><trkpt lat="43.34549090753434" lon="12.848696188057753"><ele>356.0</ele><time>2026-04-26T10:51:29Z</time></trkpt><trkpt lat="43.3455105798669" lon="12.848849009796812"><ele>356.0</ele><time>2026-04-26T10:51:30Z</time></trkpt><trkpt lat="43.345492603748085" lon="12.849017584127914"><ele>356.0</ele><time>2026-04-26T10:51:31Z</time></trkpt><trkpt lat="43.34545464673919" lon="12.849198940380534"><ele>356.0</ele><time>2026-04-26T10:51:32Z</time></trkpt><trkpt lat="43.34541791601851" lon="12.849370078899714"><ele>356.0</ele><time>2026-04-26T10:51:33Z</time></trkpt><trkpt lat="43.34539242477824" lon="12.849554001642035"><ele>356.0</ele><time>2026-04-26T10:51:34Z</time></trkpt><trkpt lat="43.34538317376138" lon="12.849747404965637"><ele>355.33333333333337</ele><time>2026-04-26T10:51:35Z</time></trkpt><trkpt lat="43.34540219929603" lon="12.849948847265628"><ele>354.6666666666667</ele><time>2026-04-26T10:51:36Z</time></trkpt><trkpt lat="43.34543141343571" lon="12.85015309769913"><ele>354.0</ele><time>2026-04-26T10:51:37Z</time></trkpt><trkpt lat="43.345467375446695" lon="12.850366950845936"><ele>354.0</ele><time>2026-04-26T10:51:38Z</time></trkpt><trkpt lat="43.345501164633205" lon="12.850586423213153"><ele>354.0</ele><time>2026-04-26T10:51:39Z</time></trkpt><trkpt lat="43.34553749537362" lon="12.850811471901347"><ele>354.0</ele><time>2026-04-26T10:51:40Z</time></trkpt><trkpt lat="43.34557631490638" lon="12.85104102947159"><ele>353.6666666666667</ele><time>2026-04-26T10:51:41Z</time></trkpt><trkpt lat="43.3456219765788" lon="12.851276451289172"><ele>353.33333333333337</ele><time>2026-04-26T10:51:42Z</time></trkpt><trkpt lat="43.34566147120376" lon="12.851518265076011"><ele>353.0</ele><time>2026-04-26T10:51:43Z</time></trkpt><trkpt lat="43.34569945061979" lon="12.851767909849036"><ele>352.33333333333337</ele><time>2026-04-26T10:51:44Z</time></trkpt><trkpt lat="43.34573622148286" lon="12.852019823273762"><ele>351.6666666666667</ele><time>2026-04-26T10:51:45Z</time></trkpt><trkpt lat="43.345774703266414" lon="12.852274425957159"><ele>351.0</ele><time>2026-04-26T10:51:46Z</time></trkpt><trkpt lat="43.345818398248916" lon="12.852529416536422"><ele>351.0</ele><time>2026-04-26T10:51:47Z</time></trkpt><trkpt lat="43.34586154873442" lon="12.852788310669094"><ele>351.0</ele><time>2026-04-26T10:51:48Z</time></trkpt><trkpt lat="43.34590480024797" lon="12.853044117168865"><ele>351.0</ele><time>2026-04-26T10:51:49Z</time></trkpt><trkpt lat="43.34595058946705" lon="12.853300901448286"><ele>350.6666666666667</ele><time>2026-04-26T10:51:50Z</time></trkpt><trkpt lat="43.3459918599652" lon="12.853560656529053"><ele>350.33333333333337</ele><time>2026-04-26T10:51:51Z</time></trkpt><trkpt lat="43.346034622477866" lon="12.853826242464113"><ele>350.0</ele><time>2026-04-26T10:51:52Z</time></trkpt><trkpt lat="43.346077164211145" lon="12.854093080189433"><ele>350.6666666666667</ele><time>2026-04-26T10:51:53Z</time></trkpt><trkpt lat="43.34612249065482" lon="12.854362631200491"><ele>351.3333333333333</ele><time>2026-04-26T10:51:54Z</time></trkpt><trkpt lat="43.3461644936594" lon="12.854631908424842"><ele>352.0</ele><time>2026-04-26T10:51:55Z</time></trkpt><trkpt lat="43.34621658152611" lon="12.854901886206695"><ele>351.0</ele><time>2026-04-26T10:51:56Z</time></trkpt><trkpt lat="43.346263579074304" lon="12.85516106136005"><ele>350.0</ele><time>2026-04-26T10:51:57Z</time></trkpt><trkpt lat="43.34629785152204" lon="12.85539387850435"><ele>349.0</ele><time>2026-04-26T10:51:58Z</time></trkpt><trkpt lat="43.34631188344975" lon="12.855632462351243"><ele>349.0</ele><time>2026-04-26T10:51:59Z</time></trkpt><trkpt lat="43.346293704307286" lon="12.855878461355962"><ele>349.0</ele><time>2026-04-26T10:52:00Z</time></trkpt><trkpt lat="43.34624781116373" lon="12.856122862932807"><ele>349.0</ele><time>2026-04-26T10:52:01Z</time></trkpt><trkpt lat="43.34619120243539" lon="12.856371419162143"><ele>348.66666666666663</ele><time>2026-04-26T10:52:02Z</time></trkpt><trkpt lat="43.34613940821639" lon="12.856624000847061"><ele>348.3333333333333</ele><time>2026-04-26T10:52:03Z</time></trkpt><trkpt lat="43.346087862853956" lon="12.856882645257597"><ele>348.0</ele><time>2026-04-26T10:52:04Z</time></trkpt><trkpt lat="43.346033078656795" lon="12.857147319014336"><ele>348.0</ele><time>2026-04-26T10:52:05Z</time></trkpt><trkpt lat="43.345977722584486" lon="12.857412972213618"><ele>348.0</ele><time>2026-04-26T10:52:06Z</time></trkpt><trkpt lat="43.34592543622516" lon="12.857679438456374"><ele>348.0</ele><time>2026-04-26T10:52:07Z</time></trkpt><trkpt lat="43.34587326580451" lon="12.857948296507374"><ele>348.3333333333333</ele><time>2026-04-26T10:52:08Z</time></trkpt><trkpt lat="43.34582066951932" lon="12.858222272941278"><ele>348.66666666666663</ele><time>2026-04-26T10:52:09Z</time></trkpt><trkpt lat="43.34576771379463" lon="12.858496482023744"><ele>349.0</ele><time>2026-04-26T10:52:10Z</time></trkpt><trkpt lat="43.3457176876736" lon="12.858772666761354"><ele>348.0</ele><time>2026-04-26T10:52:11Z</time></trkpt><trkpt lat="43.34566860509771" lon="12.859044597855922"><ele>347.0</ele><time>2026-04-26T10:52:12Z</time></trkpt><trkpt lat="43.34561683941711" lon="12.859315300346822"><ele>346.0</ele><time>2026-04-26T10:52:13Z</time></trkpt><trkpt lat="43.34556400202563" lon="12.85958314021337"><ele>346.0</ele><time>2026-04-26T10:52:14Z</time></trkpt><trkpt lat="43.34550995868041" lon="12.85985695803028"><ele>346.0</ele><time>2026-04-26T10:52:15Z</time></trkpt><trkpt lat="43.34545804520026" lon="12.860131692914903"><ele>346.0</ele><time>2026-04-26T10:52:16Z</time></trkpt><trkpt lat="43.34541106846035" lon="12.860409113148972"><ele>346.0</ele><time>2026-04-26T10:52:17Z</time></trkpt><trkpt lat="43.34537568009105" lon="12.860693496886718"><ele>346.0</ele><time>2026-04-26T10:52:18Z</time></trkpt><trkpt lat="43.34534647604703" lon="12.860978925115619"><ele>346.0</ele><time>2026-04-26T10:52:19Z</time></trkpt><trkpt lat="43.34531825797804" lon="12.861264342092651"><ele>346.0</ele><time>2026-04-26T10:52:20Z</time></trkpt><trkpt lat="43.34529321229486" lon="12.861552213359158"><ele>346.0</ele><time>2026-04-26T10:52:21Z</time></trkpt><trkpt lat="43.34526919937323" lon="12.861838615896728"><ele>346.0</ele><time>2026-04-26T10:52:22Z</time></trkpt><trkpt lat="43.345242598455314" lon="12.862125022101717"><ele>346.0</ele><time>2026-04-26T10:52:23Z</time></trkpt><trkpt lat="43.345215509112656" lon="12.862409016187055"><ele>346.0</ele><time>2026-04-26T10:52:24Z</time></trkpt><trkpt lat="43.34519052280881" lon="12.86269244808119"><ele>346.0</ele><time>2026-04-26T10:52:25Z</time></trkpt><trkpt lat="43.34516659877513" lon="12.862974489208275"><ele>346.0</ele><time>2026-04-26T10:52:26Z</time></trkpt><trkpt lat="43.34514629566608" lon="12.863256412216392"><ele>346.0</ele><time>2026-04-26T10:52:27Z</time></trkpt><trkpt lat="43.34512692900506" lon="12.863538804454732"><ele>346.0</ele><time>2026-04-26T10:52:28Z</time></trkpt><trkpt lat="43.3451104275094" lon="12.863820960996453"><ele>345.3333333333333</ele><time>2026-04-26T10:52:29Z</time></trkpt><trkpt lat="43.34510659306831" lon="12.864102987281576"><ele>344.6666666666667</ele><time>2026-04-26T10:52:30Z</time></trkpt><trkpt lat="43.34512619562348" lon="12.86438793152923"><ele>344.0</ele><time>2026-04-26T10:52:31Z</time></trkpt><trkpt lat="43.34516372453146" lon="12.864671046568713"><ele>344.0</ele><time>2026-04-26T10:52:32Z</time></trkpt><trkpt lat="43.34520779249153" lon="12.864960032814482"><ele>344.0</ele><time>2026-04-26T10:52:33Z</time></trkpt><trkpt lat="43.34525050125714" lon="12.865253252926603"><ele>344.0</ele><time>2026-04-26T10:52:34Z</time></trkpt><trkpt lat="43.345293011221116" lon="12.865545054429463"><ele>344.0</ele><time>2026-04-26T10:52:35Z</time></trkpt><trkpt lat="43.345339220872155" lon="12.865838255512648"><ele>344.0</ele><time>2026-04-26T10:52:36Z</time></trkpt><trkpt lat="43.34538371290419" lon="12.866128094784198"><ele>344.0</ele><time>2026-04-26T10:52:37Z</time></trkpt><trkpt lat="43.345421456604626" lon="12.866419148616991"><ele>343.6666666666667</ele><time>2026-04-26T10:52:38Z</time></trkpt><trkpt lat="43.34546546819134" lon="12.8667131906221"><ele>343.3333333333333</ele><time>2026-04-26T10:52:39Z</time></trkpt><trkpt lat="43.345509829196125" lon="12.867005498500644"><ele>343.0</ele><time>2026-04-26T10:52:40Z</time></trkpt><trkpt lat="43.34555059157721" lon="12.86727899959749"><ele>342.0</ele><time>2026-04-26T10:52:41Z</time></trkpt><trkpt lat="43.345586419651646" lon="12.867540589217601"><ele>341.0</ele><time>2026-04-26T10:52:42Z</time></trkpt><trkpt lat="43.34562312329085" lon="12.867790804614788"><ele>340.0</ele><time>2026-04-26T10:52:43Z</time></trkpt><trkpt lat="43.345658980891194" lon="12.868029247718846"><ele>339.66666666666663</ele><time>2026-04-26T10:52:44Z</time></trkpt><trkpt lat="43.345695916968225" lon="12.868266849708451"><ele>339.3333333333333</ele><time>2026-04-26T10:52:45Z</time></trkpt><trkpt lat="43.34572929693605" lon="12.868513344841315"><ele>339.0</ele><time>2026-04-26T10:52:46Z</time></trkpt><trkpt lat="43.34576561908308" lon="12.86876409290547"><ele>338.6666666666667</ele><time>2026-04-26T10:52:47Z</time></trkpt><trkpt lat="43.34580225398196" lon="12.869017305291182"><ele>338.33333333333337</ele><time>2026-04-26T10:52:48Z</time></trkpt><trkpt lat="43.34583758597393" lon="12.86927443148541"><ele>338.0</ele><time>2026-04-26T10:52:49Z</time></trkpt><trkpt lat="43.34587599287194" lon="12.869535550460707"><ele>338.0</ele><time>2026-04-26T10:52:50Z</time></trkpt><trkpt lat="43.345914519552686" lon="12.869798539051308"><ele>338.0</ele><time>2026-04-26T10:52:51Z</time></trkpt><trkpt lat="43.34595350648206" lon="12.870061893484896"><ele>338.0</ele><time>2026-04-26T10:52:52Z</time></trkpt><trkpt lat="43.34599319193535" lon="12.870322460420224"><ele>338.0</ele><time>2026-04-26T10:52:53Z</time></trkpt><trkpt lat="43.3460294412161" lon="12.870580356652118"><ele>338.0</ele><time>2026-04-26T10:52:54Z</time></trkpt><trkpt lat="43.34606238951665" lon="12.870831946996104"><ele>338.0</ele><time>2026-04-26T10:52:55Z</time></trkpt><trkpt lat="43.346095155502546" lon="12.871080489118977"><ele>337.0</ele><time>2026-04-26T10:52:56Z</time></trkpt><trkpt lat="43.34612591065321" lon="12.871322744775194"><ele>336.0</ele><time>2026-04-26T10:52:57Z</time></trkpt><trkpt lat="43.346155223603134" lon="12.871569485281087"><ele>335.0</ele><time>2026-04-26T10:52:58Z</time></trkpt><trkpt lat="43.34618230599565" lon="12.87182203273628"><ele>334.0</ele><time>2026-04-26T10:52:59Z</time></trkpt><trkpt lat="43.346188956364294" lon="12.87207830603815"><ele>333.0</ele><time>2026-04-26T10:53:00Z</time></trkpt><trkpt lat="43.34618209943489" lon="12.872341225170347"><ele>332.0</ele><time>2026-04-26T10:53:01Z</time></trkpt><trkpt lat="43.346175586194796" lon="12.872610437062363"><ele>331.6666666666667</ele><time>2026-04-26T10:53:02Z</time></trkpt><trkpt lat="43.34617034613545" lon="12.872884099360371"><ele>331.3333333333333</ele><time>2026-04-26T10:53:03Z</time></trkpt><trkpt lat="43.34616738044711" lon="12.873164578109643"><ele>331.0</ele><time>2026-04-26T10:53:04Z</time></trkpt><trkpt lat="43.346163244274315" lon="12.873446208149678"><ele>330.66666666666663</ele><time>2026-04-26T10:53:05Z</time></trkpt><trkpt lat="43.34615562562741" lon="12.873738435854472"><ele>330.3333333333333</ele><time>2026-04-26T10:53:06Z</time></trkpt><trkpt lat="43.34612947952389" lon="12.8740001228635"><ele>330.0</ele><time>2026-04-26T10:53:07Z</time></trkpt><trkpt lat="43.34609918430396" lon="12.874265667712574"><ele>329.3333333333333</ele><time>2026-04-26T10:53:08Z</time></trkpt><trkpt lat="43.34606322823736" lon="12.874527305395748"><ele>328.66666666666663</ele><time>2026-04-26T10:53:09Z</time></trkpt><trkpt lat="43.34602068482264" lon="12.874790646215843"><ele>328.0</ele><time>2026-04-26T10:53:10Z</time></trkpt><trkpt lat="43.3459656369612" lon="12.875046000151894"><ele>327.0</ele><time>2026-04-26T10:53:11Z</time></trkpt><trkpt lat="43.34590297601199" lon="12.875301436073613"><ele>326.0</ele><time>2026-04-26T10:53:12Z</time></trkpt><trkpt lat="43.345834198601004" lon="12.875560037143881"><ele>325.0</ele><time>2026-04-26T10:53:13Z</time></trkpt><trkpt lat="43.345756644051896" lon="12.87581616599377"><ele>324.3333333333333</ele><time>2026-04-26T10:53:14Z</time></trkpt><trkpt lat="43.34567252621388" lon="12.87606715945327"><ele>323.6666666666667</ele><time>2026-04-26T10:53:15Z</time></trkpt><trkpt lat="43.3455878695831" lon="12.876316730080275"><ele>323.0</ele><time>2026-04-26T10:53:16Z</time></trkpt><trkpt lat="43.34551004315891" lon="12.87657293885581"><ele>324.6666666666667</ele><time>2026-04-26T10:53:17Z</time></trkpt><trkpt lat="43.345440178535775" lon="12.876832239800441"><ele>326.3333333333333</ele><time>2026-04-26T10:53:18Z</time></trkpt><trkpt lat="43.34537977219362" lon="12.877096591935766"><ele>328.0</ele><time>2026-04-26T10:53:19Z</time></trkpt><trkpt lat="43.34533153941667" lon="12.877368086815721"><ele>327.66666666666663</ele><time>2026-04-26T10:53:20Z</time></trkpt><trkpt lat="43.345291914507115" lon="12.8776397731135"><ele>327.3333333333333</ele><time>2026-04-26T10:53:21Z</time></trkpt><trkpt lat="43.34526140683121" lon="12.877914945906252"><ele>327.0</ele><time>2026-04-26T10:53:22Z</time></trkpt><trkpt lat="43.34524021384159" lon="12.87819209617218"><ele>326.6666666666667</ele><time>2026-04-26T10:53:23Z</time></trkpt><trkpt lat="43.34523114796244" lon="12.87846929107507"><ele>326.33333333333337</ele><time>2026-04-26T10:53:24Z</time></trkpt><trkpt lat="43.345228231068575" lon="12.878746492588014"><ele>326.0</ele><time>2026-04-26T10:53:25Z</time></trkpt><trkpt lat="43.345228893484084" lon="12.879021037597546"><ele>326.0</ele><time>2026-04-26T10:53:26Z</time></trkpt><trkpt lat="43.34523060665836" lon="12.879297355580418"><ele>326.0</ele><time>2026-04-26T10:53:27Z</time></trkpt><trkpt lat="43.34522896824824" lon="12.879573808406235"><ele>326.0</ele><time>2026-04-26T10:53:28Z</time></trkpt><trkpt lat="43.345227812872594" lon="12.879854283593033"><ele>326.0</ele><time>2026-04-26T10:53:29Z</time></trkpt><trkpt lat="43.34523218344677" lon="12.880143305192119"><ele>326.0</ele><time>2026-04-26T10:53:30Z</time></trkpt><trkpt lat="43.3452340670314" lon="12.880429575161552"><ele>326.0</ele><time>2026-04-26T10:53:31Z</time></trkpt><trkpt lat="43.34523207990874" lon="12.880717840404307"><ele>326.0</ele><time>2026-04-26T10:53:32Z</time></trkpt><trkpt lat="43.34523061228985" lon="12.881007538445564"><ele>326.0</ele><time>2026-04-26T10:53:33Z</time></trkpt><trkpt lat="43.34522919249543" lon="12.881301283357859"><ele>326.0</ele><time>2026-04-26T10:53:34Z</time></trkpt><trkpt lat="43.34522704800501" lon="12.88159692389962"><ele>326.0</ele><time>2026-04-26T10:53:35Z</time></trkpt><trkpt lat="43.34522327533101" lon="12.881893026936213"><ele>326.0</ele><time>2026-04-26T10:53:36Z</time></trkpt><trkpt lat="43.34521807553668" lon="12.882187333002754"><ele>326.0</ele><time>2026-04-26T10:53:37Z</time></trkpt><trkpt lat="43.345215840647164" lon="12.882479386216735"><ele>324.6666666666667</ele><time>2026-04-26T10:53:38Z</time></trkpt><trkpt lat="43.34521326463275" lon="12.88276557262404"><ele>323.3333333333333</ele><time>2026-04-26T10:53:39Z</time></trkpt><trkpt lat="43.34520948477297" lon="12.883031349609492"><ele>322.0</ele><time>2026-04-26T10:53:40Z</time></trkpt><trkpt lat="43.3452031452009" lon="12.883268991160042"><ele>321.3333333333333</ele><time>2026-04-26T10:53:41Z</time></trkpt><trkpt lat="43.34518270583297" lon="12.883494092104623"><ele>320.6666666666667</ele><time>2026-04-26T10:53:42Z</time></trkpt><trkpt lat="43.34513690282503" lon="12.883723812130679"><ele>320.0</ele><time>2026-04-26T10:53:43Z</time></trkpt><trkpt lat="43.345071200234614" lon="12.88395882279633"><ele>320.0</ele><time>2026-04-26T10:53:44Z</time></trkpt><trkpt lat="43.3449885156974" lon="12.884194023806907"><ele>320.0</ele><time>2026-04-26T10:53:45Z</time></trkpt><trkpt lat="43.344901528460035" lon="12.884437191975781"><ele>320.0</ele><time>2026-04-26T10:53:46Z</time></trkpt><trkpt lat="43.34481680517387" lon="12.88468084873675"><ele>320.0</ele><time>2026-04-26T10:53:47Z</time></trkpt><trkpt lat="43.34473417156439" lon="12.884924149206645"><ele>320.0</ele><time>2026-04-26T10:53:48Z</time></trkpt><trkpt lat="43.34465484559031" lon="12.88517002537036"><ele>320.0</ele><time>2026-04-26T10:53:49Z</time></trkpt><trkpt lat="43.34457813257574" lon="12.885418723999273"><ele>320.0</ele><time>2026-04-26T10:53:50Z</time></trkpt><trkpt lat="43.34450730996623" lon="12.88567380536064"><ele>320.0</ele><time>2026-04-26T10:53:51Z</time></trkpt><trkpt lat="43.34445748519061" lon="12.88593905751646"><ele>320.0</ele><time>2026-04-26T10:53:52Z</time></trkpt><trkpt lat="43.344418052060476" lon="12.886207000700256"><ele>319.0</ele><time>2026-04-26T10:53:53Z</time></trkpt><trkpt lat="43.34436127235205" lon="12.88646686354522"><ele>318.0</ele><time>2026-04-26T10:53:54Z</time></trkpt><trkpt lat="43.344313666823766" lon="12.886725352970544"><ele>317.0</ele><time>2026-04-26T10:53:55Z</time></trkpt><trkpt lat="43.34435075907221" lon="12.887014724635925"><ele>317.0</ele><time>2026-04-26T10:53:56Z</time></trkpt><trkpt lat="43.344309082496785" lon="12.887276320726945"><ele>317.0</ele><time>2026-04-26T10:53:57Z</time></trkpt><trkpt lat="43.34425395290365" lon="12.887529728456709"><ele>317.0</ele><time>2026-04-26T10:53:58Z</time></trkpt><trkpt lat="43.34418368341936" lon="12.887775694459208"><ele>318.0</ele><time>2026-04-26T10:53:59Z</time></trkpt><trkpt lat="43.34410336073078" lon="12.888016900657966"><ele>319.0</ele><time>2026-04-26T10:54:00Z</time></trkpt><trkpt lat="43.34401788568736" lon="12.88826130349918"><ele>320.0</ele><time>2026-04-26T10:54:01Z</time></trkpt><trkpt lat="43.343935997668915" lon="12.888496462484515"><ele>319.6666666666667</ele><time>2026-04-26T10:54:02Z</time></trkpt><trkpt lat="43.34385966764019" lon="12.888733518242915"><ele>319.3333333333333</ele><time>2026-04-26T10:54:03Z</time></trkpt><trkpt lat="43.34378499619426" lon="12.888967399276494"><ele>319.0</ele><time>2026-04-26T10:54:04Z</time></trkpt><trkpt lat="43.34371451647076" lon="12.88920531376418"><ele>318.3333333333333</ele><time>2026-04-26T10:54:05Z</time></trkpt><trkpt lat="43.34365623350479" lon="12.88945372958519"><ele>317.6666666666667</ele><time>2026-04-26T10:54:06Z</time></trkpt><trkpt lat="43.343626430005166" lon="12.889711825423428"><ele>317.0</ele><time>2026-04-26T10:54:07Z</time></trkpt><trkpt lat="43.343610020579426" lon="12.889978064182648"><ele>316.33333333333337</ele><time>2026-04-26T10:54:08Z</time></trkpt><trkpt lat="43.343609977490786" lon="12.890245066950637"><ele>315.6666666666667</ele><time>2026-04-26T10:54:09Z</time></trkpt><trkpt lat="43.3436083091004" lon="12.890508944738714"><ele>315.0</ele><time>2026-04-26T10:54:10Z</time></trkpt><trkpt lat="43.34360906051231" lon="12.890774017454591"><ele>315.3333333333333</ele><time>2026-04-26T10:54:11Z</time></trkpt><trkpt lat="43.34361086180425" lon="12.891037450143633"><ele>315.66666666666663</ele><time>2026-04-26T10:54:12Z</time></trkpt><trkpt lat="43.34361101654149" lon="12.891292267743035"><ele>316.0</ele><time>2026-04-26T10:54:13Z</time></trkpt><trkpt lat="43.343612961754275" lon="12.891535097959451"><ele>316.0</ele><time>2026-04-26T10:54:14Z</time></trkpt><trkpt lat="43.343615691710994" lon="12.891767635061338"><ele>316.0</ele><time>2026-04-26T10:54:15Z</time></trkpt><trkpt lat="43.34361438859059" lon="12.891990786777225"><ele>316.0</ele><time>2026-04-26T10:54:16Z</time></trkpt><trkpt lat="43.34361158749164" lon="12.892205154506392"><ele>316.0</ele><time>2026-04-26T10:54:17Z</time></trkpt><trkpt lat="43.343617719285255" lon="12.89241308302927"><ele>316.0</ele><time>2026-04-26T10:54:18Z</time></trkpt><trkpt lat="43.34361611746429" lon="12.892614154497265"><ele>316.0</ele><time>2026-04-26T10:54:19Z</time></trkpt><trkpt lat="43.34360240372547" lon="12.892811230544686"><ele>316.0</ele><time>2026-04-26T10:54:20Z</time></trkpt><trkpt lat="43.343574973668225" lon="12.892993158036969"><ele>316.0</ele><time>2026-04-26T10:54:21Z</time></trkpt><trkpt lat="43.34354047702087" lon="12.893154947681289"><ele>316.0</ele><time>2026-04-26T10:54:22Z</time></trkpt><trkpt lat="43.34350341909284" lon="12.89329069463443"><ele>316.0</ele><time>2026-04-26T10:54:23Z</time></trkpt><trkpt lat="43.34345102741305" lon="12.893391907601249"><ele>316.0</ele><time>2026-04-26T10:54:24Z</time></trkpt><trkpt lat="43.343379197451824" lon="12.893482660742372"><ele>316.0</ele><time>2026-04-26T10:54:25Z</time></trkpt><trkpt lat="43.34327773037702" lon="12.893550409472269"><ele>315.0</ele><time>2026-04-26T10:54:26Z</time></trkpt><trkpt lat="43.3431885101781" lon="12.89363274574008"><ele>314.0</ele><time>2026-04-26T10:54:27Z</time></trkpt><trkpt lat="43.343137517633" lon="12.893762594149324"><ele>313.0</ele><time>2026-04-26T10:54:28Z</time></trkpt><trkpt lat="43.343112687365696" lon="12.893924733695266"><ele>312.0</ele><time>2026-04-26T10:54:29Z</time></trkpt><trkpt lat="43.34309799466671" lon="12.894093846346436"><ele>312.0</ele><time>2026-04-26T10:54:30Z</time></trkpt><trkpt lat="43.3430924137467" lon="12.894243694141421"><ele>312.0</ele><time>2026-04-26T10:54:31Z</time></trkpt><trkpt lat="43.34310080903873" lon="12.89438445669307"><ele>312.0</ele><time>2026-04-26T10:54:32Z</time></trkpt><trkpt lat="43.34311153507347" lon="12.894535667993662"><ele>312.0</ele><time>2026-04-26T10:54:33Z</time></trkpt><trkpt lat="43.34310492419146" lon="12.894692766567102"><ele>312.0</ele><time>2026-04-26T10:54:34Z</time></trkpt><trkpt lat="43.343085859406195" lon="12.89485119641609"><ele>312.25</ele><time>2026-04-26T10:54:35Z</time></trkpt><trkpt lat="43.343049198567314" lon="12.8950027123336"><ele>312.5</ele><time>2026-04-26T10:54:36Z</time></trkpt><trkpt lat="43.34298888418785" lon="12.895141312022325"><ele>312.75</ele><time>2026-04-26T10:54:37Z</time></trkpt><trkpt lat="43.34291082241915" lon="12.895268952836464"><ele>313.0</ele><time>2026-04-26T10:54:38Z</time></trkpt><trkpt lat="43.34282591600211" lon="12.895392829994703"><ele>314.75</ele><time>2026-04-26T10:54:39Z</time></trkpt><trkpt lat="43.34273613978322" lon="12.895512197531794"><ele>316.5</ele><time>2026-04-26T10:54:40Z</time></trkpt><trkpt lat="43.342643225162675" lon="12.895626621516898"><ele>318.25</ele><time>2026-04-26T10:54:41Z</time></trkpt><trkpt lat="43.34255338621921" lon="12.895740341126155"><ele>320.0</ele><time>2026-04-26T10:54:42Z</time></trkpt><trkpt lat="43.34247199724401" lon="12.895836735812138"><ele>320.0</ele><time>2026-04-26T10:54:43Z</time></trkpt><trkpt lat="43.3423988898456" lon="12.895899141866213"><ele>320.0</ele><time>2026-04-26T10:54:44Z</time></trkpt><trkpt lat="43.34233129302874" lon="12.895925714342559"><ele>320.0</ele><time>2026-04-26T10:54:45Z</time></trkpt><trkpt lat="43.342249010925876" lon="12.895917651865501"><ele>320.0</ele><time>2026-04-26T10:54:46Z</time></trkpt><trkpt lat="43.34217376719708" lon="12.895902573675777"><ele>320.0</ele><time>2026-04-26T10:54:47Z</time></trkpt><trkpt lat="43.34209826958314" lon="12.895936211493629"><ele>320.0</ele><time>2026-04-26T10:54:48Z</time></trkpt><trkpt lat="43.34203524843382" lon="12.896019642325719"><ele>321.0</ele><time>2026-04-26T10:54:49Z</time></trkpt><trkpt lat="43.3420018161923" lon="12.896123225284427"><ele>322.0</ele><time>2026-04-26T10:54:50Z</time></trkpt><trkpt lat="43.34200706334877" lon="12.896245154707803"><ele>323.0</ele><time>2026-04-26T10:54:51Z</time></trkpt><trkpt lat="43.34202892485597" lon="12.896361876218736"><ele>324.0</ele><time>2026-04-26T10:54:52Z</time></trkpt><trkpt lat="43.342021363919976" lon="12.896479127545478"><ele>325.0</ele><time>2026-04-26T10:54:53Z</time></trkpt><trkpt lat="43.34197353629553" lon="12.89658286321793"><ele>326.0</ele><time>2026-04-26T10:54:54Z</time></trkpt><trkpt lat="43.34190445915666" lon="12.896678427109617"><ele>326.20000000000005</ele><time>2026-04-26T10:54:55Z</time></trkpt><trkpt lat="43.34182792129662" lon="12.89677580107909"><ele>326.40000000000003</ele><time>2026-04-26T10:54:56Z</time></trkpt><trkpt lat="43.34175084068663" lon="12.896882690936602"><ele>326.6</ele><time>2026-04-26T10:54:57Z</time></trkpt><trkpt lat="43.341672420056234" lon="12.896994986523548"><ele>326.8</ele><time>2026-04-26T10:54:58Z</time></trkpt><trkpt lat="43.34159092926652" lon="12.897107002892222"><ele>327.0</ele><time>2026-04-26T10:54:59Z</time></trkpt><trkpt lat="43.34151080286733" lon="12.89722337709024"><ele>327.0</ele><time>2026-04-26T10:55:00Z</time></trkpt><trkpt lat="43.34143445026056" lon="12.897337672622603"><ele>327.0</ele><time>2026-04-26T10:55:01Z</time></trkpt><trkpt lat="43.34136784142672" lon="12.897436486626209"><ele>327.0</ele><time>2026-04-26T10:55:02Z</time></trkpt><trkpt lat="43.34130301486066" lon="12.897522727519636"><ele>327.0</ele><time>2026-04-26T10:55:03Z</time></trkpt><trkpt lat="43.3412398488294" lon="12.897602311719133"><ele>327.0</ele><time>2026-04-26T10:55:04Z</time></trkpt><trkpt lat="43.34117967752806" lon="12.897685994578616"><ele>327.8</ele><time>2026-04-26T10:55:05Z</time></trkpt><trkpt lat="43.341119185726626" lon="12.897771489780151"><ele>328.6</ele><time>2026-04-26T10:55:06Z</time></trkpt><trkpt lat="43.34106016232083" lon="12.897865082125934"><ele>329.40000000000003</ele><time>2026-04-26T10:55:07Z</time></trkpt><trkpt lat="43.34099928334963" lon="12.897955517692601"><ele>330.20000000000005</ele><time>2026-04-26T10:55:08Z</time></trkpt><trkpt lat="43.3409326464914" lon="12.898048791163696"><ele>331.0</ele><time>2026-04-26T10:55:09Z</time></trkpt><trkpt lat="43.34086311051564" lon="12.898138381528769"><ele>331.0</ele><time>2026-04-26T10:55:10Z</time></trkpt><trkpt lat="43.3407881473935" lon="12.898221862486647"><ele>331.0</ele><time>2026-04-26T10:55:11Z</time></trkpt><trkpt lat="43.34071856762457" lon="12.898299035543307"><ele>331.0</ele><time>2026-04-26T10:55:12Z</time></trkpt><trkpt lat="43.3406516719679" lon="12.898377332106325"><ele>331.0</ele><time>2026-04-26T10:55:13Z</time></trkpt><trkpt lat="43.34058902355486" lon="12.898447821270818"><ele>331.0</ele><time>2026-04-26T10:55:14Z</time></trkpt><trkpt lat="43.34053461936454" lon="12.898504495169837"><ele>331.0</ele><time>2026-04-26T10:55:15Z</time></trkpt><trkpt lat="43.34044498975461" lon="12.898535195114658"><ele>331.0</ele><time>2026-04-26T10:55:17Z</time></trkpt><trkpt lat="43.34037934729853" lon="12.898522150830965"><ele>331.0</ele><time>2026-04-26T10:55:19Z</time></trkpt><trkpt lat="43.34028075193278" lon="12.8984561160527"><ele>331.0</ele><time>2026-04-26T10:55:21Z</time></trkpt><trkpt lat="43.3401727640079" lon="12.898428171877734"><ele>331.0</ele><time>2026-04-26T10:55:23Z</time></trkpt><trkpt lat="43.34007993584671" lon="12.898481658521026"><ele>331.0</ele><time>2026-04-26T10:55:25Z</time></trkpt><trkpt lat="43.3399755646154" lon="12.898514507484009"><ele>331.0</ele><time>2026-04-26T10:55:27Z</time></trkpt><trkpt lat="43.33990212060775" lon="12.898511321679045"><ele>331.0</ele><time>2026-04-26T10:55:28Z</time></trkpt><trkpt lat="43.33982098649774" lon="12.898480784563986"><ele>331.0</ele><time>2026-04-26T10:55:29Z</time></trkpt><trkpt lat="43.33972313143886" lon="12.898447428589993"><ele>331.0</ele><time>2026-04-26T10:55:30Z</time></trkpt><trkpt lat="43.33961867761252" lon="12.898422698108488"><ele>331.0</ele><time>2026-04-26T10:55:31Z</time></trkpt><trkpt lat="43.339509838058966" lon="12.898406946975696"><ele>331.0</ele><time>2026-04-26T10:55:32Z</time></trkpt><trkpt lat="43.339397777477096" lon="12.898395464846022"><ele>331.0</ele><time>2026-04-26T10:55:33Z</time></trkpt><trkpt lat="43.33928753872271" lon="12.89839203234175"><ele>331.0</ele><time>2026-04-26T10:55:34Z</time></trkpt><trkpt lat="43.33918228234395" lon="12.898405847213818"><ele>331.0</ele><time>2026-04-26T10:55:35Z</time></trkpt><trkpt lat="43.33908207461755" lon="12.898441863136574"><ele>331.0</ele><time>2026-04-26T10:55:36Z</time></trkpt><trkpt lat="43.338973651414214" lon="12.898508542398165"><ele>331.0</ele><time>2026-04-26T10:55:37Z</time></trkpt><trkpt lat="43.3389034446936" lon="12.898607747816685"><ele>331.0</ele><time>2026-04-26T10:55:38Z</time></trkpt><trkpt lat="43.3388205198267" lon="12.898691204670033"><ele>331.0</ele><time>2026-04-26T10:55:39Z</time></trkpt><trkpt lat="43.33875304582307" lon="12.898795891903582"><ele>331.0</ele><time>2026-04-26T10:55:40Z</time></trkpt><trkpt lat="43.33868540146053" lon="12.898901107984706"><ele>331.0</ele><time>2026-04-26T10:55:41Z</time></trkpt><trkpt lat="43.33862241088723" lon="12.89900261405539"><ele>330.8333333333333</ele><time>2026-04-26T10:55:42Z</time></trkpt><trkpt lat="43.33855791920044" lon="12.899102536998315"><ele>330.66666666666663</ele><time>2026-04-26T10:55:43Z</time></trkpt><trkpt lat="43.33849407420721" lon="12.89920419201856"><ele>330.5</ele><time>2026-04-26T10:55:44Z</time></trkpt><trkpt lat="43.33843875048745" lon="12.899292010122167"><ele>330.3333333333333</ele><time>2026-04-26T10:55:45Z</time></trkpt><trkpt lat="43.33838615459859" lon="12.89936050803212"><ele>330.1666666666667</ele><time>2026-04-26T10:55:46Z</time></trkpt><trkpt lat="43.338330207147635" lon="12.899412477240137"><ele>330.0</ele><time>2026-04-26T10:55:47Z</time></trkpt><trkpt lat="43.338268409617804" lon="12.899457508894567"><ele>329.5714285714286</ele><time>2026-04-26T10:55:48Z</time></trkpt><trkpt lat="43.338204902273795" lon="12.899512846929598"><ele>329.14285714285717</ele><time>2026-04-26T10:55:49Z</time></trkpt><trkpt lat="43.33816979983822" lon="12.899600048286366"><ele>328.7142857142857</ele><time>2026-04-26T10:55:50Z</time></trkpt><trkpt lat="43.338152254145676" lon="12.899691093329492"><ele>328.28571428571433</ele><time>2026-04-26T10:55:51Z</time></trkpt><trkpt lat="43.33814179747132" lon="12.899787943405883"><ele>327.8571428571429</ele><time>2026-04-26T10:55:52Z</time></trkpt><trkpt lat="43.33813029797592" lon="12.899889780667138"><ele>327.42857142857144</ele><time>2026-04-26T10:55:53Z</time></trkpt><trkpt lat="43.338102048155406" lon="12.899986062075714"><ele>327.0</ele><time>2026-04-26T10:55:54Z</time></trkpt><trkpt lat="43.33810789778743" lon="12.900089647380712"><ele>327.0</ele><time>2026-04-26T10:55:55Z</time></trkpt><trkpt lat="43.33809762759527" lon="12.900186830292192"><ele>327.0</ele><time>2026-04-26T10:55:56Z</time></trkpt><trkpt lat="43.338081243359966" lon="12.900351301688723"><ele>327.0</ele><time>2026-04-26T10:55:58Z</time></trkpt><trkpt lat="43.33807188290427" lon="12.900445289414206"><ele>327.0</ele><time>2026-04-26T10:56:00Z</time></trkpt><trkpt lat="43.3379875471296" lon="12.900495568031763"><ele>327.0</ele><time>2026-04-26T10:56:02Z</time></trkpt><trkpt lat="43.33790197187461" lon="12.900473069212973"><ele>327.0</ele><time>2026-04-26T10:56:04Z</time></trkpt><trkpt lat="43.337783241465424" lon="12.90044012165123"><ele>327.0</ele><time>2026-04-26T10:56:06Z</time></trkpt><trkpt lat="43.33770331268236" lon="12.900429310229429"><ele>327.0</ele><time>2026-04-26T10:56:07Z</time></trkpt><trkpt lat="43.33761935037738" lon="12.900415498972993"><ele>327.0</ele><time>2026-04-26T10:56:08Z</time></trkpt><trkpt lat="43.33753900648265" lon="12.900404927826099"><ele>327.0</ele><time>2026-04-26T10:56:09Z</time></trkpt><trkpt lat="43.337467082168345" lon="12.900365645339935"><ele>327.0</ele><time>2026-04-26T10:56:10Z</time></trkpt><trkpt lat="43.3373875576665" lon="12.90034362805117"><ele>327.0</ele><time>2026-04-26T10:56:11Z</time></trkpt><trkpt lat="43.33730758260933" lon="12.900316519118656"><ele>327.0</ele><time>2026-04-26T10:56:12Z</time></trkpt><trkpt lat="43.337232906876096" lon="12.900286549920766"><ele>327.0</ele><time>2026-04-26T10:56:13Z</time></trkpt><trkpt lat="43.337161993749426" lon="12.900248198219535"><ele>327.0</ele><time>2026-04-26T10:56:14Z</time></trkpt><trkpt lat="43.33708292720944" lon="12.900205093545914"><ele>327.0</ele><time>2026-04-26T10:56:15Z</time></trkpt><trkpt lat="43.33700177180582" lon="12.900155377923943"><ele>327.0</ele><time>2026-04-26T10:56:16Z</time></trkpt><trkpt lat="43.33691606197999" lon="12.90010374782775"><ele>327.0</ele><time>2026-04-26T10:56:17Z</time></trkpt><trkpt lat="43.33682784317605" lon="12.900048446476124"><ele>326.0</ele><time>2026-04-26T10:56:18Z</time></trkpt><trkpt lat="43.33674018748308" lon="12.899992907444735"><ele>325.0</ele><time>2026-04-26T10:56:19Z</time></trkpt><trkpt lat="43.33664800959561" lon="12.899932897349148"><ele>324.0</ele><time>2026-04-26T10:56:20Z</time></trkpt><trkpt lat="43.336549118079475" lon="12.89986851628073"><ele>323.0</ele><time>2026-04-26T10:56:21Z</time></trkpt><trkpt lat="43.33645120578444" lon="12.899805582824044"><ele>322.0</ele><time>2026-04-26T10:56:22Z</time></trkpt><trkpt lat="43.33635239905734" lon="12.89974201915461"><ele>321.0</ele><time>2026-04-26T10:56:23Z</time></trkpt><trkpt lat="43.33625327753329" lon="12.899678252968798"><ele>320.0</ele><time>2026-04-26T10:56:24Z</time></trkpt><trkpt lat="43.33615667914945" lon="12.899616109952033"><ele>319.0</ele><time>2026-04-26T10:56:25Z</time></trkpt><trkpt lat="43.336065597180855" lon="12.89955751572108"><ele>318.0</ele><time>2026-04-26T10:56:26Z</time></trkpt><trkpt lat="43.33597268567414" lon="12.899509439552046"><ele>317.0</ele><time>2026-04-26T10:56:27Z</time></trkpt><trkpt lat="43.335889677494734" lon="12.899453719693646"><ele>317.0</ele><time>2026-04-26T10:56:28Z</time></trkpt><trkpt lat="43.33580683635672" lon="12.899397131903639"><ele>317.0</ele><time>2026-04-26T10:56:29Z</time></trkpt><trkpt lat="43.33572485967277" lon="12.899340553103706"><ele>317.0</ele><time>2026-04-26T10:56:30Z</time></trkpt><trkpt lat="43.33563850719133" lon="12.899290371916996"><ele>317.0</ele><time>2026-04-26T10:56:31Z</time></trkpt><trkpt lat="43.335555243213776" lon="12.89923747170684"><ele>317.0</ele><time>2026-04-26T10:56:32Z</time></trkpt><trkpt lat="43.335478093389554" lon="12.899187630247058"><ele>317.5</ele><time>2026-04-26T10:56:33Z</time></trkpt><trkpt lat="43.33540970747652" lon="12.899146710437241"><ele>318.0</ele><time>2026-04-26T10:56:34Z</time></trkpt><trkpt lat="43.33535168418071" lon="12.899105734576425"><ele>318.5</ele><time>2026-04-26T10:56:35Z</time></trkpt><trkpt lat="43.3352667352636" lon="12.899049131655945"><ele>319.0</ele><time>2026-04-26T10:56:36Z</time></trkpt><trkpt lat="43.335197658496455" lon="12.899037373148484"><ele>319.5</ele><time>2026-04-26T10:56:37Z</time></trkpt><trkpt lat="43.33512045041099" lon="12.899015954380602"><ele>320.0</ele><time>2026-04-26T10:56:38Z</time></trkpt><trkpt lat="43.3350350293472" lon="12.898977487911157"><ele>320.0</ele><time>2026-04-26T10:56:39Z</time></trkpt><trkpt lat="43.334931930331855" lon="12.899015720126428"><ele>320.0</ele><time>2026-04-26T10:56:40Z</time></trkpt><trkpt lat="43.33482782655594" lon="12.899011268755594"><ele>320.0</ele><time>2026-04-26T10:56:41Z</time></trkpt><trkpt lat="43.334723440478854" lon="12.899061438079096"><ele>320.0</ele><time>2026-04-26T10:56:42Z</time></trkpt><trkpt lat="43.334622107832914" lon="12.899089506128307"><ele>320.0</ele><time>2026-04-26T10:56:43Z</time></trkpt><trkpt lat="43.33452460730569" lon="12.899123353448712"><ele>320.0</ele><time>2026-04-26T10:56:44Z</time></trkpt><trkpt lat="43.33442887201157" lon="12.899156930683825"><ele>320.0</ele><time>2026-04-26T10:56:45Z</time></trkpt><trkpt lat="43.33433548803908" lon="12.899195316348079"><ele>320.0</ele><time>2026-04-26T10:56:46Z</time></trkpt><trkpt lat="43.3342409709586" lon="12.899229585045411"><ele>320.0</ele><time>2026-04-26T10:56:47Z</time></trkpt><trkpt lat="43.33414840401359" lon="12.899268076121475"><ele>320.0</ele><time>2026-04-26T10:56:48Z</time></trkpt><trkpt lat="43.33405608528487" lon="12.899301164633764"><ele>320.0</ele><time>2026-04-26T10:56:49Z</time></trkpt><trkpt lat="43.33396314229039" lon="12.899339549240882"><ele>320.0</ele><time>2026-04-26T10:56:50Z</time></trkpt><trkpt lat="43.33386346606845" lon="12.899374398251053"><ele>320.0</ele><time>2026-04-26T10:56:51Z</time></trkpt><trkpt lat="43.333761024192746" lon="12.899412842101587"><ele>320.0</ele><time>2026-04-26T10:56:52Z</time></trkpt><trkpt lat="43.3336573089192" lon="12.899457793087215"><ele>320.0</ele><time>2026-04-26T10:56:53Z</time></trkpt><trkpt lat="43.333563377605586" lon="12.899527640573876"><ele>322.2</ele><time>2026-04-26T10:56:54Z</time></trkpt><trkpt lat="43.33348134321772" lon="12.89962670255368"><ele>324.4</ele><time>2026-04-26T10:56:55Z</time></trkpt><trkpt lat="43.33341079782433" lon="12.89973943841243"><ele>326.6</ele><time>2026-04-26T10:56:56Z</time></trkpt><trkpt lat="43.33334274665341" lon="12.899849199815334"><ele>328.8</ele><time>2026-04-26T10:56:57Z</time></trkpt><trkpt lat="43.333261548099756" lon="12.89993495582707"><ele>331.0</ele><time>2026-04-26T10:56:58Z</time></trkpt><trkpt lat="43.33320276631821" lon="12.900047530233683"><ele>332.0</ele><time>2026-04-26T10:56:59Z</time></trkpt><trkpt lat="43.333133534925295" lon="12.900144950764222"><ele>333.0</ele><time>2026-04-26T10:57:00Z</time></trkpt><trkpt lat="43.33306482947863" lon="12.900236459653158"><ele>334.0</ele><time>2026-04-26T10:57:01Z</time></trkpt><trkpt lat="43.33300288204585" lon="12.900328052371522"><ele>335.0</ele><time>2026-04-26T10:57:02Z</time></trkpt><trkpt lat="43.332943983369816" lon="12.900421666424084"><ele>336.0</ele><time>2026-04-26T10:57:03Z</time></trkpt><trkpt lat="43.332889782542125" lon="12.90051353172012"><ele>336.5</ele><time>2026-04-26T10:57:04Z</time></trkpt><trkpt lat="43.33284176886124" lon="12.900607414095978"><ele>337.0</ele><time>2026-04-26T10:57:05Z</time></trkpt><trkpt lat="43.332799970132456" lon="12.90070600510947"><ele>337.5</ele><time>2026-04-26T10:57:06Z</time></trkpt><trkpt lat="43.33276208555616" lon="12.90080638316319"><ele>338.0</ele><time>2026-04-26T10:57:07Z</time></trkpt><trkpt lat="43.332727163151816" lon="12.900901975410275"><ele>338.5</ele><time>2026-04-26T10:57:08Z</time></trkpt><trkpt lat="43.33269534120793" lon="12.900988337238058"><ele>339.0</ele><time>2026-04-26T10:57:09Z</time></trkpt><trkpt lat="43.33265732074353" lon="12.901061958120481"><ele>339.1666666666667</ele><time>2026-04-26T10:57:10Z</time></trkpt><trkpt lat="43.33260509146627" lon="12.901118327357823"><ele>339.3333333333333</ele><time>2026-04-26T10:57:11Z</time></trkpt><trkpt lat="43.33251643079627" lon="12.901240747330837"><ele>339.5</ele><time>2026-04-26T10:57:13Z</time></trkpt><trkpt lat="43.3324801811648" lon="12.901324370101332"><ele>339.66666666666663</ele><time>2026-04-26T10:57:14Z</time></trkpt><trkpt lat="43.33243776285655" lon="12.901402701533147"><ele>339.8333333333333</ele><time>2026-04-26T10:57:15Z</time></trkpt><trkpt lat="43.332400039291734" lon="12.901472033170245"><ele>340.0</ele><time>2026-04-26T10:57:16Z</time></trkpt><trkpt lat="43.33230632264021" lon="12.901593982045263"><ele>340.0</ele><time>2026-04-26T10:57:18Z</time></trkpt><trkpt lat="43.33224094986527" lon="12.901667275267108"><ele>340.0</ele><time>2026-04-26T10:57:19Z</time></trkpt><trkpt lat="43.332168662349396" lon="12.901759556755744"><ele>340.0</ele><time>2026-04-26T10:57:20Z</time></trkpt><trkpt lat="43.3320859250512" lon="12.901848892813105"><ele>340.0</ele><time>2026-04-26T10:57:21Z</time></trkpt><trkpt lat="43.33199654127281" lon="12.90195147713613"><ele>340.0</ele><time>2026-04-26T10:57:22Z</time></trkpt><trkpt lat="43.331912936818846" lon="12.902055137350386"><ele>339.8333333333333</ele><time>2026-04-26T10:57:23Z</time></trkpt><trkpt lat="43.33183898345082" lon="12.902146718063578"><ele>339.66666666666663</ele><time>2026-04-26T10:57:24Z</time></trkpt><trkpt lat="43.331777442966576" lon="12.902219212602388"><ele>339.5</ele><time>2026-04-26T10:57:25Z</time></trkpt><trkpt lat="43.331727587495955" lon="12.902278688445408"><ele>339.3333333333333</ele><time>2026-04-26T10:57:26Z</time></trkpt><trkpt lat="43.33164352360958" lon="12.902351600795603"><ele>339.1666666666667</ele><time>2026-04-26T10:57:28Z</time></trkpt><trkpt lat="43.331605908317115" lon="12.902469378348679"><ele>339.0</ele><time>2026-04-26T10:57:30Z</time></trkpt><trkpt lat="43.3316355546104" lon="12.902563841395494"><ele>338.6</ele><time>2026-04-26T10:57:31Z</time></trkpt><trkpt lat="43.331694929763245" lon="12.902653964386662"><ele>338.2</ele><time>2026-04-26T10:57:32Z</time></trkpt><trkpt lat="43.33175405591045" lon="12.902756527014125"><ele>337.8</ele><time>2026-04-26T10:57:33Z</time></trkpt><trkpt lat="43.33181404037694" lon="12.902873490802987"><ele>337.40000000000003</ele><time>2026-04-26T10:57:34Z</time></trkpt><trkpt lat="43.331874225857284" lon="12.903003584943336"><ele>337.0</ele><time>2026-04-26T10:57:35Z</time></trkpt><trkpt lat="43.33193801299563" lon="12.90314004013359"><ele>337.0</ele><time>2026-04-26T10:57:36Z</time></trkpt><trkpt lat="43.332002178470375" lon="12.903278745575847"><ele>337.0</ele><time>2026-04-26T10:57:37Z</time></trkpt><trkpt lat="43.3320724783144" lon="12.903427241297132"><ele>337.0</ele><time>2026-04-26T10:57:38Z</time></trkpt><trkpt lat="43.33214193787429" lon="12.903585398504134"><ele>337.0</ele><time>2026-04-26T10:57:39Z</time></trkpt><trkpt lat="43.33221921725027" lon="12.903756087650775"><ele>336.5</ele><time>2026-04-26T10:57:40Z</time></trkpt><trkpt lat="43.332289453709" lon="12.903921677925323"><ele>336.0</ele><time>2026-04-26T10:57:41Z</time></trkpt><trkpt lat="43.33236446830587" lon="12.904076944150546"><ele>335.5</ele><time>2026-04-26T10:57:42Z</time></trkpt><trkpt lat="43.33244213512743" lon="12.90423663473312"><ele>335.0</ele><time>2026-04-26T10:57:43Z</time></trkpt><trkpt lat="43.332512412293454" lon="12.904400848452092"><ele>335.0</ele><time>2026-04-26T10:57:44Z</time></trkpt><trkpt lat="43.33258536352113" lon="12.904564536590513"><ele>335.0</ele><time>2026-04-26T10:57:45Z</time></trkpt><trkpt lat="43.33266200978863" lon="12.904732201662187"><ele>335.0</ele><time>2026-04-26T10:57:46Z</time></trkpt><trkpt lat="43.332746247346016" lon="12.904903920546719"><ele>335.0</ele><time>2026-04-26T10:57:47Z</time></trkpt><trkpt lat="43.33282180981236" lon="12.905080013913407"><ele>335.0</ele><time>2026-04-26T10:57:48Z</time></trkpt><trkpt lat="43.332900302784864" lon="12.905254841861785"><ele>335.0</ele><time>2026-04-26T10:57:49Z</time></trkpt><trkpt lat="43.332980535386234" lon="12.905429072004537"><ele>335.0</ele><time>2026-04-26T10:57:50Z</time></trkpt><trkpt lat="43.3330614066697" lon="12.905603471191682"><ele>334.5</ele><time>2026-04-26T10:57:51Z</time></trkpt><trkpt lat="43.33314145940184" lon="12.905781401340752"><ele>334.0</ele><time>2026-04-26T10:57:52Z</time></trkpt><trkpt lat="43.33322250085094" lon="12.905954598557166"><ele>333.5</ele><time>2026-04-26T10:57:53Z</time></trkpt><trkpt lat="43.333297958907444" lon="12.906113457443832"><ele>333.0</ele><time>2026-04-26T10:57:54Z</time></trkpt><trkpt lat="43.33336771420068" lon="12.90626437461557"><ele>332.75</ele><time>2026-04-26T10:57:55Z</time></trkpt><trkpt lat="43.333438426745786" lon="12.90640508707492"><ele>332.5</ele><time>2026-04-26T10:57:56Z</time></trkpt><trkpt lat="43.333506285205665" lon="12.906539216964472"><ele>332.25</ele><time>2026-04-26T10:57:57Z</time></trkpt><trkpt lat="43.33356927402122" lon="12.906665639399087"><ele>332.0</ele><time>2026-04-26T10:57:58Z</time></trkpt><trkpt lat="43.333623145282196" lon="12.906774101446054"><ele>332.8</ele><time>2026-04-26T10:57:59Z</time></trkpt><trkpt lat="43.333662972893364" lon="12.906865230843948"><ele>333.6</ele><time>2026-04-26T10:58:00Z</time></trkpt><trkpt lat="43.33368986388441" lon="12.90694863381086"><ele>334.40000000000003</ele><time>2026-04-26T10:58:01Z</time></trkpt><trkpt lat="43.3337091539378" lon="12.907100353641729"><ele>335.20000000000005</ele><time>2026-04-26T10:58:03Z</time></trkpt><trkpt lat="43.33378228614684" lon="12.907137604971032"><ele>336.0</ele><time>2026-04-26T10:58:05Z</time></trkpt><trkpt lat="43.33387884545851" lon="12.907015668041696"><ele>335.3333333333333</ele><time>2026-04-26T10:58:07Z</time></trkpt><trkpt lat="43.33393760673808" lon="12.906966787523329"><ele>334.6666666666667</ele><time>2026-04-26T10:58:08Z</time></trkpt><trkpt lat="43.3340158784356" lon="12.90692065740118"><ele>334.0</ele><time>2026-04-26T10:58:09Z</time></trkpt><trkpt lat="43.3341058272407" lon="12.906874869943271"><ele>333.33333333333337</ele><time>2026-04-26T10:58:10Z</time></trkpt><trkpt lat="43.33420101100346" lon="12.906825938391673"><ele>332.6666666666667</ele><time>2026-04-26T10:58:11Z</time></trkpt><trkpt lat="43.33428660943205" lon="12.906782401131945"><ele>332.0</ele><time>2026-04-26T10:58:12Z</time></trkpt><trkpt lat="43.33435970376162" lon="12.906731533359235"><ele>332.0</ele><time>2026-04-26T10:58:13Z</time></trkpt><trkpt lat="43.33444002678867" lon="12.906671803754188"><ele>332.0</ele><time>2026-04-26T10:58:14Z</time></trkpt><trkpt lat="43.334507513553525" lon="12.906614460030283"><ele>332.0</ele><time>2026-04-26T10:58:15Z</time></trkpt><trkpt lat="43.33456696323431" lon="12.90655592935049"><ele>332.0</ele><time>2026-04-26T10:58:16Z</time></trkpt><trkpt lat="43.334616664443445" lon="12.90649345016496"><ele>332.0</ele><time>2026-04-26T10:58:17Z</time></trkpt><trkpt lat="43.334676716051284" lon="12.906417157333134"><ele>332.0</ele><time>2026-04-26T10:58:18Z</time></trkpt><trkpt lat="43.33472543980842" lon="12.906354594141217"><ele>332.0</ele><time>2026-04-26T10:58:19Z</time></trkpt><trkpt lat="43.33478409142232" lon="12.90631397805916"><ele>332.0</ele><time>2026-04-26T10:58:20Z</time></trkpt><trkpt lat="43.33481554516539" lon="12.906235151644772"><ele>332.0</ele><time>2026-04-26T10:58:21Z</time></trkpt><trkpt lat="43.33490301237686" lon="12.906136445688885"><ele>332.0</ele><time>2026-04-26T10:58:23Z</time></trkpt><trkpt lat="43.33496482790196" lon="12.90602069632449"><ele>332.0</ele><time>2026-04-26T10:58:25Z</time></trkpt><trkpt lat="43.33499999616603" lon="12.905857495979424"><ele>332.0</ele><time>2026-04-26T10:58:27Z</time></trkpt><trkpt lat="43.33502744209048" lon="12.905776382689538"><ele>332.0</ele><time>2026-04-26T10:58:28Z</time></trkpt><trkpt lat="43.33508071661822" lon="12.905643466233004"><ele>332.0</ele><time>2026-04-26T10:58:30Z</time></trkpt><trkpt lat="43.33513394052067" lon="12.905538597547626"><ele>332.0</ele><time>2026-04-26T10:58:32Z</time></trkpt><trkpt lat="43.33518812020429" lon="12.905446055520018"><ele>332.0</ele><time>2026-04-26T10:58:34Z</time></trkpt><trkpt lat="43.335242314209395" lon="12.905345079495573"><ele>332.0</ele><time>2026-04-26T10:58:36Z</time></trkpt><trkpt lat="43.33531066992592" lon="12.905265874264776"><ele>332.0</ele><time>2026-04-26T10:58:38Z</time></trkpt><trkpt lat="43.33536825238161" lon="12.90521158147933"><ele>332.0</ele><time>2026-04-26T10:58:40Z</time></trkpt><trkpt lat="43.33531579884295" lon="12.905081906490127"><ele>332.0</ele><time>2026-04-26T10:58:43Z</time></trkpt><trkpt lat="43.3352422869243" lon="12.905006711500668"><ele>332.0</ele><time>2026-04-26T10:58:45Z</time></trkpt><trkpt lat="43.33515725482323" lon="12.904897967669122"><ele>332.0</ele><time>2026-04-26T10:58:47Z</time></trkpt><trkpt lat="43.33510693911506" lon="12.904832263315624"><ele>332.40000000000003</ele><time>2026-04-26T10:58:48Z</time></trkpt><trkpt lat="43.33506608978533" lon="12.904760423867138"><ele>332.8</ele><time>2026-04-26T10:58:49Z</time></trkpt><trkpt lat="43.33501031074077" lon="12.904700105388269"><ele>333.2</ele><time>2026-04-26T10:58:50Z</time></trkpt><trkpt lat="43.334931251914654" lon="12.904588663482755"><ele>333.6</ele><time>2026-04-26T10:58:52Z</time></trkpt><trkpt lat="43.334892236346974" lon="12.904504244795257"><ele>334.0</ele><time>2026-04-26T10:58:54Z</time></trkpt><trkpt lat="43.33494277528021" lon="12.904325780136398"><ele>334.57142857142856</ele><time>2026-04-26T10:58:58Z</time></trkpt><trkpt lat="43.335009169160315" lon="12.904237920662698"><ele>335.14285714285717</ele><time>2026-04-26T10:59:01Z</time></trkpt><trkpt lat="43.3350567771088" lon="12.904164996242336"><ele>335.7142857142857</ele><time>2026-04-26T10:59:04Z</time></trkpt><trkpt lat="43.33507335727181" lon="12.904075167316202"><ele>336.2857142857143</ele><time>2026-04-26T11:02:18Z</time></trkpt><trkpt lat="43.33512668165194" lon="12.904024820113591"><ele>336.85714285714283</ele><time>2026-04-26T11:02:24Z</time></trkpt><trkpt lat="43.33514813466034" lon="12.903936542741569"><ele>337.42857142857144</ele><time>2026-04-26T11:02:29Z</time></trkpt><trkpt lat="43.33520414243342" lon="12.903893825987055"><ele>338.0</ele><time>2026-04-26T11:02:36Z</time></trkpt><trkpt lat="43.335269263104955" lon="12.903880011630678"><ele>338.0</ele><time>2026-04-26T11:02:41Z</time></trkpt><trkpt lat="43.33533991284709" lon="12.903864028600436"><ele>338.0</ele><time>2026-04-26T11:02:47Z</time></trkpt><trkpt lat="43.33539710460432" lon="12.90381411249583"><ele>338.0</ele><time>2026-04-26T11:02:56Z</time></trkpt><trkpt lat="43.335467608255435" lon="12.90378575611024"><ele>338.0</ele><time>2026-04-26T11:03:04Z</time></trkpt><trkpt lat="43.335542002651266" lon="12.903795192294279"><ele>338.0</ele><time>2026-04-26T11:03:10Z</time></trkpt><trkpt lat="43.33561255869092" lon="12.903811244053069"><ele>338.0</ele><time>2026-04-26T11:03:20Z</time></trkpt><trkpt lat="43.3356764025132" lon="12.90386542661399"><ele>338.0</ele><time>2026-04-26T11:03:27Z</time></trkpt><trkpt lat="43.33575178281483" lon="12.903894746314828"><ele>336.7142857142857</ele><time>2026-04-26T11:03:31Z</time></trkpt><trkpt lat="43.335820717177256" lon="12.90395258850766"><ele>335.42857142857144</ele><time>2026-04-26T11:03:37Z</time></trkpt><trkpt lat="43.335850773551414" lon="12.904032236738168"><ele>334.1428571428571</ele><time>2026-04-26T11:03:43Z</time></trkpt><trkpt lat="43.33588995806814" lon="12.904109382717344"><ele>332.8571428571429</ele><time>2026-04-26T11:03:53Z</time></trkpt><trkpt lat="43.33595606248457" lon="12.904116870207483"><ele>331.57142857142856</ele><time>2026-04-26T11:03:58Z</time></trkpt><trkpt lat="43.33599849621033" lon="12.904188865952937"><ele>330.2857142857143</ele><time>2026-04-26T11:04:02Z</time></trkpt><trkpt lat="43.336045782697276" lon="12.904261424933635"><ele>329.0</ele><time>2026-04-26T11:04:06Z</time></trkpt><trkpt lat="43.33611484676381" lon="12.90431760978277"><ele>329.0</ele><time>2026-04-26T11:04:11Z</time></trkpt><trkpt lat="43.336066832582226" lon="12.904385067114639"><ele>329.0</ele><time>2026-04-26T11:04:15Z</time></trkpt><trkpt lat="43.33602203453556" lon="12.904457719698536"><ele>329.0</ele><time>2026-04-26T11:04:21Z</time></trkpt><trkpt lat="43.33599123989754" lon="12.904578486826122"><ele>329.0</ele><time>2026-04-26T11:04:43Z</time></trkpt><trkpt lat="43.33596550787097" lon="12.904672995322793"><ele>329.0</ele><time>2026-04-26T11:04:51Z</time></trkpt><trkpt lat="43.336004730280855" lon="12.904601536293713"><ele>329.0</ele><time>2026-04-26T11:05:37Z</time></trkpt><trkpt lat="43.3360234615678" lon="12.904692358392115"><ele>329.0</ele><time>2026-04-26T11:05:50Z</time></trkpt><trkpt lat="43.33604525043618" lon="12.904812129159696"><ele>329.0</ele><time>2026-04-26T11:05:55Z</time></trkpt><trkpt lat="43.336112703159145" lon="12.904821050704127"><ele>329.0</ele><time>2026-04-26T11:06:00Z</time></trkpt><trkpt lat="43.33611265409314" lon="12.904908116938465"><ele>329.0</ele><time>2026-04-26T11:06:10Z</time></trkpt><trkpt lat="43.33610391657715" lon="12.904996547572791"><ele>329.0</ele><time>2026-04-26T11:06:21Z</time></trkpt><trkpt lat="43.33604005389535" lon="12.90498446357212"><ele>329.0</ele><time>2026-04-26T11:06:29.998Z</time></trkpt><trkpt lat="43.33597422154832" lon="12.9049421399081"><ele>329.0</ele><time>2026-04-26T11:06:36.999Z</time></trkpt><trkpt lat="43.33594429376426" lon="12.90486294479375"><ele>329.0</ele><time>2026-04-26T11:06:43.999Z</time></trkpt><trkpt lat="43.33599768285796" lon="12.90491541471262"><ele>329.0</ele><time>2026-04-26T11:07:33Z</time></trkpt><trkpt lat="43.3361207864393" lon="12.904945010795053"><ele>329.0</ele><time>2026-04-26T11:07:45Z</time></trkpt><trkpt lat="43.33615649366995" lon="12.904848122767758"><ele>329.0</ele><time>2026-04-26T11:07:58Z</time></trkpt><trkpt lat="43.33611033440787" lon="12.904952685877904"><ele>329.0</ele><time>2026-04-26T11:08:07Z</time></trkpt><trkpt lat="43.33609761684016" lon="12.904840325908111"><ele>329.0</ele><time>2026-04-26T11:08:13Z</time></trkpt><trkpt lat="43.33604231217536" lon="12.904761681039737"><ele>329.0</ele><time>2026-04-26T11:08:17Z</time></trkpt><trkpt lat="43.336030214618766" lon="12.904665836261392"><ele>329.0</ele><time>2026-04-26T11:08:21Z</time></trkpt><trkpt lat="43.3359918548395" lon="12.904578459423256"><ele>329.0</ele><time>2026-04-26T11:08:25Z</time></trkpt><trkpt lat="43.33593224092536" lon="12.904547351234255"><ele>329.0</ele><time>2026-04-26T11:08:39.998Z</time></trkpt><trkpt lat="43.33588015681791" lon="12.904482696074878"><ele>329.0</ele><time>2026-04-26T11:08:46.999Z</time></trkpt><trkpt lat="43.33594506084967" lon="12.904579817217487"><ele>329.0</ele><time>2026-04-26T11:08:57.999Z</time></trkpt><trkpt lat="43.335829223990636" lon="12.90423508223888"><ele>329.0</ele><time>2026-04-26T11:09:13.999Z</time></trkpt><trkpt lat="43.335761578142346" lon="12.90422164296073"><ele>329.0</ele><time>2026-04-26T11:09:18Z</time></trkpt><trkpt lat="43.33551241010139" lon="12.904181271001473"><ele>329.0</ele><time>2026-04-26T11:09:22Z</time></trkpt><trkpt lat="43.33539667271271" lon="12.90392050836135"><ele>331.25</ele><time>2026-04-26T11:09:23Z</time></trkpt><trkpt lat="43.335290666024235" lon="12.903789506640281"><ele>333.5</ele><time>2026-04-26T11:09:24Z</time></trkpt><trkpt lat="43.3352120950916" lon="12.903853336169881"><ele>335.75</ele><time>2026-04-26T11:09:25Z</time></trkpt><trkpt lat="43.33509125853085" lon="12.903997112713368"><ele>338.0</ele><time>2026-04-26T11:09:27Z</time></trkpt><trkpt lat="43.33516192433157" lon="12.903965149291809"><ele>338.0</ele><time>2026-04-26T11:09:29Z</time></trkpt><trkpt lat="43.335246229096974" lon="12.903951232326547"><ele>338.0</ele><time>2026-04-26T11:09:31Z</time></trkpt><trkpt lat="43.33537742014854" lon="12.90392780818007"><ele>338.0</ele><time>2026-04-26T11:09:35Z</time></trkpt><trkpt lat="43.335469093101004" lon="12.904001305977722"><ele>338.0</ele><time>2026-04-26T11:09:39Z</time></trkpt><trkpt lat="43.33550998857281" lon="12.904109625318936"><ele>338.0</ele><time>2026-04-26T11:09:40Z</time></trkpt><trkpt lat="43.3354374169674" lon="12.904107190531931"><ele>338.0</ele><time>2026-04-26T11:09:56Z</time></trkpt><trkpt lat="43.33540691554721" lon="12.904030896289454"><ele>338.0</ele><time>2026-04-26T11:10:04Z</time></trkpt><trkpt lat="43.3353674595387" lon="12.903954924176427"><ele>338.0</ele><time>2026-04-26T11:10:11Z</time></trkpt><trkpt lat="43.335315127014326" lon="12.903903846716249"><ele>338.0</ele><time>2026-04-26T11:10:18Z</time></trkpt><trkpt lat="43.335253642764854" lon="12.903940165371713"><ele>338.0</ele><time>2026-04-26T11:10:25Z</time></trkpt><trkpt lat="43.33520263126508" lon="12.903994323134944"><ele>338.0</ele><time>2026-04-26T11:10:32Z</time></trkpt><trkpt lat="43.33516379375654" lon="12.904065641770506"><ele>338.0</ele><time>2026-04-26T11:10:39Z</time></trkpt><trkpt lat="43.335098237217025" lon="12.904062052018686"><ele>338.0</ele><time>2026-04-26T11:10:45Z</time></trkpt><trkpt lat="43.33501906131475" lon="12.904126250565001"><ele>338.0</ele><time>2026-04-26T11:12:58Z</time></trkpt><trkpt lat="43.334983853874455" lon="12.904205844915289"><ele>338.0</ele><time>2026-04-26T11:13:00Z</time></trkpt><trkpt lat="43.33491014755697" lon="12.90427120774214"><ele>338.0</ele><time>2026-04-26T11:13:03Z</time></trkpt><trkpt lat="43.33485106075596" lon="12.904344643007562"><ele>338.0</ele><time>2026-04-26T11:13:05Z</time></trkpt><trkpt lat="43.334785957389975" lon="12.904359004182705"><ele>338.0</ele><time>2026-04-26T11:13:08Z</time></trkpt><trkpt lat="43.33474381426698" lon="12.904254980635942"><ele>338.33333333333337</ele><time>2026-04-26T11:13:10Z</time></trkpt><trkpt lat="43.33471147145754" lon="12.904176174418895"><ele>338.6666666666667</ele><time>2026-04-26T11:13:11Z</time></trkpt><trkpt lat="43.334672157796334" lon="12.904108339371323"><ele>339.0</ele><time>2026-04-26T11:13:12Z</time></trkpt><trkpt lat="43.33469639249787" lon="12.903993867785346"><ele>339.3333333333333</ele><time>2026-04-26T11:13:13Z</time></trkpt><trkpt lat="43.33470043718622" lon="12.903895607363449"><ele>339.66666666666663</ele><time>2026-04-26T11:13:14Z</time></trkpt><trkpt lat="43.33466596689749" lon="12.903815620206249"><ele>340.0</ele><time>2026-04-26T11:13:15Z</time></trkpt><trkpt lat="43.33457076176757" lon="12.903694998744685"><ele>340.0</ele><time>2026-04-26T11:13:17Z</time></trkpt><trkpt lat="43.334505118852505" lon="12.903651686075065"><ele>340.0</ele><time>2026-04-26T11:13:18Z</time></trkpt><trkpt lat="43.3344517420437" lon="12.90357657141777"><ele>340.0</ele><time>2026-04-26T11:13:19Z</time></trkpt><trkpt lat="43.33439411903843" lon="12.903523313698235"><ele>340.0</ele><time>2026-04-26T11:13:20Z</time></trkpt><trkpt lat="43.334346874490386" lon="12.903442917168027"><ele>340.0</ele><time>2026-04-26T11:13:21Z</time></trkpt><trkpt lat="43.334295995221865" lon="12.903370475120646"><ele>340.0</ele><time>2026-04-26T11:13:22Z</time></trkpt><trkpt lat="43.33424225030225" lon="12.903296674464306"><ele>340.0</ele><time>2026-04-26T11:13:23Z</time></trkpt><trkpt lat="43.334204751570745" lon="12.903216649203518"><ele>339.8571428571429</ele><time>2026-04-26T11:13:24.001Z</time></trkpt><trkpt lat="43.33416806644987" lon="12.903136949741569"><ele>339.71428571428567</ele><time>2026-04-26T11:13:25.001Z</time></trkpt><trkpt lat="43.33413373058011" lon="12.9030608944663"><ele>339.57142857142856</ele><time>2026-04-26T11:13:26.001Z</time></trkpt><trkpt lat="43.33409760628712" lon="12.902986347314808"><ele>339.42857142857144</ele><time>2026-04-26T11:13:27.001Z</time></trkpt><trkpt lat="43.334042607984806" lon="12.902927153855627"><ele>339.28571428571433</ele><time>2026-04-26T11:13:28.001Z</time></trkpt><trkpt lat="43.33402901237197" lon="12.902838038859386"><ele>339.1428571428571</ele><time>2026-04-26T11:13:29.001Z</time></trkpt><trkpt lat="43.33395570413526" lon="12.902743549179045"><ele>339.0</ele><time>2026-04-26T11:13:31.001Z</time></trkpt><trkpt lat="43.333901273813595" lon="12.902660182846448"><ele>339.0</ele><time>2026-04-26T11:13:33.001Z</time></trkpt><trkpt lat="43.333819757266404" lon="12.902660322171036"><ele>339.0</ele><time>2026-04-26T11:13:35.001Z</time></trkpt><trkpt lat="43.333741348195126" lon="12.902646785248079"><ele>339.0</ele><time>2026-04-26T11:13:37.001Z</time></trkpt><trkpt lat="43.333667006504804" lon="12.902686133729437"><ele>339.0</ele><time>2026-04-26T11:13:39.001Z</time></trkpt><trkpt lat="43.33358765152367" lon="12.902501654311036"><ele>339.0</ele><time>2026-04-26T11:13:41.001Z</time></trkpt><trkpt lat="43.3335417077805" lon="12.902405450284737"><ele>339.1666666666667</ele><time>2026-04-26T11:13:43.001Z</time></trkpt><trkpt lat="43.333497686426625" lon="12.902333587578312"><ele>339.3333333333333</ele><time>2026-04-26T11:13:45.001Z</time></trkpt><trkpt lat="43.333457792688584" lon="12.902258264628424"><ele>339.5</ele><time>2026-04-26T11:13:47.001Z</time></trkpt><trkpt lat="43.333388766759285" lon="12.902169003945495"><ele>339.66666666666663</ele><time>2026-04-26T11:13:50.001Z</time></trkpt><trkpt lat="43.33333214480126" lon="12.902088419892424"><ele>339.8333333333333</ele><time>2026-04-26T11:13:52.001Z</time></trkpt><trkpt lat="43.33326934037285" lon="12.901992790622556"><ele>340.0</ele><time>2026-04-26T11:13:54.001Z</time></trkpt><trkpt lat="43.333201304935415" lon="12.901882149623887"><ele>340.0</ele><time>2026-04-26T11:13:56.001Z</time></trkpt><trkpt lat="43.33313565751014" lon="12.901781891396777"><ele>340.0</ele><time>2026-04-26T11:13:58.001Z</time></trkpt><trkpt lat="43.333088087115534" lon="12.901672291517812"><ele>340.0</ele><time>2026-04-26T11:14:00.001Z</time></trkpt><trkpt lat="43.33302430541732" lon="12.901617296447505"><ele>340.0</ele><time>2026-04-26T11:14:02.001Z</time></trkpt><trkpt lat="43.33295997990177" lon="12.901553036991553"><ele>340.0</ele><time>2026-04-26T11:14:04.001Z</time></trkpt><trkpt lat="43.332892600292865" lon="12.901571813928392"><ele>340.0</ele><time>2026-04-26T11:14:05.001Z</time></trkpt><trkpt lat="43.332809353430854" lon="12.901541703272434"><ele>340.0</ele><time>2026-04-26T11:14:07.001Z</time></trkpt><trkpt lat="43.332728775693674" lon="12.901483173684746"><ele>340.0</ele><time>2026-04-26T11:14:09.001Z</time></trkpt><trkpt lat="43.332669335223514" lon="12.901425151401234"><ele>340.0</ele><time>2026-04-26T11:14:11.001Z</time></trkpt><trkpt lat="43.33260530217169" lon="12.901350670268714"><ele>340.0</ele><time>2026-04-26T11:14:14.001Z</time></trkpt><trkpt lat="43.332587805077786" lon="12.901257910332577"><ele>340.0</ele><time>2026-04-26T11:14:16.001Z</time></trkpt><trkpt lat="43.33255230044812" lon="12.901175465284933"><ele>340.0</ele><time>2026-04-26T11:14:18.001Z</time></trkpt><trkpt lat="43.332481158908514" lon="12.901080853402492"><ele>340.0</ele><time>2026-04-26T11:14:20.001Z</time></trkpt><trkpt lat="43.33242705485791" lon="12.901020613479565"><ele>340.0</ele><time>2026-04-26T11:14:21.001Z</time></trkpt><trkpt lat="43.33237271907998" lon="12.9009578376517"><ele>340.0</ele><time>2026-04-26T11:14:22.001Z</time></trkpt><trkpt lat="43.33230956801909" lon="12.900891519719606"><ele>340.0</ele><time>2026-04-26T11:14:23.001Z</time></trkpt><trkpt lat="43.33224389928551" lon="12.900816135668707"><ele>340.0</ele><time>2026-04-26T11:14:24.001Z</time></trkpt><trkpt lat="43.332161797129075" lon="12.900741736353382"><ele>340.0</ele><time>2026-04-26T11:14:25.001Z</time></trkpt><trkpt lat="43.33208804833171" lon="12.900661844011541"><ele>340.0</ele><time>2026-04-26T11:14:26.001Z</time></trkpt><trkpt lat="43.33200562894268" lon="12.900575010910226"><ele>340.0</ele><time>2026-04-26T11:14:27.001Z</time></trkpt><trkpt lat="43.331920386828564" lon="12.900506335110256"><ele>340.0</ele><time>2026-04-26T11:14:28.001Z</time></trkpt><trkpt lat="43.331829394774104" lon="12.900426071041855"><ele>340.0</ele><time>2026-04-26T11:14:29.001Z</time></trkpt><trkpt lat="43.33173751259102" lon="12.900346651291976"><ele>340.0</ele><time>2026-04-26T11:14:30.001Z</time></trkpt><trkpt lat="43.33164623686765" lon="12.900263888015447"><ele>340.0</ele><time>2026-04-26T11:14:31.001Z</time></trkpt><trkpt lat="43.33155223175237" lon="12.900182944516029"><ele>340.0</ele><time>2026-04-26T11:14:32.001Z</time></trkpt><trkpt lat="43.33145515276303" lon="12.900098356575292"><ele>340.0</ele><time>2026-04-26T11:14:33.001Z</time></trkpt><trkpt lat="43.331360272647345" lon="12.900011438477865"><ele>340.0</ele><time>2026-04-26T11:14:34.001Z</time></trkpt><trkpt lat="43.33126015060293" lon="12.899924279515814"><ele>341.0</ele><time>2026-04-26T11:14:35.001Z</time></trkpt><trkpt lat="43.331161759647465" lon="12.899832701406453"><ele>342.0</ele><time>2026-04-26T11:14:36.001Z</time></trkpt><trkpt lat="43.33106790259122" lon="12.899744470256277"><ele>343.0</ele><time>2026-04-26T11:14:37.001Z</time></trkpt><trkpt lat="43.33097001915197" lon="12.89967035886325"><ele>344.0</ele><time>2026-04-26T11:14:38.001Z</time></trkpt><trkpt lat="43.33088154125567" lon="12.899585512273605"><ele>344.0</ele><time>2026-04-26T11:14:39.001Z</time></trkpt><trkpt lat="43.330801550150696" lon="12.899492631172027"><ele>344.0</ele><time>2026-04-26T11:14:40.001Z</time></trkpt><trkpt lat="43.33071339431517" lon="12.899446286810019"><ele>344.0</ele><time>2026-04-26T11:14:41.001Z</time></trkpt><trkpt lat="43.330657404277794" lon="12.899397695106721"><ele>344.0</ele><time>2026-04-26T11:14:42.001Z</time></trkpt><trkpt lat="43.330542272539944" lon="12.899390155324438"><ele>344.0</ele><time>2026-04-26T11:14:44.001Z</time></trkpt><trkpt lat="43.330484802735135" lon="12.899458172858047"><ele>343.79999999999995</ele><time>2026-04-26T11:14:45.001Z</time></trkpt><trkpt lat="43.33040200664131" lon="12.899524387712734"><ele>343.59999999999997</ele><time>2026-04-26T11:14:47.001Z</time></trkpt><trkpt lat="43.33035031452393" lon="12.899578554423472"><ele>343.4</ele><time>2026-04-26T11:14:51.001Z</time></trkpt><trkpt lat="43.33041854625731" lon="12.89973638734126"><ele>343.2</ele><time>2026-04-26T11:14:52.001Z</time></trkpt><trkpt lat="43.33046672613979" lon="12.899821838635782"><ele>343.0</ele><time>2026-04-26T11:14:53.001Z</time></trkpt><trkpt lat="43.3305122208618" lon="12.899930869148426"><ele>343.0</ele><time>2026-04-26T11:14:54.001Z</time></trkpt><trkpt lat="43.33056131497049" lon="12.900047319373847"><ele>343.0</ele><time>2026-04-26T11:14:55.001Z</time></trkpt><trkpt lat="43.33061221010177" lon="12.90016412613946"><ele>343.0</ele><time>2026-04-26T11:14:56.001Z</time></trkpt><trkpt lat="43.33067421878654" lon="12.900291081012625"><ele>343.0</ele><time>2026-04-26T11:14:57.001Z</time></trkpt><trkpt lat="43.33074124263732" lon="12.900425178957818"><ele>343.0</ele><time>2026-04-26T11:14:58.001Z</time></trkpt><trkpt lat="43.330804974672944" lon="12.900559547124828"><ele>343.0</ele><time>2026-04-26T11:14:59.001Z</time></trkpt><trkpt lat="43.33086785635516" lon="12.900699329596122"><ele>343.0</ele><time>2026-04-26T11:15:00.001Z</time></trkpt><trkpt lat="43.33093177890532" lon="12.900841930943805"><ele>343.0</ele><time>2026-04-26T11:15:01.001Z</time></trkpt><trkpt lat="43.33099515849803" lon="12.900988694070893"><ele>343.0</ele><time>2026-04-26T11:15:02.001Z</time></trkpt><trkpt lat="43.33105849624748" lon="12.90113401834001"><ele>343.0</ele><time>2026-04-26T11:15:03.001Z</time></trkpt><trkpt lat="43.33112800490028" lon="12.901277316891903"><ele>343.0</ele><time>2026-04-26T11:15:04.001Z</time></trkpt><trkpt lat="43.33119403243012" lon="12.901425629776334"><ele>343.0</ele><time>2026-04-26T11:15:05.001Z</time></trkpt><trkpt lat="43.33125539078448" lon="12.901568833347888"><ele>343.0</ele><time>2026-04-26T11:15:06.001Z</time></trkpt><trkpt lat="43.33131193796964" lon="12.901699975241673"><ele>343.59999999999997</ele><time>2026-04-26T11:15:07.001Z</time></trkpt><trkpt lat="43.33136399489256" lon="12.901824191498031"><ele>344.2</ele><time>2026-04-26T11:15:08.001Z</time></trkpt><trkpt lat="43.331415564358025" lon="12.901940123596647"><ele>344.8</ele><time>2026-04-26T11:15:09.001Z</time></trkpt><trkpt lat="43.331463633518425" lon="12.902051376948224"><ele>345.4</ele><time>2026-04-26T11:15:10.001Z</time></trkpt><trkpt lat="43.33151058955271" lon="12.90216003386124"><ele>346.0</ele><time>2026-04-26T11:15:11.001Z</time></trkpt><trkpt lat="43.331550251263394" lon="12.902255975151425"><ele>345.8</ele><time>2026-04-26T11:15:12.001Z</time></trkpt><trkpt lat="43.331587513716116" lon="12.902409547243616"><ele>345.6</ele><time>2026-04-26T11:15:14.001Z</time></trkpt><trkpt lat="43.33151561673591" lon="12.90253371320055"><ele>345.4</ele><time>2026-04-26T11:15:16.001Z</time></trkpt><trkpt lat="43.331462979804314" lon="12.90259747096165"><ele>345.2</ele><time>2026-04-26T11:15:17.001Z</time></trkpt><trkpt lat="43.33139198835198" lon="12.902657522698286"><ele>345.0</ele><time>2026-04-26T11:15:18.001Z</time></trkpt><trkpt lat="43.331308957999255" lon="12.902735752077566"><ele>345.0</ele><time>2026-04-26T11:15:19.001Z</time></trkpt><trkpt lat="43.3312118451791" lon="12.902817619056982"><ele>345.0</ele><time>2026-04-26T11:15:20.001Z</time></trkpt><trkpt lat="43.33110740832324" lon="12.902904284069413"><ele>345.0</ele><time>2026-04-26T11:15:21.001Z</time></trkpt><trkpt lat="43.33099584690149" lon="12.902985569787846"><ele>345.0</ele><time>2026-04-26T11:15:22.001Z</time></trkpt><trkpt lat="43.33088551848485" lon="12.903066660354904"><ele>345.0</ele><time>2026-04-26T11:15:23.001Z</time></trkpt><trkpt lat="43.330777333204196" lon="12.90315376519049"><ele>345.0</ele><time>2026-04-26T11:15:24.001Z</time></trkpt><trkpt lat="43.330668425007495" lon="12.9032395530015"><ele>345.0</ele><time>2026-04-26T11:15:25.001Z</time></trkpt><trkpt lat="43.330565150089065" lon="12.903336690926784"><ele>345.0</ele><time>2026-04-26T11:15:26.001Z</time></trkpt><trkpt lat="43.33047744066948" lon="12.903453638401142"><ele>348.25</ele><time>2026-04-26T11:15:27.001Z</time></trkpt><trkpt lat="43.33039172708082" lon="12.903593181131392"><ele>351.5</ele><time>2026-04-26T11:15:28.001Z</time></trkpt><trkpt lat="43.330312480745086" lon="12.90373537120649"><ele>354.75</ele><time>2026-04-26T11:15:29.001Z</time></trkpt><trkpt lat="43.33024063110293" lon="12.903874642593788"><ele>358.0</ele><time>2026-04-26T11:15:30.001Z</time></trkpt><trkpt lat="43.330185893677616" lon="12.904019357431027"><ele>358.0</ele><time>2026-04-26T11:15:31.001Z</time></trkpt><trkpt lat="43.33015729538661" lon="12.904171753324466"><ele>358.0</ele><time>2026-04-26T11:15:32.001Z</time></trkpt><trkpt lat="43.330140516632696" lon="12.90432485417815"><ele>358.0</ele><time>2026-04-26T11:15:33.001Z</time></trkpt><trkpt lat="43.33010376598589" lon="12.904455869743513"><ele>358.0</ele><time>2026-04-26T11:15:34.001Z</time></trkpt><trkpt lat="43.33003775321012" lon="12.904544240677769"><ele>358.0</ele><time>2026-04-26T11:15:35.001Z</time></trkpt><trkpt lat="43.32995951940426" lon="12.90458815854088"><ele>358.0</ele><time>2026-04-26T11:15:36.001Z</time></trkpt><trkpt lat="43.32985749509704" lon="12.904612444030203"><ele>358.0</ele><time>2026-04-26T11:15:37.001Z</time></trkpt><trkpt lat="43.32974000227582" lon="12.904630083776127"><ele>358.0</ele><time>2026-04-26T11:15:38.001Z</time></trkpt><trkpt lat="43.32961998904082" lon="12.904651088202353"><ele>358.0</ele><time>2026-04-26T11:15:39.001Z</time></trkpt><trkpt lat="43.32950099787386" lon="12.904686049259752"><ele>358.5</ele><time>2026-04-26T11:15:40.001Z</time></trkpt><trkpt lat="43.329379187511826" lon="12.9047462303451"><ele>359.0</ele><time>2026-04-26T11:15:41.001Z</time></trkpt><trkpt lat="43.32926137009495" lon="12.90482328384207"><ele>359.5</ele><time>2026-04-26T11:15:42.001Z</time></trkpt><trkpt lat="43.329142075940695" lon="12.90490433997324"><ele>360.0</ele><time>2026-04-26T11:15:43.001Z</time></trkpt><trkpt lat="43.32901738345182" lon="12.90499253073185"><ele>360.25</ele><time>2026-04-26T11:15:44.001Z</time></trkpt><trkpt lat="43.32889395230187" lon="12.905083007846466"><ele>360.5</ele><time>2026-04-26T11:15:45.001Z</time></trkpt><trkpt lat="43.32876397507038" lon="12.905176634535616"><ele>360.75</ele><time>2026-04-26T11:15:46.001Z</time></trkpt><trkpt lat="43.32863032999228" lon="12.905270775882599"><ele>361.0</ele><time>2026-04-26T11:15:47.001Z</time></trkpt><trkpt lat="43.32849495622211" lon="12.90536070852272"><ele>361.0</ele><time>2026-04-26T11:15:48.001Z</time></trkpt><trkpt lat="43.32835608084745" lon="12.905454728426065"><ele>361.0</ele><time>2026-04-26T11:15:49.001Z</time></trkpt><trkpt lat="43.32821782836009" lon="12.905551424116737"><ele>361.0</ele><time>2026-04-26T11:15:50.001Z</time></trkpt><trkpt lat="43.32807346718961" lon="12.905641979803777"><ele>362.0</ele><time>2026-04-26T11:15:51.001Z</time></trkpt><trkpt lat="43.32793211658935" lon="12.90573387155142"><ele>363.0</ele><time>2026-04-26T11:15:52.001Z</time></trkpt><trkpt lat="43.32779735723122" lon="12.90582517373724"><ele>364.0</ele><time>2026-04-26T11:15:53.001Z</time></trkpt><trkpt lat="43.32765757386163" lon="12.90591743752887"><ele>364.0</ele><time>2026-04-26T11:15:54.001Z</time></trkpt><trkpt lat="43.327523711070405" lon="12.90601200255354"><ele>364.0</ele><time>2026-04-26T11:15:55.001Z</time></trkpt><trkpt lat="43.327392075749955" lon="12.906106244392278"><ele>364.0</ele><time>2026-04-26T11:15:56.001Z</time></trkpt><trkpt lat="43.32726366445966" lon="12.906183322196878"><ele>364.0</ele><time>2026-04-26T11:15:57.001Z</time></trkpt><trkpt lat="43.32712723252514" lon="12.906241002872108"><ele>366.0</ele><time>2026-04-26T11:15:58.001Z</time></trkpt><trkpt lat="43.32697754122602" lon="12.9062770084724"><ele>368.0</ele><time>2026-04-26T11:15:59.001Z</time></trkpt><trkpt lat="43.326833090954686" lon="12.906282381300331"><ele>370.0</ele><time>2026-04-26T11:16:00.001Z</time></trkpt><trkpt lat="43.32667191566157" lon="12.90627439613351"><ele>370.0</ele><time>2026-04-26T11:16:01.001Z</time></trkpt><trkpt lat="43.32652519031214" lon="12.906226939529672"><ele>370.0</ele><time>2026-04-26T11:16:02.001Z</time></trkpt><trkpt lat="43.32637527101042" lon="12.90613737634366"><ele>370.0</ele><time>2026-04-26T11:16:03.001Z</time></trkpt><trkpt lat="43.32624047548074" lon="12.906022243223072"><ele>373.66666666666663</ele><time>2026-04-26T11:16:04.001Z</time></trkpt><trkpt lat="43.32610988112899" lon="12.905891280234671"><ele>377.3333333333333</ele><time>2026-04-26T11:16:05.001Z</time></trkpt><trkpt lat="43.32597852771433" lon="12.905755625160623"><ele>381.0</ele><time>2026-04-26T11:16:06.001Z</time></trkpt><trkpt lat="43.325849643122034" lon="12.905615240964543"><ele>381.0</ele><time>2026-04-26T11:16:07.001Z</time></trkpt><trkpt lat="43.32571982709075" lon="12.905478483169523"><ele>381.0</ele><time>2026-04-26T11:16:08.001Z</time></trkpt><trkpt lat="43.3255894062887" lon="12.905342147061798"><ele>381.0</ele><time>2026-04-26T11:16:09.001Z</time></trkpt><trkpt lat="43.325460192228974" lon="12.905201347369236"><ele>385.0</ele><time>2026-04-26T11:16:10.001Z</time></trkpt><trkpt lat="43.3253285026266" lon="12.90506288110296"><ele>389.0</ele><time>2026-04-26T11:16:11.001Z</time></trkpt><trkpt lat="43.32519932972988" lon="12.90492027460667"><ele>393.0</ele><time>2026-04-26T11:16:12.001Z</time></trkpt><trkpt lat="43.325071245840654" lon="12.904773905253405"><ele>393.0</ele><time>2026-04-26T11:16:13.001Z</time></trkpt><trkpt lat="43.324941468560425" lon="12.904634856889336"><ele>393.0</ele><time>2026-04-26T11:16:14.001Z</time></trkpt><trkpt lat="43.32480737739096" lon="12.904511761474248"><ele>393.0</ele><time>2026-04-26T11:16:15.001Z</time></trkpt><trkpt lat="43.324663473301406" lon="12.904406047347699"><ele>392.33333333333337</ele><time>2026-04-26T11:16:16.001Z</time></trkpt><trkpt lat="43.32450922137541" lon="12.90432084667002"><ele>391.6666666666667</ele><time>2026-04-26T11:16:17.001Z</time></trkpt><trkpt lat="43.32434797903403" lon="12.904257489456606"><ele>391.0</ele><time>2026-04-26T11:16:18.001Z</time></trkpt><trkpt lat="43.32417976566427" lon="12.904213542286392"><ele>394.0</ele><time>2026-04-26T11:16:19.001Z</time></trkpt><trkpt lat="43.324011296525725" lon="12.90418456303348"><ele>397.0</ele><time>2026-04-26T11:16:20.001Z</time></trkpt><trkpt lat="43.32383740747648" lon="12.904180352168451"><ele>400.0</ele><time>2026-04-26T11:16:21.001Z</time></trkpt><trkpt lat="43.3236626588961" lon="12.904202523039325"><ele>398.6666666666667</ele><time>2026-04-26T11:16:22.001Z</time></trkpt><trkpt lat="43.32348974523112" lon="12.904252959380962"><ele>397.33333333333337</ele><time>2026-04-26T11:16:23.001Z</time></trkpt><trkpt lat="43.32331777335952" lon="12.904313361714824"><ele>396.0</ele><time>2026-04-26T11:16:24.001Z</time></trkpt><trkpt lat="43.32314509166135" lon="12.904373862030075"><ele>399.66666666666663</ele><time>2026-04-26T11:16:25.001Z</time></trkpt><trkpt lat="43.32297362141737" lon="12.904432953107829"><ele>403.3333333333333</ele><time>2026-04-26T11:16:26.001Z</time></trkpt><trkpt lat="43.32280434855052" lon="12.9044917590414"><ele>407.0</ele><time>2026-04-26T11:16:27.001Z</time></trkpt><trkpt lat="43.322635738348794" lon="12.904549338696663"><ele>407.0</ele><time>2026-04-26T11:16:28.001Z</time></trkpt><trkpt lat="43.322467456578714" lon="12.904609269967326"><ele>407.0</ele><time>2026-04-26T11:16:29.001Z</time></trkpt><trkpt lat="43.32230039653638" lon="12.904679420016226"><ele>407.0</ele><time>2026-04-26T11:16:30.001Z</time></trkpt><trkpt lat="43.322135856655606" lon="12.904762759745875"><ele>409.0</ele><time>2026-04-26T11:16:31.001Z</time></trkpt><trkpt lat="43.321980314346455" lon="12.904871626543155"><ele>411.0</ele><time>2026-04-26T11:16:32.001Z</time></trkpt><trkpt lat="43.32183185834339" lon="12.90499913008708"><ele>413.0</ele><time>2026-04-26T11:16:33.001Z</time></trkpt><trkpt lat="43.32168689534498" lon="12.905131862539362"><ele>413.0</ele><time>2026-04-26T11:16:34.001Z</time></trkpt><trkpt lat="43.32154801972715" lon="12.905252032206993"><ele>413.0</ele><time>2026-04-26T11:16:35.001Z</time></trkpt><trkpt lat="43.32140392121062" lon="12.905362211968686"><ele>413.0</ele><time>2026-04-26T11:16:36.001Z</time></trkpt><trkpt lat="43.32125112446258" lon="12.905443399272162"><ele>417.66666666666663</ele><time>2026-04-26T11:16:37.001Z</time></trkpt><trkpt lat="43.32109464782621" lon="12.905495519909831"><ele>422.33333333333337</ele><time>2026-04-26T11:16:38.001Z</time></trkpt><trkpt lat="43.32094410531014" lon="12.905542601415274"><ele>427.0</ele><time>2026-04-26T11:16:39.001Z</time></trkpt><trkpt lat="43.320815073420455" lon="12.905640697407227"><ele>427.0</ele><time>2026-04-26T11:16:40.001Z</time></trkpt><trkpt lat="43.32069829628287" lon="12.905787193054607"><ele>427.0</ele><time>2026-04-26T11:16:41.001Z</time></trkpt><trkpt lat="43.32059655857455" lon="12.9059733530473"><ele>427.0</ele><time>2026-04-26T11:16:42.001Z</time></trkpt><trkpt lat="43.32052218744924" lon="12.906177881434404"><ele>432.33333333333337</ele><time>2026-04-26T11:16:43.001Z</time></trkpt><trkpt lat="43.320434662695895" lon="12.90637704745854"><ele>437.66666666666663</ele><time>2026-04-26T11:16:44.001Z</time></trkpt><trkpt lat="43.32032838146727" lon="12.90656991120544"><ele>443.0</ele><time>2026-04-26T11:16:45.001Z</time></trkpt><trkpt lat="43.32021608723271" lon="12.906757033533266"><ele>443.0</ele><time>2026-04-26T11:16:46.001Z</time></trkpt><trkpt lat="43.32010293650908" lon="12.906953908968667"><ele>443.0</ele><time>2026-04-26T11:16:47.001Z</time></trkpt><trkpt lat="43.31998866535054" lon="12.907155850881901"><ele>443.0</ele><time>2026-04-26T11:16:48.001Z</time></trkpt><trkpt lat="43.31987389305162" lon="12.9073610599397"><ele>442.66666666666663</ele><time>2026-04-26T11:16:49.001Z</time></trkpt><trkpt lat="43.31976858740999" lon="12.907577549839205"><ele>442.33333333333337</ele><time>2026-04-26T11:16:50.001Z</time></trkpt><trkpt lat="43.31966760739428" lon="12.907800704464172"><ele>442.0</ele><time>2026-04-26T11:16:51.001Z</time></trkpt><trkpt lat="43.31957008798432" lon="12.908025874483195"><ele>449.0</ele><time>2026-04-26T11:16:52.001Z</time></trkpt><trkpt lat="43.31947630400635" lon="12.908254616558043"><ele>456.0</ele><time>2026-04-26T11:16:53.001Z</time></trkpt><trkpt lat="43.31938645030336" lon="12.908477880278733"><ele>463.0</ele><time>2026-04-26T11:16:54.001Z</time></trkpt><trkpt lat="43.31930095922411" lon="12.90869935834705"><ele>463.0</ele><time>2026-04-26T11:16:55.001Z</time></trkpt><trkpt lat="43.319216220442506" lon="12.908903187975781"><ele>463.0</ele><time>2026-04-26T11:16:56.001Z</time></trkpt><trkpt lat="43.31915149167188" lon="12.909094780645459"><ele>463.0</ele><time>2026-04-26T11:16:57.001Z</time></trkpt><trkpt lat="43.31909131503781" lon="12.90927180006755"><ele>463.2</ele><time>2026-04-26T11:16:58.001Z</time></trkpt><trkpt lat="43.31904336607476" lon="12.909436636944994"><ele>463.4</ele><time>2026-04-26T11:16:59.001Z</time></trkpt><trkpt lat="43.31899900606258" lon="12.909584317105992"><ele>463.59999999999997</ele><time>2026-04-26T11:17:00.001Z</time></trkpt><trkpt lat="43.318954632586916" lon="12.909712260201541"><ele>463.79999999999995</ele><time>2026-04-26T11:17:01.001Z</time></trkpt><trkpt lat="43.31891844519546" lon="12.909808776605082"><ele>464.0</ele><time>2026-04-26T11:17:02.001Z</time></trkpt><trkpt lat="43.318886149742035" lon="12.909883621581427"><ele>464.0</ele><time>2026-04-26T11:17:03.001Z</time></trkpt><trkpt lat="43.31881715477232" lon="12.909938641719929"><ele>464.0</ele><time>2026-04-26T11:17:05.001Z</time></trkpt><trkpt lat="43.31885693962453" lon="12.910099077602835"><ele>464.0</ele><time>2026-04-26T11:17:07Z</time></trkpt><trkpt lat="43.31887969920513" lon="12.910212040298177"><ele>464.0</ele><time>2026-04-26T11:17:09Z</time></trkpt><trkpt lat="43.3190218620315" lon="12.91023659649026"><ele>464.0</ele><time>2026-04-26T11:17:13Z</time></trkpt><trkpt lat="43.31910954319604" lon="12.910258957235213"><ele>463.99999999999994</ele><time>2026-04-26T11:17:15Z</time></trkpt><trkpt lat="43.31920466335223" lon="12.91024222264347"><ele>464.0</ele><time>2026-04-26T11:17:18Z</time></trkpt><trkpt lat="43.319270689234926" lon="12.910226428741954"><ele>464.0</ele><time>2026-04-26T11:17:20Z</time></trkpt><trkpt lat="43.319346620759184" lon="12.910205793951565"><ele>464.0</ele><time>2026-04-26T11:17:23Z</time></trkpt><trkpt lat="43.319414951113195" lon="12.910183886545807"><ele>463.99999999999994</ele><time>2026-04-26T11:17:25Z</time></trkpt><trkpt lat="43.319447192677096" lon="12.910100193243634"><ele>464.0</ele><time>2026-04-26T11:19:00.001Z</time></trkpt><trkpt lat="43.319517030392596" lon="12.910070560099498"><ele>464.0</ele><time>2026-04-26T11:19:10Z</time></trkpt><trkpt lat="43.319571444876374" lon="12.910014072959621"><ele>464.0</ele><time>2026-04-26T11:19:17Z</time></trkpt><trkpt lat="43.31973269761542" lon="12.910018197945538"><ele>464.0</ele><time>2026-04-26T11:19:34Z</time></trkpt><trkpt lat="43.319697243402445" lon="12.91009350402475"><ele>462.0</ele><time>2026-04-26T11:19:43Z</time></trkpt><trkpt lat="43.319637170078096" lon="12.910128934124204"><ele>462.0</ele><time>2026-04-26T11:19:53Z</time></trkpt><trkpt lat="43.31958652057779" lon="12.910188706682552"><ele>462.0</ele><time>2026-04-26T11:20:38.001Z</time></trkpt></trkseg><trkseg><trkpt lat="43.319470971518896" lon="12.910183016310869"><ele>462.0</ele><time>2026-04-26T12:35:09.001Z</time></trkpt><trkpt lat="43.31937781131155" lon="12.910234988038921"><ele>462.00000000000006</ele><time>2026-04-26T12:37:05Z</time></trkpt><trkpt lat="43.31928373629906" lon="12.91024569535452"><ele>462.00000000000006</ele><time>2026-04-26T12:37:07Z</time></trkpt><trkpt lat="43.31917941754349" lon="12.910251169576684"><ele>462.0</ele><time>2026-04-26T12:37:09Z</time></trkpt><trkpt lat="43.31911500153378" lon="12.910255945853033"><ele>462.0</ele><time>2026-04-26T12:37:09.999Z</time></trkpt><trkpt lat="43.31900167915125" lon="12.910247616962064"><ele>462.0</ele><time>2026-04-26T12:37:11.999Z</time></trkpt><trkpt lat="43.318924633825986" lon="12.910208213060379"><ele>462.0</ele><time>2026-04-26T12:37:13.999Z</time></trkpt><trkpt lat="43.318883091094385" lon="12.910132237680033"><ele>462.0</ele><time>2026-04-26T12:37:15.999Z</time></trkpt><trkpt lat="43.318846769512405" lon="12.910045766557456"><ele>462.0</ele><time>2026-04-26T12:37:17.999Z</time></trkpt><trkpt lat="43.31888606513519" lon="12.909922005433609"><ele>462.0</ele><time>2026-04-26T12:37:37Z</time></trkpt><trkpt lat="43.31893088382502" lon="12.909791610379058"><ele>462.0</ele><time>2026-04-26T12:37:39Z</time></trkpt><trkpt lat="43.31896606098698" lon="12.909703630315905"><ele>462.1666666666667</ele><time>2026-04-26T12:37:40Z</time></trkpt><trkpt lat="43.31899743274975" lon="12.909596372400642"><ele>462.33333333333337</ele><time>2026-04-26T12:37:41Z</time></trkpt><trkpt lat="43.31905439924963" lon="12.909501824408133"><ele>462.5</ele><time>2026-04-26T12:37:42Z</time></trkpt><trkpt lat="43.319086053569976" lon="12.909408096835346"><ele>462.6666666666667</ele><time>2026-04-26T12:37:43Z</time></trkpt><trkpt lat="43.319121084793956" lon="12.909301834024804"><ele>462.83333333333337</ele><time>2026-04-26T12:37:44Z</time></trkpt><trkpt lat="43.31915581115401" lon="12.909178161629095"><ele>463.0</ele><time>2026-04-26T12:37:45Z</time></trkpt><trkpt lat="43.31920173174713" lon="12.909041149464642"><ele>463.0</ele><time>2026-04-26T12:37:46Z</time></trkpt><trkpt lat="43.31924900080645" lon="12.908897878411313"><ele>463.0</ele><time>2026-04-26T12:37:47Z</time></trkpt><trkpt lat="43.319305588038" lon="12.908747579206581"><ele>463.0</ele><time>2026-04-26T12:37:48Z</time></trkpt><trkpt lat="43.31936862429314" lon="12.908585545253237"><ele>463.0</ele><time>2026-04-26T12:37:49Z</time></trkpt><trkpt lat="43.319431687708665" lon="12.90842032183546"><ele>464.0</ele><time>2026-04-26T12:37:50Z</time></trkpt><trkpt lat="43.31950022035976" lon="12.908251321511456"><ele>465.0</ele><time>2026-04-26T12:37:51Z</time></trkpt><trkpt lat="43.31957151357837" lon="12.908075192562775"><ele>466.0</ele><time>2026-04-26T12:37:52Z</time></trkpt><trkpt lat="43.31966404978079" lon="12.907913020746323"><ele>467.0</ele><time>2026-04-26T12:37:53Z</time></trkpt><trkpt lat="43.31974296018646" lon="12.907736216098286"><ele>459.0</ele><time>2026-04-26T12:37:54Z</time></trkpt><trkpt lat="43.31982199481174" lon="12.907562115233768"><ele>451.0</ele><time>2026-04-26T12:37:55Z</time></trkpt><trkpt lat="43.31989653858339" lon="12.907386569062314"><ele>443.0</ele><time>2026-04-26T12:37:56Z</time></trkpt><trkpt lat="43.319985452958484" lon="12.907216256858952"><ele>443.0</ele><time>2026-04-26T12:37:57Z</time></trkpt><trkpt lat="43.32008656727376" lon="12.907063216403785"><ele>443.0</ele><time>2026-04-26T12:37:58Z</time></trkpt><trkpt lat="43.32016930952796" lon="12.906899035875742"><ele>443.0</ele><time>2026-04-26T12:37:59Z</time></trkpt><trkpt lat="43.32026785769931" lon="12.906748290583861"><ele>443.0</ele><time>2026-04-26T12:38:00Z</time></trkpt><trkpt lat="43.320358006712425" lon="12.906591782318243"><ele>445.25</ele><time>2026-04-26T12:38:01Z</time></trkpt><trkpt lat="43.32044655021399" lon="12.906431822379853"><ele>447.5</ele><time>2026-04-26T12:38:02Z</time></trkpt><trkpt lat="43.320524695349356" lon="12.906264820000805"><ele>449.75</ele><time>2026-04-26T12:38:03Z</time></trkpt><trkpt lat="43.32059961118644" lon="12.906095377082512"><ele>452.0</ele><time>2026-04-26T12:38:04Z</time></trkpt><trkpt lat="43.32066869174894" lon="12.905924181818296"><ele>445.75</ele><time>2026-04-26T12:38:05Z</time></trkpt><trkpt lat="43.32075112495031" lon="12.90576843412066"><ele>439.5</ele><time>2026-04-26T12:38:06Z</time></trkpt><trkpt lat="43.320852545217726" lon="12.905648821102913"><ele>433.25</ele><time>2026-04-26T12:38:07Z</time></trkpt><trkpt lat="43.32097005444835" lon="12.905548601757175"><ele>427.0</ele><time>2026-04-26T12:38:08Z</time></trkpt><trkpt lat="43.321112852928174" lon="12.90552998049724"><ele>427.0</ele><time>2026-04-26T12:38:09Z</time></trkpt><trkpt lat="43.32123282151649" lon="12.905490964294026"><ele>427.0</ele><time>2026-04-26T12:38:10Z</time></trkpt><trkpt lat="43.32136063812206" lon="12.905427155396003"><ele>427.0</ele><time>2026-04-26T12:38:11Z</time></trkpt><trkpt lat="43.321490983830586" lon="12.905341298950301"><ele>427.0</ele><time>2026-04-26T12:38:12Z</time></trkpt><trkpt lat="43.32162837625062" lon="12.905249496143375"><ele>427.0</ele><time>2026-04-26T12:38:13Z</time></trkpt><trkpt lat="43.32176005466052" lon="12.905123203718343"><ele>427.0</ele><time>2026-04-26T12:38:14Z</time></trkpt><trkpt lat="43.321889630308455" lon="12.904990558666608"><ele>427.0</ele><time>2026-04-26T12:38:15Z</time></trkpt><trkpt lat="43.32202521907202" lon="12.90487631324716"><ele>427.0</ele><time>2026-04-26T12:38:16Z</time></trkpt><trkpt lat="43.32216153881468" lon="12.904778305318272"><ele>427.0</ele><time>2026-04-26T12:38:17Z</time></trkpt><trkpt lat="43.32230460132357" lon="12.904719484618145"><ele>427.0</ele><time>2026-04-26T12:38:18Z</time></trkpt><trkpt lat="43.32244954654124" lon="12.904661764162686"><ele>420.33333333333337</ele><time>2026-04-26T12:38:19Z</time></trkpt><trkpt lat="43.322591597797825" lon="12.904585406300688"><ele>413.66666666666663</ele><time>2026-04-26T12:38:20Z</time></trkpt><trkpt lat="43.32274458216599" lon="12.904540704414721"><ele>407.0</ele><time>2026-04-26T12:38:21Z</time></trkpt><trkpt lat="43.32289403872465" lon="12.904493722693715"><ele>407.0</ele><time>2026-04-26T12:38:22Z</time></trkpt><trkpt lat="43.32304183600051" lon="12.904437237513125"><ele>407.0</ele><time>2026-04-26T12:38:23Z</time></trkpt><trkpt lat="43.32319956561835" lon="12.9043854802055"><ele>407.0</ele><time>2026-04-26T12:38:24Z</time></trkpt><trkpt lat="43.32335192506416" lon="12.904327051641738"><ele>405.3333333333333</ele><time>2026-04-26T12:38:25Z</time></trkpt><trkpt lat="43.32350788245325" lon="12.90429960505093"><ele>403.66666666666663</ele><time>2026-04-26T12:38:26Z</time></trkpt><trkpt lat="43.32366515081335" lon="12.904238715889694"><ele>402.0</ele><time>2026-04-26T12:38:27Z</time></trkpt><trkpt lat="43.32381696486395" lon="12.904209620658316"><ele>401.33333333333337</ele><time>2026-04-26T12:38:28Z</time></trkpt><trkpt lat="43.323977734748325" lon="12.90421010568921"><ele>400.6666666666667</ele><time>2026-04-26T12:38:29Z</time></trkpt><trkpt lat="43.32414516656979" lon="12.904239423345663"><ele>400.0</ele><time>2026-04-26T12:38:30Z</time></trkpt><trkpt lat="43.3243093469768" lon="12.904274207087258"><ele>397.6666666666667</ele><time>2026-04-26T12:38:31Z</time></trkpt><trkpt lat="43.32446229741373" lon="12.904347023381304"><ele>395.33333333333337</ele><time>2026-04-26T12:38:32Z</time></trkpt><trkpt lat="43.324620568826084" lon="12.904421296585907"><ele>393.0</ele><time>2026-04-26T12:38:33Z</time></trkpt><trkpt lat="43.3247657754996" lon="12.904527060717108"><ele>393.0</ele><time>2026-04-26T12:38:34Z</time></trkpt><trkpt lat="43.324915444619236" lon="12.904657256261968"><ele>393.0</ele><time>2026-04-26T12:38:35Z</time></trkpt><trkpt lat="43.32505267006805" lon="12.904805864540759"><ele>393.0</ele><time>2026-04-26T12:38:36Z</time></trkpt><trkpt lat="43.32519526347382" lon="12.904950607755708"><ele>390.0</ele><time>2026-04-26T12:38:37Z</time></trkpt><trkpt lat="43.325332287258206" lon="12.905110590015266"><ele>387.0</ele><time>2026-04-26T12:38:38Z</time></trkpt><trkpt lat="43.325471159105994" lon="12.905269310501838"><ele>384.0</ele><time>2026-04-26T12:38:39Z</time></trkpt><trkpt lat="43.325614078728954" lon="12.90542450237298"><ele>383.0</ele><time>2026-04-26T12:38:40Z</time></trkpt><trkpt lat="43.32576211259035" lon="12.905575378995609"><ele>382.0</ele><time>2026-04-26T12:38:41Z</time></trkpt><trkpt lat="43.32590703761421" lon="12.905729442020677"><ele>381.0</ele><time>2026-04-26T12:38:42Z</time></trkpt><trkpt lat="43.32604844175972" lon="12.905881668093107"><ele>378.6666666666667</ele><time>2026-04-26T12:38:43Z</time></trkpt><trkpt lat="43.326187159419185" lon="12.906028413138655"><ele>376.33333333333337</ele><time>2026-04-26T12:38:44Z</time></trkpt><trkpt lat="43.32632088791255" lon="12.906164542624094"><ele>374.0</ele><time>2026-04-26T12:38:45Z</time></trkpt><trkpt lat="43.32644800322506" lon="12.906268641043066"><ele>372.6666666666667</ele><time>2026-04-26T12:38:46Z</time></trkpt><trkpt lat="43.326601431041624" lon="12.90634538603151"><ele>371.3333333333333</ele><time>2026-04-26T12:38:47Z</time></trkpt><trkpt lat="43.326770512436845" lon="12.906354757490083"><ele>370.0</ele><time>2026-04-26T12:38:48Z</time></trkpt><trkpt lat="43.32694743092015" lon="12.906361088418022"><ele>370.0</ele><time>2026-04-26T12:38:49Z</time></trkpt><trkpt lat="43.32712861756867" lon="12.906322921998655"><ele>370.0</ele><time>2026-04-26T12:38:50Z</time></trkpt><trkpt lat="43.327295618530535" lon="12.90626090511246"><ele>370.0</ele><time>2026-04-26T12:38:51Z</time></trkpt><trkpt lat="43.327441130650655" lon="12.906145962251095"><ele>370.3333333333333</ele><time>2026-04-26T12:38:52Z</time></trkpt><trkpt lat="43.32758362430872" lon="12.906017226223362"><ele>370.6666666666667</ele><time>2026-04-26T12:38:53Z</time></trkpt><trkpt lat="43.3277275369415" lon="12.905898553622752"><ele>371.0</ele><time>2026-04-26T12:38:54Z</time></trkpt><trkpt lat="43.32788070964418" lon="12.905796869070455"><ele>371.0</ele><time>2026-04-26T12:38:55Z</time></trkpt><trkpt lat="43.32803309126194" lon="12.905681667659845"><ele>371.0</ele><time>2026-04-26T12:38:56Z</time></trkpt><trkpt lat="43.3281868804448" lon="12.905572802820313"><ele>371.0</ele><time>2026-04-26T12:38:57Z</time></trkpt><trkpt lat="43.32834471131364" lon="12.905470507848719"><ele>367.6666666666667</ele><time>2026-04-26T12:38:58Z</time></trkpt><trkpt lat="43.32850512115778" lon="12.905358096644427"><ele>364.3333333333333</ele><time>2026-04-26T12:38:59Z</time></trkpt><trkpt lat="43.32866018858696" lon="12.905246867244937"><ele>361.0</ele><time>2026-04-26T12:39:00Z</time></trkpt><trkpt lat="43.32882454836629" lon="12.905184178805397"><ele>360.66666666666663</ele><time>2026-04-26T12:39:01Z</time></trkpt><trkpt lat="43.32897017195393" lon="12.905082978913638"><ele>360.3333333333333</ele><time>2026-04-26T12:39:02Z</time></trkpt><trkpt lat="43.329111230831856" lon="12.904984087397793"><ele>360.0</ele><time>2026-04-26T12:39:03Z</time></trkpt><trkpt lat="43.32925403857811" lon="12.9048867158141"><ele>360.0</ele><time>2026-04-26T12:39:04Z</time></trkpt><trkpt lat="43.329384077631715" lon="12.904778877432603"><ele>360.0</ele><time>2026-04-26T12:39:05Z</time></trkpt><trkpt lat="43.3295247586167" lon="12.904723333741567"><ele>360.0</ele><time>2026-04-26T12:39:06Z</time></trkpt><trkpt lat="43.329667894727706" lon="12.904688548882252"><ele>360.0</ele><time>2026-04-26T12:39:07Z</time></trkpt><trkpt lat="43.329808147958616" lon="12.904664359201107"><ele>359.6</ele><time>2026-04-26T12:39:08Z</time></trkpt><trkpt lat="43.329926342197126" lon="12.904645134400262"><ele>359.2</ele><time>2026-04-26T12:39:09Z</time></trkpt><trkpt lat="43.33003683839372" lon="12.904611309483563"><ele>358.79999999999995</ele><time>2026-04-26T12:39:10Z</time></trkpt><trkpt lat="43.33011106425347" lon="12.904552849432413"><ele>358.4</ele><time>2026-04-26T12:39:11Z</time></trkpt><trkpt lat="43.33017949022548" lon="12.904475928422576"><ele>358.0</ele><time>2026-04-26T12:39:12Z</time></trkpt><trkpt lat="43.33021153857694" lon="12.904361918555104"><ele>358.0</ele><time>2026-04-26T12:39:13Z</time></trkpt><trkpt lat="43.33021781506046" lon="12.904187905152222"><ele>358.0</ele><time>2026-04-26T12:39:14Z</time></trkpt><trkpt lat="43.33025689431769" lon="12.90397978785395"><ele>358.0</ele><time>2026-04-26T12:39:15Z</time></trkpt><trkpt lat="43.33030576656171" lon="12.903821158009466"><ele>358.0</ele><time>2026-04-26T12:39:16Z</time></trkpt><trkpt lat="43.33037968292292" lon="12.903682155923354"><ele>358.0</ele><time>2026-04-26T12:39:17Z</time></trkpt><trkpt lat="43.33045091602419" lon="12.903535954957514"><ele>358.0</ele><time>2026-04-26T12:39:18Z</time></trkpt><trkpt lat="43.33056291551013" lon="12.90340200428987"><ele>358.0</ele><time>2026-04-26T12:39:19Z</time></trkpt><trkpt lat="43.33067175158045" lon="12.90326897992639"><ele>358.0</ele><time>2026-04-26T12:39:20Z</time></trkpt><trkpt lat="43.330794520593784" lon="12.903187272236043"><ele>354.75</ele><time>2026-04-26T12:39:21Z</time></trkpt><trkpt lat="43.3309134058053" lon="12.903090092963208"><ele>351.5</ele><time>2026-04-26T12:39:22Z</time></trkpt><trkpt lat="43.33102190357375" lon="12.902979034910862"><ele>348.25</ele><time>2026-04-26T12:39:23Z</time></trkpt><trkpt lat="43.331135230678775" lon="12.902912751621997"><ele>345.0</ele><time>2026-04-26T12:39:24Z</time></trkpt><trkpt lat="43.331229801884746" lon="12.902837342810143"><ele>345.0</ele><time>2026-04-26T12:39:25Z</time></trkpt><trkpt lat="43.331309044758115" lon="12.902771842777053"><ele>345.0</ele><time>2026-04-26T12:39:26Z</time></trkpt><trkpt lat="43.33137760048494" lon="12.902726090186452"><ele>345.0</ele><time>2026-04-26T12:39:27Z</time></trkpt><trkpt lat="43.331444125644914" lon="12.902695800110966"><ele>345.0</ele><time>2026-04-26T12:39:28Z</time></trkpt><trkpt lat="43.33155020829246" lon="12.902601012746972"><ele>345.0</ele><time>2026-04-26T12:39:30Z</time></trkpt><trkpt lat="43.33161564452852" lon="12.902539660240164"><ele>345.0</ele><time>2026-04-26T12:39:32Z</time></trkpt><trkpt lat="43.33168638306848" lon="12.902434336084122"><ele>344.0</ele><time>2026-04-26T12:39:36Z</time></trkpt><trkpt lat="43.33174033490301" lon="12.902370552909279"><ele>343.0</ele><time>2026-04-26T12:39:37Z</time></trkpt><trkpt lat="43.33179439173598" lon="12.902295586548837"><ele>342.0</ele><time>2026-04-26T12:39:38Z</time></trkpt><trkpt lat="43.33184481104772" lon="12.902202721699602"><ele>341.0</ele><time>2026-04-26T12:39:39Z</time></trkpt><trkpt lat="43.33190855113182" lon="12.90211525477346"><ele>340.0</ele><time>2026-04-26T12:39:40Z</time></trkpt><trkpt lat="43.33197359172746" lon="12.90203073484127"><ele>339.0</ele><time>2026-04-26T12:39:41Z</time></trkpt><trkpt lat="43.33203830813854" lon="12.901948595551541"><ele>339.0</ele><time>2026-04-26T12:39:42Z</time></trkpt><trkpt lat="43.332108121975494" lon="12.901878238945129"><ele>339.0</ele><time>2026-04-26T12:39:43Z</time></trkpt><trkpt lat="43.332167306893446" lon="12.90179715585998"><ele>339.0</ele><time>2026-04-26T12:39:44Z</time></trkpt><trkpt lat="43.33223047011909" lon="12.901720061516087"><ele>339.0</ele><time>2026-04-26T12:39:45Z</time></trkpt><trkpt lat="43.33229084385652" lon="12.901644214772137"><ele>339.0</ele><time>2026-04-26T12:39:46Z</time></trkpt><trkpt lat="43.33234395582424" lon="12.901559854611726"><ele>339.0</ele><time>2026-04-26T12:39:47Z</time></trkpt><trkpt lat="43.33239658112107" lon="12.901474798385388"><ele>339.1666666666667</ele><time>2026-04-26T12:39:48Z</time></trkpt><trkpt lat="43.3324483260622" lon="12.901416674511344"><ele>339.3333333333333</ele><time>2026-04-26T12:39:51Z</time></trkpt><trkpt lat="43.33249536165965" lon="12.901335347520167"><ele>339.5</ele><time>2026-04-26T12:39:55Z</time></trkpt><trkpt lat="43.33254804784399" lon="12.901220826317205"><ele>339.66666666666663</ele><time>2026-04-26T12:39:57Z</time></trkpt><trkpt lat="43.33262107060574" lon="12.901187365880654"><ele>339.8333333333333</ele><time>2026-04-26T12:39:58Z</time></trkpt><trkpt lat="43.33266964843816" lon="12.90110423712053"><ele>340.0</ele><time>2026-04-26T12:39:59Z</time></trkpt><trkpt lat="43.33267215399636" lon="12.900967405978374"><ele>339.8</ele><time>2026-04-26T12:40:00Z</time></trkpt><trkpt lat="43.332720553685085" lon="12.900854781518818"><ele>339.6</ele><time>2026-04-26T12:40:01Z</time></trkpt><trkpt lat="43.3327721427979" lon="12.900728949911839"><ele>339.4</ele><time>2026-04-26T12:40:02Z</time></trkpt><trkpt lat="43.33283267596643" lon="12.900599822098823"><ele>339.2</ele><time>2026-04-26T12:40:03Z</time></trkpt><trkpt lat="43.332926334930555" lon="12.900514338711394"><ele>339.0</ele><time>2026-04-26T12:40:04Z</time></trkpt><trkpt lat="43.332999225306814" lon="12.900400235468721"><ele>338.25</ele><time>2026-04-26T12:40:05Z</time></trkpt><trkpt lat="43.33309153819571" lon="12.900277674096852"><ele>337.5</ele><time>2026-04-26T12:40:06Z</time></trkpt><trkpt lat="43.333170486398494" lon="12.900161242721891"><ele>336.75</ele><time>2026-04-26T12:40:07Z</time></trkpt><trkpt lat="43.33324570020065" lon="12.900034304591273"><ele>336.0</ele><time>2026-04-26T12:40:08Z</time></trkpt><trkpt lat="43.3333290855452" lon="12.899911832491787"><ele>334.75</ele><time>2026-04-26T12:40:09Z</time></trkpt><trkpt lat="43.33340969771697" lon="12.89978839170507"><ele>333.5</ele><time>2026-04-26T12:40:10Z</time></trkpt><trkpt lat="43.33349480837424" lon="12.89967236234328"><ele>332.25</ele><time>2026-04-26T12:40:11Z</time></trkpt><trkpt lat="43.333580598555" lon="12.899570737914013"><ele>331.0</ele><time>2026-04-26T12:40:12Z</time></trkpt><trkpt lat="43.33367820650176" lon="12.899481017866178"><ele>331.0</ele><time>2026-04-26T12:40:13Z</time></trkpt><trkpt lat="43.333797140853406" lon="12.89941145878999"><ele>331.0</ele><time>2026-04-26T12:40:14Z</time></trkpt><trkpt lat="43.3339424733132" lon="12.899395834500012"><ele>331.0</ele><time>2026-04-26T12:40:15Z</time></trkpt><trkpt lat="43.334079864500154" lon="12.899340837410634"><ele>331.0</ele><time>2026-04-26T12:40:16Z</time></trkpt><trkpt lat="43.33421287187409" lon="12.89926601243619"><ele>328.25</ele><time>2026-04-26T12:40:17Z</time></trkpt><trkpt lat="43.33435719799624" lon="12.899216600805273"><ele>325.5</ele><time>2026-04-26T12:40:18Z</time></trkpt><trkpt lat="43.3344964016334" lon="12.899159462011175"><ele>322.75</ele><time>2026-04-26T12:40:19Z</time></trkpt><trkpt lat="43.334638337641685" lon="12.899108578690123"><ele>320.0</ele><time>2026-04-26T12:40:20Z</time></trkpt><trkpt lat="43.3347767604491" lon="12.899066870143262"><ele>320.0</ele><time>2026-04-26T12:40:21Z</time></trkpt><trkpt lat="43.33490965235074" lon="12.899043989533375"><ele>320.0</ele><time>2026-04-26T12:40:22Z</time></trkpt><trkpt lat="43.33503011347746" lon="12.899033237319781"><ele>320.0</ele><time>2026-04-26T12:40:23Z</time></trkpt><trkpt lat="43.33513769055532" lon="12.899042412612264"><ele>320.0</ele><time>2026-04-26T12:40:24Z</time></trkpt><trkpt lat="43.3352384216427" lon="12.899079670796986"><ele>320.0</ele><time>2026-04-26T12:40:25Z</time></trkpt><trkpt lat="43.33532475071842" lon="12.899127790291999"><ele>320.0</ele><time>2026-04-26T12:40:26Z</time></trkpt><trkpt lat="43.33541670144827" lon="12.899185844246622"><ele>320.0</ele><time>2026-04-26T12:40:27Z</time></trkpt><trkpt lat="43.335507948523514" lon="12.899248154607376"><ele>320.0</ele><time>2026-04-26T12:40:28Z</time></trkpt><trkpt lat="43.335606581083056" lon="12.899311494109003"><ele>320.0</ele><time>2026-04-26T12:40:29Z</time></trkpt><trkpt lat="43.33571063675087" lon="12.899384226021292"><ele>319.25</ele><time>2026-04-26T12:40:30Z</time></trkpt><trkpt lat="43.33580916230001" lon="12.89945037864313"><ele>318.5</ele><time>2026-04-26T12:40:31Z</time></trkpt><trkpt lat="43.33591381838106" lon="12.899513487185041"><ele>317.75</ele><time>2026-04-26T12:40:32Z</time></trkpt><trkpt lat="43.33602046376337" lon="12.899599224555704"><ele>317.0</ele><time>2026-04-26T12:40:33Z</time></trkpt><trkpt lat="43.33612885692753" lon="12.899664731299644"><ele>317.0</ele><time>2026-04-26T12:40:34Z</time></trkpt><trkpt lat="43.3362320785603" lon="12.899722621910719"><ele>317.0</ele><time>2026-04-26T12:40:35Z</time></trkpt><trkpt lat="43.33633837951367" lon="12.899794279737833"><ele>317.0</ele><time>2026-04-26T12:40:36Z</time></trkpt><trkpt lat="43.33643805709457" lon="12.899851981456434"><ele>317.0</ele><time>2026-04-26T12:40:37Z</time></trkpt><trkpt lat="43.33653483746713" lon="12.89991241324189"><ele>317.0</ele><time>2026-04-26T12:40:38Z</time></trkpt><trkpt lat="43.33663338704155" lon="12.899969573052223"><ele>317.33333333333337</ele><time>2026-04-26T12:40:39Z</time></trkpt><trkpt lat="43.33672666055214" lon="12.900022692433078"><ele>317.6666666666667</ele><time>2026-04-26T12:40:40Z</time></trkpt><trkpt lat="43.33680950192785" lon="12.900071739787375"><ele>318.0</ele><time>2026-04-26T12:40:41Z</time></trkpt><trkpt lat="43.336889147166104" lon="12.900134125511345"><ele>318.3333333333333</ele><time>2026-04-26T12:40:42Z</time></trkpt><trkpt lat="43.336965030936334" lon="12.90018537311915"><ele>318.66666666666663</ele><time>2026-04-26T12:40:43Z</time></trkpt><trkpt lat="43.33703642473863" lon="12.900224359662724"><ele>319.0</ele><time>2026-04-26T12:40:44Z</time></trkpt><trkpt lat="43.3371029137091" lon="12.900266061162888"><ele>319.0</ele><time>2026-04-26T12:40:45Z</time></trkpt><trkpt lat="43.33717498782052" lon="12.90030479798428"><ele>319.0</ele><time>2026-04-26T12:40:46Z</time></trkpt><trkpt lat="43.3372546836162" lon="12.900343235348586"><ele>319.0</ele><time>2026-04-26T12:40:47Z</time></trkpt><trkpt lat="43.33734332483163" lon="12.900376780724676"><ele>319.0</ele><time>2026-04-26T12:40:48Z</time></trkpt><trkpt lat="43.33742908441974" lon="12.90040296612241"><ele>319.0</ele><time>2026-04-26T12:40:49Z</time></trkpt><trkpt lat="43.33752445491113" lon="12.900426306995838"><ele>319.0</ele><time>2026-04-26T12:40:50Z</time></trkpt><trkpt lat="43.33761906956049" lon="12.900405346375283"><ele>320.16666666666663</ele><time>2026-04-26T12:40:51Z</time></trkpt><trkpt lat="43.33769917967591" lon="12.900428865599014"><ele>321.3333333333333</ele><time>2026-04-26T12:40:52Z</time></trkpt><trkpt lat="43.33777527291796" lon="12.900447766312254"><ele>322.5</ele><time>2026-04-26T12:40:53Z</time></trkpt><trkpt lat="43.3378390410456" lon="12.90045162228536"><ele>323.6666666666667</ele><time>2026-04-26T12:40:54Z</time></trkpt><trkpt lat="43.33794373278892" lon="12.900473667608525"><ele>324.83333333333337</ele><time>2026-04-26T12:40:56Z</time></trkpt><trkpt lat="43.33801052851221" lon="12.900491688896283"><ele>326.0</ele><time>2026-04-26T12:40:57Z</time></trkpt><trkpt lat="43.338087064106276" lon="12.900507637622328"><ele>326.0</ele><time>2026-04-26T12:40:58Z</time></trkpt><trkpt lat="43.338171106428845" lon="12.900528946202096"><ele>326.0</ele><time>2026-04-26T12:40:59Z</time></trkpt><trkpt lat="43.33825801102803" lon="12.900545812638521"><ele>326.0</ele><time>2026-04-26T12:41:00Z</time></trkpt><trkpt lat="43.33835706842137" lon="12.900564755518982"><ele>326.0</ele><time>2026-04-26T12:41:01Z</time></trkpt><trkpt lat="43.33844689685507" lon="12.900600111246911"><ele>326.0</ele><time>2026-04-26T12:41:02Z</time></trkpt><trkpt lat="43.33853572714477" lon="12.900625764775446"><ele>326.0</ele><time>2026-04-26T12:41:03Z</time></trkpt><trkpt lat="43.33861887226367" lon="12.900648964044292"><ele>326.0</ele><time>2026-04-26T12:41:04Z</time></trkpt><trkpt lat="43.33869047717066" lon="12.900668688444496"><ele>326.0</ele><time>2026-04-26T12:41:05Z</time></trkpt><trkpt lat="43.338757929717644" lon="12.90066424781714"><ele>326.0</ele><time>2026-04-26T12:41:06Z</time></trkpt><trkpt lat="43.338818464234485" lon="12.9007038791203"><ele>326.0</ele><time>2026-04-26T12:41:07Z</time></trkpt><trkpt lat="43.338919418640145" lon="12.90072902211527"><ele>326.0</ele><time>2026-04-26T12:41:09Z</time></trkpt><trkpt lat="43.339009312866665" lon="12.90074065374668"><ele>326.20000000000005</ele><time>2026-04-26T12:41:13Z</time></trkpt><trkpt lat="43.33908210719761" lon="12.900782022539303"><ele>326.40000000000003</ele><time>2026-04-26T12:41:16Z</time></trkpt><trkpt lat="43.339149158634314" lon="12.900791023055998"><ele>326.6</ele><time>2026-04-26T12:41:20Z</time></trkpt><trkpt lat="43.339224486701085" lon="12.900836176162203"><ele>326.8</ele><time>2026-04-26T12:41:23Z</time></trkpt><trkpt lat="43.339296803546894" lon="12.900656375630266"><ele>327.0</ele><time>2026-04-26T12:41:24Z</time></trkpt><trkpt lat="43.33935523870598" lon="12.900539065606688"><ele>327.0</ele><time>2026-04-26T12:41:26Z</time></trkpt><trkpt lat="43.33940842683123" lon="12.900423239903212"><ele>327.0</ele><time>2026-04-26T12:41:28Z</time></trkpt><trkpt lat="43.33946650726276" lon="12.900312624533841"><ele>327.0</ele><time>2026-04-26T12:41:30Z</time></trkpt><trkpt lat="43.339519784892985" lon="12.90020008805018"><ele>327.0</ele><time>2026-04-26T12:41:32Z</time></trkpt><trkpt lat="43.33959831637662" lon="12.90013842165647"><ele>327.0</ele><time>2026-04-26T12:41:34Z</time></trkpt><trkpt lat="43.33968651490495" lon="12.900184475690041"><ele>326.3333333333333</ele><time>2026-04-26T12:41:35Z</time></trkpt><trkpt lat="43.33975084313094" lon="12.900231918690674"><ele>325.6666666666667</ele><time>2026-04-26T12:41:36Z</time></trkpt><trkpt lat="43.33982087730464" lon="12.900282374383897"><ele>325.0</ele><time>2026-04-26T12:41:37Z</time></trkpt><trkpt lat="43.339894709690725" lon="12.900335320902347"><ele>324.33333333333337</ele><time>2026-04-26T12:41:38Z</time></trkpt><trkpt lat="43.339984453764274" lon="12.900397447518289"><ele>323.6666666666667</ele><time>2026-04-26T12:41:39Z</time></trkpt><trkpt lat="43.34007421406442" lon="12.900456947308621"><ele>323.0</ele><time>2026-04-26T12:41:40Z</time></trkpt><trkpt lat="43.340171320719776" lon="12.90052546496377"><ele>323.0</ele><time>2026-04-26T12:41:41Z</time></trkpt><trkpt lat="43.3402700308485" lon="12.900574497435626"><ele>323.0</ele><time>2026-04-26T12:41:42Z</time></trkpt><trkpt lat="43.34037741773094" lon="12.90064816712783"><ele>323.0</ele><time>2026-04-26T12:41:43Z</time></trkpt><trkpt lat="43.340487341398806" lon="12.900718221768447"><ele>323.0</ele><time>2026-04-26T12:41:44Z</time></trkpt><trkpt lat="43.340595206700826" lon="12.900797028072411"><ele>322.75</ele><time>2026-04-26T12:41:45Z</time></trkpt><trkpt lat="43.340702013256944" lon="12.900875997200178"><ele>322.5</ele><time>2026-04-26T12:41:46Z</time></trkpt><trkpt lat="43.34081697043887" lon="12.900987768551747"><ele>322.25</ele><time>2026-04-26T12:41:47Z</time></trkpt><trkpt lat="43.340928595370826" lon="12.901064938009858"><ele>322.0</ele><time>2026-04-26T12:41:48Z</time></trkpt><trkpt lat="43.34104511893599" lon="12.901142238327761"><ele>322.0</ele><time>2026-04-26T12:41:49Z</time></trkpt><trkpt lat="43.34115715917109" lon="12.901226598121914"><ele>322.0</ele><time>2026-04-26T12:41:50Z</time></trkpt><trkpt lat="43.34127427255611" lon="12.901301359131631"><ele>322.0</ele><time>2026-04-26T12:41:51Z</time></trkpt><trkpt lat="43.34139965063171" lon="12.901378351586937"><ele>322.0</ele><time>2026-04-26T12:41:52Z</time></trkpt><trkpt lat="43.34152599412375" lon="12.901461007964848"><ele>321.75</ele><time>2026-04-26T12:41:53Z</time></trkpt><trkpt lat="43.341657085195834" lon="12.901537565477463"><ele>321.5</ele><time>2026-04-26T12:41:54Z</time></trkpt><trkpt lat="43.3417855878546" lon="12.901626224312322"><ele>321.25</ele><time>2026-04-26T12:41:55Z</time></trkpt><trkpt lat="43.34191310179697" lon="12.901703195657982"><ele>321.0</ele><time>2026-04-26T12:41:56Z</time></trkpt><trkpt lat="43.34204663019682" lon="12.901778593210285"><ele>320.5</ele><time>2026-04-26T12:41:57Z</time></trkpt><trkpt lat="43.3421823004778" lon="12.901849385632111"><ele>320.0</ele><time>2026-04-26T12:41:58Z</time></trkpt><trkpt lat="43.342300050060516" lon="12.901891205113248"><ele>319.5</ele><time>2026-04-26T12:41:59Z</time></trkpt><trkpt lat="43.34239747259399" lon="12.901928322802952"><ele>319.0</ele><time>2026-04-26T12:42:00Z</time></trkpt><trkpt lat="43.34249329652833" lon="12.90195941658996"><ele>318.8333333333333</ele><time>2026-04-26T12:42:01Z</time></trkpt><trkpt lat="43.34257951685652" lon="12.901990568058206"><ele>318.66666666666663</ele><time>2026-04-26T12:42:02Z</time></trkpt><trkpt lat="43.34265531727506" lon="12.902021718234197"><ele>318.5</ele><time>2026-04-26T12:42:03Z</time></trkpt><trkpt lat="43.34272260079347" lon="12.902054713461354"><ele>318.3333333333333</ele><time>2026-04-26T12:42:04Z</time></trkpt><trkpt lat="43.34279177323455" lon="12.902107606493008"><ele>318.1666666666667</ele><time>2026-04-26T12:42:05Z</time></trkpt><trkpt lat="43.342877739652316" lon="12.902132906944084"><ele>318.0</ele><time>2026-04-26T12:42:06Z</time></trkpt><trkpt lat="43.34294593722679" lon="12.902283758671485"><ele>318.0</ele><time>2026-04-26T12:42:07Z</time></trkpt><trkpt lat="43.343046501156316" lon="12.902381051451972"><ele>318.0</ele><time>2026-04-26T12:42:08Z</time></trkpt><trkpt lat="43.34317162953189" lon="12.902443783842632"><ele>318.0</ele><time>2026-04-26T12:42:09Z</time></trkpt><trkpt lat="43.343296381402034" lon="12.902510024954713"><ele>318.0</ele><time>2026-04-26T12:42:10Z</time></trkpt><trkpt lat="43.34341130064548" lon="12.90262730168853"><ele>317.75</ele><time>2026-04-26T12:42:11Z</time></trkpt><trkpt lat="43.34354116374748" lon="12.902713898666972"><ele>317.5</ele><time>2026-04-26T12:42:12Z</time></trkpt><trkpt lat="43.34367448899678" lon="12.902807112934033"><ele>317.25</ele><time>2026-04-26T12:42:13Z</time></trkpt><trkpt lat="43.3438061842701" lon="12.902910166483347"><ele>317.0</ele><time>2026-04-26T12:42:14Z</time></trkpt><trkpt lat="43.34393460022227" lon="12.903018560328032"><ele>316.33333333333337</ele><time>2026-04-26T12:42:15Z</time></trkpt><trkpt lat="43.344065170092605" lon="12.903132688543355"><ele>315.6666666666667</ele><time>2026-04-26T12:42:16Z</time></trkpt><trkpt lat="43.344196993660155" lon="12.903248638169924"><ele>315.0</ele><time>2026-04-26T12:42:17Z</time></trkpt><trkpt lat="43.3443409353043" lon="12.903355024485197"><ele>315.0</ele><time>2026-04-26T12:42:18Z</time></trkpt><trkpt lat="43.34446852807496" lon="12.903485698959187"><ele>315.0</ele><time>2026-04-26T12:42:19Z</time></trkpt><trkpt lat="43.34459767761022" lon="12.903606242455952"><ele>315.0</ele><time>2026-04-26T12:42:20Z</time></trkpt><trkpt lat="43.344731326132305" lon="12.903716819039296"><ele>315.0</ele><time>2026-04-26T12:42:21Z</time></trkpt><trkpt lat="43.344866066156726" lon="12.903834203662797"><ele>315.0</ele><time>2026-04-26T12:42:22Z</time></trkpt><trkpt lat="43.34500582161969" lon="12.90394746535077"><ele>315.0</ele><time>2026-04-26T12:42:23Z</time></trkpt><trkpt lat="43.34514190177816" lon="12.904066127502432"><ele>315.0</ele><time>2026-04-26T12:42:24Z</time></trkpt><trkpt lat="43.345276386483626" lon="12.90418042091851"><ele>315.0</ele><time>2026-04-26T12:42:25Z</time></trkpt><trkpt lat="43.34541300273698" lon="12.904282436325232"><ele>315.0</ele><time>2026-04-26T12:42:26Z</time></trkpt><trkpt lat="43.34554647830133" lon="12.904395622846266"><ele>315.0</ele><time>2026-04-26T12:42:27Z</time></trkpt><trkpt lat="43.3456866296257" lon="12.904504940995105"><ele>315.0</ele><time>2026-04-26T12:42:28Z</time></trkpt><trkpt lat="43.34582296605557" lon="12.904616147901061"><ele>315.0</ele><time>2026-04-26T12:42:29Z</time></trkpt><trkpt lat="43.34595974159018" lon="12.904729728086352"><ele>315.0</ele><time>2026-04-26T12:42:30Z</time></trkpt><trkpt lat="43.346097378050814" lon="12.904846515059864"><ele>315.0</ele><time>2026-04-26T12:42:31Z</time></trkpt><trkpt lat="43.34624023626008" lon="12.904962482390879"><ele>315.0</ele><time>2026-04-26T12:42:32Z</time></trkpt><trkpt lat="43.34638385496339" lon="12.905081420760675"><ele>315.3333333333333</ele><time>2026-04-26T12:42:33Z</time></trkpt><trkpt lat="43.346527559677774" lon="12.905210989543894"><ele>315.66666666666663</ele><time>2026-04-26T12:42:34Z</time></trkpt><trkpt lat="43.34667373020131" lon="12.905337659362672"><ele>316.0</ele><time>2026-04-26T12:42:35Z</time></trkpt><trkpt lat="43.34681978828643" lon="12.9054606476661"><ele>316.0</ele><time>2026-04-26T12:42:36Z</time></trkpt><trkpt lat="43.34696454753242" lon="12.905586094222157"><ele>316.0</ele><time>2026-04-26T12:42:37Z</time></trkpt><trkpt lat="43.34711104159046" lon="12.905710843102286"><ele>316.0</ele><time>2026-04-26T12:42:38Z</time></trkpt><trkpt lat="43.34725727541799" lon="12.905840808637684"><ele>315.66666666666663</ele><time>2026-04-26T12:42:39Z</time></trkpt><trkpt lat="43.34740416439269" lon="12.905966416040393"><ele>315.3333333333333</ele><time>2026-04-26T12:42:40Z</time></trkpt><trkpt lat="43.34754995693761" lon="12.906091444852757"><ele>315.0</ele><time>2026-04-26T12:42:41Z</time></trkpt><trkpt lat="43.347692328512004" lon="12.906214250530557"><ele>315.0</ele><time>2026-04-26T12:42:42Z</time></trkpt><trkpt lat="43.347830298278765" lon="12.906331555598525"><ele>315.0</ele><time>2026-04-26T12:42:43Z</time></trkpt><trkpt lat="43.34795962014177" lon="12.906446013506404"><ele>315.0</ele><time>2026-04-26T12:42:44Z</time></trkpt><trkpt lat="43.34807987438755" lon="12.906549727597683"><ele>315.0</ele><time>2026-04-26T12:42:45Z</time></trkpt><trkpt lat="43.34819257703714" lon="12.906651384565182"><ele>315.0</ele><time>2026-04-26T12:42:46Z</time></trkpt><trkpt lat="43.3483101225818" lon="12.906753633023294"><ele>315.0</ele><time>2026-04-26T12:42:47Z</time></trkpt><trkpt lat="43.34842870566431" lon="12.90685470707602"><ele>315.0</ele><time>2026-04-26T12:42:48Z</time></trkpt><trkpt lat="43.34854652186686" lon="12.906950379141145"><ele>315.0</ele><time>2026-04-26T12:42:49Z</time></trkpt><trkpt lat="43.348660763236474" lon="12.907045162164648"><ele>315.0</ele><time>2026-04-26T12:42:50Z</time></trkpt><trkpt lat="43.34877050477063" lon="12.907132443443679"><ele>315.0</ele><time>2026-04-26T12:42:51Z</time></trkpt><trkpt lat="43.348875698684395" lon="12.907215191792258"><ele>315.0</ele><time>2026-04-26T12:42:52Z</time></trkpt><trkpt lat="43.34897099981543" lon="12.907294803763351"><ele>313.25</ele><time>2026-04-26T12:42:53Z</time></trkpt><trkpt lat="43.34906960488565" lon="12.907373193809407"><ele>311.5</ele><time>2026-04-26T12:42:54Z</time></trkpt><trkpt lat="43.34917757449175" lon="12.907443961277243"><ele>309.75</ele><time>2026-04-26T12:42:55Z</time></trkpt><trkpt lat="43.34929520516097" lon="12.907501385964036"><ele>308.0</ele><time>2026-04-26T12:42:56Z</time></trkpt><trkpt lat="43.34941834926891" lon="12.907542072781432"><ele>308.75</ele><time>2026-04-26T12:42:57Z</time></trkpt><trkpt lat="43.349548232024425" lon="12.90758438913699"><ele>309.5</ele><time>2026-04-26T12:42:58Z</time></trkpt><trkpt lat="43.34968208669622" lon="12.907618984957075"><ele>310.25</ele><time>2026-04-26T12:42:59Z</time></trkpt><trkpt lat="43.349816801275544" lon="12.907651907477986"><ele>311.0</ele><time>2026-04-26T12:43:00Z</time></trkpt><trkpt lat="43.349956909881286" lon="12.907689911644313"><ele>309.5</ele><time>2026-04-26T12:43:01Z</time></trkpt><trkpt lat="43.350098763684166" lon="12.907724800559286"><ele>308.0</ele><time>2026-04-26T12:43:02Z</time></trkpt><trkpt lat="43.35023831060308" lon="12.907760911778867"><ele>306.5</ele><time>2026-04-26T12:43:03Z</time></trkpt><trkpt lat="43.35036724001782" lon="12.907798306887344"><ele>305.0</ele><time>2026-04-26T12:43:04Z</time></trkpt><trkpt lat="43.35049454813631" lon="12.90783830422477"><ele>305.0</ele><time>2026-04-26T12:43:05Z</time></trkpt><trkpt lat="43.35060763599574" lon="12.907869134411195"><ele>305.0</ele><time>2026-04-26T12:43:06Z</time></trkpt><trkpt lat="43.35071038753883" lon="12.90789793652559"><ele>305.0</ele><time>2026-04-26T12:43:07Z</time></trkpt><trkpt lat="43.35080561103779" lon="12.907939372902455"><ele>305.0</ele><time>2026-04-26T12:43:08Z</time></trkpt><trkpt lat="43.35089312220787" lon="12.907988381070247"><ele>305.0</ele><time>2026-04-26T12:43:09Z</time></trkpt><trkpt lat="43.350962046811155" lon="12.908047801392982"><ele>305.0</ele><time>2026-04-26T12:43:10Z</time></trkpt><trkpt lat="43.351027994872005" lon="12.90804462089269"><ele>305.0</ele><time>2026-04-26T12:43:11Z</time></trkpt><trkpt lat="43.35108967102562" lon="12.908076214302598"><ele>305.0</ele><time>2026-04-26T12:43:12Z</time></trkpt><trkpt lat="43.35116348408692" lon="12.908114022694345"><ele>305.0</ele><time>2026-04-26T12:43:13Z</time></trkpt><trkpt lat="43.35124385423776" lon="12.908146373179523"><ele>305.0</ele><time>2026-04-26T12:43:14Z</time></trkpt><trkpt lat="43.35134693226391" lon="12.908120598960144"><ele>305.0</ele><time>2026-04-26T12:43:15Z</time></trkpt><trkpt lat="43.35145745358462" lon="12.908117171751417"><ele>303.75</ele><time>2026-04-26T12:43:16Z</time></trkpt><trkpt lat="43.35157614367908" lon="12.908142978647923"><ele>302.5</ele><time>2026-04-26T12:43:17Z</time></trkpt><trkpt lat="43.35170255155117" lon="12.908187907741459"><ele>301.25</ele><time>2026-04-26T12:43:18Z</time></trkpt><trkpt lat="43.351835436896884" lon="12.908230215347082"><ele>300.0</ele><time>2026-04-26T12:43:19Z</time></trkpt><trkpt lat="43.35196654517821" lon="12.90829056917437"><ele>300.0</ele><time>2026-04-26T12:43:20Z</time></trkpt><trkpt lat="43.35210523645229" lon="12.908331238173837"><ele>300.0</ele><time>2026-04-26T12:43:21Z</time></trkpt><trkpt lat="43.352249510098325" lon="12.908353782980655"><ele>300.0</ele><time>2026-04-26T12:43:22Z</time></trkpt><trkpt lat="43.352390975596954" lon="12.908395867708789"><ele>300.0</ele><time>2026-04-26T12:43:23Z</time></trkpt><trkpt lat="43.352533142140096" lon="12.908429808890277"><ele>299.25</ele><time>2026-04-26T12:43:24Z</time></trkpt><trkpt lat="43.35267163757775" lon="12.908446322323416"><ele>298.5</ele><time>2026-04-26T12:43:25Z</time></trkpt><trkpt lat="43.35281267195591" lon="12.908467594789796"><ele>297.75</ele><time>2026-04-26T12:43:26Z</time></trkpt><trkpt lat="43.352953004912976" lon="12.908478135024495"><ele>297.0</ele><time>2026-04-26T12:43:27Z</time></trkpt><trkpt lat="43.35309063911885" lon="12.908468451452936"><ele>296.5</ele><time>2026-04-26T12:43:28Z</time></trkpt><trkpt lat="43.3532280018796" lon="12.908415845903418"><ele>296.0</ele><time>2026-04-26T12:43:29Z</time></trkpt><trkpt lat="43.35336143867246" lon="12.908319764683057"><ele>295.5</ele><time>2026-04-26T12:43:30Z</time></trkpt><trkpt lat="43.3535023628424" lon="12.908233838806401"><ele>295.0</ele><time>2026-04-26T12:43:31Z</time></trkpt><trkpt lat="43.35362429885045" lon="12.908105230948463"><ele>295.0</ele><time>2026-04-26T12:43:32Z</time></trkpt><trkpt lat="43.353757712166555" lon="12.907997264823678"><ele>295.0</ele><time>2026-04-26T12:43:33Z</time></trkpt><trkpt lat="43.35389326461936" lon="12.90788997721291"><ele>295.0</ele><time>2026-04-26T12:43:34Z</time></trkpt><trkpt lat="43.35403123885007" lon="12.907781812797856"><ele>296.3333333333333</ele><time>2026-04-26T12:43:35Z</time></trkpt><trkpt lat="43.354179276476465" lon="12.907701261810653"><ele>297.6666666666667</ele><time>2026-04-26T12:43:36Z</time></trkpt><trkpt lat="43.35431365923987" lon="12.907587199708038"><ele>299.0</ele><time>2026-04-26T12:43:37Z</time></trkpt><trkpt lat="43.35446681023285" lon="12.907509863747483"><ele>299.33333333333337</ele><time>2026-04-26T12:43:38Z</time></trkpt><trkpt lat="43.35461852498469" lon="12.90743144936251"><ele>299.6666666666667</ele><time>2026-04-26T12:43:39Z</time></trkpt><trkpt lat="43.35476595903304" lon="12.907347864343613"><ele>300.0</ele><time>2026-04-26T12:43:40Z</time></trkpt><trkpt lat="43.354906959009725" lon="12.907262424801754"><ele>300.3333333333333</ele><time>2026-04-26T12:43:41Z</time></trkpt><trkpt lat="43.355053305316694" lon="12.907188400508298"><ele>300.66666666666663</ele><time>2026-04-26T12:43:42Z</time></trkpt><trkpt lat="43.355199191534304" lon="12.90712526269709"><ele>301.0</ele><time>2026-04-26T12:43:43Z</time></trkpt><trkpt lat="43.35534329860371" lon="12.907072490172713"><ele>301.0</ele><time>2026-04-26T12:43:44Z</time></trkpt><trkpt lat="43.355495950800595" lon="12.907038781847277"><ele>301.0</ele><time>2026-04-26T12:43:45Z</time></trkpt><trkpt lat="43.35565015565508" lon="12.90702270395209"><ele>301.0</ele><time>2026-04-26T12:43:46Z</time></trkpt><trkpt lat="43.3558040208099" lon="12.907020742132847"><ele>301.0</ele><time>2026-04-26T12:43:47Z</time></trkpt><trkpt lat="43.35595669926546" lon="12.907015513801301"><ele>301.0</ele><time>2026-04-26T12:43:48Z</time></trkpt><trkpt lat="43.35611353038739" lon="12.907013057645043"><ele>301.0</ele><time>2026-04-26T12:43:49Z</time></trkpt><trkpt lat="43.35626938216213" lon="12.907006628844014"><ele>301.3333333333333</ele><time>2026-04-26T12:43:50Z</time></trkpt><trkpt lat="43.35642638324092" lon="12.907003299122614"><ele>301.6666666666667</ele><time>2026-04-26T12:43:51Z</time></trkpt><trkpt lat="43.35658310308613" lon="12.90700732218348"><ele>302.0</ele><time>2026-04-26T12:43:52Z</time></trkpt><trkpt lat="43.35673793218563" lon="12.907023308773143"><ele>302.0</ele><time>2026-04-26T12:43:53Z</time></trkpt><trkpt lat="43.356893411337744" lon="12.907053214353844"><ele>302.0</ele><time>2026-04-26T12:43:54Z</time></trkpt><trkpt lat="43.357045980542686" lon="12.907100712907054"><ele>302.0</ele><time>2026-04-26T12:43:55Z</time></trkpt><trkpt lat="43.35719951311772" lon="12.907168821739102"><ele>303.0</ele><time>2026-04-26T12:43:56Z</time></trkpt><trkpt lat="43.357347164703164" lon="12.907241802278596"><ele>304.0</ele><time>2026-04-26T12:43:57Z</time></trkpt><trkpt lat="43.35749541622629" lon="12.907311594920095"><ele>305.0</ele><time>2026-04-26T12:43:58Z</time></trkpt><trkpt lat="43.35764667210321" lon="12.907374779473768"><ele>305.0</ele><time>2026-04-26T12:43:59Z</time></trkpt><trkpt lat="43.35779766127947" lon="12.907427291978175"><ele>305.0</ele><time>2026-04-26T12:44:00Z</time></trkpt><trkpt lat="43.35795464616061" lon="12.907460554707665"><ele>305.0</ele><time>2026-04-26T12:44:01Z</time></trkpt><trkpt lat="43.35811252818029" lon="12.907492808816444"><ele>305.33333333333337</ele><time>2026-04-26T12:44:02Z</time></trkpt><trkpt lat="43.35826997255321" lon="12.907521092229125"><ele>305.6666666666667</ele><time>2026-04-26T12:44:03Z</time></trkpt><trkpt lat="43.35843139641499" lon="12.907546001191083"><ele>306.0</ele><time>2026-04-26T12:44:04Z</time></trkpt><trkpt lat="43.35859146592088" lon="12.907572734911074"><ele>306.3333333333333</ele><time>2026-04-26T12:44:05Z</time></trkpt><trkpt lat="43.35875124456293" lon="12.907597994985577"><ele>306.66666666666663</ele><time>2026-04-26T12:44:06Z</time></trkpt><trkpt lat="43.35891356776741" lon="12.907627440376752"><ele>307.0</ele><time>2026-04-26T12:44:07Z</time></trkpt><trkpt lat="43.35907151456695" lon="12.907656067140833"><ele>309.3333333333333</ele><time>2026-04-26T12:44:08Z</time></trkpt><trkpt lat="43.35922801828497" lon="12.907682316683495"><ele>311.6666666666667</ele><time>2026-04-26T12:44:09Z</time></trkpt><trkpt lat="43.3593852557205" lon="12.907704534880382"><ele>314.0</ele><time>2026-04-26T12:44:10Z</time></trkpt><trkpt lat="43.35954067142123" lon="12.907743479899146"><ele>314.0</ele><time>2026-04-26T12:44:11Z</time></trkpt><trkpt lat="43.35967658227238" lon="12.907763696634184"><ele>314.0</ele><time>2026-04-26T12:44:12Z</time></trkpt><trkpt lat="43.359811496398606" lon="12.907791757516412"><ele>314.0</ele><time>2026-04-26T12:44:13Z</time></trkpt><trkpt lat="43.35993444226074" lon="12.907858512414201"><ele>314.0</ele><time>2026-04-26T12:44:14Z</time></trkpt><trkpt lat="43.36004439729121" lon="12.907968454859528"><ele>314.5</ele><time>2026-04-26T12:44:15Z</time></trkpt><trkpt lat="43.36013196598789" lon="12.908115128727715"><ele>315.0</ele><time>2026-04-26T12:44:16Z</time></trkpt><trkpt lat="43.36020435672255" lon="12.908276929529402"><ele>315.5</ele><time>2026-04-26T12:44:17Z</time></trkpt><trkpt lat="43.36026856055385" lon="12.90844365543656"><ele>316.0</ele><time>2026-04-26T12:44:18Z</time></trkpt><trkpt lat="43.360332377108335" lon="12.908622666252048"><ele>316.25</ele><time>2026-04-26T12:44:19Z</time></trkpt><trkpt lat="43.360403524324994" lon="12.908797192316577"><ele>316.5</ele><time>2026-04-26T12:44:20Z</time></trkpt><trkpt lat="43.360470630938195" lon="12.908970419463824"><ele>316.75</ele><time>2026-04-26T12:44:21Z</time></trkpt><trkpt lat="43.360542393218516" lon="12.909137053716723"><ele>317.0</ele><time>2026-04-26T12:44:22Z</time></trkpt><trkpt lat="43.36063200231207" lon="12.909284328161174"><ele>318.25</ele><time>2026-04-26T12:44:23Z</time></trkpt><trkpt lat="43.36073178800703" lon="12.909416929423806"><ele>319.5</ele><time>2026-04-26T12:44:24Z</time></trkpt><trkpt lat="43.360842016724774" lon="12.90954325931346"><ele>320.75</ele><time>2026-04-26T12:44:25Z</time></trkpt><trkpt lat="43.360951769438074" lon="12.909668357657175"><ele>322.0</ele><time>2026-04-26T12:44:26Z</time></trkpt><trkpt lat="43.36106098201716" lon="12.909797623193233"><ele>322.0</ele><time>2026-04-26T12:44:27Z</time></trkpt><trkpt lat="43.36116961726284" lon="12.909928644517166"><ele>322.0</ele><time>2026-04-26T12:44:28Z</time></trkpt><trkpt lat="43.36127043057549" lon="12.910070063521086"><ele>322.0</ele><time>2026-04-26T12:44:29Z</time></trkpt><trkpt lat="43.36138473356292" lon="12.91018607367895"><ele>322.0</ele><time>2026-04-26T12:44:30Z</time></trkpt><trkpt lat="43.361488858652606" lon="12.910305091909699"><ele>322.75</ele><time>2026-04-26T12:44:31Z</time></trkpt><trkpt lat="43.361584645040566" lon="12.910437780096244"><ele>323.5</ele><time>2026-04-26T12:44:32Z</time></trkpt><trkpt lat="43.36167352960209" lon="12.910552943617002"><ele>324.25</ele><time>2026-04-26T12:44:33Z</time></trkpt><trkpt lat="43.36177374943938" lon="12.910670872789447"><ele>325.0</ele><time>2026-04-26T12:44:34Z</time></trkpt><trkpt lat="43.361879859834765" lon="12.910788438008902"><ele>325.0</ele><time>2026-04-26T12:44:35Z</time></trkpt><trkpt lat="43.36199144243041" lon="12.910904312414608"><ele>325.0</ele><time>2026-04-26T12:44:36Z</time></trkpt><trkpt lat="43.36210643364312" lon="12.911024842330317"><ele>325.0</ele><time>2026-04-26T12:44:37Z</time></trkpt><trkpt lat="43.36221769947234" lon="12.911151836715842"><ele>325.0</ele><time>2026-04-26T12:44:38Z</time></trkpt><trkpt lat="43.36233316092125" lon="12.911286653311109"><ele>324.0</ele><time>2026-04-26T12:44:39Z</time></trkpt><trkpt lat="43.36245228516612" lon="12.911417659913134"><ele>323.0</ele><time>2026-04-26T12:44:40Z</time></trkpt><trkpt lat="43.362572260225335" lon="12.911551365436104"><ele>322.0</ele><time>2026-04-26T12:44:41Z</time></trkpt><trkpt lat="43.36269343317397" lon="12.911689962805257"><ele>322.0</ele><time>2026-04-26T12:44:42Z</time></trkpt><trkpt lat="43.36281149346343" lon="12.911820658241211"><ele>322.0</ele><time>2026-04-26T12:44:43Z</time></trkpt><trkpt lat="43.36293675337199" lon="12.911950036780356"><ele>322.0</ele><time>2026-04-26T12:44:44Z</time></trkpt><trkpt lat="43.36305286011517" lon="12.912079815207523"><ele>322.0</ele><time>2026-04-26T12:44:45Z</time></trkpt><trkpt lat="43.36317537332532" lon="12.912213241545244"><ele>322.0</ele><time>2026-04-26T12:44:46Z</time></trkpt><trkpt lat="43.36330160931223" lon="12.912345236667466"><ele>322.0</ele><time>2026-04-26T12:44:47Z</time></trkpt><trkpt lat="43.36342873581833" lon="12.912470053060357"><ele>325.0</ele><time>2026-04-26T12:44:48Z</time></trkpt><trkpt lat="43.363557937276084" lon="12.912591110297658"><ele>328.0</ele><time>2026-04-26T12:44:49Z</time></trkpt><trkpt lat="43.363684573260294" lon="12.912713899873863"><ele>331.0</ele><time>2026-04-26T12:44:50Z</time></trkpt><trkpt lat="43.36381076320538" lon="12.91283753510923"><ele>331.3333333333333</ele><time>2026-04-26T12:44:51Z</time></trkpt><trkpt lat="43.36393799017681" lon="12.912957464778335"><ele>331.6666666666667</ele><time>2026-04-26T12:44:52Z</time></trkpt><trkpt lat="43.36406982529236" lon="12.913068451406192"><ele>332.0</ele><time>2026-04-26T12:44:53Z</time></trkpt><trkpt lat="43.364212578271804" lon="12.913152113464339"><ele>332.0</ele><time>2026-04-26T12:44:54Z</time></trkpt><trkpt lat="43.36435558778048" lon="12.913214675815226"><ele>332.0</ele><time>2026-04-26T12:44:55Z</time></trkpt><trkpt lat="43.364509119962776" lon="12.913268881777725"><ele>332.0</ele><time>2026-04-26T12:44:56Z</time></trkpt><trkpt lat="43.364667763966146" lon="12.91331537882779"><ele>332.33333333333337</ele><time>2026-04-26T12:44:57Z</time></trkpt><trkpt lat="43.36482954196946" lon="12.913362153513965"><ele>332.6666666666667</ele><time>2026-04-26T12:44:58Z</time></trkpt><trkpt lat="43.36498443948515" lon="12.913422435822516"><ele>333.0</ele><time>2026-04-26T12:44:59Z</time></trkpt><trkpt lat="43.36514367897418" lon="12.913458770901077"><ele>333.0</ele><time>2026-04-26T12:45:00Z</time></trkpt><trkpt lat="43.36529927787474" lon="12.913488757184535"><ele>333.0</ele><time>2026-04-26T12:45:01Z</time></trkpt><trkpt lat="43.36545413979781" lon="12.913511500158334"><ele>333.0</ele><time>2026-04-26T12:45:02Z</time></trkpt><trkpt lat="43.36560923108151" lon="12.913547284584844"><ele>335.6666666666667</ele><time>2026-04-26T12:45:03Z</time></trkpt><trkpt lat="43.36575406890521" lon="12.913603686669171"><ele>338.33333333333337</ele><time>2026-04-26T12:45:04Z</time></trkpt><trkpt lat="43.36588693500888" lon="12.91370117926745"><ele>341.0</ele><time>2026-04-26T12:45:05Z</time></trkpt><trkpt lat="43.36601309387856" lon="12.913818881187142"><ele>341.0</ele><time>2026-04-26T12:45:06Z</time></trkpt><trkpt lat="43.36612700551568" lon="12.913945847266902"><ele>341.0</ele><time>2026-04-26T12:45:07Z</time></trkpt><trkpt lat="43.36624022041108" lon="12.914081476413712"><ele>341.0</ele><time>2026-04-26T12:45:08Z</time></trkpt><trkpt lat="43.366351171036506" lon="12.914213609810071"><ele>341.0</ele><time>2026-04-26T12:45:09Z</time></trkpt><trkpt lat="43.3664593703598" lon="12.914351642436268"><ele>343.25</ele><time>2026-04-26T12:45:10Z</time></trkpt><trkpt lat="43.36656954743475" lon="12.914476060722583"><ele>345.5</ele><time>2026-04-26T12:45:11Z</time></trkpt><trkpt lat="43.36668069049459" lon="12.914600703268029"><ele>347.75</ele><time>2026-04-26T12:45:12Z</time></trkpt><trkpt lat="43.36679621697762" lon="12.914719496271415"><ele>350.0</ele><time>2026-04-26T12:45:13Z</time></trkpt><trkpt lat="43.36690557537376" lon="12.914844460114194"><ele>350.0</ele><time>2026-04-26T12:45:14Z</time></trkpt><trkpt lat="43.36700583960959" lon="12.914979537367357"><ele>350.0</ele><time>2026-04-26T12:45:15Z</time></trkpt><trkpt lat="43.36710223682932" lon="12.915088622067051"><ele>350.0</ele><time>2026-04-26T12:45:16Z</time></trkpt><trkpt lat="43.36720058245723" lon="12.915184109171935"><ele>350.0</ele><time>2026-04-26T12:45:17Z</time></trkpt><trkpt lat="43.36731433572531" lon="12.915244991582181"><ele>352.0</ele><time>2026-04-26T12:45:18Z</time></trkpt><trkpt lat="43.36741165896175" lon="12.915323731473098"><ele>354.0</ele><time>2026-04-26T12:45:19Z</time></trkpt><trkpt lat="43.36752938187607" lon="12.915381652330149"><ele>356.0</ele><time>2026-04-26T12:45:20Z</time></trkpt><trkpt lat="43.3676519440817" lon="12.915458510748437"><ele>358.0</ele><time>2026-04-26T12:45:21Z</time></trkpt><trkpt lat="43.36776552542122" lon="12.915551956854568"><ele>358.0</ele><time>2026-04-26T12:45:22Z</time></trkpt><trkpt lat="43.36786680643553" lon="12.91568816186782"><ele>358.0</ele><time>2026-04-26T12:45:23Z</time></trkpt><trkpt lat="43.367958008629714" lon="12.915837103637038"><ele>358.0</ele><time>2026-04-26T12:45:24Z</time></trkpt><trkpt lat="43.36804321892813" lon="12.915995213297073"><ele>358.0</ele><time>2026-04-26T12:45:25Z</time></trkpt><trkpt lat="43.368103200382585" lon="12.916169018100376"><ele>358.5</ele><time>2026-04-26T12:45:26Z</time></trkpt><trkpt lat="43.36814602148553" lon="12.91632936234052"><ele>359.0</ele><time>2026-04-26T12:45:27Z</time></trkpt><trkpt lat="43.368194839194835" lon="12.916493044877996"><ele>359.5</ele><time>2026-04-26T12:45:28Z</time></trkpt><trkpt lat="43.36824544797877" lon="12.916633615362196"><ele>360.0</ele><time>2026-04-26T12:45:29Z</time></trkpt><trkpt lat="43.368317004010656" lon="12.916751290729081"><ele>360.0</ele><time>2026-04-26T12:45:30Z</time></trkpt><trkpt lat="43.36840757103841" lon="12.916840653033804"><ele>360.0</ele><time>2026-04-26T12:45:31Z</time></trkpt><trkpt lat="43.36852005263507" lon="12.916875707522642"><ele>360.0</ele><time>2026-04-26T12:45:32Z</time></trkpt><trkpt lat="43.36863563997355" lon="12.9168715686048"><ele>360.0</ele><time>2026-04-26T12:45:33Z</time></trkpt><trkpt lat="43.368743194819025" lon="12.916840139964355"><ele>360.0</ele><time>2026-04-26T12:45:33.999Z</time></trkpt><trkpt lat="43.368853503348404" lon="12.916795333680641"><ele>360.0</ele><time>2026-04-26T12:45:34.999Z</time></trkpt><trkpt lat="43.36894960832578" lon="12.91673655587748"><ele>360.0</ele><time>2026-04-26T12:45:35.999Z</time></trkpt><trkpt lat="43.36905520187241" lon="12.916670600974337"><ele>360.0</ele><time>2026-04-26T12:45:36.999Z</time></trkpt><trkpt lat="43.36917205540671" lon="12.916597731132603"><ele>364.25</ele><time>2026-04-26T12:45:37.999Z</time></trkpt><trkpt lat="43.369301866573345" lon="12.916546450889903"><ele>368.5</ele><time>2026-04-26T12:45:38.999Z</time></trkpt><trkpt lat="43.36943509211243" lon="12.916481248298918"><ele>372.75</ele><time>2026-04-26T12:45:39.999Z</time></trkpt><trkpt lat="43.36957175282436" lon="12.916428787090236"><ele>377.0</ele><time>2026-04-26T12:45:40.999Z</time></trkpt><trkpt lat="43.36971288703668" lon="12.916402300912653"><ele>378.25</ele><time>2026-04-26T12:45:41.999Z</time></trkpt><trkpt lat="43.36985499255964" lon="12.91639942334697"><ele>379.5</ele><time>2026-04-26T12:45:43Z</time></trkpt><trkpt lat="43.3699851336533" lon="12.916418914882108"><ele>380.75</ele><time>2026-04-26T12:45:44Z</time></trkpt><trkpt lat="43.370109672637035" lon="12.916443141254884"><ele>382.0</ele><time>2026-04-26T12:45:45Z</time></trkpt><trkpt lat="43.37022632091027" lon="12.91647600762058"><ele>382.0</ele><time>2026-04-26T12:45:46Z</time></trkpt><trkpt lat="43.370344842798346" lon="12.916511809007046"><ele>382.0</ele><time>2026-04-26T12:45:47Z</time></trkpt><trkpt lat="43.37046467632783" lon="12.916537417203253"><ele>382.0</ele><time>2026-04-26T12:45:48Z</time></trkpt><trkpt lat="43.370581955086365" lon="12.9165456771753"><ele>382.0</ele><time>2026-04-26T12:45:49Z</time></trkpt><trkpt lat="43.37070515156887" lon="12.916527992538706"><ele>382.75</ele><time>2026-04-26T12:45:50Z</time></trkpt><trkpt lat="43.37083648284165" lon="12.91648476596627"><ele>383.5</ele><time>2026-04-26T12:45:51Z</time></trkpt><trkpt lat="43.37096372148491" lon="12.916422453102928"><ele>384.25</ele><time>2026-04-26T12:45:52Z</time></trkpt><trkpt lat="43.371090652730835" lon="12.916356848476788"><ele>385.0</ele><time>2026-04-26T12:45:53Z</time></trkpt><trkpt lat="43.37121480170018" lon="12.916289113236603"><ele>385.0</ele><time>2026-04-26T12:45:54Z</time></trkpt><trkpt lat="43.37134300322482" lon="12.91622715683421"><ele>385.0</ele><time>2026-04-26T12:45:55Z</time></trkpt><trkpt lat="43.37145732179977" lon="12.916154202338772"><ele>385.0</ele><time>2026-04-26T12:45:56Z</time></trkpt><trkpt lat="43.371568259460105" lon="12.916079124513914"><ele>385.0</ele><time>2026-04-26T12:45:57Z</time></trkpt><trkpt lat="43.37168338741794" lon="12.916020868078215"><ele>387.0</ele><time>2026-04-26T12:45:58Z</time></trkpt><trkpt lat="43.37180338360123" lon="12.915995976058996"><ele>389.0</ele><time>2026-04-26T12:45:59Z</time></trkpt><trkpt lat="43.37192261129458" lon="12.915989622997051"><ele>391.0</ele><time>2026-04-26T12:46:00Z</time></trkpt><trkpt lat="43.37203864393174" lon="12.916015901309946"><ele>393.0</ele><time>2026-04-26T12:46:01Z</time></trkpt><trkpt lat="43.37214553351291" lon="12.916061701741112"><ele>395.59999999999997</ele><time>2026-04-26T12:46:02Z</time></trkpt><trkpt lat="43.372255843992406" lon="12.916121446602814"><ele>398.2</ele><time>2026-04-26T12:46:03Z</time></trkpt><trkpt lat="43.37235661607664" lon="12.91617679135883"><ele>400.8</ele><time>2026-04-26T12:46:04Z</time></trkpt><trkpt lat="43.37243917824022" lon="12.916230629073143"><ele>403.4</ele><time>2026-04-26T12:46:05Z</time></trkpt><trkpt lat="43.3725106617831" lon="12.916300234028247"><ele>406.0</ele><time>2026-04-26T12:46:06Z</time></trkpt><trkpt lat="43.37256807979048" lon="12.916380431726902"><ele>406.0</ele><time>2026-04-26T12:46:07Z</time></trkpt><trkpt lat="43.37262263230783" lon="12.916461728807107"><ele>406.0</ele><time>2026-04-26T12:46:08Z</time></trkpt><trkpt lat="43.37267468030675" lon="12.916562507517538"><ele>406.0</ele><time>2026-04-26T12:46:09Z</time></trkpt><trkpt lat="43.37269607899416" lon="12.916687717177648"><ele>406.0</ele><time>2026-04-26T12:46:10Z</time></trkpt><trkpt lat="43.37266446024887" lon="12.91681662277822"><ele>406.0</ele><time>2026-04-26T12:46:11Z</time></trkpt><trkpt lat="43.37260122411502" lon="12.916906454693835"><ele>407.4</ele><time>2026-04-26T12:46:12Z</time></trkpt><trkpt lat="43.37250351592704" lon="12.916979361307558"><ele>408.8</ele><time>2026-04-26T12:46:13Z</time></trkpt><trkpt lat="43.372404180368" lon="12.917041447719106"><ele>410.2</ele><time>2026-04-26T12:46:14Z</time></trkpt><trkpt lat="43.37230787826363" lon="12.917111722840579"><ele>411.59999999999997</ele><time>2026-04-26T12:46:15Z</time></trkpt><trkpt lat="43.37223057477533" lon="12.917179579844001"><ele>413.0</ele><time>2026-04-26T12:46:16Z</time></trkpt><trkpt lat="43.37216927296986" lon="12.91725257325831"><ele>412.66666666666663</ele><time>2026-04-26T12:46:17Z</time></trkpt><trkpt lat="43.372120183380325" lon="12.917336340658164"><ele>412.3333333333333</ele><time>2026-04-26T12:46:18Z</time></trkpt><trkpt lat="43.372126401691986" lon="12.917463904148507"><ele>412.0</ele><time>2026-04-26T12:46:19Z</time></trkpt><trkpt lat="43.37217675811751" lon="12.917567983435427"><ele>411.66666666666663</ele><time>2026-04-26T12:46:20Z</time></trkpt><trkpt lat="43.37226323606162" lon="12.917618512532682"><ele>411.3333333333333</ele><time>2026-04-26T12:46:21Z</time></trkpt><trkpt lat="43.37234334887682" lon="12.917666657848327"><ele>411.0</ele><time>2026-04-26T12:46:22Z</time></trkpt><trkpt lat="43.372427673827715" lon="12.917731140700273"><ele>411.0</ele><time>2026-04-26T12:46:23Z</time></trkpt><trkpt lat="43.37251011214968" lon="12.917815731030418"><ele>411.0</ele><time>2026-04-26T12:46:24Z</time></trkpt><trkpt lat="43.372544304711134" lon="12.917957110096898"><ele>411.0</ele><time>2026-04-26T12:46:25Z</time></trkpt><trkpt lat="43.37260008074541" lon="12.918096408465287"><ele>411.0</ele><time>2026-04-26T12:46:26Z</time></trkpt><trkpt lat="43.372648084164496" lon="12.91825156845081"><ele>411.0</ele><time>2026-04-26T12:46:27Z</time></trkpt><trkpt lat="43.372717330186774" lon="12.918405704725485"><ele>409.75</ele><time>2026-04-26T12:46:28Z</time></trkpt><trkpt lat="43.372792866319315" lon="12.918547758836072"><ele>408.5</ele><time>2026-04-26T12:46:29Z</time></trkpt><trkpt lat="43.372872784839096" lon="12.918692643624725"><ele>407.25</ele><time>2026-04-26T12:46:30Z</time></trkpt><trkpt lat="43.37294969395555" lon="12.918831601624294"><ele>406.0</ele><time>2026-04-26T12:46:31Z</time></trkpt><trkpt lat="43.3730375942558" lon="12.918959984630758"><ele>409.25</ele><time>2026-04-26T12:46:32Z</time></trkpt><trkpt lat="43.37313103204415" lon="12.919068659014066"><ele>412.5</ele><time>2026-04-26T12:46:33Z</time></trkpt><trkpt lat="43.373226562887865" lon="12.919164897331504"><ele>415.75</ele><time>2026-04-26T12:46:34Z</time></trkpt><trkpt lat="43.37332400866476" lon="12.91925104980881"><ele>419.0</ele><time>2026-04-26T12:46:35Z</time></trkpt><trkpt lat="43.37342090177474" lon="12.91934109684337"><ele>419.0</ele><time>2026-04-26T12:46:36Z</time></trkpt><trkpt lat="43.37352815387104" lon="12.919419399913847"><ele>419.0</ele><time>2026-04-26T12:46:37Z</time></trkpt><trkpt lat="43.373639447156464" lon="12.919497994426413"><ele>419.0</ele><time>2026-04-26T12:46:38Z</time></trkpt><trkpt lat="43.37375315283684" lon="12.91957713374698"><ele>419.0</ele><time>2026-04-26T12:46:39Z</time></trkpt><trkpt lat="43.373867105637345" lon="12.91965270914438"><ele>421.0</ele><time>2026-04-26T12:46:40Z</time></trkpt><trkpt lat="43.37398166877992" lon="12.91973377241836"><ele>423.0</ele><time>2026-04-26T12:46:41Z</time></trkpt><trkpt lat="43.37409696293494" lon="12.919819141340993"><ele>425.0</ele><time>2026-04-26T12:46:42Z</time></trkpt><trkpt lat="43.37421090710922" lon="12.919917320593282"><ele>427.0</ele><time>2026-04-26T12:46:43Z</time></trkpt><trkpt lat="43.37430878345305" lon="12.920022465719128"><ele>427.8</ele><time>2026-04-26T12:46:44Z</time></trkpt><trkpt lat="43.37439786222701" lon="12.920120673245972"><ele>428.6</ele><time>2026-04-26T12:46:45Z</time></trkpt><trkpt lat="43.374470872533486" lon="12.920234964451137"><ele>429.40000000000003</ele><time>2026-04-26T12:46:46Z</time></trkpt><trkpt lat="43.37453784499758" lon="12.920359107189478"><ele>430.20000000000005</ele><time>2026-04-26T12:46:47Z</time></trkpt><trkpt lat="43.37459208807622" lon="12.920465525705264"><ele>431.0</ele><time>2026-04-26T12:46:48Z</time></trkpt><trkpt lat="43.37463588185065" lon="12.920550257615503"><ele>431.49999999999994</ele><time>2026-04-26T12:46:49Z</time></trkpt><trkpt lat="43.37469273298605" lon="12.92067704575183"><ele>432.0</ele><time>2026-04-26T12:46:51Z</time></trkpt><trkpt lat="43.3747418579074" lon="12.920788337349935"><ele>432.5</ele><time>2026-04-26T12:46:53Z</time></trkpt><trkpt lat="43.37477303857545" lon="12.920866712929387"><ele>433.0</ele><time>2026-04-26T12:46:54Z</time></trkpt><trkpt lat="43.37482733016393" lon="12.920942290698639"><ele>433.49999999999994</ele><time>2026-04-26T12:46:55Z</time></trkpt><trkpt lat="43.374906373262945" lon="12.921012357611536"><ele>434.0</ele><time>2026-04-26T12:46:56Z</time></trkpt><trkpt lat="43.37500659536136" lon="12.92105101658947"><ele>435.25</ele><time>2026-04-26T12:46:57Z</time></trkpt><trkpt lat="43.37512634972579" lon="12.9210432606275"><ele>436.5</ele><time>2026-04-26T12:46:58Z</time></trkpt><trkpt lat="43.375258813610756" lon="12.921014715509566"><ele>437.75</ele><time>2026-04-26T12:46:59Z</time></trkpt><trkpt lat="43.37539589845159" lon="12.92097441669789"><ele>439.0</ele><time>2026-04-26T12:47:00Z</time></trkpt><trkpt lat="43.37555267498594" lon="12.92093216195458"><ele>434.6666666666667</ele><time>2026-04-26T12:47:01Z</time></trkpt><trkpt lat="43.37571823961416" lon="12.92088753863499"><ele>430.33333333333337</ele><time>2026-04-26T12:47:02Z</time></trkpt><trkpt lat="43.375887531988695" lon="12.920841645201183"><ele>426.0</ele><time>2026-04-26T12:47:03Z</time></trkpt><trkpt lat="43.37605903821739" lon="12.920781851333379"><ele>426.0</ele><time>2026-04-26T12:47:04Z</time></trkpt><trkpt lat="43.376234247052395" lon="12.920728805752224"><ele>426.0</ele><time>2026-04-26T12:47:05Z</time></trkpt><trkpt lat="43.376409650425565" lon="12.920674097039596"><ele>426.0</ele><time>2026-04-26T12:47:06Z</time></trkpt><trkpt lat="43.376569776649845" lon="12.920639247048518"><ele>422.0</ele><time>2026-04-26T12:47:07Z</time></trkpt><trkpt lat="43.37672559130563" lon="12.920643764345508"><ele>418.0</ele><time>2026-04-26T12:47:08Z</time></trkpt><trkpt lat="43.37687436102763" lon="12.92071991055616"><ele>414.0</ele><time>2026-04-26T12:47:09Z</time></trkpt><trkpt lat="43.37703173703172" lon="12.920794157564808"><ele>414.0</ele><time>2026-04-26T12:47:10Z</time></trkpt><trkpt lat="43.37718189944387" lon="12.92087955688054"><ele>414.0</ele><time>2026-04-26T12:47:11Z</time></trkpt><trkpt lat="43.37733879791196" lon="12.920940432228976"><ele>414.0</ele><time>2026-04-26T12:47:12Z</time></trkpt><trkpt lat="43.37750145569287" lon="12.920975548264519"><ele>412.0</ele><time>2026-04-26T12:47:13Z</time></trkpt><trkpt lat="43.37767974546265" lon="12.92093832899081"><ele>410.0</ele><time>2026-04-26T12:47:14Z</time></trkpt><trkpt lat="43.3778409800363" lon="12.920864190799062"><ele>408.0</ele><time>2026-04-26T12:47:15Z</time></trkpt><trkpt lat="43.37798618572219" lon="12.920802842359034"><ele>403.33333333333337</ele><time>2026-04-26T12:47:16Z</time></trkpt><trkpt lat="43.378119019259636" lon="12.920699791664783"><ele>398.6666666666667</ele><time>2026-04-26T12:47:17Z</time></trkpt><trkpt lat="43.37823753437064" lon="12.920555606675084"><ele>394.0</ele><time>2026-04-26T12:47:18Z</time></trkpt><trkpt lat="43.37835600851006" lon="12.920388534106623"><ele>394.0</ele><time>2026-04-26T12:47:19Z</time></trkpt><trkpt lat="43.378475579967585" lon="12.920242836178844"><ele>394.0</ele><time>2026-04-26T12:47:20Z</time></trkpt><trkpt lat="43.378616868607025" lon="12.920154278270582"><ele>394.0</ele><time>2026-04-26T12:47:21Z</time></trkpt><trkpt lat="43.378759162319234" lon="12.920109371220017"><ele>386.33333333333337</ele><time>2026-04-26T12:47:22Z</time></trkpt><trkpt lat="43.378916595398856" lon="12.920110697087715"><ele>378.6666666666667</ele><time>2026-04-26T12:47:23Z</time></trkpt><trkpt lat="43.379079358734224" lon="12.920087689412863"><ele>371.0</ele><time>2026-04-26T12:47:24Z</time></trkpt><trkpt lat="43.37922356263133" lon="12.92007214009631"><ele>373.8</ele><time>2026-04-26T12:47:25Z</time></trkpt><trkpt lat="43.379344843718506" lon="12.92004089672402"><ele>376.6</ele><time>2026-04-26T12:47:26Z</time></trkpt><trkpt lat="43.37943178503364" lon="12.919993933109778"><ele>379.4</ele><time>2026-04-26T12:47:27Z</time></trkpt><trkpt lat="43.379496364152054" lon="12.919933703730429"><ele>382.2</ele><time>2026-04-26T12:47:28Z</time></trkpt><trkpt lat="43.37947381239957" lon="12.919796346939364"><ele>385.0</ele><time>2026-04-26T12:47:29Z</time></trkpt><trkpt lat="43.37941524151442" lon="12.91969538325949"><ele>385.0</ele><time>2026-04-26T12:47:30Z</time></trkpt><trkpt lat="43.37935652744791" lon="12.919646644039835"><ele>385.0</ele><time>2026-04-26T12:47:31Z</time></trkpt><trkpt lat="43.37938399321315" lon="12.919508159414274"><ele>385.0</ele><time>2026-04-26T12:47:33Z</time></trkpt><trkpt lat="43.37945049102593" lon="12.919515293593593"><ele>385.0</ele><time>2026-04-26T12:47:34Z</time></trkpt><trkpt lat="43.3795352289426" lon="12.919608948347445"><ele>385.0</ele><time>2026-04-26T12:47:35Z</time></trkpt><trkpt lat="43.379611149885314" lon="12.919724931148526"><ele>382.2</ele><time>2026-04-26T12:47:36Z</time></trkpt><trkpt lat="43.37968562609131" lon="12.919825680295519"><ele>379.4</ele><time>2026-04-26T12:47:37Z</time></trkpt><trkpt lat="43.37974305473394" lon="12.919929607564624"><ele>376.6</ele><time>2026-04-26T12:47:38Z</time></trkpt><trkpt lat="43.37974793242334" lon="12.920048981775759"><ele>373.8</ele><time>2026-04-26T12:47:39Z</time></trkpt><trkpt lat="43.37969116679306" lon="12.920164511357708"><ele>371.0</ele><time>2026-04-26T12:47:40Z</time></trkpt><trkpt lat="43.37958514182573" lon="12.92023491719082"><ele>371.0</ele><time>2026-04-26T12:47:41Z</time></trkpt><trkpt lat="43.379459739460614" lon="12.920281856933656"><ele>371.0</ele><time>2026-04-26T12:47:42Z</time></trkpt><trkpt lat="43.379331856613106" lon="12.920359682793917"><ele>371.0</ele><time>2026-04-26T12:47:43Z</time></trkpt><trkpt lat="43.37920717549203" lon="12.92044021367773"><ele>371.0</ele><time>2026-04-26T12:47:44Z</time></trkpt><trkpt lat="43.379083352399704" lon="12.920540035157321"><ele>371.0</ele><time>2026-04-26T12:47:45Z</time></trkpt><trkpt lat="43.3789778915739" lon="12.92065881979039"><ele>371.0</ele><time>2026-04-26T12:47:46Z</time></trkpt><trkpt lat="43.378886969656655" lon="12.920792500867345"><ele>371.0</ele><time>2026-04-26T12:47:47Z</time></trkpt><trkpt lat="43.37880577092261" lon="12.92093173655015"><ele>371.0</ele><time>2026-04-26T12:47:48Z</time></trkpt><trkpt lat="43.37874473626735" lon="12.921067651447105"><ele>369.4</ele><time>2026-04-26T12:47:49Z</time></trkpt><trkpt lat="43.378709697974415" lon="12.921200922362418"><ele>367.8</ele><time>2026-04-26T12:47:50Z</time></trkpt><trkpt lat="43.37871205201272" lon="12.921349120214565"><ele>366.2</ele><time>2026-04-26T12:47:51Z</time></trkpt><trkpt lat="43.37873187159838" lon="12.92146629898085"><ele>364.59999999999997</ele><time>2026-04-26T12:47:52Z</time></trkpt><trkpt lat="43.37876385367633" lon="12.921560731311827"><ele>363.0</ele><time>2026-04-26T12:47:53Z</time></trkpt><trkpt lat="43.378853986777806" lon="12.921614363209601"><ele>363.0</ele><time>2026-04-26T12:47:54Z</time></trkpt><trkpt lat="43.378964219615945" lon="12.921555169444403"><ele>363.0</ele><time>2026-04-26T12:47:55Z</time></trkpt><trkpt lat="43.37903326653198" lon="12.921429513980533"><ele>363.0</ele><time>2026-04-26T12:47:56Z</time></trkpt><trkpt lat="43.37904875698169" lon="12.921265131263935"><ele>363.0</ele><time>2026-04-26T12:47:57Z</time></trkpt><trkpt lat="43.37906817766554" lon="12.921105369192961"><ele>363.0</ele><time>2026-04-26T12:47:58Z</time></trkpt><trkpt lat="43.37911731930822" lon="12.92095545255451"><ele>363.0</ele><time>2026-04-26T12:47:59Z</time></trkpt><trkpt lat="43.37922895235274" lon="12.92084466296798"><ele>363.0</ele><time>2026-04-26T12:48:00Z</time></trkpt><trkpt lat="43.37936660089349" lon="12.920797255139135"><ele>363.0</ele><time>2026-04-26T12:48:01Z</time></trkpt><trkpt lat="43.37951924392165" lon="12.920743941688583"><ele>365.6666666666667</ele><time>2026-04-26T12:48:02Z</time></trkpt><trkpt lat="43.379679422504125" lon="12.920687811584902"><ele>368.33333333333337</ele><time>2026-04-26T12:48:03Z</time></trkpt><trkpt lat="43.37985240045663" lon="12.92067428397885"><ele>371.0</ele><time>2026-04-26T12:48:04Z</time></trkpt><trkpt lat="43.380032692646" lon="12.920680392040358"><ele>364.0</ele><time>2026-04-26T12:48:05Z</time></trkpt><trkpt lat="43.380217995838834" lon="12.920694832822798"><ele>357.0</ele><time>2026-04-26T12:48:06Z</time></trkpt><trkpt lat="43.380413877766465" lon="12.920722697869278"><ele>350.0</ele><time>2026-04-26T12:48:07Z</time></trkpt><trkpt lat="43.380617956365" lon="12.920770058299716"><ele>346.33333333333337</ele><time>2026-04-26T12:48:08Z</time></trkpt><trkpt lat="43.38082034114517" lon="12.920822255112013"><ele>342.6666666666667</ele><time>2026-04-26T12:48:09Z</time></trkpt><trkpt lat="43.38100097427855" lon="12.92087010175278"><ele>339.0</ele><time>2026-04-26T12:48:10Z</time></trkpt><trkpt lat="43.38115842674387" lon="12.920909263898109"><ele>337.75</ele><time>2026-04-26T12:48:11Z</time></trkpt><trkpt lat="43.38129175025053" lon="12.920976703013856"><ele>336.5</ele><time>2026-04-26T12:48:12Z</time></trkpt><trkpt lat="43.381425553272635" lon="12.921048259181507"><ele>335.25</ele><time>2026-04-26T12:48:13Z</time></trkpt><trkpt lat="43.381535055224866" lon="12.921203680467146"><ele>334.0</ele><time>2026-04-26T12:48:14Z</time></trkpt><trkpt lat="43.38163034961738" lon="12.921415179184528"><ele>333.0</ele><time>2026-04-26T12:48:15Z</time></trkpt><trkpt lat="43.38172181749158" lon="12.92163678837917"><ele>332.0</ele><time>2026-04-26T12:48:16Z</time></trkpt><trkpt lat="43.38183299498425" lon="12.92184897137549"><ele>331.0</ele><time>2026-04-26T12:48:17Z</time></trkpt><trkpt lat="43.381947280192215" lon="12.92206583571759"><ele>332.66666666666663</ele><time>2026-04-26T12:48:18Z</time></trkpt><trkpt lat="43.382067170872375" lon="12.92226724074959"><ele>334.3333333333333</ele><time>2026-04-26T12:48:19Z</time></trkpt><trkpt lat="43.382186857698265" lon="12.922474310504827"><ele>336.0</ele><time>2026-04-26T12:48:20Z</time></trkpt><trkpt lat="43.38230771018965" lon="12.92267152136176"><ele>328.6666666666667</ele><time>2026-04-26T12:48:21Z</time></trkpt><trkpt lat="43.38241401960137" lon="12.922852652092072"><ele>321.33333333333337</ele><time>2026-04-26T12:48:22Z</time></trkpt><trkpt lat="43.38250883159755" lon="12.923011161006688"><ele>314.0</ele><time>2026-04-26T12:48:23Z</time></trkpt><trkpt lat="43.38260495840896" lon="12.923145141432645"><ele>314.0</ele><time>2026-04-26T12:48:24Z</time></trkpt><trkpt lat="43.38272400497582" lon="12.923259186146044"><ele>314.0</ele><time>2026-04-26T12:48:25Z</time></trkpt><trkpt lat="43.38289294499175" lon="12.923281029819597"><ele>314.0</ele><time>2026-04-26T12:48:26Z</time></trkpt><trkpt lat="43.383065071754174" lon="12.923340256282621"><ele>316.0</ele><time>2026-04-26T12:48:27Z</time></trkpt><trkpt lat="43.38325037979513" lon="12.923382825938253"><ele>318.0</ele><time>2026-04-26T12:48:28Z</time></trkpt><trkpt lat="43.38344629174536" lon="12.923426658402077"><ele>320.0</ele><time>2026-04-26T12:48:29Z</time></trkpt><trkpt lat="43.383650208415055" lon="12.92347209412786"><ele>314.33333333333337</ele><time>2026-04-26T12:48:30Z</time></trkpt><trkpt lat="43.38385000829065" lon="12.923518267338084"><ele>308.6666666666667</ele><time>2026-04-26T12:48:31Z</time></trkpt><trkpt lat="43.38405103897908" lon="12.923565949531367"><ele>303.0</ele><time>2026-04-26T12:48:32Z</time></trkpt><trkpt lat="43.384262806234275" lon="12.923572157927147"><ele>303.0</ele><time>2026-04-26T12:48:33Z</time></trkpt><trkpt lat="43.3844760804558" lon="12.923565280096973"><ele>303.0</ele><time>2026-04-26T12:48:34Z</time></trkpt><trkpt lat="43.38469234325718" lon="12.923559266285233"><ele>303.0</ele><time>2026-04-26T12:48:35Z</time></trkpt><trkpt lat="43.38488874940323" lon="12.923545548752672"><ele>300.6666666666667</ele><time>2026-04-26T12:48:36Z</time></trkpt><trkpt lat="43.38509238593237" lon="12.923551115979825"><ele>298.33333333333337</ele><time>2026-04-26T12:48:37Z</time></trkpt><trkpt lat="43.38529733137966" lon="12.92359863307737"><ele>296.0</ele><time>2026-04-26T12:48:38Z</time></trkpt><trkpt lat="43.38550883108852" lon="12.923675875711748"><ele>295.33333333333337</ele><time>2026-04-26T12:48:39Z</time></trkpt><trkpt lat="43.385719209199145" lon="12.923752076818596"><ele>294.6666666666667</ele><time>2026-04-26T12:48:40Z</time></trkpt><trkpt lat="43.38592122989247" lon="12.923822925860476"><ele>294.0</ele><time>2026-04-26T12:48:41Z</time></trkpt><trkpt lat="43.38613718266238" lon="12.923904865308803"><ele>294.0</ele><time>2026-04-26T12:48:42Z</time></trkpt><trkpt lat="43.38633704535634" lon="12.924000992082851"><ele>294.0</ele><time>2026-04-26T12:48:43Z</time></trkpt><trkpt lat="43.38653264667669" lon="12.92411571615525"><ele>294.0</ele><time>2026-04-26T12:48:44Z</time></trkpt><trkpt lat="43.3867261435898" lon="12.924246549985003"><ele>292.6666666666667</ele><time>2026-04-26T12:48:45Z</time></trkpt><trkpt lat="43.38692106818153" lon="12.924372976060301"><ele>291.33333333333337</ele><time>2026-04-26T12:48:46Z</time></trkpt><trkpt lat="43.38711126876387" lon="12.924495859156886"><ele>290.0</ele><time>2026-04-26T12:48:47Z</time></trkpt><trkpt lat="43.387298916154315" lon="12.924619221086546"><ele>287.0</ele><time>2026-04-26T12:48:48Z</time></trkpt><trkpt lat="43.38748192622401" lon="12.924741631773983"><ele>284.0</ele><time>2026-04-26T12:48:49Z</time></trkpt><trkpt lat="43.3876480449696" lon="12.924867971148373"><ele>281.0</ele><time>2026-04-26T12:48:50Z</time></trkpt><trkpt lat="43.387818502947866" lon="12.925018335342525"><ele>280.6666666666667</ele><time>2026-04-26T12:48:51Z</time></trkpt><trkpt lat="43.387965014523836" lon="12.925229888787301"><ele>280.3333333333333</ele><time>2026-04-26T12:48:52Z</time></trkpt><trkpt lat="43.38812120479388" lon="12.925431333366989"><ele>280.0</ele><time>2026-04-26T12:48:53Z</time></trkpt><trkpt lat="43.38827942318403" lon="12.925635666810635"><ele>278.3333333333333</ele><time>2026-04-26T12:48:54Z</time></trkpt><trkpt lat="43.388448411541404" lon="12.925827456357068"><ele>276.6666666666667</ele><time>2026-04-26T12:48:55Z</time></trkpt><trkpt lat="43.38860754474597" lon="12.926031759386722"><ele>275.0</ele><time>2026-04-26T12:48:56Z</time></trkpt><trkpt lat="43.38876784167932" lon="12.926223994998239"><ele>275.0</ele><time>2026-04-26T12:48:57Z</time></trkpt><trkpt lat="43.38893013596944" lon="12.926433828316252"><ele>275.0</ele><time>2026-04-26T12:48:58Z</time></trkpt><trkpt lat="43.38908388776105" lon="12.926622987279707"><ele>275.0</ele><time>2026-04-26T12:48:59Z</time></trkpt><trkpt lat="43.38923348344269" lon="12.926827187760013"><ele>273.33333333333337</ele><time>2026-04-26T12:49:00Z</time></trkpt><trkpt lat="43.38937544165952" lon="12.927032479400403"><ele>271.6666666666667</ele><time>2026-04-26T12:49:01Z</time></trkpt><trkpt lat="43.3895136862436" lon="12.927246595304267"><ele>270.0</ele><time>2026-04-26T12:49:02Z</time></trkpt><trkpt lat="43.389640154870364" lon="12.927473155899529"><ele>270.6666666666667</ele><time>2026-04-26T12:49:03Z</time></trkpt><trkpt lat="43.38977191967784" lon="12.927682395813262"><ele>271.33333333333337</ele><time>2026-04-26T12:49:04Z</time></trkpt><trkpt lat="43.38990518478951" lon="12.927912504418398"><ele>272.0</ele><time>2026-04-26T12:49:05Z</time></trkpt><trkpt lat="43.390036538147974" lon="12.928133413328705"><ele>272.0</ele><time>2026-04-26T12:49:06Z</time></trkpt><trkpt lat="43.39016673848738" lon="12.928359701247471"><ele>272.0</ele><time>2026-04-26T12:49:07Z</time></trkpt><trkpt lat="43.390291983229716" lon="12.928572014295868"><ele>272.0</ele><time>2026-04-26T12:49:08Z</time></trkpt><trkpt lat="43.390411439055555" lon="12.928786036239565"><ele>272.6666666666667</ele><time>2026-04-26T12:49:09Z</time></trkpt><trkpt lat="43.390528086624684" lon="12.928996705237072"><ele>273.3333333333333</ele><time>2026-04-26T12:49:10Z</time></trkpt><trkpt lat="43.390633350928745" lon="12.929178994220592"><ele>274.0</ele><time>2026-04-26T12:49:11.001Z</time></trkpt><trkpt lat="43.390727170037536" lon="12.929345934240114"><ele>274.0</ele><time>2026-04-26T12:49:12.001Z</time></trkpt><trkpt lat="43.39082304550454" lon="12.92949520693007"><ele>274.0</ele><time>2026-04-26T12:49:13.001Z</time></trkpt><trkpt lat="43.39094762732409" lon="12.929631191356322"><ele>274.0</ele><time>2026-04-26T12:49:14.001Z</time></trkpt><trkpt lat="43.39109820582827" lon="12.929745680582602"><ele>274.0</ele><time>2026-04-26T12:49:15.001Z</time></trkpt><trkpt lat="43.39125712852479" lon="12.929864088990522"><ele>274.0</ele><time>2026-04-26T12:49:16.001Z</time></trkpt><trkpt lat="43.39142188141717" lon="12.929986956832298"><ele>274.0</ele><time>2026-04-26T12:49:17.001Z</time></trkpt><trkpt lat="43.39159185746304" lon="12.93011652532715"><ele>270.66666666666663</ele><time>2026-04-26T12:49:18.001Z</time></trkpt><trkpt lat="43.39177076932932" lon="12.930237161878477"><ele>267.3333333333333</ele><time>2026-04-26T12:49:19.001Z</time></trkpt><trkpt lat="43.39194288082412" lon="12.93035422841636"><ele>264.0</ele><time>2026-04-26T12:49:20.001Z</time></trkpt><trkpt lat="43.39211446843704" lon="12.930461609128733"><ele>264.0</ele><time>2026-04-26T12:49:21.001Z</time></trkpt><trkpt lat="43.392286991725456" lon="12.930545151677633"><ele>264.0</ele><time>2026-04-26T12:49:22.001Z</time></trkpt><trkpt lat="43.39246266596864" lon="12.93061433692263"><ele>264.0</ele><time>2026-04-26T12:49:23.001Z</time></trkpt><trkpt lat="43.39264383987099" lon="12.930687360271152"><ele>264.0</ele><time>2026-04-26T12:49:24.001Z</time></trkpt><trkpt lat="43.392834856408996" lon="12.930753030735625"><ele>264.0</ele><time>2026-04-26T12:49:25.001Z</time></trkpt><trkpt lat="43.39302892264497" lon="12.930800527348051"><ele>264.0</ele><time>2026-04-26T12:49:26.001Z</time></trkpt><trkpt lat="43.39322705785991" lon="12.930839827993706"><ele>264.0</ele><time>2026-04-26T12:49:27.001Z</time></trkpt><trkpt lat="43.39343121839135" lon="12.930849232014344"><ele>264.0</ele><time>2026-04-26T12:49:28.001Z</time></trkpt><trkpt lat="43.393627333241035" lon="12.930851810497423"><ele>264.0</ele><time>2026-04-26T12:49:29.001Z</time></trkpt><trkpt lat="43.39381986383664" lon="12.930846232537796"><ele>264.3333333333333</ele><time>2026-04-26T12:49:30.001Z</time></trkpt><trkpt lat="43.394001717590264" lon="12.930875704013237"><ele>264.66666666666663</ele><time>2026-04-26T12:49:31.001Z</time></trkpt><trkpt lat="43.39417685539722" lon="12.930970270650235"><ele>265.0</ele><time>2026-04-26T12:49:32.001Z</time></trkpt><trkpt lat="43.39432997850667" lon="12.931099222700656"><ele>260.66666666666663</ele><time>2026-04-26T12:49:33.001Z</time></trkpt><trkpt lat="43.39444333380601" lon="12.931243741824836"><ele>256.3333333333333</ele><time>2026-04-26T12:49:34.001Z</time></trkpt><trkpt lat="43.3945374160959" lon="12.931422803236696"><ele>252.0</ele><time>2026-04-26T12:49:35.001Z</time></trkpt><trkpt lat="43.39461319806809" lon="12.931617663737335"><ele>253.0</ele><time>2026-04-26T12:49:36.001Z</time></trkpt><trkpt lat="43.3946857010479" lon="12.931820141336202"><ele>254.0</ele><time>2026-04-26T12:49:37.001Z</time></trkpt><trkpt lat="43.39475146147214" lon="12.932007223939863"><ele>255.0</ele><time>2026-04-26T12:49:38.001Z</time></trkpt><trkpt lat="43.39482508024244" lon="12.932169186048377"><ele>255.0</ele><time>2026-04-26T12:49:39.001Z</time></trkpt><trkpt lat="43.39491862678952" lon="12.932325364981686"><ele>255.0</ele><time>2026-04-26T12:49:40.001Z</time></trkpt><trkpt lat="43.39504700530795" lon="12.932450906606663"><ele>255.0</ele><time>2026-04-26T12:49:41.001Z</time></trkpt><trkpt lat="43.39520406369939" lon="12.932536621926555"><ele>256.6666666666667</ele><time>2026-04-26T12:49:42.001Z</time></trkpt><trkpt lat="43.395367181230476" lon="12.932620637743144"><ele>258.33333333333337</ele><time>2026-04-26T12:49:43.001Z</time></trkpt><trkpt lat="43.39553313971562" lon="12.93270735076566"><ele>260.0</ele><time>2026-04-26T12:49:44.001Z</time></trkpt><trkpt lat="43.39570062217996" lon="12.932784586391431"><ele>260.0</ele><time>2026-04-26T12:49:45.001Z</time></trkpt><trkpt lat="43.39588207389589" lon="12.932869632062918"><ele>260.0</ele><time>2026-04-26T12:49:46Z</time></trkpt><trkpt lat="43.39605733615614" lon="12.93292276439361"><ele>260.0</ele><time>2026-04-26T12:49:47Z</time></trkpt><trkpt lat="43.39623343514087" lon="12.932952800756533"><ele>257.75</ele><time>2026-04-26T12:49:48Z</time></trkpt><trkpt lat="43.39637614371066" lon="12.932960975135698"><ele>255.5</ele><time>2026-04-26T12:49:49Z</time></trkpt><trkpt lat="43.39650321460665" lon="12.932996218849958"><ele>253.25</ele><time>2026-04-26T12:49:50Z</time></trkpt><trkpt lat="43.39660905974211" lon="12.933090046566386"><ele>251.0</ele><time>2026-04-26T12:49:51Z</time></trkpt><trkpt lat="43.3966827006935" lon="12.933212420491275"><ele>251.0</ele><time>2026-04-26T12:49:52Z</time></trkpt><trkpt lat="43.396747972986695" lon="12.933368695218137"><ele>251.0</ele><time>2026-04-26T12:49:53Z</time></trkpt><trkpt lat="43.39680556011108" lon="12.93352575040065"><ele>251.0</ele><time>2026-04-26T12:49:54Z</time></trkpt><trkpt lat="43.396893781886895" lon="12.933657256724784"><ele>251.0</ele><time>2026-04-26T12:49:55Z</time></trkpt><trkpt lat="43.397008324950555" lon="12.933735190601032"><ele>252.66666666666669</ele><time>2026-04-26T12:49:56Z</time></trkpt><trkpt lat="43.39714218816046" lon="12.933763574255815"><ele>254.33333333333331</ele><time>2026-04-26T12:49:57Z</time></trkpt><trkpt lat="43.397296141275426" lon="12.933745174695716"><ele>256.0</ele><time>2026-04-26T12:49:58Z</time></trkpt><trkpt lat="43.397458758848025" lon="12.933741649550559"><ele>256.0</ele><time>2026-04-26T12:49:59Z</time></trkpt><trkpt lat="43.39762361625627" lon="12.933737098195676"><ele>256.0</ele><time>2026-04-26T12:50:00Z</time></trkpt><trkpt lat="43.39778792143378" lon="12.933745108283903"><ele>256.0</ele><time>2026-04-26T12:50:01Z</time></trkpt><trkpt lat="43.39795731651309" lon="12.933777465642802"><ele>254.66666666666666</ele><time>2026-04-26T12:50:02Z</time></trkpt><trkpt lat="43.39812256308344" lon="12.933857997396844"><ele>253.33333333333331</ele><time>2026-04-26T12:50:03Z</time></trkpt><trkpt lat="43.39827918396783" lon="12.933970553703599"><ele>252.0</ele><time>2026-04-26T12:50:04Z</time></trkpt><trkpt lat="43.398431797522385" lon="12.93410031703314"><ele>250.66666666666669</ele><time>2026-04-26T12:50:05Z</time></trkpt><trkpt lat="43.39857961520918" lon="12.9342238410776"><ele>249.33333333333334</ele><time>2026-04-26T12:50:06Z</time></trkpt><trkpt lat="43.39873336829385" lon="12.934326077729292"><ele>248.0</ele><time>2026-04-26T12:50:07Z</time></trkpt><trkpt lat="43.398905746834345" lon="12.934363399600675"><ele>248.0</ele><time>2026-04-26T12:50:08Z</time></trkpt><trkpt lat="43.39908020341695" lon="12.934398787516518"><ele>248.0</ele><time>2026-04-26T12:50:09Z</time></trkpt><trkpt lat="43.39925650626254" lon="12.934417827376386"><ele>248.0</ele><time>2026-04-26T12:50:10Z</time></trkpt><trkpt lat="43.399434314866845" lon="12.934457403555173"><ele>248.0</ele><time>2026-04-26T12:50:11Z</time></trkpt><trkpt lat="43.39960679835065" lon="12.934532050111857"><ele>248.0</ele><time>2026-04-26T12:50:12Z</time></trkpt><trkpt lat="43.3997680216389" lon="12.93462133456567"><ele>248.0</ele><time>2026-04-26T12:50:13Z</time></trkpt><trkpt lat="43.399938967326925" lon="12.93469487802963"><ele>247.33333333333334</ele><time>2026-04-26T12:50:14Z</time></trkpt><trkpt lat="43.40010444949451" lon="12.934791659929479"><ele>246.66666666666669</ele><time>2026-04-26T12:50:15Z</time></trkpt><trkpt lat="43.40026890005465" lon="12.934885543302205"><ele>246.0</ele><time>2026-04-26T12:50:16Z</time></trkpt><trkpt lat="43.400432801058514" lon="12.934971748312751"><ele>243.66666666666669</ele><time>2026-04-26T12:50:17Z</time></trkpt><trkpt lat="43.40059959961188" lon="12.93504587180649"><ele>241.33333333333334</ele><time>2026-04-26T12:50:18Z</time></trkpt><trkpt lat="43.400772287477196" lon="12.935113888822448"><ele>239.0</ele><time>2026-04-26T12:50:19Z</time></trkpt><trkpt lat="43.40094354875519" lon="12.93517437040269"><ele>239.0</ele><time>2026-04-26T12:50:20Z</time></trkpt><trkpt lat="43.40111606411212" lon="12.935245910396084"><ele>239.0</ele><time>2026-04-26T12:50:21Z</time></trkpt><trkpt lat="43.401291245670784" lon="12.935322180539272"><ele>239.0</ele><time>2026-04-26T12:50:22Z</time></trkpt><trkpt lat="43.4014654967035" lon="12.935393756858616"><ele>240.0</ele><time>2026-04-26T12:50:23Z</time></trkpt><trkpt lat="43.40164399834377" lon="12.93546525788063"><ele>241.0</ele><time>2026-04-26T12:50:24Z</time></trkpt><trkpt lat="43.401822676664125" lon="12.935534116028025"><ele>242.0</ele><time>2026-04-26T12:50:25Z</time></trkpt><trkpt lat="43.40199784049215" lon="12.935607134153573"><ele>245.33333333333334</ele><time>2026-04-26T12:50:26Z</time></trkpt><trkpt lat="43.402181122055524" lon="12.935680280291443"><ele>248.66666666666669</ele><time>2026-04-26T12:50:27Z</time></trkpt><trkpt lat="43.40235097639135" lon="12.935759132463168"><ele>252.0</ele><time>2026-04-26T12:50:28Z</time></trkpt><trkpt lat="43.40251117846611" lon="12.935819214699318"><ele>252.0</ele><time>2026-04-26T12:50:29Z</time></trkpt><trkpt lat="43.40265853297586" lon="12.93587631897892"><ele>252.0</ele><time>2026-04-26T12:50:30Z</time></trkpt><trkpt lat="43.40279102843636" lon="12.935916858566664"><ele>252.0</ele><time>2026-04-26T12:50:31Z</time></trkpt><trkpt lat="43.402917933151286" lon="12.935895221477475"><ele>252.0</ele><time>2026-04-26T12:50:32Z</time></trkpt><trkpt lat="43.403035618920455" lon="12.935799594588833"><ele>249.66666666666669</ele><time>2026-04-26T12:50:33Z</time></trkpt><trkpt lat="43.40315057645415" lon="12.935650063929753"><ele>247.33333333333334</ele><time>2026-04-26T12:50:34Z</time></trkpt><trkpt lat="43.4032649667431" lon="12.935476797274198"><ele>245.0</ele><time>2026-04-26T12:50:35Z</time></trkpt><trkpt lat="43.40339916815575" lon="12.935298789575645"><ele>245.0</ele><time>2026-04-26T12:50:36Z</time></trkpt><trkpt lat="43.40352482641355" lon="12.93509739054278"><ele>245.0</ele><time>2026-04-26T12:50:37Z</time></trkpt><trkpt lat="43.40365079151041" lon="12.934891299903896"><ele>245.0</ele><time>2026-04-26T12:50:38Z</time></trkpt><trkpt lat="43.40377682498165" lon="12.93468048084339"><ele>246.66666666666669</ele><time>2026-04-26T12:50:39Z</time></trkpt><trkpt lat="43.403906242084666" lon="12.934474783142345"><ele>248.33333333333331</ele><time>2026-04-26T12:50:40Z</time></trkpt><trkpt lat="43.40404023170873" lon="12.934275723723587"><ele>250.0</ele><time>2026-04-26T12:50:41Z</time></trkpt><trkpt lat="43.404183837976596" lon="12.93409958598059"><ele>250.0</ele><time>2026-04-26T12:50:42Z</time></trkpt><trkpt lat="43.4043380440491" lon="12.933931234265195"><ele>250.0</ele><time>2026-04-26T12:50:43Z</time></trkpt><trkpt lat="43.40449407991655" lon="12.933772594859015"><ele>250.0</ele><time>2026-04-26T12:50:44Z</time></trkpt><trkpt lat="43.40465471591712" lon="12.933610351823889"><ele>250.66666666666666</ele><time>2026-04-26T12:50:45Z</time></trkpt><trkpt lat="43.40481062247687" lon="12.933451508198978"><ele>251.33333333333331</ele><time>2026-04-26T12:50:46Z</time></trkpt><trkpt lat="43.40496809762673" lon="12.933287362705912"><ele>252.0</ele><time>2026-04-26T12:50:47Z</time></trkpt><trkpt lat="43.405128912064356" lon="12.933122619126252"><ele>252.0</ele><time>2026-04-26T12:50:48Z</time></trkpt><trkpt lat="43.405293395839315" lon="12.932956694772205"><ele>252.0</ele><time>2026-04-26T12:50:49Z</time></trkpt><trkpt lat="43.40545683467114" lon="12.932786872012189"><ele>252.0</ele><time>2026-04-26T12:50:50Z</time></trkpt><trkpt lat="43.405612731521025" lon="12.932624625631172"><ele>253.33333333333331</ele><time>2026-04-26T12:50:51Z</time></trkpt><trkpt lat="43.405748479462055" lon="12.93245395804561"><ele>254.66666666666666</ele><time>2026-04-26T12:50:52Z</time></trkpt><trkpt lat="43.40589684157525" lon="12.932317031946324"><ele>256.0</ele><time>2026-04-26T12:50:53Z</time></trkpt><trkpt lat="43.40603434974342" lon="12.932150923104821"><ele>256.0</ele><time>2026-04-26T12:50:54Z</time></trkpt><trkpt lat="43.406177663276914" lon="12.93199325311905"><ele>256.0</ele><time>2026-04-26T12:50:55Z</time></trkpt><trkpt lat="43.40633031685081" lon="12.931845197795061"><ele>256.0</ele><time>2026-04-26T12:50:56Z</time></trkpt><trkpt lat="43.40650705290386" lon="12.931765789355996"><ele>252.33333333333331</ele><time>2026-04-26T12:50:57Z</time></trkpt><trkpt lat="43.40669661547398" lon="12.931664596082813"><ele>248.66666666666669</ele><time>2026-04-26T12:50:58Z</time></trkpt><trkpt lat="43.4068825407443" lon="12.93156482829147"><ele>245.0</ele><time>2026-04-26T12:50:59Z</time></trkpt><trkpt lat="43.40706772327448" lon="12.931464856149622"><ele>245.0</ele><time>2026-04-26T12:51:00Z</time></trkpt><trkpt lat="43.407250688760904" lon="12.931366339019535"><ele>245.0</ele><time>2026-04-26T12:51:01Z</time></trkpt><trkpt lat="43.407434711422304" lon="12.93125053101541"><ele>245.0</ele><time>2026-04-26T12:51:02Z</time></trkpt><trkpt lat="43.407623365728426" lon="12.931149733236676"><ele>245.0</ele><time>2026-04-26T12:51:03Z</time></trkpt><trkpt lat="43.40780833541614" lon="12.931046141926439"><ele>245.0</ele><time>2026-04-26T12:51:04Z</time></trkpt><trkpt lat="43.407987849787425" lon="12.930937962685237"><ele>245.0</ele><time>2026-04-26T12:51:05Z</time></trkpt><trkpt lat="43.408150296347095" lon="12.930826212008464"><ele>247.33333333333334</ele><time>2026-04-26T12:51:06Z</time></trkpt><trkpt lat="43.40831120565964" lon="12.930709474305539"><ele>249.66666666666669</ele><time>2026-04-26T12:51:07Z</time></trkpt><trkpt lat="43.40847662840329" lon="12.930599295056512"><ele>252.0</ele><time>2026-04-26T12:51:08Z</time></trkpt><trkpt lat="43.40864337308008" lon="12.930484888913657"><ele>252.0</ele><time>2026-04-26T12:51:09Z</time></trkpt><trkpt lat="43.40881208726764" lon="12.930363497935993"><ele>252.0</ele><time>2026-04-26T12:51:10Z</time></trkpt><trkpt lat="43.408980440328364" lon="12.930235278197719"><ele>252.0</ele><time>2026-04-26T12:51:11.001Z</time></trkpt><trkpt lat="43.40916190408443" lon="12.93013124381162"><ele>250.33333333333331</ele><time>2026-04-26T12:51:12.001Z</time></trkpt><trkpt lat="43.409337695407125" lon="12.930003249896465"><ele>248.66666666666666</ele><time>2026-04-26T12:51:13.001Z</time></trkpt><trkpt lat="43.409513112978445" lon="12.929879998711161"><ele>247.0</ele><time>2026-04-26T12:51:14.001Z</time></trkpt><trkpt lat="43.40968501136203" lon="12.92974094177219"><ele>243.66666666666666</ele><time>2026-04-26T12:51:15.001Z</time></trkpt><trkpt lat="43.40986244841957" lon="12.929630513003191"><ele>240.33333333333331</ele><time>2026-04-26T12:51:16.001Z</time></trkpt><trkpt lat="43.41004016174473" lon="12.929546784518097"><ele>237.0</ele><time>2026-04-26T12:51:17.001Z</time></trkpt><trkpt lat="43.41019731811966" lon="12.929466205320173"><ele>237.0</ele><time>2026-04-26T12:51:18.001Z</time></trkpt><trkpt lat="43.41033950217924" lon="12.929400906449706"><ele>237.0</ele><time>2026-04-26T12:51:19.001Z</time></trkpt><trkpt lat="43.41046831141837" lon="12.929340654879491"><ele>237.0</ele><time>2026-04-26T12:51:20.001Z</time></trkpt><trkpt lat="43.41058027301439" lon="12.929287460204495"><ele>237.0</ele><time>2026-04-26T12:51:21.001Z</time></trkpt><trkpt lat="43.410676060425615" lon="12.929246748927142"><ele>235.75</ele><time>2026-04-26T12:51:22.001Z</time></trkpt><trkpt lat="43.41074267935052" lon="12.929225739288354"><ele>234.5</ele><time>2026-04-26T12:51:23.001Z</time></trkpt><trkpt lat="43.41082347043987" lon="12.929284228285667"><ele>233.25</ele><time>2026-04-26T12:51:25.001Z</time></trkpt><trkpt lat="43.410895490138195" lon="12.929345027446947"><ele>232.0</ele><time>2026-04-26T12:51:26.001Z</time></trkpt><trkpt lat="43.41070665024428" lon="12.929478739869099"><ele>232.0</ele><time>2026-04-26T12:51:28.001Z</time></trkpt><trkpt lat="43.410609407158304" lon="12.929499412807319"><ele>232.0</ele><time>2026-04-26T12:51:29.001Z</time></trkpt><trkpt lat="43.41051173807793" lon="12.929539182422609"><ele>232.0</ele><time>2026-04-26T12:51:30.001Z</time></trkpt><trkpt lat="43.41041537030604" lon="12.929580253435354"><ele>232.0</ele><time>2026-04-26T12:51:31.001Z</time></trkpt><trkpt lat="43.410304190774774" lon="12.92963523270276"><ele>232.0</ele><time>2026-04-26T12:51:32.001Z</time></trkpt><trkpt lat="43.41018903364416" lon="12.929704811430321"><ele>233.25</ele><time>2026-04-26T12:51:33.001Z</time></trkpt><trkpt lat="43.41006256025352" lon="12.929783697803405"><ele>234.5</ele><time>2026-04-26T12:51:34.001Z</time></trkpt><trkpt lat="43.40993917174486" lon="12.929867790446249"><ele>235.75</ele><time>2026-04-26T12:51:35.001Z</time></trkpt><trkpt lat="43.409813660941055" lon="12.929947897855962"><ele>237.0</ele><time>2026-04-26T12:51:36.001Z</time></trkpt><trkpt lat="43.409684646245395" lon="12.930035926211806"><ele>237.5</ele><time>2026-04-26T12:51:37.001Z</time></trkpt><trkpt lat="43.40954782600144" lon="12.930107666292754"><ele>238.0</ele><time>2026-04-26T12:51:38.001Z</time></trkpt><trkpt lat="43.409436735604054" lon="12.930228899678527"><ele>238.5</ele><time>2026-04-26T12:51:39.001Z</time></trkpt><trkpt lat="43.40933505904419" lon="12.93036954300974"><ele>239.0</ele><time>2026-04-26T12:51:40.001Z</time></trkpt><trkpt lat="43.40923986447579" lon="12.930525372510992"><ele>239.0</ele><time>2026-04-26T12:51:41.001Z</time></trkpt><trkpt lat="43.409146288263244" lon="12.930684148750501"><ele>239.0</ele><time>2026-04-26T12:51:42.001Z</time></trkpt><trkpt lat="43.40906613397663" lon="12.930857356975501"><ele>239.0</ele><time>2026-04-26T12:51:43.001Z</time></trkpt><trkpt lat="43.408998455703006" lon="12.931045611914438"><ele>236.66666666666669</ele><time>2026-04-26T12:51:44.001Z</time></trkpt><trkpt lat="43.40893232738718" lon="12.931238744130917"><ele>234.33333333333331</ele><time>2026-04-26T12:51:45.001Z</time></trkpt><trkpt lat="43.40886886235871" lon="12.931438145594285"><ele>232.0</ele><time>2026-04-26T12:51:46.001Z</time></trkpt><trkpt lat="43.408807390319694" lon="12.931641503642535"><ele>235.33333333333331</ele><time>2026-04-26T12:51:47.001Z</time></trkpt><trkpt lat="43.40874128441103" lon="12.931843753446008"><ele>238.66666666666669</ele><time>2026-04-26T12:51:48.001Z</time></trkpt><trkpt lat="43.40867162934028" lon="12.93204628372089"><ele>242.0</ele><time>2026-04-26T12:51:49.001Z</time></trkpt><trkpt lat="43.408604731521415" lon="12.932249425117421"><ele>242.0</ele><time>2026-04-26T12:51:50.001Z</time></trkpt><trkpt lat="43.40853131313965" lon="12.932453421780554"><ele>242.0</ele><time>2026-04-26T12:51:51.001Z</time></trkpt><trkpt lat="43.40845562877695" lon="12.93265450078209"><ele>242.0</ele><time>2026-04-26T12:51:52Z</time></trkpt><trkpt lat="43.40837383015559" lon="12.932842259258962"><ele>239.6</ele><time>2026-04-26T12:51:53Z</time></trkpt><trkpt lat="43.40829561331726" lon="12.932992484761105"><ele>237.2</ele><time>2026-04-26T12:51:54Z</time></trkpt><trkpt lat="43.40822530495226" lon="12.933101576102596"><ele>234.8</ele><time>2026-04-26T12:51:55Z</time></trkpt><trkpt lat="43.40818132726616" lon="12.933175675162492"><ele>232.4</ele><time>2026-04-26T12:51:56Z</time></trkpt><trkpt lat="43.408138479209036" lon="12.933255261107579"><ele>230.0</ele><time>2026-04-26T12:51:58Z</time></trkpt><trkpt lat="43.408110063322695" lon="12.93334460489094"><ele>229.25</ele><time>2026-04-26T12:52:50Z</time></trkpt><trkpt lat="43.40806788377433" lon="12.933436047763152"><ele>228.5</ele><time>2026-04-26T12:52:51Z</time></trkpt><trkpt lat="43.40801374816191" lon="12.933556581464543"><ele>227.75</ele><time>2026-04-26T12:52:52Z</time></trkpt><trkpt lat="43.40792212373306" lon="12.933744238045161"><ele>227.0</ele><time>2026-04-26T12:52:53Z</time></trkpt><trkpt lat="43.40783184753247" lon="12.93393675116839"><ele>226.66666666666669</ele><time>2026-04-26T12:52:54Z</time></trkpt><trkpt lat="43.4077187312718" lon="12.934077108683683"><ele>226.33333333333331</ele><time>2026-04-26T12:52:55Z</time></trkpt><trkpt lat="43.407629825663804" lon="12.934243883352528"><ele>226.0</ele><time>2026-04-26T12:52:56Z</time></trkpt><trkpt lat="43.407536862908024" lon="12.934418061306456"><ele>227.66666666666666</ele><time>2026-04-26T12:52:57Z</time></trkpt><trkpt lat="43.4074415091614" lon="12.934596068804707"><ele>229.33333333333331</ele><time>2026-04-26T12:52:58Z</time></trkpt><trkpt lat="43.407341422832424" lon="12.934781555297327"><ele>231.0</ele><time>2026-04-26T12:52:59Z</time></trkpt><trkpt lat="43.40724223432733" lon="12.93496302789289"><ele>230.66666666666669</ele><time>2026-04-26T12:53:00Z</time></trkpt><trkpt lat="43.407151351378786" lon="12.935153380276276"><ele>230.33333333333334</ele><time>2026-04-26T12:53:01Z</time></trkpt><trkpt lat="43.40705270586164" lon="12.935324389260305"><ele>230.0</ele><time>2026-04-26T12:53:02Z</time></trkpt><trkpt lat="43.40696161490093" lon="12.935487492854751"><ele>230.0</ele><time>2026-04-26T12:53:03Z</time></trkpt><trkpt lat="43.40686804304989" lon="12.935661611418205"><ele>230.0</ele><time>2026-04-26T12:53:04Z</time></trkpt><trkpt lat="43.406779539643395" lon="12.935841648219249"><ele>230.0</ele><time>2026-04-26T12:53:05Z</time></trkpt><trkpt lat="43.40668129912444" lon="12.936014394098036"><ele>230.5</ele><time>2026-04-26T12:53:06Z</time></trkpt><trkpt lat="43.40659376373683" lon="12.936183963205238"><ele>231.0</ele><time>2026-04-26T12:53:07Z</time></trkpt><trkpt lat="43.40652736560786" lon="12.936365969258697"><ele>231.5</ele><time>2026-04-26T12:53:08Z</time></trkpt><trkpt lat="43.40648663030381" lon="12.936560845892155"><ele>232.0</ele><time>2026-04-26T12:53:09Z</time></trkpt><trkpt lat="43.40648580651658" lon="12.936758430645217"><ele>232.0</ele><time>2026-04-26T12:53:10Z</time></trkpt><trkpt lat="43.406533233248915" lon="12.936952665697996"><ele>232.0</ele><time>2026-04-26T12:53:11Z</time></trkpt><trkpt lat="43.40659981868726" lon="12.937141947198539"><ele>232.0</ele><time>2026-04-26T12:53:12.001Z</time></trkpt><trkpt lat="43.406676285978556" lon="12.937331026497782"><ele>232.0</ele><time>2026-04-26T12:53:13.001Z</time></trkpt><trkpt lat="43.406744135146695" lon="12.93753200329887"><ele>232.0</ele><time>2026-04-26T12:53:14.001Z</time></trkpt><trkpt lat="43.40680115549418" lon="12.93774140104309"><ele>232.0</ele><time>2026-04-26T12:53:15.001Z</time></trkpt><trkpt lat="43.40683971255517" lon="12.937947999824132"><ele>231.0</ele><time>2026-04-26T12:53:16.001Z</time></trkpt><trkpt lat="43.40685794716452" lon="12.938171398143457"><ele>230.0</ele><time>2026-04-26T12:53:17.001Z</time></trkpt><trkpt lat="43.406851496802254" lon="12.938394307123827"><ele>229.0</ele><time>2026-04-26T12:53:18.001Z</time></trkpt><trkpt lat="43.4068471102597" lon="12.938615996996733"><ele>228.66666666666666</ele><time>2026-04-26T12:53:19.001Z</time></trkpt><trkpt lat="43.406848383613735" lon="12.93883050720243"><ele>228.33333333333331</ele><time>2026-04-26T12:53:20.001Z</time></trkpt><trkpt lat="43.40684441211366" lon="12.939048153327878"><ele>228.0</ele><time>2026-04-26T12:53:21.001Z</time></trkpt><trkpt lat="43.40683628844022" lon="12.939259700258239"><ele>230.66666666666669</ele><time>2026-04-26T12:53:22.001Z</time></trkpt><trkpt lat="43.40681254828876" lon="12.939468717757842"><ele>233.33333333333334</ele><time>2026-04-26T12:53:23.001Z</time></trkpt><trkpt lat="43.40680756069543" lon="12.939681086995044"><ele>236.0</ele><time>2026-04-26T12:53:24.001Z</time></trkpt><trkpt lat="43.40678782569352" lon="12.939885280377574"><ele>238.0</ele><time>2026-04-26T12:53:25.001Z</time></trkpt><trkpt lat="43.40675516790809" lon="12.94008966257221"><ele>240.0</ele><time>2026-04-26T12:53:26.001Z</time></trkpt><trkpt lat="43.406719858609385" lon="12.940286943099208"><ele>242.0</ele><time>2026-04-26T12:53:27.001Z</time></trkpt><trkpt lat="43.40667457437419" lon="12.940481088588509"><ele>244.0</ele><time>2026-04-26T12:53:28.001Z</time></trkpt><trkpt lat="43.40661124231595" lon="12.940663796397592"><ele>244.0</ele><time>2026-04-26T12:53:29.001Z</time></trkpt><trkpt lat="43.40652141529597" lon="12.940824692776818"><ele>244.0</ele><time>2026-04-26T12:53:30.001Z</time></trkpt><trkpt lat="43.406417487927264" lon="12.940972168031378"><ele>244.0</ele><time>2026-04-26T12:53:31.001Z</time></trkpt><trkpt lat="43.406307367513634" lon="12.941108201783731"><ele>244.0</ele><time>2026-04-26T12:53:32.001Z</time></trkpt><trkpt lat="43.40620369381056" lon="12.941233847092914"><ele>241.25</ele><time>2026-04-26T12:53:33.001Z</time></trkpt><trkpt lat="43.406104729293425" lon="12.941348193998607"><ele>238.5</ele><time>2026-04-26T12:53:34.001Z</time></trkpt><trkpt lat="43.40601074496271" lon="12.941456189592113"><ele>235.75</ele><time>2026-04-26T12:53:35.001Z</time></trkpt><trkpt lat="43.405916910652145" lon="12.941569999958046"><ele>233.0</ele><time>2026-04-26T12:53:36.001Z</time></trkpt><trkpt lat="43.40582744574344" lon="12.941673175430198"><ele>235.0</ele><time>2026-04-26T12:53:37.001Z</time></trkpt><trkpt lat="43.40574124280242" lon="12.941775990903194"><ele>237.0</ele><time>2026-04-26T12:53:38.001Z</time></trkpt><trkpt lat="43.40566756781584" lon="12.94187568924657"><ele>239.0</ele><time>2026-04-26T12:53:39.001Z</time></trkpt><trkpt lat="43.40561287492899" lon="12.941985710061688"><ele>241.0</ele><time>2026-04-26T12:53:40.001Z</time></trkpt><trkpt lat="43.40556967937307" lon="12.942103466262399"><ele>243.0</ele><time>2026-04-26T12:53:41.001Z</time></trkpt><trkpt lat="43.405547308343905" lon="12.942225206724354"><ele>243.0</ele><time>2026-04-26T12:53:42.001Z</time></trkpt><trkpt lat="43.40554631034959" lon="12.942343212885064"><ele>243.0</ele><time>2026-04-26T12:53:43.001Z</time></trkpt><trkpt lat="43.40554621134409" lon="12.942492721502356"><ele>243.0</ele><time>2026-04-26T12:53:44.001Z</time></trkpt><trkpt lat="43.40556095777261" lon="12.942673086919065"><ele>243.0</ele><time>2026-04-26T12:53:45.001Z</time></trkpt><trkpt lat="43.40558427798321" lon="12.942887853358153"><ele>245.0</ele><time>2026-04-26T12:53:46.001Z</time></trkpt><trkpt lat="43.40562792877902" lon="12.943110813719887"><ele>247.0</ele><time>2026-04-26T12:53:47.001Z</time></trkpt><trkpt lat="43.40565315810411" lon="12.94333658209526"><ele>249.0</ele><time>2026-04-26T12:53:48.001Z</time></trkpt><trkpt lat="43.40569402392688" lon="12.94355933717894"><ele>249.0</ele><time>2026-04-26T12:53:49.001Z</time></trkpt><trkpt lat="43.405741200194576" lon="12.943783737197595"><ele>249.0</ele><time>2026-04-26T12:53:50.001Z</time></trkpt><trkpt lat="43.4057847156462" lon="12.944020414784063"><ele>249.0</ele><time>2026-04-26T12:53:51.001Z</time></trkpt><trkpt lat="43.405823498083244" lon="12.944253170925183"><ele>248.66666666666669</ele><time>2026-04-26T12:53:52.001Z</time></trkpt><trkpt lat="43.4058486152348" lon="12.944487625338537"><ele>248.33333333333334</ele><time>2026-04-26T12:53:53.001Z</time></trkpt><trkpt lat="43.40584564872045" lon="12.944721448297036"><ele>248.0</ele><time>2026-04-26T12:53:54.001Z</time></trkpt><trkpt lat="43.4058271563836" lon="12.944945388622058"><ele>252.0</ele><time>2026-04-26T12:53:55.001Z</time></trkpt><trkpt lat="43.40579227966735" lon="12.945152114200145"><ele>256.0</ele><time>2026-04-26T12:53:56.001Z</time></trkpt><trkpt lat="43.40571795383345" lon="12.945358118045117"><ele>260.0</ele><time>2026-04-26T12:53:57.001Z</time></trkpt><trkpt lat="43.40561606239251" lon="12.94554125559118"><ele>260.0</ele><time>2026-04-26T12:53:58Z</time></trkpt><trkpt lat="43.40550620161602" lon="12.945693729766019"><ele>260.0</ele><time>2026-04-26T12:53:59Z</time></trkpt><trkpt lat="43.40540473385183" lon="12.945848737715837"><ele>260.0</ele><time>2026-04-26T12:54:00Z</time></trkpt><trkpt lat="43.405306284899716" lon="12.94603155532777"><ele>251.66666666666669</ele><time>2026-04-26T12:54:01Z</time></trkpt><trkpt lat="43.40524883453924" lon="12.946211727391155"><ele>243.33333333333331</ele><time>2026-04-26T12:54:02Z</time></trkpt><trkpt lat="43.405182418903884" lon="12.94640722326724"><ele>235.0</ele><time>2026-04-26T12:54:03Z</time></trkpt><trkpt lat="43.405121764934925" lon="12.946616083054165"><ele>243.0</ele><time>2026-04-26T12:54:04Z</time></trkpt><trkpt lat="43.40506064657858" lon="12.94682734110254"><ele>251.0</ele><time>2026-04-26T12:54:05Z</time></trkpt><trkpt lat="43.40500107073403" lon="12.947028102207428"><ele>259.0</ele><time>2026-04-26T12:54:06Z</time></trkpt><trkpt lat="43.404933047184855" lon="12.94723770586246"><ele>259.0</ele><time>2026-04-26T12:54:07Z</time></trkpt><trkpt lat="43.40486544576229" lon="12.947453772887998"><ele>259.0</ele><time>2026-04-26T12:54:08Z</time></trkpt><trkpt lat="43.4047497909468" lon="12.947625378496548"><ele>259.0</ele><time>2026-04-26T12:54:09Z</time></trkpt><trkpt lat="43.40464514023373" lon="12.947815902863596"><ele>253.33333333333331</ele><time>2026-04-26T12:54:10Z</time></trkpt><trkpt lat="43.404521518178676" lon="12.94796469382697"><ele>247.66666666666669</ele><time>2026-04-26T12:54:11Z</time></trkpt><trkpt lat="43.404397392407056" lon="12.94810276217129"><ele>242.0</ele><time>2026-04-26T12:54:12Z</time></trkpt><trkpt lat="43.404262989378" lon="12.948223292571711"><ele>242.0</ele><time>2026-04-26T12:54:13Z</time></trkpt><trkpt lat="43.404111826150206" lon="12.948315697568658"><ele>242.0</ele><time>2026-04-26T12:54:14Z</time></trkpt><trkpt lat="43.403960938130666" lon="12.948396380189134"><ele>242.0</ele><time>2026-04-26T12:54:15Z</time></trkpt><trkpt lat="43.40381941122686" lon="12.948475410666916"><ele>245.33333333333334</ele><time>2026-04-26T12:54:16Z</time></trkpt><trkpt lat="43.40366460524069" lon="12.948539631009767"><ele>248.66666666666669</ele><time>2026-04-26T12:54:17Z</time></trkpt><trkpt lat="43.40351761976449" lon="12.948627518958933"><ele>252.0</ele><time>2026-04-26T12:54:18Z</time></trkpt><trkpt lat="43.40337482665548" lon="12.948716264610084"><ele>252.0</ele><time>2026-04-26T12:54:19Z</time></trkpt><trkpt lat="43.403243348435396" lon="12.948732012646266"><ele>252.0</ele><time>2026-04-26T12:54:20Z</time></trkpt><trkpt lat="43.40311601911425" lon="12.948722584294599"><ele>252.0</ele><time>2026-04-26T12:54:21Z</time></trkpt><trkpt lat="43.402972393571474" lon="12.948704161824482"><ele>252.0</ele><time>2026-04-26T12:54:22Z</time></trkpt><trkpt lat="43.40284329884163" lon="12.948754656184349"><ele>254.25</ele><time>2026-04-26T12:54:23Z</time></trkpt><trkpt lat="43.402721114160215" lon="12.948800806235125"><ele>256.5</ele><time>2026-04-26T12:54:24Z</time></trkpt><trkpt lat="43.40259982923095" lon="12.948898130958211"><ele>258.75</ele><time>2026-04-26T12:54:25Z</time></trkpt><trkpt lat="43.40247679458592" lon="12.949013787385049"><ele>261.0</ele><time>2026-04-26T12:54:26Z</time></trkpt><trkpt lat="43.40236803868989" lon="12.949167032261407"><ele>262.6666666666667</ele><time>2026-04-26T12:54:27Z</time></trkpt><trkpt lat="43.40225931427253" lon="12.94933674634002"><ele>264.33333333333337</ele><time>2026-04-26T12:54:28Z</time></trkpt><trkpt lat="43.40215471987909" lon="12.949497618218308"><ele>266.0</ele><time>2026-04-26T12:54:29Z</time></trkpt><trkpt lat="43.40205840841884" lon="12.949661751337308"><ele>266.0</ele><time>2026-04-26T12:54:30Z</time></trkpt><trkpt lat="43.40198214458761" lon="12.94985512783345"><ele>266.0</ele><time>2026-04-26T12:54:31Z</time></trkpt><trkpt lat="43.40193457728086" lon="12.950083276822799"><ele>266.0</ele><time>2026-04-26T12:54:32Z</time></trkpt><trkpt lat="43.4018940256201" lon="12.950319523539985"><ele>266.0</ele><time>2026-04-26T12:54:33Z</time></trkpt><trkpt lat="43.40185102712727" lon="12.950563495334597"><ele>266.0</ele><time>2026-04-26T12:54:34Z</time></trkpt><trkpt lat="43.40180656890815" lon="12.950815750163631"><ele>266.0</ele><time>2026-04-26T12:54:35Z</time></trkpt><trkpt lat="43.40176456309365" lon="12.95105409036446"><ele>266.0</ele><time>2026-04-26T12:54:36Z</time></trkpt><trkpt lat="43.401722945980836" lon="12.951290224819981"><ele>266.0</ele><time>2026-04-26T12:54:37Z</time></trkpt><trkpt lat="43.40168311094337" lon="12.951518287056777"><ele>266.0</ele><time>2026-04-26T12:54:38Z</time></trkpt><trkpt lat="43.40164637184734" lon="12.95173649565124"><ele>266.0</ele><time>2026-04-26T12:54:39Z</time></trkpt><trkpt lat="43.40163225836581" lon="12.95196980052635"><ele>266.0</ele><time>2026-04-26T12:54:40Z</time></trkpt><trkpt lat="43.401631246386685" lon="12.952200116345697"><ele>266.0</ele><time>2026-04-26T12:54:41Z</time></trkpt><trkpt lat="43.40163690178907" lon="12.952424551893538"><ele>266.0</ele><time>2026-04-26T12:54:42Z</time></trkpt><trkpt lat="43.40164394156381" lon="12.952633043204584"><ele>266.0</ele><time>2026-04-26T12:54:43Z</time></trkpt><trkpt lat="43.40165358887456" lon="12.952835102342116"><ele>266.0</ele><time>2026-04-26T12:54:44Z</time></trkpt><trkpt lat="43.40166601402098" lon="12.95304064911541"><ele>266.0</ele><time>2026-04-26T12:54:45Z</time></trkpt><trkpt lat="43.40167592591787" lon="12.953247461405892"><ele>266.0</ele><time>2026-04-26T12:54:46Z</time></trkpt><trkpt lat="43.401701103653345" lon="12.953456062721568"><ele>266.0</ele><time>2026-04-26T12:54:47Z</time></trkpt><trkpt lat="43.40170961167055" lon="12.953658358365661"><ele>266.0</ele><time>2026-04-26T12:54:48Z</time></trkpt><trkpt lat="43.401709517131216" lon="12.953853524688755"><ele>266.0</ele><time>2026-04-26T12:54:49Z</time></trkpt><trkpt lat="43.40171271418105" lon="12.95403502682728"><ele>266.0</ele><time>2026-04-26T12:54:50Z</time></trkpt><trkpt lat="43.401706495660726" lon="12.95420725556137"><ele>266.0</ele><time>2026-04-26T12:54:51Z</time></trkpt><trkpt lat="43.40166907957269" lon="12.954388156626981"><ele>266.0</ele><time>2026-04-26T12:54:52Z</time></trkpt><trkpt lat="43.401657866954835" lon="12.954560502849606"><ele>266.0</ele><time>2026-04-26T12:54:53Z</time></trkpt><trkpt lat="43.401650129852726" lon="12.954736035718545"><ele>266.0</ele><time>2026-04-26T12:54:54Z</time></trkpt><trkpt lat="43.40164200857161" lon="12.954911045204184"><ele>266.0</ele><time>2026-04-26T12:54:55Z</time></trkpt><trkpt lat="43.40163064979134" lon="12.9550871274864"><ele>266.0</ele><time>2026-04-26T12:54:56Z</time></trkpt><trkpt lat="43.401625567904475" lon="12.955249096861081"><ele>266.0</ele><time>2026-04-26T12:54:57Z</time></trkpt><trkpt lat="43.40161935203991" lon="12.955398705731739"><ele>266.0</ele><time>2026-04-26T12:54:58Z</time></trkpt><trkpt lat="43.40162440089993" lon="12.955535685199118"><ele>266.0</ele><time>2026-04-26T12:54:59Z</time></trkpt><trkpt lat="43.40162308441644" lon="12.95566090929255"><ele>266.0</ele><time>2026-04-26T12:55:00Z</time></trkpt><trkpt lat="43.40165955609466" lon="12.955772322445165"><ele>266.0</ele><time>2026-04-26T12:55:01Z</time></trkpt><trkpt lat="43.40171536202483" lon="12.955870888056756"><ele>266.0</ele><time>2026-04-26T12:55:02Z</time></trkpt><trkpt lat="43.401761366164685" lon="12.955985883195902"><ele>266.0</ele><time>2026-04-26T12:55:03Z</time></trkpt><trkpt lat="43.401817024765904" lon="12.956086286185622"><ele>266.0</ele><time>2026-04-26T12:55:04.001Z</time></trkpt><trkpt lat="43.401864655306596" lon="12.956184446651399"><ele>266.0</ele><time>2026-04-26T12:55:05.001Z</time></trkpt><trkpt lat="43.40189373415649" lon="12.956286124035504"><ele>266.0</ele><time>2026-04-26T12:55:06.001Z</time></trkpt><trkpt lat="43.40190459011927" lon="12.956385046326636"><ele>266.0</ele><time>2026-04-26T12:55:07.001Z</time></trkpt><trkpt lat="43.40188053701597" lon="12.956492611281433"><ele>266.0</ele><time>2026-04-26T12:55:08.001Z</time></trkpt><trkpt lat="43.40185137751394" lon="12.956594403148003"><ele>266.0</ele><time>2026-04-26T12:55:09.001Z</time></trkpt><trkpt lat="43.40182953427601" lon="12.95669214215793"><ele>266.0</ele><time>2026-04-26T12:55:10.001Z</time></trkpt><trkpt lat="43.40179949869055" lon="12.9567884601718"><ele>266.0</ele><time>2026-04-26T12:55:11.001Z</time></trkpt><trkpt lat="43.401770669490624" lon="12.956866707812084"><ele>266.0</ele><time>2026-04-26T12:55:12.001Z</time></trkpt><trkpt lat="43.40172841894537" lon="12.956966629751237"><ele>266.0</ele><time>2026-04-26T12:55:14.001Z</time></trkpt><trkpt lat="43.40173643585742" lon="12.957056591037686"><ele>266.0</ele><time>2026-04-26T12:55:17.001Z</time></trkpt><trkpt lat="43.40175504325895" lon="12.956942032898477"><ele>266.0</ele><time>2026-04-26T12:55:22.001Z</time></trkpt><trkpt lat="43.40178435667089" lon="12.95679753414671"><ele>266.0</ele><time>2026-04-26T12:55:23.001Z</time></trkpt><trkpt lat="43.401812943638696" lon="12.956671338335218"><ele>266.0</ele><time>2026-04-26T12:55:24.001Z</time></trkpt><trkpt lat="43.401836854002674" lon="12.956548186323188"><ele>266.0</ele><time>2026-04-26T12:55:25.001Z</time></trkpt><trkpt lat="43.401856730624004" lon="12.956418081918383"><ele>266.0</ele><time>2026-04-26T12:55:26.001Z</time></trkpt><trkpt lat="43.40186233699321" lon="12.956276794518667"><ele>266.0</ele><time>2026-04-26T12:55:27.001Z</time></trkpt><trkpt lat="43.40181808278202" lon="12.956139384731785"><ele>266.0</ele><time>2026-04-26T12:55:28.001Z</time></trkpt><trkpt lat="43.401732215020516" lon="12.956010627673413"><ele>266.0</ele><time>2026-04-26T12:55:29.001Z</time></trkpt><trkpt lat="43.40166673511915" lon="12.955877786771696"><ele>266.0</ele><time>2026-04-26T12:55:30.001Z</time></trkpt><trkpt lat="43.40161953528167" lon="12.955744847914206"><ele>266.0</ele><time>2026-04-26T12:55:31.001Z</time></trkpt><trkpt lat="43.40160008872915" lon="12.955572994425188"><ele>266.0</ele><time>2026-04-26T12:55:32.001Z</time></trkpt><trkpt lat="43.401613908469166" lon="12.95538053264663"><ele>266.0</ele><time>2026-04-26T12:55:33.001Z</time></trkpt><trkpt lat="43.40163623248462" lon="12.95517692848031"><ele>266.0</ele><time>2026-04-26T12:55:34.001Z</time></trkpt><trkpt lat="43.40169781828795" lon="12.95499102379005"><ele>266.0</ele><time>2026-04-26T12:55:35.001Z</time></trkpt><trkpt lat="43.401706634709214" lon="12.954804615789309"><ele>266.0</ele><time>2026-04-26T12:55:36.001Z</time></trkpt><trkpt lat="43.401715439716064" lon="12.954607236186131"><ele>266.0</ele><time>2026-04-26T12:55:37.001Z</time></trkpt><trkpt lat="43.40172269835795" lon="12.954403374340485"><ele>266.0</ele><time>2026-04-26T12:55:38.001Z</time></trkpt><trkpt lat="43.401728140920056" lon="12.95419566038468"><ele>266.0</ele><time>2026-04-26T12:55:39.001Z</time></trkpt><trkpt lat="43.40173245096384" lon="12.953984085009926"><ele>266.0</ele><time>2026-04-26T12:55:40.001Z</time></trkpt><trkpt lat="43.40173068879303" lon="12.953766258767978"><ele>266.0</ele><time>2026-04-26T12:55:41.001Z</time></trkpt><trkpt lat="43.401722588006066" lon="12.953552724815088"><ele>266.0</ele><time>2026-04-26T12:55:42.001Z</time></trkpt><trkpt lat="43.401713419953104" lon="12.953341169509306"><ele>266.0</ele><time>2026-04-26T12:55:43.001Z</time></trkpt><trkpt lat="43.401703665832336" lon="12.953129910209316"><ele>266.0</ele><time>2026-04-26T12:55:44.001Z</time></trkpt><trkpt lat="43.40169155438763" lon="12.952910175121337"><ele>266.0</ele><time>2026-04-26T12:55:45.001Z</time></trkpt><trkpt lat="43.401680034763686" lon="12.952700880787319"><ele>266.0</ele><time>2026-04-26T12:55:46.001Z</time></trkpt><trkpt lat="43.4016723574501" lon="12.952496511483083"><ele>266.0</ele><time>2026-04-26T12:55:47.001Z</time></trkpt><trkpt lat="43.401665871622015" lon="12.952277024970057"><ele>266.0</ele><time>2026-04-26T12:55:48.001Z</time></trkpt><trkpt lat="43.40166305949685" lon="12.952068431426769"><ele>266.0</ele><time>2026-04-26T12:55:49.001Z</time></trkpt><trkpt lat="43.40167014138474" lon="12.951856435837488"><ele>266.0</ele><time>2026-04-26T12:55:50.001Z</time></trkpt><trkpt lat="43.40169367531175" lon="12.95165853997412"><ele>266.0</ele><time>2026-04-26T12:55:51.001Z</time></trkpt><trkpt lat="43.40173002485485" lon="12.95144445595576"><ele>266.0</ele><time>2026-04-26T12:55:52.001Z</time></trkpt><trkpt lat="43.40176837344933" lon="12.951226866978423"><ele>266.0</ele><time>2026-04-26T12:55:53.001Z</time></trkpt><trkpt lat="43.40180715311287" lon="12.951006831900635"><ele>266.0</ele><time>2026-04-26T12:55:54.001Z</time></trkpt><trkpt lat="43.401844130965635" lon="12.950797020619563"><ele>266.0</ele><time>2026-04-26T12:55:55.001Z</time></trkpt><trkpt lat="43.40188057982931" lon="12.950590210870194"><ele>266.0</ele><time>2026-04-26T12:55:56.001Z</time></trkpt><trkpt lat="43.401916984674806" lon="12.95038365087048"><ele>266.0</ele><time>2026-04-26T12:55:57.001Z</time></trkpt><trkpt lat="43.401952899596594" lon="12.950175724491611"><ele>266.0</ele><time>2026-04-26T12:55:58.001Z</time></trkpt><trkpt lat="43.40199156553756" lon="12.949969176694216"><ele>266.0</ele><time>2026-04-26T12:55:59.001Z</time></trkpt><trkpt lat="43.40203726296795" lon="12.949790508799628"><ele>266.0</ele><time>2026-04-26T12:56:00.001Z</time></trkpt><trkpt lat="43.4021126983271" lon="12.949636390467344"><ele>266.0</ele><time>2026-04-26T12:56:01.001Z</time></trkpt><trkpt lat="43.402206357619086" lon="12.949487814499404"><ele>266.0</ele><time>2026-04-26T12:56:02.001Z</time></trkpt><trkpt lat="43.40230706545041" lon="12.949330953852412"><ele>266.0</ele><time>2026-04-26T12:56:03.001Z</time></trkpt><trkpt lat="43.402401072674" lon="12.949185180034712"><ele>266.0</ele><time>2026-04-26T12:56:04Z</time></trkpt><trkpt lat="43.402496798189674" lon="12.94905087143339"><ele>266.0</ele><time>2026-04-26T12:56:05Z</time></trkpt><trkpt lat="43.40259597146613" lon="12.948937114937648"><ele>264.75</ele><time>2026-04-26T12:56:06Z</time></trkpt><trkpt lat="43.40269265103719" lon="12.948835491930023"><ele>263.5</ele><time>2026-04-26T12:56:07Z</time></trkpt><trkpt lat="43.40280199132844" lon="12.948781775756881"><ele>262.25</ele><time>2026-04-26T12:56:08Z</time></trkpt><trkpt lat="43.40293102432523" lon="12.948773074008022"><ele>261.0</ele><time>2026-04-26T12:56:09Z</time></trkpt><trkpt lat="43.40305105868139" lon="12.948787902365796"><ele>258.75</ele><time>2026-04-26T12:56:10Z</time></trkpt><trkpt lat="43.40317117384397" lon="12.948780284187551"><ele>256.5</ele><time>2026-04-26T12:56:11Z</time></trkpt><trkpt lat="43.40329866659341" lon="12.94877278622529"><ele>254.25</ele><time>2026-04-26T12:56:12Z</time></trkpt><trkpt lat="43.40342928380278" lon="12.948726906057509"><ele>252.0</ele><time>2026-04-26T12:56:13Z</time></trkpt><trkpt lat="43.40354505401935" lon="12.948660834280023"><ele>252.0</ele><time>2026-04-26T12:56:14Z</time></trkpt><trkpt lat="43.403693713899145" lon="12.94857269967167"><ele>252.0</ele><time>2026-04-26T12:56:15Z</time></trkpt><trkpt lat="43.40382540422263" lon="12.948503668633332"><ele>252.0</ele><time>2026-04-26T12:56:16Z</time></trkpt><trkpt lat="43.40395933758213" lon="12.948435230385009"><ele>252.0</ele><time>2026-04-26T12:56:17Z</time></trkpt><trkpt lat="43.40408463783439" lon="12.948357539070562"><ele>249.5</ele><time>2026-04-26T12:56:18Z</time></trkpt><trkpt lat="43.404198229982" lon="12.948292648593245"><ele>247.0</ele><time>2026-04-26T12:56:19Z</time></trkpt><trkpt lat="43.40430636670887" lon="12.948211933866599"><ele>244.5</ele><time>2026-04-26T12:56:20Z</time></trkpt><trkpt lat="43.40440308015178" lon="12.948120963520383"><ele>242.0</ele><time>2026-04-26T12:56:21Z</time></trkpt><trkpt lat="43.404494631210845" lon="12.948039604264356"><ele>242.0</ele><time>2026-04-26T12:56:22Z</time></trkpt><trkpt lat="43.404571043550376" lon="12.947936743839824"><ele>242.0</ele><time>2026-04-26T12:56:23Z</time></trkpt><trkpt lat="43.404660057004186" lon="12.947846759945245"><ele>242.0</ele><time>2026-04-26T12:56:24Z</time></trkpt><trkpt lat="43.40474046733494" lon="12.947720015228715"><ele>242.0</ele><time>2026-04-26T12:56:25Z</time></trkpt><trkpt lat="43.404793920725695" lon="12.947586040812482"><ele>244.83333333333334</ele><time>2026-04-26T12:56:26Z</time></trkpt><trkpt lat="43.40486760868716" lon="12.94747090734432"><ele>247.66666666666669</ele><time>2026-04-26T12:56:27Z</time></trkpt><trkpt lat="43.404917475113315" lon="12.947350173151438"><ele>250.5</ele><time>2026-04-26T12:56:28Z</time></trkpt><trkpt lat="43.40495172959773" lon="12.947254477748858"><ele>253.33333333333331</ele><time>2026-04-26T12:56:29Z</time></trkpt><trkpt lat="43.404991569755644" lon="12.9471590832482"><ele>256.16666666666663</ele><time>2026-04-26T12:56:31Z</time></trkpt><trkpt lat="43.405063267500594" lon="12.94713413943693"><ele>259.0</ele><time>2026-04-26T12:56:33Z</time></trkpt><trkpt lat="43.4050966087067" lon="12.947028886299194"><ele>259.0</ele><time>2026-04-26T12:56:36Z</time></trkpt><trkpt lat="43.405176964049154" lon="12.94711589849393"><ele>259.0</ele><time>2026-04-26T12:57:37.001Z</time></trkpt><trkpt lat="43.40527335415832" lon="12.947143299843242"><ele>259.0</ele><time>2026-04-26T12:57:45.001Z</time></trkpt><trkpt lat="43.405296643825814" lon="12.94738800415433"><ele>259.0</ele><time>2026-04-26T12:58:07.001Z</time></trkpt><trkpt lat="43.40520350984544" lon="12.947476331626989"><ele>282.5</ele><time>2026-04-26T12:58:08.001Z</time></trkpt><trkpt lat="43.405074121562365" lon="12.947646763388317"><ele>306.0</ele><time>2026-04-26T12:58:09Z</time></trkpt><trkpt lat="43.40474106983065" lon="12.947642051154522"><ele>290.0</ele><time>2026-04-26T12:58:10Z</time></trkpt><trkpt lat="43.40464967834938" lon="12.947796356404208"><ele>274.0</ele><time>2026-04-26T12:58:11Z</time></trkpt><trkpt lat="43.404535842349595" lon="12.947944323459883"><ele>258.0</ele><time>2026-04-26T12:58:12Z</time></trkpt><trkpt lat="43.40443145649186" lon="12.948056903630524"><ele>242.0</ele><time>2026-04-26T12:58:13Z</time></trkpt><trkpt lat="43.40433416853055" lon="12.948149964158455"><ele>242.0</ele><time>2026-04-26T12:58:14Z</time></trkpt><trkpt lat="43.404208967113895" lon="12.94824944974403"><ele>242.0</ele><time>2026-04-26T12:58:15Z</time></trkpt><trkpt lat="43.40407963704783" lon="12.94832657648786"><ele>242.0</ele><time>2026-04-26T12:58:16Z</time></trkpt><trkpt lat="43.40393840745503" lon="12.948396610699122"><ele>242.0</ele><time>2026-04-26T12:58:17Z</time></trkpt><trkpt lat="43.40379518070024" lon="12.948470453624742"><ele>244.5</ele><time>2026-04-26T12:58:18Z</time></trkpt><trkpt lat="43.40363706060527" lon="12.948555174850817"><ele>247.0</ele><time>2026-04-26T12:58:19Z</time></trkpt><trkpt lat="43.40351621350777" lon="12.948628370532484"><ele>249.5</ele><time>2026-04-26T12:58:20Z</time></trkpt><trkpt lat="43.40339920808387" lon="12.948694337369462"><ele>252.0</ele><time>2026-04-26T12:58:21Z</time></trkpt><trkpt lat="43.403300603047505" lon="12.948726835545024"><ele>252.0</ele><time>2026-04-26T12:58:22Z</time></trkpt><trkpt lat="43.403179014975706" lon="12.948726819396867"><ele>252.0</ele><time>2026-04-26T12:58:23Z</time></trkpt><trkpt lat="43.403056868682484" lon="12.948707163149923"><ele>252.0</ele><time>2026-04-26T12:58:24Z</time></trkpt><trkpt lat="43.40291658630155" lon="12.94871570287887"><ele>252.0</ele><time>2026-04-26T12:58:25Z</time></trkpt><trkpt lat="43.402791821163376" lon="12.948752121485835"><ele>254.25</ele><time>2026-04-26T12:58:26Z</time></trkpt><trkpt lat="43.40266494017372" lon="12.948818217017488"><ele>256.5</ele><time>2026-04-26T12:58:27Z</time></trkpt><trkpt lat="43.4025450974541" lon="12.948932749554757"><ele>258.75</ele><time>2026-04-26T12:58:28Z</time></trkpt><trkpt lat="43.402445662928244" lon="12.949055220223109"><ele>261.0</ele><time>2026-04-26T12:58:29Z</time></trkpt><trkpt lat="43.40234929426345" lon="12.949195124751478"><ele>262.25</ele><time>2026-04-26T12:58:30Z</time></trkpt><trkpt lat="43.40225272585687" lon="12.949347162313625"><ele>263.5</ele><time>2026-04-26T12:58:31Z</time></trkpt><trkpt lat="43.40215835564882" lon="12.949492157805553"><ele>264.75</ele><time>2026-04-26T12:58:32Z</time></trkpt><trkpt lat="43.402078817745334" lon="12.9496605928099"><ele>266.0</ele><time>2026-04-26T12:58:33Z</time></trkpt><trkpt lat="43.40199886450318" lon="12.949831826985275"><ele>266.0</ele><time>2026-04-26T12:58:34Z</time></trkpt><trkpt lat="43.40195732211502" lon="12.950027835866763"><ele>266.0</ele><time>2026-04-26T12:58:35Z</time></trkpt><trkpt lat="43.40191673809194" lon="12.950234849467831"><ele>266.0</ele><time>2026-04-26T12:58:36Z</time></trkpt><trkpt lat="43.401885034556244" lon="12.950445861034055"><ele>266.0</ele><time>2026-04-26T12:58:37Z</time></trkpt><trkpt lat="43.40184986458194" lon="12.95066245771829"><ele>266.0</ele><time>2026-04-26T12:58:38Z</time></trkpt><trkpt lat="43.4018120299123" lon="12.950880208316962"><ele>266.0</ele><time>2026-04-26T12:58:39Z</time></trkpt><trkpt lat="43.40175710629588" lon="12.951096399653744"><ele>266.0</ele><time>2026-04-26T12:58:40Z</time></trkpt><trkpt lat="43.4017180302103" lon="12.9513181166298"><ele>266.0</ele><time>2026-04-26T12:58:41Z</time></trkpt><trkpt lat="43.40167948239716" lon="12.951539838560622"><ele>266.0</ele><time>2026-04-26T12:58:42Z</time></trkpt><trkpt lat="43.401643767162966" lon="12.951766431452494"><ele>266.0</ele><time>2026-04-26T12:58:43Z</time></trkpt><trkpt lat="43.401631603618725" lon="12.952002513945246"><ele>266.0</ele><time>2026-04-26T12:58:44Z</time></trkpt><trkpt lat="43.40164382709411" lon="12.952240602933456"><ele>266.0</ele><time>2026-04-26T12:58:45Z</time></trkpt><trkpt lat="43.40165030072631" lon="12.952472987108825"><ele>266.0</ele><time>2026-04-26T12:58:46Z</time></trkpt><trkpt lat="43.40165474971323" lon="12.952698763418745"><ele>266.0</ele><time>2026-04-26T12:58:47Z</time></trkpt><trkpt lat="43.40167279237017" lon="12.952918361761022"><ele>266.0</ele><time>2026-04-26T12:58:48Z</time></trkpt><trkpt lat="43.40167682800703" lon="12.953137500486818"><ele>266.0</ele><time>2026-04-26T12:58:49Z</time></trkpt><trkpt lat="43.40169097273125" lon="12.953350004627275"><ele>266.0</ele><time>2026-04-26T12:58:50Z</time></trkpt><trkpt lat="43.40169746960539" lon="12.953560230519232"><ele>266.0</ele><time>2026-04-26T12:58:51Z</time></trkpt><trkpt lat="43.401697649302704" lon="12.953774545168562"><ele>266.0</ele><time>2026-04-26T12:58:52Z</time></trkpt><trkpt lat="43.40169650774104" lon="12.953989779700443"><ele>266.0</ele><time>2026-04-26T12:58:53Z</time></trkpt><trkpt lat="43.401695792583745" lon="12.95420730081099"><ele>266.0</ele><time>2026-04-26T12:58:54Z</time></trkpt><trkpt lat="43.40168886145465" lon="12.95442496096087"><ele>266.0</ele><time>2026-04-26T12:58:55Z</time></trkpt><trkpt lat="43.40167217022745" lon="12.954644365215769"><ele>266.0</ele><time>2026-04-26T12:58:56Z</time></trkpt><trkpt lat="43.401673734156454" lon="12.954856846666505"><ele>266.0</ele><time>2026-04-26T12:58:57Z</time></trkpt><trkpt lat="43.401665568304985" lon="12.955073255476485"><ele>266.0</ele><time>2026-04-26T12:58:58Z</time></trkpt><trkpt lat="43.40165558314726" lon="12.95527848887853"><ele>266.0</ele><time>2026-04-26T12:58:59Z</time></trkpt><trkpt lat="43.40164861701511" lon="12.955466004213271"><ele>266.0</ele><time>2026-04-26T12:59:00Z</time></trkpt><trkpt lat="43.40164114140521" lon="12.955649534563003"><ele>266.0</ele><time>2026-04-26T12:59:01Z</time></trkpt><trkpt lat="43.401685772452645" lon="12.955815928488429"><ele>266.0</ele><time>2026-04-26T12:59:02Z</time></trkpt><trkpt lat="43.40176190106432" lon="12.95596402481213"><ele>266.0</ele><time>2026-04-26T12:59:03Z</time></trkpt><trkpt lat="43.40183442581755" lon="12.956119028710297"><ele>266.0</ele><time>2026-04-26T12:59:04Z</time></trkpt><trkpt lat="43.40188899908711" lon="12.956254947182815"><ele>266.0</ele><time>2026-04-26T12:59:05Z</time></trkpt><trkpt lat="43.40189014901953" lon="12.956390764501863"><ele>266.0</ele><time>2026-04-26T12:59:06Z</time></trkpt><trkpt lat="43.40185919824906" lon="12.956531074552286"><ele>266.0</ele><time>2026-04-26T12:59:07Z</time></trkpt><trkpt lat="43.40182022701394" lon="12.956672582618145"><ele>266.0</ele><time>2026-04-26T12:59:08Z</time></trkpt><trkpt lat="43.401781231100905" lon="12.956806517590294"><ele>266.0</ele><time>2026-04-26T12:59:09Z</time></trkpt><trkpt lat="43.40175083837629" lon="12.95692185410741"><ele>266.0</ele><time>2026-04-26T12:59:10Z</time></trkpt><trkpt lat="43.40173001104422" lon="12.957041740506607"><ele>266.0</ele><time>2026-04-26T12:59:11Z</time></trkpt><trkpt lat="43.40172340231682" lon="12.957128744823544"><ele>266.0</ele><time>2026-04-26T12:59:12Z</time></trkpt><trkpt lat="43.40171954901288" lon="12.957269772963087"><ele>266.0</ele><time>2026-04-26T12:59:14Z</time></trkpt><trkpt lat="43.40177481927051" lon="12.957342696913305"><ele>266.0</ele><time>2026-04-26T12:59:26.001Z</time></trkpt><trkpt lat="43.40179243113919" lon="12.957541566643242"><ele>266.0</ele><time>2026-04-26T12:59:28.001Z</time></trkpt><trkpt lat="43.40179663758656" lon="12.957684480750638"><ele>266.0</ele><time>2026-04-26T12:59:29.001Z</time></trkpt><trkpt lat="43.40177852318031" lon="12.957843956210528"><ele>266.0</ele><time>2026-04-26T12:59:30.001Z</time></trkpt><trkpt lat="43.4017835371188" lon="12.958013534163538"><ele>266.0</ele><time>2026-04-26T12:59:31.001Z</time></trkpt><trkpt lat="43.40177695720862" lon="12.95819616200682"><ele>266.0</ele><time>2026-04-26T12:59:32.001Z</time></trkpt><trkpt lat="43.40176120716388" lon="12.958378389128487"><ele>266.0</ele><time>2026-04-26T12:59:33.001Z</time></trkpt><trkpt lat="43.4017600383065" lon="12.958552877192705"><ele>266.0</ele><time>2026-04-26T12:59:34.001Z</time></trkpt><trkpt lat="43.4017488010448" lon="12.95873031078967"><ele>266.0</ele><time>2026-04-26T12:59:35.001Z</time></trkpt><trkpt lat="43.40173780012125" lon="12.958903406957889"><ele>266.0</ele><time>2026-04-26T12:59:36.001Z</time></trkpt><trkpt lat="43.40167574288629" lon="12.959053761694117"><ele>266.0</ele><time>2026-04-26T12:59:37.001Z</time></trkpt><trkpt lat="43.40164700401278" lon="12.959209330017263"><ele>266.0</ele><time>2026-04-26T12:59:38.001Z</time></trkpt><trkpt lat="43.401580323684996" lon="12.959351821342644"><ele>266.0</ele><time>2026-04-26T12:59:39.001Z</time></trkpt><trkpt lat="43.401514397531265" lon="12.959501021320749"><ele>266.0</ele><time>2026-04-26T12:59:40.001Z</time></trkpt><trkpt lat="43.401451277703444" lon="12.9596677586419"><ele>266.0</ele><time>2026-04-26T12:59:41.001Z</time></trkpt><trkpt lat="43.40136988028557" lon="12.95981087719114"><ele>266.0</ele><time>2026-04-26T12:59:42.001Z</time></trkpt><trkpt lat="43.40127535247539" lon="12.95995183669372"><ele>266.0</ele><time>2026-04-26T12:59:43.001Z</time></trkpt><trkpt lat="43.40117862678982" lon="12.960070504522252"><ele>266.0</ele><time>2026-04-26T12:59:44.001Z</time></trkpt><trkpt lat="43.40106223398825" lon="12.960176857195384"><ele>266.0</ele><time>2026-04-26T12:59:45.001Z</time></trkpt><trkpt lat="43.40093779323118" lon="12.960275615095728"><ele>266.0</ele><time>2026-04-26T12:59:46.001Z</time></trkpt><trkpt lat="43.40081268527015" lon="12.960382080432094"><ele>266.0</ele><time>2026-04-26T12:59:47.001Z</time></trkpt><trkpt lat="43.40069926522225" lon="12.960498365552162"><ele>266.0</ele><time>2026-04-26T12:59:48.001Z</time></trkpt><trkpt lat="43.40059534382156" lon="12.960647804641802"><ele>266.0</ele><time>2026-04-26T12:59:49.001Z</time></trkpt><trkpt lat="43.40052312266035" lon="12.960848285959376"><ele>266.0</ele><time>2026-04-26T12:59:50.001Z</time></trkpt><trkpt lat="43.40047250764955" lon="12.961038000505141"><ele>266.0</ele><time>2026-04-26T12:59:51.001Z</time></trkpt><trkpt lat="43.40041849582273" lon="12.961221171338629"><ele>264.5</ele><time>2026-04-26T12:59:52.001Z</time></trkpt><trkpt lat="43.400368715647474" lon="12.961393429295724"><ele>263.0</ele><time>2026-04-26T12:59:53.001Z</time></trkpt><trkpt lat="43.40034815253731" lon="12.9615693577957"><ele>261.5</ele><time>2026-04-26T12:59:54.001Z</time></trkpt><trkpt lat="43.40033358820046" lon="12.961743484773939"><ele>260.0</ele><time>2026-04-26T12:59:55.001Z</time></trkpt><trkpt lat="43.40036100511213" lon="12.961914171763466"><ele>260.0</ele><time>2026-04-26T12:59:56.001Z</time></trkpt><trkpt lat="43.40039525396128" lon="12.962060659278274"><ele>260.0</ele><time>2026-04-26T12:59:57.001Z</time></trkpt><trkpt lat="43.40038645881264" lon="12.962195936229058"><ele>260.0</ele><time>2026-04-26T12:59:58.001Z</time></trkpt><trkpt lat="43.40042364339413" lon="12.962317255660286"><ele>260.0</ele><time>2026-04-26T12:59:59.001Z</time></trkpt><trkpt lat="43.40046693733078" lon="12.962449480912044"><ele>260.0</ele><time>2026-04-26T13:00:00.001Z</time></trkpt><trkpt lat="43.40048964139433" lon="12.962598427706727"><ele>253.2</ele><time>2026-04-26T13:00:01.001Z</time></trkpt><trkpt lat="43.400500526960386" lon="12.962738673472543"><ele>246.4</ele><time>2026-04-26T13:00:02.001Z</time></trkpt><trkpt lat="43.40052833387705" lon="12.96287178890697"><ele>239.60000000000002</ele><time>2026-04-26T13:00:03.001Z</time></trkpt><trkpt lat="43.40055448791867" lon="12.963024259096086"><ele>232.8</ele><time>2026-04-26T13:00:04.001Z</time></trkpt><trkpt lat="43.40056706734407" lon="12.963178176820165"><ele>226.0</ele><time>2026-04-26T13:00:05.001Z</time></trkpt><trkpt lat="43.400560804734916" lon="12.963340939792126"><ele>223.75</ele><time>2026-04-26T13:00:06.001Z</time></trkpt><trkpt lat="43.40055130124275" lon="12.963504784381506"><ele>221.5</ele><time>2026-04-26T13:00:07.001Z</time></trkpt><trkpt lat="43.400545073205784" lon="12.963677490948474"><ele>219.25</ele><time>2026-04-26T13:00:08.001Z</time></trkpt><trkpt lat="43.40052565723479" lon="12.963864246325517"><ele>217.0</ele><time>2026-04-26T13:00:09.001Z</time></trkpt><trkpt lat="43.40050187633236" lon="12.964058184506797"><ele>231.0</ele><time>2026-04-26T13:00:10.001Z</time></trkpt><trkpt lat="43.40048993461966" lon="12.96425613451427"><ele>245.0</ele><time>2026-04-26T13:00:11.001Z</time></trkpt><trkpt lat="43.40047499925152" lon="12.96446509038325"><ele>259.0</ele><time>2026-04-26T13:00:12.001Z</time></trkpt><trkpt lat="43.400467810221116" lon="12.964670810963172"><ele>273.0</ele><time>2026-04-26T13:00:13.001Z</time></trkpt><trkpt lat="43.40046440668839" lon="12.96486931669042"><ele>276.0</ele><time>2026-04-26T13:00:14.001Z</time></trkpt><trkpt lat="43.40042775186097" lon="12.965059156510772"><ele>279.0</ele><time>2026-04-26T13:00:15Z</time></trkpt><trkpt lat="43.40044685331188" lon="12.965222250524354"><ele>282.0</ele><time>2026-04-26T13:00:16Z</time></trkpt><trkpt lat="43.40049193571586" lon="12.96537817746047"><ele>285.0</ele><time>2026-04-26T13:00:17Z</time></trkpt><trkpt lat="43.40057259018991" lon="12.965517907633663"><ele>278.0</ele><time>2026-04-26T13:00:18Z</time></trkpt><trkpt lat="43.4006751140258" lon="12.9656305303944"><ele>271.0</ele><time>2026-04-26T13:00:19Z</time></trkpt><trkpt lat="43.40078534974293" lon="12.965741150307414"><ele>264.0</ele><time>2026-04-26T13:00:20Z</time></trkpt><trkpt lat="43.4009130579724" lon="12.965851956151859"><ele>257.0</ele><time>2026-04-26T13:00:21Z</time></trkpt><trkpt lat="43.40104534721956" lon="12.965967952690367"><ele>257.0</ele><time>2026-04-26T13:00:22Z</time></trkpt><trkpt lat="43.40117557848393" lon="12.966078228988355"><ele>257.0</ele><time>2026-04-26T13:00:23Z</time></trkpt><trkpt lat="43.401308073427764" lon="12.96619872823833"><ele>257.0</ele><time>2026-04-26T13:00:24Z</time></trkpt><trkpt lat="43.40146142371583" lon="12.966321772264909"><ele>244.66666666666669</ele><time>2026-04-26T13:00:25Z</time></trkpt><trkpt lat="43.40160779098549" lon="12.966442861503038"><ele>232.33333333333331</ele><time>2026-04-26T13:00:26Z</time></trkpt><trkpt lat="43.401760270392" lon="12.966560464665605"><ele>220.0</ele><time>2026-04-26T13:00:27Z</time></trkpt><trkpt lat="43.401888074606084" lon="12.966672026539484"><ele>222.5</ele><time>2026-04-26T13:00:28Z</time></trkpt><trkpt lat="43.40200216427225" lon="12.96680110032379"><ele>225.0</ele><time>2026-04-26T13:00:29Z</time></trkpt><trkpt lat="43.40210792937771" lon="12.966891083727674"><ele>227.5</ele><time>2026-04-26T13:00:30Z</time></trkpt><trkpt lat="43.40218548649773" lon="12.967007251685375"><ele>230.0</ele><time>2026-04-26T13:00:31Z</time></trkpt><trkpt lat="43.4022475148857" lon="12.967120285922428"><ele>206.0</ele><time>2026-04-26T13:00:32Z</time></trkpt><trkpt lat="43.40227820729106" lon="12.967211235450527"><ele>206.0</ele><time>2026-04-26T13:00:33Z</time></trkpt><trkpt lat="43.40232940749684" lon="12.967333322582574"><ele>206.0</ele><time>2026-04-26T13:00:35Z</time></trkpt><trkpt lat="43.40232279022534" lon="12.967420379559172"><ele>206.0</ele><time>2026-04-26T13:00:39Z</time></trkpt></trkseg><trkseg><trkpt lat="43.40217568219211" lon="12.969088731049945"><ele>207.0</ele><time>2026-04-26T16:01:56Z</time></trkpt><trkpt lat="43.40220475634895" lon="12.968982768260167"><ele>207.0</ele><time>2026-04-26T16:01:58Z</time></trkpt><trkpt lat="43.402206323312676" lon="12.968866390087147"><ele>207.0</ele><time>2026-04-26T16:02:00Z</time></trkpt><trkpt lat="43.40226054378637" lon="12.9687502471332"><ele>207.0</ele><time>2026-04-26T16:02:02Z</time></trkpt><trkpt lat="43.40231876100217" lon="12.968671247878437"><ele>207.0</ele><time>2026-04-26T16:02:04Z</time></trkpt><trkpt lat="43.402464507226874" lon="12.968641186583445"><ele>207.0</ele><time>2026-04-26T16:02:10Z</time></trkpt><trkpt lat="43.4024952238368" lon="12.968516053369003"><ele>207.0</ele><time>2026-04-26T16:02:12Z</time></trkpt><trkpt lat="43.4025148350274" lon="12.968395988767371"><ele>207.0</ele><time>2026-04-26T16:02:14Z</time></trkpt><trkpt lat="43.40259187542427" lon="12.968305331734456"><ele>207.0</ele><time>2026-04-26T16:02:16Z</time></trkpt><trkpt lat="43.40266094609887" lon="12.96819585202514"><ele>207.0</ele><time>2026-04-26T16:02:18Z</time></trkpt><trkpt lat="43.402683821358494" lon="12.968113630822316"><ele>206.83333333333334</ele><time>2026-04-26T16:02:19Z</time></trkpt><trkpt lat="43.402638276480126" lon="12.968015289902693"><ele>206.66666666666669</ele><time>2026-04-26T16:02:20Z</time></trkpt><trkpt lat="43.4025767365757" lon="12.967943989312143"><ele>206.5</ele><time>2026-04-26T16:02:21Z</time></trkpt><trkpt lat="43.4025031235735" lon="12.967926087670486"><ele>206.33333333333334</ele><time>2026-04-26T16:02:22Z</time></trkpt><trkpt lat="43.402454175432396" lon="12.967831748468702"><ele>206.16666666666669</ele><time>2026-04-26T16:02:23Z</time></trkpt><trkpt lat="43.402415747358" lon="12.967729360338467"><ele>206.0</ele><time>2026-04-26T16:02:24Z</time></trkpt><trkpt lat="43.40241273500143" lon="12.96760519889112"><ele>206.0</ele><time>2026-04-26T16:02:25Z</time></trkpt><trkpt lat="43.402389593807676" lon="12.96747866449114"><ele>206.0</ele><time>2026-04-26T16:02:26Z</time></trkpt><trkpt lat="43.4023624388416" lon="12.967360133109885"><ele>206.0</ele><time>2026-04-26T16:02:27Z</time></trkpt><trkpt lat="43.40231961218104" lon="12.967230524522954"><ele>206.0</ele><time>2026-04-26T16:02:28Z</time></trkpt><trkpt lat="43.402269990426674" lon="12.967107809584775"><ele>206.0</ele><time>2026-04-26T16:02:29Z</time></trkpt><trkpt lat="43.40220991526345" lon="12.966995505147992"><ele>208.8</ele><time>2026-04-26T16:02:30Z</time></trkpt><trkpt lat="43.4021367014468" lon="12.966915558341299"><ele>211.60000000000002</ele><time>2026-04-26T16:02:31Z</time></trkpt><trkpt lat="43.402069061778136" lon="12.966811361655328"><ele>214.4</ele><time>2026-04-26T16:02:32Z</time></trkpt><trkpt lat="43.401989764641655" lon="12.966741560618027"><ele>217.2</ele><time>2026-04-26T16:02:33Z</time></trkpt><trkpt lat="43.4019169046367" lon="12.966635587622664"><ele>220.0</ele><time>2026-04-26T16:02:34Z</time></trkpt><trkpt lat="43.401822632407026" lon="12.966557278141009"><ele>220.0</ele><time>2026-04-26T16:02:35Z</time></trkpt><trkpt lat="43.40170693176439" lon="12.966475823906274"><ele>220.0</ele><time>2026-04-26T16:02:36Z</time></trkpt><trkpt lat="43.40162387393441" lon="12.966396277687098"><ele>220.0</ele><time>2026-04-26T16:02:37Z</time></trkpt><trkpt lat="43.40153545784234" lon="12.966333866338957"><ele>220.0</ele><time>2026-04-26T16:02:38Z</time></trkpt><trkpt lat="43.4014518962993" lon="12.966249816445739"><ele>220.0</ele><time>2026-04-26T16:02:39Z</time></trkpt><trkpt lat="43.40136513536462" lon="12.966180044556394"><ele>222.2</ele><time>2026-04-26T16:02:40Z</time></trkpt><trkpt lat="43.40131808206997" lon="12.966036908075374"><ele>224.4</ele><time>2026-04-26T16:02:41Z</time></trkpt><trkpt lat="43.40122003425886" lon="12.965986679236249"><ele>226.60000000000002</ele><time>2026-04-26T16:02:42Z</time></trkpt><trkpt lat="43.4011393647282" lon="12.96591940590136"><ele>228.8</ele><time>2026-04-26T16:02:43Z</time></trkpt><trkpt lat="43.401059681188045" lon="12.965835750284203"><ele>231.0</ele><time>2026-04-26T16:02:44Z</time></trkpt><trkpt lat="43.40097377395364" lon="12.96574893627319"><ele>231.0</ele><time>2026-04-26T16:02:45Z</time></trkpt><trkpt lat="43.40087919409031" lon="12.965683474676094"><ele>231.00000000000003</ele><time>2026-04-26T16:02:46Z</time></trkpt><trkpt lat="43.40077251915988" lon="12.965605864469918"><ele>231.00000000000003</ele><time>2026-04-26T16:02:47Z</time></trkpt><trkpt lat="43.400669348687764" lon="12.965540140593582"><ele>231.0</ele><time>2026-04-26T16:02:48Z</time></trkpt><trkpt lat="43.400578372444514" lon="12.965459431529574"><ele>231.0</ele><time>2026-04-26T16:02:49Z</time></trkpt><trkpt lat="43.4005308002207" lon="12.96534742762256"><ele>241.5</ele><time>2026-04-26T16:02:50Z</time></trkpt><trkpt lat="43.40048904855665" lon="12.965135611131457"><ele>252.0</ele><time>2026-04-26T16:02:51Z</time></trkpt><trkpt lat="43.400479813767575" lon="12.964995514348427"><ele>262.5</ele><time>2026-04-26T16:02:52Z</time></trkpt><trkpt lat="43.40048998824577" lon="12.964814698998664"><ele>273.0</ele><time>2026-04-26T16:02:53Z</time></trkpt><trkpt lat="43.40049863710621" lon="12.964668223334863"><ele>259.0</ele><time>2026-04-26T16:02:54Z</time></trkpt><trkpt lat="43.40050521818034" lon="12.964558390708504"><ele>245.0</ele><time>2026-04-26T16:02:55Z</time></trkpt><trkpt lat="43.400525387952676" lon="12.964354471982665"><ele>231.0</ele><time>2026-04-26T16:02:56Z</time></trkpt><trkpt lat="43.40054141065307" lon="12.964183130084852"><ele>217.0</ele><time>2026-04-26T16:02:57Z</time></trkpt><trkpt lat="43.400546821630996" lon="12.963972345137801"><ele>217.0</ele><time>2026-04-26T16:02:58Z</time></trkpt><trkpt lat="43.40056618651223" lon="12.963795934173993"><ele>217.0</ele><time>2026-04-26T16:02:59Z</time></trkpt><trkpt lat="43.40057868961689" lon="12.963599280260677"><ele>217.0</ele><time>2026-04-26T16:03:00Z</time></trkpt><trkpt lat="43.400593084557855" lon="12.963410667349054"><ele>217.0</ele><time>2026-04-26T16:03:01Z</time></trkpt><trkpt lat="43.400591338695655" lon="12.963230865137325"><ele>217.75</ele><time>2026-04-26T16:03:02Z</time></trkpt><trkpt lat="43.40060282311969" lon="12.963045817968382"><ele>218.5</ele><time>2026-04-26T16:03:03Z</time></trkpt><trkpt lat="43.40059400273533" lon="12.962863212000128"><ele>219.25</ele><time>2026-04-26T16:03:04Z</time></trkpt><trkpt lat="43.40056826587429" lon="12.962673471086253"><ele>220.0</ele><time>2026-04-26T16:03:05Z</time></trkpt><trkpt lat="43.400520380577035" lon="12.962479943722405"><ele>230.0</ele><time>2026-04-26T16:03:06Z</time></trkpt><trkpt lat="43.40046342163714" lon="12.962305379308242"><ele>240.0</ele><time>2026-04-26T16:03:07Z</time></trkpt><trkpt lat="43.40041746515206" lon="12.962119091224185"><ele>250.0</ele><time>2026-04-26T16:03:08Z</time></trkpt><trkpt lat="43.40037962593632" lon="12.961945222810389"><ele>260.0</ele><time>2026-04-26T16:03:09Z</time></trkpt><trkpt lat="43.4003579288717" lon="12.961763048877302"><ele>260.0</ele><time>2026-04-26T16:03:10Z</time></trkpt><trkpt lat="43.40036775247124" lon="12.961568513755104"><ele>260.0</ele><time>2026-04-26T16:03:11Z</time></trkpt><trkpt lat="43.400418273588194" lon="12.961381916895395"><ele>260.0</ele><time>2026-04-26T16:03:12Z</time></trkpt><trkpt lat="43.400476968681424" lon="12.961201309085494"><ele>260.0</ele><time>2026-04-26T16:03:13Z</time></trkpt><trkpt lat="43.400535850154746" lon="12.961019482724916"><ele>260.0</ele><time>2026-04-26T16:03:14Z</time></trkpt><trkpt lat="43.40059060461205" lon="12.960851299473719"><ele>260.0</ele><time>2026-04-26T16:03:15Z</time></trkpt><trkpt lat="43.4006570674916" lon="12.960672834212366"><ele>260.0</ele><time>2026-04-26T16:03:16Z</time></trkpt><trkpt lat="43.4007331701177" lon="12.960524462997908"><ele>260.0</ele><time>2026-04-26T16:03:17Z</time></trkpt><trkpt lat="43.40082526206964" lon="12.960413206549463"><ele>260.0</ele><time>2026-04-26T16:03:18Z</time></trkpt><trkpt lat="43.4009088604553" lon="12.960341328469648"><ele>260.0</ele><time>2026-04-26T16:03:19Z</time></trkpt><trkpt lat="43.40098302761096" lon="12.960284567481008"><ele>260.0</ele><time>2026-04-26T16:03:20Z</time></trkpt><trkpt lat="43.401040221994485" lon="12.960239361363938"><ele>260.0</ele><time>2026-04-26T16:03:21Z</time></trkpt><trkpt lat="43.40110336489655" lon="12.96018945388698"><ele>260.0</ele><time>2026-04-26T16:03:22Z</time></trkpt><trkpt lat="43.40120632257447" lon="12.9601017665655"><ele>260.0</ele><time>2026-04-26T16:03:24Z</time></trkpt><trkpt lat="43.401319355082386" lon="12.959961320982684"><ele>260.0</ele><time>2026-04-26T16:03:26Z</time></trkpt><trkpt lat="43.40138298157354" lon="12.959862435463585"><ele>260.0</ele><time>2026-04-26T16:03:27Z</time></trkpt><trkpt lat="43.40145564084579" lon="12.959788593838695"><ele>260.0</ele><time>2026-04-26T16:03:28Z</time></trkpt><trkpt lat="43.40148325889687" lon="12.959662515097254"><ele>260.0</ele><time>2026-04-26T16:03:29Z</time></trkpt><trkpt lat="43.401526738903094" lon="12.959566886436848"><ele>260.0</ele><time>2026-04-26T16:03:30Z</time></trkpt><trkpt lat="43.40157056982455" lon="12.959451253241536"><ele>260.0</ele><time>2026-04-26T16:03:31Z</time></trkpt><trkpt lat="43.401618949207304" lon="12.959351955862275"><ele>260.0</ele><time>2026-04-26T16:03:32Z</time></trkpt><trkpt lat="43.40166308749008" lon="12.959246162544623"><ele>260.0</ele><time>2026-04-26T16:03:33Z</time></trkpt><trkpt lat="43.40170317081847" lon="12.959144542972224"><ele>260.0</ele><time>2026-04-26T16:03:34Z</time></trkpt><trkpt lat="43.40173864558593" lon="12.959054608375709"><ele>260.0</ele><time>2026-04-26T16:03:35Z</time></trkpt><trkpt lat="43.401730132133466" lon="12.958905767358688"><ele>260.0</ele><time>2026-04-26T16:03:36Z</time></trkpt><trkpt lat="43.40173940759933" lon="12.958741365990766"><ele>260.0</ele><time>2026-04-26T16:03:37Z</time></trkpt><trkpt lat="43.40173643592772" lon="12.958609027883226"><ele>260.0</ele><time>2026-04-26T16:03:38Z</time></trkpt><trkpt lat="43.4017515612285" lon="12.958472572179103"><ele>260.0</ele><time>2026-04-26T16:03:39Z</time></trkpt><trkpt lat="43.401751871489374" lon="12.958336502749665"><ele>260.0</ele><time>2026-04-26T16:03:40Z</time></trkpt><trkpt lat="43.40175013354488" lon="12.95819961477218"><ele>260.0</ele><time>2026-04-26T16:03:41Z</time></trkpt><trkpt lat="43.401748411215806" lon="12.95805922280422"><ele>260.0</ele><time>2026-04-26T16:03:42Z</time></trkpt><trkpt lat="43.40174795098028" lon="12.957936043250566"><ele>260.0</ele><time>2026-04-26T16:03:43Z</time></trkpt><trkpt lat="43.401735943105336" lon="12.957772790884817"><ele>260.0</ele><time>2026-04-26T16:03:44Z</time></trkpt><trkpt lat="43.40174113952144" lon="12.957621051922876"><ele>260.0</ele><time>2026-04-26T16:03:45Z</time></trkpt><trkpt lat="43.401751791750364" lon="12.957473349267113"><ele>260.0</ele><time>2026-04-26T16:03:46Z</time></trkpt><trkpt lat="43.40175490250459" lon="12.957312575412264"><ele>260.0</ele><time>2026-04-26T16:03:47Z</time></trkpt><trkpt lat="43.401761715582765" lon="12.95716402181611"><ele>260.0</ele><time>2026-04-26T16:03:48Z</time></trkpt><trkpt lat="43.40177630549172" lon="12.957029167643888"><ele>260.0</ele><time>2026-04-26T16:03:49Z</time></trkpt><trkpt lat="43.401798956103605" lon="12.956896460694908"><ele>260.0</ele><time>2026-04-26T16:03:50Z</time></trkpt><trkpt lat="43.40181993253361" lon="12.95676142215886"><ele>260.0</ele><time>2026-04-26T16:03:51Z</time></trkpt><trkpt lat="43.40187398285709" lon="12.956637399609995"><ele>260.0</ele><time>2026-04-26T16:03:52Z</time></trkpt><trkpt lat="43.40187822361865" lon="12.956526219421665"><ele>260.0</ele><time>2026-04-26T16:03:53Z</time></trkpt><trkpt lat="43.401913452426875" lon="12.956422851530917"><ele>260.0</ele><time>2026-04-26T16:03:54Z</time></trkpt><trkpt lat="43.401874598135876" lon="12.95629172904569"><ele>260.0</ele><time>2026-04-26T16:03:55Z</time></trkpt><trkpt lat="43.40182103061438" lon="12.956171893353105"><ele>260.0</ele><time>2026-04-26T16:03:56Z</time></trkpt><trkpt lat="43.40177665286867" lon="12.956046588331414"><ele>260.0</ele><time>2026-04-26T16:03:57Z</time></trkpt><trkpt lat="43.401719535153894" lon="12.955935773938117"><ele>260.0</ele><time>2026-04-26T16:03:58Z</time></trkpt><trkpt lat="43.40166013986881" lon="12.955833321837448"><ele>260.0</ele><time>2026-04-26T16:03:59Z</time></trkpt><trkpt lat="43.40166989776774" lon="12.955666780871951"><ele>260.0</ele><time>2026-04-26T16:04:00Z</time></trkpt><trkpt lat="43.40166612658205" lon="12.955524391572093"><ele>260.0</ele><time>2026-04-26T16:04:01Z</time></trkpt><trkpt lat="43.40167099528864" lon="12.955362696082297"><ele>260.0</ele><time>2026-04-26T16:04:02Z</time></trkpt><trkpt lat="43.401672509187016" lon="12.955203639264248"><ele>260.0</ele><time>2026-04-26T16:04:03Z</time></trkpt><trkpt lat="43.40169459263337" lon="12.955059224676749"><ele>260.0</ele><time>2026-04-26T16:04:04Z</time></trkpt><trkpt lat="43.40170200378441" lon="12.954902528726537"><ele>260.0</ele><time>2026-04-26T16:04:05Z</time></trkpt><trkpt lat="43.40170904030208" lon="12.954753753424662"><ele>260.0</ele><time>2026-04-26T16:04:06Z</time></trkpt><trkpt lat="43.40171594883101" lon="12.95459293786935"><ele>260.0</ele><time>2026-04-26T16:04:07Z</time></trkpt><trkpt lat="43.401722200469116" lon="12.95441735785275"><ele>260.0</ele><time>2026-04-26T16:04:08Z</time></trkpt><trkpt lat="43.40171072915735" lon="12.954232913512792"><ele>260.0</ele><time>2026-04-26T16:04:09Z</time></trkpt><trkpt lat="43.40171905594529" lon="12.954051534863975"><ele>260.0</ele><time>2026-04-26T16:04:10Z</time></trkpt><trkpt lat="43.401732450972865" lon="12.953875038192965"><ele>260.0</ele><time>2026-04-26T16:04:11Z</time></trkpt><trkpt lat="43.401727664426375" lon="12.953669864724521"><ele>260.0</ele><time>2026-04-26T16:04:12Z</time></trkpt><trkpt lat="43.40170521565446" lon="12.953482785595805"><ele>260.0</ele><time>2026-04-26T16:04:13Z</time></trkpt><trkpt lat="43.40169668107693" lon="12.953293668875741"><ele>260.0</ele><time>2026-04-26T16:04:14Z</time></trkpt><trkpt lat="43.40171098482158" lon="12.953097213784282"><ele>260.0</ele><time>2026-04-26T16:04:15Z</time></trkpt><trkpt lat="43.401706677515094" lon="12.952886197393303"><ele>260.0</ele><time>2026-04-26T16:04:16Z</time></trkpt><trkpt lat="43.40173252957144" lon="12.952701096453653"><ele>260.0</ele><time>2026-04-26T16:04:17Z</time></trkpt><trkpt lat="43.401707805256834" lon="12.952503610114144"><ele>260.0</ele><time>2026-04-26T16:04:18Z</time></trkpt><trkpt lat="43.40167600186427" lon="12.952267345278372"><ele>260.0</ele><time>2026-04-26T16:04:19Z</time></trkpt><trkpt lat="43.40168376326604" lon="12.952073742596273"><ele>260.0</ele><time>2026-04-26T16:04:20Z</time></trkpt><trkpt lat="43.4016932653066" lon="12.951889541135353"><ele>260.0</ele><time>2026-04-26T16:04:21Z</time></trkpt><trkpt lat="43.401693471574355" lon="12.951732852341728"><ele>260.0</ele><time>2026-04-26T16:04:22Z</time></trkpt><trkpt lat="43.40170827787438" lon="12.951515478761742"><ele>260.0</ele><time>2026-04-26T16:04:23Z</time></trkpt><trkpt lat="43.401747895061526" lon="12.951326824967907"><ele>260.0</ele><time>2026-04-26T16:04:24Z</time></trkpt><trkpt lat="43.401783417976546" lon="12.951121165027201"><ele>260.0</ele><time>2026-04-26T16:04:25Z</time></trkpt><trkpt lat="43.40184468626168" lon="12.950903139617523"><ele>260.0</ele><time>2026-04-26T16:04:26Z</time></trkpt><trkpt lat="43.40187744027143" lon="12.950708385671089"><ele>260.0</ele><time>2026-04-26T16:04:27Z</time></trkpt><trkpt lat="43.40191197433854" lon="12.950510038716311"><ele>260.0</ele><time>2026-04-26T16:04:28Z</time></trkpt><trkpt lat="43.40194608937637" lon="12.950314613821561"><ele>260.0</ele><time>2026-04-26T16:04:29Z</time></trkpt><trkpt lat="43.40196938049959" lon="12.950118447785846"><ele>261.5</ele><time>2026-04-26T16:04:30Z</time></trkpt><trkpt lat="43.402010357146594" lon="12.949933911226143"><ele>263.0</ele><time>2026-04-26T16:04:31Z</time></trkpt><trkpt lat="43.40205050605761" lon="12.949764157914707"><ele>264.5</ele><time>2026-04-26T16:04:32Z</time></trkpt><trkpt lat="43.40212808668016" lon="12.949607012338927"><ele>266.0</ele><time>2026-04-26T16:04:33Z</time></trkpt><trkpt lat="43.40221695248542" lon="12.949471936945386"><ele>266.0</ele><time>2026-04-26T16:04:34Z</time></trkpt><trkpt lat="43.40230344593617" lon="12.94933667509329"><ele>266.0</ele><time>2026-04-26T16:04:35Z</time></trkpt><trkpt lat="43.40237501702544" lon="12.949198562061703"><ele>266.0</ele><time>2026-04-26T16:04:36Z</time></trkpt><trkpt lat="43.40245644199865" lon="12.949091646350302"><ele>266.0</ele><time>2026-04-26T16:04:37Z</time></trkpt><trkpt lat="43.402532174928965" lon="12.94898137438527"><ele>265.0</ele><time>2026-04-26T16:04:38Z</time></trkpt><trkpt lat="43.40261925054877" lon="12.948914801437034"><ele>264.0</ele><time>2026-04-26T16:04:39Z</time></trkpt><trkpt lat="43.40270756907186" lon="12.948838998087167"><ele>263.0</ele><time>2026-04-26T16:04:40Z</time></trkpt><trkpt lat="43.402806886029474" lon="12.948792211887469"><ele>262.0</ele><time>2026-04-26T16:04:41Z</time></trkpt><trkpt lat="43.402916438725185" lon="12.948758984206382"><ele>261.0</ele><time>2026-04-26T16:04:42Z</time></trkpt><trkpt lat="43.40303197806326" lon="12.948768706233977"><ele>258.75</ele><time>2026-04-26T16:04:43Z</time></trkpt><trkpt lat="43.40315122935612" lon="12.948766546478376"><ele>256.5</ele><time>2026-04-26T16:04:44Z</time></trkpt><trkpt lat="43.40327837461174" lon="12.94877461915327"><ele>254.25</ele><time>2026-04-26T16:04:45Z</time></trkpt><trkpt lat="43.40341518573792" lon="12.94873496407146"><ele>252.0</ele><time>2026-04-26T16:04:46Z</time></trkpt><trkpt lat="43.40353546385852" lon="12.948666641321633"><ele>252.0</ele><time>2026-04-26T16:04:47Z</time></trkpt><trkpt lat="43.403666422091604" lon="12.948587927733062"><ele>252.0</ele><time>2026-04-26T16:04:48Z</time></trkpt><trkpt lat="43.4037966338959" lon="12.948496358560035"><ele>252.0</ele><time>2026-04-26T16:04:49Z</time></trkpt><trkpt lat="43.4039412733861" lon="12.948443687833299"><ele>252.0</ele><time>2026-04-26T16:04:50Z</time></trkpt><trkpt lat="43.40407158516769" lon="12.948385720550775"><ele>249.5</ele><time>2026-04-26T16:04:51Z</time></trkpt><trkpt lat="43.40418852974256" lon="12.94832358582829"><ele>247.0</ele><time>2026-04-26T16:04:52Z</time></trkpt><trkpt lat="43.40429219170654" lon="12.948253074700263"><ele>244.5</ele><time>2026-04-26T16:04:53Z</time></trkpt><trkpt lat="43.404398400638925" lon="12.94817074086497"><ele>242.0</ele><time>2026-04-26T16:04:54Z</time></trkpt><trkpt lat="43.404503146669555" lon="12.948070873648073"><ele>242.0</ele><time>2026-04-26T16:04:55Z</time></trkpt><trkpt lat="43.40459518221666" lon="12.94795671000778"><ele>242.0</ele><time>2026-04-26T16:04:56Z</time></trkpt><trkpt lat="43.40467780956543" lon="12.947823986127432"><ele>242.0</ele><time>2026-04-26T16:04:57Z</time></trkpt><trkpt lat="43.40477605332418" lon="12.94768656242979"><ele>242.0</ele><time>2026-04-26T16:04:58Z</time></trkpt><trkpt lat="43.404850741059256" lon="12.947525555262224"><ele>246.25</ele><time>2026-04-26T16:04:59Z</time></trkpt><trkpt lat="43.4049200898041" lon="12.947362562543237"><ele>250.5</ele><time>2026-04-26T16:05:00Z</time></trkpt><trkpt lat="43.40497930058392" lon="12.947188368622392"><ele>254.75</ele><time>2026-04-26T16:05:01Z</time></trkpt><trkpt lat="43.40503411265451" lon="12.947009193936369"><ele>259.0</ele><time>2026-04-26T16:05:02Z</time></trkpt><trkpt lat="43.40508309023828" lon="12.946819038225941"><ele>253.0</ele><time>2026-04-26T16:05:03Z</time></trkpt><trkpt lat="43.40513282354612" lon="12.946637022567241"><ele>247.0</ele><time>2026-04-26T16:05:04Z</time></trkpt><trkpt lat="43.40520786315917" lon="12.946482856327668"><ele>241.0</ele><time>2026-04-26T16:05:05Z</time></trkpt><trkpt lat="43.4052688582301" lon="12.9462962397199"><ele>235.0</ele><time>2026-04-26T16:05:06Z</time></trkpt><trkpt lat="43.405321331699014" lon="12.946145837047453"><ele>235.0</ele><time>2026-04-26T16:05:07Z</time></trkpt><trkpt lat="43.40538998952419" lon="12.945979475996964"><ele>235.0</ele><time>2026-04-26T16:05:08Z</time></trkpt><trkpt lat="43.405473407137" lon="12.94583602355957"><ele>235.0</ele><time>2026-04-26T16:05:09Z</time></trkpt><trkpt lat="43.40555700381143" lon="12.94570819071416"><ele>235.0</ele><time>2026-04-26T16:05:10Z</time></trkpt><trkpt lat="43.40563391958025" lon="12.945556157466605"><ele>238.25</ele><time>2026-04-26T16:05:11Z</time></trkpt><trkpt lat="43.40571400148296" lon="12.945428368722059"><ele>241.5</ele><time>2026-04-26T16:05:12Z</time></trkpt><trkpt lat="43.40577987700609" lon="12.94529002527101"><ele>244.75</ele><time>2026-04-26T16:05:13Z</time></trkpt><trkpt lat="43.405835153952225" lon="12.945130699070518"><ele>248.0</ele><time>2026-04-26T16:05:14Z</time></trkpt><trkpt lat="43.40586949325972" lon="12.944963597233631"><ele>248.0</ele><time>2026-04-26T16:05:15Z</time></trkpt><trkpt lat="43.405888840705664" lon="12.944793684649637"><ele>248.0</ele><time>2026-04-26T16:05:16Z</time></trkpt><trkpt lat="43.405884818481006" lon="12.944624481649075"><ele>248.0</ele><time>2026-04-26T16:05:17Z</time></trkpt><trkpt lat="43.40586061899875" lon="12.944441888765725"><ele>248.0</ele><time>2026-04-26T16:05:18Z</time></trkpt><trkpt lat="43.40583770579125" lon="12.944269898537911"><ele>248.25</ele><time>2026-04-26T16:05:19Z</time></trkpt><trkpt lat="43.40583125998111" lon="12.944087534175056"><ele>248.5</ele><time>2026-04-26T16:05:20Z</time></trkpt><trkpt lat="43.40579736328093" lon="12.943915102170664"><ele>248.75</ele><time>2026-04-26T16:05:21Z</time></trkpt><trkpt lat="43.405758147663306" lon="12.943739283583433"><ele>249.0</ele><time>2026-04-26T16:05:22Z</time></trkpt><trkpt lat="43.405723460671716" lon="12.94356751295962"><ele>249.0</ele><time>2026-04-26T16:05:23Z</time></trkpt><trkpt lat="43.40569291038126" lon="12.943404440403766"><ele>249.0</ele><time>2026-04-26T16:05:24Z</time></trkpt><trkpt lat="43.40566584389839" lon="12.943242193848635"><ele>249.0</ele><time>2026-04-26T16:05:25Z</time></trkpt><trkpt lat="43.40564314912925" lon="12.943086383553492"><ele>249.0</ele><time>2026-04-26T16:05:26Z</time></trkpt><trkpt lat="43.40562262761321" lon="12.942933183982259"><ele>249.0</ele><time>2026-04-26T16:05:27Z</time></trkpt><trkpt lat="43.40559988384177" lon="12.942775759068596"><ele>249.0</ele><time>2026-04-26T16:05:28Z</time></trkpt><trkpt lat="43.40558166489594" lon="12.94261772179513"><ele>249.0</ele><time>2026-04-26T16:05:29Z</time></trkpt><trkpt lat="43.40556896428294" lon="12.942456664799376"><ele>249.0</ele><time>2026-04-26T16:05:30Z</time></trkpt><trkpt lat="43.405567869426264" lon="12.94230607711447"><ele>247.5</ele><time>2026-04-26T16:05:31Z</time></trkpt><trkpt lat="43.40558249971171" lon="12.942155001200074"><ele>246.0</ele><time>2026-04-26T16:05:32Z</time></trkpt><trkpt lat="43.40563427941028" lon="12.942018908165856"><ele>244.5</ele><time>2026-04-26T16:05:33Z</time></trkpt><trkpt lat="43.40569593379223" lon="12.941892051698092"><ele>243.0</ele><time>2026-04-26T16:05:34Z</time></trkpt><trkpt lat="43.405787094321475" lon="12.941788933106869"><ele>240.5</ele><time>2026-04-26T16:05:35Z</time></trkpt><trkpt lat="43.40587110347627" lon="12.941658445195156"><ele>238.0</ele><time>2026-04-26T16:05:36Z</time></trkpt><trkpt lat="43.405976387049705" lon="12.941556832361274"><ele>235.5</ele><time>2026-04-26T16:05:37Z</time></trkpt><trkpt lat="43.40607678535" lon="12.941445687544844"><ele>233.0</ele><time>2026-04-26T16:05:38Z</time></trkpt><trkpt lat="43.40617208701332" lon="12.941333363538657"><ele>233.0</ele><time>2026-04-26T16:05:39Z</time></trkpt><trkpt lat="43.40626535301045" lon="12.941225273004505"><ele>233.0</ele><time>2026-04-26T16:05:40Z</time></trkpt><trkpt lat="43.40635931866537" lon="12.94111195413436"><ele>233.0</ele><time>2026-04-26T16:05:41Z</time></trkpt><trkpt lat="43.40645045184863" lon="12.940995335484173"><ele>233.0</ele><time>2026-04-26T16:05:42Z</time></trkpt><trkpt lat="43.40653536675422" lon="12.940877540810622"><ele>235.75</ele><time>2026-04-26T16:05:43Z</time></trkpt><trkpt lat="43.40660672902463" lon="12.940740893514588"><ele>238.5</ele><time>2026-04-26T16:05:44Z</time></trkpt><trkpt lat="43.40667195450835" lon="12.940595650288493"><ele>241.25</ele><time>2026-04-26T16:05:45Z</time></trkpt><trkpt lat="43.406719011708695" lon="12.94043790157567"><ele>244.0</ele><time>2026-04-26T16:05:46Z</time></trkpt><trkpt lat="43.406755658487704" lon="12.940271486374987"><ele>244.0</ele><time>2026-04-26T16:05:47Z</time></trkpt><trkpt lat="43.406782053114625" lon="12.940113878271207"><ele>244.0</ele><time>2026-04-26T16:05:48Z</time></trkpt><trkpt lat="43.406803232669716" lon="12.939961213005455"><ele>244.0</ele><time>2026-04-26T16:05:49Z</time></trkpt><trkpt lat="43.40681835125469" lon="12.939811269688619"><ele>244.0</ele><time>2026-04-26T16:05:50Z</time></trkpt><trkpt lat="43.40684904017814" lon="12.93966648358321"><ele>242.0</ele><time>2026-04-26T16:05:51Z</time></trkpt><trkpt lat="43.40685767741095" lon="12.939506898777754"><ele>240.0</ele><time>2026-04-26T16:05:52Z</time></trkpt><trkpt lat="43.40686232950971" lon="12.93935131289981"><ele>238.0</ele><time>2026-04-26T16:05:53Z</time></trkpt><trkpt lat="43.40686068554637" lon="12.939188259856426"><ele>236.0</ele><time>2026-04-26T16:05:54Z</time></trkpt><trkpt lat="43.40685668322894" lon="12.939027142763166"><ele>234.25</ele><time>2026-04-26T16:05:55Z</time></trkpt><trkpt lat="43.40686497823984" lon="12.938861835270519"><ele>232.5</ele><time>2026-04-26T16:05:56Z</time></trkpt><trkpt lat="43.40686857107884" lon="12.938696913777681"><ele>230.75</ele><time>2026-04-26T16:05:57Z</time></trkpt><trkpt lat="43.40686654779092" lon="12.938532320453156"><ele>229.0</ele><time>2026-04-26T16:05:58Z</time></trkpt><trkpt lat="43.40686713323491" lon="12.938366002552694"><ele>229.0</ele><time>2026-04-26T16:05:59Z</time></trkpt><trkpt lat="43.406860349827795" lon="12.938201658679008"><ele>229.0</ele><time>2026-04-26T16:06:00Z</time></trkpt><trkpt lat="43.40685145911577" lon="12.938036493497872"><ele>229.0</ele><time>2026-04-26T16:06:01Z</time></trkpt><trkpt lat="43.40685955363572" lon="12.937856166489478"><ele>229.0</ele><time>2026-04-26T16:06:02Z</time></trkpt><trkpt lat="43.40679072860745" lon="12.9376953686574"><ele>229.75</ele><time>2026-04-26T16:06:03Z</time></trkpt><trkpt lat="43.406749928592305" lon="12.937540097214166"><ele>230.5</ele><time>2026-04-26T16:06:04Z</time></trkpt><trkpt lat="43.406698061125105" lon="12.937396400615809"><ele>231.25</ele><time>2026-04-26T16:06:05Z</time></trkpt><trkpt lat="43.4066512699718" lon="12.937243853632092"><ele>232.0</ele><time>2026-04-26T16:06:06Z</time></trkpt><trkpt lat="43.40663039918838" lon="12.937088117548825"><ele>232.0</ele><time>2026-04-26T16:06:07Z</time></trkpt><trkpt lat="43.40658594401576" lon="12.936949183307833"><ele>232.0</ele><time>2026-04-26T16:06:08Z</time></trkpt><trkpt lat="43.40653711708866" lon="12.936827181006677"><ele>232.0</ele><time>2026-04-26T16:06:09Z</time></trkpt><trkpt lat="43.40651038657528" lon="12.936696529292576"><ele>232.0</ele><time>2026-04-26T16:06:10Z</time></trkpt><trkpt lat="43.406506971487964" lon="12.936559214321457"><ele>232.0</ele><time>2026-04-26T16:06:11Z</time></trkpt><trkpt lat="43.40653773983313" lon="12.936413348372373"><ele>232.2</ele><time>2026-04-26T16:06:12Z</time></trkpt><trkpt lat="43.40659582473931" lon="12.936278275616276"><ele>232.39999999999998</ele><time>2026-04-26T16:06:13Z</time></trkpt><trkpt lat="43.40663671498292" lon="12.93614813938876"><ele>232.60000000000002</ele><time>2026-04-26T16:06:14Z</time></trkpt><trkpt lat="43.40668403980455" lon="12.93604616532095"><ele>232.8</ele><time>2026-04-26T16:06:15Z</time></trkpt><trkpt lat="43.406736706446885" lon="12.935961285110906"><ele>233.0</ele><time>2026-04-26T16:06:16Z</time></trkpt><trkpt lat="43.40680083045645" lon="12.935837487794041"><ele>232.50000000000003</ele><time>2026-04-26T16:06:18Z</time></trkpt><trkpt lat="43.40686844436378" lon="12.935738590525872"><ele>232.0</ele><time>2026-04-26T16:06:20Z</time></trkpt><trkpt lat="43.40692167802061" lon="12.93560339251953"><ele>231.5</ele><time>2026-04-26T16:06:22Z</time></trkpt><trkpt lat="43.40697864124933" lon="12.935508783267059"><ele>231.0</ele><time>2026-04-26T16:06:24Z</time></trkpt><trkpt lat="43.40702867922267" lon="12.935433132780394"><ele>230.50000000000003</ele><time>2026-04-26T16:06:42Z</time></trkpt><trkpt lat="43.407070398638844" lon="12.935355805125125"><ele>230.0</ele><time>2026-04-26T16:06:43Z</time></trkpt><trkpt lat="43.407130684810696" lon="12.935244366862563"><ele>230.25</ele><time>2026-04-26T16:06:44Z</time></trkpt><trkpt lat="43.40720183723979" lon="12.935113458387374"><ele>230.5</ele><time>2026-04-26T16:06:45Z</time></trkpt><trkpt lat="43.40727871770629" lon="12.934972374269133"><ele>230.75</ele><time>2026-04-26T16:06:46Z</time></trkpt><trkpt lat="43.40736052252378" lon="12.934822751196268"><ele>231.0</ele><time>2026-04-26T16:06:47Z</time></trkpt><trkpt lat="43.40744530383936" lon="12.934666130091491"><ele>231.0</ele><time>2026-04-26T16:06:48Z</time></trkpt><trkpt lat="43.40753172790295" lon="12.934504792724969"><ele>231.0</ele><time>2026-04-26T16:06:49Z</time></trkpt><trkpt lat="43.407621798819946" lon="12.934336329117471"><ele>231.0</ele><time>2026-04-26T16:06:50Z</time></trkpt><trkpt lat="43.40771280241955" lon="12.934165618834554"><ele>229.66666666666669</ele><time>2026-04-26T16:06:51Z</time></trkpt><trkpt lat="43.40780865584401" lon="12.933985811069613"><ele>228.33333333333334</ele><time>2026-04-26T16:06:52Z</time></trkpt><trkpt lat="43.40790521419402" lon="12.933804680920087"><ele>227.0</ele><time>2026-04-26T16:06:53Z</time></trkpt><trkpt lat="43.40799727448317" lon="12.933631992062208"><ele>227.0</ele><time>2026-04-26T16:06:54Z</time></trkpt><trkpt lat="43.408092855073335" lon="12.93345091787371"><ele>227.0</ele><time>2026-04-26T16:06:55Z</time></trkpt><trkpt lat="43.40819120487167" lon="12.933263421760916"><ele>227.0</ele><time>2026-04-26T16:06:56Z</time></trkpt><trkpt lat="43.40829341828645" lon="12.933066370074986"><ele>228.0</ele><time>2026-04-26T16:06:57Z</time></trkpt><trkpt lat="43.408389711445324" lon="12.932869051592728"><ele>229.0</ele><time>2026-04-26T16:06:58Z</time></trkpt><trkpt lat="43.40847679392348" lon="12.932660765812466"><ele>230.0</ele><time>2026-04-26T16:06:59Z</time></trkpt><trkpt lat="43.408560015562884" lon="12.932445758747628"><ele>234.0</ele><time>2026-04-26T16:07:00Z</time></trkpt><trkpt lat="43.40863797758889" lon="12.932226441787453"><ele>238.0</ele><time>2026-04-26T16:07:01Z</time></trkpt><trkpt lat="43.40871287605718" lon="12.932002984306706"><ele>242.0</ele><time>2026-04-26T16:07:02Z</time></trkpt><trkpt lat="43.40878949788146" lon="12.93176805248525"><ele>238.66666666666669</ele><time>2026-04-26T16:07:03Z</time></trkpt><trkpt lat="43.408855510488365" lon="12.931531469807457"><ele>235.33333333333331</ele><time>2026-04-26T16:07:04Z</time></trkpt><trkpt lat="43.408933959159235" lon="12.931301761551325"><ele>232.0</ele><time>2026-04-26T16:07:05Z</time></trkpt><trkpt lat="43.40900971588043" lon="12.931081113003694"><ele>234.33333333333331</ele><time>2026-04-26T16:07:06Z</time></trkpt><trkpt lat="43.40908906663148" lon="12.930865642802043"><ele>236.66666666666669</ele><time>2026-04-26T16:07:07Z</time></trkpt><trkpt lat="43.40918438999369" lon="12.93066553062793"><ele>239.0</ele><time>2026-04-26T16:07:08Z</time></trkpt><trkpt lat="43.40930319676663" lon="12.930481713620422"><ele>239.0</ele><time>2026-04-26T16:07:09Z</time></trkpt><trkpt lat="43.40942763329588" lon="12.930317930068398"><ele>239.0</ele><time>2026-04-26T16:07:10Z</time></trkpt><trkpt lat="43.40956404030717" lon="12.930170861661093"><ele>239.0</ele><time>2026-04-26T16:07:11Z</time></trkpt><trkpt lat="43.40971449246552" lon="12.930041634386088"><ele>238.33333333333334</ele><time>2026-04-26T16:07:12Z</time></trkpt><trkpt lat="43.409877150985885" lon="12.929929232939253"><ele>237.66666666666669</ele><time>2026-04-26T16:07:13Z</time></trkpt><trkpt lat="43.410053391535016" lon="12.929846599008595"><ele>237.0</ele><time>2026-04-26T16:07:14Z</time></trkpt><trkpt lat="43.41021907578595" lon="12.92973282324583"><ele>237.0</ele><time>2026-04-26T16:07:15Z</time></trkpt><trkpt lat="43.41038123763819" lon="12.929643652356734"><ele>237.0</ele><time>2026-04-26T16:07:16Z</time></trkpt><trkpt lat="43.41053119598416" lon="12.929577987925644"><ele>237.0</ele><time>2026-04-26T16:07:17Z</time></trkpt><trkpt lat="43.41068720439656" lon="12.929554636054705"><ele>235.33333333333331</ele><time>2026-04-26T16:07:18Z</time></trkpt><trkpt lat="43.410842834955865" lon="12.929517400456083"><ele>233.66666666666666</ele><time>2026-04-26T16:07:19Z</time></trkpt><trkpt lat="43.411021636534876" lon="12.929488881858639"><ele>232.0</ele><time>2026-04-26T16:07:20Z</time></trkpt><trkpt lat="43.4111789706543" lon="12.929417113020254"><ele>231.66666666666666</ele><time>2026-04-26T16:07:21Z</time></trkpt><trkpt lat="43.41134287064995" lon="12.929371260230289"><ele>231.33333333333331</ele><time>2026-04-26T16:07:22Z</time></trkpt><trkpt lat="43.411518164549264" lon="12.929367322037093"><ele>231.0</ele><time>2026-04-26T16:07:23Z</time></trkpt><trkpt lat="43.41169646125807" lon="12.929379392360802"><ele>231.0</ele><time>2026-04-26T16:07:24Z</time></trkpt><trkpt lat="43.411881067250604" lon="12.929403496971279"><ele>231.0</ele><time>2026-04-26T16:07:25Z</time></trkpt><trkpt lat="43.41207426951585" lon="12.929418025212797"><ele>231.0</ele><time>2026-04-26T16:07:26Z</time></trkpt><trkpt lat="43.412262537782254" lon="12.929409260694523"><ele>230.66666666666669</ele><time>2026-04-26T16:07:27Z</time></trkpt><trkpt lat="43.412452631174155" lon="12.92940854230473"><ele>230.33333333333334</ele><time>2026-04-26T16:07:28Z</time></trkpt><trkpt lat="43.412642142146716" lon="12.929440638811784"><ele>230.0</ele><time>2026-04-26T16:07:29Z</time></trkpt><trkpt lat="43.41283740099228" lon="12.929452976646598"><ele>230.33333333333334</ele><time>2026-04-26T16:07:30Z</time></trkpt><trkpt lat="43.413035659938274" lon="12.929465498002148"><ele>230.66666666666669</ele><time>2026-04-26T16:07:31Z</time></trkpt><trkpt lat="43.41322883596766" lon="12.929456273291636"><ele>231.0</ele><time>2026-04-26T16:07:32Z</time></trkpt><trkpt lat="43.413421763973595" lon="12.929498185361412"><ele>231.0</ele><time>2026-04-26T16:07:33Z</time></trkpt><trkpt lat="43.41360417623828" lon="12.929536314601295"><ele>231.0</ele><time>2026-04-26T16:07:34Z</time></trkpt><trkpt lat="43.413800027987705" lon="12.929596722465702"><ele>231.0</ele><time>2026-04-26T16:07:35Z</time></trkpt><trkpt lat="43.413991598684355" lon="12.929658721220468"><ele>232.33333333333331</ele><time>2026-04-26T16:07:36Z</time></trkpt><trkpt lat="43.41418582919016" lon="12.929722605126791"><ele>233.66666666666666</ele><time>2026-04-26T16:07:37Z</time></trkpt><trkpt lat="43.414382101066145" lon="12.929787041247144"><ele>235.0</ele><time>2026-04-26T16:07:38Z</time></trkpt><trkpt lat="43.414593232741296" lon="12.929856233600367"><ele>236.66666666666666</ele><time>2026-04-26T16:07:39Z</time></trkpt><trkpt lat="43.41480208593047" lon="12.92992174258048"><ele>238.33333333333331</ele><time>2026-04-26T16:07:40Z</time></trkpt><trkpt lat="43.4150162412445" lon="12.929986140586712"><ele>240.0</ele><time>2026-04-26T16:07:41Z</time></trkpt><trkpt lat="43.415223528240546" lon="12.930047952132961"><ele>237.0</ele><time>2026-04-26T16:07:42Z</time></trkpt><trkpt lat="43.415432287918954" lon="12.930108819762397"><ele>234.0</ele><time>2026-04-26T16:07:43Z</time></trkpt><trkpt lat="43.41564252487727" lon="12.930169329748443"><ele>231.0</ele><time>2026-04-26T16:07:44Z</time></trkpt><trkpt lat="43.41584964012055" lon="12.930226825434435"><ele>231.0</ele><time>2026-04-26T16:07:45Z</time></trkpt><trkpt lat="43.41605666733006" lon="12.930281942642281"><ele>231.0</ele><time>2026-04-26T16:07:46Z</time></trkpt><trkpt lat="43.416255391517815" lon="12.930327359724531"><ele>231.0</ele><time>2026-04-26T16:07:47Z</time></trkpt><trkpt lat="43.41646172163168" lon="12.930370435541557"><ele>231.33333333333331</ele><time>2026-04-26T16:07:48Z</time></trkpt><trkpt lat="43.416664594293906" lon="12.930412789504132"><ele>231.66666666666666</ele><time>2026-04-26T16:07:49Z</time></trkpt><trkpt lat="43.416865143826776" lon="12.930454658480327"><ele>232.0</ele><time>2026-04-26T16:07:50Z</time></trkpt><trkpt lat="43.41706618984392" lon="12.930495913208588"><ele>232.66666666666666</ele><time>2026-04-26T16:07:51Z</time></trkpt><trkpt lat="43.41726650835165" lon="12.930536576652074"><ele>233.33333333333331</ele><time>2026-04-26T16:07:52Z</time></trkpt><trkpt lat="43.417461855656654" lon="12.93057623096647"><ele>234.0</ele><time>2026-04-26T16:07:53Z</time></trkpt><trkpt lat="43.41765471110241" lon="12.93061615893126"><ele>234.0</ele><time>2026-04-26T16:07:54Z</time></trkpt><trkpt lat="43.41785211847124" lon="12.930657698437328"><ele>234.0</ele><time>2026-04-26T16:07:55Z</time></trkpt><trkpt lat="43.418047003446716" lon="12.930696393756623"><ele>234.0</ele><time>2026-04-26T16:07:56Z</time></trkpt><trkpt lat="43.4182519541618" lon="12.930736950076373"><ele>235.33333333333331</ele><time>2026-04-26T16:07:57Z</time></trkpt><trkpt lat="43.41844928951517" lon="12.930774594340336"><ele>236.66666666666666</ele><time>2026-04-26T16:07:58Z</time></trkpt><trkpt lat="43.418659088713724" lon="12.930811097442232"><ele>238.0</ele><time>2026-04-26T16:07:59Z</time></trkpt><trkpt lat="43.418861646865636" lon="12.930844344743486"><ele>239.66666666666666</ele><time>2026-04-26T16:08:00Z</time></trkpt><trkpt lat="43.41906156004391" lon="12.930874784955815"><ele>241.33333333333331</ele><time>2026-04-26T16:08:01Z</time></trkpt><trkpt lat="43.41925923747531" lon="12.930905939581008"><ele>243.0</ele><time>2026-04-26T16:08:02Z</time></trkpt><trkpt lat="43.41946767330842" lon="12.930939023351378"><ele>239.33333333333331</ele><time>2026-04-26T16:08:03Z</time></trkpt><trkpt lat="43.419675750864656" lon="12.93097182732815"><ele>235.66666666666666</ele><time>2026-04-26T16:08:04Z</time></trkpt><trkpt lat="43.41988299820174" lon="12.931004500393545"><ele>232.0</ele><time>2026-04-26T16:08:05Z</time></trkpt><trkpt lat="43.42010723484194" lon="12.931039851887267"><ele>232.0</ele><time>2026-04-26T16:08:06Z</time></trkpt><trkpt lat="43.42030846134091" lon="12.931071575760583"><ele>232.0</ele><time>2026-04-26T16:08:07Z</time></trkpt><trkpt lat="43.4205211275749" lon="12.93110539449689"><ele>232.0</ele><time>2026-04-26T16:08:08Z</time></trkpt><trkpt lat="43.42072032754842" lon="12.931137256090528"><ele>232.66666666666666</ele><time>2026-04-26T16:08:09Z</time></trkpt><trkpt lat="43.42092598127704" lon="12.931170150008255"><ele>233.33333333333331</ele><time>2026-04-26T16:08:10Z</time></trkpt><trkpt lat="43.421131035075" lon="12.931202949736113"><ele>234.0</ele><time>2026-04-26T16:08:11Z</time></trkpt><trkpt lat="43.42134354452783" lon="12.931236940243906"><ele>235.66666666666669</ele><time>2026-04-26T16:08:12Z</time></trkpt><trkpt lat="43.42155456535789" lon="12.931270692649296"><ele>237.33333333333334</ele><time>2026-04-26T16:08:13Z</time></trkpt><trkpt lat="43.42177219809454" lon="12.931303291888574"><ele>239.0</ele><time>2026-04-26T16:08:14Z</time></trkpt><trkpt lat="43.42197763152047" lon="12.93128699023483"><ele>240.0</ele><time>2026-04-26T16:08:15Z</time></trkpt><trkpt lat="43.422181986933815" lon="12.931325829446648"><ele>241.0</ele><time>2026-04-26T16:08:16Z</time></trkpt><trkpt lat="43.42238378502244" lon="12.931384404387204"><ele>242.0</ele><time>2026-04-26T16:08:17Z</time></trkpt><trkpt lat="43.42258035207509" lon="12.931455917282372"><ele>242.0</ele><time>2026-04-26T16:08:18Z</time></trkpt><trkpt lat="43.42277423107562" lon="12.931545341557136"><ele>242.0</ele><time>2026-04-26T16:08:19Z</time></trkpt><trkpt lat="43.42296432512089" lon="12.931633679586671"><ele>242.0</ele><time>2026-04-26T16:08:20Z</time></trkpt><trkpt lat="43.42315011608961" lon="12.931721043712093"><ele>239.66666666666669</ele><time>2026-04-26T16:08:21Z</time></trkpt><trkpt lat="43.42334317224024" lon="12.931820943301126"><ele>237.33333333333331</ele><time>2026-04-26T16:08:22Z</time></trkpt><trkpt lat="43.42352804547035" lon="12.93190095629863"><ele>235.0</ele><time>2026-04-26T16:08:23Z</time></trkpt><trkpt lat="43.423720193919934" lon="12.931991280146548"><ele>238.0</ele><time>2026-04-26T16:08:24Z</time></trkpt><trkpt lat="43.42390909328301" lon="12.932097518122498"><ele>241.0</ele><time>2026-04-26T16:08:25Z</time></trkpt><trkpt lat="43.424098182848894" lon="12.932214086849283"><ele>244.0</ele><time>2026-04-26T16:08:26Z</time></trkpt><trkpt lat="43.42428394803991" lon="12.932328825331705"><ele>244.0</ele><time>2026-04-26T16:08:27Z</time></trkpt><trkpt lat="43.42447692194768" lon="12.932450731844584"><ele>244.0</ele><time>2026-04-26T16:08:28Z</time></trkpt><trkpt lat="43.424668230306594" lon="12.932556013068167"><ele>244.0</ele><time>2026-04-26T16:08:29Z</time></trkpt><trkpt lat="43.42486432090855" lon="12.93263814379244"><ele>242.0</ele><time>2026-04-26T16:08:30Z</time></trkpt><trkpt lat="43.425063265144345" lon="12.932678733030873"><ele>240.0</ele><time>2026-04-26T16:08:31Z</time></trkpt><trkpt lat="43.425268552079764" lon="12.932682105909295"><ele>238.0</ele><time>2026-04-26T16:08:32Z</time></trkpt><trkpt lat="43.425471160999756" lon="12.932658179957908"><ele>238.0</ele><time>2026-04-26T16:08:33Z</time></trkpt><trkpt lat="43.42567215626903" lon="12.93260660036347"><ele>238.0</ele><time>2026-04-26T16:08:34Z</time></trkpt><trkpt lat="43.42586041287768" lon="12.932521506438968"><ele>238.0</ele><time>2026-04-26T16:08:35Z</time></trkpt><trkpt lat="43.42604893408071" lon="12.932469826031886"><ele>237.66666666666666</ele><time>2026-04-26T16:08:36Z</time></trkpt><trkpt lat="43.42622670695653" lon="12.932423780650334"><ele>237.33333333333331</ele><time>2026-04-26T16:08:37Z</time></trkpt><trkpt lat="43.42641187473026" lon="12.932385956979404"><ele>237.0</ele><time>2026-04-26T16:08:38Z</time></trkpt><trkpt lat="43.42659075545263" lon="12.932407252777534"><ele>237.0</ele><time>2026-04-26T16:08:39Z</time></trkpt><trkpt lat="43.42676440372157" lon="12.932453948440326"><ele>237.0</ele><time>2026-04-26T16:08:40Z</time></trkpt><trkpt lat="43.42693615716022" lon="12.9324899954782"><ele>237.0</ele><time>2026-04-26T16:08:41Z</time></trkpt><trkpt lat="43.427093786817785" lon="12.932522141017271"><ele>237.66666666666669</ele><time>2026-04-26T16:08:42Z</time></trkpt><trkpt lat="43.42724540858581" lon="12.932540689384153"><ele>238.33333333333334</ele><time>2026-04-26T16:08:43Z</time></trkpt><trkpt lat="43.42740102541226" lon="12.932520270735695"><ele>239.0</ele><time>2026-04-26T16:08:44Z</time></trkpt><trkpt lat="43.427552386331044" lon="12.932441713029606"><ele>239.0</ele><time>2026-04-26T16:08:45Z</time></trkpt><trkpt lat="43.427688917146156" lon="12.932316840719754"><ele>239.0</ele><time>2026-04-26T16:08:46Z</time></trkpt><trkpt lat="43.42781766155944" lon="12.932152544901141"><ele>239.0</ele><time>2026-04-26T16:08:47Z</time></trkpt><trkpt lat="43.42790454672289" lon="12.93197096541491"><ele>245.66666666666669</ele><time>2026-04-26T16:08:48Z</time></trkpt><trkpt lat="43.427982747992985" lon="12.931751615280495"><ele>252.33333333333331</ele><time>2026-04-26T16:08:49Z</time></trkpt><trkpt lat="43.42805159038685" lon="12.931528422099008"><ele>259.0</ele><time>2026-04-26T16:08:50Z</time></trkpt><trkpt lat="43.428120639792795" lon="12.93129657004252"><ele>259.0</ele><time>2026-04-26T16:08:51Z</time></trkpt><trkpt lat="43.428184126384735" lon="12.931047651582878"><ele>259.0</ele><time>2026-04-26T16:08:52Z</time></trkpt><trkpt lat="43.42824475763279" lon="12.930798242052866"><ele>259.0</ele><time>2026-04-26T16:08:53Z</time></trkpt><trkpt lat="43.42830664454461" lon="12.930552994438319"><ele>257.0</ele><time>2026-04-26T16:08:54Z</time></trkpt><trkpt lat="43.42837227195135" lon="12.930298400217877"><ele>255.0</ele><time>2026-04-26T16:08:55Z</time></trkpt><trkpt lat="43.42842867578841" lon="12.930032132171965"><ele>253.0</ele><time>2026-04-26T16:08:56Z</time></trkpt><trkpt lat="43.42846752857486" lon="12.9297727551276"><ele>250.66666666666666</ele><time>2026-04-26T16:08:57Z</time></trkpt><trkpt lat="43.42848693493418" lon="12.929504854381577"><ele>248.33333333333331</ele><time>2026-04-26T16:08:58Z</time></trkpt><trkpt lat="43.42847454807718" lon="12.929238710775008"><ele>246.0</ele><time>2026-04-26T16:08:59Z</time></trkpt><trkpt lat="43.42846618317365" lon="12.928964549248395"><ele>245.33333333333331</ele><time>2026-04-26T16:09:00Z</time></trkpt><trkpt lat="43.42845634906643" lon="12.92869033003049"><ele>244.66666666666666</ele><time>2026-04-26T16:09:01Z</time></trkpt><trkpt lat="43.428444681262924" lon="12.928412923513026"><ele>244.0</ele><time>2026-04-26T16:09:02Z</time></trkpt><trkpt lat="43.4284348541989" lon="12.928135758032527"><ele>244.0</ele><time>2026-04-26T16:09:03Z</time></trkpt><trkpt lat="43.428423812634755" lon="12.927854580364645"><ele>244.0</ele><time>2026-04-26T16:09:04Z</time></trkpt><trkpt lat="43.42840798273451" lon="12.927572451777081"><ele>244.0</ele><time>2026-04-26T16:09:05Z</time></trkpt><trkpt lat="43.42839318476857" lon="12.927299315072858"><ele>244.33333333333331</ele><time>2026-04-26T16:09:06Z</time></trkpt><trkpt lat="43.42837852538287" lon="12.92702979977545"><ele>244.66666666666669</ele><time>2026-04-26T16:09:07Z</time></trkpt><trkpt lat="43.42836433283556" lon="12.926761149208277"><ele>245.0</ele><time>2026-04-26T16:09:08Z</time></trkpt><trkpt lat="43.428347531707246" lon="12.926492688016038"><ele>245.66666666666669</ele><time>2026-04-26T16:09:09Z</time></trkpt><trkpt lat="43.42833274224863" lon="12.926225335176577"><ele>246.33333333333331</ele><time>2026-04-26T16:09:10Z</time></trkpt><trkpt lat="43.4283213396286" lon="12.925957055144853"><ele>247.0</ele><time>2026-04-26T16:09:11Z</time></trkpt><trkpt lat="43.42830663630213" lon="12.925689070765792"><ele>247.0</ele><time>2026-04-26T16:09:12Z</time></trkpt><trkpt lat="43.42829767080829" lon="12.925423151797768"><ele>247.0</ele><time>2026-04-26T16:09:13Z</time></trkpt><trkpt lat="43.4282833926801" lon="12.925154318021644"><ele>247.0</ele><time>2026-04-26T16:09:14Z</time></trkpt><trkpt lat="43.42827365515604" lon="12.92487904673535"><ele>247.0</ele><time>2026-04-26T16:09:15Z</time></trkpt><trkpt lat="43.42826072725464" lon="12.924601783681357"><ele>247.0</ele><time>2026-04-26T16:09:16Z</time></trkpt><trkpt lat="43.428246421528875" lon="12.924320822909605"><ele>247.0</ele><time>2026-04-26T16:09:17Z</time></trkpt><trkpt lat="43.42822826750785" lon="12.924040466489798"><ele>247.66666666666666</ele><time>2026-04-26T16:09:18Z</time></trkpt><trkpt lat="43.42822398032065" lon="12.92376211127098"><ele>248.33333333333331</ele><time>2026-04-26T16:09:19Z</time></trkpt><trkpt lat="43.428212840410545" lon="12.92348144917808"><ele>249.0</ele><time>2026-04-26T16:09:20Z</time></trkpt><trkpt lat="43.42819885937112" lon="12.92320066222494"><ele>250.66666666666669</ele><time>2026-04-26T16:09:21Z</time></trkpt><trkpt lat="43.42817713976215" lon="12.922918953965276"><ele>252.33333333333334</ele><time>2026-04-26T16:09:22Z</time></trkpt><trkpt lat="43.42816486176551" lon="12.922645119293705"><ele>254.0</ele><time>2026-04-26T16:09:23Z</time></trkpt><trkpt lat="43.4281323789256" lon="12.922366878589115"><ele>256.33333333333337</ele><time>2026-04-26T16:09:24Z</time></trkpt><trkpt lat="43.42809395512368" lon="12.922095687277677"><ele>258.6666666666667</ele><time>2026-04-26T16:09:25Z</time></trkpt><trkpt lat="43.42804205969867" lon="12.921827976181195"><ele>261.0</ele><time>2026-04-26T16:09:26Z</time></trkpt><trkpt lat="43.427967779032585" lon="12.921571903786583"><ele>257.0</ele><time>2026-04-26T16:09:27Z</time></trkpt><trkpt lat="43.427925701892626" lon="12.92132231285129"><ele>253.0</ele><time>2026-04-26T16:09:28Z</time></trkpt><trkpt lat="43.42785416897764" lon="12.921075504040306"><ele>249.0</ele><time>2026-04-26T16:09:29Z</time></trkpt><trkpt lat="43.427775652859076" lon="12.920842815700793"><ele>249.0</ele><time>2026-04-26T16:09:30Z</time></trkpt><trkpt lat="43.427686275943536" lon="12.920630329526464"><ele>249.0</ele><time>2026-04-26T16:09:31Z</time></trkpt><trkpt lat="43.42760701701173" lon="12.920405121640238"><ele>249.0</ele><time>2026-04-26T16:09:32Z</time></trkpt><trkpt lat="43.42752750325644" lon="12.920174850872755"><ele>250.66666666666669</ele><time>2026-04-26T16:09:33Z</time></trkpt><trkpt lat="43.42746566031604" lon="12.919942584855034"><ele>252.33333333333334</ele><time>2026-04-26T16:09:34Z</time></trkpt><trkpt lat="43.42741959466363" lon="12.91970180097645"><ele>254.0</ele><time>2026-04-26T16:09:35Z</time></trkpt><trkpt lat="43.42741408837038" lon="12.91945908612413"><ele>255.0</ele><time>2026-04-26T16:09:36Z</time></trkpt><trkpt lat="43.42740328957143" lon="12.919221718838807"><ele>256.0</ele><time>2026-04-26T16:09:37Z</time></trkpt><trkpt lat="43.427395067723374" lon="12.918980495719927"><ele>257.0</ele><time>2026-04-26T16:09:38Z</time></trkpt><trkpt lat="43.42738666855374" lon="12.918734070156054"><ele>257.0</ele><time>2026-04-26T16:09:39Z</time></trkpt><trkpt lat="43.42737842137456" lon="12.918492680226594"><ele>257.0</ele><time>2026-04-26T16:09:40Z</time></trkpt><trkpt lat="43.427366798414155" lon="12.918249812188925"><ele>257.0</ele><time>2026-04-26T16:09:41Z</time></trkpt><trkpt lat="43.42735135434998" lon="12.91800862323615"><ele>260.0</ele><time>2026-04-26T16:09:42Z</time></trkpt><trkpt lat="43.42733143128529" lon="12.917768685791142"><ele>263.0</ele><time>2026-04-26T16:09:43Z</time></trkpt><trkpt lat="43.42730636431914" lon="12.917528172128636"><ele>266.0</ele><time>2026-04-26T16:09:44Z</time></trkpt><trkpt lat="43.42727288818548" lon="12.91729001860933"><ele>269.33333333333337</ele><time>2026-04-26T16:09:45Z</time></trkpt><trkpt lat="43.427239542292284" lon="12.917062605324489"><ele>272.6666666666667</ele><time>2026-04-26T16:09:46Z</time></trkpt><trkpt lat="43.427210214414835" lon="12.916824510466013"><ele>276.0</ele><time>2026-04-26T16:09:47Z</time></trkpt><trkpt lat="43.42719175889124" lon="12.916587780155751"><ele>277.0</ele><time>2026-04-26T16:09:48Z</time></trkpt><trkpt lat="43.427183452676886" lon="12.916349056119314"><ele>278.0</ele><time>2026-04-26T16:09:49Z</time></trkpt><trkpt lat="43.427196314963915" lon="12.916107415205333"><ele>279.0</ele><time>2026-04-26T16:09:50Z</time></trkpt><trkpt lat="43.427214456745446" lon="12.915864767829515"><ele>277.0</ele><time>2026-04-26T16:09:51Z</time></trkpt><trkpt lat="43.42727217243296" lon="12.915638105546531"><ele>275.0</ele><time>2026-04-26T16:09:52Z</time></trkpt><trkpt lat="43.427338833692104" lon="12.91542696529627"><ele>273.0</ele><time>2026-04-26T16:09:53Z</time></trkpt><trkpt lat="43.42743232003815" lon="12.915238821358308"><ele>268.0</ele><time>2026-04-26T16:09:54Z</time></trkpt><trkpt lat="43.427529270109964" lon="12.915055933013903"><ele>263.0</ele><time>2026-04-26T16:09:55Z</time></trkpt><trkpt lat="43.42764152645114" lon="12.914893840326563"><ele>258.0</ele><time>2026-04-26T16:09:56Z</time></trkpt><trkpt lat="43.427760494004644" lon="12.914751659228745"><ele>258.0</ele><time>2026-04-26T16:09:57Z</time></trkpt><trkpt lat="43.427878019392956" lon="12.914596818597692"><ele>258.0</ele><time>2026-04-26T16:09:58Z</time></trkpt><trkpt lat="43.428012664051344" lon="12.914477024652598"><ele>258.0</ele><time>2026-04-26T16:09:59Z</time></trkpt><trkpt lat="43.428161314675386" lon="12.914390179588466"><ele>258.6666666666667</ele><time>2026-04-26T16:10:00Z</time></trkpt><trkpt lat="43.428309600081384" lon="12.914292618373985"><ele>259.33333333333337</ele><time>2026-04-26T16:10:01Z</time></trkpt><trkpt lat="43.428459367698075" lon="12.914193127880722"><ele>260.0</ele><time>2026-04-26T16:10:02Z</time></trkpt><trkpt lat="43.42861252279206" lon="12.914091115680662"><ele>260.0</ele><time>2026-04-26T16:10:03Z</time></trkpt><trkpt lat="43.428757632127926" lon="12.913972595078636"><ele>260.0</ele><time>2026-04-26T16:10:04Z</time></trkpt><trkpt lat="43.42891987524973" lon="12.913885921854451"><ele>260.0</ele><time>2026-04-26T16:10:05Z</time></trkpt><trkpt lat="43.42907476051067" lon="12.91378263321542"><ele>263.6666666666667</ele><time>2026-04-26T16:10:06Z</time></trkpt><trkpt lat="43.42923471548344" lon="12.91367607654899"><ele>267.3333333333333</ele><time>2026-04-26T16:10:07Z</time></trkpt><trkpt lat="43.42939367074836" lon="12.913570185845696"><ele>271.0</ele><time>2026-04-26T16:10:08Z</time></trkpt><trkpt lat="43.42955176264565" lon="12.913464870296718"><ele>269.66666666666663</ele><time>2026-04-26T16:10:09Z</time></trkpt><trkpt lat="43.42970813248602" lon="12.913350601344755"><ele>268.3333333333333</ele><time>2026-04-26T16:10:10Z</time></trkpt><trkpt lat="43.429860317281694" lon="12.913226620731045"><ele>267.0</ele><time>2026-04-26T16:10:11Z</time></trkpt><trkpt lat="43.430005411764" lon="12.913096884400069"><ele>267.0</ele><time>2026-04-26T16:10:12Z</time></trkpt><trkpt lat="43.4301424881565" lon="12.912948394428994"><ele>267.0</ele><time>2026-04-26T16:10:13Z</time></trkpt><trkpt lat="43.43027066855694" lon="12.91278691888639"><ele>267.0</ele><time>2026-04-26T16:10:14Z</time></trkpt><trkpt lat="43.430389324738485" lon="12.91262007134116"><ele>269.0</ele><time>2026-04-26T16:10:15Z</time></trkpt><trkpt lat="43.43050146758148" lon="12.91243514294237"><ele>271.0</ele><time>2026-04-26T16:10:16Z</time></trkpt><trkpt lat="43.4306068885971" lon="12.912242515060658"><ele>273.0</ele><time>2026-04-26T16:10:17Z</time></trkpt><trkpt lat="43.430708251860956" lon="12.912041757133299"><ele>273.0</ele><time>2026-04-26T16:10:18Z</time></trkpt><trkpt lat="43.43080273736256" lon="12.911841720194468"><ele>273.0</ele><time>2026-04-26T16:10:19Z</time></trkpt><trkpt lat="43.43089251117127" lon="12.911645121070924"><ele>273.0</ele><time>2026-04-26T16:10:20Z</time></trkpt><trkpt lat="43.43098126735358" lon="12.911450833733374"><ele>268.6666666666667</ele><time>2026-04-26T16:10:21Z</time></trkpt><trkpt lat="43.43107210921521" lon="12.911252414827299"><ele>264.33333333333337</ele><time>2026-04-26T16:10:22Z</time></trkpt><trkpt lat="43.43115917787843" lon="12.91106223742013"><ele>260.0</ele><time>2026-04-26T16:10:23Z</time></trkpt><trkpt lat="43.43124472321518" lon="12.91087538730428"><ele>264.0</ele><time>2026-04-26T16:10:24Z</time></trkpt><trkpt lat="43.431330211989156" lon="12.910688660728487"><ele>268.0</ele><time>2026-04-26T16:10:25Z</time></trkpt><trkpt lat="43.431415420854435" lon="12.910503958810683"><ele>272.0</ele><time>2026-04-26T16:10:26Z</time></trkpt><trkpt lat="43.43150202766482" lon="12.910318120136532"><ele>272.0</ele><time>2026-04-26T16:10:27Z</time></trkpt><trkpt lat="43.43158980879536" lon="12.910132109038738"><ele>272.0</ele><time>2026-04-26T16:10:28Z</time></trkpt><trkpt lat="43.43168362343551" lon="12.909952845887226"><ele>272.0</ele><time>2026-04-26T16:10:29Z</time></trkpt><trkpt lat="43.43179266734879" lon="12.90978544683277"><ele>272.0</ele><time>2026-04-26T16:10:30Z</time></trkpt><trkpt lat="43.43191063749309" lon="12.909633442232398"><ele>272.0</ele><time>2026-04-26T16:10:31Z</time></trkpt><trkpt lat="43.43203470128402" lon="12.90950533799222"><ele>272.0</ele><time>2026-04-26T16:10:32Z</time></trkpt><trkpt lat="43.43216412319268" lon="12.909388221637265"><ele>272.0</ele><time>2026-04-26T16:10:33Z</time></trkpt><trkpt lat="43.43228817387066" lon="12.90927861576008"><ele>272.0</ele><time>2026-04-26T16:10:34Z</time></trkpt><trkpt lat="43.43240823549912" lon="12.909173362844449"><ele>272.0</ele><time>2026-04-26T16:10:35Z</time></trkpt><trkpt lat="43.43252415508809" lon="12.909071741101513"><ele>272.0</ele><time>2026-04-26T16:10:36Z</time></trkpt><trkpt lat="43.43264409419017" lon="12.908967925397882"><ele>270.75</ele><time>2026-04-26T16:10:37Z</time></trkpt><trkpt lat="43.4327639342549" lon="12.90886406035626"><ele>269.5</ele><time>2026-04-26T16:10:38Z</time></trkpt><trkpt lat="43.432887284524256" lon="12.908756867790542"><ele>268.25</ele><time>2026-04-26T16:10:39Z</time></trkpt><trkpt lat="43.433013168827166" lon="12.908647473260743"><ele>267.0</ele><time>2026-04-26T16:10:40Z</time></trkpt><trkpt lat="43.43314275328199" lon="12.908535522381188"><ele>265.0</ele><time>2026-04-26T16:10:41Z</time></trkpt><trkpt lat="43.43326506504777" lon="12.908406412943819"><ele>263.0</ele><time>2026-04-26T16:10:42Z</time></trkpt><trkpt lat="43.4334075500512" lon="12.908305946669369"><ele>261.0</ele><time>2026-04-26T16:10:43Z</time></trkpt><trkpt lat="43.4335458651126" lon="12.908185804400103"><ele>261.0</ele><time>2026-04-26T16:10:44Z</time></trkpt><trkpt lat="43.43368246425332" lon="12.908044419409448"><ele>261.0</ele><time>2026-04-26T16:10:45Z</time></trkpt><trkpt lat="43.43382880089823" lon="12.90793560687252"><ele>261.0</ele><time>2026-04-26T16:10:46Z</time></trkpt><trkpt lat="43.433951796407506" lon="12.907800504226671"><ele>260.3333333333333</ele><time>2026-04-26T16:10:47Z</time></trkpt><trkpt lat="43.434098418926176" lon="12.907691152376431"><ele>259.66666666666663</ele><time>2026-04-26T16:10:48Z</time></trkpt><trkpt lat="43.434238109400084" lon="12.907561875216647"><ele>259.0</ele><time>2026-04-26T16:10:49Z</time></trkpt><trkpt lat="43.43437793682433" lon="12.907430847529698"><ele>259.0</ele><time>2026-04-26T16:10:50Z</time></trkpt><trkpt lat="43.43451717931686" lon="12.90730036796117"><ele>259.0</ele><time>2026-04-26T16:10:51Z</time></trkpt><trkpt lat="43.43465733770095" lon="12.907169030141198"><ele>259.0</ele><time>2026-04-26T16:10:52Z</time></trkpt><trkpt lat="43.43479761741268" lon="12.907037578629676"><ele>259.3333333333333</ele><time>2026-04-26T16:10:53Z</time></trkpt><trkpt lat="43.43493794255464" lon="12.906905428453966"><ele>259.6666666666667</ele><time>2026-04-26T16:10:54Z</time></trkpt><trkpt lat="43.43507069178379" lon="12.906756809619877"><ele>260.0</ele><time>2026-04-26T16:10:55Z</time></trkpt><trkpt lat="43.435212786307446" lon="12.906624106581594"><ele>260.0</ele><time>2026-04-26T16:10:56Z</time></trkpt><trkpt lat="43.435354708806265" lon="12.906493342168018"><ele>260.0</ele><time>2026-04-26T16:10:57Z</time></trkpt><trkpt lat="43.43549822809935" lon="12.906362486421061"><ele>260.0</ele><time>2026-04-26T16:10:58Z</time></trkpt><trkpt lat="43.43564170188932" lon="12.90622129836613"><ele>260.6666666666667</ele><time>2026-04-26T16:10:59Z</time></trkpt><trkpt lat="43.43578008754466" lon="12.906070981830558"><ele>261.3333333333333</ele><time>2026-04-26T16:11:00Z</time></trkpt><trkpt lat="43.435919564270726" lon="12.90591818470279"><ele>262.0</ele><time>2026-04-26T16:11:01Z</time></trkpt><trkpt lat="43.43606101181399" lon="12.905762140235485"><ele>262.0</ele><time>2026-04-26T16:11:02Z</time></trkpt><trkpt lat="43.43620040611443" lon="12.905601654253024"><ele>262.0</ele><time>2026-04-26T16:11:03Z</time></trkpt><trkpt lat="43.436339946532286" lon="12.905433218934261"><ele>262.0</ele><time>2026-04-26T16:11:04Z</time></trkpt><trkpt lat="43.436481998227364" lon="12.905264670234669"><ele>262.3333333333333</ele><time>2026-04-26T16:11:05Z</time></trkpt><trkpt lat="43.43662449683621" lon="12.90510012063375"><ele>262.6666666666667</ele><time>2026-04-26T16:11:06Z</time></trkpt><trkpt lat="43.4367684059219" lon="12.904930986800874"><ele>263.0</ele><time>2026-04-26T16:11:07Z</time></trkpt><trkpt lat="43.436913835867905" lon="12.904759836321395"><ele>263.0</ele><time>2026-04-26T16:11:08Z</time></trkpt><trkpt lat="43.43706009317369" lon="12.904587524779137"><ele>263.0</ele><time>2026-04-26T16:11:09Z</time></trkpt><trkpt lat="43.437207109037494" lon="12.904417112262157"><ele>263.0</ele><time>2026-04-26T16:11:10Z</time></trkpt><trkpt lat="43.437354597511295" lon="12.904242701097356"><ele>263.0</ele><time>2026-04-26T16:11:11Z</time></trkpt><trkpt lat="43.43750087664905" lon="12.904069539241277"><ele>263.0</ele><time>2026-04-26T16:11:12Z</time></trkpt><trkpt lat="43.437646221918726" lon="12.903899860212867"><ele>263.0</ele><time>2026-04-26T16:11:13Z</time></trkpt><trkpt lat="43.43779029381977" lon="12.903734118460383"><ele>263.0</ele><time>2026-04-26T16:11:14Z</time></trkpt><trkpt lat="43.437928363861865" lon="12.903569860343843"><ele>263.0</ele><time>2026-04-26T16:11:15Z</time></trkpt><trkpt lat="43.438060998758154" lon="12.903410754237795"><ele>263.0</ele><time>2026-04-26T16:11:16Z</time></trkpt><trkpt lat="43.43819509435362" lon="12.903248565622187"><ele>263.33333333333337</ele><time>2026-04-26T16:11:17Z</time></trkpt><trkpt lat="43.43833067918899" lon="12.903094803609406"><ele>263.6666666666667</ele><time>2026-04-26T16:11:18Z</time></trkpt><trkpt lat="43.43846436012979" lon="12.902937307387841"><ele>264.0</ele><time>2026-04-26T16:11:19Z</time></trkpt><trkpt lat="43.43860095165299" lon="12.90277426178947"><ele>264.0</ele><time>2026-04-26T16:11:20Z</time></trkpt><trkpt lat="43.43874031982133" lon="12.902614357501244"><ele>264.0</ele><time>2026-04-26T16:11:21Z</time></trkpt><trkpt lat="43.438882230702106" lon="12.902455787489634"><ele>264.0</ele><time>2026-04-26T16:11:22Z</time></trkpt><trkpt lat="43.43903007046046" lon="12.902294263962377"><ele>263.0</ele><time>2026-04-26T16:11:23Z</time></trkpt><trkpt lat="43.43918047132762" lon="12.902128804116094"><ele>262.0</ele><time>2026-04-26T16:11:24Z</time></trkpt><trkpt lat="43.43932883453103" lon="12.901959945817406"><ele>261.0</ele><time>2026-04-26T16:11:25Z</time></trkpt><trkpt lat="43.439479311724284" lon="12.901786010278926"><ele>260.6666666666667</ele><time>2026-04-26T16:11:26Z</time></trkpt><trkpt lat="43.43962629864642" lon="12.901605930468671"><ele>260.33333333333337</ele><time>2026-04-26T16:11:27Z</time></trkpt><trkpt lat="43.43975577485338" lon="12.901396034647433"><ele>260.0</ele><time>2026-04-26T16:11:28Z</time></trkpt><trkpt lat="43.439882481304736" lon="12.901174939658501"><ele>260.0</ele><time>2026-04-26T16:11:29Z</time></trkpt><trkpt lat="43.439977490471826" lon="12.900928946883313"><ele>260.0</ele><time>2026-04-26T16:11:30Z</time></trkpt><trkpt lat="43.44008840418214" lon="12.900694711568512"><ele>260.0</ele><time>2026-04-26T16:11:31Z</time></trkpt><trkpt lat="43.44019554469974" lon="12.900450902419793"><ele>259.33333333333337</ele><time>2026-04-26T16:11:32Z</time></trkpt><trkpt lat="43.44031736884759" lon="12.900224770659614"><ele>258.6666666666667</ele><time>2026-04-26T16:11:33Z</time></trkpt><trkpt lat="43.44042574765195" lon="12.899990052102305"><ele>258.0</ele><time>2026-04-26T16:11:34Z</time></trkpt><trkpt lat="43.44053365196827" lon="12.89975860962568"><ele>259.0</ele><time>2026-04-26T16:11:35Z</time></trkpt><trkpt lat="43.44063950597673" lon="12.899532804700675"><ele>260.0</ele><time>2026-04-26T16:11:36Z</time></trkpt><trkpt lat="43.44074478603451" lon="12.899306931664235"><ele>261.0</ele><time>2026-04-26T16:11:37Z</time></trkpt><trkpt lat="43.44087031483213" lon="12.899109736286313"><ele>261.0</ele><time>2026-04-26T16:11:38Z</time></trkpt><trkpt lat="43.440998485028466" lon="12.898925835298021"><ele>261.0</ele><time>2026-04-26T16:11:39Z</time></trkpt><trkpt lat="43.44112719180383" lon="12.898741779406757"><ele>261.0</ele><time>2026-04-26T16:11:40Z</time></trkpt><trkpt lat="43.44125417165488" lon="12.89855925971718"><ele>262.3333333333333</ele><time>2026-04-26T16:11:41Z</time></trkpt><trkpt lat="43.44138485657299" lon="12.898371788524372"><ele>263.66666666666663</ele><time>2026-04-26T16:11:42Z</time></trkpt><trkpt lat="43.44151908729979" lon="12.898196112942891"><ele>265.0</ele><time>2026-04-26T16:11:43Z</time></trkpt><trkpt lat="43.44165967416049" lon="12.898020166095653"><ele>265.0</ele><time>2026-04-26T16:11:44Z</time></trkpt><trkpt lat="43.441807416742016" lon="12.897860361961206"><ele>265.0</ele><time>2026-04-26T16:11:45Z</time></trkpt><trkpt lat="43.44195341105862" lon="12.897699730733896"><ele>265.0</ele><time>2026-04-26T16:11:46Z</time></trkpt><trkpt lat="43.44209513856162" lon="12.897538937629232"><ele>266.66666666666663</ele><time>2026-04-26T16:11:47Z</time></trkpt><trkpt lat="43.44224307389685" lon="12.897379542943623"><ele>268.3333333333333</ele><time>2026-04-26T16:11:48Z</time></trkpt><trkpt lat="43.44238431325549" lon="12.89721846393123"><ele>270.0</ele><time>2026-04-26T16:11:49Z</time></trkpt><trkpt lat="43.442528414546636" lon="12.89707097408143"><ele>270.0</ele><time>2026-04-26T16:11:50Z</time></trkpt><trkpt lat="43.44266335281524" lon="12.896921068739735"><ele>270.0</ele><time>2026-04-26T16:11:51Z</time></trkpt><trkpt lat="43.442800091232904" lon="12.896776654974353"><ele>270.0</ele><time>2026-04-26T16:11:52Z</time></trkpt><trkpt lat="43.44292950518237" lon="12.89662391468731"><ele>273.0</ele><time>2026-04-26T16:11:53Z</time></trkpt><trkpt lat="43.44305482298783" lon="12.896469004069743"><ele>276.0</ele><time>2026-04-26T16:11:54Z</time></trkpt><trkpt lat="43.44315711693425" lon="12.896280750582356"><ele>279.0</ele><time>2026-04-26T16:11:55Z</time></trkpt><trkpt lat="43.44323590197967" lon="12.896090083074164"><ele>277.25</ele><time>2026-04-26T16:11:56Z</time></trkpt><trkpt lat="43.44328626646601" lon="12.89590993241919"><ele>275.5</ele><time>2026-04-26T16:11:57Z</time></trkpt><trkpt lat="43.44331161608676" lon="12.895723865988858"><ele>273.75</ele><time>2026-04-26T16:11:58Z</time></trkpt><trkpt lat="43.44333793109758" lon="12.895508719624152"><ele>272.0</ele><time>2026-04-26T16:11:59Z</time></trkpt><trkpt lat="43.4433548214601" lon="12.8953273704663"><ele>272.0</ele><time>2026-04-26T16:12:00Z</time></trkpt><trkpt lat="43.44337084961817" lon="12.89516736667408"><ele>272.0</ele><time>2026-04-26T16:12:01Z</time></trkpt><trkpt lat="43.44337693578315" lon="12.895013327933885"><ele>272.0</ele><time>2026-04-26T16:12:02Z</time></trkpt><trkpt lat="43.44340122618692" lon="12.894883120718054"><ele>272.0</ele><time>2026-04-26T16:12:03Z</time></trkpt><trkpt lat="43.44341731195283" lon="12.894718514788353"><ele>272.0</ele><time>2026-04-26T16:12:04Z</time></trkpt><trkpt lat="43.44341226487191" lon="12.894615299660915"><ele>271.6666666666667</ele><time>2026-04-26T16:12:05Z</time></trkpt><trkpt lat="43.44342442506195" lon="12.894479060952733"><ele>271.33333333333337</ele><time>2026-04-26T16:12:07Z</time></trkpt><trkpt lat="43.443424180250446" lon="12.89437815396704"><ele>271.0</ele><time>2026-04-26T16:12:10Z</time></trkpt><trkpt lat="43.44343653851856" lon="12.894283977822028"><ele>270.6666666666667</ele><time>2026-04-26T16:12:14Z</time></trkpt><trkpt lat="43.44339457372523" lon="12.894191827824272"><ele>270.3333333333333</ele><time>2026-04-26T16:13:00Z</time></trkpt><trkpt lat="43.44329692375676" lon="12.894183526744646"><ele>270.0</ele><time>2026-04-26T16:13:02Z</time></trkpt><trkpt lat="43.44317099121154" lon="12.894167930375135"><ele>270.0</ele><time>2026-04-26T16:13:04Z</time></trkpt><trkpt lat="43.44310089140734" lon="12.894120311486262"><ele>270.0</ele><time>2026-04-26T16:13:05Z</time></trkpt><trkpt lat="43.44300490765927" lon="12.894104937314653"><ele>270.0</ele><time>2026-04-26T16:13:06Z</time></trkpt><trkpt lat="43.442912681733404" lon="12.89407398462987"><ele>270.0</ele><time>2026-04-26T16:13:07Z</time></trkpt><trkpt lat="43.44281218164593" lon="12.89405295758648"><ele>270.0</ele><time>2026-04-26T16:13:08Z</time></trkpt><trkpt lat="43.44271276941123" lon="12.893979827982893"><ele>269.75</ele><time>2026-04-26T16:13:09Z</time></trkpt><trkpt lat="43.44259750143212" lon="12.893946355579708"><ele>269.5</ele><time>2026-04-26T16:13:10Z</time></trkpt><trkpt lat="43.44247982492302" lon="12.893926724522249"><ele>269.25</ele><time>2026-04-26T16:13:11Z</time></trkpt><trkpt lat="43.44236861729657" lon="12.893883399351385"><ele>269.0</ele><time>2026-04-26T16:13:12Z</time></trkpt><trkpt lat="43.44225255178902" lon="12.893825985385936"><ele>269.0</ele><time>2026-04-26T16:13:13Z</time></trkpt><trkpt lat="43.44213876550194" lon="12.893834639627315"><ele>269.0</ele><time>2026-04-26T16:13:14Z</time></trkpt><trkpt lat="43.44202854038221" lon="12.89379161004433"><ele>269.0</ele><time>2026-04-26T16:13:15Z</time></trkpt><trkpt lat="43.441917799552726" lon="12.893747608234284"><ele>269.0</ele><time>2026-04-26T16:13:16Z</time></trkpt><trkpt lat="43.44180908241746" lon="12.893706979922682"><ele>269.5</ele><time>2026-04-26T16:13:17Z</time></trkpt><trkpt lat="43.44171988235562" lon="12.893632762545224"><ele>270.0</ele><time>2026-04-26T16:13:18Z</time></trkpt><trkpt lat="43.44161399102533" lon="12.893552777308086"><ele>270.5</ele><time>2026-04-26T16:13:19Z</time></trkpt><trkpt lat="43.44152330134012" lon="12.893440324749863"><ele>271.0</ele><time>2026-04-26T16:13:20Z</time></trkpt><trkpt lat="43.44140240634151" lon="12.893315137230166"><ele>272.25</ele><time>2026-04-26T16:13:21Z</time></trkpt><trkpt lat="43.441310265969534" lon="12.893170912006632"><ele>273.5</ele><time>2026-04-26T16:13:22Z</time></trkpt><trkpt lat="43.441280351121726" lon="12.893046616223483"><ele>274.75</ele><time>2026-04-26T16:13:23Z</time></trkpt><trkpt lat="43.44122507028785" lon="12.89288452853582"><ele>276.0</ele><time>2026-04-26T16:13:24Z</time></trkpt><trkpt lat="43.44118201209598" lon="12.892712827136858"><ele>276.25</ele><time>2026-04-26T16:13:25Z</time></trkpt><trkpt lat="43.44113496880004" lon="12.892539406346774"><ele>276.5</ele><time>2026-04-26T16:13:26Z</time></trkpt><trkpt lat="43.44107881998638" lon="12.892362799603228"><ele>276.75</ele><time>2026-04-26T16:13:27Z</time></trkpt><trkpt lat="43.44101059563856" lon="12.892170752758748"><ele>277.0</ele><time>2026-04-26T16:13:28Z</time></trkpt><trkpt lat="43.44093868505027" lon="12.891968956103259"><ele>277.0</ele><time>2026-04-26T16:13:29Z</time></trkpt><trkpt lat="43.44086618405929" lon="12.891767942919566"><ele>277.0</ele><time>2026-04-26T16:13:30Z</time></trkpt><trkpt lat="43.440790303751044" lon="12.891551792359135"><ele>277.0</ele><time>2026-04-26T16:13:31Z</time></trkpt><trkpt lat="43.440710459101226" lon="12.891316966558371"><ele>276.3333333333333</ele><time>2026-04-26T16:13:32Z</time></trkpt><trkpt lat="43.44063391285594" lon="12.891087440177346"><ele>275.6666666666667</ele><time>2026-04-26T16:13:33Z</time></trkpt><trkpt lat="43.440548178976265" lon="12.890853017881213"><ele>275.0</ele><time>2026-04-26T16:13:34Z</time></trkpt><trkpt lat="43.44046428011128" lon="12.89062412817508"><ele>274.33333333333337</ele><time>2026-04-26T16:13:35Z</time></trkpt><trkpt lat="43.44039106020171" lon="12.890392634412686"><ele>273.6666666666667</ele><time>2026-04-26T16:13:36Z</time></trkpt><trkpt lat="43.440313723305266" lon="12.890158153526022"><ele>273.0</ele><time>2026-04-26T16:13:37Z</time></trkpt><trkpt lat="43.440234613161465" lon="12.889918543440052"><ele>273.0</ele><time>2026-04-26T16:13:38Z</time></trkpt><trkpt lat="43.440150793465826" lon="12.889678928525543"><ele>273.0</ele><time>2026-04-26T16:13:39Z</time></trkpt><trkpt lat="43.440064977423546" lon="12.889436276629182"><ele>273.0</ele><time>2026-04-26T16:13:40Z</time></trkpt><trkpt lat="43.43996232189111" lon="12.889160933876681"><ele>271.0</ele><time>2026-04-26T16:13:41Z</time></trkpt><trkpt lat="43.43985898113524" lon="12.888847852251228"><ele>269.0</ele><time>2026-04-26T16:13:42Z</time></trkpt><trkpt lat="43.439745914417884" lon="12.888511400667184"><ele>267.0</ele><time>2026-04-26T16:13:43Z</time></trkpt><trkpt lat="43.4396302130936" lon="12.888188558780845"><ele>265.0</ele><time>2026-04-26T16:13:44Z</time></trkpt><trkpt lat="43.43953041394555" lon="12.88785578722434"><ele>264.5</ele><time>2026-04-26T16:13:45Z</time></trkpt><trkpt lat="43.43942445035142" lon="12.887526961182035"><ele>264.0</ele><time>2026-04-26T16:13:46Z</time></trkpt><trkpt lat="43.439314291630275" lon="12.88720475979312"><ele>264.0</ele><time>2026-04-26T16:13:47Z</time></trkpt><trkpt lat="43.439205809673574" lon="12.88688577248033"><ele>264.0</ele><time>2026-04-26T16:13:48Z</time></trkpt><trkpt lat="43.43909573896028" lon="12.88656820565552"><ele>265.0</ele><time>2026-04-26T16:13:49Z</time></trkpt><trkpt lat="43.438989227096" lon="12.886253103455676"><ele>266.0</ele><time>2026-04-26T16:13:50Z</time></trkpt><trkpt lat="43.43889152670914" lon="12.885932392359539"><ele>264.0</ele><time>2026-04-26T16:13:51Z</time></trkpt><trkpt lat="43.438787570881914" lon="12.885617143771968"><ele>262.0</ele><time>2026-04-26T16:13:52Z</time></trkpt><trkpt lat="43.438678176586315" lon="12.88530589566875"><ele>262.5</ele><time>2026-04-26T16:13:53Z</time></trkpt><trkpt lat="43.438575280624875" lon="12.884993090174449"><ele>263.0</ele><time>2026-04-26T16:13:54Z</time></trkpt><trkpt lat="43.438466688577094" lon="12.884681309329528"><ele>263.0</ele><time>2026-04-26T16:13:55Z</time></trkpt><trkpt lat="43.43836187722109" lon="12.884368262080303"><ele>263.0</ele><time>2026-04-26T16:13:56Z</time></trkpt><trkpt lat="43.438259721706075" lon="12.884057528073678"><ele>264.0</ele><time>2026-04-26T16:13:57Z</time></trkpt><trkpt lat="43.43814487270775" lon="12.883749341975125"><ele>265.0</ele><time>2026-04-26T16:13:58Z</time></trkpt><trkpt lat="43.43804353996567" lon="12.883439402542503"><ele>264.5</ele><time>2026-04-26T16:13:59Z</time></trkpt><trkpt lat="43.43794087709132" lon="12.88313177116304"><ele>264.0</ele><time>2026-04-26T16:14:00Z</time></trkpt><trkpt lat="43.437835443190295" lon="12.882827774869407"><ele>267.0</ele><time>2026-04-26T16:14:01Z</time></trkpt><trkpt lat="43.43773097253472" lon="12.882514151808607"><ele>270.0</ele><time>2026-04-26T16:14:02Z</time></trkpt><trkpt lat="43.43762530321756" lon="12.882208399097047"><ele>270.0</ele><time>2026-04-26T16:14:03Z</time></trkpt><trkpt lat="43.43752307071395" lon="12.881898751105457"><ele>270.0</ele><time>2026-04-26T16:14:04Z</time></trkpt><trkpt lat="43.43740355413533" lon="12.881614035815797"><ele>271.0</ele><time>2026-04-26T16:14:05Z</time></trkpt><trkpt lat="43.43730720609807" lon="12.88129538733649"><ele>272.0</ele><time>2026-04-26T16:14:06Z</time></trkpt><trkpt lat="43.43720530519919" lon="12.88099011139755"><ele>272.5</ele><time>2026-04-26T16:14:07Z</time></trkpt><trkpt lat="43.437098601787575" lon="12.880694411067509"><ele>273.0</ele><time>2026-04-26T16:14:08Z</time></trkpt><trkpt lat="43.436999580608145" lon="12.880401277607586"><ele>273.0</ele><time>2026-04-26T16:14:09Z</time></trkpt><trkpt lat="43.43689606473089" lon="12.88011114873593"><ele>273.0</ele><time>2026-04-26T16:14:10Z</time></trkpt><trkpt lat="43.43680032965794" lon="12.87982308784722"><ele>274.0</ele><time>2026-04-26T16:14:11Z</time></trkpt><trkpt lat="43.43670301722665" lon="12.879537691410688"><ele>275.0</ele><time>2026-04-26T16:14:12Z</time></trkpt><trkpt lat="43.43660341804806" lon="12.879256403533505"><ele>278.0</ele><time>2026-04-26T16:14:13Z</time></trkpt><trkpt lat="43.43650914813366" lon="12.87897105958508"><ele>281.0</ele><time>2026-04-26T16:14:14Z</time></trkpt><trkpt lat="43.43642626694082" lon="12.87868127386644"><ele>282.5</ele><time>2026-04-26T16:14:15Z</time></trkpt><trkpt lat="43.43637395244377" lon="12.87837586375465"><ele>284.0</ele><time>2026-04-26T16:14:16Z</time></trkpt><trkpt lat="43.43634704232119" lon="12.878065648007212"><ele>284.0</ele><time>2026-04-26T16:14:17Z</time></trkpt><trkpt lat="43.43633783740386" lon="12.877740856088547"><ele>284.0</ele><time>2026-04-26T16:14:18Z</time></trkpt><trkpt lat="43.43632291991219" lon="12.87740754633954"><ele>286.0</ele><time>2026-04-26T16:14:19Z</time></trkpt><trkpt lat="43.43630965263643" lon="12.877072658456893"><ele>288.0</ele><time>2026-04-26T16:14:20Z</time></trkpt><trkpt lat="43.43629798051548" lon="12.87673954750525"><ele>281.0</ele><time>2026-04-26T16:14:21Z</time></trkpt><trkpt lat="43.43628498564961" lon="12.876409038949307"><ele>274.0</ele><time>2026-04-26T16:14:22Z</time></trkpt><trkpt lat="43.43627432191702" lon="12.876077683169884"><ele>276.0</ele><time>2026-04-26T16:14:23Z</time></trkpt><trkpt lat="43.436265361969966" lon="12.875749321937933"><ele>278.0</ele><time>2026-04-26T16:14:24Z</time></trkpt><trkpt lat="43.43624980043836" lon="12.875428608150917"><ele>278.0</ele><time>2026-04-26T16:14:25Z</time></trkpt><trkpt lat="43.43623909858264" lon="12.875115604582373"><ele>278.0</ele><time>2026-04-26T16:14:26Z</time></trkpt><trkpt lat="43.43621946063564" lon="12.87482147357833"><ele>278.0</ele><time>2026-04-26T16:14:27Z</time></trkpt><trkpt lat="43.43618658171381" lon="12.87454443251707"><ele>278.0</ele><time>2026-04-26T16:14:28Z</time></trkpt><trkpt lat="43.43611553560749" lon="12.874274645638733"><ele>278.0</ele><time>2026-04-26T16:14:29Z</time></trkpt><trkpt lat="43.43603797898548" lon="12.874013230693196"><ele>278.0</ele><time>2026-04-26T16:14:30Z</time></trkpt><trkpt lat="43.4359805604987" lon="12.873744322713618"><ele>279.33333333333337</ele><time>2026-04-26T16:14:31Z</time></trkpt><trkpt lat="43.43594630597671" lon="12.873467093770067"><ele>280.6666666666667</ele><time>2026-04-26T16:14:32Z</time></trkpt><trkpt lat="43.43592756045394" lon="12.873188031554728"><ele>282.0</ele><time>2026-04-26T16:14:33Z</time></trkpt><trkpt lat="43.43591146879817" lon="12.872910232853119"><ele>282.0</ele><time>2026-04-26T16:14:34Z</time></trkpt><trkpt lat="43.43589233152327" lon="12.872634119286852"><ele>282.0</ele><time>2026-04-26T16:14:35Z</time></trkpt><trkpt lat="43.43588013422921" lon="12.872361225996604"><ele>282.0</ele><time>2026-04-26T16:14:36Z</time></trkpt><trkpt lat="43.43586860054357" lon="12.872106794138578"><ele>282.6666666666667</ele><time>2026-04-26T16:14:37Z</time></trkpt><trkpt lat="43.43585384219016" lon="12.871862932193116"><ele>283.33333333333337</ele><time>2026-04-26T16:14:38Z</time></trkpt><trkpt lat="43.43583983391088" lon="12.871632098360562"><ele>284.0</ele><time>2026-04-26T16:14:39Z</time></trkpt><trkpt lat="43.435820947071875" lon="12.871402129329383"><ele>284.0</ele><time>2026-04-26T16:14:40Z</time></trkpt><trkpt lat="43.4357986069712" lon="12.871170109267728"><ele>284.0</ele><time>2026-04-26T16:14:41Z</time></trkpt><trkpt lat="43.43576002641384" lon="12.870949582744096"><ele>284.0</ele><time>2026-04-26T16:14:42Z</time></trkpt><trkpt lat="43.435709063639074" lon="12.870741552402674"><ele>284.6666666666667</ele><time>2026-04-26T16:14:43Z</time></trkpt><trkpt lat="43.435647504806134" lon="12.870544342721809"><ele>285.3333333333333</ele><time>2026-04-26T16:14:44Z</time></trkpt><trkpt lat="43.43556347187263" lon="12.870349746004944"><ele>286.0</ele><time>2026-04-26T16:14:45Z</time></trkpt><trkpt lat="43.435463514137474" lon="12.870170589229836"><ele>284.66666666666663</ele><time>2026-04-26T16:14:46Z</time></trkpt><trkpt lat="43.4353428917819" lon="12.870013787284522"><ele>283.3333333333333</ele><time>2026-04-26T16:14:47Z</time></trkpt><trkpt lat="43.43521710034943" lon="12.869864273531265"><ele>282.0</ele><time>2026-04-26T16:14:48Z</time></trkpt><trkpt lat="43.43509111545619" lon="12.869715534635151"><ele>282.0</ele><time>2026-04-26T16:14:49Z</time></trkpt><trkpt lat="43.43496540599349" lon="12.869562854820707"><ele>282.0</ele><time>2026-04-26T16:14:50Z</time></trkpt><trkpt lat="43.43483926671392" lon="12.869407529045233"><ele>282.0</ele><time>2026-04-26T16:14:51Z</time></trkpt><trkpt lat="43.43471342785487" lon="12.86924831309881"><ele>280.3333333333333</ele><time>2026-04-26T16:14:52Z</time></trkpt><trkpt lat="43.434592688829305" lon="12.869081688309429"><ele>278.66666666666663</ele><time>2026-04-26T16:14:53Z</time></trkpt><trkpt lat="43.434474866202244" lon="12.86890056504138"><ele>277.0</ele><time>2026-04-26T16:14:54Z</time></trkpt><trkpt lat="43.434367245726186" lon="12.868709283517827"><ele>277.0</ele><time>2026-04-26T16:14:55Z</time></trkpt><trkpt lat="43.43426407021246" lon="12.868511908269527"><ele>277.0</ele><time>2026-04-26T16:14:56Z</time></trkpt><trkpt lat="43.43416988460937" lon="12.86830754111697"><ele>277.0</ele><time>2026-04-26T16:14:57Z</time></trkpt><trkpt lat="43.43408047479172" lon="12.868101036942564"><ele>279.66666666666663</ele><time>2026-04-26T16:14:58Z</time></trkpt><trkpt lat="43.43399953091145" lon="12.867891645199874"><ele>282.3333333333333</ele><time>2026-04-26T16:14:59Z</time></trkpt><trkpt lat="43.43393863162144" lon="12.867672834077444"><ele>285.0</ele><time>2026-04-26T16:15:00Z</time></trkpt><trkpt lat="43.43389387946866" lon="12.867448449502232"><ele>286.6666666666667</ele><time>2026-04-26T16:15:01Z</time></trkpt><trkpt lat="43.433871900738794" lon="12.867211831528932"><ele>288.33333333333337</ele><time>2026-04-26T16:15:02Z</time></trkpt><trkpt lat="43.43386531801718" lon="12.866961364817692"><ele>290.0</ele><time>2026-04-26T16:15:03Z</time></trkpt><trkpt lat="43.43386300342858" lon="12.866709359965688"><ele>291.33333333333337</ele><time>2026-04-26T16:15:04Z</time></trkpt><trkpt lat="43.43385644307689" lon="12.866450028966238"><ele>292.6666666666667</ele><time>2026-04-26T16:15:05Z</time></trkpt><trkpt lat="43.43385222802172" lon="12.866199756400748"><ele>294.0</ele><time>2026-04-26T16:15:06Z</time></trkpt><trkpt lat="43.433844090577466" lon="12.86595638074105"><ele>296.3333333333333</ele><time>2026-04-26T16:15:07Z</time></trkpt><trkpt lat="43.433837668974626" lon="12.865720861250352"><ele>298.66666666666663</ele><time>2026-04-26T16:15:08Z</time></trkpt><trkpt lat="43.43383173297151" lon="12.865486375077532"><ele>301.0</ele><time>2026-04-26T16:15:09Z</time></trkpt><trkpt lat="43.43381925036909" lon="12.86524942735287"><ele>300.66666666666663</ele><time>2026-04-26T16:15:10Z</time></trkpt><trkpt lat="43.433814900951" lon="12.865012569418779"><ele>300.3333333333333</ele><time>2026-04-26T16:15:11Z</time></trkpt><trkpt lat="43.43379721312287" lon="12.864787311589193"><ele>300.0</ele><time>2026-04-26T16:15:12Z</time></trkpt><trkpt lat="43.43379605584622" lon="12.864555288672664"><ele>295.3333333333333</ele><time>2026-04-26T16:15:13Z</time></trkpt><trkpt lat="43.43378311970622" lon="12.864339097907857"><ele>290.66666666666663</ele><time>2026-04-26T16:15:14Z</time></trkpt><trkpt lat="43.43377115888738" lon="12.86412226166448"><ele>286.0</ele><time>2026-04-26T16:15:15Z</time></trkpt><trkpt lat="43.43376173880668" lon="12.863903094538415"><ele>284.66666666666663</ele><time>2026-04-26T16:15:16Z</time></trkpt><trkpt lat="43.433755882395225" lon="12.86369173024791"><ele>283.3333333333333</ele><time>2026-04-26T16:15:17Z</time></trkpt><trkpt lat="43.43374511081015" lon="12.863478692917079"><ele>282.0</ele><time>2026-04-26T16:15:18Z</time></trkpt><trkpt lat="43.433734737282435" lon="12.86327186237732"><ele>282.0</ele><time>2026-04-26T16:15:19Z</time></trkpt><trkpt lat="43.43373440129017" lon="12.863053663753677"><ele>282.0</ele><time>2026-04-26T16:15:20Z</time></trkpt><trkpt lat="43.43374699274098" lon="12.862834742261832"><ele>282.0</ele><time>2026-04-26T16:15:21Z</time></trkpt><trkpt lat="43.43374008030798" lon="12.862620354332904"><ele>283.0</ele><time>2026-04-26T16:15:22Z</time></trkpt><trkpt lat="43.433732783806036" lon="12.862397015751423"><ele>284.0</ele><time>2026-04-26T16:15:23Z</time></trkpt><trkpt lat="43.43372617820951" lon="12.862194354401735"><ele>285.0</ele><time>2026-04-26T16:15:24Z</time></trkpt><trkpt lat="43.43371951405528" lon="12.861998622285569"><ele>285.0</ele><time>2026-04-26T16:15:25Z</time></trkpt><trkpt lat="43.43371173611052" lon="12.861789083203384"><ele>285.0</ele><time>2026-04-26T16:15:26Z</time></trkpt><trkpt lat="43.43369785056137" lon="12.861581503946658"><ele>285.0</ele><time>2026-04-26T16:15:27Z</time></trkpt><trkpt lat="43.43367386377828" lon="12.861385152224223"><ele>285.0</ele><time>2026-04-26T16:15:28Z</time></trkpt><trkpt lat="43.433636772900556" lon="12.86119362315504"><ele>285.25</ele><time>2026-04-26T16:15:29Z</time></trkpt><trkpt lat="43.433573407985186" lon="12.86101352963362"><ele>285.5</ele><time>2026-04-26T16:15:30Z</time></trkpt><trkpt lat="43.433502416861366" lon="12.860853337836458"><ele>285.75</ele><time>2026-04-26T16:15:31Z</time></trkpt><trkpt lat="43.43346864507956" lon="12.860693741439476"><ele>286.0</ele><time>2026-04-26T16:15:32Z</time></trkpt><trkpt lat="43.43341618563746" lon="12.8605539321156"><ele>286.75</ele><time>2026-04-26T16:15:33Z</time></trkpt><trkpt lat="43.43335236026646" lon="12.860414107406852"><ele>287.5</ele><time>2026-04-26T16:15:34Z</time></trkpt><trkpt lat="43.43328041100461" lon="12.86026763882995"><ele>288.25</ele><time>2026-04-26T16:15:35Z</time></trkpt><trkpt lat="43.43320782976679" lon="12.86012026716117"><ele>289.0</ele><time>2026-04-26T16:15:36Z</time></trkpt><trkpt lat="43.43312183447192" lon="12.859973152195279"><ele>288.25</ele><time>2026-04-26T16:15:37Z</time></trkpt><trkpt lat="43.43302627556179" lon="12.859831406690864"><ele>287.5</ele><time>2026-04-26T16:15:38Z</time></trkpt><trkpt lat="43.4329195618128" lon="12.859698345817181"><ele>286.75</ele><time>2026-04-26T16:15:39Z</time></trkpt><trkpt lat="43.432814426293525" lon="12.85956291687616"><ele>286.0</ele><time>2026-04-26T16:15:40Z</time></trkpt><trkpt lat="43.432702934074726" lon="12.859448894531022"><ele>286.0</ele><time>2026-04-26T16:15:41Z</time></trkpt><trkpt lat="43.43260290638134" lon="12.85934226889605"><ele>286.0</ele><time>2026-04-26T16:15:42Z</time></trkpt><trkpt lat="43.432504963121836" lon="12.859257435613541"><ele>286.0</ele><time>2026-04-26T16:15:43Z</time></trkpt><trkpt lat="43.43242002371008" lon="12.85918603437429"><ele>286.0</ele><time>2026-04-26T16:15:44Z</time></trkpt><trkpt lat="43.43233529441819" lon="12.859113478117388"><ele>286.0</ele><time>2026-04-26T16:15:45Z</time></trkpt><trkpt lat="43.43225464114877" lon="12.859053900705728"><ele>287.0</ele><time>2026-04-26T16:15:46Z</time></trkpt><trkpt lat="43.43216337780787" lon="12.858992517726113"><ele>288.0</ele><time>2026-04-26T16:15:47Z</time></trkpt><trkpt lat="43.43207312801051" lon="12.8589253974962"><ele>289.0</ele><time>2026-04-26T16:15:48Z</time></trkpt><trkpt lat="43.43197498268223" lon="12.85885861899953"><ele>290.0</ele><time>2026-04-26T16:15:49Z</time></trkpt><trkpt lat="43.43187106632299" lon="12.858787013470296"><ele>291.0</ele><time>2026-04-26T16:15:50Z</time></trkpt><trkpt lat="43.43177129649501" lon="12.858704543464217"><ele>291.0</ele><time>2026-04-26T16:15:51Z</time></trkpt><trkpt lat="43.43167129355468" lon="12.85863451904315"><ele>291.0</ele><time>2026-04-26T16:15:52Z</time></trkpt><trkpt lat="43.43157419233172" lon="12.85856843536225"><ele>291.0</ele><time>2026-04-26T16:15:53Z</time></trkpt><trkpt lat="43.43147865838061" lon="12.858509085551777"><ele>291.0</ele><time>2026-04-26T16:15:54Z</time></trkpt><trkpt lat="43.43138229576158" lon="12.858438525979931"><ele>291.0</ele><time>2026-04-26T16:15:55Z</time></trkpt><trkpt lat="43.43128780889137" lon="12.858366813804983"><ele>288.75</ele><time>2026-04-26T16:15:56Z</time></trkpt><trkpt lat="43.43119095322325" lon="12.858291499087535"><ele>286.5</ele><time>2026-04-26T16:15:57Z</time></trkpt><trkpt lat="43.43108822429012" lon="12.85821323868323"><ele>284.25</ele><time>2026-04-26T16:15:58Z</time></trkpt><trkpt lat="43.43098743086942" lon="12.858133778669702"><ele>282.0</ele><time>2026-04-26T16:15:59Z</time></trkpt><trkpt lat="43.43088895007952" lon="12.858046590596977"><ele>282.0</ele><time>2026-04-26T16:16:00Z</time></trkpt><trkpt lat="43.430788816221906" lon="12.857978695298673"><ele>282.0</ele><time>2026-04-26T16:16:01Z</time></trkpt><trkpt lat="43.43069040071715" lon="12.85790648803353"><ele>282.0</ele><time>2026-04-26T16:16:02Z</time></trkpt><trkpt lat="43.43059964153107" lon="12.857841165772975"><ele>282.0</ele><time>2026-04-26T16:16:03Z</time></trkpt><trkpt lat="43.430521295932145" lon="12.857783145526973"><ele>282.0</ele><time>2026-04-26T16:16:04Z</time></trkpt><trkpt lat="43.43044749058434" lon="12.857732665652545"><ele>282.14285714285717</ele><time>2026-04-26T16:16:05Z</time></trkpt><trkpt lat="43.4303805458601" lon="12.857683746822833"><ele>282.2857142857143</ele><time>2026-04-26T16:16:06Z</time></trkpt><trkpt lat="43.430323093946924" lon="12.857636468683348"><ele>282.42857142857144</ele><time>2026-04-26T16:16:07Z</time></trkpt><trkpt lat="43.43026932037059" lon="12.857590785403506"><ele>282.57142857142856</ele><time>2026-04-26T16:16:08Z</time></trkpt><trkpt lat="43.4302110634669" lon="12.857535174313973"><ele>282.7142857142857</ele><time>2026-04-26T16:16:09Z</time></trkpt><trkpt lat="43.43014599929857" lon="12.857476095892295"><ele>282.8571428571429</ele><time>2026-04-26T16:16:10Z</time></trkpt><trkpt lat="43.43008076493082" lon="12.857409904880416"><ele>283.0</ele><time>2026-04-26T16:16:11Z</time></trkpt><trkpt lat="43.430003257169936" lon="12.857353840526706"><ele>283.16666666666663</ele><time>2026-04-26T16:16:12Z</time></trkpt><trkpt lat="43.429925459172665" lon="12.857304217039815"><ele>283.3333333333333</ele><time>2026-04-26T16:16:13Z</time></trkpt><trkpt lat="43.42984438094605" lon="12.85726323990619"><ele>283.5</ele><time>2026-04-26T16:16:14Z</time></trkpt><trkpt lat="43.429764366338595" lon="12.857230928384354"><ele>283.6666666666667</ele><time>2026-04-26T16:16:15Z</time></trkpt><trkpt lat="43.42969270404957" lon="12.85720914276554"><ele>283.83333333333337</ele><time>2026-04-26T16:16:16Z</time></trkpt><trkpt lat="43.429618229752826" lon="12.857185660099919"><ele>284.0</ele><time>2026-04-26T16:16:17Z</time></trkpt><trkpt lat="43.429540458253186" lon="12.857170918823975"><ele>284.83333333333337</ele><time>2026-04-26T16:16:18Z</time></trkpt><trkpt lat="43.42946920439091" lon="12.857164673903945"><ele>285.6666666666667</ele><time>2026-04-26T16:16:19Z</time></trkpt><trkpt lat="43.42940252583407" lon="12.857155604218368"><ele>286.5</ele><time>2026-04-26T16:16:20Z</time></trkpt><trkpt lat="43.42932654596086" lon="12.857140458684533"><ele>287.3333333333333</ele><time>2026-04-26T16:16:21Z</time></trkpt><trkpt lat="43.42924757658043" lon="12.857098247108791"><ele>288.16666666666663</ele><time>2026-04-26T16:16:22Z</time></trkpt><trkpt lat="43.42916537404812" lon="12.857076753755019"><ele>289.0</ele><time>2026-04-26T16:16:23Z</time></trkpt><trkpt lat="43.429083233226294" lon="12.85705480107561"><ele>289.0</ele><time>2026-04-26T16:16:24Z</time></trkpt><trkpt lat="43.42900120097539" lon="12.857032877417046"><ele>289.0</ele><time>2026-04-26T16:16:25Z</time></trkpt><trkpt lat="43.42892020128556" lon="12.857011211623586"><ele>289.0</ele><time>2026-04-26T16:16:26Z</time></trkpt><trkpt lat="43.4288365730839" lon="12.856988840055216"><ele>289.0</ele><time>2026-04-26T16:16:27Z</time></trkpt><trkpt lat="43.42874811947105" lon="12.856966342658215"><ele>289.0</ele><time>2026-04-26T16:16:28Z</time></trkpt><trkpt lat="43.42865549247823" lon="12.856942960218717"><ele>289.0</ele><time>2026-04-26T16:16:29Z</time></trkpt><trkpt lat="43.4285564798445" lon="12.856940785813011"><ele>288.4</ele><time>2026-04-26T16:16:30Z</time></trkpt><trkpt lat="43.4284580937259" lon="12.856905107716445"><ele>287.79999999999995</ele><time>2026-04-26T16:16:31Z</time></trkpt><trkpt lat="43.428363591602356" lon="12.8568814596345"><ele>287.20000000000005</ele><time>2026-04-26T16:16:32Z</time></trkpt><trkpt lat="43.42826831177448" lon="12.856862764502868"><ele>286.6</ele><time>2026-04-26T16:16:33Z</time></trkpt><trkpt lat="43.42817885833446" lon="12.856838607837052"><ele>286.0</ele><time>2026-04-26T16:16:34Z</time></trkpt><trkpt lat="43.428090502382105" lon="12.856793415682269"><ele>286.3333333333333</ele><time>2026-04-26T16:16:35Z</time></trkpt><trkpt lat="43.42800159476509" lon="12.856771431135149"><ele>286.66666666666663</ele><time>2026-04-26T16:16:36Z</time></trkpt><trkpt lat="43.4279116243882" lon="12.856746150216763"><ele>287.0</ele><time>2026-04-26T16:16:37Z</time></trkpt><trkpt lat="43.42782711092814" lon="12.856725459895156"><ele>287.3333333333333</ele><time>2026-04-26T16:16:38Z</time></trkpt><trkpt lat="43.42774747279075" lon="12.856706285299362"><ele>287.6666666666667</ele><time>2026-04-26T16:16:39Z</time></trkpt><trkpt lat="43.42766868980979" lon="12.856691742860468"><ele>288.0</ele><time>2026-04-26T16:16:40Z</time></trkpt><trkpt lat="43.42759266320329" lon="12.85667388089643"><ele>288.6666666666667</ele><time>2026-04-26T16:16:41Z</time></trkpt><trkpt lat="43.427512123335916" lon="12.856651060081111"><ele>289.3333333333333</ele><time>2026-04-26T16:16:42Z</time></trkpt><trkpt lat="43.42743488079315" lon="12.856638778219384"><ele>290.0</ele><time>2026-04-26T16:16:43Z</time></trkpt><trkpt lat="43.427355351122884" lon="12.856619278037623"><ele>290.66666666666663</ele><time>2026-04-26T16:16:44Z</time></trkpt><trkpt lat="43.427280617348536" lon="12.856576102089829"><ele>291.3333333333333</ele><time>2026-04-26T16:16:45Z</time></trkpt><trkpt lat="43.42720359433519" lon="12.856559183355172"><ele>292.0</ele><time>2026-04-26T16:16:46Z</time></trkpt><trkpt lat="43.4271266566153" lon="12.856542584117571"><ele>292.8333333333333</ele><time>2026-04-26T16:16:47Z</time></trkpt><trkpt lat="43.42704908073525" lon="12.856522132306662"><ele>293.66666666666663</ele><time>2026-04-26T16:16:48Z</time></trkpt><trkpt lat="43.4269670484752" lon="12.856511229937405"><ele>294.5</ele><time>2026-04-26T16:16:49Z</time></trkpt><trkpt lat="43.42688668893187" lon="12.856493765930857"><ele>295.3333333333333</ele><time>2026-04-26T16:16:50Z</time></trkpt><trkpt lat="43.426805894551194" lon="12.856479369412051"><ele>296.1666666666667</ele><time>2026-04-26T16:16:51Z</time></trkpt><trkpt lat="43.42672089059591" lon="12.856458983418287"><ele>297.0</ele><time>2026-04-26T16:16:52Z</time></trkpt><trkpt lat="43.42663913560707" lon="12.85641962216537"><ele>297.0</ele><time>2026-04-26T16:16:53Z</time></trkpt><trkpt lat="43.426552540263124" lon="12.856397292574146"><ele>297.0</ele><time>2026-04-26T16:16:54Z</time></trkpt><trkpt lat="43.42647073497814" lon="12.856375344060348"><ele>297.0</ele><time>2026-04-26T16:16:55Z</time></trkpt><trkpt lat="43.426391119137115" lon="12.856353982980933"><ele>297.0</ele><time>2026-04-26T16:16:56Z</time></trkpt><trkpt lat="43.426309995276135" lon="12.856332347351877"><ele>297.0</ele><time>2026-04-26T16:16:57Z</time></trkpt><trkpt lat="43.42622595581011" lon="12.856310443993847"><ele>297.0</ele><time>2026-04-26T16:16:58Z</time></trkpt><trkpt lat="43.426142285930155" lon="12.856310884317075"><ele>297.5</ele><time>2026-04-26T16:16:59Z</time></trkpt><trkpt lat="43.42606246460353" lon="12.856277135591771"><ele>298.0</ele><time>2026-04-26T16:17:00Z</time></trkpt><trkpt lat="43.42598204328282" lon="12.856256459057269"><ele>298.5</ele><time>2026-04-26T16:17:01Z</time></trkpt><trkpt lat="43.4258960199061" lon="12.856231796398877"><ele>299.0</ele><time>2026-04-26T16:17:02Z</time></trkpt><trkpt lat="43.42581020863849" lon="12.856207249050302"><ele>299.5</ele><time>2026-04-26T16:17:03Z</time></trkpt><trkpt lat="43.425724369575015" lon="12.856179332267414"><ele>300.0</ele><time>2026-04-26T16:17:04Z</time></trkpt><trkpt lat="43.425637172745056" lon="12.856141478974967"><ele>300.0</ele><time>2026-04-26T16:17:05Z</time></trkpt><trkpt lat="43.42554920813549" lon="12.856131431090773"><ele>300.0</ele><time>2026-04-26T16:17:06Z</time></trkpt><trkpt lat="43.4254710140581" lon="12.856118089195963"><ele>300.0</ele><time>2026-04-26T16:17:07Z</time></trkpt><trkpt lat="43.42540199034438" lon="12.856103841085261"><ele>300.0</ele><time>2026-04-26T16:17:08Z</time></trkpt><trkpt lat="43.42528980457768" lon="12.856076467145924"><ele>300.0</ele><time>2026-04-26T16:17:10Z</time></trkpt><trkpt lat="43.42522485241453" lon="12.856061439996276"><ele>300.0</ele><time>2026-04-26T16:17:11Z</time></trkpt><trkpt lat="43.425154478521044" lon="12.85605615470248"><ele>300.0</ele><time>2026-04-26T16:17:12Z</time></trkpt><trkpt lat="43.42506687171026" lon="12.856030842311094"><ele>300.0</ele><time>2026-04-26T16:17:13Z</time></trkpt><trkpt lat="43.424977190529944" lon="12.85599937937833"><ele>300.0</ele><time>2026-04-26T16:17:14Z</time></trkpt><trkpt lat="43.42488814548199" lon="12.855961766113827"><ele>300.0</ele><time>2026-04-26T16:17:15Z</time></trkpt><trkpt lat="43.424796583094725" lon="12.855917887810527"><ele>300.0</ele><time>2026-04-26T16:17:16Z</time></trkpt><trkpt lat="43.42470205972666" lon="12.855864364444919"><ele>299.75</ele><time>2026-04-26T16:17:17Z</time></trkpt><trkpt lat="43.42460545253656" lon="12.85580683260623"><ele>299.5</ele><time>2026-04-26T16:17:18Z</time></trkpt><trkpt lat="43.42450947990151" lon="12.855735544726477"><ele>299.25</ele><time>2026-04-26T16:17:19Z</time></trkpt><trkpt lat="43.42440338632509" lon="12.85566601224907"><ele>299.0</ele><time>2026-04-26T16:17:20Z</time></trkpt><trkpt lat="43.42429464031133" lon="12.855586064230796"><ele>299.0</ele><time>2026-04-26T16:17:21Z</time></trkpt><trkpt lat="43.42419609543839" lon="12.855470968976993"><ele>299.0</ele><time>2026-04-26T16:17:22Z</time></trkpt><trkpt lat="43.42409204555235" lon="12.85538856327418"><ele>299.0</ele><time>2026-04-26T16:17:23Z</time></trkpt><trkpt lat="43.423982620887244" lon="12.85531903082616"><ele>299.0</ele><time>2026-04-26T16:17:24Z</time></trkpt><trkpt lat="43.42387353433599" lon="12.855240355826409"><ele>299.0</ele><time>2026-04-26T16:17:25Z</time></trkpt><trkpt lat="43.4237784940926" lon="12.855135339220618"><ele>299.0</ele><time>2026-04-26T16:17:26Z</time></trkpt><trkpt lat="43.423675301565126" lon="12.855066155300305"><ele>299.0</ele><time>2026-04-26T16:17:27Z</time></trkpt><trkpt lat="43.423573366511064" lon="12.854989872008115"><ele>299.0</ele><time>2026-04-26T16:17:28Z</time></trkpt><trkpt lat="43.4234710374472" lon="12.854910214989381"><ele>301.0</ele><time>2026-04-26T16:17:29Z</time></trkpt><trkpt lat="43.423365921366404" lon="12.854830259772626"><ele>303.0</ele><time>2026-04-26T16:17:30Z</time></trkpt><trkpt lat="43.423264057308884" lon="12.85475063832027"><ele>305.0</ele><time>2026-04-26T16:17:31Z</time></trkpt><trkpt lat="43.42315079518881" lon="12.854654646499592"><ele>307.0</ele><time>2026-04-26T16:17:32Z</time></trkpt><trkpt lat="43.42304156312754" lon="12.854564366370322"><ele>307.25</ele><time>2026-04-26T16:17:33Z</time></trkpt><trkpt lat="43.422941030932655" lon="12.854477452998545"><ele>307.5</ele><time>2026-04-26T16:17:34Z</time></trkpt><trkpt lat="43.42283389738913" lon="12.854399978464706"><ele>307.75</ele><time>2026-04-26T16:17:35Z</time></trkpt><trkpt lat="43.422732235612976" lon="12.854311779307045"><ele>308.0</ele><time>2026-04-26T16:17:36Z</time></trkpt><trkpt lat="43.422626534336686" lon="12.854221699086558"><ele>308.0</ele><time>2026-04-26T16:17:37Z</time></trkpt><trkpt lat="43.42251603242694" lon="12.854138830859217"><ele>308.0</ele><time>2026-04-26T16:17:38Z</time></trkpt><trkpt lat="43.42240520240282" lon="12.854044081897042"><ele>308.0</ele><time>2026-04-26T16:17:39Z</time></trkpt><trkpt lat="43.42229082471234" lon="12.853948574313195"><ele>308.0</ele><time>2026-04-26T16:17:40Z</time></trkpt><trkpt lat="43.42216349309966" lon="12.853860069133635"><ele>308.75</ele><time>2026-04-26T16:17:41Z</time></trkpt><trkpt lat="43.422040730620346" lon="12.853759919960533"><ele>309.5</ele><time>2026-04-26T16:17:42Z</time></trkpt><trkpt lat="43.42191217092896" lon="12.853662294254448"><ele>310.25</ele><time>2026-04-26T16:17:43Z</time></trkpt><trkpt lat="43.42178247092245" lon="12.853565873100914"><ele>311.0</ele><time>2026-04-26T16:17:44Z</time></trkpt><trkpt lat="43.42165030558727" lon="12.8534598637634"><ele>310.33333333333337</ele><time>2026-04-26T16:17:45Z</time></trkpt><trkpt lat="43.421525336221755" lon="12.853343960302135"><ele>309.6666666666667</ele><time>2026-04-26T16:17:46Z</time></trkpt><trkpt lat="43.421375112260755" lon="12.853236707512618"><ele>309.0</ele><time>2026-04-26T16:17:47Z</time></trkpt><trkpt lat="43.421233594646964" lon="12.853131088532566"><ele>309.0</ele><time>2026-04-26T16:17:48Z</time></trkpt><trkpt lat="43.4210919231247" lon="12.853022273463004"><ele>309.0</ele><time>2026-04-26T16:17:49Z</time></trkpt><trkpt lat="43.42094814393879" lon="12.852910305804103"><ele>309.0</ele><time>2026-04-26T16:17:50Z</time></trkpt><trkpt lat="43.42080378850263" lon="12.852780900304266"><ele>309.0</ele><time>2026-04-26T16:17:51Z</time></trkpt><trkpt lat="43.420660756485944" lon="12.852664286924409"><ele>309.0</ele><time>2026-04-26T16:17:52Z</time></trkpt><trkpt lat="43.4205234046806" lon="12.85254693741837"><ele>309.0</ele><time>2026-04-26T16:17:53Z</time></trkpt><trkpt lat="43.42039526159338" lon="12.852431535361259"><ele>308.3333333333333</ele><time>2026-04-26T16:17:54Z</time></trkpt><trkpt lat="43.42027105842274" lon="12.852308994397433"><ele>307.66666666666663</ele><time>2026-04-26T16:17:55Z</time></trkpt><trkpt lat="43.42014732769814" lon="12.852174285784626"><ele>307.0</ele><time>2026-04-26T16:17:56Z</time></trkpt><trkpt lat="43.420030321947685" lon="12.852029026734751"><ele>307.0</ele><time>2026-04-26T16:17:57Z</time></trkpt><trkpt lat="43.41992272791819" lon="12.851866476700135"><ele>307.0</ele><time>2026-04-26T16:17:58Z</time></trkpt><trkpt lat="43.41983225808606" lon="12.851694114682303"><ele>307.0</ele><time>2026-04-26T16:17:59Z</time></trkpt><trkpt lat="43.41974782952693" lon="12.851516290920324"><ele>308.0</ele><time>2026-04-26T16:18:00Z</time></trkpt><trkpt lat="43.4196711639739" lon="12.851320396694652"><ele>309.0</ele><time>2026-04-26T16:18:01Z</time></trkpt><trkpt lat="43.41959499212463" lon="12.85111893466222"><ele>310.0</ele><time>2026-04-26T16:18:02Z</time></trkpt><trkpt lat="43.419519390386064" lon="12.850911121549347"><ele>311.66666666666663</ele><time>2026-04-26T16:18:03Z</time></trkpt><trkpt lat="43.419439213847674" lon="12.850700190816847"><ele>313.3333333333333</ele><time>2026-04-26T16:18:04Z</time></trkpt><trkpt lat="43.419360306752665" lon="12.850495022603683"><ele>315.0</ele><time>2026-04-26T16:18:05Z</time></trkpt><trkpt lat="43.41927921652136" lon="12.850284939966716"><ele>314.6666666666667</ele><time>2026-04-26T16:18:06Z</time></trkpt><trkpt lat="43.419201254124104" lon="12.850066932801615"><ele>314.33333333333337</ele><time>2026-04-26T16:18:07Z</time></trkpt><trkpt lat="43.41912992033874" lon="12.849842756441406"><ele>314.0</ele><time>2026-04-26T16:18:08Z</time></trkpt><trkpt lat="43.41906918175513" lon="12.84961592822878"><ele>314.0</ele><time>2026-04-26T16:18:09Z</time></trkpt><trkpt lat="43.419030285141424" lon="12.84936267933276"><ele>314.0</ele><time>2026-04-26T16:18:10Z</time></trkpt><trkpt lat="43.41900540914594" lon="12.849101881682678"><ele>314.0</ele><time>2026-04-26T16:18:11Z</time></trkpt><trkpt lat="43.41902195494474" lon="12.8488214749827"><ele>312.0</ele><time>2026-04-26T16:18:12Z</time></trkpt><trkpt lat="43.41904427682933" lon="12.848530512507772"><ele>310.0</ele><time>2026-04-26T16:18:13Z</time></trkpt><trkpt lat="43.41907655059612" lon="12.848251079985443"><ele>308.0</ele><time>2026-04-26T16:18:14Z</time></trkpt><trkpt lat="43.41909919937247" lon="12.847978902910626"><ele>307.6666666666667</ele><time>2026-04-26T16:18:15Z</time></trkpt><trkpt lat="43.41912725971499" lon="12.847698973221762"><ele>307.3333333333333</ele><time>2026-04-26T16:18:16Z</time></trkpt><trkpt lat="43.419151149939374" lon="12.847416926149439"><ele>307.0</ele><time>2026-04-26T16:18:17Z</time></trkpt><trkpt lat="43.41917113952546" lon="12.84713873710536"><ele>308.3333333333333</ele><time>2026-04-26T16:18:18Z</time></trkpt><trkpt lat="43.41919297775463" lon="12.846856278622353"><ele>309.6666666666667</ele><time>2026-04-26T16:18:19Z</time></trkpt><trkpt lat="43.41919612656371" lon="12.846569149927824"><ele>311.0</ele><time>2026-04-26T16:18:20Z</time></trkpt><trkpt lat="43.41918061644329" lon="12.846288058658724"><ele>311.33333333333337</ele><time>2026-04-26T16:18:21Z</time></trkpt><trkpt lat="43.419166251211166" lon="12.846000279349019"><ele>311.6666666666667</ele><time>2026-04-26T16:18:22Z</time></trkpt><trkpt lat="43.41914428512597" lon="12.84570261056749"><ele>312.0</ele><time>2026-04-26T16:18:23Z</time></trkpt><trkpt lat="43.419123113395734" lon="12.845415698690674"><ele>311.3333333333333</ele><time>2026-04-26T16:18:24Z</time></trkpt><trkpt lat="43.41909487570304" lon="12.845126099595653"><ele>310.66666666666663</ele><time>2026-04-26T16:18:25Z</time></trkpt><trkpt lat="43.41903863380799" lon="12.844828969779725"><ele>310.0</ele><time>2026-04-26T16:18:26Z</time></trkpt><trkpt lat="43.418954261357996" lon="12.844546782956892"><ele>309.5</ele><time>2026-04-26T16:18:27Z</time></trkpt><trkpt lat="43.41886013202711" lon="12.844256182272344"><ele>309.0</ele><time>2026-04-26T16:18:28Z</time></trkpt><trkpt lat="43.41876520978474" lon="12.843965847413488"><ele>311.0</ele><time>2026-04-26T16:18:29Z</time></trkpt><trkpt lat="43.41866940837923" lon="12.84367726045606"><ele>313.0</ele><time>2026-04-26T16:18:30Z</time></trkpt><trkpt lat="43.418573910538136" lon="12.84338932871854"><ele>313.0</ele><time>2026-04-26T16:18:31Z</time></trkpt><trkpt lat="43.418478065745944" lon="12.843100235449603"><ele>313.0</ele><time>2026-04-26T16:18:32Z</time></trkpt><trkpt lat="43.41836293536537" lon="12.84282711719798"><ele>313.5</ele><time>2026-04-26T16:18:33Z</time></trkpt><trkpt lat="43.418270712478666" lon="12.842537806869041"><ele>314.0</ele><time>2026-04-26T16:18:34Z</time></trkpt><trkpt lat="43.418171534023585" lon="12.842258862031288"><ele>314.0</ele><time>2026-04-26T16:18:35Z</time></trkpt><trkpt lat="43.418082744529464" lon="12.841982572869394"><ele>314.0</ele><time>2026-04-26T16:18:36Z</time></trkpt><trkpt lat="43.41798898080196" lon="12.841696949420506"><ele>314.0</ele><time>2026-04-26T16:18:37Z</time></trkpt><trkpt lat="43.41785254740614" lon="12.84145698878792"><ele>317.0</ele><time>2026-04-26T16:18:38Z</time></trkpt><trkpt lat="43.417697439615395" lon="12.841226467265354"><ele>320.0</ele><time>2026-04-26T16:18:39Z</time></trkpt><trkpt lat="43.41752628183151" lon="12.841017625838287"><ele>320.5</ele><time>2026-04-26T16:18:40Z</time></trkpt><trkpt lat="43.41736390325667" lon="12.840808005643892"><ele>321.0</ele><time>2026-04-26T16:18:41Z</time></trkpt><trkpt lat="43.41717267225055" lon="12.840603167317939"><ele>321.0</ele><time>2026-04-26T16:18:42Z</time></trkpt><trkpt lat="43.41700645359767" lon="12.84037406412966"><ele>321.0</ele><time>2026-04-26T16:18:43Z</time></trkpt><trkpt lat="43.41685071037508" lon="12.840125586967401"><ele>321.0</ele><time>2026-04-26T16:18:44Z</time></trkpt><trkpt lat="43.41670939260582" lon="12.839862815972188"><ele>321.0</ele><time>2026-04-26T16:18:45Z</time></trkpt><trkpt lat="43.41656909609558" lon="12.839602865587537"><ele>321.0</ele><time>2026-04-26T16:18:46Z</time></trkpt><trkpt lat="43.41642266493457" lon="12.839358184363897"><ele>321.0</ele><time>2026-04-26T16:18:47Z</time></trkpt><trkpt lat="43.416274116280334" lon="12.839129502139778"><ele>321.0</ele><time>2026-04-26T16:18:48Z</time></trkpt><trkpt lat="43.41613526594421" lon="12.838904326381742"><ele>321.0</ele><time>2026-04-26T16:18:49Z</time></trkpt><trkpt lat="43.41600656955545" lon="12.838686549277416"><ele>321.0</ele><time>2026-04-26T16:18:50Z</time></trkpt><trkpt lat="43.41587620221352" lon="12.83848533979755"><ele>321.3333333333333</ele><time>2026-04-26T16:18:51Z</time></trkpt><trkpt lat="43.41574459191864" lon="12.838295846819106"><ele>321.66666666666663</ele><time>2026-04-26T16:18:52Z</time></trkpt><trkpt lat="43.415610618846905" lon="12.838133553201008"><ele>322.0</ele><time>2026-04-26T16:18:53Z</time></trkpt><trkpt lat="43.41545724902275" lon="12.837979883449332"><ele>322.3333333333333</ele><time>2026-04-26T16:18:54Z</time></trkpt><trkpt lat="43.4153403753233" lon="12.83784223026674"><ele>322.6666666666667</ele><time>2026-04-26T16:18:55Z</time></trkpt><trkpt lat="43.41522322773251" lon="12.837702339199724"><ele>323.0</ele><time>2026-04-26T16:18:56Z</time></trkpt><trkpt lat="43.415128883802616" lon="12.837547848848814"><ele>322.0</ele><time>2026-04-26T16:18:57Z</time></trkpt><trkpt lat="43.415034923258595" lon="12.83743320535936"><ele>321.0</ele><time>2026-04-26T16:18:58Z</time></trkpt><trkpt lat="43.41493477760615" lon="12.837360727900373"><ele>320.0</ele><time>2026-04-26T16:18:59Z</time></trkpt><trkpt lat="43.41483594667227" lon="12.837358493898366"><ele>319.0</ele><time>2026-04-26T16:19:00Z</time></trkpt><trkpt lat="43.414706322913204" lon="12.83747190699346"><ele>318.75</ele><time>2026-04-26T16:19:01Z</time></trkpt><trkpt lat="43.41458771642548" lon="12.83765392733335"><ele>318.5</ele><time>2026-04-26T16:19:02Z</time></trkpt><trkpt lat="43.41447597685824" lon="12.837786700217013"><ele>318.25</ele><time>2026-04-26T16:19:03Z</time></trkpt><trkpt lat="43.414375470271615" lon="12.837818794533481"><ele>318.0</ele><time>2026-04-26T16:19:04Z</time></trkpt><trkpt lat="43.41428745924377" lon="12.837791561931263"><ele>318.0</ele><time>2026-04-26T16:19:05Z</time></trkpt><trkpt lat="43.41421688001472" lon="12.83766023478302"><ele>318.0</ele><time>2026-04-26T16:19:06Z</time></trkpt><trkpt lat="43.414145491347014" lon="12.83749457311035"><ele>318.0</ele><time>2026-04-26T16:19:07Z</time></trkpt><trkpt lat="43.4141469182877" lon="12.837295373517188"><ele>318.0</ele><time>2026-04-26T16:19:08Z</time></trkpt><trkpt lat="43.41416863462792" lon="12.83707708176491"><ele>317.6666666666667</ele><time>2026-04-26T16:19:09Z</time></trkpt><trkpt lat="43.41422794463362" lon="12.836840261510613"><ele>317.33333333333337</ele><time>2026-04-26T16:19:10Z</time></trkpt><trkpt lat="43.414272775035535" lon="12.836595884514521"><ele>317.0</ele><time>2026-04-26T16:19:11Z</time></trkpt><trkpt lat="43.414513055038356" lon="12.836394642548312"><ele>318.6666666666667</ele><time>2026-04-26T16:19:12Z</time></trkpt><trkpt lat="43.41464897214464" lon="12.83615072119096"><ele>320.3333333333333</ele><time>2026-04-26T16:19:13Z</time></trkpt><trkpt lat="43.4147633505379" lon="12.835897641742209"><ele>322.0</ele><time>2026-04-26T16:19:14Z</time></trkpt><trkpt lat="43.41483985257582" lon="12.835665943662354"><ele>318.0</ele><time>2026-04-26T16:19:15Z</time></trkpt><trkpt lat="43.41491052596956" lon="12.835471012034233"><ele>314.0</ele><time>2026-04-26T16:19:16Z</time></trkpt><trkpt lat="43.41496060908552" lon="12.835303984197092"><ele>310.0</ele><time>2026-04-26T16:19:17Z</time></trkpt><trkpt lat="43.414974684258524" lon="12.835152492479763"><ele>306.0</ele><time>2026-04-26T16:19:18Z</time></trkpt><trkpt lat="43.41494287399921" lon="12.834985504828353"><ele>306.0</ele><time>2026-04-26T16:19:19Z</time></trkpt><trkpt lat="43.414795267404095" lon="12.834834738494909"><ele>306.0</ele><time>2026-04-26T16:19:20Z</time></trkpt><trkpt lat="43.4146261019036" lon="12.834678569853134"><ele>306.0</ele><time>2026-04-26T16:19:21Z</time></trkpt><trkpt lat="43.414457146188944" lon="12.834566864687957"><ele>310.6666666666667</ele><time>2026-04-26T16:19:22Z</time></trkpt><trkpt lat="43.414291531739785" lon="12.834495820737686"><ele>315.33333333333337</ele><time>2026-04-26T16:19:23Z</time></trkpt><trkpt lat="43.41411537328557" lon="12.834469375039319"><ele>320.0</ele><time>2026-04-26T16:19:24Z</time></trkpt><trkpt lat="43.413976232279545" lon="12.834425269676435"><ele>320.0</ele><time>2026-04-26T16:19:25Z</time></trkpt><trkpt lat="43.41387132946795" lon="12.834373165417515"><ele>320.0</ele><time>2026-04-26T16:19:26Z</time></trkpt><trkpt lat="43.4138013019672" lon="12.83420776414078"><ele>320.0</ele><time>2026-04-26T16:19:27Z</time></trkpt><trkpt lat="43.4137939095886" lon="12.8341012147371"><ele>320.0</ele><time>2026-04-26T16:19:28Z</time></trkpt><trkpt lat="43.413861096944075" lon="12.83389359583432"><ele>317.0</ele><time>2026-04-26T16:19:29Z</time></trkpt><trkpt lat="43.41396713080154" lon="12.8337173079472"><ele>314.0</ele><time>2026-04-26T16:19:30Z</time></trkpt><trkpt lat="43.414114055422495" lon="12.83356626554466"><ele>311.0</ele><time>2026-04-26T16:19:31Z</time></trkpt><trkpt lat="43.41428207017478" lon="12.833481243391288"><ele>311.0</ele><time>2026-04-26T16:19:32Z</time></trkpt><trkpt lat="43.414397937734215" lon="12.833408934018474"><ele>311.0</ele><time>2026-04-26T16:19:33Z</time></trkpt><trkpt lat="43.41447820644585" lon="12.83333566702787"><ele>311.0</ele><time>2026-04-26T16:19:34Z</time></trkpt><trkpt lat="43.414528049715024" lon="12.833247129846741"><ele>311.0</ele><time>2026-04-26T16:19:35Z</time></trkpt><trkpt lat="43.41452750145769" lon="12.833068934897236"><ele>311.0</ele><time>2026-04-26T16:19:36Z</time></trkpt><trkpt lat="43.414426609127794" lon="12.832809049704263"><ele>312.6666666666667</ele><time>2026-04-26T16:19:37Z</time></trkpt><trkpt lat="43.41433518348665" lon="12.832571891720876"><ele>314.3333333333333</ele><time>2026-04-26T16:19:38Z</time></trkpt><trkpt lat="43.41427474238035" lon="12.832315101107131"><ele>316.0</ele><time>2026-04-26T16:19:39Z</time></trkpt><trkpt lat="43.414230430497945" lon="12.832061053961784"><ele>317.66666666666663</ele><time>2026-04-26T16:19:40Z</time></trkpt><trkpt lat="43.41421006636121" lon="12.831800229447671"><ele>319.3333333333333</ele><time>2026-04-26T16:19:41Z</time></trkpt><trkpt lat="43.41424277604686" lon="12.831531464313441"><ele>321.0</ele><time>2026-04-26T16:19:42Z</time></trkpt><trkpt lat="43.41430458468769" lon="12.831258567925431"><ele>321.0</ele><time>2026-04-26T16:19:43Z</time></trkpt><trkpt lat="43.41435200954554" lon="12.830988783946019"><ele>321.0</ele><time>2026-04-26T16:19:44Z</time></trkpt><trkpt lat="43.41439806371855" lon="12.830719502034022"><ele>321.0</ele><time>2026-04-26T16:19:45Z</time></trkpt><trkpt lat="43.41443511455529" lon="12.830479179995391"><ele>321.5</ele><time>2026-04-26T16:19:46Z</time></trkpt><trkpt lat="43.41446182692371" lon="12.830260605475384"><ele>322.0</ele><time>2026-04-26T16:19:47Z</time></trkpt><trkpt lat="43.41446673445701" lon="12.830063535463147"><ele>322.5</ele><time>2026-04-26T16:19:48Z</time></trkpt><trkpt lat="43.41443469074664" lon="12.829882580558948"><ele>323.0</ele><time>2026-04-26T16:19:49Z</time></trkpt><trkpt lat="43.414292608178684" lon="12.829724455846621"><ele>323.0</ele><time>2026-04-26T16:19:50Z</time></trkpt><trkpt lat="43.41412075591585" lon="12.829593553241029"><ele>323.0</ele><time>2026-04-26T16:19:51Z</time></trkpt><trkpt lat="43.41394609684862" lon="12.829455295969932"><ele>323.0</ele><time>2026-04-26T16:19:52Z</time></trkpt><trkpt lat="43.41378780713915" lon="12.829296859760614"><ele>324.0</ele><time>2026-04-26T16:19:53Z</time></trkpt><trkpt lat="43.41363151891068" lon="12.829143259176865"><ele>325.0</ele><time>2026-04-26T16:19:54Z</time></trkpt><trkpt lat="43.41347937928694" lon="12.828978631199167"><ele>326.0</ele><time>2026-04-26T16:19:55Z</time></trkpt><trkpt lat="43.413362558687325" lon="12.828776271370831"><ele>326.0</ele><time>2026-04-26T16:19:56Z</time></trkpt><trkpt lat="43.41325393543477" lon="12.828553398910291"><ele>326.0</ele><time>2026-04-26T16:19:57Z</time></trkpt><trkpt lat="43.413160685179925" lon="12.82833668255878"><ele>326.0</ele><time>2026-04-26T16:19:58Z</time></trkpt><trkpt lat="43.413062894663554" lon="12.828150968656608"><ele>326.0</ele><time>2026-04-26T16:19:59Z</time></trkpt><trkpt lat="43.41296432909781" lon="12.827993513673686"><ele>326.0</ele><time>2026-04-26T16:20:00Z</time></trkpt><trkpt lat="43.41284453710238" lon="12.82785213808192"><ele>326.0</ele><time>2026-04-26T16:20:01Z</time></trkpt><trkpt lat="43.41268403377032" lon="12.827790684725265"><ele>326.0</ele><time>2026-04-26T16:20:02Z</time></trkpt><trkpt lat="43.41249278024714" lon="12.827724617611285"><ele>326.0</ele><time>2026-04-26T16:20:03Z</time></trkpt><trkpt lat="43.4123271047097" lon="12.827638990961331"><ele>326.0</ele><time>2026-04-26T16:20:04Z</time></trkpt><trkpt lat="43.41218294696025" lon="12.827543093740825"><ele>326.25</ele><time>2026-04-26T16:20:05Z</time></trkpt><trkpt lat="43.412076421625855" lon="12.827386329673384"><ele>326.5</ele><time>2026-04-26T16:20:06Z</time></trkpt><trkpt lat="43.41204247014432" lon="12.82718926326592"><ele>326.75</ele><time>2026-04-26T16:20:07Z</time></trkpt><trkpt lat="43.412034414093306" lon="12.826991942916804"><ele>327.0</ele><time>2026-04-26T16:20:08Z</time></trkpt><trkpt lat="43.41201369304333" lon="12.826756906852356"><ele>325.6666666666667</ele><time>2026-04-26T16:20:09Z</time></trkpt><trkpt lat="43.41198125407992" lon="12.826510334793637"><ele>324.33333333333337</ele><time>2026-04-26T16:20:10Z</time></trkpt><trkpt lat="43.41195230248103" lon="12.826269334633519"><ele>323.0</ele><time>2026-04-26T16:20:11Z</time></trkpt><trkpt lat="43.411952901828435" lon="12.826019789436284"><ele>322.6666666666667</ele><time>2026-04-26T16:20:12Z</time></trkpt><trkpt lat="43.41191935883361" lon="12.825761025616483"><ele>322.3333333333333</ele><time>2026-04-26T16:20:13Z</time></trkpt><trkpt lat="43.41186324533648" lon="12.825505894549536"><ele>322.0</ele><time>2026-04-26T16:20:14Z</time></trkpt><trkpt lat="43.411809322488025" lon="12.825264899603601"><ele>323.0</ele><time>2026-04-26T16:20:15Z</time></trkpt><trkpt lat="43.411750325431406" lon="12.825031080641033"><ele>324.0</ele><time>2026-04-26T16:20:16Z</time></trkpt><trkpt lat="43.4116933709136" lon="12.824792805806112"><ele>325.0</ele><time>2026-04-26T16:20:17Z</time></trkpt><trkpt lat="43.411620894778075" lon="12.8245674596005"><ele>325.0</ele><time>2026-04-26T16:20:18Z</time></trkpt><trkpt lat="43.41148837347399" lon="12.824341184438234"><ele>325.0</ele><time>2026-04-26T16:20:19Z</time></trkpt><trkpt lat="43.4113825275678" lon="12.824155757629399"><ele>325.0</ele><time>2026-04-26T16:20:20Z</time></trkpt><trkpt lat="43.41127976826051" lon="12.823945215424994"><ele>327.66666666666663</ele><time>2026-04-26T16:20:21Z</time></trkpt><trkpt lat="43.411178423796976" lon="12.823764796950439"><ele>330.3333333333333</ele><time>2026-04-26T16:20:22Z</time></trkpt><trkpt lat="43.41113994288599" lon="12.82356529606499"><ele>333.0</ele><time>2026-04-26T16:20:23Z</time></trkpt><trkpt lat="43.41113783156569" lon="12.823348757664142"><ele>333.0</ele><time>2026-04-26T16:20:24Z</time></trkpt><trkpt lat="43.41116866563428" lon="12.823122206412632"><ele>333.0</ele><time>2026-04-26T16:20:25Z</time></trkpt><trkpt lat="43.41118387437894" lon="12.82288908354928"><ele>333.0</ele><time>2026-04-26T16:20:26Z</time></trkpt><trkpt lat="43.411199381802454" lon="12.822681527211646"><ele>333.0</ele><time>2026-04-26T16:20:27Z</time></trkpt><trkpt lat="43.41122842738242" lon="12.822480946954816"><ele>333.0</ele><time>2026-04-26T16:20:28Z</time></trkpt><trkpt lat="43.411278943091226" lon="12.822268519823616"><ele>333.0</ele><time>2026-04-26T16:20:29Z</time></trkpt><trkpt lat="43.411342479578174" lon="12.82207887214914"><ele>333.0</ele><time>2026-04-26T16:20:30Z</time></trkpt><trkpt lat="43.41140912308933" lon="12.821890444507863"><ele>333.0</ele><time>2026-04-26T16:20:31Z</time></trkpt><trkpt lat="43.411482250099326" lon="12.821705296112578"><ele>333.0</ele><time>2026-04-26T16:20:32Z</time></trkpt><trkpt lat="43.41153742098948" lon="12.821517077468586"><ele>333.0</ele><time>2026-04-26T16:20:33Z</time></trkpt><trkpt lat="43.4116096692144" lon="12.821332343762538"><ele>333.0</ele><time>2026-04-26T16:20:34Z</time></trkpt><trkpt lat="43.411665093478966" lon="12.82113971413655"><ele>333.0</ele><time>2026-04-26T16:20:35Z</time></trkpt><trkpt lat="43.411730619592106" lon="12.820959400515472"><ele>333.0</ele><time>2026-04-26T16:20:36Z</time></trkpt><trkpt lat="43.41178376806116" lon="12.820790041490284"><ele>333.25</ele><time>2026-04-26T16:20:37Z</time></trkpt><trkpt lat="43.41183168762194" lon="12.820630041624298"><ele>333.5</ele><time>2026-04-26T16:20:38Z</time></trkpt><trkpt lat="43.4118606974035" lon="12.820469612569568"><ele>333.75</ele><time>2026-04-26T16:20:39Z</time></trkpt><trkpt lat="43.411875155880736" lon="12.820291354164189"><ele>334.0</ele><time>2026-04-26T16:20:40Z</time></trkpt><trkpt lat="43.41185678955397" lon="12.820106031712408"><ele>334.75</ele><time>2026-04-26T16:20:41Z</time></trkpt><trkpt lat="43.41181410400244" lon="12.819944157065363"><ele>335.5</ele><time>2026-04-26T16:20:42Z</time></trkpt><trkpt lat="43.41176883732483" lon="12.819797525622201"><ele>336.25</ele><time>2026-04-26T16:20:43Z</time></trkpt><trkpt lat="43.41171742563702" lon="12.819661847370822"><ele>337.0</ele><time>2026-04-26T16:20:44Z</time></trkpt><trkpt lat="43.41166846160523" lon="12.819529249705662"><ele>337.0</ele><time>2026-04-26T16:20:45Z</time></trkpt><trkpt lat="43.41163013390453" lon="12.819413185213184"><ele>337.0</ele><time>2026-04-26T16:20:46Z</time></trkpt><trkpt lat="43.41160440123019" lon="12.819321901129852"><ele>337.0</ele><time>2026-04-26T16:20:47Z</time></trkpt><trkpt lat="43.4115797299578" lon="12.819184257719657"><ele>337.0</ele><time>2026-04-26T16:20:49Z</time></trkpt><trkpt lat="43.41153780171793" lon="12.81899100139638"><ele>337.0</ele><time>2026-04-26T16:20:51Z</time></trkpt><trkpt lat="43.41153846419518" lon="12.818846442720945"><ele>337.0</ele><time>2026-04-26T16:20:52Z</time></trkpt><trkpt lat="43.41155595769964" lon="12.818677921654198"><ele>337.0</ele><time>2026-04-26T16:20:53Z</time></trkpt><trkpt lat="43.41160831516067" lon="12.81850093659798"><ele>337.0</ele><time>2026-04-26T16:20:54Z</time></trkpt><trkpt lat="43.411648978221024" lon="12.818302725440164"><ele>337.0</ele><time>2026-04-26T16:20:55Z</time></trkpt><trkpt lat="43.411703965647305" lon="12.818093029915985"><ele>336.66666666666663</ele><time>2026-04-26T16:20:56Z</time></trkpt><trkpt lat="43.41175850775747" lon="12.817868557761916"><ele>336.3333333333333</ele><time>2026-04-26T16:20:57Z</time></trkpt><trkpt lat="43.41181263495798" lon="12.817628865632777"><ele>336.0</ele><time>2026-04-26T16:20:58Z</time></trkpt><trkpt lat="43.411875459572954" lon="12.817383901356173"><ele>336.0</ele><time>2026-04-26T16:20:59Z</time></trkpt><trkpt lat="43.41193647192548" lon="12.817139857954222"><ele>336.0</ele><time>2026-04-26T16:21:00Z</time></trkpt><trkpt lat="43.411989288545286" lon="12.816906897508606"><ele>336.0</ele><time>2026-04-26T16:21:01Z</time></trkpt><trkpt lat="43.412038059587374" lon="12.816691927063314"><ele>338.3333333333333</ele><time>2026-04-26T16:21:02Z</time></trkpt><trkpt lat="43.412074605004676" lon="12.816467977711252"><ele>340.66666666666663</ele><time>2026-04-26T16:21:03Z</time></trkpt><trkpt lat="43.4120828308449" lon="12.81622563861367"><ele>343.0</ele><time>2026-04-26T16:21:04Z</time></trkpt><trkpt lat="43.412082084490834" lon="12.815984478946291"><ele>345.66666666666663</ele><time>2026-04-26T16:21:05Z</time></trkpt><trkpt lat="43.412083700417185" lon="12.815740067209015"><ele>348.3333333333333</ele><time>2026-04-26T16:21:06Z</time></trkpt><trkpt lat="43.41210126855421" lon="12.815499117035987"><ele>351.0</ele><time>2026-04-26T16:21:07Z</time></trkpt><trkpt lat="43.41211061452095" lon="12.815254482680109"><ele>351.3333333333333</ele><time>2026-04-26T16:21:08Z</time></trkpt><trkpt lat="43.412115830374816" lon="12.815018666708763"><ele>351.66666666666663</ele><time>2026-04-26T16:21:09Z</time></trkpt><trkpt lat="43.41214852980009" lon="12.814822933096602"><ele>352.0</ele><time>2026-04-26T16:21:10Z</time></trkpt><trkpt lat="43.41223661574874" lon="12.8146474429089"><ele>346.66666666666663</ele><time>2026-04-26T16:21:11Z</time></trkpt><trkpt lat="43.412334755176815" lon="12.814523287139489"><ele>341.3333333333333</ele><time>2026-04-26T16:21:12Z</time></trkpt><trkpt lat="43.412456483489706" lon="12.814362716237058"><ele>336.0</ele><time>2026-04-26T16:21:13Z</time></trkpt><trkpt lat="43.412578692002384" lon="12.814197489176156"><ele>336.0</ele><time>2026-04-26T16:21:14Z</time></trkpt><trkpt lat="43.4126770138602" lon="12.814002209946537"><ele>336.0</ele><time>2026-04-26T16:21:15Z</time></trkpt><trkpt lat="43.41277002142788" lon="12.813800013842362"><ele>336.0</ele><time>2026-04-26T16:21:16Z</time></trkpt><trkpt lat="43.412843994963865" lon="12.813575633088547"><ele>333.3333333333333</ele><time>2026-04-26T16:21:17Z</time></trkpt><trkpt lat="43.41291797761436" lon="12.813343042804647"><ele>330.66666666666663</ele><time>2026-04-26T16:21:18Z</time></trkpt><trkpt lat="43.41299110448618" lon="12.81310294202052"><ele>328.0</ele><time>2026-04-26T16:21:19Z</time></trkpt><trkpt lat="43.41307949766289" lon="12.812890539557081"><ele>328.0</ele><time>2026-04-26T16:21:20Z</time></trkpt><trkpt lat="43.413194374323446" lon="12.812745632072922"><ele>328.0</ele><time>2026-04-26T16:21:21Z</time></trkpt><trkpt lat="43.41333296172308" lon="12.812605504872494"><ele>328.0</ele><time>2026-04-26T16:21:22Z</time></trkpt><trkpt lat="43.41348493476641" lon="12.812454338181753"><ele>329.0</ele><time>2026-04-26T16:21:23Z</time></trkpt><trkpt lat="43.413640122786276" lon="12.812318725760699"><ele>330.0</ele><time>2026-04-26T16:21:24Z</time></trkpt><trkpt lat="43.41380058505753" lon="12.812223692684297"><ele>331.0</ele><time>2026-04-26T16:21:25Z</time></trkpt><trkpt lat="43.41397980885732" lon="12.81214048484004"><ele>331.0</ele><time>2026-04-26T16:21:26Z</time></trkpt><trkpt lat="43.41416332864534" lon="12.812056896708958"><ele>331.0</ele><time>2026-04-26T16:21:27Z</time></trkpt><trkpt lat="43.41434494765391" lon="12.811974186631998"><ele>331.0</ele><time>2026-04-26T16:21:28Z</time></trkpt><trkpt lat="43.414528491428754" lon="12.811874810199395"><ele>335.3333333333333</ele><time>2026-04-26T16:21:29Z</time></trkpt><trkpt lat="43.41472368503287" lon="12.811800824534973"><ele>339.6666666666667</ele><time>2026-04-26T16:21:30Z</time></trkpt><trkpt lat="43.41491304137547" lon="12.811713804157353"><ele>344.0</ele><time>2026-04-26T16:21:31Z</time></trkpt><trkpt lat="43.41506333334843" lon="12.81163625982081"><ele>344.0</ele><time>2026-04-26T16:21:32Z</time></trkpt><trkpt lat="43.4151922715459" lon="12.811518972243395"><ele>344.0</ele><time>2026-04-26T16:21:33Z</time></trkpt><trkpt lat="43.41531972011716" lon="12.811340116746724"><ele>344.0</ele><time>2026-04-26T16:21:34Z</time></trkpt><trkpt lat="43.415444821421254" lon="12.811150669407889"><ele>345.0</ele><time>2026-04-26T16:21:35Z</time></trkpt><trkpt lat="43.41560187291073" lon="12.811035222198273"><ele>346.0</ele><time>2026-04-26T16:21:36Z</time></trkpt><trkpt lat="43.41576598048583" lon="12.81091808575618"><ele>347.0</ele><time>2026-04-26T16:21:37Z</time></trkpt><trkpt lat="43.41591948336276" lon="12.810783401857503"><ele>347.0</ele><time>2026-04-26T16:21:38Z</time></trkpt><trkpt lat="43.41609684905979" lon="12.810669238780337"><ele>347.0</ele><time>2026-04-26T16:21:39Z</time></trkpt><trkpt lat="43.416257852997376" lon="12.810537780007785"><ele>347.0</ele><time>2026-04-26T16:21:40Z</time></trkpt><trkpt lat="43.41640013739284" lon="12.810365883097603"><ele>348.33333333333337</ele><time>2026-04-26T16:21:41Z</time></trkpt><trkpt lat="43.41654968056818" lon="12.81020241238006"><ele>349.6666666666667</ele><time>2026-04-26T16:21:42Z</time></trkpt><trkpt lat="43.41668087598641" lon="12.809999805437329"><ele>351.0</ele><time>2026-04-26T16:21:43Z</time></trkpt><trkpt lat="43.41680525299565" lon="12.80979594977366"><ele>351.0</ele><time>2026-04-26T16:21:44Z</time></trkpt><trkpt lat="43.41692306103226" lon="12.809579029433765"><ele>351.0</ele><time>2026-04-26T16:21:45Z</time></trkpt><trkpt lat="43.41707776307095" lon="12.809398742196525"><ele>351.0</ele><time>2026-04-26T16:21:46Z</time></trkpt><trkpt lat="43.41722024321128" lon="12.809226270953014"><ele>349.3333333333333</ele><time>2026-04-26T16:21:47Z</time></trkpt><trkpt lat="43.41737518128346" lon="12.809054130608157"><ele>347.66666666666663</ele><time>2026-04-26T16:21:48Z</time></trkpt><trkpt lat="43.417534028579496" lon="12.808888020454136"><ele>346.0</ele><time>2026-04-26T16:21:49Z</time></trkpt><trkpt lat="43.41769118646843" lon="12.808724223881802"><ele>346.0</ele><time>2026-04-26T16:21:50Z</time></trkpt><trkpt lat="43.417847322352735" lon="12.808560613139463"><ele>346.0</ele><time>2026-04-26T16:21:51Z</time></trkpt><trkpt lat="43.41800047922974" lon="12.808399506939297"><ele>346.0</ele><time>2026-04-26T16:21:52Z</time></trkpt><trkpt lat="43.41813766616887" lon="12.808209589769326"><ele>347.0</ele><time>2026-04-26T16:21:53Z</time></trkpt><trkpt lat="43.41828801707221" lon="12.808043489056912"><ele>348.0</ele><time>2026-04-26T16:21:54Z</time></trkpt><trkpt lat="43.418424809431706" lon="12.807860639858484"><ele>349.0</ele><time>2026-04-26T16:21:55Z</time></trkpt><trkpt lat="43.41854150449181" lon="12.807647449515752"><ele>347.66666666666663</ele><time>2026-04-26T16:21:56Z</time></trkpt><trkpt lat="43.41866873765605" lon="12.80743949516244"><ele>346.3333333333333</ele><time>2026-04-26T16:21:57Z</time></trkpt><trkpt lat="43.41876725642914" lon="12.807207155400917"><ele>345.0</ele><time>2026-04-26T16:21:58Z</time></trkpt><trkpt lat="43.418879580928305" lon="12.806992123218896"><ele>347.3333333333333</ele><time>2026-04-26T16:21:59Z</time></trkpt><trkpt lat="43.41900459120002" lon="12.806793525699412"><ele>349.66666666666663</ele><time>2026-04-26T16:22:00Z</time></trkpt><trkpt lat="43.41913882183173" lon="12.806589602714482"><ele>352.0</ele><time>2026-04-26T16:22:01Z</time></trkpt><trkpt lat="43.41927146598034" lon="12.80638958377154"><ele>352.0</ele><time>2026-04-26T16:22:02Z</time></trkpt><trkpt lat="43.41939341101115" lon="12.80620569841504"><ele>352.0</ele><time>2026-04-26T16:22:03Z</time></trkpt><trkpt lat="43.419504976193764" lon="12.806040375866704"><ele>352.0</ele><time>2026-04-26T16:22:04Z</time></trkpt><trkpt lat="43.41959006141316" lon="12.805896523511942"><ele>356.0</ele><time>2026-04-26T16:22:05Z</time></trkpt><trkpt lat="43.41964973558593" lon="12.805750756934593"><ele>360.0</ele><time>2026-04-26T16:22:06Z</time></trkpt><trkpt lat="43.41963970642048" lon="12.805588336314402"><ele>364.0</ele><time>2026-04-26T16:22:07Z</time></trkpt><trkpt lat="43.41958899951005" lon="12.805405002656874"><ele>368.0</ele><time>2026-04-26T16:22:08Z</time></trkpt><trkpt lat="43.41950141336144" lon="12.805225373045094"><ele>369.0</ele><time>2026-04-26T16:22:09Z</time></trkpt><trkpt lat="43.41938830341206" lon="12.805000140195377"><ele>370.0</ele><time>2026-04-26T16:22:10Z</time></trkpt><trkpt lat="43.41927607844365" lon="12.80480527049714"><ele>371.0</ele><time>2026-04-26T16:22:11Z</time></trkpt><trkpt lat="43.41921145441461" lon="12.804582299098803"><ele>371.0</ele><time>2026-04-26T16:22:12Z</time></trkpt><trkpt lat="43.419158219612285" lon="12.804355865883224"><ele>371.0</ele><time>2026-04-26T16:22:13Z</time></trkpt><trkpt lat="43.4191339364127" lon="12.804104478203376"><ele>371.0</ele><time>2026-04-26T16:22:14Z</time></trkpt><trkpt lat="43.41912636525692" lon="12.803839614249057"><ele>370.0</ele><time>2026-04-26T16:22:15Z</time></trkpt><trkpt lat="43.41912810413076" lon="12.803565615884997"><ele>369.0</ele><time>2026-04-26T16:22:16Z</time></trkpt><trkpt lat="43.41914335143706" lon="12.803301051368818"><ele>368.0</ele><time>2026-04-26T16:22:17Z</time></trkpt><trkpt lat="43.41916517236165" lon="12.803043220509021"><ele>367.6666666666667</ele><time>2026-04-26T16:22:18Z</time></trkpt><trkpt lat="43.41920023123169" lon="12.802778808402705"><ele>367.3333333333333</ele><time>2026-04-26T16:22:19Z</time></trkpt><trkpt lat="43.419237027382685" lon="12.802551278253594"><ele>367.0</ele><time>2026-04-26T16:22:20Z</time></trkpt><trkpt lat="43.41926938559166" lon="12.802368909686887"><ele>371.0</ele><time>2026-04-26T16:22:21Z</time></trkpt><trkpt lat="43.419341939919654" lon="12.802227036841773"><ele>375.0</ele><time>2026-04-26T16:22:22Z</time></trkpt><trkpt lat="43.419499621727766" lon="12.80212702128182"><ele>379.0</ele><time>2026-04-26T16:22:23Z</time></trkpt><trkpt lat="43.41964273814847" lon="12.801976838331315"><ele>375.0</ele><time>2026-04-26T16:22:24Z</time></trkpt><trkpt lat="43.419788493325754" lon="12.80182421567678"><ele>371.0</ele><time>2026-04-26T16:22:25Z</time></trkpt><trkpt lat="43.41992952460632" lon="12.801673435614193"><ele>367.0</ele><time>2026-04-26T16:22:26Z</time></trkpt><trkpt lat="43.42007569434476" lon="12.801517161766181"><ele>367.0</ele><time>2026-04-26T16:22:27Z</time></trkpt><trkpt lat="43.42024221895045" lon="12.80133912599545"><ele>367.0</ele><time>2026-04-26T16:22:28Z</time></trkpt><trkpt lat="43.42039391715754" lon="12.801176941499968"><ele>367.0</ele><time>2026-04-26T16:22:29Z</time></trkpt><trkpt lat="43.420548520305466" lon="12.800997065435963"><ele>365.66666666666663</ele><time>2026-04-26T16:22:30Z</time></trkpt><trkpt lat="43.420682652838565" lon="12.80080696661161"><ele>364.3333333333333</ele><time>2026-04-26T16:22:31Z</time></trkpt><trkpt lat="43.42079955047113" lon="12.800619730228668"><ele>363.0</ele><time>2026-04-26T16:22:32Z</time></trkpt><trkpt lat="43.42091125159344" lon="12.800399474980109"><ele>363.0</ele><time>2026-04-26T16:22:33Z</time></trkpt><trkpt lat="43.42102399260572" lon="12.800207407015181"><ele>363.0</ele><time>2026-04-26T16:22:34Z</time></trkpt><trkpt lat="43.421065431373215" lon="12.799976365450503"><ele>363.0</ele><time>2026-04-26T16:22:35Z</time></trkpt><trkpt lat="43.421099868331176" lon="12.799738032500453"><ele>370.33333333333337</ele><time>2026-04-26T16:22:36Z</time></trkpt><trkpt lat="43.42113985078331" lon="12.799471278055359"><ele>377.6666666666667</ele><time>2026-04-26T16:22:37Z</time></trkpt><trkpt lat="43.42118772915967" lon="12.799147675396837"><ele>385.0</ele><time>2026-04-26T16:22:38Z</time></trkpt><trkpt lat="43.42123347557004" lon="12.798838383494521"><ele>386.0</ele><time>2026-04-26T16:22:39Z</time></trkpt><trkpt lat="43.42127721003873" lon="12.798537783576231"><ele>387.0</ele><time>2026-04-26T16:22:40Z</time></trkpt><trkpt lat="43.42133028851199" lon="12.798276665057836"><ele>388.0</ele><time>2026-04-26T16:22:41Z</time></trkpt><trkpt lat="43.42135859371742" lon="12.797999021840445"><ele>375.6666666666667</ele><time>2026-04-26T16:22:42Z</time></trkpt><trkpt lat="43.4213948014934" lon="12.797754558165707"><ele>363.33333333333337</ele><time>2026-04-26T16:22:43Z</time></trkpt><trkpt lat="43.421425850747674" lon="12.79749778430495"><ele>351.0</ele><time>2026-04-26T16:22:44Z</time></trkpt><trkpt lat="43.421444792599694" lon="12.797258067459124"><ele>351.0</ele><time>2026-04-26T16:22:45Z</time></trkpt><trkpt lat="43.42145996239013" lon="12.79703763086604"><ele>351.0</ele><time>2026-04-26T16:22:46Z</time></trkpt><trkpt lat="43.421393224780346" lon="12.796827813998242"><ele>351.0</ele><time>2026-04-26T16:22:47Z</time></trkpt><trkpt lat="43.42131945942692" lon="12.796649028740266"><ele>350.6666666666667</ele><time>2026-04-26T16:22:48Z</time></trkpt><trkpt lat="43.421331389676915" lon="12.796487707916219"><ele>350.33333333333337</ele><time>2026-04-26T16:22:49Z</time></trkpt><trkpt lat="43.42139260789939" lon="12.796264958912886"><ele>350.0</ele><time>2026-04-26T16:22:50Z</time></trkpt><trkpt lat="43.42147224585152" lon="12.796035153164773"><ele>352.0</ele><time>2026-04-26T16:22:51Z</time></trkpt><trkpt lat="43.42156875140436" lon="12.795810590789225"><ele>354.0</ele><time>2026-04-26T16:22:52Z</time></trkpt><trkpt lat="43.421637978459415" lon="12.79557732707056"><ele>356.0</ele><time>2026-04-26T16:22:53Z</time></trkpt><trkpt lat="43.42167772540733" lon="12.795344772967038"><ele>358.6666666666667</ele><time>2026-04-26T16:22:54Z</time></trkpt><trkpt lat="43.42169457363525" lon="12.795115705001596"><ele>361.3333333333333</ele><time>2026-04-26T16:22:55Z</time></trkpt><trkpt lat="43.42165592563881" lon="12.794832776382716"><ele>364.0</ele><time>2026-04-26T16:22:56Z</time></trkpt><trkpt lat="43.42158929325426" lon="12.7945628837166"><ele>364.0</ele><time>2026-04-26T16:22:57Z</time></trkpt><trkpt lat="43.42150029493617" lon="12.7943652187924"><ele>364.0</ele><time>2026-04-26T16:22:58Z</time></trkpt><trkpt lat="43.42138905525196" lon="12.794158801257693"><ele>364.0</ele><time>2026-04-26T16:22:59Z</time></trkpt><trkpt lat="43.42123362000695" lon="12.793980045654694"><ele>370.0</ele><time>2026-04-26T16:23:00Z</time></trkpt><trkpt lat="43.42108704727284" lon="12.79386044641609"><ele>376.0</ele><time>2026-04-26T16:23:01Z</time></trkpt><trkpt lat="43.42096852350593" lon="12.793712302066984"><ele>382.0</ele><time>2026-04-26T16:23:02Z</time></trkpt><trkpt lat="43.42080264471919" lon="12.793632848548222"><ele>382.0</ele><time>2026-04-26T16:23:03Z</time></trkpt><trkpt lat="43.42062975718842" lon="12.793591073228036"><ele>382.0</ele><time>2026-04-26T16:23:04Z</time></trkpt><trkpt lat="43.4204313918887" lon="12.79361934499021"><ele>382.0</ele><time>2026-04-26T16:23:05Z</time></trkpt><trkpt lat="43.42023871028436" lon="12.793685587427708"><ele>381.3333333333333</ele><time>2026-04-26T16:23:06Z</time></trkpt><trkpt lat="43.42005001324661" lon="12.793683347133038"><ele>380.6666666666667</ele><time>2026-04-26T16:23:07Z</time></trkpt><trkpt lat="43.41985190159691" lon="12.793765360053476"><ele>380.0</ele><time>2026-04-26T16:23:08Z</time></trkpt><trkpt lat="43.41963734150329" lon="12.793818227260804"><ele>377.33333333333337</ele><time>2026-04-26T16:23:09Z</time></trkpt><trkpt lat="43.41943022812634" lon="12.793916209098214"><ele>374.6666666666667</ele><time>2026-04-26T16:23:10Z</time></trkpt><trkpt lat="43.419234611781725" lon="12.793980455994781"><ele>372.0</ele><time>2026-04-26T16:23:11Z</time></trkpt><trkpt lat="43.4190457305352" lon="12.794052569592827"><ele>372.0</ele><time>2026-04-26T16:23:12Z</time></trkpt><trkpt lat="43.418849157102855" lon="12.794144214046671"><ele>372.0</ele><time>2026-04-26T16:23:13Z</time></trkpt><trkpt lat="43.418682007883866" lon="12.794225707705719"><ele>372.0</ele><time>2026-04-26T16:23:14Z</time></trkpt><trkpt lat="43.418510576900125" lon="12.794319320759165"><ele>370.6666666666667</ele><time>2026-04-26T16:23:15Z</time></trkpt><trkpt lat="43.41835501557762" lon="12.79433871763432"><ele>369.33333333333337</ele><time>2026-04-26T16:23:16Z</time></trkpt><trkpt lat="43.41819162143197" lon="12.794358868780943"><ele>368.0</ele><time>2026-04-26T16:23:17Z</time></trkpt><trkpt lat="43.418050260329956" lon="12.79431737800672"><ele>366.0</ele><time>2026-04-26T16:23:18Z</time></trkpt><trkpt lat="43.41790572769894" lon="12.794249742331955"><ele>364.0</ele><time>2026-04-26T16:23:19Z</time></trkpt><trkpt lat="43.41775939161637" lon="12.794240271364021"><ele>362.0</ele><time>2026-04-26T16:23:20Z</time></trkpt><trkpt lat="43.417595361592326" lon="12.794249860225124"><ele>362.0</ele><time>2026-04-26T16:23:21Z</time></trkpt><trkpt lat="43.41743111231091" lon="12.79430093249698"><ele>362.0</ele><time>2026-04-26T16:23:22Z</time></trkpt><trkpt lat="43.41730227784093" lon="12.794441420859611"><ele>362.0</ele><time>2026-04-26T16:23:23Z</time></trkpt><trkpt lat="43.417153717721376" lon="12.7945991307626"><ele>363.6666666666667</ele><time>2026-04-26T16:23:24Z</time></trkpt><trkpt lat="43.417009759492025" lon="12.794761143234284"><ele>365.3333333333333</ele><time>2026-04-26T16:23:25Z</time></trkpt><trkpt lat="43.416860795620366" lon="12.79487804192716"><ele>367.0</ele><time>2026-04-26T16:23:26Z</time></trkpt><trkpt lat="43.416736042790276" lon="12.794984461338622"><ele>367.0</ele><time>2026-04-26T16:23:27Z</time></trkpt><trkpt lat="43.41656780117813" lon="12.794984678559292"><ele>367.0</ele><time>2026-04-26T16:23:28Z</time></trkpt><trkpt lat="43.4164132190325" lon="12.794976871922307"><ele>367.0</ele><time>2026-04-26T16:23:29Z</time></trkpt><trkpt lat="43.41629483060673" lon="12.79497842079332"><ele>367.0</ele><time>2026-04-26T16:23:30Z</time></trkpt><trkpt lat="43.41617579345854" lon="12.794892170350744"><ele>365.66666666666663</ele><time>2026-04-26T16:23:31Z</time></trkpt><trkpt lat="43.416071329333604" lon="12.794875954689557"><ele>364.3333333333333</ele><time>2026-04-26T16:23:32Z</time></trkpt><trkpt lat="43.41595124607729" lon="12.7945063177509"><ele>363.0</ele><time>2026-04-26T16:23:33Z</time></trkpt><trkpt lat="43.41582738028405" lon="12.794300875445312"><ele>363.0</ele><time>2026-04-26T16:23:34Z</time></trkpt><trkpt lat="43.41569963787365" lon="12.794093907031066"><ele>363.0</ele><time>2026-04-26T16:23:35Z</time></trkpt><trkpt lat="43.41558555534348" lon="12.793898091789773"><ele>363.0</ele><time>2026-04-26T16:23:36Z</time></trkpt><trkpt lat="43.41546562130279" lon="12.79373751607616"><ele>370.0</ele><time>2026-04-26T16:23:37Z</time></trkpt><trkpt lat="43.41539320085476" lon="12.793552614225634"><ele>377.0</ele><time>2026-04-26T16:23:38Z</time></trkpt><trkpt lat="43.41534349075961" lon="12.793346791302701"><ele>384.0</ele><time>2026-04-26T16:23:39Z</time></trkpt><trkpt lat="43.41530290930169" lon="12.793099542831714"><ele>388.33333333333337</ele><time>2026-04-26T16:23:40Z</time></trkpt><trkpt lat="43.41529282648872" lon="12.79286087507401"><ele>392.6666666666667</ele><time>2026-04-26T16:23:41Z</time></trkpt><trkpt lat="43.4153203849331" lon="12.792618136181728"><ele>397.0</ele><time>2026-04-26T16:23:42Z</time></trkpt><trkpt lat="43.41540215100836" lon="12.792381378926056"><ele>394.33333333333337</ele><time>2026-04-26T16:23:43Z</time></trkpt><trkpt lat="43.41555256728852" lon="12.792193572751824"><ele>391.66666666666663</ele><time>2026-04-26T16:23:44Z</time></trkpt><trkpt lat="43.41569908125725" lon="12.791994445975472"><ele>389.0</ele><time>2026-04-26T16:23:45Z</time></trkpt><trkpt lat="43.415855934847244" lon="12.791823529637018"><ele>389.0</ele><time>2026-04-26T16:23:46Z</time></trkpt><trkpt lat="43.41603900572491" lon="12.791687179274584"><ele>389.0</ele><time>2026-04-26T16:23:47Z</time></trkpt><trkpt lat="43.416221410064445" lon="12.79157639864306"><ele>389.0</ele><time>2026-04-26T16:23:48Z</time></trkpt><trkpt lat="43.416442475267935" lon="12.791498600397398"><ele>382.3333333333333</ele><time>2026-04-26T16:23:49Z</time></trkpt><trkpt lat="43.41661954094862" lon="12.791393564705325"><ele>375.66666666666663</ele><time>2026-04-26T16:23:50Z</time></trkpt><trkpt lat="43.416818803612976" lon="12.791302885870431"><ele>369.0</ele><time>2026-04-26T16:23:51Z</time></trkpt><trkpt lat="43.41704641801825" lon="12.791275739676607"><ele>369.0</ele><time>2026-04-26T16:23:52Z</time></trkpt><trkpt lat="43.41726230470142" lon="12.791222298193683"><ele>369.0</ele><time>2026-04-26T16:23:53Z</time></trkpt><trkpt lat="43.41747065597561" lon="12.791212623964432"><ele>369.0</ele><time>2026-04-26T16:23:54Z</time></trkpt><trkpt lat="43.41766918835612" lon="12.791176093802148"><ele>369.0</ele><time>2026-04-26T16:23:55Z</time></trkpt><trkpt lat="43.41786258583599" lon="12.791153360591142"><ele>369.0</ele><time>2026-04-26T16:23:56Z</time></trkpt><trkpt lat="43.4180408483428" lon="12.791178860581441"><ele>369.0</ele><time>2026-04-26T16:23:57Z</time></trkpt><trkpt lat="43.41813544761093" lon="12.791345809382648"><ele>370.3333333333333</ele><time>2026-04-26T16:23:58Z</time></trkpt><trkpt lat="43.41832728590984" lon="12.79125822886342"><ele>371.66666666666663</ele><time>2026-04-26T16:23:59Z</time></trkpt><trkpt lat="43.418392255016585" lon="12.791168270734687"><ele>373.0</ele><time>2026-04-26T16:24:00Z</time></trkpt><trkpt lat="43.41845742161074" lon="12.790967618311619"><ele>373.66666666666663</ele><time>2026-04-26T16:24:01Z</time></trkpt><trkpt lat="43.418522927928436" lon="12.790765402676652"><ele>374.3333333333333</ele><time>2026-04-26T16:24:02Z</time></trkpt><trkpt lat="43.41855437820711" lon="12.790518979176705"><ele>375.0</ele><time>2026-04-26T16:24:03Z</time></trkpt><trkpt lat="43.41862497719674" lon="12.790185503869216"><ele>381.0</ele><time>2026-04-26T16:24:04Z</time></trkpt><trkpt lat="43.41871030991737" lon="12.789901560937151"><ele>387.0</ele><time>2026-04-26T16:24:05Z</time></trkpt><trkpt lat="43.418794287110664" lon="12.789631859383148"><ele>393.0</ele><time>2026-04-26T16:24:06Z</time></trkpt><trkpt lat="43.418810224327224" lon="12.789381718306919"><ele>385.3333333333333</ele><time>2026-04-26T16:24:07Z</time></trkpt><trkpt lat="43.41888060425516" lon="12.789147801295806"><ele>377.66666666666663</ele><time>2026-04-26T16:24:08Z</time></trkpt><trkpt lat="43.4189840832121" lon="12.788922526340219"><ele>370.0</ele><time>2026-04-26T16:24:09Z</time></trkpt><trkpt lat="43.41904236128937" lon="12.788720104609531"><ele>370.0</ele><time>2026-04-26T16:24:10Z</time></trkpt><trkpt lat="43.41912685120761" lon="12.788517666297967"><ele>370.0</ele><time>2026-04-26T16:24:11Z</time></trkpt><trkpt lat="43.4192065158052" lon="12.788316693804054"><ele>370.0</ele><time>2026-04-26T16:24:12Z</time></trkpt><trkpt lat="43.41919955806471" lon="12.788099079906646"><ele>370.3333333333333</ele><time>2026-04-26T16:24:13Z</time></trkpt><trkpt lat="43.41923176046817" lon="12.787883633445265"><ele>370.6666666666667</ele><time>2026-04-26T16:24:14Z</time></trkpt><trkpt lat="43.41916815439058" lon="12.787631072449779"><ele>371.0</ele><time>2026-04-26T16:24:15Z</time></trkpt><trkpt lat="43.41887979102687" lon="12.787397750995497"><ele>375.0</ele><time>2026-04-26T16:24:16Z</time></trkpt><trkpt lat="43.418704125206844" lon="12.787276229580504"><ele>379.0</ele><time>2026-04-26T16:24:17Z</time></trkpt><trkpt lat="43.41850071337412" lon="12.787128163815245"><ele>383.0</ele><time>2026-04-26T16:24:18Z</time></trkpt><trkpt lat="43.41828749179822" lon="12.78705671667425"><ele>383.0</ele><time>2026-04-26T16:24:19Z</time></trkpt><trkpt lat="43.41808078573536" lon="12.786912062877507"><ele>383.0</ele><time>2026-04-26T16:24:20Z</time></trkpt><trkpt lat="43.417855402662006" lon="12.786873625250898"><ele>384.0</ele><time>2026-04-26T16:24:21Z</time></trkpt><trkpt lat="43.4176620241174" lon="12.786738704684723"><ele>385.0</ele><time>2026-04-26T16:24:22Z</time></trkpt><trkpt lat="43.41748908720772" lon="12.786565890634819"><ele>386.0</ele><time>2026-04-26T16:24:23Z</time></trkpt><trkpt lat="43.41733001829473" lon="12.786380822649646"><ele>386.0</ele><time>2026-04-26T16:24:24Z</time></trkpt><trkpt lat="43.41717088659643" lon="12.786197760807651"><ele>386.0</ele><time>2026-04-26T16:24:25Z</time></trkpt><trkpt lat="43.417009950359024" lon="12.786025700461789"><ele>386.0</ele><time>2026-04-26T16:24:26Z</time></trkpt><trkpt lat="43.416865331360526" lon="12.785819168165794"><ele>384.66666666666663</ele><time>2026-04-26T16:24:27Z</time></trkpt><trkpt lat="43.41673653087087" lon="12.785611204335044"><ele>383.3333333333333</ele><time>2026-04-26T16:24:28Z</time></trkpt><trkpt lat="43.41663782393875" lon="12.785348415745297"><ele>382.0</ele><time>2026-04-26T16:24:29Z</time></trkpt><trkpt lat="43.41656884020505" lon="12.785069518863464"><ele>379.66666666666663</ele><time>2026-04-26T16:24:30Z</time></trkpt><trkpt lat="43.41652311342373" lon="12.7847837560417"><ele>377.3333333333333</ele><time>2026-04-26T16:24:31Z</time></trkpt><trkpt lat="43.4164722351888" lon="12.78449785849376"><ele>375.0</ele><time>2026-04-26T16:24:32Z</time></trkpt><trkpt lat="43.41641206282543" lon="12.784216800860086"><ele>375.0</ele><time>2026-04-26T16:24:33Z</time></trkpt><trkpt lat="43.4163552723156" lon="12.783945380175899"><ele>375.0</ele><time>2026-04-26T16:24:34Z</time></trkpt><trkpt lat="43.41632093898765" lon="12.783654887336523"><ele>375.0</ele><time>2026-04-26T16:24:35Z</time></trkpt><trkpt lat="43.41623827658332" lon="12.783377821104065"><ele>375.3333333333333</ele><time>2026-04-26T16:24:36Z</time></trkpt><trkpt lat="43.41618191987613" lon="12.78309581915451"><ele>375.66666666666663</ele><time>2026-04-26T16:24:37Z</time></trkpt><trkpt lat="43.41612673263086" lon="12.782824334184234"><ele>376.0</ele><time>2026-04-26T16:24:38Z</time></trkpt><trkpt lat="43.41606989033733" lon="12.782544133357046"><ele>376.0</ele><time>2026-04-26T16:24:39Z</time></trkpt><trkpt lat="43.416013408241504" lon="12.78226737788597"><ele>376.0</ele><time>2026-04-26T16:24:40Z</time></trkpt><trkpt lat="43.41595775834059" lon="12.781995972149668"><ele>376.0</ele><time>2026-04-26T16:24:41Z</time></trkpt><trkpt lat="43.41590936785598" lon="12.781749569087376"><ele>377.3333333333333</ele><time>2026-04-26T16:24:42Z</time></trkpt><trkpt lat="43.41586797237548" lon="12.781514652015986"><ele>378.6666666666667</ele><time>2026-04-26T16:24:43Z</time></trkpt><trkpt lat="43.41584290891459" lon="12.781289811681178"><ele>380.0</ele><time>2026-04-26T16:24:44Z</time></trkpt><trkpt lat="43.41585429511074" lon="12.781078016361228"><ele>380.33333333333337</ele><time>2026-04-26T16:24:45Z</time></trkpt><trkpt lat="43.415899393741725" lon="12.780868916556285"><ele>380.6666666666667</ele><time>2026-04-26T16:24:46Z</time></trkpt><trkpt lat="43.4159891318328" lon="12.78065514783928"><ele>381.0</ele><time>2026-04-26T16:24:47Z</time></trkpt><trkpt lat="43.416097384499835" lon="12.780437393297603"><ele>381.0</ele><time>2026-04-26T16:24:48Z</time></trkpt><trkpt lat="43.416208489669444" lon="12.780210756386015"><ele>381.0</ele><time>2026-04-26T16:24:49Z</time></trkpt><trkpt lat="43.416319626861814" lon="12.780021196132259"><ele>381.0</ele><time>2026-04-26T16:24:50Z</time></trkpt><trkpt lat="43.416444988091406" lon="12.779867447697558"><ele>386.0</ele><time>2026-04-26T16:24:51Z</time></trkpt><trkpt lat="43.41659120866019" lon="12.779740044736432"><ele>391.0</ele><time>2026-04-26T16:24:52Z</time></trkpt><trkpt lat="43.416752746692715" lon="12.779599669276337"><ele>396.0</ele><time>2026-04-26T16:24:53Z</time></trkpt><trkpt lat="43.416897983418764" lon="12.779415006470453"><ele>400.66666666666663</ele><time>2026-04-26T16:24:54Z</time></trkpt><trkpt lat="43.41701669870939" lon="12.77918972523141"><ele>405.3333333333333</ele><time>2026-04-26T16:24:55Z</time></trkpt><trkpt lat="43.41711245132944" lon="12.778928544256175"><ele>410.0</ele><time>2026-04-26T16:24:56Z</time></trkpt><trkpt lat="43.41720824450961" lon="12.778653728403688"><ele>403.3333333333333</ele><time>2026-04-26T16:24:57Z</time></trkpt><trkpt lat="43.417331667104904" lon="12.778379413682195"><ele>396.66666666666663</ele><time>2026-04-26T16:24:58Z</time></trkpt><trkpt lat="43.41745945036914" lon="12.778143912948247"><ele>390.0</ele><time>2026-04-26T16:24:59Z</time></trkpt><trkpt lat="43.417577620166036" lon="12.77792893851364"><ele>390.0</ele><time>2026-04-26T16:25:00Z</time></trkpt><trkpt lat="43.417678481349704" lon="12.777753617424166"><ele>390.0</ele><time>2026-04-26T16:25:01Z</time></trkpt><trkpt lat="43.41777343368134" lon="12.777580660786711"><ele>390.0</ele><time>2026-04-26T16:25:02Z</time></trkpt><trkpt lat="43.4178602235639" lon="12.777419418084945"><ele>387.0</ele><time>2026-04-26T16:25:03Z</time></trkpt><trkpt lat="43.41794115904686" lon="12.77727180992449"><ele>384.0</ele><time>2026-04-26T16:25:04Z</time></trkpt><trkpt lat="43.41801433853837" lon="12.777138241984956"><ele>381.0</ele><time>2026-04-26T16:25:05Z</time></trkpt><trkpt lat="43.418084295366" lon="12.777008972092617"><ele>378.0</ele><time>2026-04-26T16:25:06Z</time></trkpt><trkpt lat="43.41816187387671" lon="12.776883092452932"><ele>379.75</ele><time>2026-04-26T16:25:07Z</time></trkpt><trkpt lat="43.41825162685626" lon="12.776780684923045"><ele>381.5</ele><time>2026-04-26T16:25:08Z</time></trkpt><trkpt lat="43.41835079771766" lon="12.776682464393021"><ele>383.25</ele><time>2026-04-26T16:25:09Z</time></trkpt><trkpt lat="43.418455793262254" lon="12.776593203927575"><ele>385.0</ele><time>2026-04-26T16:25:10Z</time></trkpt><trkpt lat="43.4185513580816" lon="12.776511892347836"><ele>385.0</ele><time>2026-04-26T16:25:11Z</time></trkpt><trkpt lat="43.41865232072257" lon="12.776440807857659"><ele>385.0</ele><time>2026-04-26T16:25:12Z</time></trkpt><trkpt lat="43.418742312055215" lon="12.776354766716304"><ele>385.0</ele><time>2026-04-26T16:25:13Z</time></trkpt><trkpt lat="43.41883391154441" lon="12.776251169278199"><ele>385.0</ele><time>2026-04-26T16:25:14Z</time></trkpt><trkpt lat="43.418923162109344" lon="12.776153952386819"><ele>385.33333333333337</ele><time>2026-04-26T16:25:15Z</time></trkpt><trkpt lat="43.41904281558067" lon="12.775999263506442"><ele>385.66666666666663</ele><time>2026-04-26T16:25:16Z</time></trkpt><trkpt lat="43.41917293952277" lon="12.775928033156047"><ele>386.0</ele><time>2026-04-26T16:25:17Z</time></trkpt><trkpt lat="43.419309966316476" lon="12.775848056560946"><ele>386.0</ele><time>2026-04-26T16:25:18Z</time></trkpt><trkpt lat="43.41943251222383" lon="12.775762318240862"><ele>386.0</ele><time>2026-04-26T16:25:19Z</time></trkpt><trkpt lat="43.41951057217411" lon="12.775714210471946"><ele>386.0</ele><time>2026-04-26T16:25:20Z</time></trkpt><trkpt lat="43.41963087890456" lon="12.775652842550906"><ele>386.0</ele><time>2026-04-26T16:25:21Z</time></trkpt><trkpt lat="43.4197589941412" lon="12.77559549757706"><ele>389.75</ele><time>2026-04-26T16:25:22Z</time></trkpt><trkpt lat="43.41988373850816" lon="12.775548924668009"><ele>393.5</ele><time>2026-04-26T16:25:23Z</time></trkpt><trkpt lat="43.42000767387908" lon="12.775499308206472"><ele>397.25</ele><time>2026-04-26T16:25:24Z</time></trkpt><trkpt lat="43.42011835122959" lon="12.77547307378717"><ele>401.0</ele><time>2026-04-26T16:25:25Z</time></trkpt><trkpt lat="43.420236470092256" lon="12.775417969788213"><ele>401.0</ele><time>2026-04-26T16:25:26Z</time></trkpt><trkpt lat="43.42042169291537" lon="12.775416148451418"><ele>401.0</ele><time>2026-04-26T16:25:27Z</time></trkpt><trkpt lat="43.420583048472736" lon="12.77538640337517"><ele>401.0</ele><time>2026-04-26T16:25:28Z</time></trkpt><trkpt lat="43.42077631045036" lon="12.775334716934296"><ele>404.0</ele><time>2026-04-26T16:25:29Z</time></trkpt><trkpt lat="43.42101495411274" lon="12.77537095596256"><ele>407.0</ele><time>2026-04-26T16:25:30Z</time></trkpt><trkpt lat="43.421254397032556" lon="12.775367398461492"><ele>408.66666666666663</ele><time>2026-04-26T16:25:31Z</time></trkpt><trkpt lat="43.42145915828989" lon="12.775346955988315"><ele>410.33333333333337</ele><time>2026-04-26T16:25:32Z</time></trkpt><trkpt lat="43.421653211087616" lon="12.775346490931371"><ele>412.0</ele><time>2026-04-26T16:25:33Z</time></trkpt><trkpt lat="43.42181139717755" lon="12.775323065025555"><ele>412.0</ele><time>2026-04-26T16:25:34Z</time></trkpt><trkpt lat="43.421991442668734" lon="12.775237656060545"><ele>412.0</ele><time>2026-04-26T16:25:35Z</time></trkpt><trkpt lat="43.422135136826576" lon="12.775197269977443"><ele>412.0</ele><time>2026-04-26T16:25:36Z</time></trkpt><trkpt lat="43.42225231695394" lon="12.775103678224582"><ele>408.25</ele><time>2026-04-26T16:25:37Z</time></trkpt><trkpt lat="43.42236992482349" lon="12.775007845417342"><ele>404.5</ele><time>2026-04-26T16:25:38Z</time></trkpt><trkpt lat="43.422495456506006" lon="12.774947888056323"><ele>400.75</ele><time>2026-04-26T16:25:39Z</time></trkpt><trkpt lat="43.42261099225513" lon="12.774890305493216"><ele>397.0</ele><time>2026-04-26T16:25:40Z</time></trkpt><trkpt lat="43.42271224078039" lon="12.774759556278731"><ele>397.0</ele><time>2026-04-26T16:25:41Z</time></trkpt><trkpt lat="43.422806817765405" lon="12.77462900784328"><ele>397.0</ele><time>2026-04-26T16:25:42Z</time></trkpt><trkpt lat="43.42288080597404" lon="12.774467462057686"><ele>397.0</ele><time>2026-04-26T16:25:43Z</time></trkpt><trkpt lat="43.42296239109747" lon="12.774329687537524"><ele>397.0</ele><time>2026-04-26T16:25:44Z</time></trkpt><trkpt lat="43.42304389012728" lon="12.774201646672536"><ele>396.33333333333337</ele><time>2026-04-26T16:25:45Z</time></trkpt><trkpt lat="43.423054521451675" lon="12.77396982575282"><ele>395.66666666666663</ele><time>2026-04-26T16:25:46Z</time></trkpt><trkpt lat="43.423067357766755" lon="12.773723423263597"><ele>395.0</ele><time>2026-04-26T16:25:47Z</time></trkpt><trkpt lat="43.42312616440346" lon="12.773460075451531"><ele>395.0</ele><time>2026-04-26T16:25:48Z</time></trkpt><trkpt lat="43.42320240933917" lon="12.773189144425782"><ele>395.0</ele><time>2026-04-26T16:25:49Z</time></trkpt><trkpt lat="43.423278615396335" lon="12.772920187408785"><ele>395.0</ele><time>2026-04-26T16:25:50Z</time></trkpt><trkpt lat="43.42334187553324" lon="12.772655197980237"><ele>394.0</ele><time>2026-04-26T16:25:51Z</time></trkpt><trkpt lat="43.423408888826934" lon="12.772375728388848"><ele>393.0</ele><time>2026-04-26T16:25:52Z</time></trkpt><trkpt lat="43.42347681810143" lon="12.772088080013113"><ele>392.0</ele><time>2026-04-26T16:25:53Z</time></trkpt><trkpt lat="43.423543196777004" lon="12.771797894624587"><ele>390.5</ele><time>2026-04-26T16:25:54Z</time></trkpt><trkpt lat="43.423608242321386" lon="12.771504591746732"><ele>389.0</ele><time>2026-04-26T16:25:55Z</time></trkpt><trkpt lat="43.423671676777666" lon="12.77120424745094"><ele>390.0</ele><time>2026-04-26T16:25:56Z</time></trkpt><trkpt lat="43.423737085881285" lon="12.770906827063719"><ele>391.0</ele><time>2026-04-26T16:25:57Z</time></trkpt><trkpt lat="43.42380613104841" lon="12.77061002346342"><ele>396.0</ele><time>2026-04-26T16:25:58Z</time></trkpt><trkpt lat="43.42387640896184" lon="12.770337699740287"><ele>401.0</ele><time>2026-04-26T16:25:59Z</time></trkpt><trkpt lat="43.42395591520275" lon="12.770049136767303"><ele>406.0</ele><time>2026-04-26T16:26:00Z</time></trkpt><trkpt lat="43.42401356154513" lon="12.769731280794112"><ele>406.0</ele><time>2026-04-26T16:26:01Z</time></trkpt><trkpt lat="43.42408460281273" lon="12.769429147253613"><ele>406.0</ele><time>2026-04-26T16:26:02Z</time></trkpt><trkpt lat="43.42415990989579" lon="12.769128126114925"><ele>404.33333333333337</ele><time>2026-04-26T16:26:03Z</time></trkpt><trkpt lat="43.42423025084806" lon="12.768844306039673"><ele>402.66666666666663</ele><time>2026-04-26T16:26:04Z</time></trkpt><trkpt lat="43.4242852437001" lon="12.768586888893497"><ele>401.0</ele><time>2026-04-26T16:26:05Z</time></trkpt><trkpt lat="43.424318921746114" lon="12.768336279955122"><ele>400.3333333333333</ele><time>2026-04-26T16:26:06Z</time></trkpt><trkpt lat="43.42434735578229" lon="12.768099176289732"><ele>399.66666666666663</ele><time>2026-04-26T16:26:07Z</time></trkpt><trkpt lat="43.424356609697" lon="12.767839978382492"><ele>399.0</ele><time>2026-04-26T16:26:08Z</time></trkpt><trkpt lat="43.42436252221907" lon="12.76758648714941"><ele>399.0</ele><time>2026-04-26T16:26:09Z</time></trkpt><trkpt lat="43.424290526910994" lon="12.76738629717425"><ele>399.0</ele><time>2026-04-26T16:26:10Z</time></trkpt><trkpt lat="43.42422286680803" lon="12.767166916830153"><ele>399.0</ele><time>2026-04-26T16:26:11Z</time></trkpt><trkpt lat="43.424107525768115" lon="12.76695487626537"><ele>402.33333333333337</ele><time>2026-04-26T16:26:12Z</time></trkpt><trkpt lat="43.42401622041229" lon="12.766766781402584"><ele>405.6666666666667</ele><time>2026-04-26T16:26:13Z</time></trkpt><trkpt lat="43.42392741857178" lon="12.766605433656201"><ele>409.0</ele><time>2026-04-26T16:26:14Z</time></trkpt><trkpt lat="43.423796890960574" lon="12.76649694224783"><ele>409.0</ele><time>2026-04-26T16:26:15Z</time></trkpt><trkpt lat="43.423654870021245" lon="12.766404707924712"><ele>409.0</ele><time>2026-04-26T16:26:16Z</time></trkpt><trkpt lat="43.42352849289418" lon="12.76629381600703"><ele>409.0</ele><time>2026-04-26T16:26:17Z</time></trkpt><trkpt lat="43.42341003770691" lon="12.766155443255046"><ele>412.6666666666667</ele><time>2026-04-26T16:26:18Z</time></trkpt><trkpt lat="43.42329049079986" lon="12.766000222674686"><ele>416.33333333333337</ele><time>2026-04-26T16:26:19Z</time></trkpt><trkpt lat="43.42315671210028" lon="12.765817278047589"><ele>420.0</ele><time>2026-04-26T16:26:20Z</time></trkpt><trkpt lat="43.42301851466995" lon="12.765632777243686"><ele>419.66666666666663</ele><time>2026-04-26T16:26:21Z</time></trkpt><trkpt lat="43.42288452121953" lon="12.765424730397372"><ele>419.3333333333333</ele><time>2026-04-26T16:26:22Z</time></trkpt><trkpt lat="43.42275180638907" lon="12.765211267576843"><ele>419.0</ele><time>2026-04-26T16:26:23Z</time></trkpt><trkpt lat="43.42262186096925" lon="12.765028196953729"><ele>419.0</ele><time>2026-04-26T16:26:24Z</time></trkpt><trkpt lat="43.42249515196682" lon="12.764868768569738"><ele>419.0</ele><time>2026-04-26T16:26:25Z</time></trkpt><trkpt lat="43.42237763892552" lon="12.764715577694895"><ele>419.0</ele><time>2026-04-26T16:26:26Z</time></trkpt><trkpt lat="43.42228556276975" lon="12.764470487677665"><ele>417.0</ele><time>2026-04-26T16:26:27Z</time></trkpt><trkpt lat="43.4222143168703" lon="12.7642236859915"><ele>415.0</ele><time>2026-04-26T16:26:28Z</time></trkpt><trkpt lat="43.42214534724822" lon="12.763996037396364"><ele>413.0</ele><time>2026-04-26T16:26:29Z</time></trkpt><trkpt lat="43.422033384558816" lon="12.763806640312335"><ele>413.0</ele><time>2026-04-26T16:26:30Z</time></trkpt><trkpt lat="43.42189138043335" lon="12.76364062505382"><ele>413.0</ele><time>2026-04-26T16:26:31Z</time></trkpt><trkpt lat="43.42172489293578" lon="12.763474201516692"><ele>413.0</ele><time>2026-04-26T16:26:32Z</time></trkpt><trkpt lat="43.42157461075768" lon="12.763323613170229"><ele>415.0</ele><time>2026-04-26T16:26:33Z</time></trkpt><trkpt lat="43.42144638117039" lon="12.763194805116642"><ele>417.0</ele><time>2026-04-26T16:26:34Z</time></trkpt><trkpt lat="43.42135505351397" lon="12.76305385627718"><ele>419.0</ele><time>2026-04-26T16:26:35Z</time></trkpt><trkpt lat="43.421277888698135" lon="12.762875522955639"><ele>421.0</ele><time>2026-04-26T16:26:36Z</time></trkpt><trkpt lat="43.4212259028715" lon="12.762635951275861"><ele>421.33333333333337</ele><time>2026-04-26T16:26:37Z</time></trkpt><trkpt lat="43.42118979194801" lon="12.762369744802504"><ele>421.66666666666663</ele><time>2026-04-26T16:26:38Z</time></trkpt><trkpt lat="43.42112438158166" lon="12.76210668359425"><ele>422.0</ele><time>2026-04-26T16:26:39Z</time></trkpt><trkpt lat="43.42105903434263" lon="12.761834000563553"><ele>421.0</ele><time>2026-04-26T16:26:40Z</time></trkpt><trkpt lat="43.42098220964235" lon="12.761577176750812"><ele>420.0</ele><time>2026-04-26T16:26:41Z</time></trkpt><trkpt lat="43.42090808665829" lon="12.7613051000213"><ele>419.0</ele><time>2026-04-26T16:26:42Z</time></trkpt><trkpt lat="43.420827990501" lon="12.761027424850562"><ele>419.0</ele><time>2026-04-26T16:26:43Z</time></trkpt><trkpt lat="43.42074955917353" lon="12.760769076649781"><ele>419.0</ele><time>2026-04-26T16:26:44Z</time></trkpt><trkpt lat="43.42067006638404" lon="12.760529098767655"><ele>419.0</ele><time>2026-04-26T16:26:45Z</time></trkpt><trkpt lat="43.42055630564365" lon="12.760321083099681"><ele>417.66666666666663</ele><time>2026-04-26T16:26:46Z</time></trkpt><trkpt lat="43.42043579456884" lon="12.760147113785566"><ele>416.33333333333337</ele><time>2026-04-26T16:26:47Z</time></trkpt><trkpt lat="43.420328203120704" lon="12.759986096401136"><ele>415.0</ele><time>2026-04-26T16:26:48Z</time></trkpt><trkpt lat="43.4202272465723" lon="12.7598359053007"><ele>415.0</ele><time>2026-04-26T16:26:49Z</time></trkpt><trkpt lat="43.42017436169408" lon="12.759687978395958"><ele>415.0</ele><time>2026-04-26T16:26:50Z</time></trkpt><trkpt lat="43.42020397437205" lon="12.759592324811932"><ele>415.0</ele><time>2026-04-26T16:26:51Z</time></trkpt><trkpt lat="43.42028156711879" lon="12.759431565672845"><ele>415.0</ele><time>2026-04-26T16:26:52Z</time></trkpt><trkpt lat="43.420402640631906" lon="12.759297844835189"><ele>417.0</ele><time>2026-04-26T16:26:53Z</time></trkpt><trkpt lat="43.420559657234875" lon="12.759158671649223"><ele>419.0</ele><time>2026-04-26T16:26:54Z</time></trkpt><trkpt lat="43.42071213245515" lon="12.758996905488779"><ele>421.0</ele><time>2026-04-26T16:26:55Z</time></trkpt><trkpt lat="43.42086181393188" lon="12.758830094726658"><ele>421.0</ele><time>2026-04-26T16:26:56Z</time></trkpt><trkpt lat="43.420993973303574" lon="12.758661117222275"><ele>421.0</ele><time>2026-04-26T16:26:57Z</time></trkpt><trkpt lat="43.42110653241416" lon="12.758533527860756"><ele>421.0</ele><time>2026-04-26T16:26:58Z</time></trkpt><trkpt lat="43.42119959495712" lon="12.758428880310074"><ele>421.0</ele><time>2026-04-26T16:26:59Z</time></trkpt><trkpt lat="43.421256256886885" lon="12.758326059364723"><ele>418.0</ele><time>2026-04-26T16:27:00Z</time></trkpt><trkpt lat="43.42128983034849" lon="12.758187234963541"><ele>415.0</ele><time>2026-04-26T16:27:01Z</time></trkpt><trkpt lat="43.421303760294435" lon="12.758035874471325"><ele>412.0</ele><time>2026-04-26T16:27:02Z</time></trkpt><trkpt lat="43.42116563819777" lon="12.757759428630058"><ele>410.6666666666667</ele><time>2026-04-26T16:27:03Z</time></trkpt><trkpt lat="43.42106353068876" lon="12.757588501602656"><ele>409.33333333333337</ele><time>2026-04-26T16:27:04Z</time></trkpt><trkpt lat="43.420930616750354" lon="12.757421424885882"><ele>408.0</ele><time>2026-04-26T16:27:05Z</time></trkpt><trkpt lat="43.42084209077099" lon="12.75722775378692"><ele>408.0</ele><time>2026-04-26T16:27:06Z</time></trkpt><trkpt lat="43.42076601535606" lon="12.757048520620764"><ele>408.0</ele><time>2026-04-26T16:27:07Z</time></trkpt><trkpt lat="43.42068610995678" lon="12.756909886021806"><ele>408.0</ele><time>2026-04-26T16:27:08Z</time></trkpt><trkpt lat="43.420581664431474" lon="12.75679769650883"><ele>408.0</ele><time>2026-04-26T16:27:09Z</time></trkpt><trkpt lat="43.42043417703815" lon="12.756749378665475"><ele>409.75</ele><time>2026-04-26T16:27:10Z</time></trkpt><trkpt lat="43.420306560176414" lon="12.756724065971218"><ele>411.5</ele><time>2026-04-26T16:27:11Z</time></trkpt><trkpt lat="43.4201773953881" lon="12.75677029604607"><ele>413.25</ele><time>2026-04-26T16:27:12Z</time></trkpt><trkpt lat="43.42007482203292" lon="12.756674453680954"><ele>415.0</ele><time>2026-04-26T16:27:13Z</time></trkpt><trkpt lat="43.42004418097245" lon="12.756532346361979"><ele>415.0</ele><time>2026-04-26T16:27:14Z</time></trkpt><trkpt lat="43.42005632485518" lon="12.756382894723417"><ele>415.0</ele><time>2026-04-26T16:27:15Z</time></trkpt><trkpt lat="43.42013300018099" lon="12.75624215148445"><ele>415.0</ele><time>2026-04-26T16:27:16Z</time></trkpt><trkpt lat="43.420255178520144" lon="12.756133322729937"><ele>415.0</ele><time>2026-04-26T16:27:17Z</time></trkpt><trkpt lat="43.42036926001976" lon="12.755960411580118"><ele>414.33333333333337</ele><time>2026-04-26T16:27:18Z</time></trkpt><trkpt lat="43.420469829756236" lon="12.755821759476355"><ele>413.66666666666663</ele><time>2026-04-26T16:27:19Z</time></trkpt><trkpt lat="43.42056636729876" lon="12.755641896319965"><ele>413.0</ele><time>2026-04-26T16:27:20Z</time></trkpt><trkpt lat="43.42062412266506" lon="12.75544168182195"><ele>414.5</ele><time>2026-04-26T16:27:21Z</time></trkpt><trkpt lat="43.420674705796166" lon="12.755234219243974"><ele>416.0</ele><time>2026-04-26T16:27:22Z</time></trkpt><trkpt lat="43.420714624571616" lon="12.75504268752488"><ele>417.5</ele><time>2026-04-26T16:27:23Z</time></trkpt><trkpt lat="43.42073342976401" lon="12.754877943999002"><ele>419.0</ele><time>2026-04-26T16:27:24Z</time></trkpt><trkpt lat="43.420806502441856" lon="12.75474485319584"><ele>419.0</ele><time>2026-04-26T16:27:25Z</time></trkpt><trkpt lat="43.420917269520146" lon="12.754655699399768"><ele>419.0</ele><time>2026-04-26T16:27:26Z</time></trkpt><trkpt lat="43.42104700701465" lon="12.754610810352316"><ele>419.0</ele><time>2026-04-26T16:27:27Z</time></trkpt><trkpt lat="43.42118743227845" lon="12.75457923467916"><ele>419.0</ele><time>2026-04-26T16:27:28Z</time></trkpt><trkpt lat="43.42132120403517" lon="12.754531559659307"><ele>420.66666666666663</ele><time>2026-04-26T16:27:29Z</time></trkpt><trkpt lat="43.4214241963421" lon="12.754402648805947"><ele>422.33333333333337</ele><time>2026-04-26T16:27:30Z</time></trkpt><trkpt lat="43.42151060201377" lon="12.754234809290296"><ele>424.0</ele><time>2026-04-26T16:27:31Z</time></trkpt><trkpt lat="43.421584735246846" lon="12.754032469784482"><ele>424.0</ele><time>2026-04-26T16:27:32Z</time></trkpt><trkpt lat="43.42165311596025" lon="12.753866469459416"><ele>424.0</ele><time>2026-04-26T16:27:33Z</time></trkpt><trkpt lat="43.42170630572575" lon="12.753691525544125"><ele>424.0</ele><time>2026-04-26T16:27:34Z</time></trkpt><trkpt lat="43.42175650936788" lon="12.753525261781238"><ele>424.0</ele><time>2026-04-26T16:27:35Z</time></trkpt><trkpt lat="43.421780971376364" lon="12.753350473838223"><ele>423.0</ele><time>2026-04-26T16:27:36Z</time></trkpt><trkpt lat="43.42181254869629" lon="12.753182600508806"><ele>422.0</ele><time>2026-04-26T16:27:37Z</time></trkpt><trkpt lat="43.42184702178167" lon="12.753014291723975"><ele>421.0</ele><time>2026-04-26T16:27:38Z</time></trkpt><trkpt lat="43.42187633533708" lon="12.752833487282421"><ele>420.0</ele><time>2026-04-26T16:27:39Z</time></trkpt><trkpt lat="43.4219041996909" lon="12.752657599138434"><ele>418.5</ele><time>2026-04-26T16:27:40Z</time></trkpt><trkpt lat="43.42193873835118" lon="12.752474069257707"><ele>417.0</ele><time>2026-04-26T16:27:41Z</time></trkpt><trkpt lat="43.42195763470152" lon="12.752284687510423"><ele>415.5</ele><time>2026-04-26T16:27:42Z</time></trkpt><trkpt lat="43.421999726969425" lon="12.752136500871709"><ele>414.0</ele><time>2026-04-26T16:27:43Z</time></trkpt><trkpt lat="43.42205901927459" lon="12.751988339149829"><ele>418.33333333333337</ele><time>2026-04-26T16:27:44Z</time></trkpt><trkpt lat="43.42216232454581" lon="12.751829714211144"><ele>422.6666666666667</ele><time>2026-04-26T16:27:45Z</time></trkpt><trkpt lat="43.42230338288432" lon="12.75171861060678"><ele>427.0</ele><time>2026-04-26T16:27:46Z</time></trkpt><trkpt lat="43.42241804431462" lon="12.751588551515237"><ele>427.0</ele><time>2026-04-26T16:27:47Z</time></trkpt><trkpt lat="43.4225293811715" lon="12.751487019433819"><ele>427.0</ele><time>2026-04-26T16:27:48Z</time></trkpt><trkpt lat="43.42266234156805" lon="12.751427453446631"><ele>427.0</ele><time>2026-04-26T16:27:49Z</time></trkpt><trkpt lat="43.42280580877591" lon="12.7514151872978"><ele>427.0</ele><time>2026-04-26T16:27:50Z</time></trkpt><trkpt lat="43.42293149244165" lon="12.751412297853028"><ele>439.0</ele><time>2026-04-26T16:27:51Z</time></trkpt><trkpt lat="43.42305700511284" lon="12.7513537326941"><ele>451.0</ele><time>2026-04-26T16:27:52Z</time></trkpt><trkpt lat="43.42321032681925" lon="12.751239383432932"><ele>463.0</ele><time>2026-04-26T16:27:53Z</time></trkpt><trkpt lat="43.423334558141434" lon="12.751086515060782"><ele>448.5</ele><time>2026-04-26T16:27:54Z</time></trkpt><trkpt lat="43.42338759208798" lon="12.750808654291939"><ele>434.0</ele><time>2026-04-26T16:27:55Z</time></trkpt><trkpt lat="43.42338970117557" lon="12.75046839286683"><ele>434.0</ele><time>2026-04-26T16:27:56Z</time></trkpt><trkpt lat="43.42346938083909" lon="12.750213993343326"><ele>434.0</ele><time>2026-04-26T16:27:57Z</time></trkpt><trkpt lat="43.42355757568501" lon="12.74997292658329"><ele>434.0</ele><time>2026-04-26T16:27:58Z</time></trkpt><trkpt lat="43.423658120022466" lon="12.749743859266953"><ele>438.0</ele><time>2026-04-26T16:27:59Z</time></trkpt><trkpt lat="43.423771384147884" lon="12.749558272636877"><ele>442.0</ele><time>2026-04-26T16:28:00Z</time></trkpt><trkpt lat="43.4238687907793" lon="12.74937349738909"><ele>446.0</ele><time>2026-04-26T16:28:01Z</time></trkpt><trkpt lat="43.42393464576434" lon="12.749184732107405"><ele>446.0</ele><time>2026-04-26T16:28:02Z</time></trkpt><trkpt lat="43.42397091785453" lon="12.74896787474965"><ele>446.0</ele><time>2026-04-26T16:28:03Z</time></trkpt><trkpt lat="43.4239852290528" lon="12.748751504137571"><ele>446.0</ele><time>2026-04-26T16:28:04Z</time></trkpt><trkpt lat="43.42396626835955" lon="12.748517606223212"><ele>443.0</ele><time>2026-04-26T16:28:05Z</time></trkpt><trkpt lat="43.423943469461996" lon="12.748284428349157"><ele>440.0</ele><time>2026-04-26T16:28:06Z</time></trkpt><trkpt lat="43.42387783376555" lon="12.748027858704647"><ele>437.0</ele><time>2026-04-26T16:28:07Z</time></trkpt><trkpt lat="43.42380386502091" lon="12.747824244307703"><ele>434.40000000000003</ele><time>2026-04-26T16:28:08Z</time></trkpt><trkpt lat="43.42377591937944" lon="12.747647258448882"><ele>431.80000000000007</ele><time>2026-04-26T16:28:09Z</time></trkpt><trkpt lat="43.42377202067664" lon="12.747516843767913"><ele>429.2</ele><time>2026-04-26T16:28:10Z</time></trkpt><trkpt lat="43.42382158409859" lon="12.747407148049119"><ele>426.6</ele><time>2026-04-26T16:28:11Z</time></trkpt><trkpt lat="43.423917826155645" lon="12.747323236935467"><ele>424.0</ele><time>2026-04-26T16:28:12Z</time></trkpt><trkpt lat="43.42403607221574" lon="12.74732491463397"><ele>424.0</ele><time>2026-04-26T16:28:13Z</time></trkpt><trkpt lat="43.42414817798821" lon="12.747412469133124"><ele>424.0</ele><time>2026-04-26T16:28:14Z</time></trkpt><trkpt lat="43.42425294005249" lon="12.74757812674365"><ele>424.0</ele><time>2026-04-26T16:28:15Z</time></trkpt><trkpt lat="43.424360267538525" lon="12.747751373485494"><ele>427.25</ele><time>2026-04-26T16:28:16Z</time></trkpt><trkpt lat="43.42445694122497" lon="12.747844405507374"><ele>430.5</ele><time>2026-04-26T16:28:17Z</time></trkpt><trkpt lat="43.42456827193235" lon="12.747908537008048"><ele>433.75</ele><time>2026-04-26T16:28:18Z</time></trkpt><trkpt lat="43.42471778758243" lon="12.747924775660659"><ele>437.0</ele><time>2026-04-26T16:28:19Z</time></trkpt><trkpt lat="43.424968800036226" lon="12.747822002055129"><ele>433.0</ele><time>2026-04-26T16:28:20Z</time></trkpt><trkpt lat="43.42511683988545" lon="12.747693509875601"><ele>429.0</ele><time>2026-04-26T16:28:21Z</time></trkpt><trkpt lat="43.42528342526483" lon="12.747624600897442"><ele>425.0</ele><time>2026-04-26T16:28:22Z</time></trkpt><trkpt lat="43.42549664730767" lon="12.747673789254819"><ele>424.66666666666663</ele><time>2026-04-26T16:28:23Z</time></trkpt><trkpt lat="43.4256725147304" lon="12.747683914047792"><ele>424.33333333333337</ele><time>2026-04-26T16:28:24Z</time></trkpt><trkpt lat="43.425845551775296" lon="12.747647052258996"><ele>424.0</ele><time>2026-04-26T16:28:25Z</time></trkpt><trkpt lat="43.42602264843616" lon="12.747623647978664"><ele>424.0</ele><time>2026-04-26T16:28:26Z</time></trkpt><trkpt lat="43.42623968887986" lon="12.747539329553994"><ele>424.0</ele><time>2026-04-26T16:28:27Z</time></trkpt><trkpt lat="43.42646362767378" lon="12.747335995384521"><ele>429.5</ele><time>2026-04-26T16:28:28Z</time></trkpt><trkpt lat="43.42668219284843" lon="12.747141812443619"><ele>435.0</ele><time>2026-04-26T16:28:29Z</time></trkpt><trkpt lat="43.42692803508545" lon="12.746937302538628"><ele>433.0</ele><time>2026-04-26T16:28:30Z</time></trkpt><trkpt lat="43.42713920775178" lon="12.746801914227968"><ele>431.0</ele><time>2026-04-26T16:28:31Z</time></trkpt><trkpt lat="43.427314999768875" lon="12.746690601909945"><ele>429.0</ele><time>2026-04-26T16:28:32Z</time></trkpt><trkpt lat="43.427480514959235" lon="12.74657935946973"><ele>429.0</ele><time>2026-04-26T16:28:33Z</time></trkpt><trkpt lat="43.42764918298491" lon="12.746441357049212"><ele>429.0</ele><time>2026-04-26T16:28:34Z</time></trkpt><trkpt lat="43.42783173037656" lon="12.746248173688272"><ele>429.0</ele><time>2026-04-26T16:28:35Z</time></trkpt><trkpt lat="43.42791946015952" lon="12.746025328995302"><ele>433.0</ele><time>2026-04-26T16:28:36Z</time></trkpt><trkpt lat="43.428045602380436" lon="12.74571840405012"><ele>437.0</ele><time>2026-04-26T16:28:37Z</time></trkpt><trkpt lat="43.42819076333482" lon="12.745462997882141"><ele>437.0</ele><time>2026-04-26T16:28:38Z</time></trkpt><trkpt lat="43.42833572088587" lon="12.745234990431722"><ele>437.0</ele><time>2026-04-26T16:28:39Z</time></trkpt><trkpt lat="43.42848449935996" lon="12.745021174848087"><ele>437.0</ele><time>2026-04-26T16:28:40Z</time></trkpt><trkpt lat="43.42862364311336" lon="12.744819225120564"><ele>436.3333333333333</ele><time>2026-04-26T16:28:41Z</time></trkpt><trkpt lat="43.42875750838729" lon="12.744628301810028"><ele>435.66666666666663</ele><time>2026-04-26T16:28:42Z</time></trkpt><trkpt lat="43.42889053382471" lon="12.74443500737648"><ele>435.0</ele><time>2026-04-26T16:28:43Z</time></trkpt><trkpt lat="43.42902957012735" lon="12.744265392007899"><ele>435.0</ele><time>2026-04-26T16:28:44Z</time></trkpt><trkpt lat="43.42915450749343" lon="12.744108349314999"><ele>435.0</ele><time>2026-04-26T16:28:45Z</time></trkpt><trkpt lat="43.429300627205016" lon="12.743984548199572"><ele>435.0</ele><time>2026-04-26T16:28:46Z</time></trkpt><trkpt lat="43.429451101457" lon="12.74384144405847"><ele>435.0</ele><time>2026-04-26T16:28:47Z</time></trkpt><trkpt lat="43.42959749339187" lon="12.74374058375117"><ele>435.0</ele><time>2026-04-26T16:28:48Z</time></trkpt><trkpt lat="43.42975623274957" lon="12.743642424066444"><ele>435.0</ele><time>2026-04-26T16:28:49Z</time></trkpt><trkpt lat="43.42986728847939" lon="12.743477782945748"><ele>439.66666666666663</ele><time>2026-04-26T16:28:50Z</time></trkpt><trkpt lat="43.42995974226183" lon="12.743287820101722"><ele>444.3333333333333</ele><time>2026-04-26T16:28:51Z</time></trkpt><trkpt lat="43.430030729508324" lon="12.743101320618777"><ele>449.0</ele><time>2026-04-26T16:28:52Z</time></trkpt><trkpt lat="43.43007489846616" lon="12.742862890965922"><ele>445.66666666666663</ele><time>2026-04-26T16:28:53Z</time></trkpt><trkpt lat="43.4301259768856" lon="12.74261728197437"><ele>442.33333333333337</ele><time>2026-04-26T16:28:54Z</time></trkpt><trkpt lat="43.430166306611845" lon="12.742391341167066"><ele>439.0</ele><time>2026-04-26T16:28:55Z</time></trkpt><trkpt lat="43.43020599642122" lon="12.742156566968449"><ele>439.0</ele><time>2026-04-26T16:28:56Z</time></trkpt><trkpt lat="43.43025430725307" lon="12.741930777027049"><ele>439.0</ele><time>2026-04-26T16:28:57Z</time></trkpt><trkpt lat="43.43029445618372" lon="12.741700597231041"><ele>439.0</ele><time>2026-04-26T16:28:58Z</time></trkpt><trkpt lat="43.430350389755496" lon="12.741427028072751"><ele>440.6666666666667</ele><time>2026-04-26T16:28:59Z</time></trkpt><trkpt lat="43.430409594224585" lon="12.741185438016997"><ele>442.33333333333337</ele><time>2026-04-26T16:29:00Z</time></trkpt><trkpt lat="43.430463588560116" lon="12.740945827459045"><ele>444.0</ele><time>2026-04-26T16:29:01Z</time></trkpt><trkpt lat="43.43051440453064" lon="12.740701734681684"><ele>444.0</ele><time>2026-04-26T16:29:02Z</time></trkpt><trkpt lat="43.43056733099221" lon="12.740465778467515"><ele>444.0</ele><time>2026-04-26T16:29:03Z</time></trkpt><trkpt lat="43.430616787500846" lon="12.740269282295458"><ele>444.0</ele><time>2026-04-26T16:29:04Z</time></trkpt><trkpt lat="43.430698782746795" lon="12.740108099227381"><ele>442.0</ele><time>2026-04-26T16:29:05Z</time></trkpt><trkpt lat="43.43080980691026" lon="12.739998970915869"><ele>440.0</ele><time>2026-04-26T16:29:06Z</time></trkpt><trkpt lat="43.4309447433611" lon="12.739930583122149"><ele>438.0</ele><time>2026-04-26T16:29:07Z</time></trkpt><trkpt lat="43.43109790248985" lon="12.7398896212727"><ele>436.0</ele><time>2026-04-26T16:29:08Z</time></trkpt><trkpt lat="43.43125628844272" lon="12.739828208951486"><ele>439.0</ele><time>2026-04-26T16:29:09Z</time></trkpt><trkpt lat="43.431420210163004" lon="12.739759728275558"><ele>442.0</ele><time>2026-04-26T16:29:10Z</time></trkpt><trkpt lat="43.431570612130876" lon="12.73968465616206"><ele>445.0</ele><time>2026-04-26T16:29:11Z</time></trkpt><trkpt lat="43.43179780654901" lon="12.739603784032173"><ele>445.0</ele><time>2026-04-26T16:29:12Z</time></trkpt><trkpt lat="43.4319763668507" lon="12.739552592224978"><ele>445.0</ele><time>2026-04-26T16:29:13Z</time></trkpt><trkpt lat="43.43215907195865" lon="12.73949585157191"><ele>445.0</ele><time>2026-04-26T16:29:14Z</time></trkpt><trkpt lat="43.43230232266728" lon="12.739462803079"><ele>445.75</ele><time>2026-04-26T16:29:15Z</time></trkpt><trkpt lat="43.43242176209161" lon="12.739399247709754"><ele>446.5</ele><time>2026-04-26T16:29:16Z</time></trkpt><trkpt lat="43.43254804084073" lon="12.739362075697517"><ele>447.25</ele><time>2026-04-26T16:29:17Z</time></trkpt><trkpt lat="43.43268831405512" lon="12.739359875655262"><ele>448.0</ele><time>2026-04-26T16:29:18Z</time></trkpt><trkpt lat="43.432822254567064" lon="12.739386147269986"><ele>448.0</ele><time>2026-04-26T16:29:19Z</time></trkpt><trkpt lat="43.43296083782356" lon="12.739445869777894"><ele>448.0</ele><time>2026-04-26T16:29:20Z</time></trkpt><trkpt lat="43.43309265273834" lon="12.73946783747428"><ele>448.0</ele><time>2026-04-26T16:29:21Z</time></trkpt><trkpt lat="43.43321886495958" lon="12.739446622620573"><ele>448.0</ele><time>2026-04-26T16:29:22Z</time></trkpt><trkpt lat="43.4333260097207" lon="12.739367177449406"><ele>446.4</ele><time>2026-04-26T16:29:23Z</time></trkpt><trkpt lat="43.43340894814417" lon="12.739270721063358"><ele>444.79999999999995</ele><time>2026-04-26T16:29:24Z</time></trkpt><trkpt lat="43.43347753998289" lon="12.73917895739754"><ele>443.2</ele><time>2026-04-26T16:29:25Z</time></trkpt><trkpt lat="43.433538900549785" lon="12.739086209702274"><ele>441.6</ele><time>2026-04-26T16:29:26Z</time></trkpt><trkpt lat="43.43356319824287" lon="12.73896495318198"><ele>440.0</ele><time>2026-04-26T16:29:27Z</time></trkpt><trkpt lat="43.43355585377703" lon="12.738841013377312"><ele>440.0</ele><time>2026-04-26T16:29:28Z</time></trkpt><trkpt lat="43.43350284378391" lon="12.738719539491235"><ele>440.0</ele><time>2026-04-26T16:29:29Z</time></trkpt><trkpt lat="43.433417083987585" lon="12.738592538978942"><ele>440.0</ele><time>2026-04-26T16:29:30Z</time></trkpt><trkpt lat="43.43334912821225" lon="12.738490129849716"><ele>440.0</ele><time>2026-04-26T16:29:31Z</time></trkpt><trkpt lat="43.43328442111298" lon="12.738357896550237"><ele>440.0</ele><time>2026-04-26T16:29:32Z</time></trkpt><trkpt lat="43.43321926190158" lon="12.738244393139214"><ele>441.3333333333333</ele><time>2026-04-26T16:29:33Z</time></trkpt><trkpt lat="43.43316154023726" lon="12.738144858649974"><ele>442.66666666666663</ele><time>2026-04-26T16:29:34Z</time></trkpt><trkpt lat="43.433115327718845" lon="12.7380433219153"><ele>444.0</ele><time>2026-04-26T16:29:35Z</time></trkpt><trkpt lat="43.43308780385979" lon="12.737936512470778"><ele>445.33333333333337</ele><time>2026-04-26T16:29:36Z</time></trkpt><trkpt lat="43.433066975431565" lon="12.737845739163049"><ele>446.6666666666667</ele><time>2026-04-26T16:29:37Z</time></trkpt><trkpt lat="43.43303940059847" lon="12.73769935469097"><ele>448.0</ele><time>2026-04-26T16:29:39Z</time></trkpt><trkpt lat="43.4330156074165" lon="12.73756539333799"><ele>448.83333333333337</ele><time>2026-04-26T16:29:41Z</time></trkpt><trkpt lat="43.43298198042691" lon="12.737430660221683"><ele>449.6666666666667</ele><time>2026-04-26T16:29:43Z</time></trkpt><trkpt lat="43.432948138030426" lon="12.737356672222706"><ele>450.5</ele><time>2026-04-26T16:29:44Z</time></trkpt><trkpt lat="43.432900475395186" lon="12.737283224084951"><ele>451.33333333333337</ele><time>2026-04-26T16:29:45Z</time></trkpt><trkpt lat="43.432853180974405" lon="12.737190597799485"><ele>452.1666666666667</ele><time>2026-04-26T16:29:46Z</time></trkpt><trkpt lat="43.43281041380676" lon="12.737087591523204"><ele>453.0</ele><time>2026-04-26T16:29:47Z</time></trkpt><trkpt lat="43.43277141176381" lon="12.736966452962282"><ele>450.5</ele><time>2026-04-26T16:29:48Z</time></trkpt><trkpt lat="43.4327385712161" lon="12.736831811602935"><ele>448.0</ele><time>2026-04-26T16:29:49Z</time></trkpt><trkpt lat="43.43273146937382" lon="12.736701835618172"><ele>445.5</ele><time>2026-04-26T16:29:50Z</time></trkpt><trkpt lat="43.43265564509987" lon="12.736530031760418"><ele>443.0</ele><time>2026-04-26T16:29:51Z</time></trkpt><trkpt lat="43.43260377680413" lon="12.736358684199264"><ele>443.0</ele><time>2026-04-26T16:29:52Z</time></trkpt><trkpt lat="43.432555320576" lon="12.736187700415686"><ele>443.0</ele><time>2026-04-26T16:29:53Z</time></trkpt><trkpt lat="43.4324970980256" lon="12.736003574298204"><ele>443.0</ele><time>2026-04-26T16:29:54Z</time></trkpt><trkpt lat="43.4324348070038" lon="12.735811688692255"><ele>443.0</ele><time>2026-04-26T16:29:55Z</time></trkpt><trkpt lat="43.43236481735263" lon="12.735616530503245"><ele>445.66666666666663</ele><time>2026-04-26T16:29:56Z</time></trkpt><trkpt lat="43.432274930396375" lon="12.735425153067673"><ele>448.33333333333337</ele><time>2026-04-26T16:29:57Z</time></trkpt><trkpt lat="43.43216123280432" lon="12.735235116737513"><ele>451.0</ele><time>2026-04-26T16:29:58Z</time></trkpt><trkpt lat="43.43204352962311" lon="12.735052744392705"><ele>451.33333333333337</ele><time>2026-04-26T16:29:59Z</time></trkpt><trkpt lat="43.43192602294301" lon="12.734867652549582"><ele>451.66666666666663</ele><time>2026-04-26T16:30:00Z</time></trkpt><trkpt lat="43.43181310297493" lon="12.73466963314804"><ele>452.0</ele><time>2026-04-26T16:30:01Z</time></trkpt><trkpt lat="43.43170906589684" lon="12.734460008532555"><ele>453.66666666666663</ele><time>2026-04-26T16:30:02Z</time></trkpt><trkpt lat="43.43162728044114" lon="12.734226940756896"><ele>455.33333333333337</ele><time>2026-04-26T16:30:03Z</time></trkpt><trkpt lat="43.43155903259903" lon="12.733977742468031"><ele>457.0</ele><time>2026-04-26T16:30:04Z</time></trkpt><trkpt lat="43.43148053765938" lon="12.733736780653171"><ele>455.0</ele><time>2026-04-26T16:30:05Z</time></trkpt><trkpt lat="43.43138480711017" lon="12.733494815826326"><ele>453.0</ele><time>2026-04-26T16:30:06Z</time></trkpt><trkpt lat="43.43127320266769" lon="12.733262047398217"><ele>451.0</ele><time>2026-04-26T16:30:07Z</time></trkpt><trkpt lat="43.43116109046909" lon="12.733043386479174"><ele>451.0</ele><time>2026-04-26T16:30:08Z</time></trkpt><trkpt lat="43.43105519290632" lon="12.732831591307537"><ele>451.0</ele><time>2026-04-26T16:30:09Z</time></trkpt><trkpt lat="43.4309503903401" lon="12.732644481752754"><ele>451.0</ele><time>2026-04-26T16:30:10Z</time></trkpt><trkpt lat="43.43085343951819" lon="12.73246894297172"><ele>452.0</ele><time>2026-04-26T16:30:11Z</time></trkpt><trkpt lat="43.430763963251465" lon="12.732325536294498"><ele>453.0</ele><time>2026-04-26T16:30:12Z</time></trkpt><trkpt lat="43.43065850039383" lon="12.732220986755834"><ele>454.0</ele><time>2026-04-26T16:30:13Z</time></trkpt><trkpt lat="43.43051919050904" lon="12.732171858848602"><ele>455.0</ele><time>2026-04-26T16:30:14Z</time></trkpt><trkpt lat="43.430352515033235" lon="12.732170165152954"><ele>455.0</ele><time>2026-04-26T16:30:15Z</time></trkpt><trkpt lat="43.430167417585196" lon="12.73219534201558"><ele>455.0</ele><time>2026-04-26T16:30:16Z</time></trkpt><trkpt lat="43.42997832643223" lon="12.732268302684405"><ele>455.0</ele><time>2026-04-26T16:30:17Z</time></trkpt><trkpt lat="43.429773218762065" lon="12.732366632114783"><ele>462.0</ele><time>2026-04-26T16:30:18Z</time></trkpt><trkpt lat="43.42956105800442" lon="12.732482090262534"><ele>469.0</ele><time>2026-04-26T16:30:19Z</time></trkpt><trkpt lat="43.4293506528039" lon="12.73260651766184"><ele>469.0</ele><time>2026-04-26T16:30:20Z</time></trkpt><trkpt lat="43.42915378971105" lon="12.73271710358838"><ele>469.0</ele><time>2026-04-26T16:30:21Z</time></trkpt><trkpt lat="43.428961104709735" lon="12.732800842452493"><ele>469.0</ele><time>2026-04-26T16:30:22Z</time></trkpt><trkpt lat="43.428760432432384" lon="12.73285611128622"><ele>463.33333333333337</ele><time>2026-04-26T16:30:23Z</time></trkpt><trkpt lat="43.42854665687531" lon="12.732884877545274"><ele>457.66666666666663</ele><time>2026-04-26T16:30:24Z</time></trkpt><trkpt lat="43.428330757151976" lon="12.732908517363404"><ele>452.0</ele><time>2026-04-26T16:30:25Z</time></trkpt><trkpt lat="43.42812170085339" lon="12.732932251181344"><ele>452.66666666666663</ele><time>2026-04-26T16:30:26Z</time></trkpt><trkpt lat="43.427947531108444" lon="12.732949729073916"><ele>453.33333333333337</ele><time>2026-04-26T16:30:27Z</time></trkpt><trkpt lat="43.42778799903509" lon="12.732961779458021"><ele>454.0</ele><time>2026-04-26T16:30:28Z</time></trkpt><trkpt lat="43.42763252442613" lon="12.732944368486088"><ele>454.0</ele><time>2026-04-26T16:30:29Z</time></trkpt><trkpt lat="43.42747033885406" lon="12.732838695172653"><ele>454.0</ele><time>2026-04-26T16:30:30Z</time></trkpt><trkpt lat="43.427315177179885" lon="12.732710692660374"><ele>454.0</ele><time>2026-04-26T16:30:31Z</time></trkpt><trkpt lat="43.427159973451154" lon="12.73254093792765"><ele>455.6666666666667</ele><time>2026-04-26T16:30:32Z</time></trkpt><trkpt lat="43.42700938385981" lon="12.732375653761018"><ele>457.33333333333337</ele><time>2026-04-26T16:30:33Z</time></trkpt><trkpt lat="43.42688271643869" lon="12.732215600031058"><ele>459.0</ele><time>2026-04-26T16:30:34Z</time></trkpt><trkpt lat="43.42677070179382" lon="12.732011802376977"><ele>466.33333333333337</ele><time>2026-04-26T16:30:35Z</time></trkpt><trkpt lat="43.4266654585459" lon="12.731798213908858"><ele>473.6666666666667</ele><time>2026-04-26T16:30:36Z</time></trkpt><trkpt lat="43.42653837500067" lon="12.731598646416131"><ele>481.0</ele><time>2026-04-26T16:30:37Z</time></trkpt><trkpt lat="43.42638314667581" lon="12.731420282655783"><ele>484.33333333333337</ele><time>2026-04-26T16:30:38Z</time></trkpt><trkpt lat="43.42622304479975" lon="12.731244812664285"><ele>487.66666666666663</ele><time>2026-04-26T16:30:39Z</time></trkpt><trkpt lat="43.42606067042617" lon="12.731064512473724"><ele>491.0</ele><time>2026-04-26T16:30:40Z</time></trkpt><trkpt lat="43.425886543041216" lon="12.730897832019545"><ele>491.0</ele><time>2026-04-26T16:30:41Z</time></trkpt><trkpt lat="43.42570491151566" lon="12.73076338077952"><ele>491.0</ele><time>2026-04-26T16:30:42Z</time></trkpt><trkpt lat="43.425538373325544" lon="12.73065331488626"><ele>491.0</ele><time>2026-04-26T16:30:43Z</time></trkpt><trkpt lat="43.42539476629973" lon="12.730560188739757"><ele>489.75</ele><time>2026-04-26T16:30:44Z</time></trkpt><trkpt lat="43.42527341566475" lon="12.730491667753602"><ele>488.5</ele><time>2026-04-26T16:30:45Z</time></trkpt><trkpt lat="43.425156501828624" lon="12.73047846238919"><ele>487.25</ele><time>2026-04-26T16:30:46Z</time></trkpt><trkpt lat="43.42502846077012" lon="12.730537643707436"><ele>486.0</ele><time>2026-04-26T16:30:47Z</time></trkpt><trkpt lat="43.42490923304088" lon="12.730664134387263"><ele>486.0</ele><time>2026-04-26T16:30:48Z</time></trkpt><trkpt lat="43.424774362489636" lon="12.730773586673319"><ele>486.0</ele><time>2026-04-26T16:30:49Z</time></trkpt><trkpt lat="43.424613046975544" lon="12.730842553247644"><ele>486.0</ele><time>2026-04-26T16:30:50Z</time></trkpt><trkpt lat="43.42442924215425" lon="12.7308759738482"><ele>492.33333333333337</ele><time>2026-04-26T16:30:51Z</time></trkpt><trkpt lat="43.42422782808789" lon="12.730900318640154"><ele>498.6666666666667</ele><time>2026-04-26T16:30:52Z</time></trkpt><trkpt lat="43.42401264708945" lon="12.730934152189352"><ele>505.0</ele><time>2026-04-26T16:30:53Z</time></trkpt><trkpt lat="43.42379113884355" lon="12.730961315483588"><ele>506.5</ele><time>2026-04-26T16:30:54Z</time></trkpt><trkpt lat="43.42355927892961" lon="12.731004185200701"><ele>508.0</ele><time>2026-04-26T16:30:55Z</time></trkpt><trkpt lat="43.42331904316583" lon="12.73104992345849"><ele>496.0</ele><time>2026-04-26T16:30:56Z</time></trkpt><trkpt lat="43.42309007727359" lon="12.731086367792095"><ele>484.0</ele><time>2026-04-26T16:30:57Z</time></trkpt><trkpt lat="43.42289887618257" lon="12.731115999968113"><ele>472.0</ele><time>2026-04-26T16:30:58Z</time></trkpt><trkpt lat="43.42273962156112" lon="12.73113586821985"><ele>472.0</ele><time>2026-04-26T16:30:59Z</time></trkpt><trkpt lat="43.42260610291773" lon="12.73115286595438"><ele>472.0</ele><time>2026-04-26T16:31:00Z</time></trkpt><trkpt lat="43.42249955445492" lon="12.731143973736694"><ele>472.0</ele><time>2026-04-26T16:31:01Z</time></trkpt><trkpt lat="43.42240185704508" lon="12.731081564844613"><ele>472.0</ele><time>2026-04-26T16:31:02Z</time></trkpt><trkpt lat="43.42232543674231" lon="12.730922191016505"><ele>481.33333333333337</ele><time>2026-04-26T16:31:03Z</time></trkpt><trkpt lat="43.42231884368144" lon="12.730714357394485"><ele>490.66666666666663</ele><time>2026-04-26T16:31:04Z</time></trkpt><trkpt lat="43.42238377512884" lon="12.730515837077585"><ele>500.0</ele><time>2026-04-26T16:31:05Z</time></trkpt><trkpt lat="43.42248163977361" lon="12.730358750225857"><ele>501.3333333333333</ele><time>2026-04-26T16:31:06Z</time></trkpt><trkpt lat="43.4225169794704" lon="12.730133726211433"><ele>502.66666666666663</ele><time>2026-04-26T16:31:07Z</time></trkpt><trkpt lat="43.42248102969136" lon="12.729856217468974"><ele>504.0</ele><time>2026-04-26T16:31:08Z</time></trkpt><trkpt lat="43.42245044995177" lon="12.729552593460523"><ele>509.33333333333337</ele><time>2026-04-26T16:31:09Z</time></trkpt><trkpt lat="43.4224674573201" lon="12.729286272057056"><ele>514.6666666666667</ele><time>2026-04-26T16:31:10Z</time></trkpt><trkpt lat="43.42246338703104" lon="12.729011306314739"><ele>520.0</ele><time>2026-04-26T16:31:11Z</time></trkpt><trkpt lat="43.422454732547294" lon="12.728787291661957"><ele>520.0</ele><time>2026-04-26T16:31:12Z</time></trkpt><trkpt lat="43.42244778217058" lon="12.72857786572215"><ele>520.0</ele><time>2026-04-26T16:31:13Z</time></trkpt><trkpt lat="43.42242482690132" lon="12.728367633004824"><ele>520.0</ele><time>2026-04-26T16:31:14Z</time></trkpt><trkpt lat="43.42222124770661" lon="12.728166622075278"><ele>508.6666666666667</ele><time>2026-04-26T16:31:15Z</time></trkpt><trkpt lat="43.42208173602475" lon="12.728029941227643"><ele>497.33333333333337</ele><time>2026-04-26T16:31:16Z</time></trkpt><trkpt lat="43.42195091026413" lon="12.727891432619428"><ele>486.0</ele><time>2026-04-26T16:31:17Z</time></trkpt><trkpt lat="43.42178796765414" lon="12.727801420272087"><ele>486.0</ele><time>2026-04-26T16:31:18Z</time></trkpt><trkpt lat="43.42163798678817" lon="12.727754052167256"><ele>486.0</ele><time>2026-04-26T16:31:19Z</time></trkpt><trkpt lat="43.42152498681447" lon="12.72777005466215"><ele>486.0</ele><time>2026-04-26T16:31:20Z</time></trkpt><trkpt lat="43.42140307263278" lon="12.727707554294366"><ele>486.0</ele><time>2026-04-26T16:31:21Z</time></trkpt><trkpt lat="43.421321220340744" lon="12.727580197256202"><ele>492.5</ele><time>2026-04-26T16:31:22Z</time></trkpt><trkpt lat="43.42124136986315" lon="12.727406804414885"><ele>499.0</ele><time>2026-04-26T16:31:23Z</time></trkpt><trkpt lat="43.421195115028475" lon="12.727211199698932"><ele>505.5</ele><time>2026-04-26T16:31:24Z</time></trkpt><trkpt lat="43.42115694821833" lon="12.72702342712296"><ele>512.0</ele><time>2026-04-26T16:31:25Z</time></trkpt><trkpt lat="43.42109427385278" lon="12.726878735242035"><ele>514.75</ele><time>2026-04-26T16:31:26Z</time></trkpt><trkpt lat="43.42101897875987" lon="12.726741997078074"><ele>517.5</ele><time>2026-04-26T16:31:27Z</time></trkpt><trkpt lat="43.42098890993936" lon="12.726642730786049"><ele>520.25</ele><time>2026-04-26T16:31:28Z</time></trkpt><trkpt lat="43.42096813260415" lon="12.726443950985626"><ele>523.0</ele><time>2026-04-26T16:31:29Z</time></trkpt><trkpt lat="43.42096932064289" lon="12.726213106616058"><ele>523.0</ele><time>2026-04-26T16:31:30Z</time></trkpt><trkpt lat="43.42096410918915" lon="12.726004903788553"><ele>523.0</ele><time>2026-04-26T16:31:31Z</time></trkpt><trkpt lat="43.42096102950476" lon="12.72583614539223"><ele>523.0</ele><time>2026-04-26T16:31:32Z</time></trkpt><trkpt lat="43.420950697827756" lon="12.725711903502418"><ele>523.0</ele><time>2026-04-26T16:31:33Z</time></trkpt><trkpt lat="43.42094547457878" lon="12.72559805050981"><ele>523.0</ele><time>2026-04-26T16:31:34Z</time></trkpt><trkpt lat="43.420953541505156" lon="12.725482180898522"><ele>523.0</ele><time>2026-04-26T16:31:35Z</time></trkpt><trkpt lat="43.420994650319486" lon="12.725370418055952"><ele>523.0</ele><time>2026-04-26T16:31:36Z</time></trkpt><trkpt lat="43.42101724884104" lon="12.725251145110157"><ele>523.0</ele><time>2026-04-26T16:31:37Z</time></trkpt><trkpt lat="43.421022047282754" lon="12.7251242540497"><ele>523.0</ele><time>2026-04-26T16:31:38Z</time></trkpt><trkpt lat="43.42102001042833" lon="12.72500957616621"><ele>523.0</ele><time>2026-04-26T16:31:39Z</time></trkpt><trkpt lat="43.4210079182229" lon="12.724917368427995"><ele>523.0</ele><time>2026-04-26T16:31:40Z</time></trkpt><trkpt lat="43.42096410615214" lon="12.724800151694662"><ele>523.0</ele><time>2026-04-26T16:31:41Z</time></trkpt><trkpt lat="43.42091527538292" lon="12.724687110046563"><ele>523.0</ele><time>2026-04-26T16:31:42Z</time></trkpt><trkpt lat="43.4208169423594" lon="12.72464279422741"><ele>523.0</ele><time>2026-04-26T16:31:43Z</time></trkpt><trkpt lat="43.42073105281821" lon="12.724629444811107"><ele>523.0</ele><time>2026-04-26T16:31:44Z</time></trkpt><trkpt lat="43.420528003287906" lon="12.724615841895078"><ele>527.6666666666667</ele><time>2026-04-26T16:31:45Z</time></trkpt><trkpt lat="43.42044955052176" lon="12.724549842579993"><ele>532.3333333333334</ele><time>2026-04-26T16:31:46Z</time></trkpt><trkpt lat="43.420383310451655" lon="12.724481745781944"><ele>537.0</ele><time>2026-04-26T16:31:47Z</time></trkpt><trkpt lat="43.42033085103308" lon="12.724422527620819"><ele>541.6666666666666</ele><time>2026-04-26T16:31:48Z</time></trkpt><trkpt lat="43.4203022185656" lon="12.724314544591794"><ele>546.3333333333333</ele><time>2026-04-26T16:31:49Z</time></trkpt><trkpt lat="43.42030036845404" lon="12.72418636143597"><ele>551.0</ele><time>2026-04-26T16:31:50Z</time></trkpt><trkpt lat="43.420325567318386" lon="12.724036776045812"><ele>551.0</ele><time>2026-04-26T16:31:51Z</time></trkpt><trkpt lat="43.42035195966395" lon="12.723892585685828"><ele>551.0</ele><time>2026-04-26T16:31:52Z</time></trkpt><trkpt lat="43.42036117031712" lon="12.723722153986763"><ele>551.0</ele><time>2026-04-26T16:31:53Z</time></trkpt><trkpt lat="43.42037465493225" lon="12.723574107408014"><ele>551.0</ele><time>2026-04-26T16:31:54Z</time></trkpt><trkpt lat="43.42039074743484" lon="12.723427077933867"><ele>551.0</ele><time>2026-04-26T16:31:55Z</time></trkpt><trkpt lat="43.42040677702672" lon="12.723290694770366"><ele>550.6</ele><time>2026-04-26T16:31:56Z</time></trkpt><trkpt lat="43.42043138618065" lon="12.723182667997522"><ele>550.2</ele><time>2026-04-26T16:31:57Z</time></trkpt><trkpt lat="43.420488135889556" lon="12.72302767642585"><ele>549.8</ele><time>2026-04-26T16:31:59Z</time></trkpt><trkpt lat="43.420542094152026" lon="12.72295005785603"><ele>549.4</ele><time>2026-04-26T16:32:00Z</time></trkpt><trkpt lat="43.42061909297039" lon="12.722874559356065"><ele>549.0</ele><time>2026-04-26T16:32:01Z</time></trkpt><trkpt lat="43.42069989314879" lon="12.722778754116199"><ele>542.75</ele><time>2026-04-26T16:32:02Z</time></trkpt><trkpt lat="43.42078576802385" lon="12.72267284656467"><ele>536.5</ele><time>2026-04-26T16:32:03Z</time></trkpt><trkpt lat="43.42085472456013" lon="12.722536476375923"><ele>530.25</ele><time>2026-04-26T16:32:04Z</time></trkpt><trkpt lat="43.42089552536376" lon="12.722285561172066"><ele>524.0</ele><time>2026-04-26T16:32:05Z</time></trkpt><trkpt lat="43.42093094076423" lon="12.722065664734563"><ele>519.0</ele><time>2026-04-26T16:32:06Z</time></trkpt><trkpt lat="43.42096216159082" lon="12.721859487203043"><ele>514.0</ele><time>2026-04-26T16:32:07Z</time></trkpt><trkpt lat="43.42108399088136" lon="12.721689855337763"><ele>509.0</ele><time>2026-04-26T16:32:08Z</time></trkpt><trkpt lat="43.42123512651852" lon="12.721586877179664"><ele>519.6666666666666</ele><time>2026-04-26T16:32:09Z</time></trkpt><trkpt lat="43.421385492358795" lon="12.721487541653447"><ele>530.3333333333334</ele><time>2026-04-26T16:32:10Z</time></trkpt><trkpt lat="43.42153040234277" lon="12.721332976488602"><ele>541.0</ele><time>2026-04-26T16:32:11Z</time></trkpt><trkpt lat="43.4216476449725" lon="12.721187981119591"><ele>534.6666666666667</ele><time>2026-04-26T16:32:12Z</time></trkpt><trkpt lat="43.4217420055772" lon="12.721001544894653"><ele>528.3333333333334</ele><time>2026-04-26T16:32:13Z</time></trkpt><trkpt lat="43.421845883881396" lon="12.720822106821036"><ele>522.0</ele><time>2026-04-26T16:32:14Z</time></trkpt><trkpt lat="43.421860478027426" lon="12.720499217455426"><ele>522.0</ele><time>2026-04-26T16:32:15Z</time></trkpt><trkpt lat="43.42191111879838" lon="12.720246032917865"><ele>522.0</ele><time>2026-04-26T16:32:16Z</time></trkpt><trkpt lat="43.421944813144734" lon="12.720019459513745"><ele>522.0</ele><time>2026-04-26T16:32:17Z</time></trkpt><trkpt lat="43.42198230163435" lon="12.71977782437787"><ele>518.0</ele><time>2026-04-26T16:32:18Z</time></trkpt><trkpt lat="43.42201381938743" lon="12.719545326390199"><ele>514.0</ele><time>2026-04-26T16:32:19Z</time></trkpt><trkpt lat="43.422021136312495" lon="12.719331477494588"><ele>510.0</ele><time>2026-04-26T16:32:20Z</time></trkpt><trkpt lat="43.422029557075945" lon="12.719106946833751"><ele>507.66666666666663</ele><time>2026-04-26T16:32:21Z</time></trkpt><trkpt lat="43.42208550073062" lon="12.718901768165875"><ele>505.3333333333333</ele><time>2026-04-26T16:32:22Z</time></trkpt><trkpt lat="43.42213607491912" lon="12.718694437029367"><ele>503.0</ele><time>2026-04-26T16:32:23Z</time></trkpt><trkpt lat="43.42218485894911" lon="12.718488401590369"><ele>511.66666666666663</ele><time>2026-04-26T16:32:24Z</time></trkpt><trkpt lat="43.422224526078736" lon="12.718288702360667"><ele>520.3333333333334</ele><time>2026-04-26T16:32:25Z</time></trkpt><trkpt lat="43.422277757345455" lon="12.718089622586824"><ele>529.0</ele><time>2026-04-26T16:32:26Z</time></trkpt><trkpt lat="43.42233143937436" lon="12.717887322172498"><ele>526.0</ele><time>2026-04-26T16:32:27Z</time></trkpt><trkpt lat="43.422390875190885" lon="12.717708635566332"><ele>523.0</ele><time>2026-04-26T16:32:28Z</time></trkpt><trkpt lat="43.422466322369004" lon="12.717541797336397"><ele>520.0</ele><time>2026-04-26T16:32:29Z</time></trkpt><trkpt lat="43.4225837050198" lon="12.717396417102247"><ele>517.0</ele><time>2026-04-26T16:32:30Z</time></trkpt><trkpt lat="43.42271290654959" lon="12.717256848209528"><ele>517.0</ele><time>2026-04-26T16:32:31Z</time></trkpt><trkpt lat="43.422848618387185" lon="12.717118817216829"><ele>517.0</ele><time>2026-04-26T16:32:32Z</time></trkpt><trkpt lat="43.42298967968309" lon="12.716987159622766"><ele>517.0</ele><time>2026-04-26T16:32:33Z</time></trkpt><trkpt lat="43.42312041309173" lon="12.71684939299494"><ele>516.0</ele><time>2026-04-26T16:32:34Z</time></trkpt><trkpt lat="43.42326231845462" lon="12.716731742056513"><ele>515.0</ele><time>2026-04-26T16:32:35Z</time></trkpt><trkpt lat="43.4233957866776" lon="12.71659146040388"><ele>514.0</ele><time>2026-04-26T16:32:36Z</time></trkpt><trkpt lat="43.423510344214975" lon="12.71643415078099"><ele>514.0</ele><time>2026-04-26T16:32:37Z</time></trkpt><trkpt lat="43.42360568914825" lon="12.716228852306985"><ele>514.0</ele><time>2026-04-26T16:32:38Z</time></trkpt><trkpt lat="43.42368846602427" lon="12.716006261683935"><ele>514.0</ele><time>2026-04-26T16:32:39Z</time></trkpt><trkpt lat="43.42373186772008" lon="12.715794268532612"><ele>516.0</ele><time>2026-04-26T16:32:40Z</time></trkpt><trkpt lat="43.42375392958512" lon="12.71560673216741"><ele>518.0</ele><time>2026-04-26T16:32:41Z</time></trkpt><trkpt lat="43.42379190647407" lon="12.715442248755462"><ele>520.0</ele><time>2026-04-26T16:32:42Z</time></trkpt><trkpt lat="43.423880916299" lon="12.71531764990287"><ele>522.0</ele><time>2026-04-26T16:32:43Z</time></trkpt><trkpt lat="43.42400921036628" lon="12.71525966124703"><ele>522.0</ele><time>2026-04-26T16:32:44Z</time></trkpt><trkpt lat="43.42414253778235" lon="12.715301676401758"><ele>522.0</ele><time>2026-04-26T16:32:45Z</time></trkpt><trkpt lat="43.424276251840894" lon="12.715409863789558"><ele>522.0</ele><time>2026-04-26T16:32:46Z</time></trkpt><trkpt lat="43.42442640176555" lon="12.715473538375221"><ele>522.0</ele><time>2026-04-26T16:32:47Z</time></trkpt><trkpt lat="43.42458378814699" lon="12.715513534235333"><ele>527.0</ele><time>2026-04-26T16:32:48Z</time></trkpt><trkpt lat="43.42475501297639" lon="12.715534529119804"><ele>532.0</ele><time>2026-04-26T16:32:49Z</time></trkpt><trkpt lat="43.42494164688718" lon="12.715550506023357"><ele>537.0</ele><time>2026-04-26T16:32:50Z</time></trkpt><trkpt lat="43.42509863134778" lon="12.715576686011984"><ele>537.0</ele><time>2026-04-26T16:32:51Z</time></trkpt><trkpt lat="43.425261344315224" lon="12.715586231859012"><ele>537.0</ele><time>2026-04-26T16:32:52Z</time></trkpt><trkpt lat="43.42543205863464" lon="12.715577843535312"><ele>537.0</ele><time>2026-04-26T16:32:53Z</time></trkpt><trkpt lat="43.42556428087369" lon="12.715485596586118"><ele>532.6666666666666</ele><time>2026-04-26T16:32:54Z</time></trkpt><trkpt lat="43.42566376070419" lon="12.715178668658268"><ele>528.3333333333333</ele><time>2026-04-26T16:32:55Z</time></trkpt><trkpt lat="43.42576984010145" lon="12.715010672607157"><ele>524.0</ele><time>2026-04-26T16:32:56Z</time></trkpt><trkpt lat="43.42584600225355" lon="12.714849337079727"><ele>524.0</ele><time>2026-04-26T16:32:57Z</time></trkpt><trkpt lat="43.42591241130832" lon="12.714688386992568"><ele>524.0</ele><time>2026-04-26T16:32:58Z</time></trkpt><trkpt lat="43.425933858208325" lon="12.71447678090675"><ele>524.0</ele><time>2026-04-26T16:32:59Z</time></trkpt><trkpt lat="43.42589202602306" lon="12.714287385196505"><ele>524.0</ele><time>2026-04-26T16:33:00Z</time></trkpt><trkpt lat="43.42571396154419" lon="12.714021639349806"><ele>524.0</ele><time>2026-04-26T16:33:01Z</time></trkpt><trkpt lat="43.425644624091845" lon="12.713807122362677"><ele>524.0</ele><time>2026-04-26T16:33:02Z</time></trkpt><trkpt lat="43.42558373394409" lon="12.713602573940538"><ele>524.0</ele><time>2026-04-26T16:33:03Z</time></trkpt><trkpt lat="43.42549796773015" lon="12.713434673386036"><ele>526.25</ele><time>2026-04-26T16:33:04Z</time></trkpt><trkpt lat="43.4254796380456" lon="12.713264900742228"><ele>528.5</ele><time>2026-04-26T16:33:05Z</time></trkpt><trkpt lat="43.42549682360027" lon="12.713061496711513"><ele>530.75</ele><time>2026-04-26T16:33:06Z</time></trkpt><trkpt lat="43.42551055900049" lon="12.712872536823808"><ele>533.0</ele><time>2026-04-26T16:33:07Z</time></trkpt><trkpt lat="43.42551354305028" lon="12.71267143211826"><ele>535.5</ele><time>2026-04-26T16:33:08Z</time></trkpt><trkpt lat="43.42549639736023" lon="12.712529856690358"><ele>538.0</ele><time>2026-04-26T16:33:09Z</time></trkpt><trkpt lat="43.42546280149747" lon="12.712383303120275"><ele>540.5</ele><time>2026-04-26T16:33:10Z</time></trkpt><trkpt lat="43.42540528573765" lon="12.712222854237904"><ele>543.0</ele><time>2026-04-26T16:33:11Z</time></trkpt><trkpt lat="43.42534787988349" lon="12.712080405022945"><ele>537.5</ele><time>2026-04-26T16:33:12Z</time></trkpt><trkpt lat="43.42532577581472" lon="12.711934983022504"><ele>532.0</ele><time>2026-04-26T16:33:13Z</time></trkpt><trkpt lat="43.425328601315556" lon="12.711771178535074"><ele>526.5</ele><time>2026-04-26T16:33:14Z</time></trkpt><trkpt lat="43.42535086880578" lon="12.711597845275154"><ele>521.0</ele><time>2026-04-26T16:33:15Z</time></trkpt><trkpt lat="43.42536854613218" lon="12.711443328371622"><ele>521.0</ele><time>2026-04-26T16:33:16Z</time></trkpt><trkpt lat="43.4253668200071" lon="12.711304788545432"><ele>521.0</ele><time>2026-04-26T16:33:17Z</time></trkpt><trkpt lat="43.425363936029754" lon="12.711165891336094"><ele>521.0</ele><time>2026-04-26T16:33:18Z</time></trkpt><trkpt lat="43.42534689779842" lon="12.71103597830396"><ele>521.0</ele><time>2026-04-26T16:33:19Z</time></trkpt><trkpt lat="43.42531455089971" lon="12.710922020825437"><ele>521.0</ele><time>2026-04-26T16:33:20Z</time></trkpt><trkpt lat="43.425272982367105" lon="12.710798891293493"><ele>521.0</ele><time>2026-04-26T16:33:21Z</time></trkpt><trkpt lat="43.425221606566055" lon="12.710688600470812"><ele>521.0</ele><time>2026-04-26T16:33:22Z</time></trkpt><trkpt lat="43.4251126581215" lon="12.710611297079204"><ele>521.0</ele><time>2026-04-26T16:33:23Z</time></trkpt><trkpt lat="43.42498631567425" lon="12.710570935104194"><ele>521.0</ele><time>2026-04-26T16:33:24Z</time></trkpt><trkpt lat="43.42486953175379" lon="12.710492858740839"><ele>521.0</ele><time>2026-04-26T16:33:25Z</time></trkpt><trkpt lat="43.42475423771542" lon="12.7104366208314"><ele>521.0</ele><time>2026-04-26T16:33:26Z</time></trkpt><trkpt lat="43.424630908887245" lon="12.710378827246569"><ele>521.0</ele><time>2026-04-26T16:33:27Z</time></trkpt><trkpt lat="43.424517006730504" lon="12.71030141017536"><ele>521.0</ele><time>2026-04-26T16:33:28Z</time></trkpt><trkpt lat="43.424396815081884" lon="12.710254110303113"><ele>522.75</ele><time>2026-04-26T16:33:29Z</time></trkpt><trkpt lat="43.424280860317396" lon="12.710194642504032"><ele>524.5</ele><time>2026-04-26T16:33:30Z</time></trkpt><trkpt lat="43.42417294942542" lon="12.710117783159964"><ele>526.25</ele><time>2026-04-26T16:33:31Z</time></trkpt><trkpt lat="43.424054653626136" lon="12.710026492845435"><ele>528.0</ele><time>2026-04-26T16:33:32Z</time></trkpt><trkpt lat="43.423956601205234" lon="12.709896614274088"><ele>528.0</ele><time>2026-04-26T16:33:33Z</time></trkpt><trkpt lat="43.42386895584211" lon="12.70975867720489"><ele>528.0</ele><time>2026-04-26T16:33:34Z</time></trkpt><trkpt lat="43.42380582320642" lon="12.709600385003084"><ele>528.0</ele><time>2026-04-26T16:33:35Z</time></trkpt><trkpt lat="43.42375511342667" lon="12.709421719843531"><ele>528.0</ele><time>2026-04-26T16:33:36Z</time></trkpt><trkpt lat="43.42374524363933" lon="12.709246492150955"><ele>527.75</ele><time>2026-04-26T16:33:37Z</time></trkpt><trkpt lat="43.4237370069515" lon="12.709077780380436"><ele>527.5</ele><time>2026-04-26T16:33:38Z</time></trkpt><trkpt lat="43.42369329226923" lon="12.70887065957976"><ele>527.25</ele><time>2026-04-26T16:33:39Z</time></trkpt><trkpt lat="43.42363909807565" lon="12.70876480435937"><ele>527.0</ele><time>2026-04-26T16:33:40Z</time></trkpt><trkpt lat="43.423549367676834" lon="12.708632547255917"><ele>530.25</ele><time>2026-04-26T16:33:41Z</time></trkpt><trkpt lat="43.42347013807551" lon="12.708499569352828"><ele>533.5</ele><time>2026-04-26T16:33:42Z</time></trkpt><trkpt lat="43.42340416873258" lon="12.708386576419535"><ele>536.75</ele><time>2026-04-26T16:33:43Z</time></trkpt><trkpt lat="43.4232786098199" lon="12.708309763271691"><ele>540.0</ele><time>2026-04-26T16:33:44Z</time></trkpt><trkpt lat="43.42312858798534" lon="12.7082594103865"><ele>540.0</ele><time>2026-04-26T16:33:45Z</time></trkpt><trkpt lat="43.42298295312977" lon="12.708195634432858"><ele>540.0</ele><time>2026-04-26T16:33:46Z</time></trkpt><trkpt lat="43.42283788850685" lon="12.708130507063949"><ele>540.0</ele><time>2026-04-26T16:33:47Z</time></trkpt><trkpt lat="43.42269813399155" lon="12.70802299845498"><ele>538.25</ele><time>2026-04-26T16:33:48Z</time></trkpt><trkpt lat="43.42258507093363" lon="12.707897033531694"><ele>536.5</ele><time>2026-04-26T16:33:49Z</time></trkpt><trkpt lat="43.42246945201272" lon="12.707774649226389"><ele>534.75</ele><time>2026-04-26T16:33:50Z</time></trkpt><trkpt lat="43.42233146332104" lon="12.707685338225778"><ele>533.0</ele><time>2026-04-26T16:33:51Z</time></trkpt><trkpt lat="43.42218106722116" lon="12.707642674404275"><ele>533.25</ele><time>2026-04-26T16:33:52Z</time></trkpt><trkpt lat="43.42203454579334" lon="12.707666059338404"><ele>533.5</ele><time>2026-04-26T16:33:53Z</time></trkpt><trkpt lat="43.42191303430269" lon="12.707685732567654"><ele>533.75</ele><time>2026-04-26T16:33:54Z</time></trkpt><trkpt lat="43.42178417291087" lon="12.707801206199653"><ele>534.0</ele><time>2026-04-26T16:33:55Z</time></trkpt><trkpt lat="43.42164178579056" lon="12.707823431080394"><ele>539.5</ele><time>2026-04-26T16:33:56Z</time></trkpt><trkpt lat="43.421518960270646" lon="12.707716049415502"><ele>545.0</ele><time>2026-04-26T16:33:57Z</time></trkpt><trkpt lat="43.42140895967059" lon="12.707638628796746"><ele>550.5</ele><time>2026-04-26T16:33:58Z</time></trkpt><trkpt lat="43.42129186436447" lon="12.707580461079258"><ele>556.0</ele><time>2026-04-26T16:33:59Z</time></trkpt><trkpt lat="43.42117747779297" lon="12.707563643986461"><ele>558.25</ele><time>2026-04-26T16:34:00Z</time></trkpt><trkpt lat="43.42104424445206" lon="12.707636478205174"><ele>560.5</ele><time>2026-04-26T16:34:01Z</time></trkpt><trkpt lat="43.42091707408497" lon="12.707792534223412"><ele>562.75</ele><time>2026-04-26T16:34:02Z</time></trkpt><trkpt lat="43.4208119579666" lon="12.707869677695047"><ele>565.0</ele><time>2026-04-26T16:34:03Z</time></trkpt><trkpt lat="43.42072946114016" lon="12.70800136764047"><ele>559.75</ele><time>2026-04-26T16:34:04Z</time></trkpt><trkpt lat="43.420619075890656" lon="12.708142604880793"><ele>554.5</ele><time>2026-04-26T16:34:05Z</time></trkpt><trkpt lat="43.42054214539192" lon="12.708292509359774"><ele>549.25</ele><time>2026-04-26T16:34:06Z</time></trkpt><trkpt lat="43.42043012141239" lon="12.708413006867598"><ele>544.0</ele><time>2026-04-26T16:34:07Z</time></trkpt><trkpt lat="43.42031296763949" lon="12.708524317912143"><ele>541.5</ele><time>2026-04-26T16:34:08Z</time></trkpt><trkpt lat="43.42017372619812" lon="12.708614963656187"><ele>539.0</ele><time>2026-04-26T16:34:09Z</time></trkpt><trkpt lat="43.42003695612596" lon="12.708686017274681"><ele>536.5</ele><time>2026-04-26T16:34:10Z</time></trkpt><trkpt lat="43.41991756906372" lon="12.708718265085668"><ele>534.0</ele><time>2026-04-26T16:34:11Z</time></trkpt><trkpt lat="43.419813620298854" lon="12.708688962933222"><ele>535.5</ele><time>2026-04-26T16:34:12Z</time></trkpt><trkpt lat="43.41971116893054" lon="12.708572141917049"><ele>537.0</ele><time>2026-04-26T16:34:13Z</time></trkpt><trkpt lat="43.41962427034696" lon="12.708457364420699"><ele>538.5</ele><time>2026-04-26T16:34:14Z</time></trkpt><trkpt lat="43.419508221465364" lon="12.708277685836665"><ele>540.0</ele><time>2026-04-26T16:34:15Z</time></trkpt><trkpt lat="43.419436785706495" lon="12.70812521772521"><ele>540.0</ele><time>2026-04-26T16:34:16Z</time></trkpt><trkpt lat="43.419404211449546" lon="12.707959143832314"><ele>540.0</ele><time>2026-04-26T16:34:17Z</time></trkpt><trkpt lat="43.41938986521154" lon="12.707757760790575"><ele>540.0</ele><time>2026-04-26T16:34:18Z</time></trkpt><trkpt lat="43.41936814931847" lon="12.707553763492994"><ele>540.0</ele><time>2026-04-26T16:34:19Z</time></trkpt><trkpt lat="43.41935008009907" lon="12.70734898507896"><ele>540.25</ele><time>2026-04-26T16:34:20Z</time></trkpt><trkpt lat="43.41931117963647" lon="12.707176397535212"><ele>540.5</ele><time>2026-04-26T16:34:21Z</time></trkpt><trkpt lat="43.41926020477417" lon="12.707003869915575"><ele>540.75</ele><time>2026-04-26T16:34:22Z</time></trkpt><trkpt lat="43.41917025924166" lon="12.706802579362547"><ele>541.0</ele><time>2026-04-26T16:34:23Z</time></trkpt><trkpt lat="43.4190506420053" lon="12.706666876521652"><ele>542.3333333333334</ele><time>2026-04-26T16:34:24Z</time></trkpt><trkpt lat="43.41890233691207" lon="12.706515423067213"><ele>543.6666666666666</ele><time>2026-04-26T16:34:25Z</time></trkpt><trkpt lat="43.418741015582505" lon="12.70643717647135"><ele>545.0</ele><time>2026-04-26T16:34:26Z</time></trkpt><trkpt lat="43.418541908998456" lon="12.706370063358554"><ele>545.0</ele><time>2026-04-26T16:34:27Z</time></trkpt><trkpt lat="43.418392018772494" lon="12.706347026651079"><ele>545.0</ele><time>2026-04-26T16:34:28Z</time></trkpt><trkpt lat="43.41824912648093" lon="12.706310763530084"><ele>545.0</ele><time>2026-04-26T16:34:29Z</time></trkpt><trkpt lat="43.41808619233556" lon="12.70630963526975"><ele>547.0</ele><time>2026-04-26T16:34:30Z</time></trkpt><trkpt lat="43.417926575812" lon="12.70637775364505"><ele>549.0</ele><time>2026-04-26T16:34:31Z</time></trkpt><trkpt lat="43.41776944337185" lon="12.706507359266261"><ele>551.0</ele><time>2026-04-26T16:34:32Z</time></trkpt><trkpt lat="43.41761417620388" lon="12.706580818117262"><ele>551.0</ele><time>2026-04-26T16:34:33Z</time></trkpt><trkpt lat="43.4174656248895" lon="12.706623160638344"><ele>551.0</ele><time>2026-04-26T16:34:34Z</time></trkpt><trkpt lat="43.41732772960002" lon="12.706681992290605"><ele>551.0</ele><time>2026-04-26T16:34:35Z</time></trkpt><trkpt lat="43.417199397739125" lon="12.706735643752209"><ele>551.0</ele><time>2026-04-26T16:34:36Z</time></trkpt><trkpt lat="43.417080391125424" lon="12.706775815343331"><ele>549.0</ele><time>2026-04-26T16:34:37Z</time></trkpt><trkpt lat="43.41697170053861" lon="12.706793475156639"><ele>547.0</ele><time>2026-04-26T16:34:38Z</time></trkpt><trkpt lat="43.41685365739339" lon="12.706751872931628"><ele>545.0</ele><time>2026-04-26T16:34:39Z</time></trkpt><trkpt lat="43.41675757534276" lon="12.706592712931204"><ele>543.0</ele><time>2026-04-26T16:34:40Z</time></trkpt><trkpt lat="43.41663142732932" lon="12.706456548625091"><ele>543.0</ele><time>2026-04-26T16:34:41Z</time></trkpt><trkpt lat="43.41651171348474" lon="12.706326866235074"><ele>543.0</ele><time>2026-04-26T16:34:42Z</time></trkpt><trkpt lat="43.41640860372089" lon="12.706203648221473"><ele>543.0</ele><time>2026-04-26T16:34:43Z</time></trkpt><trkpt lat="43.4162980876759" lon="12.706095045664586"><ele>543.0</ele><time>2026-04-26T16:34:44Z</time></trkpt><trkpt lat="43.41620015404141" lon="12.705971919099746"><ele>543.3333333333334</ele><time>2026-04-26T16:34:45Z</time></trkpt><trkpt lat="43.41611563357046" lon="12.705802897020392"><ele>543.6666666666667</ele><time>2026-04-26T16:34:46Z</time></trkpt><trkpt lat="43.41605390584977" lon="12.705614288048972"><ele>544.0</ele><time>2026-04-26T16:34:47Z</time></trkpt><trkpt lat="43.416012084356694" lon="12.705415579647717"><ele>542.6666666666667</ele><time>2026-04-26T16:34:48Z</time></trkpt><trkpt lat="43.41598324263631" lon="12.705201921695172"><ele>541.3333333333334</ele><time>2026-04-26T16:34:49Z</time></trkpt><trkpt lat="43.41594994786503" lon="12.704993599036165"><ele>540.0</ele><time>2026-04-26T16:34:50Z</time></trkpt><trkpt lat="43.415901804042555" lon="12.704798917856793"><ele>540.0</ele><time>2026-04-26T16:34:51Z</time></trkpt><trkpt lat="43.415854452160055" lon="12.7046012474787"><ele>540.0</ele><time>2026-04-26T16:34:52Z</time></trkpt><trkpt lat="43.41581333039405" lon="12.70441576953505"><ele>540.0</ele><time>2026-04-26T16:34:53Z</time></trkpt><trkpt lat="43.41577825679271" lon="12.704233384883873"><ele>540.0</ele><time>2026-04-26T16:34:54Z</time></trkpt><trkpt lat="43.415743361020766" lon="12.704059068388032"><ele>541.5</ele><time>2026-04-26T16:34:55Z</time></trkpt><trkpt lat="43.41570162872076" lon="12.703892230863513"><ele>543.0</ele><time>2026-04-26T16:34:56Z</time></trkpt><trkpt lat="43.415661079834344" lon="12.703715619719242"><ele>544.5</ele><time>2026-04-26T16:34:57Z</time></trkpt><trkpt lat="43.41563804032864" lon="12.703548724106899"><ele>546.0</ele><time>2026-04-26T16:34:58Z</time></trkpt><trkpt lat="43.415653330123284" lon="12.703375470397972"><ele>547.0</ele><time>2026-04-26T16:34:59Z</time></trkpt><trkpt lat="43.41570142593955" lon="12.70321080876137"><ele>548.0</ele><time>2026-04-26T16:35:00Z</time></trkpt><trkpt lat="43.415785142036825" lon="12.703089287319521"><ele>549.0</ele><time>2026-04-26T16:35:01Z</time></trkpt><trkpt lat="43.41588208551076" lon="12.702958942583756"><ele>550.0</ele><time>2026-04-26T16:35:02Z</time></trkpt><trkpt lat="43.415992578163944" lon="12.70282023268297"><ele>548.6666666666667</ele><time>2026-04-26T16:35:03Z</time></trkpt><trkpt lat="43.41609850123917" lon="12.702683392841706"><ele>547.3333333333334</ele><time>2026-04-26T16:35:04Z</time></trkpt><trkpt lat="43.41619734756895" lon="12.702525007819643"><ele>546.0</ele><time>2026-04-26T16:35:05Z</time></trkpt><trkpt lat="43.41627266130338" lon="12.702341681735035"><ele>559.6666666666666</ele><time>2026-04-26T16:35:06Z</time></trkpt><trkpt lat="43.416324533655676" lon="12.702129613712778"><ele>573.3333333333333</ele><time>2026-04-26T16:35:07Z</time></trkpt><trkpt lat="43.41635348401803" lon="12.701924273071471"><ele>587.0</ele><time>2026-04-26T16:35:08Z</time></trkpt><trkpt lat="43.41634350531298" lon="12.701713807896448"><ele>573.6666666666666</ele><time>2026-04-26T16:35:09Z</time></trkpt><trkpt lat="43.416283081364405" lon="12.701518529041088"><ele>560.3333333333334</ele><time>2026-04-26T16:35:10Z</time></trkpt><trkpt lat="43.41619368446285" lon="12.70135501376341"><ele>547.0</ele><time>2026-04-26T16:35:11Z</time></trkpt><trkpt lat="43.41608040603136" lon="12.70119962241603"><ele>554.0</ele><time>2026-04-26T16:35:12Z</time></trkpt><trkpt lat="43.415978254901056" lon="12.701037804804429"><ele>561.0</ele><time>2026-04-26T16:35:13Z</time></trkpt><trkpt lat="43.415810246244945" lon="12.70089501445314"><ele>568.0</ele><time>2026-04-26T16:35:14Z</time></trkpt><trkpt lat="43.41563904729469" lon="12.700817406331408"><ele>561.6666666666667</ele><time>2026-04-26T16:35:15Z</time></trkpt><trkpt lat="43.41547533323561" lon="12.700750936890547"><ele>555.3333333333334</ele><time>2026-04-26T16:35:16Z</time></trkpt><trkpt lat="43.41531978338417" lon="12.700705127848291"><ele>549.0</ele><time>2026-04-26T16:35:17Z</time></trkpt><trkpt lat="43.41517424767652" lon="12.700658079117996"><ele>549.0</ele><time>2026-04-26T16:35:18Z</time></trkpt><trkpt lat="43.41505347045567" lon="12.700604824412363"><ele>549.0</ele><time>2026-04-26T16:35:19Z</time></trkpt><trkpt lat="43.41496898216144" lon="12.700474175792168"><ele>549.0</ele><time>2026-04-26T16:35:20Z</time></trkpt><trkpt lat="43.414918839796805" lon="12.70029637779825"><ele>549.0</ele><time>2026-04-26T16:35:21Z</time></trkpt><trkpt lat="43.414892811618834" lon="12.700062793187119"><ele>551.6666666666666</ele><time>2026-04-26T16:35:22Z</time></trkpt><trkpt lat="43.414870762589366" lon="12.699820581930897"><ele>554.3333333333333</ele><time>2026-04-26T16:35:23Z</time></trkpt><trkpt lat="43.41484514859532" lon="12.69955375234426"><ele>557.0</ele><time>2026-04-26T16:35:24Z</time></trkpt><trkpt lat="43.41481627323623" lon="12.699287053500598"><ele>562.3333333333333</ele><time>2026-04-26T16:35:25Z</time></trkpt><trkpt lat="43.41479850082357" lon="12.699042884833268"><ele>567.6666666666666</ele><time>2026-04-26T16:35:26Z</time></trkpt><trkpt lat="43.41477941265635" lon="12.698824893680198"><ele>573.0</ele><time>2026-04-26T16:35:27Z</time></trkpt><trkpt lat="43.41475399649823" lon="12.698612954815196"><ele>569.0</ele><time>2026-04-26T16:35:28Z</time></trkpt><trkpt lat="43.41467784946621" lon="12.69840683881058"><ele>565.0</ele><time>2026-04-26T16:35:29Z</time></trkpt><trkpt lat="43.41460196642647" lon="12.698200031456821"><ele>561.0</ele><time>2026-04-26T16:35:30Z</time></trkpt><trkpt lat="43.41449081586968" lon="12.697998143955662"><ele>561.0</ele><time>2026-04-26T16:35:31Z</time></trkpt><trkpt lat="43.414405060959034" lon="12.69778620433077"><ele>561.0</ele><time>2026-04-26T16:35:32Z</time></trkpt><trkpt lat="43.4143369694734" lon="12.697571750131297"><ele>561.0</ele><time>2026-04-26T16:35:33Z</time></trkpt><trkpt lat="43.414286865181296" lon="12.697358828041217"><ele>562.0</ele><time>2026-04-26T16:35:34Z</time></trkpt><trkpt lat="43.41425491531791" lon="12.697151303589708"><ele>563.0</ele><time>2026-04-26T16:35:35Z</time></trkpt><trkpt lat="43.41421646816348" lon="12.696942716628062"><ele>564.0</ele><time>2026-04-26T16:35:36Z</time></trkpt><trkpt lat="43.414170149116444" lon="12.696728735070133"><ele>564.0</ele><time>2026-04-26T16:35:37Z</time></trkpt><trkpt lat="43.41415408326015" lon="12.696513884692559"><ele>564.0</ele><time>2026-04-26T16:35:38Z</time></trkpt><trkpt lat="43.41414233661869" lon="12.696300507524391"><ele>564.0</ele><time>2026-04-26T16:35:39Z</time></trkpt><trkpt lat="43.41415735125244" lon="12.696094008192018"><ele>563.0</ele><time>2026-04-26T16:35:40Z</time></trkpt><trkpt lat="43.414153963463775" lon="12.695883437259713"><ele>562.0</ele><time>2026-04-26T16:35:41Z</time></trkpt><trkpt lat="43.41417319694974" lon="12.695673328635264"><ele>561.0</ele><time>2026-04-26T16:35:42Z</time></trkpt><trkpt lat="43.41419758730393" lon="12.695458983869594"><ele>561.0</ele><time>2026-04-26T16:35:43Z</time></trkpt><trkpt lat="43.414238658945315" lon="12.695240156739672"><ele>561.0</ele><time>2026-04-26T16:35:44Z</time></trkpt><trkpt lat="43.41426204121882" lon="12.695017956640507"><ele>561.0</ele><time>2026-04-26T16:35:45Z</time></trkpt><trkpt lat="43.41426703241391" lon="12.694773197181217"><ele>561.0</ele><time>2026-04-26T16:35:46Z</time></trkpt><trkpt lat="43.41424209786741" lon="12.69451579703955"><ele>561.0</ele><time>2026-04-26T16:35:47Z</time></trkpt><trkpt lat="43.4141956919038" lon="12.694254519441166"><ele>561.0</ele><time>2026-04-26T16:35:48Z</time></trkpt><trkpt lat="43.414119945240486" lon="12.693987646498401"><ele>562.0</ele><time>2026-04-26T16:35:49Z</time></trkpt><trkpt lat="43.414039849160034" lon="12.693688239874513"><ele>563.0</ele><time>2026-04-26T16:35:50Z</time></trkpt><trkpt lat="43.4139499302762" lon="12.693385891393225"><ele>561.6666666666666</ele><time>2026-04-26T16:35:51Z</time></trkpt><trkpt lat="43.41384968075321" lon="12.693116976626726"><ele>560.3333333333334</ele><time>2026-04-26T16:35:52Z</time></trkpt><trkpt lat="43.41378130366399" lon="12.692838399297969"><ele>559.0</ele><time>2026-04-26T16:35:53Z</time></trkpt><trkpt lat="43.413697748954256" lon="12.692568916957716"><ele>557.0</ele><time>2026-04-26T16:35:54Z</time></trkpt><trkpt lat="43.41361416695315" lon="12.692297494083347"><ele>555.0</ele><time>2026-04-26T16:35:55Z</time></trkpt><trkpt lat="43.41351916363073" lon="12.692030587529066"><ele>553.0</ele><time>2026-04-26T16:35:56Z</time></trkpt><trkpt lat="43.41339504607196" lon="12.691778339662433"><ele>557.0</ele><time>2026-04-26T16:35:57Z</time></trkpt><trkpt lat="43.4132575955615" lon="12.691532674610604"><ele>561.0</ele><time>2026-04-26T16:35:58Z</time></trkpt><trkpt lat="43.413126854744675" lon="12.691286583651626"><ele>565.0</ele><time>2026-04-26T16:35:59Z</time></trkpt><trkpt lat="43.413010155367736" lon="12.691044885003157"><ele>562.3333333333334</ele><time>2026-04-26T16:36:00Z</time></trkpt><trkpt lat="43.41289090969879" lon="12.690824058346232"><ele>559.6666666666666</ele><time>2026-04-26T16:36:01Z</time></trkpt><trkpt lat="43.412779619260235" lon="12.69061796401217"><ele>557.0</ele><time>2026-04-26T16:36:02Z</time></trkpt><trkpt lat="43.41267007252716" lon="12.690412314914898"><ele>562.0</ele><time>2026-04-26T16:36:03Z</time></trkpt><trkpt lat="43.41256458401699" lon="12.690208346153973"><ele>567.0</ele><time>2026-04-26T16:36:04Z</time></trkpt><trkpt lat="43.41247148471282" lon="12.690013115979186"><ele>572.0</ele><time>2026-04-26T16:36:05Z</time></trkpt><trkpt lat="43.41238682520462" lon="12.689803970455236"><ele>572.0</ele><time>2026-04-26T16:36:06Z</time></trkpt><trkpt lat="43.412320965474734" lon="12.689584663262979"><ele>572.0</ele><time>2026-04-26T16:36:07Z</time></trkpt><trkpt lat="43.412277492596196" lon="12.689349061244222"><ele>572.0</ele><time>2026-04-26T16:36:08Z</time></trkpt><trkpt lat="43.41224291729729" lon="12.68911016932857"><ele>569.3333333333333</ele><time>2026-04-26T16:36:09Z</time></trkpt><trkpt lat="43.41220076243632" lon="12.688870133545842"><ele>566.6666666666666</ele><time>2026-04-26T16:36:10Z</time></trkpt><trkpt lat="43.41215363085715" lon="12.688642876695534"><ele>564.0</ele><time>2026-04-26T16:36:11Z</time></trkpt><trkpt lat="43.41209830104826" lon="12.68840823554459"><ele>564.0</ele><time>2026-04-26T16:36:12Z</time></trkpt><trkpt lat="43.412053856718266" lon="12.688184109172068"><ele>564.0</ele><time>2026-04-26T16:36:13Z</time></trkpt><trkpt lat="43.412011430686945" lon="12.687988714333994"><ele>564.0</ele><time>2026-04-26T16:36:14Z</time></trkpt><trkpt lat="43.41197171354767" lon="12.687798615256204"><ele>564.25</ele><time>2026-04-26T16:36:15Z</time></trkpt><trkpt lat="43.41191806385872" lon="12.687620900044156"><ele>564.5</ele><time>2026-04-26T16:36:16Z</time></trkpt><trkpt lat="43.411871969793545" lon="12.687443050950096"><ele>564.75</ele><time>2026-04-26T16:36:17Z</time></trkpt><trkpt lat="43.41182916806787" lon="12.687261318387497"><ele>565.0</ele><time>2026-04-26T16:36:18Z</time></trkpt><trkpt lat="43.41176943720478" lon="12.687072953759989"><ele>567.25</ele><time>2026-04-26T16:36:19Z</time></trkpt><trkpt lat="43.41172097649415" lon="12.686884494926675"><ele>569.5</ele><time>2026-04-26T16:36:20Z</time></trkpt><trkpt lat="43.41168109630823" lon="12.686690928105387"><ele>571.75</ele><time>2026-04-26T16:36:21Z</time></trkpt><trkpt lat="43.411656579070936" lon="12.686492922261248"><ele>574.0</ele><time>2026-04-26T16:36:22Z</time></trkpt><trkpt lat="43.411641832140354" lon="12.686298506777922"><ele>574.0</ele><time>2026-04-26T16:36:23Z</time></trkpt><trkpt lat="43.41162756285643" lon="12.686106439969612"><ele>574.0</ele><time>2026-04-26T16:36:24Z</time></trkpt><trkpt lat="43.411594354957074" lon="12.685927926224597"><ele>574.0</ele><time>2026-04-26T16:36:25Z</time></trkpt><trkpt lat="43.41152424419924" lon="12.685780261601913"><ele>574.0</ele><time>2026-04-26T16:36:26Z</time></trkpt><trkpt lat="43.41142494894711" lon="12.685633677991333"><ele>573.5</ele><time>2026-04-26T16:36:27Z</time></trkpt><trkpt lat="43.411316403487035" lon="12.685565516452046"><ele>573.0</ele><time>2026-04-26T16:36:28Z</time></trkpt><trkpt lat="43.411173463506316" lon="12.68546906699586"><ele>572.5</ele><time>2026-04-26T16:36:29Z</time></trkpt><trkpt lat="43.41103307261493" lon="12.685408137645458"><ele>572.0</ele><time>2026-04-26T16:36:30Z</time></trkpt><trkpt lat="43.41091072241296" lon="12.685351725694776"><ele>572.5</ele><time>2026-04-26T16:36:31Z</time></trkpt><trkpt lat="43.41080970021479" lon="12.685225831776624"><ele>573.0</ele><time>2026-04-26T16:36:32Z</time></trkpt><trkpt lat="43.41068847071151" lon="12.685113885788544"><ele>573.5</ele><time>2026-04-26T16:36:33Z</time></trkpt><trkpt lat="43.410579858179446" lon="12.684986355853443"><ele>574.0</ele><time>2026-04-26T16:36:34Z</time></trkpt><trkpt lat="43.410483904503536" lon="12.684825832832495"><ele>574.0</ele><time>2026-04-26T16:36:35Z</time></trkpt><trkpt lat="43.410402437841384" lon="12.684652849187286"><ele>574.0</ele><time>2026-04-26T16:36:36Z</time></trkpt><trkpt lat="43.41033789174464" lon="12.684475465871138"><ele>574.0</ele><time>2026-04-26T16:36:37Z</time></trkpt><trkpt lat="43.41026798589426" lon="12.684311050933605"><ele>574.0</ele><time>2026-04-26T16:36:38Z</time></trkpt><trkpt lat="43.41017408604707" lon="12.684192679109163"><ele>572.75</ele><time>2026-04-26T16:36:39Z</time></trkpt><trkpt lat="43.410084509411014" lon="12.684085286379293"><ele>571.5</ele><time>2026-04-26T16:36:40Z</time></trkpt><trkpt lat="43.409995784813425" lon="12.683980279234836"><ele>570.25</ele><time>2026-04-26T16:36:41Z</time></trkpt><trkpt lat="43.409907058617364" lon="12.683880393018958"><ele>569.0</ele><time>2026-04-26T16:36:42Z</time></trkpt><trkpt lat="43.40985066483794" lon="12.683758551346822"><ele>569.0</ele><time>2026-04-26T16:36:43Z</time></trkpt><trkpt lat="43.40978782411777" lon="12.683655271949801"><ele>569.0</ele><time>2026-04-26T16:36:44Z</time></trkpt><trkpt lat="43.4097402688566" lon="12.683535859938257"><ele>569.0</ele><time>2026-04-26T16:36:45Z</time></trkpt><trkpt lat="43.40970065690693" lon="12.683425742437553"><ele>569.0</ele><time>2026-04-26T16:36:46Z</time></trkpt><trkpt lat="43.409660295484144" lon="12.683328287613694"><ele>569.0</ele><time>2026-04-26T16:36:47Z</time></trkpt><trkpt lat="43.40962423698362" lon="12.683246000686479"><ele>569.0</ele><time>2026-04-26T16:36:48Z</time></trkpt><trkpt lat="43.40958704541711" lon="12.68315086831666"><ele>568.5</ele><time>2026-04-26T16:36:49Z</time></trkpt><trkpt lat="43.40954107261588" lon="12.683063794300145"><ele>568.0</ele><time>2026-04-26T16:36:50Z</time></trkpt><trkpt lat="43.4094878585417" lon="12.682968047415628"><ele>567.5</ele><time>2026-04-26T16:36:51Z</time></trkpt><trkpt lat="43.409434809531895" lon="12.682873145213101"><ele>567.0</ele><time>2026-04-26T16:36:52Z</time></trkpt><trkpt lat="43.40938340107007" lon="12.68277511815527"><ele>566.5</ele><time>2026-04-26T16:36:53Z</time></trkpt><trkpt lat="43.40932027870532" lon="12.682679245132148"><ele>566.0</ele><time>2026-04-26T16:36:54Z</time></trkpt><trkpt lat="43.40927332033243" lon="12.682595262034825"><ele>566.0</ele><time>2026-04-26T16:36:55Z</time></trkpt><trkpt lat="43.40922950589843" lon="12.68252024226392"><ele>566.0</ele><time>2026-04-26T16:36:56Z</time></trkpt><trkpt lat="43.409192040385115" lon="12.682443549178885"><ele>566.0</ele><time>2026-04-26T16:36:57Z</time></trkpt><trkpt lat="43.409152257602315" lon="12.682367169443754"><ele>566.0</ele><time>2026-04-26T16:36:58Z</time></trkpt><trkpt lat="43.40910993547379" lon="12.68228723854043"><ele>566.0</ele><time>2026-04-26T16:36:59Z</time></trkpt><trkpt lat="43.409067077891606" lon="12.682198722117487"><ele>566.0</ele><time>2026-04-26T16:37:00Z</time></trkpt><trkpt lat="43.40901338142286" lon="12.682107030148847"><ele>566.0</ele><time>2026-04-26T16:37:01Z</time></trkpt><trkpt lat="43.40895755665134" lon="12.68200248510731"><ele>566.0</ele><time>2026-04-26T16:37:02Z</time></trkpt><trkpt lat="43.408898034516476" lon="12.681894787495727"><ele>566.0</ele><time>2026-04-26T16:37:03Z</time></trkpt><trkpt lat="43.40883484316585" lon="12.681776934264935"><ele>566.0</ele><time>2026-04-26T16:37:04Z</time></trkpt><trkpt lat="43.4087709098446" lon="12.681659099652839"><ele>566.0</ele><time>2026-04-26T16:37:05Z</time></trkpt><trkpt lat="43.408703372424995" lon="12.681534587835818"><ele>566.0</ele><time>2026-04-26T16:37:06Z</time></trkpt><trkpt lat="43.40864814847157" lon="12.681393840379664"><ele>566.0</ele><time>2026-04-26T16:37:07Z</time></trkpt><trkpt lat="43.408564188707835" lon="12.681269332150256"><ele>566.0</ele><time>2026-04-26T16:37:08Z</time></trkpt><trkpt lat="43.408498264236876" lon="12.68112931140824"><ele>566.0</ele><time>2026-04-26T16:37:09Z</time></trkpt><trkpt lat="43.408430299752546" lon="12.681004965088368"><ele>566.0</ele><time>2026-04-26T16:37:10Z</time></trkpt><trkpt lat="43.40836153455199" lon="12.68088842462969"><ele>567.5</ele><time>2026-04-26T16:37:11Z</time></trkpt><trkpt lat="43.408302267678486" lon="12.680753937930781"><ele>569.0</ele><time>2026-04-26T16:37:12Z</time></trkpt><trkpt lat="43.40824039285421" lon="12.680599717880659"><ele>570.5</ele><time>2026-04-26T16:37:13Z</time></trkpt><trkpt lat="43.408174999122146" lon="12.680427650308037"><ele>572.0</ele><time>2026-04-26T16:37:14Z</time></trkpt><trkpt lat="43.40811111283133" lon="12.680241240046103"><ele>573.0</ele><time>2026-04-26T16:37:15Z</time></trkpt><trkpt lat="43.40805038220231" lon="12.680046631256118"><ele>574.0</ele><time>2026-04-26T16:37:16Z</time></trkpt><trkpt lat="43.4080050028997" lon="12.679843294412372"><ele>575.0</ele><time>2026-04-26T16:37:17Z</time></trkpt><trkpt lat="43.407932336348935" lon="12.679638825247189"><ele>574.0</ele><time>2026-04-26T16:37:18Z</time></trkpt><trkpt lat="43.40784928370832" lon="12.679432620743883"><ele>573.0</ele><time>2026-04-26T16:37:19Z</time></trkpt><trkpt lat="43.40774707382524" lon="12.679228098573127"><ele>572.0</ele><time>2026-04-26T16:37:20Z</time></trkpt><trkpt lat="43.40765035918719" lon="12.678999986286584"><ele>572.0</ele><time>2026-04-26T16:37:21Z</time></trkpt><trkpt lat="43.40755724659572" lon="12.678767029986394"><ele>572.0</ele><time>2026-04-26T16:37:22Z</time></trkpt><trkpt lat="43.40744586216685" lon="12.678537946481569"><ele>572.0</ele><time>2026-04-26T16:37:23Z</time></trkpt><trkpt lat="43.4073259503374" lon="12.678304586368778"><ele>573.0</ele><time>2026-04-26T16:37:24Z</time></trkpt><trkpt lat="43.40720495354732" lon="12.678069759522394"><ele>574.0</ele><time>2026-04-26T16:37:25Z</time></trkpt><trkpt lat="43.40708729902022" lon="12.677835588731076"><ele>575.0</ele><time>2026-04-26T16:37:26Z</time></trkpt><trkpt lat="43.40698734594862" lon="12.677592066347913"><ele>575.0</ele><time>2026-04-26T16:37:27Z</time></trkpt><trkpt lat="43.40687502593091" lon="12.6773539733058"><ele>575.0</ele><time>2026-04-26T16:37:28Z</time></trkpt><trkpt lat="43.40675515820274" lon="12.677128078429924"><ele>575.0</ele><time>2026-04-26T16:37:29Z</time></trkpt><trkpt lat="43.406663686284794" lon="12.676884458834486"><ele>577.6666666666666</ele><time>2026-04-26T16:37:30Z</time></trkpt><trkpt lat="43.406620734490495" lon="12.676599538497314"><ele>580.3333333333334</ele><time>2026-04-26T16:37:31Z</time></trkpt><trkpt lat="43.40656878576637" lon="12.676294328006112"><ele>583.0</ele><time>2026-04-26T16:37:32Z</time></trkpt><trkpt lat="43.40648936039282" lon="12.675973246854676"><ele>590.0</ele><time>2026-04-26T16:37:33Z</time></trkpt><trkpt lat="43.406435346324145" lon="12.675658789852019"><ele>597.0</ele><time>2026-04-26T16:37:34Z</time></trkpt><trkpt lat="43.40636976733046" lon="12.675337700367852"><ele>587.0</ele><time>2026-04-26T16:37:35Z</time></trkpt><trkpt lat="43.40627913384423" lon="12.67504048539236"><ele>577.0</ele><time>2026-04-26T16:37:36Z</time></trkpt><trkpt lat="43.40619670052725" lon="12.674746270900254"><ele>577.0</ele><time>2026-04-26T16:37:37Z</time></trkpt><trkpt lat="43.40607619499824" lon="12.674462982194864"><ele>577.0</ele><time>2026-04-26T16:37:38Z</time></trkpt><trkpt lat="43.405957524391255" lon="12.67417313327799"><ele>578.3333333333334</ele><time>2026-04-26T16:37:39Z</time></trkpt><trkpt lat="43.4058139691145" lon="12.673926555511855"><ele>579.6666666666666</ele><time>2026-04-26T16:37:40Z</time></trkpt><trkpt lat="43.405695021466116" lon="12.673680501113816"><ele>581.0</ele><time>2026-04-26T16:37:41Z</time></trkpt><trkpt lat="43.40559912372913" lon="12.673433548711575"><ele>580.6666666666666</ele><time>2026-04-26T16:37:42Z</time></trkpt><trkpt lat="43.40549444883603" lon="12.673206860785847"><ele>580.3333333333334</ele><time>2026-04-26T16:37:43Z</time></trkpt><trkpt lat="43.40536697412597" lon="12.673023733268863"><ele>580.0</ele><time>2026-04-26T16:37:44Z</time></trkpt><trkpt lat="43.4052881845156" lon="12.672855909026515"><ele>580.6</ele><time>2026-04-26T16:37:45Z</time></trkpt><trkpt lat="43.40521479174564" lon="12.672721803727027"><ele>581.2</ele><time>2026-04-26T16:37:46Z</time></trkpt><trkpt lat="43.4051699620654" lon="12.672587527268238"><ele>581.8</ele><time>2026-04-26T16:37:47Z</time></trkpt><trkpt lat="43.40512562215564" lon="12.6724648727995"><ele>582.4</ele><time>2026-04-26T16:37:48Z</time></trkpt><trkpt lat="43.40508045911945" lon="12.672328743544217"><ele>583.0</ele><time>2026-04-26T16:37:49Z</time></trkpt><trkpt lat="43.40501068392341" lon="12.672201229603015"><ele>583.0</ele><time>2026-04-26T16:37:50Z</time></trkpt><trkpt lat="43.40493521870604" lon="12.672080747410769"><ele>583.0</ele><time>2026-04-26T16:37:51Z</time></trkpt><trkpt lat="43.40486885929649" lon="12.671951841940903"><ele>583.0</ele><time>2026-04-26T16:37:52Z</time></trkpt><trkpt lat="43.40479663665255" lon="12.671818166817541"><ele>583.0</ele><time>2026-04-26T16:37:53Z</time></trkpt><trkpt lat="43.40472208712583" lon="12.671683572513523"><ele>584.75</ele><time>2026-04-26T16:37:54Z</time></trkpt><trkpt lat="43.40464937674964" lon="12.671552930953723"><ele>586.5</ele><time>2026-04-26T16:37:55Z</time></trkpt><trkpt lat="43.404569558540246" lon="12.671425092311072"><ele>588.25</ele><time>2026-04-26T16:37:56Z</time></trkpt><trkpt lat="43.404494488521664" lon="12.671295838632682"><ele>590.0</ele><time>2026-04-26T16:37:57Z</time></trkpt><trkpt lat="43.40442189563634" lon="12.67116975066205"><ele>588.75</ele><time>2026-04-26T16:37:58Z</time></trkpt><trkpt lat="43.404345619689686" lon="12.671040098959471"><ele>587.5</ele><time>2026-04-26T16:37:59Z</time></trkpt><trkpt lat="43.4042705957005" lon="12.670912258725197"><ele>586.25</ele><time>2026-04-26T16:38:00Z</time></trkpt><trkpt lat="43.40420047286512" lon="12.670783671900345"><ele>585.0</ele><time>2026-04-26T16:38:01Z</time></trkpt><trkpt lat="43.40412871594963" lon="12.670656204247495"><ele>585.0</ele><time>2026-04-26T16:38:02Z</time></trkpt><trkpt lat="43.40404234960833" lon="12.670546112002429"><ele>585.0</ele><time>2026-04-26T16:38:03Z</time></trkpt><trkpt lat="43.40396914307991" lon="12.670419174652215"><ele>585.0</ele><time>2026-04-26T16:38:04Z</time></trkpt><trkpt lat="43.403894826720204" lon="12.670297643863227"><ele>585.0</ele><time>2026-04-26T16:38:05Z</time></trkpt><trkpt lat="43.40382843627227" lon="12.670186414363213"><ele>584.6</ele><time>2026-04-26T16:38:06Z</time></trkpt><trkpt lat="43.403756751632415" lon="12.67007226051679"><ele>584.2</ele><time>2026-04-26T16:38:07Z</time></trkpt><trkpt lat="43.40367788679669" lon="12.669976720911276"><ele>583.8</ele><time>2026-04-26T16:38:08Z</time></trkpt><trkpt lat="43.403596402764215" lon="12.669890560929554"><ele>583.4</ele><time>2026-04-26T16:38:09Z</time></trkpt><trkpt lat="43.40351239214425" lon="12.669819542298049"><ele>583.0</ele><time>2026-04-26T16:38:10Z</time></trkpt><trkpt lat="43.403433512878" lon="12.669745979486498"><ele>583.0</ele><time>2026-04-26T16:38:11Z</time></trkpt><trkpt lat="43.403344301672725" lon="12.669695092364464"><ele>583.0</ele><time>2026-04-26T16:38:12Z</time></trkpt><trkpt lat="43.403242664360256" lon="12.669683016023615"><ele>583.0</ele><time>2026-04-26T16:38:13Z</time></trkpt><trkpt lat="43.40314032058722" lon="12.669687718917189"><ele>583.0</ele><time>2026-04-26T16:38:14Z</time></trkpt><trkpt lat="43.403033433793276" lon="12.669707268935825"><ele>583.0</ele><time>2026-04-26T16:38:15Z</time></trkpt><trkpt lat="43.40293613082222" lon="12.669731235520018"><ele>583.1999999999999</ele><time>2026-04-26T16:38:16Z</time></trkpt><trkpt lat="43.40283341383051" lon="12.669717184396095"><ele>583.4</ele><time>2026-04-26T16:38:17Z</time></trkpt><trkpt lat="43.40272549897407" lon="12.669748509495355"><ele>583.5999999999999</ele><time>2026-04-26T16:38:18Z</time></trkpt><trkpt lat="43.402615724813586" lon="12.6697442324399"><ele>583.8</ele><time>2026-04-26T16:38:19Z</time></trkpt><trkpt lat="43.40252168690684" lon="12.66975664438044"><ele>584.0</ele><time>2026-04-26T16:38:20Z</time></trkpt><trkpt lat="43.40243602567786" lon="12.669765719417272"><ele>584.0</ele><time>2026-04-26T16:38:21Z</time></trkpt><trkpt lat="43.40235317542134" lon="12.66977449666186"><ele>584.0</ele><time>2026-04-26T16:38:22Z</time></trkpt><trkpt lat="43.40227434488733" lon="12.669783800886599"><ele>584.0</ele><time>2026-04-26T16:38:23Z</time></trkpt><trkpt lat="43.402204464597574" lon="12.669794587007273"><ele>584.0</ele><time>2026-04-26T16:38:24Z</time></trkpt><trkpt lat="43.402101695390286" lon="12.66980607970911"><ele>584.0</ele><time>2026-04-26T16:38:26Z</time></trkpt><trkpt lat="43.40203295239489" lon="12.66970983079943"><ele>584.0</ele><time>2026-04-26T16:38:28Z</time></trkpt><trkpt lat="43.401993766852605" lon="12.669620550145071"><ele>583.4</ele><time>2026-04-26T16:38:30Z</time></trkpt><trkpt lat="43.402109556428684" lon="12.669481577157217"><ele>582.8</ele><time>2026-04-26T16:38:31Z</time></trkpt><trkpt lat="43.40216613376625" lon="12.669399007606168"><ele>582.2</ele><time>2026-04-26T16:38:32Z</time></trkpt><trkpt lat="43.402219000663976" lon="12.66929774934442"><ele>581.6</ele><time>2026-04-26T16:38:33Z</time></trkpt><trkpt lat="43.40228355485513" lon="12.669180311347711"><ele>581.0</ele><time>2026-04-26T16:38:34Z</time></trkpt><trkpt lat="43.40235169021311" lon="12.669055545547682"><ele>580.4</ele><time>2026-04-26T16:38:35Z</time></trkpt><trkpt lat="43.40241702071695" lon="12.668934965426114"><ele>579.8</ele><time>2026-04-26T16:38:36Z</time></trkpt><trkpt lat="43.40248455614723" lon="12.668807387322847"><ele>579.1999999999999</ele><time>2026-04-26T16:38:37Z</time></trkpt><trkpt lat="43.402546285590944" lon="12.668693065850587"><ele>578.6</ele><time>2026-04-26T16:38:38Z</time></trkpt><trkpt lat="43.402604039635555" lon="12.668586566317273"><ele>578.0</ele><time>2026-04-26T16:38:39Z</time></trkpt><trkpt lat="43.40265597566788" lon="12.668486493971058"><ele>577.8333333333333</ele><time>2026-04-26T16:38:40Z</time></trkpt><trkpt lat="43.402700142228795" lon="12.668395700797861"><ele>577.6666666666666</ele><time>2026-04-26T16:38:41Z</time></trkpt><trkpt lat="43.402751611705774" lon="12.668330779518671"><ele>577.5</ele><time>2026-04-26T16:38:42Z</time></trkpt><trkpt lat="43.40278614036185" lon="12.668249404178612"><ele>577.3333333333334</ele><time>2026-04-26T16:38:43Z</time></trkpt><trkpt lat="43.402822373842675" lon="12.668147844922492"><ele>577.1666666666667</ele><time>2026-04-26T16:38:44Z</time></trkpt><trkpt lat="43.402871654847395" lon="12.668006290075498"><ele>577.0</ele><time>2026-04-26T16:38:45Z</time></trkpt><trkpt lat="43.402930332045614" lon="12.667847897575415"><ele>578.3333333333334</ele><time>2026-04-26T16:38:46Z</time></trkpt><trkpt lat="43.40295611075458" lon="12.667652473216476"><ele>579.6666666666666</ele><time>2026-04-26T16:38:47Z</time></trkpt><trkpt lat="43.40296624851981" lon="12.667421504254365"><ele>581.0</ele><time>2026-04-26T16:38:48Z</time></trkpt><trkpt lat="43.40296256940598" lon="12.667182614304968"><ele>581.0</ele><time>2026-04-26T16:38:49Z</time></trkpt><trkpt lat="43.4029581074585" lon="12.66696668819688"><ele>581.0</ele><time>2026-04-26T16:38:50Z</time></trkpt><trkpt lat="43.40295656817218" lon="12.666790256519882"><ele>581.0</ele><time>2026-04-26T16:38:51Z</time></trkpt><trkpt lat="43.40296576422662" lon="12.666641952338413"><ele>581.0</ele><time>2026-04-26T16:38:52Z</time></trkpt><trkpt lat="43.40295978673217" lon="12.666519108059294"><ele>581.75</ele><time>2026-04-26T16:38:53Z</time></trkpt><trkpt lat="43.402878872313295" lon="12.66639224928178"><ele>582.5</ele><time>2026-04-26T16:38:54Z</time></trkpt><trkpt lat="43.402820699449336" lon="12.666235245787648"><ele>583.25</ele><time>2026-04-26T16:38:55Z</time></trkpt><trkpt lat="43.402766704418724" lon="12.666074470274639"><ele>584.0</ele><time>2026-04-26T16:38:56Z</time></trkpt><trkpt lat="43.40272116842968" lon="12.665908200301805"><ele>584.0</ele><time>2026-04-26T16:38:57Z</time></trkpt><trkpt lat="43.4026938381922" lon="12.665709117887396"><ele>584.0</ele><time>2026-04-26T16:38:58Z</time></trkpt><trkpt lat="43.40266626465597" lon="12.665503239080033"><ele>584.0</ele><time>2026-04-26T16:38:59Z</time></trkpt><trkpt lat="43.402646577432854" lon="12.665284615809565"><ele>584.6666666666666</ele><time>2026-04-26T16:39:00Z</time></trkpt><trkpt lat="43.402624475138055" lon="12.665071834987115"><ele>585.3333333333334</ele><time>2026-04-26T16:39:01Z</time></trkpt><trkpt lat="43.40260254313577" lon="12.66485848945608"><ele>586.0</ele><time>2026-04-26T16:39:02Z</time></trkpt><trkpt lat="43.40257904173767" lon="12.664645092006635"><ele>586.0</ele><time>2026-04-26T16:39:03Z</time></trkpt><trkpt lat="43.40255179627167" lon="12.664450362052175"><ele>586.0</ele><time>2026-04-26T16:39:04Z</time></trkpt><trkpt lat="43.402530576913065" lon="12.664224885983089"><ele>586.0</ele><time>2026-04-26T16:39:05Z</time></trkpt><trkpt lat="43.40249521096111" lon="12.66401909613542"><ele>586.3333333333334</ele><time>2026-04-26T16:39:06Z</time></trkpt><trkpt lat="43.402484727852105" lon="12.663805443936125"><ele>586.6666666666666</ele><time>2026-04-26T16:39:07Z</time></trkpt><trkpt lat="43.40246584895394" lon="12.663599506724305"><ele>587.0</ele><time>2026-04-26T16:39:08Z</time></trkpt><trkpt lat="43.40245466614708" lon="12.66337513141656"><ele>586.6666666666666</ele><time>2026-04-26T16:39:09Z</time></trkpt><trkpt lat="43.40243964491988" lon="12.663159928984214"><ele>586.3333333333334</ele><time>2026-04-26T16:39:10Z</time></trkpt><trkpt lat="43.402455924538" lon="12.66292296757934"><ele>586.0</ele><time>2026-04-26T16:39:11Z</time></trkpt><trkpt lat="43.40246608465719" lon="12.662681323724627"><ele>586.0</ele><time>2026-04-26T16:39:12Z</time></trkpt><trkpt lat="43.402479052907125" lon="12.66243705443763"><ele>586.0</ele><time>2026-04-26T16:39:13Z</time></trkpt><trkpt lat="43.40249163382146" lon="12.662192241751788"><ele>586.0</ele><time>2026-04-26T16:39:14Z</time></trkpt><trkpt lat="43.40250600294244" lon="12.661932070917953"><ele>586.6666666666667</ele><time>2026-04-26T16:39:15Z</time></trkpt><trkpt lat="43.40252043069446" lon="12.661676771326253"><ele>587.3333333333334</ele><time>2026-04-26T16:39:16Z</time></trkpt><trkpt lat="43.402535305010325" lon="12.66141407334481"><ele>588.0</ele><time>2026-04-26T16:39:17Z</time></trkpt><trkpt lat="43.40255023311448" lon="12.661151845164957"><ele>587.6666666666666</ele><time>2026-04-26T16:39:18Z</time></trkpt><trkpt lat="43.40256503740618" lon="12.660891791892766"><ele>587.3333333333333</ele><time>2026-04-26T16:39:19Z</time></trkpt><trkpt lat="43.40258098923328" lon="12.660611580888812"><ele>587.0</ele><time>2026-04-26T16:39:20Z</time></trkpt><trkpt lat="43.40258731446791" lon="12.660362495230162"><ele>587.6666666666666</ele><time>2026-04-26T16:39:21Z</time></trkpt><trkpt lat="43.402607881489466" lon="12.66010328247192"><ele>588.3333333333334</ele><time>2026-04-26T16:39:22Z</time></trkpt><trkpt lat="43.40261242888487" lon="12.659827667432086"><ele>589.0</ele><time>2026-04-26T16:39:23Z</time></trkpt><trkpt lat="43.40263340719588" lon="12.65956215142227"><ele>589.3333333333334</ele><time>2026-04-26T16:39:24Z</time></trkpt><trkpt lat="43.402655886828704" lon="12.659297540686245"><ele>589.6666666666666</ele><time>2026-04-26T16:39:25Z</time></trkpt><trkpt lat="43.402676348947665" lon="12.65903299659285"><ele>590.0</ele><time>2026-04-26T16:39:26Z</time></trkpt><trkpt lat="43.40269167073519" lon="12.658765000839725"><ele>588.6666666666666</ele><time>2026-04-26T16:39:27Z</time></trkpt><trkpt lat="43.40270486360001" lon="12.658499110859832"><ele>587.3333333333334</ele><time>2026-04-26T16:39:28Z</time></trkpt><trkpt lat="43.40272032989148" lon="12.65823042907861"><ele>586.0</ele><time>2026-04-26T16:39:29Z</time></trkpt><trkpt lat="43.402730134938416" lon="12.657972072826105"><ele>587.0</ele><time>2026-04-26T16:39:30Z</time></trkpt><trkpt lat="43.40273887004313" lon="12.657705898128809"><ele>588.0</ele><time>2026-04-26T16:39:31Z</time></trkpt><trkpt lat="43.40270417520669" lon="12.657479980346684"><ele>589.0</ele><time>2026-04-26T16:39:32Z</time></trkpt><trkpt lat="43.40265954373611" lon="12.657264370258893"><ele>589.0</ele><time>2026-04-26T16:39:33Z</time></trkpt><trkpt lat="43.402648123870954" lon="12.656962050659912"><ele>589.0</ele><time>2026-04-26T16:39:34Z</time></trkpt><trkpt lat="43.40267081293429" lon="12.656697987903183"><ele>589.0</ele><time>2026-04-26T16:39:35Z</time></trkpt><trkpt lat="43.40273600090695" lon="12.656433483607067"><ele>589.6666666666667</ele><time>2026-04-26T16:39:36Z</time></trkpt><trkpt lat="43.4027976697373" lon="12.656186619948802"><ele>590.3333333333334</ele><time>2026-04-26T16:39:37Z</time></trkpt><trkpt lat="43.402866642508336" lon="12.65597290524268"><ele>591.0</ele><time>2026-04-26T16:39:38Z</time></trkpt><trkpt lat="43.4029074113289" lon="12.655764404910494"><ele>590.6666666666666</ele><time>2026-04-26T16:39:39Z</time></trkpt><trkpt lat="43.402875843756696" lon="12.655535927243166"><ele>590.3333333333333</ele><time>2026-04-26T16:39:40Z</time></trkpt><trkpt lat="43.40278778741766" lon="12.655323093559934"><ele>590.0</ele><time>2026-04-26T16:39:41Z</time></trkpt><trkpt lat="43.40266154271158" lon="12.65506687487677"><ele>590.0</ele><time>2026-04-26T16:39:42Z</time></trkpt><trkpt lat="43.402513977283036" lon="12.654822669019802"><ele>590.0</ele><time>2026-04-26T16:39:43Z</time></trkpt><trkpt lat="43.40237911890966" lon="12.65459479767852"><ele>590.0</ele><time>2026-04-26T16:39:44Z</time></trkpt><trkpt lat="43.40225016264943" lon="12.654351748918428"><ele>589.3333333333333</ele><time>2026-04-26T16:39:45Z</time></trkpt><trkpt lat="43.402130581509006" lon="12.65412056351686"><ele>588.6666666666666</ele><time>2026-04-26T16:39:46Z</time></trkpt><trkpt lat="43.40203390734974" lon="12.653839346280485"><ele>588.0</ele><time>2026-04-26T16:39:47Z</time></trkpt><trkpt lat="43.40192831756737" lon="12.653561956946247"><ele>590.5</ele><time>2026-04-26T16:39:48Z</time></trkpt><trkpt lat="43.40181761437707" lon="12.653277297201152"><ele>593.0</ele><time>2026-04-26T16:39:49Z</time></trkpt><trkpt lat="43.40171224189298" lon="12.652994677033659"><ele>596.5</ele><time>2026-04-26T16:39:50Z</time></trkpt><trkpt lat="43.40160633144953" lon="12.652713641598792"><ele>600.0</ele><time>2026-04-26T16:39:51Z</time></trkpt><trkpt lat="43.401500374570126" lon="12.652437713004405"><ele>600.0</ele><time>2026-04-26T16:39:52Z</time></trkpt><trkpt lat="43.401399604849644" lon="12.652169614164398"><ele>600.0</ele><time>2026-04-26T16:39:53Z</time></trkpt><trkpt lat="43.401286342541866" lon="12.651913576743013"><ele>600.0</ele><time>2026-04-26T16:39:54Z</time></trkpt><trkpt lat="43.401146081986326" lon="12.651683092231437"><ele>601.3333333333334</ele><time>2026-04-26T16:39:55Z</time></trkpt><trkpt lat="43.40100043582701" lon="12.651468116631705"><ele>602.6666666666667</ele><time>2026-04-26T16:39:56Z</time></trkpt><trkpt lat="43.400839714800405" lon="12.65126964412547"><ele>604.0</ele><time>2026-04-26T16:39:57Z</time></trkpt><trkpt lat="43.400662718606874" lon="12.651091968404966"><ele>603.0</ele><time>2026-04-26T16:39:58Z</time></trkpt><trkpt lat="43.400478490089796" lon="12.65093012214865"><ele>602.0</ele><time>2026-04-26T16:39:59Z</time></trkpt><trkpt lat="43.400278843966234" lon="12.650776193708914"><ele>601.0</ele><time>2026-04-26T16:40:00Z</time></trkpt><trkpt lat="43.40008276149961" lon="12.650607331000893"><ele>601.0</ele><time>2026-04-26T16:40:01Z</time></trkpt><trkpt lat="43.3998931074427" lon="12.650425508571773"><ele>601.0</ele><time>2026-04-26T16:40:02Z</time></trkpt><trkpt lat="43.399705166240075" lon="12.650237650282232"><ele>602.5</ele><time>2026-04-26T16:40:03Z</time></trkpt><trkpt lat="43.39952459366217" lon="12.650038514433472"><ele>604.0</ele><time>2026-04-26T16:40:04Z</time></trkpt><trkpt lat="43.39935444394981" lon="12.649841882395288"><ele>604.0</ele><time>2026-04-26T16:40:05Z</time></trkpt><trkpt lat="43.3992201650877" lon="12.649646036784084"><ele>604.0</ele><time>2026-04-26T16:40:06Z</time></trkpt><trkpt lat="43.39908802302524" lon="12.649487581972906"><ele>604.0</ele><time>2026-04-26T16:40:07Z</time></trkpt><trkpt lat="43.398975537563544" lon="12.649332071488963"><ele>604.25</ele><time>2026-04-26T16:40:08Z</time></trkpt><trkpt lat="43.398875976290704" lon="12.649173408966348"><ele>604.5</ele><time>2026-04-26T16:40:09Z</time></trkpt><trkpt lat="43.3988174081745" lon="12.648988948717735"><ele>604.75</ele><time>2026-04-26T16:40:10Z</time></trkpt><trkpt lat="43.39877218297883" lon="12.648805879289297"><ele>605.0</ele><time>2026-04-26T16:40:11Z</time></trkpt><trkpt lat="43.3987316103597" lon="12.648618348269615"><ele>607.75</ele><time>2026-04-26T16:40:12Z</time></trkpt><trkpt lat="43.398714167377136" lon="12.64842545018985"><ele>610.5</ele><time>2026-04-26T16:40:13Z</time></trkpt><trkpt lat="43.39870061057438" lon="12.648240704388506"><ele>613.25</ele><time>2026-04-26T16:40:14Z</time></trkpt><trkpt lat="43.398684693847976" lon="12.64805224940068"><ele>616.0</ele><time>2026-04-26T16:40:15Z</time></trkpt><trkpt lat="43.39864718719172" lon="12.647869479777874"><ele>618.0</ele><time>2026-04-26T16:40:16Z</time></trkpt><trkpt lat="43.398588934019536" lon="12.647684606357195"><ele>620.0</ele><time>2026-04-26T16:40:17Z</time></trkpt><trkpt lat="43.39856227507738" lon="12.647495755662387"><ele>622.0</ele><time>2026-04-26T16:40:18Z</time></trkpt><trkpt lat="43.398437042017335" lon="12.647344221023719"><ele>622.0</ele><time>2026-04-26T16:40:19Z</time></trkpt><trkpt lat="43.39837035495647" lon="12.647169218231381"><ele>622.0</ele><time>2026-04-26T16:40:20Z</time></trkpt><trkpt lat="43.39829756417162" lon="12.647000165895507"><ele>622.0</ele><time>2026-04-26T16:40:21Z</time></trkpt><trkpt lat="43.398227465633326" lon="12.646814843308448"><ele>622.0</ele><time>2026-04-26T16:40:22Z</time></trkpt><trkpt lat="43.398144775891716" lon="12.646652565422578"><ele>622.6666666666667</ele><time>2026-04-26T16:40:23Z</time></trkpt><trkpt lat="43.39804248313081" lon="12.646510162462299"><ele>623.3333333333334</ele><time>2026-04-26T16:40:24Z</time></trkpt><trkpt lat="43.39792706333495" lon="12.64637371100853"><ele>624.0</ele><time>2026-04-26T16:40:25Z</time></trkpt><trkpt lat="43.39781934304299" lon="12.646214469943912"><ele>622.3333333333334</ele><time>2026-04-26T16:40:26Z</time></trkpt><trkpt lat="43.397731418513565" lon="12.646034099448235"><ele>620.6666666666667</ele><time>2026-04-26T16:40:27Z</time></trkpt><trkpt lat="43.39765531554907" lon="12.64584340128757"><ele>619.0</ele><time>2026-04-26T16:40:28Z</time></trkpt><trkpt lat="43.397576650911326" lon="12.645657755325324"><ele>619.0</ele><time>2026-04-26T16:40:29Z</time></trkpt><trkpt lat="43.39748302120146" lon="12.645435545142503"><ele>619.0</ele><time>2026-04-26T16:40:30Z</time></trkpt><trkpt lat="43.39737412404532" lon="12.64517903062534"><ele>619.0</ele><time>2026-04-26T16:40:31Z</time></trkpt><trkpt lat="43.3972646341328" lon="12.644882321555041"><ele>616.5</ele><time>2026-04-26T16:40:32Z</time></trkpt><trkpt lat="43.39715767938177" lon="12.644577939460882"><ele>614.0</ele><time>2026-04-26T16:40:33Z</time></trkpt><trkpt lat="43.39706411630822" lon="12.644244352484174"><ele>614.0</ele><time>2026-04-26T16:40:34Z</time></trkpt><trkpt lat="43.396950114277146" lon="12.643933966916189"><ele>614.0</ele><time>2026-04-26T16:40:35Z</time></trkpt><trkpt lat="43.3967750014216" lon="12.643645253189195"><ele>619.5</ele><time>2026-04-26T16:40:36Z</time></trkpt><trkpt lat="43.39659871125121" lon="12.643356108101623"><ele>625.0</ele><time>2026-04-26T16:40:37Z</time></trkpt><trkpt lat="43.39644032072567" lon="12.643061836722309"><ele>620.5</ele><time>2026-04-26T16:40:38Z</time></trkpt><trkpt lat="43.39628352332192" lon="12.64277604396103"><ele>616.0</ele><time>2026-04-26T16:40:39Z</time></trkpt><trkpt lat="43.396110122889255" lon="12.642498666260579"><ele>616.0</ele><time>2026-04-26T16:40:40Z</time></trkpt><trkpt lat="43.395933819124366" lon="12.64219910521796"><ele>616.0</ele><time>2026-04-26T16:40:41Z</time></trkpt><trkpt lat="43.39573096007799" lon="12.641973183650173"><ele>615.5</ele><time>2026-04-26T16:40:42Z</time></trkpt><trkpt lat="43.395543952306085" lon="12.641732195093688"><ele>615.0</ele><time>2026-04-26T16:40:43Z</time></trkpt><trkpt lat="43.39537348967473" lon="12.641502533558828"><ele>615.0</ele><time>2026-04-26T16:40:44Z</time></trkpt><trkpt lat="43.39518094938415" lon="12.641296466732923"><ele>615.0</ele><time>2026-04-26T16:40:45Z</time></trkpt><trkpt lat="43.39495931921613" lon="12.64108705599204"><ele>615.5</ele><time>2026-04-26T16:40:46Z</time></trkpt><trkpt lat="43.39475535002331" lon="12.64082402938963"><ele>616.0</ele><time>2026-04-26T16:40:47Z</time></trkpt><trkpt lat="43.39459407699362" lon="12.64052733165336"><ele>618.5</ele><time>2026-04-26T16:40:48Z</time></trkpt><trkpt lat="43.39438155616907" lon="12.640258687539262"><ele>621.0</ele><time>2026-04-26T16:40:49Z</time></trkpt><trkpt lat="43.394171324788346" lon="12.639960129591747"><ele>621.0</ele><time>2026-04-26T16:40:50Z</time></trkpt><trkpt lat="43.3939636229519" lon="12.639651819975969"><ele>621.0</ele><time>2026-04-26T16:40:51Z</time></trkpt><trkpt lat="43.39373977655753" lon="12.639356471398504"><ele>622.5</ele><time>2026-04-26T16:40:52Z</time></trkpt><trkpt lat="43.393522536073036" lon="12.63907753407337"><ele>624.0</ele><time>2026-04-26T16:40:53Z</time></trkpt><trkpt lat="43.393327202980636" lon="12.638822997151811"><ele>627.0</ele><time>2026-04-26T16:40:54Z</time></trkpt><trkpt lat="43.393150110734865" lon="12.638599469034332"><ele>630.0</ele><time>2026-04-26T16:40:55Z</time></trkpt><trkpt lat="43.39299008056209" lon="12.63839090454686"><ele>623.5</ele><time>2026-04-26T16:40:56Z</time></trkpt><trkpt lat="43.39285513706718" lon="12.63815319720912"><ele>617.0</ele><time>2026-04-26T16:40:57Z</time></trkpt><trkpt lat="43.39273323983309" lon="12.637857054450983"><ele>617.5</ele><time>2026-04-26T16:40:58Z</time></trkpt><trkpt lat="43.392628485118884" lon="12.637523786913693"><ele>618.0</ele><time>2026-04-26T16:40:59Z</time></trkpt><trkpt lat="43.39252952158382" lon="12.637169214870314"><ele>623.5</ele><time>2026-04-26T16:41:00Z</time></trkpt><trkpt lat="43.39240819606434" lon="12.63682704348401"><ele>629.0</ele><time>2026-04-26T16:41:01Z</time></trkpt><trkpt lat="43.3922977568967" lon="12.636468377935397"><ele>632.5</ele><time>2026-04-26T16:41:02Z</time></trkpt><trkpt lat="43.39219944163412" lon="12.63610028216532"><ele>636.0</ele><time>2026-04-26T16:41:03Z</time></trkpt><trkpt lat="43.39212032641075" lon="12.635737352353294"><ele>630.5</ele><time>2026-04-26T16:41:04Z</time></trkpt><trkpt lat="43.392070036230145" lon="12.63542326165799"><ele>625.0</ele><time>2026-04-26T16:41:05Z</time></trkpt><trkpt lat="43.39201893860507" lon="12.635111870177537"><ele>625.0</ele><time>2026-04-26T16:41:06Z</time></trkpt><trkpt lat="43.39195995112033" lon="12.634828324421193"><ele>625.0</ele><time>2026-04-26T16:41:07Z</time></trkpt><trkpt lat="43.391910894907014" lon="12.634567304866511"><ele>625.0</ele><time>2026-04-26T16:41:08Z</time></trkpt><trkpt lat="43.39186910553214" lon="12.63431812866796"><ele>627.6666666666667</ele><time>2026-04-26T16:41:09Z</time></trkpt><trkpt lat="43.391827583439394" lon="12.634076486671693"><ele>630.3333333333334</ele><time>2026-04-26T16:41:10Z</time></trkpt><trkpt lat="43.39177936021833" lon="12.633848912651487"><ele>633.0</ele><time>2026-04-26T16:41:11Z</time></trkpt><trkpt lat="43.39177095387808" lon="12.633617855952485"><ele>633.3333333333334</ele><time>2026-04-26T16:41:12Z</time></trkpt><trkpt lat="43.39180548574042" lon="12.633381429752719"><ele>633.6666666666667</ele><time>2026-04-26T16:41:13Z</time></trkpt><trkpt lat="43.39186098371309" lon="12.633127026694181"><ele>634.0</ele><time>2026-04-26T16:41:14Z</time></trkpt><trkpt lat="43.39193658542218" lon="12.63286978067526"><ele>633.0</ele><time>2026-04-26T16:41:15Z</time></trkpt><trkpt lat="43.392003206670374" lon="12.632599885037616"><ele>632.0</ele><time>2026-04-26T16:41:16Z</time></trkpt><trkpt lat="43.39208527224934" lon="12.632321712454267"><ele>631.0</ele><time>2026-04-26T16:41:17Z</time></trkpt><trkpt lat="43.39218490145129" lon="12.632038785892075"><ele>634.0</ele><time>2026-04-26T16:41:18Z</time></trkpt><trkpt lat="43.392282775154094" lon="12.631751663490142"><ele>637.0</ele><time>2026-04-26T16:41:19Z</time></trkpt><trkpt lat="43.392386771145055" lon="12.63145029672758"><ele>635.0</ele><time>2026-04-26T16:41:20Z</time></trkpt><trkpt lat="43.39246331656062" lon="12.63113505190886"><ele>633.0</ele><time>2026-04-26T16:41:21Z</time></trkpt><trkpt lat="43.39254247309403" lon="12.630797244061387"><ele>633.0</ele><time>2026-04-26T16:41:22Z</time></trkpt><trkpt lat="43.392623535395224" lon="12.630478792291061"><ele>633.0</ele><time>2026-04-26T16:41:23Z</time></trkpt><trkpt lat="43.392709308941825" lon="12.630161290404075"><ele>634.0</ele><time>2026-04-26T16:41:24Z</time></trkpt><trkpt lat="43.392807817378724" lon="12.629857388091393"><ele>635.0</ele><time>2026-04-26T16:41:25Z</time></trkpt><trkpt lat="43.3928938236915" lon="12.629536890894137"><ele>633.3333333333333</ele><time>2026-04-26T16:41:26Z</time></trkpt><trkpt lat="43.39297546449111" lon="12.629241886379932"><ele>631.6666666666666</ele><time>2026-04-26T16:41:27Z</time></trkpt><trkpt lat="43.3930362857852" lon="12.629027146191524"><ele>630.0</ele><time>2026-04-26T16:41:28Z</time></trkpt><trkpt lat="43.393103048857256" lon="12.628771872204986"><ele>633.3333333333334</ele><time>2026-04-26T16:41:29Z</time></trkpt><trkpt lat="43.39313739412042" lon="12.628531023580043"><ele>636.6666666666667</ele><time>2026-04-26T16:41:30Z</time></trkpt><trkpt lat="43.393149156747484" lon="12.628251131465934"><ele>640.0</ele><time>2026-04-26T16:41:31Z</time></trkpt><trkpt lat="43.393148323129616" lon="12.627946979222548"><ele>637.5</ele><time>2026-04-26T16:41:32Z</time></trkpt><trkpt lat="43.39313484348984" lon="12.62763879278686"><ele>635.0</ele><time>2026-04-26T16:41:33Z</time></trkpt><trkpt lat="43.39309581100883" lon="12.627315091664391"><ele>635.0</ele><time>2026-04-26T16:41:34Z</time></trkpt><trkpt lat="43.393080382470515" lon="12.626989069379894"><ele>635.0</ele><time>2026-04-26T16:41:35Z</time></trkpt><trkpt lat="43.39307004973408" lon="12.626647151732103"><ele>635.0</ele><time>2026-04-26T16:41:36Z</time></trkpt><trkpt lat="43.39304718202772" lon="12.626293229602762"><ele>635.0</ele><time>2026-04-26T16:41:37Z</time></trkpt><trkpt lat="43.393044998390394" lon="12.62596713529694"><ele>638.5</ele><time>2026-04-26T16:41:38Z</time></trkpt><trkpt lat="43.393032251084094" lon="12.625615095119416"><ele>642.0</ele><time>2026-04-26T16:41:39Z</time></trkpt><trkpt lat="43.39300813184138" lon="12.625260290757634"><ele>641.0</ele><time>2026-04-26T16:41:40Z</time></trkpt><trkpt lat="43.3929906397826" lon="12.624909344886692"><ele>640.0</ele><time>2026-04-26T16:41:41Z</time></trkpt><trkpt lat="43.39298413064637" lon="12.6245716109411"><ele>641.0</ele><time>2026-04-26T16:41:42Z</time></trkpt><trkpt lat="43.39296117433436" lon="12.62424027651242"><ele>642.0</ele><time>2026-04-26T16:41:43Z</time></trkpt><trkpt lat="43.39294553698751" lon="12.623931682210717"><ele>646.0</ele><time>2026-04-26T16:41:44Z</time></trkpt><trkpt lat="43.39290131643965" lon="12.623638856321385"><ele>650.0</ele><time>2026-04-26T16:41:45Z</time></trkpt><trkpt lat="43.3928145592376" lon="12.623366232948838"><ele>654.0</ele><time>2026-04-26T16:41:46Z</time></trkpt><trkpt lat="43.39269437458016" lon="12.623120300756588"><ele>654.0</ele><time>2026-04-26T16:41:47Z</time></trkpt><trkpt lat="43.39254542911458" lon="12.62290212182978"><ele>654.0</ele><time>2026-04-26T16:41:48Z</time></trkpt><trkpt lat="43.39238350274257" lon="12.622679410771154"><ele>654.0</ele><time>2026-04-26T16:41:49Z</time></trkpt><trkpt lat="43.39224246532096" lon="12.622493662844732"><ele>655.3333333333334</ele><time>2026-04-26T16:41:50Z</time></trkpt><trkpt lat="43.39212742665096" lon="12.622293717170836"><ele>656.6666666666667</ele><time>2026-04-26T16:41:51Z</time></trkpt><trkpt lat="43.39205201196787" lon="12.62208658021562"><ele>658.0</ele><time>2026-04-26T16:41:52Z</time></trkpt><trkpt lat="43.39203332113374" lon="12.62187379055725"><ele>661.0</ele><time>2026-04-26T16:41:53Z</time></trkpt><trkpt lat="43.39204783205522" lon="12.621656918715399"><ele>664.0</ele><time>2026-04-26T16:41:54Z</time></trkpt><trkpt lat="43.392107368958975" lon="12.62142990493866"><ele>667.0</ele><time>2026-04-26T16:41:55Z</time></trkpt><trkpt lat="43.39219990774433" lon="12.621204862482623"><ele>673.0</ele><time>2026-04-26T16:41:56Z</time></trkpt><trkpt lat="43.392305862059985" lon="12.62097327536031"><ele>679.0</ele><time>2026-04-26T16:41:57Z</time></trkpt><trkpt lat="43.39241040238215" lon="12.620726011641798"><ele>685.0</ele><time>2026-04-26T16:41:58Z</time></trkpt><trkpt lat="43.39252133541096" lon="12.620463330565466"><ele>682.0</ele><time>2026-04-26T16:41:59Z</time></trkpt><trkpt lat="43.392644665839505" lon="12.620200478872935"><ele>679.0</ele><time>2026-04-26T16:42:00Z</time></trkpt><trkpt lat="43.3927633782659" lon="12.61992670320737"><ele>679.0</ele><time>2026-04-26T16:42:01Z</time></trkpt><trkpt lat="43.39287972249397" lon="12.619660201513422"><ele>679.0</ele><time>2026-04-26T16:42:02Z</time></trkpt><trkpt lat="43.39299470446865" lon="12.619398913606053"><ele>679.0</ele><time>2026-04-26T16:42:03Z</time></trkpt><trkpt lat="43.393096646062666" lon="12.6191541148148"><ele>681.3333333333334</ele><time>2026-04-26T16:42:04Z</time></trkpt><trkpt lat="43.39317729852902" lon="12.618911860540964"><ele>683.6666666666666</ele><time>2026-04-26T16:42:05Z</time></trkpt><trkpt lat="43.39322373527948" lon="12.618655284565603"><ele>686.0</ele><time>2026-04-26T16:42:06Z</time></trkpt><trkpt lat="43.39324273294466" lon="12.618386312126843"><ele>687.3333333333333</ele><time>2026-04-26T16:42:07Z</time></trkpt><trkpt lat="43.393230816924536" lon="12.618109610435189"><ele>688.6666666666666</ele><time>2026-04-26T16:42:08Z</time></trkpt><trkpt lat="43.39318756530771" lon="12.6178162981166"><ele>690.0</ele><time>2026-04-26T16:42:09Z</time></trkpt><trkpt lat="43.39312289754254" lon="12.61754850221696"><ele>690.0</ele><time>2026-04-26T16:42:10Z</time></trkpt><trkpt lat="43.393017173186074" lon="12.617303474079186"><ele>690.0</ele><time>2026-04-26T16:42:11Z</time></trkpt><trkpt lat="43.3928929359119" lon="12.617085373451408"><ele>690.0</ele><time>2026-04-26T16:42:12Z</time></trkpt><trkpt lat="43.392739924251366" lon="12.616897735502581"><ele>690.0</ele><time>2026-04-26T16:42:13Z</time></trkpt><trkpt lat="43.39256691468875" lon="12.616707305129802"><ele>690.0</ele><time>2026-04-26T16:42:14Z</time></trkpt><trkpt lat="43.392396717441635" lon="12.616518209794588"><ele>690.0</ele><time>2026-04-26T16:42:15Z</time></trkpt><trkpt lat="43.3922272401728" lon="12.616317201665755"><ele>690.5</ele><time>2026-04-26T16:42:16Z</time></trkpt><trkpt lat="43.39203945594252" lon="12.616111493008114"><ele>691.0</ele><time>2026-04-26T16:42:17Z</time></trkpt><trkpt lat="43.391871688185795" lon="12.615918037595504"><ele>691.0</ele><time>2026-04-26T16:42:18Z</time></trkpt><trkpt lat="43.3917176508816" lon="12.615754422170724"><ele>691.0</ele><time>2026-04-26T16:42:19Z</time></trkpt><trkpt lat="43.39155988440625" lon="12.615637374790763"><ele>691.0</ele><time>2026-04-26T16:42:20Z</time></trkpt><trkpt lat="43.391374281267126" lon="12.615559393377032"><ele>691.0</ele><time>2026-04-26T16:42:21Z</time></trkpt><trkpt lat="43.39118635467443" lon="12.615528999555957"><ele>691.0</ele><time>2026-04-26T16:42:22Z</time></trkpt><trkpt lat="43.390973116983076" lon="12.615540934892561"><ele>691.0</ele><time>2026-04-26T16:42:23Z</time></trkpt><trkpt lat="43.390746613916036" lon="12.615611635287825"><ele>691.0</ele><time>2026-04-26T16:42:24Z</time></trkpt><trkpt lat="43.390513800664955" lon="12.615692662131186"><ele>691.0</ele><time>2026-04-26T16:42:25Z</time></trkpt><trkpt lat="43.390290008254816" lon="12.615765304794122"><ele>694.0</ele><time>2026-04-26T16:42:26Z</time></trkpt><trkpt lat="43.39007804430251" lon="12.61581947543587"><ele>697.0</ele><time>2026-04-26T16:42:27Z</time></trkpt><trkpt lat="43.389851994972446" lon="12.61581679448446"><ele>700.0</ele><time>2026-04-26T16:42:28Z</time></trkpt><trkpt lat="43.389617755212434" lon="12.615757843148891"><ele>700.6666666666667</ele><time>2026-04-26T16:42:29Z</time></trkpt><trkpt lat="43.389388541825255" lon="12.615692013327992"><ele>701.3333333333334</ele><time>2026-04-26T16:42:30Z</time></trkpt><trkpt lat="43.38918804072999" lon="12.615651314183863"><ele>702.0</ele><time>2026-04-26T16:42:31Z</time></trkpt><trkpt lat="43.38899898944864" lon="12.615572901855398"><ele>700.3333333333334</ele><time>2026-04-26T16:42:32Z</time></trkpt><trkpt lat="43.388799804214585" lon="12.615446662520135"><ele>698.6666666666667</ele><time>2026-04-26T16:42:33Z</time></trkpt><trkpt lat="43.38858085257471" lon="12.615369661768373"><ele>697.0</ele><time>2026-04-26T16:42:34Z</time></trkpt><trkpt lat="43.38838969917563" lon="12.61511452765818"><ele>697.0</ele><time>2026-04-26T16:42:35Z</time></trkpt><trkpt lat="43.38819124490739" lon="12.61493622612044"><ele>697.0</ele><time>2026-04-26T16:42:36Z</time></trkpt><trkpt lat="43.388022635560645" lon="12.614779896584322"><ele>697.0</ele><time>2026-04-26T16:42:37Z</time></trkpt><trkpt lat="43.38789348420941" lon="12.614641867897827"><ele>697.0</ele><time>2026-04-26T16:42:38Z</time></trkpt><trkpt lat="43.387805967231486" lon="12.614512053407372"><ele>697.0</ele><time>2026-04-26T16:42:39Z</time></trkpt><trkpt lat="43.3877562030103" lon="12.614365897017475"><ele>697.0</ele><time>2026-04-26T16:42:40Z</time></trkpt><trkpt lat="43.38775889315545" lon="12.614157268336717"><ele>697.0</ele><time>2026-04-26T16:42:41Z</time></trkpt><trkpt lat="43.387817457348774" lon="12.613920027874382"><ele>699.6666666666667</ele><time>2026-04-26T16:42:42Z</time></trkpt><trkpt lat="43.38789648843642" lon="12.613672740554511"><ele>702.3333333333334</ele><time>2026-04-26T16:42:43Z</time></trkpt><trkpt lat="43.38792377542064" lon="12.613394449495582"><ele>705.0</ele><time>2026-04-26T16:42:44Z</time></trkpt><trkpt lat="43.387901963301374" lon="12.613075789188"><ele>708.6666666666666</ele><time>2026-04-26T16:42:45Z</time></trkpt><trkpt lat="43.387885097727114" lon="12.612787053113395"><ele>712.3333333333333</ele><time>2026-04-26T16:42:46Z</time></trkpt><trkpt lat="43.38787211605326" lon="12.61256848246141"><ele>716.0</ele><time>2026-04-26T16:42:47Z</time></trkpt><trkpt lat="43.38783769845138" lon="12.612401270647132"><ele>716.0</ele><time>2026-04-26T16:42:48Z</time></trkpt><trkpt lat="43.38776999121375" lon="12.612234623311906"><ele>716.0</ele><time>2026-04-26T16:42:49Z</time></trkpt><trkpt lat="43.38764498891983" lon="12.612102740234223"><ele>716.0</ele><time>2026-04-26T16:42:50Z</time></trkpt><trkpt lat="43.387449625399825" lon="12.612020877549405"><ele>716.0</ele><time>2026-04-26T16:42:51Z</time></trkpt><trkpt lat="43.38719606407098" lon="12.612152292220578"><ele>716.0</ele><time>2026-04-26T16:42:52Z</time></trkpt><trkpt lat="43.38697066514483" lon="12.612296778123856"><ele>713.5</ele><time>2026-04-26T16:42:53Z</time></trkpt><trkpt lat="43.3867115636618" lon="12.612382262896853"><ele>711.0</ele><time>2026-04-26T16:42:54Z</time></trkpt><trkpt lat="43.386469887278466" lon="12.612406714015389"><ele>706.0</ele><time>2026-04-26T16:42:55Z</time></trkpt><trkpt lat="43.38626348681934" lon="12.612428938794535"><ele>701.0</ele><time>2026-04-26T16:42:56Z</time></trkpt><trkpt lat="43.38607772576721" lon="12.612445882173983"><ele>696.0</ele><time>2026-04-26T16:42:57Z</time></trkpt><trkpt lat="43.385922022269" lon="12.612442103295562"><ele>696.0</ele><time>2026-04-26T16:42:58Z</time></trkpt><trkpt lat="43.385776872094816" lon="12.612376407488545"><ele>696.0</ele><time>2026-04-26T16:42:59Z</time></trkpt><trkpt lat="43.38562842354243" lon="12.612238533926119"><ele>696.0</ele><time>2026-04-26T16:43:00Z</time></trkpt><trkpt lat="43.385503392781004" lon="12.612040049274663"><ele>695.0</ele><time>2026-04-26T16:43:01Z</time></trkpt><trkpt lat="43.385399298602856" lon="12.611811984506181"><ele>694.0</ele><time>2026-04-26T16:43:02Z</time></trkpt><trkpt lat="43.38530637021354" lon="12.611594798830756"><ele>693.0</ele><time>2026-04-26T16:43:03Z</time></trkpt><trkpt lat="43.385213751435664" lon="12.61139774925915"><ele>693.0</ele><time>2026-04-26T16:43:04Z</time></trkpt><trkpt lat="43.38512218687588" lon="12.611214473479174"><ele>693.0</ele><time>2026-04-26T16:43:05Z</time></trkpt><trkpt lat="43.38503571325255" lon="12.611047308249912"><ele>693.0</ele><time>2026-04-26T16:43:06Z</time></trkpt><trkpt lat="43.38494665462188" lon="12.610896884527367"><ele>695.75</ele><time>2026-04-26T16:43:07Z</time></trkpt><trkpt lat="43.38486643608793" lon="12.610717594473696"><ele>698.5</ele><time>2026-04-26T16:43:08Z</time></trkpt><trkpt lat="43.38478907319124" lon="12.610560406339964"><ele>701.25</ele><time>2026-04-26T16:43:09Z</time></trkpt><trkpt lat="43.38470866063849" lon="12.61042093658452"><ele>704.0</ele><time>2026-04-26T16:43:10Z</time></trkpt><trkpt lat="43.384610230174324" lon="12.610316913868584"><ele>705.25</ele><time>2026-04-26T16:43:11Z</time></trkpt><trkpt lat="43.3844858412255" lon="12.610245439156891"><ele>706.5</ele><time>2026-04-26T16:43:12Z</time></trkpt><trkpt lat="43.384350102603605" lon="12.610206140905365"><ele>707.75</ele><time>2026-04-26T16:43:13Z</time></trkpt><trkpt lat="43.38422289501913" lon="12.610153643691318"><ele>709.0</ele><time>2026-04-26T16:43:14Z</time></trkpt><trkpt lat="43.3841045657369" lon="12.61009559240614"><ele>709.0</ele><time>2026-04-26T16:43:15Z</time></trkpt><trkpt lat="43.38398910047433" lon="12.610034112913747"><ele>709.0</ele><time>2026-04-26T16:43:16Z</time></trkpt><trkpt lat="43.38387284049574" lon="12.609972847346123"><ele>709.0</ele><time>2026-04-26T16:43:17Z</time></trkpt><trkpt lat="43.383762337017245" lon="12.609884993872656"><ele>709.0</ele><time>2026-04-26T16:43:18Z</time></trkpt><trkpt lat="43.38365959658846" lon="12.60976922753818"><ele>709.0</ele><time>2026-04-26T16:43:19Z</time></trkpt><trkpt lat="43.38356674901585" lon="12.609633084435924"><ele>709.0</ele><time>2026-04-26T16:43:20Z</time></trkpt><trkpt lat="43.38348749631747" lon="12.609482527312489"><ele>709.0</ele><time>2026-04-26T16:43:21Z</time></trkpt><trkpt lat="43.383404714091206" lon="12.60934995298723"><ele>709.0</ele><time>2026-04-26T16:43:22Z</time></trkpt><trkpt lat="43.3833284463963" lon="12.609234069186224"><ele>710.4000000000001</ele><time>2026-04-26T16:43:23Z</time></trkpt><trkpt lat="43.383256836551176" lon="12.609131254548256"><ele>711.8</ele><time>2026-04-26T16:43:24Z</time></trkpt><trkpt lat="43.38318150427913" lon="12.609049121480446"><ele>713.2</ele><time>2026-04-26T16:43:25Z</time></trkpt><trkpt lat="43.383083814720486" lon="12.609009136990254"><ele>714.5999999999999</ele><time>2026-04-26T16:43:26Z</time></trkpt><trkpt lat="43.38299340864148" lon="12.608986164702197"><ele>716.0</ele><time>2026-04-26T16:43:27Z</time></trkpt><trkpt lat="43.38292376858246" lon="12.609005709856106"><ele>716.0</ele><time>2026-04-26T16:43:28Z</time></trkpt><trkpt lat="43.38279014604292" lon="12.609241214745532"><ele>716.0</ele><time>2026-04-26T16:43:29Z</time></trkpt><trkpt lat="43.38269810379888" lon="12.609344346615481"><ele>716.0</ele><time>2026-04-26T16:43:30Z</time></trkpt><trkpt lat="43.38260227925107" lon="12.609416711700394"><ele>716.0</ele><time>2026-04-26T16:43:31Z</time></trkpt><trkpt lat="43.38250242837472" lon="12.609425507141367"><ele>716.0</ele><time>2026-04-26T16:43:32Z</time></trkpt><trkpt lat="43.382404247723855" lon="12.609372546951557"><ele>716.0</ele><time>2026-04-26T16:43:33Z</time></trkpt><trkpt lat="43.382325323111324" lon="12.60930187448585"><ele>716.0</ele><time>2026-04-26T16:43:34Z</time></trkpt><trkpt lat="43.38223320134972" lon="12.609185230583325"><ele>716.0</ele><time>2026-04-26T16:43:35Z</time></trkpt><trkpt lat="43.382100256030284" lon="12.609004024787556"><ele>719.3333333333333</ele><time>2026-04-26T16:43:36Z</time></trkpt><trkpt lat="43.38196939517259" lon="12.608803710012989"><ele>722.6666666666666</ele><time>2026-04-26T16:43:37Z</time></trkpt><trkpt lat="43.38183192202301" lon="12.608563029332606"><ele>726.0</ele><time>2026-04-26T16:43:38Z</time></trkpt><trkpt lat="43.381687792150395" lon="12.60833357794019"><ele>726.0</ele><time>2026-04-26T16:43:39Z</time></trkpt><trkpt lat="43.381525476167766" lon="12.608111506701256"><ele>726.0</ele><time>2026-04-26T16:43:40Z</time></trkpt><trkpt lat="43.381353535428076" lon="12.60788103125372"><ele>731.5</ele><time>2026-04-26T16:43:41Z</time></trkpt><trkpt lat="43.381186816387675" lon="12.607644729635176"><ele>737.0</ele><time>2026-04-26T16:43:42Z</time></trkpt><trkpt lat="43.38100711158781" lon="12.60741384867779"><ele>737.0</ele><time>2026-04-26T16:43:43Z</time></trkpt><trkpt lat="43.38081944497036" lon="12.607197693739831"><ele>737.0</ele><time>2026-04-26T16:43:44Z</time></trkpt><trkpt lat="43.380631813368446" lon="12.606979215524794"><ele>741.0</ele><time>2026-04-26T16:43:45Z</time></trkpt><trkpt lat="43.380431863592776" lon="12.606792547665025"><ele>745.0</ele><time>2026-04-26T16:43:46Z</time></trkpt><trkpt lat="43.38025656445325" lon="12.606613426898846"><ele>745.0</ele><time>2026-04-26T16:43:47Z</time></trkpt><trkpt lat="43.3800917245757" lon="12.606486128777002"><ele>745.0</ele><time>2026-04-26T16:43:48Z</time></trkpt><trkpt lat="43.37992927431645" lon="12.606388277872828"><ele>745.0</ele><time>2026-04-26T16:43:49Z</time></trkpt><trkpt lat="43.37975863234273" lon="12.606291796365843"><ele>747.3333333333334</ele><time>2026-04-26T16:43:50Z</time></trkpt><trkpt lat="43.379575860793786" lon="12.606203510653877"><ele>749.6666666666666</ele><time>2026-04-26T16:43:51Z</time></trkpt><trkpt lat="43.37933702047518" lon="12.60630302328063"><ele>752.0</ele><time>2026-04-26T16:43:52Z</time></trkpt><trkpt lat="43.37906919613792" lon="12.606492166141553"><ele>755.0</ele><time>2026-04-26T16:43:53Z</time></trkpt><trkpt lat="43.37882450024189" lon="12.606531149883148"><ele>758.0</ele><time>2026-04-26T16:43:54Z</time></trkpt><trkpt lat="43.37858218639834" lon="12.606601604552845"><ele>758.0</ele><time>2026-04-26T16:43:55Z</time></trkpt><trkpt lat="43.37833878634495" lon="12.606678630822493"><ele>758.0</ele><time>2026-04-26T16:43:56Z</time></trkpt><trkpt lat="43.37807661590943" lon="12.606763757856646"><ele>761.6666666666666</ele><time>2026-04-26T16:43:57Z</time></trkpt><trkpt lat="43.37784637055466" lon="12.606832209468775"><ele>765.3333333333333</ele><time>2026-04-26T16:43:58Z</time></trkpt><trkpt lat="43.3776425973697" lon="12.606884582746282"><ele>769.0</ele><time>2026-04-26T16:43:59Z</time></trkpt><trkpt lat="43.37748413626407" lon="12.60692056441762"><ele>769.0</ele><time>2026-04-26T16:44:00Z</time></trkpt><trkpt lat="43.377352386179474" lon="12.606921102815468"><ele>769.0</ele><time>2026-04-26T16:44:01Z</time></trkpt><trkpt lat="43.37723688357736" lon="12.606857360782156"><ele>769.0</ele><time>2026-04-26T16:44:02Z</time></trkpt><trkpt lat="43.37712912431478" lon="12.606768875858226"><ele>769.0</ele><time>2026-04-26T16:44:03Z</time></trkpt><trkpt lat="43.377072564705756" lon="12.606573512850998"><ele>768.3333333333333</ele><time>2026-04-26T16:44:04Z</time></trkpt><trkpt lat="43.37706858045067" lon="12.606351779199718"><ele>767.6666666666666</ele><time>2026-04-26T16:44:05Z</time></trkpt><trkpt lat="43.37714877010336" lon="12.606115597649797"><ele>767.0</ele><time>2026-04-26T16:44:06Z</time></trkpt><trkpt lat="43.37724964555095" lon="12.605916171097602"><ele>767.0</ele><time>2026-04-26T16:44:07Z</time></trkpt><trkpt lat="43.37738276632643" lon="12.605701997828197"><ele>767.0</ele><time>2026-04-26T16:44:08Z</time></trkpt><trkpt lat="43.37750066647901" lon="12.605490228488144"><ele>767.0</ele><time>2026-04-26T16:44:09Z</time></trkpt><trkpt lat="43.377609355932115" lon="12.605325656447171"><ele>769.0</ele><time>2026-04-26T16:44:10Z</time></trkpt><trkpt lat="43.37778050145062" lon="12.605243031220287"><ele>771.0</ele><time>2026-04-26T16:44:11Z</time></trkpt><trkpt lat="43.377982143443006" lon="12.605231165629839"><ele>773.0</ele><time>2026-04-26T16:44:12Z</time></trkpt><trkpt lat="43.378179196299214" lon="12.60524220406408"><ele>773.0</ele><time>2026-04-26T16:44:13Z</time></trkpt><trkpt lat="43.37834424169049" lon="12.60523821571817"><ele>773.0</ele><time>2026-04-26T16:44:14Z</time></trkpt><trkpt lat="43.37847246557771" lon="12.60517302518352"><ele>773.0</ele><time>2026-04-26T16:44:15Z</time></trkpt><trkpt lat="43.37857860756166" lon="12.605027665377147"><ele>773.0</ele><time>2026-04-26T16:44:16Z</time></trkpt><trkpt lat="43.37866644720181" lon="12.604818121194283"><ele>773.0</ele><time>2026-04-26T16:44:17Z</time></trkpt><trkpt lat="43.378731017937625" lon="12.604601509307289"><ele>773.0</ele><time>2026-04-26T16:44:18Z</time></trkpt><trkpt lat="43.37877883576102" lon="12.604392772270899"><ele>774.75</ele><time>2026-04-26T16:44:19Z</time></trkpt><trkpt lat="43.37880964163285" lon="12.604259960024326"><ele>776.5</ele><time>2026-04-26T16:44:20Z</time></trkpt><trkpt lat="43.378724622085656" lon="12.604059527815869"><ele>778.25</ele><time>2026-04-26T16:44:21Z</time></trkpt><trkpt lat="43.378609947757575" lon="12.603881919009142"><ele>780.0</ele><time>2026-04-26T16:44:22Z</time></trkpt><trkpt lat="43.378489811284254" lon="12.603811145784364"><ele>780.0</ele><time>2026-04-26T16:44:23Z</time></trkpt><trkpt lat="43.37831650742233" lon="12.603780967747273"><ele>780.0</ele><time>2026-04-26T16:44:24Z</time></trkpt><trkpt lat="43.37815575756419" lon="12.603823461430162"><ele>780.0</ele><time>2026-04-26T16:44:25Z</time></trkpt><trkpt lat="43.378018479379946" lon="12.603837691557583"><ele>779.5</ele><time>2026-04-26T16:44:26Z</time></trkpt><trkpt lat="43.3778744556097" lon="12.60383978490553"><ele>779.0</ele><time>2026-04-26T16:44:27Z</time></trkpt><trkpt lat="43.37773595583813" lon="12.603845537503146"><ele>778.5</ele><time>2026-04-26T16:44:28Z</time></trkpt><trkpt lat="43.377601746053664" lon="12.603839295130143"><ele>778.0</ele><time>2026-04-26T16:44:29Z</time></trkpt><trkpt lat="43.37746807276062" lon="12.603824910312955"><ele>778.0</ele><time>2026-04-26T16:44:30Z</time></trkpt><trkpt lat="43.37734100986968" lon="12.603795312985344"><ele>778.0</ele><time>2026-04-26T16:44:31Z</time></trkpt><trkpt lat="43.377222267885536" lon="12.603717490529514"><ele>778.0</ele><time>2026-04-26T16:44:32Z</time></trkpt><trkpt lat="43.37711854588907" lon="12.60363514025755"><ele>778.0</ele><time>2026-04-26T16:44:33Z</time></trkpt><trkpt lat="43.37700148821663" lon="12.603598184109819"><ele>777.25</ele><time>2026-04-26T16:44:34Z</time></trkpt><trkpt lat="43.376875726994285" lon="12.6036092276153"><ele>776.5</ele><time>2026-04-26T16:44:35Z</time></trkpt><trkpt lat="43.376754169142906" lon="12.60364745980861"><ele>775.75</ele><time>2026-04-26T16:44:36Z</time></trkpt><trkpt lat="43.37664487716506" lon="12.603674870969478"><ele>775.0</ele><time>2026-04-26T16:44:37Z</time></trkpt><trkpt lat="43.376527586243334" lon="12.603689253967035"><ele>775.0</ele><time>2026-04-26T16:44:38Z</time></trkpt><trkpt lat="43.37642171924559" lon="12.603711137230738"><ele>775.0</ele><time>2026-04-26T16:44:39Z</time></trkpt><trkpt lat="43.376305570247716" lon="12.60374212141608"><ele>775.0</ele><time>2026-04-26T16:44:40Z</time></trkpt><trkpt lat="43.3762180389309" lon="12.603746930046116"><ele>775.0</ele><time>2026-04-26T16:44:41Z</time></trkpt><trkpt lat="43.37613896665617" lon="12.60370731683268"><ele>775.0</ele><time>2026-04-26T16:44:42Z</time></trkpt><trkpt lat="43.376085304319545" lon="12.603592853143192"><ele>770.8</ele><time>2026-04-26T16:44:43Z</time></trkpt><trkpt lat="43.376068210310684" lon="12.603466259175178"><ele>766.6</ele><time>2026-04-26T16:44:44Z</time></trkpt><trkpt lat="43.37609864503362" lon="12.603332756077588"><ele>762.4000000000001</ele><time>2026-04-26T16:44:45Z</time></trkpt><trkpt lat="43.37614952762939" lon="12.60321782706762"><ele>758.2</ele><time>2026-04-26T16:44:46Z</time></trkpt><trkpt lat="43.376241511533834" lon="12.60312675838779"><ele>754.0</ele><time>2026-04-26T16:44:47Z</time></trkpt><trkpt lat="43.376368416778924" lon="12.603075360340375"><ele>754.0</ele><time>2026-04-26T16:44:48Z</time></trkpt><trkpt lat="43.37649356786139" lon="12.603009876185727"><ele>754.0</ele><time>2026-04-26T16:44:49Z</time></trkpt><trkpt lat="43.37659948640087" lon="12.602974740308113"><ele>754.0</ele><time>2026-04-26T16:44:50Z</time></trkpt><trkpt lat="43.37670030248151" lon="12.602925904556665"><ele>754.0</ele><time>2026-04-26T16:44:51Z</time></trkpt><trkpt lat="43.37678804196349" lon="12.602873851882546"><ele>754.0</ele><time>2026-04-26T16:44:52Z</time></trkpt><trkpt lat="43.376852125270574" lon="12.60280799287189"><ele>751.8333333333334</ele><time>2026-04-26T16:44:53Z</time></trkpt><trkpt lat="43.376891567671414" lon="12.602740011112903"><ele>749.6666666666667</ele><time>2026-04-26T16:44:54Z</time></trkpt><trkpt lat="43.37690936605066" lon="12.602601763020353"><ele>747.5</ele><time>2026-04-26T16:44:55Z</time></trkpt><trkpt lat="43.37690450165345" lon="12.602494847163738"><ele>745.3333333333334</ele><time>2026-04-26T16:44:56Z</time></trkpt><trkpt lat="43.37685481552061" lon="12.602404634104284"><ele>743.1666666666666</ele><time>2026-04-26T16:44:57Z</time></trkpt><trkpt lat="43.37677345899905" lon="12.602367312415042"><ele>741.0</ele><time>2026-04-26T16:44:58Z</time></trkpt><trkpt lat="43.37666032699684" lon="12.602351277381686"><ele>741.0</ele><time>2026-04-26T16:44:59Z</time></trkpt><trkpt lat="43.37656702490056" lon="12.602362589437167"><ele>741.0</ele><time>2026-04-26T16:45:00Z</time></trkpt><trkpt lat="43.37646926740733" lon="12.602389040177485"><ele>741.0</ele><time>2026-04-26T16:45:01Z</time></trkpt><trkpt lat="43.37635775256217" lon="12.602419768513307"><ele>741.0</ele><time>2026-04-26T16:45:02Z</time></trkpt><trkpt lat="43.376253718470004" lon="12.602442188141913"><ele>741.0</ele><time>2026-04-26T16:45:03Z</time></trkpt><trkpt lat="43.37616494656625" lon="12.602450682626843"><ele>740.8</ele><time>2026-04-26T16:45:04Z</time></trkpt><trkpt lat="43.376078347898726" lon="12.602468099437822"><ele>740.5999999999999</ele><time>2026-04-26T16:45:05Z</time></trkpt><trkpt lat="43.376008237388824" lon="12.602431266357556"><ele>740.4</ele><time>2026-04-26T16:45:06Z</time></trkpt><trkpt lat="43.37595253776453" lon="12.602342598348432"><ele>740.2</ele><time>2026-04-26T16:45:07Z</time></trkpt><trkpt lat="43.375933507248675" lon="12.602204617274387"><ele>740.0</ele><time>2026-04-26T16:45:08Z</time></trkpt><trkpt lat="43.3759593936064" lon="12.602055345152728"><ele>737.75</ele><time>2026-04-26T16:45:09Z</time></trkpt><trkpt lat="43.37604500042053" lon="12.601925350105395"><ele>735.5</ele><time>2026-04-26T16:45:10Z</time></trkpt><trkpt lat="43.37611787363296" lon="12.601783545862222"><ele>733.25</ele><time>2026-04-26T16:45:11Z</time></trkpt><trkpt lat="43.37614228844501" lon="12.601616362338554"><ele>731.0</ele><time>2026-04-26T16:45:12Z</time></trkpt><trkpt lat="43.376119871604445" lon="12.601414947096522"><ele>731.0</ele><time>2026-04-26T16:45:13Z</time></trkpt><trkpt lat="43.37602753560749" lon="12.601206855147748"><ele>731.0</ele><time>2026-04-26T16:45:14Z</time></trkpt><trkpt lat="43.375907952767655" lon="12.600966747076159"><ele>731.0</ele><time>2026-04-26T16:45:15Z</time></trkpt><trkpt lat="43.37577358111031" lon="12.600688730839073"><ele>728.0</ele><time>2026-04-26T16:45:16Z</time></trkpt><trkpt lat="43.37563400442563" lon="12.600427678503596"><ele>725.0</ele><time>2026-04-26T16:45:17Z</time></trkpt><trkpt lat="43.37543542862796" lon="12.600201360076337"><ele>720.5</ele><time>2026-04-26T16:45:18Z</time></trkpt><trkpt lat="43.37520982570757" lon="12.600002654145356"><ele>716.0</ele><time>2026-04-26T16:45:19Z</time></trkpt><trkpt lat="43.37501769390755" lon="12.599755442908826"><ele>718.5</ele><time>2026-04-26T16:45:20Z</time></trkpt><trkpt lat="43.374893502824946" lon="12.599414403233864"><ele>721.0</ele><time>2026-04-26T16:45:21Z</time></trkpt><trkpt lat="43.37473787175449" lon="12.599120597841571"><ele>713.5</ele><time>2026-04-26T16:45:22Z</time></trkpt><trkpt lat="43.374532033692994" lon="12.598837962927515"><ele>706.0</ele><time>2026-04-26T16:45:23Z</time></trkpt><trkpt lat="43.37434513806336" lon="12.59853135461328"><ele>705.5</ele><time>2026-04-26T16:45:24Z</time></trkpt><trkpt lat="43.374179986528524" lon="12.598156677525207"><ele>705.0</ele><time>2026-04-26T16:45:25Z</time></trkpt><trkpt lat="43.37402835429338" lon="12.59776263263988"><ele>705.0</ele><time>2026-04-26T16:45:26Z</time></trkpt><trkpt lat="43.37389327949504" lon="12.597364284221134"><ele>705.0</ele><time>2026-04-26T16:45:27Z</time></trkpt><trkpt lat="43.37373162049009" lon="12.59701883307838"><ele>699.5</ele><time>2026-04-26T16:45:28Z</time></trkpt><trkpt lat="43.37356831065163" lon="12.596707260626626"><ele>694.0</ele><time>2026-04-26T16:45:29Z</time></trkpt><trkpt lat="43.37341608403851" lon="12.596405266049727"><ele>697.5</ele><time>2026-04-26T16:45:30Z</time></trkpt><trkpt lat="43.37327319058284" lon="12.596135199427518"><ele>701.0</ele><time>2026-04-26T16:45:31Z</time></trkpt><trkpt lat="43.37314291041797" lon="12.595891701337967"><ele>696.3333333333333</ele><time>2026-04-26T16:45:32Z</time></trkpt><trkpt lat="43.37301637626393" lon="12.59567435873775"><ele>691.6666666666666</ele><time>2026-04-26T16:45:33Z</time></trkpt><trkpt lat="43.37288420172332" lon="12.595512926427274"><ele>687.0</ele><time>2026-04-26T16:45:34Z</time></trkpt><trkpt lat="43.372756213988495" lon="12.595368025121594"><ele>685.3333333333334</ele><time>2026-04-26T16:45:35Z</time></trkpt><trkpt lat="43.372616059234915" lon="12.595184376932696"><ele>683.6666666666667</ele><time>2026-04-26T16:45:36Z</time></trkpt><trkpt lat="43.37253768374928" lon="12.594915530942894"><ele>682.0</ele><time>2026-04-26T16:45:37Z</time></trkpt><trkpt lat="43.37244685815065" lon="12.594680680656262"><ele>682.0</ele><time>2026-04-26T16:45:38Z</time></trkpt><trkpt lat="43.37236076518048" lon="12.594507227858678"><ele>682.0</ele><time>2026-04-26T16:45:39Z</time></trkpt><trkpt lat="43.37232504121695" lon="12.594326510698673"><ele>682.0</ele><time>2026-04-26T16:45:40Z</time></trkpt><trkpt lat="43.372317494134315" lon="12.594087952988952"><ele>681.0</ele><time>2026-04-26T16:45:41Z</time></trkpt><trkpt lat="43.37236218835432" lon="12.593813017767193"><ele>680.0</ele><time>2026-04-26T16:45:42Z</time></trkpt><trkpt lat="43.37240856562173" lon="12.593574281444225"><ele>679.0</ele><time>2026-04-26T16:45:43Z</time></trkpt><trkpt lat="43.37241235186311" lon="12.593361426689288"><ele>679.0</ele><time>2026-04-26T16:45:44Z</time></trkpt><trkpt lat="43.37239105369938" lon="12.593143912991586"><ele>679.0</ele><time>2026-04-26T16:45:45Z</time></trkpt><trkpt lat="43.372326815332485" lon="12.592921324157135"><ele>679.0</ele><time>2026-04-26T16:45:46Z</time></trkpt><trkpt lat="43.37216125949158" lon="12.592788527207649"><ele>671.25</ele><time>2026-04-26T16:45:47Z</time></trkpt><trkpt lat="43.37205407943923" lon="12.592662869862842"><ele>663.5</ele><time>2026-04-26T16:45:48Z</time></trkpt><trkpt lat="43.372014443633496" lon="12.592490681904291"><ele>655.75</ele><time>2026-04-26T16:45:49Z</time></trkpt><trkpt lat="43.37203820015" lon="12.592249910841597"><ele>648.0</ele><time>2026-04-26T16:45:50Z</time></trkpt><trkpt lat="43.3720951679317" lon="12.591996696535269"><ele>647.3333333333334</ele><time>2026-04-26T16:45:51Z</time></trkpt><trkpt lat="43.37210101526381" lon="12.591741208002826"><ele>646.6666666666667</ele><time>2026-04-26T16:45:52Z</time></trkpt><trkpt lat="43.37210334908025" lon="12.591496769897313"><ele>646.0</ele><time>2026-04-26T16:45:53Z</time></trkpt><trkpt lat="43.37211413877798" lon="12.591243432487195"><ele>645.6666666666667</ele><time>2026-04-26T16:45:54Z</time></trkpt><trkpt lat="43.37215555018054" lon="12.591010410998942"><ele>645.3333333333334</ele><time>2026-04-26T16:45:55Z</time></trkpt><trkpt lat="43.372212787869884" lon="12.59082233921878"><ele>645.0</ele><time>2026-04-26T16:45:56Z</time></trkpt><trkpt lat="43.372278581256275" lon="12.590645336173893"><ele>645.0</ele><time>2026-04-26T16:45:57Z</time></trkpt><trkpt lat="43.3723158644522" lon="12.59052045567072"><ele>645.0</ele><time>2026-04-26T16:45:58Z</time></trkpt><trkpt lat="43.37242394465075" lon="12.590512352600648"><ele>645.0</ele><time>2026-04-26T16:45:59Z</time></trkpt><trkpt lat="43.37258712058393" lon="12.59055973603192"><ele>645.0</ele><time>2026-04-26T16:46:00Z</time></trkpt><trkpt lat="43.37274255356429" lon="12.590607892886101"><ele>645.0</ele><time>2026-04-26T16:46:01Z</time></trkpt><trkpt lat="43.37290282641783" lon="12.590662240607351"><ele>645.0</ele><time>2026-04-26T16:46:02Z</time></trkpt><trkpt lat="43.373023914385136" lon="12.590698410309823"><ele>645.0</ele><time>2026-04-26T16:46:03Z</time></trkpt><trkpt lat="43.37312074202586" lon="12.59066409641669"><ele>645.0</ele><time>2026-04-26T16:46:04Z</time></trkpt><trkpt lat="43.37320040786774" lon="12.59058883541621"><ele>646.5</ele><time>2026-04-26T16:46:05Z</time></trkpt><trkpt lat="43.37325239371755" lon="12.590475642996172"><ele>648.0</ele><time>2026-04-26T16:46:06Z</time></trkpt><trkpt lat="43.373224068370895" lon="12.59029984872312"><ele>649.5</ele><time>2026-04-26T16:46:07Z</time></trkpt><trkpt lat="43.373084876659696" lon="12.590150754009334"><ele>651.0</ele><time>2026-04-26T16:46:08Z</time></trkpt><trkpt lat="43.37287395307278" lon="12.590186836608254"><ele>643.6666666666666</ele><time>2026-04-26T16:46:09Z</time></trkpt><trkpt lat="43.37269459514209" lon="12.590193415093628"><ele>636.3333333333333</ele><time>2026-04-26T16:46:10Z</time></trkpt><trkpt lat="43.3725452632765" lon="12.590192000039282"><ele>629.0</ele><time>2026-04-26T16:46:11Z</time></trkpt><trkpt lat="43.37240669772423" lon="12.590123740958985"><ele>629.0</ele><time>2026-04-26T16:46:12Z</time></trkpt><trkpt lat="43.37226441484982" lon="12.59005459159654"><ele>629.0</ele><time>2026-04-26T16:46:13Z</time></trkpt><trkpt lat="43.37212339540907" lon="12.589962025436302"><ele>629.0</ele><time>2026-04-26T16:46:14Z</time></trkpt><trkpt lat="43.372026650976295" lon="12.589811694056309"><ele>630.3333333333333</ele><time>2026-04-26T16:46:15Z</time></trkpt><trkpt lat="43.37189948843699" lon="12.589693225216747"><ele>631.6666666666666</ele><time>2026-04-26T16:46:16Z</time></trkpt><trkpt lat="43.37176281692423" lon="12.58957550099382"><ele>633.0</ele><time>2026-04-26T16:46:17Z</time></trkpt><trkpt lat="43.3716379184827" lon="12.589447682174214"><ele>630.6666666666666</ele><time>2026-04-26T16:46:18Z</time></trkpt><trkpt lat="43.371487579404096" lon="12.589321282084708"><ele>628.3333333333333</ele><time>2026-04-26T16:46:19Z</time></trkpt><trkpt lat="43.37135677405302" lon="12.589215373364405"><ele>626.0</ele><time>2026-04-26T16:46:20Z</time></trkpt><trkpt lat="43.37123180887554" lon="12.589096188995617"><ele>626.0</ele><time>2026-04-26T16:46:21Z</time></trkpt><trkpt lat="43.371103569211826" lon="12.588976200984256"><ele>626.0</ele><time>2026-04-26T16:46:22Z</time></trkpt><trkpt lat="43.370876616103196" lon="12.58897259600499"><ele>626.0</ele><time>2026-04-26T16:46:23Z</time></trkpt><trkpt lat="43.37071267380956" lon="12.58909865526624"><ele>630.3333333333333</ele><time>2026-04-26T16:46:24Z</time></trkpt><trkpt lat="43.37051271605361" lon="12.589080323865437"><ele>634.6666666666666</ele><time>2026-04-26T16:46:25Z</time></trkpt><trkpt lat="43.37030428380399" lon="12.589031285140134"><ele>639.0</ele><time>2026-04-26T16:46:26Z</time></trkpt><trkpt lat="43.37013842083437" lon="12.5889012909624"><ele>639.0</ele><time>2026-04-26T16:46:27Z</time></trkpt><trkpt lat="43.36997703386245" lon="12.58875535735756"><ele>639.0</ele><time>2026-04-26T16:46:28Z</time></trkpt><trkpt lat="43.36983978558192" lon="12.588581044213514"><ele>639.0</ele><time>2026-04-26T16:46:29Z</time></trkpt><trkpt lat="43.369736150033376" lon="12.58837951008995"><ele>633.5</ele><time>2026-04-26T16:46:30Z</time></trkpt><trkpt lat="43.36965724691737" lon="12.588209674696502"><ele>628.0</ele><time>2026-04-26T16:46:31Z</time></trkpt><trkpt lat="43.369533428980965" lon="12.588113738854856"><ele>622.5</ele><time>2026-04-26T16:46:32Z</time></trkpt><trkpt lat="43.369399113343626" lon="12.588071973933761"><ele>617.0</ele><time>2026-04-26T16:46:33Z</time></trkpt><trkpt lat="43.36926954365239" lon="12.588045565847038"><ele>617.0</ele><time>2026-04-26T16:46:34Z</time></trkpt><trkpt lat="43.369114589104925" lon="12.588036946259523"><ele>617.0</ele><time>2026-04-26T16:46:35Z</time></trkpt><trkpt lat="43.36897907281672" lon="12.58805343842511"><ele>617.0</ele><time>2026-04-26T16:46:36Z</time></trkpt><trkpt lat="43.3688522011613" lon="12.58808935628208"><ele>617.0</ele><time>2026-04-26T16:46:37Z</time></trkpt><trkpt lat="43.36875031491564" lon="12.588077687041032"><ele>618.6666666666666</ele><time>2026-04-26T16:46:38Z</time></trkpt><trkpt lat="43.368672263016656" lon="12.588047499731381"><ele>620.3333333333333</ele><time>2026-04-26T16:46:39Z</time></trkpt><trkpt lat="43.36860236544406" lon="12.588000943014846"><ele>622.0</ele><time>2026-04-26T16:46:40Z</time></trkpt><trkpt lat="43.368521930727" lon="12.587992909330477"><ele>623.6666666666666</ele><time>2026-04-26T16:46:42Z</time></trkpt><trkpt lat="43.3685201431177" lon="12.588092052105248"><ele>625.3333333333334</ele><time>2026-04-26T16:46:44Z</time></trkpt><trkpt lat="43.368635842779916" lon="12.588098441305132"><ele>627.0</ele><time>2026-04-26T16:46:46Z</time></trkpt><trkpt lat="43.36880296915638" lon="12.588038442286365"><ele>623.6666666666666</ele><time>2026-04-26T16:46:49Z</time></trkpt><trkpt lat="43.368919148152266" lon="12.588042918356017"><ele>620.3333333333333</ele><time>2026-04-26T16:46:50Z</time></trkpt><trkpt lat="43.36924298371657" lon="12.588065954220628"><ele>617.0</ele><time>2026-04-26T16:46:52Z</time></trkpt><trkpt lat="43.36941404267592" lon="12.588074259666374"><ele>617.0</ele><time>2026-04-26T16:46:53Z</time></trkpt><trkpt lat="43.369570158760844" lon="12.588114514114272"><ele>617.0</ele><time>2026-04-26T16:46:54Z</time></trkpt><trkpt lat="43.369714334257644" lon="12.588214255695146"><ele>617.0</ele><time>2026-04-26T16:46:55Z</time></trkpt><trkpt lat="43.36984094228507" lon="12.588415040813329"><ele>616.6666666666666</ele><time>2026-04-26T16:46:56Z</time></trkpt><trkpt lat="43.36996064989195" lon="12.588653470090163"><ele>616.3333333333334</ele><time>2026-04-26T16:46:57Z</time></trkpt><trkpt lat="43.370109103782134" lon="12.588849577831201"><ele>616.0</ele><time>2026-04-26T16:46:58Z</time></trkpt><trkpt lat="43.37031157179318" lon="12.589050274361744"><ele>621.0</ele><time>2026-04-26T16:46:59Z</time></trkpt><trkpt lat="43.370550126164126" lon="12.589204706866697"><ele>626.0</ele><time>2026-04-26T16:47:00Z</time></trkpt><trkpt lat="43.37076542792249" lon="12.589249917780078"><ele>626.0</ele><time>2026-04-26T16:47:01Z</time></trkpt><trkpt lat="43.370983452666835" lon="12.589219294120483"><ele>626.0</ele><time>2026-04-26T16:47:02Z</time></trkpt><trkpt lat="43.371174120116606" lon="12.589171448539757"><ele>626.0</ele><time>2026-04-26T16:47:03Z</time></trkpt><trkpt lat="43.37133440535548" lon="12.589161833156906"><ele>625.0</ele><time>2026-04-26T16:47:04Z</time></trkpt><trkpt lat="43.37150814082055" lon="12.589286853955171"><ele>624.0</ele><time>2026-04-26T16:47:05Z</time></trkpt><trkpt lat="43.37169597230472" lon="12.58951022786833"><ele>623.0</ele><time>2026-04-26T16:47:06Z</time></trkpt><trkpt lat="43.3718848854993" lon="12.589689543995732"><ele>626.0</ele><time>2026-04-26T16:47:07Z</time></trkpt><trkpt lat="43.37208569530383" lon="12.589844619391606"><ele>629.0</ele><time>2026-04-26T16:47:08Z</time></trkpt><trkpt lat="43.372274993500106" lon="12.590026455411522"><ele>629.0</ele><time>2026-04-26T16:47:09Z</time></trkpt><trkpt lat="43.3724701009096" lon="12.590167429396775"><ele>629.0</ele><time>2026-04-26T16:47:10Z</time></trkpt><trkpt lat="43.372691098573995" lon="12.59024309583944"><ele>629.0</ele><time>2026-04-26T16:47:11Z</time></trkpt><trkpt lat="43.37287644703834" lon="12.5902413132448"><ele>630.25</ele><time>2026-04-26T16:47:12Z</time></trkpt><trkpt lat="43.373040647601414" lon="12.590283326118755"><ele>631.5</ele><time>2026-04-26T16:47:13Z</time></trkpt><trkpt lat="43.37317163053206" lon="12.5903465410714"><ele>632.75</ele><time>2026-04-26T16:47:15Z</time></trkpt><trkpt lat="43.37318491087676" lon="12.59047825967266"><ele>634.0</ele><time>2026-04-26T16:47:16Z</time></trkpt><trkpt lat="43.37313053354522" lon="12.590605255245135"><ele>637.6666666666667</ele><time>2026-04-26T16:47:17Z</time></trkpt><trkpt lat="43.3730023472631" lon="12.59068254783409"><ele>641.3333333333334</ele><time>2026-04-26T16:47:18Z</time></trkpt><trkpt lat="43.37283707140834" lon="12.590637433670699"><ele>645.0</ele><time>2026-04-26T16:47:19Z</time></trkpt><trkpt lat="43.37266788438871" lon="12.590553810371453"><ele>645.0</ele><time>2026-04-26T16:47:20Z</time></trkpt><trkpt lat="43.37249930452478" lon="12.59049580141603"><ele>645.0</ele><time>2026-04-26T16:47:21Z</time></trkpt><trkpt lat="43.372351308913416" lon="12.590475737490568"><ele>645.0</ele><time>2026-04-26T16:47:22Z</time></trkpt><trkpt lat="43.37220816514585" lon="12.590467630946668"><ele>644.25</ele><time>2026-04-26T16:47:23Z</time></trkpt><trkpt lat="43.37212780842487" lon="12.590454094970514"><ele>643.5</ele><time>2026-04-26T16:47:24Z</time></trkpt><trkpt lat="43.37201938252181" lon="12.590472799879972"><ele>642.75</ele><time>2026-04-26T16:47:25Z</time></trkpt><trkpt lat="43.37194442538958" lon="12.590752890462754"><ele>642.0</ele><time>2026-04-26T16:47:26Z</time></trkpt><trkpt lat="43.37185644612418" lon="12.591039515665141"><ele>644.0</ele><time>2026-04-26T16:47:27Z</time></trkpt><trkpt lat="43.37185144506717" lon="12.591549810644667"><ele>646.0</ele><time>2026-04-26T16:47:28Z</time></trkpt><trkpt lat="43.37188214167375" lon="12.592032364972601"><ele>646.6666666666667</ele><time>2026-04-26T16:47:29Z</time></trkpt><trkpt lat="43.37202300663617" lon="12.592320293729001"><ele>647.3333333333334</ele><time>2026-04-26T16:47:30Z</time></trkpt><trkpt lat="43.37200852221184" lon="12.592547544614987"><ele>648.0</ele><time>2026-04-26T16:47:31Z</time></trkpt><trkpt lat="43.37198665524853" lon="12.592704709164916"><ele>650.5</ele><time>2026-04-26T16:47:32Z</time></trkpt><trkpt lat="43.37203674088934" lon="12.592860411026985"><ele>653.0</ele><time>2026-04-26T16:47:33Z</time></trkpt><trkpt lat="43.37212748600324" lon="12.593003609751342"><ele>655.5</ele><time>2026-04-26T16:47:34Z</time></trkpt><trkpt lat="43.372210604068655" lon="12.593148323340035"><ele>658.0</ele><time>2026-04-26T16:47:35Z</time></trkpt><trkpt lat="43.37228141986818" lon="12.593256090724616"><ele>663.25</ele><time>2026-04-26T16:47:36Z</time></trkpt><trkpt lat="43.37237791233224" lon="12.593342289250664"><ele>668.5</ele><time>2026-04-26T16:47:37Z</time></trkpt><trkpt lat="43.372425155985454" lon="12.593486445687361"><ele>673.75</ele><time>2026-04-26T16:47:38Z</time></trkpt><trkpt lat="43.37242510227894" lon="12.593628877442459"><ele>679.0</ele><time>2026-04-26T16:47:39Z</time></trkpt><trkpt lat="43.37240043231871" lon="12.59378753521782"><ele>679.0</ele><time>2026-04-26T16:47:40Z</time></trkpt><trkpt lat="43.372380433544514" lon="12.59393875063708"><ele>679.0</ele><time>2026-04-26T16:47:41Z</time></trkpt><trkpt lat="43.372375763642644" lon="12.594086476827696"><ele>679.0</ele><time>2026-04-26T16:47:42Z</time></trkpt><trkpt lat="43.372357138574856" lon="12.594248368914934"><ele>679.0</ele><time>2026-04-26T16:47:43Z</time></trkpt><trkpt lat="43.372379537226486" lon="12.594419710981715"><ele>679.75</ele><time>2026-04-26T16:47:44Z</time></trkpt><trkpt lat="43.372420412380905" lon="12.594580289323824"><ele>680.5</ele><time>2026-04-26T16:47:45Z</time></trkpt><trkpt lat="43.372475041357916" lon="12.594746026748373"><ele>681.25</ele><time>2026-04-26T16:47:46Z</time></trkpt><trkpt lat="43.372555498830465" lon="12.594900150790394"><ele>682.0</ele><time>2026-04-26T16:47:47Z</time></trkpt><trkpt lat="43.372628383601565" lon="12.595029500071512"><ele>682.0</ele><time>2026-04-26T16:47:48Z</time></trkpt><trkpt lat="43.372681249139845" lon="12.595177044589082"><ele>682.0</ele><time>2026-04-26T16:47:49Z</time></trkpt><trkpt lat="43.37273453887124" lon="12.595323123140185"><ele>682.0</ele><time>2026-04-26T16:47:50Z</time></trkpt><trkpt lat="43.37279115162036" lon="12.595484390651741"><ele>682.0</ele><time>2026-04-26T16:47:51Z</time></trkpt><trkpt lat="43.37292051890418" lon="12.595596474691867"><ele>686.75</ele><time>2026-04-26T16:47:52Z</time></trkpt><trkpt lat="43.373036678316375" lon="12.595700026659571"><ele>691.5</ele><time>2026-04-26T16:47:53Z</time></trkpt><trkpt lat="43.37314786415215" lon="12.595847518514205"><ele>696.25</ele><time>2026-04-26T16:47:54Z</time></trkpt><trkpt lat="43.37324035235528" lon="12.595995679172118"><ele>701.0</ele><time>2026-04-26T16:47:55Z</time></trkpt><trkpt lat="43.37332871702146" lon="12.596160197034585"><ele>698.6666666666666</ele><time>2026-04-26T16:47:56Z</time></trkpt><trkpt lat="43.373427965433414" lon="12.596368452831204"><ele>696.3333333333334</ele><time>2026-04-26T16:47:57Z</time></trkpt><trkpt lat="43.37355576655841" lon="12.596586676783025"><ele>694.0</ele><time>2026-04-26T16:47:58Z</time></trkpt><trkpt lat="43.37369282282255" lon="12.59681880039089"><ele>698.0</ele><time>2026-04-26T16:47:59Z</time></trkpt><trkpt lat="43.37381991511495" lon="12.597094970841983"><ele>702.0</ele><time>2026-04-26T16:48:00Z</time></trkpt><trkpt lat="43.37394901589761" lon="12.5973606122398"><ele>702.5</ele><time>2026-04-26T16:48:01Z</time></trkpt><trkpt lat="43.37407543861294" lon="12.59768603934954"><ele>703.0</ele><time>2026-04-26T16:48:02Z</time></trkpt><trkpt lat="43.37419619907621" lon="12.598002091039458"><ele>703.0</ele><time>2026-04-26T16:48:03Z</time></trkpt><trkpt lat="43.374327066239" lon="12.598325701624436"><ele>703.0</ele><time>2026-04-26T16:48:04Z</time></trkpt><trkpt lat="43.37444180474005" lon="12.598639633214184"><ele>704.5</ele><time>2026-04-26T16:48:05Z</time></trkpt><trkpt lat="43.3745749879207" lon="12.598935579004968"><ele>706.0</ele><time>2026-04-26T16:48:06Z</time></trkpt><trkpt lat="43.37474232692189" lon="12.599200169686402"><ele>711.0</ele><time>2026-04-26T16:48:07Z</time></trkpt><trkpt lat="43.37492444014373" lon="12.599449300391944"><ele>716.0</ele><time>2026-04-26T16:48:08Z</time></trkpt><trkpt lat="43.37509345673426" lon="12.599670697348447"><ele>716.0</ele><time>2026-04-26T16:48:09Z</time></trkpt><trkpt lat="43.37521353618073" lon="12.59991872156475"><ele>716.0</ele><time>2026-04-26T16:48:10Z</time></trkpt><trkpt lat="43.37537056866049" lon="12.600152929150164"><ele>716.0</ele><time>2026-04-26T16:48:11Z</time></trkpt><trkpt lat="43.375529651046335" lon="12.600385410456669"><ele>720.5</ele><time>2026-04-26T16:48:12Z</time></trkpt><trkpt lat="43.3757558308138" lon="12.600580441271152"><ele>725.0</ele><time>2026-04-26T16:48:13Z</time></trkpt><trkpt lat="43.3759336238888" lon="12.600818828088233"><ele>725.0</ele><time>2026-04-26T16:48:14Z</time></trkpt><trkpt lat="43.37605530051049" lon="12.601048516385804"><ele>725.0</ele><time>2026-04-26T16:48:15Z</time></trkpt><trkpt lat="43.37616288403132" lon="12.60126176220653"><ele>725.0</ele><time>2026-04-26T16:48:16Z</time></trkpt><trkpt lat="43.37623333364732" lon="12.601442368044765"><ele>727.0</ele><time>2026-04-26T16:48:17Z</time></trkpt><trkpt lat="43.376231688268625" lon="12.601624554189618"><ele>729.0</ele><time>2026-04-26T16:48:18Z</time></trkpt><trkpt lat="43.376091014311825" lon="12.601891488733028"><ele>731.0</ele><time>2026-04-26T16:48:19Z</time></trkpt><trkpt lat="43.375998729691645" lon="12.602099951538674"><ele>733.25</ele><time>2026-04-26T16:48:20Z</time></trkpt><trkpt lat="43.37591292142363" lon="12.60223877888412"><ele>735.5</ele><time>2026-04-26T16:48:21Z</time></trkpt><trkpt lat="43.375886337958505" lon="12.602368987033811"><ele>737.75</ele><time>2026-04-26T16:48:22Z</time></trkpt><trkpt lat="43.37592940547222" lon="12.602490512556429"><ele>740.0</ele><time>2026-04-26T16:48:23Z</time></trkpt><trkpt lat="43.37606525612201" lon="12.602545477447327"><ele>740.0</ele><time>2026-04-26T16:48:24Z</time></trkpt><trkpt lat="43.376247209212195" lon="12.602558535085416"><ele>740.0</ele><time>2026-04-26T16:48:25Z</time></trkpt><trkpt lat="43.37650488152686" lon="12.602490822092085"><ele>740.0</ele><time>2026-04-26T16:48:26Z</time></trkpt><trkpt lat="43.37667485986649" lon="12.602370213904821"><ele>740.25</ele><time>2026-04-26T16:48:27Z</time></trkpt><trkpt lat="43.376783738647134" lon="12.602373132098496"><ele>740.5</ele><time>2026-04-26T16:48:28Z</time></trkpt><trkpt lat="43.376859007434184" lon="12.60244871340899"><ele>740.75</ele><time>2026-04-26T16:48:29Z</time></trkpt><trkpt lat="43.37689528807726" lon="12.602606365297865"><ele>741.0</ele><time>2026-04-26T16:48:30Z</time></trkpt><trkpt lat="43.37688769926995" lon="12.602784300597003"><ele>745.3333333333334</ele><time>2026-04-26T16:48:31Z</time></trkpt><trkpt lat="43.37676900772259" lon="12.602911435052462"><ele>749.6666666666667</ele><time>2026-04-26T16:48:32Z</time></trkpt><trkpt lat="43.37658481412099" lon="12.602990887940628"><ele>754.0</ele><time>2026-04-26T16:48:33Z</time></trkpt><trkpt lat="43.37639193302536" lon="12.603052458676707"><ele>753.5</ele><time>2026-04-26T16:48:34Z</time></trkpt><trkpt lat="43.376216613029726" lon="12.603154526827094"><ele>753.0</ele><time>2026-04-26T16:48:35Z</time></trkpt><trkpt lat="43.37609680183862" lon="12.603253395688958"><ele>752.5</ele><time>2026-04-26T16:48:36Z</time></trkpt><trkpt lat="43.37603295483142" lon="12.603368983515841"><ele>752.0</ele><time>2026-04-26T16:48:37Z</time></trkpt><trkpt lat="43.37602823846361" lon="12.603555958618031"><ele>756.25</ele><time>2026-04-26T16:48:38Z</time></trkpt><trkpt lat="43.37604872909329" lon="12.603719023151124"><ele>760.5</ele><time>2026-04-26T16:48:39Z</time></trkpt><trkpt lat="43.376174188382855" lon="12.603862477408825"><ele>764.75</ele><time>2026-04-26T16:48:40Z</time></trkpt><trkpt lat="43.37623715426678" lon="12.603965572242062"><ele>769.0</ele><time>2026-04-26T16:48:41Z</time></trkpt><trkpt lat="43.37621198788814" lon="12.604074547051178"><ele>772.0</ele><time>2026-04-26T16:48:42Z</time></trkpt><trkpt lat="43.376494888526935" lon="12.604082948219359"><ele>775.0</ele><time>2026-04-26T16:48:43Z</time></trkpt><trkpt lat="43.37688234304356" lon="12.603638784415212"><ele>778.0</ele><time>2026-04-26T16:48:44Z</time></trkpt><trkpt lat="43.37735728086456" lon="12.603663956710834"><ele>778.0</ele><time>2026-04-26T16:48:46Z</time></trkpt><trkpt lat="43.37755937669267" lon="12.60377718475218"><ele>778.0</ele><time>2026-04-26T16:48:47Z</time></trkpt><trkpt lat="43.37772727868923" lon="12.603831548372238"><ele>778.0</ele><time>2026-04-26T16:48:48Z</time></trkpt><trkpt lat="43.37791204486297" lon="12.60383474757691"><ele>778.5</ele><time>2026-04-26T16:48:49Z</time></trkpt><trkpt lat="43.37808290520994" lon="12.603820398154792"><ele>779.0</ele><time>2026-04-26T16:48:50Z</time></trkpt><trkpt lat="43.378229750997306" lon="12.603849015240714"><ele>779.5</ele><time>2026-04-26T16:48:51Z</time></trkpt><trkpt lat="43.378342985773635" lon="12.603853186423734"><ele>780.0</ele><time>2026-04-26T16:48:52Z</time></trkpt><trkpt lat="43.37842526076571" lon="12.603858407610156"><ele>780.0</ele><time>2026-04-26T16:48:53Z</time></trkpt><trkpt lat="43.378514589175296" lon="12.60390666356044"><ele>780.0</ele><time>2026-04-26T16:48:55Z</time></trkpt><trkpt lat="43.37856896791498" lon="12.60383585640661"><ele>780.0</ele><time>2026-04-26T16:48:58Z</time></trkpt><trkpt lat="43.37848590848028" lon="12.603808634349065"><ele>780.0</ele><time>2026-04-26T16:49:01Z</time></trkpt><trkpt lat="43.3784218363104" lon="12.603903612511242"><ele>780.0</ele><time>2026-04-26T16:49:52Z</time></trkpt><trkpt lat="43.37833468730401" lon="12.603927207702874"><ele>780.0</ele><time>2026-04-26T16:49:54Z</time></trkpt><trkpt lat="43.37826605912379" lon="12.603922133978275"><ele>780.0</ele><time>2026-04-26T16:49:55Z</time></trkpt><trkpt lat="43.37818788612919" lon="12.603914513939165"><ele>780.0</ele><time>2026-04-26T16:49:56Z</time></trkpt><trkpt lat="43.378083035746386" lon="12.603915338445297"><ele>780.0</ele><time>2026-04-26T16:49:57Z</time></trkpt><trkpt lat="43.37798256602048" lon="12.60389321374915"><ele>780.0</ele><time>2026-04-26T16:49:58Z</time></trkpt><trkpt lat="43.37786177025605" lon="12.603902849880567"><ele>780.0</ele><time>2026-04-26T16:49:59Z</time></trkpt><trkpt lat="43.37772830361145" lon="12.603896974640008"><ele>779.5</ele><time>2026-04-26T16:50:00Z</time></trkpt><trkpt lat="43.37759020475237" lon="12.603876628665933"><ele>779.0</ele><time>2026-04-26T16:50:01Z</time></trkpt><trkpt lat="43.37745351487055" lon="12.603849276229951"><ele>778.5</ele><time>2026-04-26T16:50:02Z</time></trkpt><trkpt lat="43.37732598648447" lon="12.603810912731028"><ele>778.0</ele><time>2026-04-26T16:50:03Z</time></trkpt><trkpt lat="43.377201385099255" lon="12.603726717030572"><ele>772.0</ele><time>2026-04-26T16:50:04Z</time></trkpt><trkpt lat="43.377086001158546" lon="12.603655416406596"><ele>766.0</ele><time>2026-04-26T16:50:05Z</time></trkpt><trkpt lat="43.37696902771427" lon="12.603579646732623"><ele>760.0</ele><time>2026-04-26T16:50:06Z</time></trkpt><trkpt lat="43.37684674420956" lon="12.603574630963195"><ele>754.0</ele><time>2026-04-26T16:50:07Z</time></trkpt><trkpt lat="43.376708855733916" lon="12.603641231252487"><ele>757.0</ele><time>2026-04-26T16:50:08Z</time></trkpt><trkpt lat="43.37658733755097" lon="12.603665209462253"><ele>760.0</ele><time>2026-04-26T16:50:09Z</time></trkpt><trkpt lat="43.37647750678473" lon="12.603670424126323"><ele>763.0</ele><time>2026-04-26T16:50:10Z</time></trkpt><trkpt lat="43.376368872476334" lon="12.6037022432535"><ele>766.0</ele><time>2026-04-26T16:50:11Z</time></trkpt><trkpt lat="43.376275139620084" lon="12.603740697962412"><ele>769.0</ele><time>2026-04-26T16:50:12Z</time></trkpt><trkpt lat="43.37618934325084" lon="12.603727618797421"><ele>769.0</ele><time>2026-04-26T16:50:13Z</time></trkpt><trkpt lat="43.37611341486501" lon="12.603666156871313"><ele>769.0</ele><time>2026-04-26T16:50:14Z</time></trkpt><trkpt lat="43.37606295678403" lon="12.60353960479641"><ele>769.0</ele><time>2026-04-26T16:50:15Z</time></trkpt><trkpt lat="43.37605449556821" lon="12.603410682520293"><ele>769.0</ele><time>2026-04-26T16:50:16Z</time></trkpt><trkpt lat="43.376101744030784" lon="12.60327882133267"><ele>769.0</ele><time>2026-04-26T16:50:17Z</time></trkpt><trkpt lat="43.37617986319973" lon="12.603189121180062"><ele>766.0</ele><time>2026-04-26T16:50:18Z</time></trkpt><trkpt lat="43.37627845909249" lon="12.603136246255138"><ele>763.0</ele><time>2026-04-26T16:50:19Z</time></trkpt><trkpt lat="43.37637881696353" lon="12.603094433040017"><ele>760.0</ele><time>2026-04-26T16:50:20Z</time></trkpt><trkpt lat="43.376469850153065" lon="12.60304594800613"><ele>757.0</ele><time>2026-04-26T16:50:21Z</time></trkpt><trkpt lat="43.37655135152333" lon="12.603003451207181"><ele>754.0</ele><time>2026-04-26T16:50:22Z</time></trkpt><trkpt lat="43.37662949976532" lon="12.602962300554628"><ele>754.0</ele><time>2026-04-26T16:50:23Z</time></trkpt><trkpt lat="43.376711468382304" lon="12.602869305717295"><ele>754.0</ele><time>2026-04-26T16:50:25Z</time></trkpt><trkpt lat="43.376758009472134" lon="12.602810373672133"><ele>754.0</ele><time>2026-04-26T16:50:28Z</time></trkpt><trkpt lat="43.37669322039102" lon="12.602776685972906"><ele>754.0</ele><time>2026-04-26T16:50:30Z</time></trkpt><trkpt lat="43.37663190459807" lon="12.602831056975427"><ele>754.0</ele><time>2026-04-26T16:50:31Z</time></trkpt><trkpt lat="43.37657398126186" lon="12.602907275669397"><ele>754.0</ele><time>2026-04-26T16:50:33Z</time></trkpt><trkpt lat="43.3765195086765" lon="12.602977790450087"><ele>753.9999999999999</ele><time>2026-04-26T16:51:23Z</time></trkpt><trkpt lat="43.37645490859731" lon="12.603028776561896"><ele>754.0</ele><time>2026-04-26T16:51:30Z</time></trkpt><trkpt lat="43.376402306207574" lon="12.603081356481526"><ele>754.0</ele><time>2026-04-26T16:51:36Z</time></trkpt><trkpt lat="43.3763513741379" lon="12.60316251787821"><ele>754.0</ele><time>2026-04-26T16:51:44Z</time></trkpt><trkpt lat="43.37629322959645" lon="12.603210493946772"><ele>754.0</ele><time>2026-04-26T16:51:49Z</time></trkpt><trkpt lat="43.376228460343015" lon="12.603251008181926"><ele>753.9999999999999</ele><time>2026-04-26T16:51:54Z</time></trkpt><trkpt lat="43.37618950600915" lon="12.60331932968987"><ele>754.0</ele><time>2026-04-26T16:51:58Z</time></trkpt><trkpt lat="43.37614161515376" lon="12.603384836429624"><ele>753.7142857142857</ele><time>2026-04-26T16:52:03Z</time></trkpt><trkpt lat="43.376094108693856" lon="12.603465061671109"><ele>753.4285714285714</ele><time>2026-04-26T16:52:08Z</time></trkpt><trkpt lat="43.376055483486724" lon="12.603534999707747"><ele>753.1428571428571</ele><time>2026-04-26T16:52:12Z</time></trkpt><trkpt lat="43.376060650057774" lon="12.603626895367661"><ele>752.8571428571429</ele><time>2026-04-26T16:52:17Z</time></trkpt><trkpt lat="43.37607044755309" lon="12.603713403098894"><ele>752.5714285714286</ele><time>2026-04-26T16:52:23Z</time></trkpt><trkpt lat="43.376150008504105" lon="12.603751463085251"><ele>752.2857142857142</ele><time>2026-04-26T16:52:39Z</time></trkpt><trkpt lat="43.376076367128825" lon="12.603780997572203"><ele>752.0</ele><time>2026-04-26T16:56:43Z</time></trkpt><trkpt lat="43.37602209692839" lon="12.603715402175625"><ele>752.0</ele><time>2026-04-26T16:56:47Z</time></trkpt><trkpt lat="43.37603654215358" lon="12.60359063329179"><ele>752.0</ele><time>2026-04-26T16:57:10Z</time></trkpt><trkpt lat="43.3760857135337" lon="12.60351966430503"><ele>752.0</ele><time>2026-04-26T16:57:57Z</time></trkpt><trkpt lat="43.37610267082526" lon="12.60343394971542"><ele>752.0</ele><time>2026-04-26T16:58:02Z</time></trkpt><trkpt lat="43.37611398263097" lon="12.603344216741053"><ele>752.0</ele><time>2026-04-26T16:58:08Z</time></trkpt><trkpt lat="43.37615634891102" lon="12.603262694828016"><ele>752.0</ele><time>2026-04-26T16:58:13Z</time></trkpt><trkpt lat="43.376182503182974" lon="12.603175848877717"><ele>752.0</ele><time>2026-04-26T16:58:17Z</time></trkpt><trkpt lat="43.37623726003797" lon="12.6031264360479"><ele>752.0</ele><time>2026-04-26T16:58:21Z</time></trkpt><trkpt lat="43.37629247685106" lon="12.603063498655931"><ele>752.0</ele><time>2026-04-26T16:58:25Z</time></trkpt><trkpt lat="43.37636529824815" lon="12.603020396704292"><ele>752.0</ele><time>2026-04-26T16:58:30Z</time></trkpt><trkpt lat="43.37642974698458" lon="12.602960492379353"><ele>752.0</ele><time>2026-04-26T16:58:35Z</time></trkpt><trkpt lat="43.376489076113366" lon="12.602920546375609"><ele>752.0</ele><time>2026-04-26T16:58:39Z</time></trkpt><trkpt lat="43.37655278086433" lon="12.602873977656701"><ele>752.0</ele><time>2026-04-26T16:58:44Z</time></trkpt><trkpt lat="43.37649529322094" lon="12.602909357914028"><ele>752.0</ele><time>2026-04-26T17:00:03Z</time></trkpt><trkpt lat="43.37642210670813" lon="12.602933639041908"><ele>752.0</ele><time>2026-04-26T17:00:08Z</time></trkpt><trkpt lat="43.37635643321734" lon="12.602941445834567"><ele>752.0</ele><time>2026-04-26T17:00:13Z</time></trkpt><trkpt lat="43.376294504441255" lon="12.602981248450797"><ele>752.0</ele><time>2026-04-26T17:00:18Z</time></trkpt><trkpt lat="43.37622051339072" lon="12.60299408230799"><ele>752.0</ele><time>2026-04-26T17:00:23Z</time></trkpt><trkpt lat="43.3761504488833" lon="12.603015504593243"><ele>752.0</ele><time>2026-04-26T17:00:28Z</time></trkpt><trkpt lat="43.376082598319094" lon="12.603050814778095"><ele>752.0</ele><time>2026-04-26T17:00:32Z</time></trkpt><trkpt lat="43.376010329008885" lon="12.603105987980406"><ele>752.0</ele><time>2026-04-26T17:00:38Z</time></trkpt><trkpt lat="43.37596089474037" lon="12.603162174618824"><ele>752.0</ele><time>2026-04-26T17:00:43Z</time></trkpt><trkpt lat="43.37600410188761" lon="12.603070448466983"><ele>752.0</ele><time>2026-04-26T17:01:15Z</time></trkpt><trkpt lat="43.376057658445504" lon="12.603024744177128"><ele>752.0</ele><time>2026-04-26T17:01:19Z</time></trkpt><trkpt lat="43.37612696818217" lon="12.602968775857727"><ele>752.0</ele><time>2026-04-26T17:01:24Z</time></trkpt><trkpt lat="43.37619847598982" lon="12.602936597325018"><ele>752.0</ele><time>2026-04-26T17:01:28Z</time></trkpt><trkpt lat="43.376259926391185" lon="12.60287087452902"><ele>752.0</ele><time>2026-04-26T17:01:33Z</time></trkpt><trkpt lat="43.37633094574451" lon="12.6028767317721"><ele>752.0</ele><time>2026-04-26T17:01:37Z</time></trkpt><trkpt lat="43.376395560109565" lon="12.602850582344598"><ele>752.3333333333333</ele><time>2026-04-26T17:01:41Z</time></trkpt><trkpt lat="43.376464098458655" lon="12.602837077352318"><ele>752.6666666666666</ele><time>2026-04-26T17:01:46Z</time></trkpt><trkpt lat="43.376526210606045" lon="12.602790924268268"><ele>753.0</ele><time>2026-04-26T17:01:51Z</time></trkpt><trkpt lat="43.3765989349458" lon="12.602815278966977"><ele>753.3333333333334</ele><time>2026-04-26T17:01:57Z</time></trkpt><trkpt lat="43.37656729176334" lon="12.602904938998886"><ele>753.6666666666667</ele><time>2026-04-26T17:02:06Z</time></trkpt><trkpt lat="43.37667800675175" lon="12.602958688066252"><ele>754.0</ele><time>2026-04-26T17:02:55Z</time></trkpt><trkpt lat="43.37674439895889" lon="12.60289211771741"><ele>751.4000000000001</ele><time>2026-04-26T17:02:56Z</time></trkpt><trkpt lat="43.376827896308114" lon="12.60281965127186"><ele>748.8</ele><time>2026-04-26T17:02:57Z</time></trkpt><trkpt lat="43.376894600535906" lon="12.602723018582376"><ele>746.2</ele><time>2026-04-26T17:02:58Z</time></trkpt><trkpt lat="43.376909885305366" lon="12.602580197282316"><ele>743.5999999999999</ele><time>2026-04-26T17:02:59Z</time></trkpt><trkpt lat="43.37686459145273" lon="12.602448202280918"><ele>741.0</ele><time>2026-04-26T17:03:00Z</time></trkpt><trkpt lat="43.37678484200748" lon="12.602342227023282"><ele>741.0</ele><time>2026-04-26T17:03:01Z</time></trkpt><trkpt lat="43.37668398504427" lon="12.602271131300324"><ele>741.0</ele><time>2026-04-26T17:03:02Z</time></trkpt><trkpt lat="43.37652897652196" lon="12.602341617562503"><ele>741.0</ele><time>2026-04-26T17:03:03Z</time></trkpt><trkpt lat="43.37635448670277" lon="12.602400535944524"><ele>740.8</ele><time>2026-04-26T17:03:04Z</time></trkpt><trkpt lat="43.37622952847948" lon="12.602435399586387"><ele>740.5999999999999</ele><time>2026-04-26T17:03:05Z</time></trkpt><trkpt lat="43.37612735526851" lon="12.60244645101665"><ele>740.4</ele><time>2026-04-26T17:03:06Z</time></trkpt><trkpt lat="43.37604611232171" lon="12.602459782208001"><ele>740.2</ele><time>2026-04-26T17:03:07Z</time></trkpt><trkpt lat="43.37597939025091" lon="12.602403211514307"><ele>740.0</ele><time>2026-04-26T17:03:08Z</time></trkpt><trkpt lat="43.3759323715162" lon="12.60228025012789"><ele>740.0</ele><time>2026-04-26T17:03:09Z</time></trkpt><trkpt lat="43.37595849894524" lon="12.60210073049901"><ele>740.0</ele><time>2026-04-26T17:03:10Z</time></trkpt><trkpt lat="43.376044967912655" lon="12.601952969340067"><ele>740.0</ele><time>2026-04-26T17:03:11Z</time></trkpt><trkpt lat="43.37613377551744" lon="12.601788891711818"><ele>740.0</ele><time>2026-04-26T17:03:12Z</time></trkpt><trkpt lat="43.376148971659" lon="12.601606102333802"><ele>737.0</ele><time>2026-04-26T17:03:13Z</time></trkpt><trkpt lat="43.376140519140115" lon="12.601394002591801"><ele>734.0</ele><time>2026-04-26T17:03:14Z</time></trkpt><trkpt lat="43.37604424804044" lon="12.601173043729233"><ele>731.0</ele><time>2026-04-26T17:03:15Z</time></trkpt><trkpt lat="43.37598137113783" lon="12.600967387088772"><ele>729.0</ele><time>2026-04-26T17:03:16Z</time></trkpt><trkpt lat="43.375858692024764" lon="12.600775069343392"><ele>727.0</ele><time>2026-04-26T17:03:17Z</time></trkpt><trkpt lat="43.37575495582589" lon="12.600599889773983"><ele>725.0</ele><time>2026-04-26T17:03:18Z</time></trkpt><trkpt lat="43.37564456350106" lon="12.600459028591404"><ele>723.2</ele><time>2026-04-26T17:03:19Z</time></trkpt><trkpt lat="43.37552758397949" lon="12.600329736376695"><ele>721.4</ele><time>2026-04-26T17:03:20Z</time></trkpt><trkpt lat="43.37542652280364" lon="12.6002172776698"><ele>719.5999999999999</ele><time>2026-04-26T17:03:21Z</time></trkpt><trkpt lat="43.37535056137227" lon="12.600144339564432"><ele>717.8</ele><time>2026-04-26T17:03:22Z</time></trkpt><trkpt lat="43.3753013543721" lon="12.600088222408505"><ele>716.0</ele><time>2026-04-26T17:03:23Z</time></trkpt><trkpt lat="43.37524953465093" lon="12.600036179139202"><ele>716.0</ele><time>2026-04-26T17:03:25Z</time></trkpt><trkpt lat="43.37525955760331" lon="12.600160299827763"><ele>716.0</ele><time>2026-04-26T17:03:28Z</time></trkpt><trkpt lat="43.37536783266671" lon="12.600219067331158"><ele>716.0</ele><time>2026-04-26T17:03:30Z</time></trkpt><trkpt lat="43.3754570745318" lon="12.600251506044945"><ele>716.0</ele><time>2026-04-26T17:03:31Z</time></trkpt><trkpt lat="43.37553410378563" lon="12.60033234090334"><ele>716.0</ele><time>2026-04-26T17:03:32Z</time></trkpt><trkpt lat="43.37564678057272" lon="12.600486849981358"><ele>719.0</ele><time>2026-04-26T17:03:33Z</time></trkpt><trkpt lat="43.37576244843198" lon="12.600661620569566"><ele>722.0</ele><time>2026-04-26T17:03:34Z</time></trkpt><trkpt lat="43.375866703516834" lon="12.600841865366176"><ele>725.0</ele><time>2026-04-26T17:03:35Z</time></trkpt><trkpt lat="43.375956267699365" lon="12.601029694508263"><ele>726.5</ele><time>2026-04-26T17:03:36Z</time></trkpt><trkpt lat="43.3760369608225" lon="12.601217275713717"><ele>728.0</ele><time>2026-04-26T17:03:37Z</time></trkpt><trkpt lat="43.37610130241662" lon="12.601395417564957"><ele>729.5</ele><time>2026-04-26T17:03:38Z</time></trkpt><trkpt lat="43.37613511734847" lon="12.601563605620997"><ele>731.0</ele><time>2026-04-26T17:03:39Z</time></trkpt><trkpt lat="43.376134831850784" lon="12.601754227072135"><ele>731.0</ele><time>2026-04-26T17:03:40Z</time></trkpt><trkpt lat="43.37607452533556" lon="12.601961908582439"><ele>731.0</ele><time>2026-04-26T17:03:41Z</time></trkpt><trkpt lat="43.37597649998086" lon="12.602127589325377"><ele>731.0</ele><time>2026-04-26T17:03:42Z</time></trkpt><trkpt lat="43.37591186690542" lon="12.60224005227201"><ele>731.0</ele><time>2026-04-26T17:03:43Z</time></trkpt><trkpt lat="43.3759145141798" lon="12.602344258285916"><ele>734.0</ele><time>2026-04-26T17:03:44Z</time></trkpt><trkpt lat="43.376025816885786" lon="12.602465221643563"><ele>737.0</ele><time>2026-04-26T17:03:45Z</time></trkpt><trkpt lat="43.37615604630528" lon="12.602531714458989"><ele>740.0</ele><time>2026-04-26T17:03:46Z</time></trkpt><trkpt lat="43.37632398898521" lon="12.60250790885921"><ele>740.3333333333333</ele><time>2026-04-26T17:03:47Z</time></trkpt><trkpt lat="43.37652614217272" lon="12.60233961671036"><ele>740.6666666666666</ele><time>2026-04-26T17:03:48Z</time></trkpt><trkpt lat="43.37667505958368" lon="12.602322628298847"><ele>741.0</ele><time>2026-04-26T17:03:49Z</time></trkpt><trkpt lat="43.376770872168535" lon="12.60233488294042"><ele>741.0</ele><time>2026-04-26T17:03:50Z</time></trkpt><trkpt lat="43.37684284464312" lon="12.602402173544036"><ele>741.0</ele><time>2026-04-26T17:03:51Z</time></trkpt><trkpt lat="43.376890247082" lon="12.602541758681639"><ele>741.0</ele><time>2026-04-26T17:03:52Z</time></trkpt><trkpt lat="43.376866500497265" lon="12.602709186732929"><ele>741.0</ele><time>2026-04-26T17:03:53Z</time></trkpt><trkpt lat="43.3767828668992" lon="12.602815784176109"><ele>741.0</ele><time>2026-04-26T17:03:54Z</time></trkpt><trkpt lat="43.37662937545143" lon="12.602940065769697"><ele>744.6666666666666</ele><time>2026-04-26T17:03:55Z</time></trkpt><trkpt lat="43.376449897295046" lon="12.603014200598112"><ele>748.3333333333333</ele><time>2026-04-26T17:03:56Z</time></trkpt><trkpt lat="43.37626776465602" lon="12.603108238443495"><ele>752.0</ele><time>2026-04-26T17:03:57Z</time></trkpt><trkpt lat="43.376137502498096" lon="12.603190954411554"><ele>752.0</ele><time>2026-04-26T17:03:58Z</time></trkpt><trkpt lat="43.37604403045212" lon="12.603266543619318"><ele>752.0</ele><time>2026-04-26T17:03:59Z</time></trkpt><trkpt lat="43.37598199757594" lon="12.603412245718559"><ele>752.0</ele><time>2026-04-26T17:04:00Z</time></trkpt><trkpt lat="43.376082928312954" lon="12.603660067773164"><ele>752.0</ele><time>2026-04-26T17:04:01Z</time></trkpt><trkpt lat="43.376192054379075" lon="12.603796480576259"><ele>752.6666666666666</ele><time>2026-04-26T17:04:02Z</time></trkpt><trkpt lat="43.37638954186551" lon="12.603792926025795"><ele>753.3333333333334</ele><time>2026-04-26T17:04:03Z</time></trkpt><trkpt lat="43.37658923390819" lon="12.603782012202307"><ele>754.0</ele><time>2026-04-26T17:04:04Z</time></trkpt><trkpt lat="43.376801507474276" lon="12.60364143933905"><ele>754.0</ele><time>2026-04-26T17:04:05Z</time></trkpt><trkpt lat="43.37697145510815" lon="12.603577280793324"><ele>754.0</ele><time>2026-04-26T17:04:06Z</time></trkpt><trkpt lat="43.37709876035315" lon="12.60357826553097"><ele>754.0</ele><time>2026-04-26T17:04:07Z</time></trkpt><trkpt lat="43.37722776396329" lon="12.60363703435982"><ele>754.0</ele><time>2026-04-26T17:04:08Z</time></trkpt><trkpt lat="43.37735838078101" lon="12.603728535131111"><ele>762.0</ele><time>2026-04-26T17:04:09Z</time></trkpt><trkpt lat="43.37750393098931" lon="12.603818911539612"><ele>770.0</ele><time>2026-04-26T17:04:10Z</time></trkpt><trkpt lat="43.37767265073695" lon="12.603856625283436"><ele>778.0</ele><time>2026-04-26T17:04:11Z</time></trkpt><trkpt lat="43.377847074136604" lon="12.603849770113014"><ele>778.0</ele><time>2026-04-26T17:04:12Z</time></trkpt><trkpt lat="43.37801549700811" lon="12.603838792199918"><ele>778.0</ele><time>2026-04-26T17:04:13Z</time></trkpt><trkpt lat="43.37816069764739" lon="12.603837057978483"><ele>778.0</ele><time>2026-04-26T17:04:14Z</time></trkpt><trkpt lat="43.37826967367238" lon="12.60383836556257"><ele>778.0</ele><time>2026-04-26T17:04:15Z</time></trkpt><trkpt lat="43.378351484126114" lon="12.60384904953719"><ele>778.3333333333333</ele><time>2026-04-26T17:04:16Z</time></trkpt><trkpt lat="43.37841815395724" lon="12.60386845820486"><ele>778.6666666666666</ele><time>2026-04-26T17:04:17Z</time></trkpt><trkpt lat="43.378492360144996" lon="12.603915998995754"><ele>779.0</ele><time>2026-04-26T17:04:19Z</time></trkpt><trkpt lat="43.378468774677714" lon="12.603814178736373"><ele>779.3333333333333</ele><time>2026-04-26T17:04:23Z</time></trkpt><trkpt lat="43.37835798038085" lon="12.603812059129758"><ele>779.6666666666666</ele><time>2026-04-26T17:04:25Z</time></trkpt><trkpt lat="43.378272965486936" lon="12.603825637590163"><ele>780.0</ele><time>2026-04-26T17:04:26Z</time></trkpt><trkpt lat="43.37816984567073" lon="12.603831477266706"><ele>780.0</ele><time>2026-04-26T17:04:27Z</time></trkpt><trkpt lat="43.3780481654435" lon="12.60382802630585"><ele>780.0</ele><time>2026-04-26T17:04:28Z</time></trkpt><trkpt lat="43.37791690441754" lon="12.60382342510738"><ele>780.0</ele><time>2026-04-26T17:04:29Z</time></trkpt><trkpt lat="43.377772995816805" lon="12.603819008309692"><ele>780.0</ele><time>2026-04-26T17:04:30Z</time></trkpt><trkpt lat="43.37761909337978" lon="12.603816216394296"><ele>779.3333333333333</ele><time>2026-04-26T17:04:31Z</time></trkpt><trkpt lat="43.37745529327009" lon="12.603804098175331"><ele>778.6666666666666</ele><time>2026-04-26T17:04:32Z</time></trkpt><trkpt lat="43.37730496352257" lon="12.603729481149339"><ele>778.0</ele><time>2026-04-26T17:04:33Z</time></trkpt><trkpt lat="43.377167692865605" lon="12.603639337873867"><ele>772.0</ele><time>2026-04-26T17:04:34Z</time></trkpt><trkpt lat="43.37703667759173" lon="12.6035488330588"><ele>766.0</ele><time>2026-04-26T17:04:35Z</time></trkpt><trkpt lat="43.376896030273926" lon="12.603539594072629"><ele>760.0</ele><time>2026-04-26T17:04:36Z</time></trkpt><trkpt lat="43.37674588944689" lon="12.603572323540371"><ele>754.0</ele><time>2026-04-26T17:04:37Z</time></trkpt><trkpt lat="43.3765747472008" lon="12.603648390405272"><ele>757.75</ele><time>2026-04-26T17:04:38Z</time></trkpt><trkpt lat="43.37642453764867" lon="12.60370980593325"><ele>761.5</ele><time>2026-04-26T17:04:39Z</time></trkpt><trkpt lat="43.37631026492815" lon="12.603740871168435"><ele>765.25</ele><time>2026-04-26T17:04:40Z</time></trkpt><trkpt lat="43.37622467443844" lon="12.603749599117194"><ele>769.0</ele><time>2026-04-26T17:04:41Z</time></trkpt><trkpt lat="43.376132423646375" lon="12.60367472851217"><ele>764.75</ele><time>2026-04-26T17:04:42Z</time></trkpt><trkpt lat="43.37607172022142" lon="12.603526901804596"><ele>760.5</ele><time>2026-04-26T17:04:43Z</time></trkpt><trkpt lat="43.376054591883715" lon="12.603398995325483"><ele>756.25</ele><time>2026-04-26T17:04:44Z</time></trkpt><trkpt lat="43.376126422677295" lon="12.603200546317675"><ele>752.0</ele><time>2026-04-26T17:04:45Z</time></trkpt><trkpt lat="43.376266279675754" lon="12.603069021295717"><ele>752.6666666666666</ele><time>2026-04-26T17:04:46Z</time></trkpt><trkpt lat="43.37645678886279" lon="12.603013403200187"><ele>753.3333333333334</ele><time>2026-04-26T17:04:47Z</time></trkpt><trkpt lat="43.37661873221659" lon="12.602953665808835"><ele>754.0</ele><time>2026-04-26T17:04:48Z</time></trkpt><trkpt lat="43.37674310707039" lon="12.602893535400643"><ele>751.4000000000001</ele><time>2026-04-26T17:04:49Z</time></trkpt><trkpt lat="43.37683796417088" lon="12.602827388574433"><ele>748.8</ele><time>2026-04-26T17:04:50Z</time></trkpt><trkpt lat="43.37689970051228" lon="12.60272695730506"><ele>746.2</ele><time>2026-04-26T17:04:51Z</time></trkpt><trkpt lat="43.37692947406339" lon="12.602592053164434"><ele>743.5999999999999</ele><time>2026-04-26T17:04:52Z</time></trkpt><trkpt lat="43.3769273309746" lon="12.60245547462806"><ele>741.0</ele><time>2026-04-26T17:04:53Z</time></trkpt><trkpt lat="43.37678019793233" lon="12.602340098361958"><ele>741.0</ele><time>2026-04-26T17:04:54Z</time></trkpt><trkpt lat="43.37666334579872" lon="12.602284822800256"><ele>741.0</ele><time>2026-04-26T17:04:55Z</time></trkpt><trkpt lat="43.37650136591328" lon="12.602331286023551"><ele>741.0</ele><time>2026-04-26T17:04:56Z</time></trkpt><trkpt lat="43.376330882037685" lon="12.602397699064484"><ele>740.75</ele><time>2026-04-26T17:04:57Z</time></trkpt><trkpt lat="43.3761826248606" lon="12.602446107692966"><ele>740.5</ele><time>2026-04-26T17:04:58Z</time></trkpt><trkpt lat="43.37606469408017" lon="12.60246231924029"><ele>740.25</ele><time>2026-04-26T17:04:59Z</time></trkpt><trkpt lat="43.3759824832927" lon="12.60244303503212"><ele>740.0</ele><time>2026-04-26T17:05:00Z</time></trkpt><trkpt lat="43.37592768170237" lon="12.602333289360605"><ele>740.0</ele><time>2026-04-26T17:05:01Z</time></trkpt><trkpt lat="43.37592497852949" lon="12.602171428126777"><ele>740.0</ele><time>2026-04-26T17:05:02Z</time></trkpt><trkpt lat="43.376004481652835" lon="12.601986919109667"><ele>740.0</ele><time>2026-04-26T17:05:03Z</time></trkpt><trkpt lat="43.37611746537651" lon="12.601815708618187"><ele>740.0</ele><time>2026-04-26T17:05:04Z</time></trkpt><trkpt lat="43.3761706560902" lon="12.601623827840948"><ele>737.0</ele><time>2026-04-26T17:05:05Z</time></trkpt><trkpt lat="43.3761796576694" lon="12.601414861613348"><ele>734.0</ele><time>2026-04-26T17:05:06Z</time></trkpt><trkpt lat="43.37607706322437" lon="12.601162524923058"><ele>731.0</ele><time>2026-04-26T17:05:07Z</time></trkpt><trkpt lat="43.37595664910957" lon="12.600951738797539"><ele>729.0</ele><time>2026-04-26T17:05:08Z</time></trkpt><trkpt lat="43.3758395251689" lon="12.600746237247797"><ele>727.0</ele><time>2026-04-26T17:05:09Z</time></trkpt><trkpt lat="43.375711133760106" lon="12.600559443105638"><ele>725.0</ele><time>2026-04-26T17:05:10Z</time></trkpt><trkpt lat="43.375589143513885" lon="12.600393330550544"><ele>723.2</ele><time>2026-04-26T17:05:11Z</time></trkpt><trkpt lat="43.37548003705037" lon="12.600272959402428"><ele>721.4</ele><time>2026-04-26T17:05:12Z</time></trkpt><trkpt lat="43.3753976740406" lon="12.600179702881922"><ele>719.5999999999999</ele><time>2026-04-26T17:05:13Z</time></trkpt><trkpt lat="43.37533758685475" lon="12.600133460443608"><ele>717.8</ele><time>2026-04-26T17:05:14Z</time></trkpt><trkpt lat="43.37528914704102" lon="12.600054775130497"><ele>716.0</ele><time>2026-04-26T17:05:16Z</time></trkpt><trkpt lat="43.375265541055896" lon="12.600136074340087"><ele>716.0</ele><time>2026-04-26T17:05:23Z</time></trkpt><trkpt lat="43.37532685116072" lon="12.600188655427019"><ele>716.0</ele><time>2026-04-26T17:05:26Z</time></trkpt><trkpt lat="43.37553206447385" lon="12.600330766941719"><ele>716.0</ele><time>2026-04-26T17:05:35Z</time></trkpt><trkpt lat="43.375612262898876" lon="12.600431382110326"><ele>716.0</ele><time>2026-04-26T17:05:36Z</time></trkpt><trkpt lat="43.37570170109574" lon="12.600555549437358"><ele>718.25</ele><time>2026-04-26T17:05:37Z</time></trkpt><trkpt lat="43.37579069726188" lon="12.600699761377362"><ele>720.5</ele><time>2026-04-26T17:05:38Z</time></trkpt><trkpt lat="43.3758770787368" lon="12.600853596447067"><ele>722.75</ele><time>2026-04-26T17:05:39Z</time></trkpt><trkpt lat="43.37595756328969" lon="12.601035507904227"><ele>725.0</ele><time>2026-04-26T17:05:40Z</time></trkpt><trkpt lat="43.37603461039318" lon="12.601215952483685"><ele>726.5</ele><time>2026-04-26T17:05:41Z</time></trkpt><trkpt lat="43.376101971492226" lon="12.601401573134755"><ele>728.0</ele><time>2026-04-26T17:05:42Z</time></trkpt><trkpt lat="43.37612951237187" lon="12.601574360269034"><ele>729.5</ele><time>2026-04-26T17:05:43Z</time></trkpt><trkpt lat="43.37611348569645" lon="12.601759756184777"><ele>731.0</ele><time>2026-04-26T17:05:44Z</time></trkpt><trkpt lat="43.376065398507805" lon="12.601945589248981"><ele>733.25</ele><time>2026-04-26T17:05:45Z</time></trkpt><trkpt lat="43.37597847815578" lon="12.602111573894629"><ele>735.5</ele><time>2026-04-26T17:05:46Z</time></trkpt><trkpt lat="43.37591540346029" lon="12.602238666183387"><ele>737.75</ele><time>2026-04-26T17:05:47Z</time></trkpt><trkpt lat="43.37593485704112" lon="12.60237789353912"><ele>740.0</ele><time>2026-04-26T17:05:48Z</time></trkpt><trkpt lat="43.3760308082853" lon="12.60248609673458"><ele>740.0</ele><time>2026-04-26T17:05:49Z</time></trkpt><trkpt lat="43.376174514511945" lon="12.602516402786"><ele>740.0</ele><time>2026-04-26T17:05:50Z</time></trkpt><trkpt lat="43.37634524285209" lon="12.602495772745659"><ele>740.0</ele><time>2026-04-26T17:05:51Z</time></trkpt><trkpt lat="43.376527164599246" lon="12.602381085789496"><ele>740.25</ele><time>2026-04-26T17:05:52Z</time></trkpt><trkpt lat="43.376686368575356" lon="12.602351964172566"><ele>740.5</ele><time>2026-04-26T17:05:53Z</time></trkpt><trkpt lat="43.376783210026346" lon="12.602369011282509"><ele>740.75</ele><time>2026-04-26T17:05:54Z</time></trkpt><trkpt lat="43.376856057132215" lon="12.602451930223665"><ele>741.0</ele><time>2026-04-26T17:05:55Z</time></trkpt><trkpt lat="43.37688741084654" lon="12.602598871491887"><ele>741.0</ele><time>2026-04-26T17:05:56Z</time></trkpt><trkpt lat="43.37685952258552" lon="12.602764438609778"><ele>741.0</ele><time>2026-04-26T17:05:57Z</time></trkpt><trkpt lat="43.37675138782179" lon="12.602883424712703"><ele>741.0</ele><time>2026-04-26T17:05:58Z</time></trkpt><trkpt lat="43.37660646612621" lon="12.602960116402734"><ele>741.0</ele><time>2026-04-26T17:05:59Z</time></trkpt><trkpt lat="43.37643112468132" lon="12.603032226927512"><ele>744.6666666666666</ele><time>2026-04-26T17:06:00Z</time></trkpt><trkpt lat="43.37625638881562" lon="12.60312484989508"><ele>748.3333333333333</ele><time>2026-04-26T17:06:01Z</time></trkpt><trkpt lat="43.376126120568806" lon="12.60321661207175"><ele>752.0</ele><time>2026-04-26T17:06:02Z</time></trkpt><trkpt lat="43.3760338706059" lon="12.603325779576046"><ele>752.0</ele><time>2026-04-26T17:06:03Z</time></trkpt><trkpt lat="43.37599947986778" lon="12.603479028113366"><ele>752.0</ele><time>2026-04-26T17:06:04Z</time></trkpt><trkpt lat="43.37607221316128" lon="12.603683949950822"><ele>752.0</ele><time>2026-04-26T17:06:05Z</time></trkpt><trkpt lat="43.37622262942466" lon="12.60381033182845"><ele>752.6666666666666</ele><time>2026-04-26T17:06:06Z</time></trkpt><trkpt lat="43.376384188037584" lon="12.603821739449472"><ele>753.3333333333334</ele><time>2026-04-26T17:06:07Z</time></trkpt><trkpt lat="43.37659544521307" lon="12.60380067075402"><ele>754.0</ele><time>2026-04-26T17:06:08Z</time></trkpt><trkpt lat="43.37681610739813" lon="12.60365814486099"><ele>754.0</ele><time>2026-04-26T17:06:09Z</time></trkpt><trkpt lat="43.37701032882161" lon="12.603586538266375"><ele>754.0</ele><time>2026-04-26T17:06:10Z</time></trkpt><trkpt lat="43.37717125902762" lon="12.603608709019278"><ele>754.0</ele><time>2026-04-26T17:06:11Z</time></trkpt><trkpt lat="43.37731163033933" lon="12.603708508584754"><ele>760.0</ele><time>2026-04-26T17:06:12Z</time></trkpt><trkpt lat="43.37744986056256" lon="12.60379955411752"><ele>766.0</ele><time>2026-04-26T17:06:13Z</time></trkpt><trkpt lat="43.37758315746629" lon="12.60385450784768"><ele>772.0</ele><time>2026-04-26T17:06:14Z</time></trkpt><trkpt lat="43.377739610245364" lon="12.603871465922309"><ele>778.0</ele><time>2026-04-26T17:06:15Z</time></trkpt><trkpt lat="43.37789104275628" lon="12.603845218799432"><ele>778.5</ele><time>2026-04-26T17:06:16Z</time></trkpt><trkpt lat="43.37803397051523" lon="12.60383984243187"><ele>779.0</ele><time>2026-04-26T17:06:17Z</time></trkpt><trkpt lat="43.378154006453585" lon="12.603842369068419"><ele>779.5</ele><time>2026-04-26T17:06:18Z</time></trkpt><trkpt lat="43.37825812213266" lon="12.60384447287487"><ele>780.0</ele><time>2026-04-26T17:06:19Z</time></trkpt><trkpt lat="43.37834691904673" lon="12.603852706655386"><ele>780.0</ele><time>2026-04-26T17:06:20Z</time></trkpt><trkpt lat="43.378417459963714" lon="12.603866347171575"><ele>780.0</ele><time>2026-04-26T17:06:21Z</time></trkpt><trkpt lat="43.37848236340203" lon="12.603920410364575"><ele>780.0</ele><time>2026-04-26T17:06:23Z</time></trkpt><trkpt lat="43.37849190790397" lon="12.603828411922661"><ele>780.0</ele><time>2026-04-26T17:06:26Z</time></trkpt><trkpt lat="43.37839588549403" lon="12.603808472541195"><ele>780.0</ele><time>2026-04-26T17:06:28Z</time></trkpt><trkpt lat="43.37831509710247" lon="12.60382053519757"><ele>780.0</ele><time>2026-04-26T17:06:29Z</time></trkpt><trkpt lat="43.3782026957915" lon="12.603838353869337"><ele>780.0</ele><time>2026-04-26T17:06:30Z</time></trkpt><trkpt lat="43.37807973153988" lon="12.60384427225983"><ele>780.0</ele><time>2026-04-26T17:06:31Z</time></trkpt><trkpt lat="43.377936866885754" lon="12.603839185536984"><ele>780.0</ele><time>2026-04-26T17:06:32Z</time></trkpt><trkpt lat="43.37778841686482" lon="12.603837498207346"><ele>780.0</ele><time>2026-04-26T17:06:33Z</time></trkpt><trkpt lat="43.37763192648312" lon="12.603834811190321"><ele>779.3333333333333</ele><time>2026-04-26T17:06:34Z</time></trkpt><trkpt lat="43.377470903429774" lon="12.6038138779393"><ele>778.6666666666666</ele><time>2026-04-26T17:06:35Z</time></trkpt><trkpt lat="43.377313821512594" lon="12.603746953303249"><ele>778.0</ele><time>2026-04-26T17:06:36Z</time></trkpt><trkpt lat="43.37717809692839" lon="12.603659834633515"><ele>772.0</ele><time>2026-04-26T17:06:37Z</time></trkpt><trkpt lat="43.37706052742817" lon="12.603573916728736"><ele>766.0</ele><time>2026-04-26T17:06:38Z</time></trkpt><trkpt lat="43.37693970556159" lon="12.603548751510681"><ele>760.0</ele><time>2026-04-26T17:06:39Z</time></trkpt><trkpt lat="43.37681302680626" lon="12.603577092017668"><ele>754.0</ele><time>2026-04-26T17:06:40Z</time></trkpt><trkpt lat="43.376688297051714" lon="12.603640760262856"><ele>757.0</ele><time>2026-04-26T17:06:41Z</time></trkpt><trkpt lat="43.376576141265666" lon="12.603687627432498"><ele>760.0</ele><time>2026-04-26T17:06:42Z</time></trkpt><trkpt lat="43.37648426997044" lon="12.603716242807067"><ele>763.0</ele><time>2026-04-26T17:06:43Z</time></trkpt><trkpt lat="43.37641813354543" lon="12.603736144219962"><ele>766.0</ele><time>2026-04-26T17:06:44Z</time></trkpt><trkpt lat="43.37631361000393" lon="12.60376435491268"><ele>769.0</ele><time>2026-04-26T17:06:46Z</time></trkpt><trkpt lat="43.37623114775679" lon="12.603756999993976"><ele>769.0</ele><time>2026-04-26T17:06:47Z</time></trkpt><trkpt lat="43.37614168279812" lon="12.603676964343178"><ele>769.0</ele><time>2026-04-26T17:06:48Z</time></trkpt><trkpt lat="43.376082590648174" lon="12.603539927756637"><ele>769.0</ele><time>2026-04-26T17:06:49Z</time></trkpt><trkpt lat="43.37606924897612" lon="12.603399546373815"><ele>769.0</ele><time>2026-04-26T17:06:50Z</time></trkpt><trkpt lat="43.37616115066034" lon="12.603226830419525"><ele>764.0</ele><time>2026-04-26T17:06:51Z</time></trkpt><trkpt lat="43.37628536685343" lon="12.603115479195683"><ele>759.0</ele><time>2026-04-26T17:06:52Z</time></trkpt><trkpt lat="43.37642935731501" lon="12.603045322155369"><ele>754.0</ele><time>2026-04-26T17:06:53Z</time></trkpt><trkpt lat="43.37658739275487" lon="12.602978144224112"><ele>754.0</ele><time>2026-04-26T17:06:54Z</time></trkpt><trkpt lat="43.37672929846858" lon="12.602903537552049"><ele>754.0</ele><time>2026-04-26T17:06:55Z</time></trkpt><trkpt lat="43.37683089012234" lon="12.602826636771496"><ele>754.0</ele><time>2026-04-26T17:06:56Z</time></trkpt><trkpt lat="43.37689767273137" lon="12.602730908430432"><ele>754.0</ele><time>2026-04-26T17:06:57Z</time></trkpt><trkpt lat="43.3769293245392" lon="12.602600366635846"><ele>751.8333333333334</ele><time>2026-04-26T17:06:58Z</time></trkpt><trkpt lat="43.37690855429918" lon="12.602475024667669"><ele>749.6666666666667</ele><time>2026-04-26T17:06:59Z</time></trkpt><trkpt lat="43.376844587997724" lon="12.602393931611143"><ele>747.5</ele><time>2026-04-26T17:07:00Z</time></trkpt><trkpt lat="43.376768018249834" lon="12.60236549934355"><ele>745.3333333333334</ele><time>2026-04-26T17:07:03Z</time></trkpt><trkpt lat="43.37677643727887" lon="12.602455495469403"><ele>743.1666666666666</ele><time>2026-04-26T17:07:05Z</time></trkpt><trkpt lat="43.37682337146267" lon="12.6025157085806"><ele>741.0</ele><time>2026-04-26T17:07:06Z</time></trkpt><trkpt lat="43.376867124493856" lon="12.602632487015734"><ele>741.0</ele><time>2026-04-26T17:07:07Z</time></trkpt><trkpt lat="43.37683427050238" lon="12.602787394739225"><ele>741.0</ele><time>2026-04-26T17:07:08Z</time></trkpt><trkpt lat="43.3767309111574" lon="12.602908729963593"><ele>741.0</ele><time>2026-04-26T17:07:09Z</time></trkpt><trkpt lat="43.376563380081855" lon="12.602979963509728"><ele>741.0</ele><time>2026-04-26T17:07:10Z</time></trkpt><trkpt lat="43.37637754555464" lon="12.60305407494726"><ele>743.75</ele><time>2026-04-26T17:07:11Z</time></trkpt><trkpt lat="43.37620476066892" lon="12.603164284180773"><ele>746.5</ele><time>2026-04-26T17:07:12Z</time></trkpt><trkpt lat="43.37608276858046" lon="12.60326403789462"><ele>749.25</ele><time>2026-04-26T17:07:13Z</time></trkpt><trkpt lat="43.37601823032052" lon="12.603386693429528"><ele>752.0</ele><time>2026-04-26T17:07:14Z</time></trkpt><trkpt lat="43.37603834030131" lon="12.603568362221134"><ele>757.6666666666666</ele><time>2026-04-26T17:07:15Z</time></trkpt><trkpt lat="43.376138751948176" lon="12.603737923289225"><ele>763.3333333333333</ele><time>2026-04-26T17:07:16Z</time></trkpt><trkpt lat="43.37627611341203" lon="12.603837881292469"><ele>769.0</ele><time>2026-04-26T17:07:17Z</time></trkpt><trkpt lat="43.376464745434866" lon="12.60381064424696"><ele>771.0</ele><time>2026-04-26T17:07:18Z</time></trkpt><trkpt lat="43.37667143956946" lon="12.603741721083153"><ele>773.0</ele><time>2026-04-26T17:07:19Z</time></trkpt><trkpt lat="43.376881287460094" lon="12.603654559025689"><ele>775.0</ele><time>2026-04-26T17:07:20Z</time></trkpt><trkpt lat="43.377080612151815" lon="12.603600952355322"><ele>776.0</ele><time>2026-04-26T17:07:21Z</time></trkpt><trkpt lat="43.37724448837111" lon="12.603666404093843"><ele>777.0</ele><time>2026-04-26T17:07:22Z</time></trkpt><trkpt lat="43.37739918016093" lon="12.603778524616475"><ele>778.0</ele><time>2026-04-26T17:07:23Z</time></trkpt><trkpt lat="43.37754361112941" lon="12.60386278790291"><ele>778.0</ele><time>2026-04-26T17:07:24Z</time></trkpt><trkpt lat="43.37769991729723" lon="12.603883552707863"><ele>778.0</ele><time>2026-04-26T17:07:25Z</time></trkpt><trkpt lat="43.37785719163555" lon="12.60387117978734"><ele>778.0</ele><time>2026-04-26T17:07:26Z</time></trkpt><trkpt lat="43.3780080034364" lon="12.603865001073277"><ele>778.4</ele><time>2026-04-26T17:07:27Z</time></trkpt><trkpt lat="43.378134757304174" lon="12.603862894609877"><ele>778.8</ele><time>2026-04-26T17:07:28Z</time></trkpt><trkpt lat="43.3782389245239" lon="12.603860093860636"><ele>779.2</ele><time>2026-04-26T17:07:29Z</time></trkpt><trkpt lat="43.3783283417785" lon="12.60386230302841"><ele>779.6</ele><time>2026-04-26T17:07:30Z</time></trkpt><trkpt lat="43.37840013196068" lon="12.603877058008214"><ele>780.0</ele><time>2026-04-26T17:07:31Z</time></trkpt><trkpt lat="43.378481394496966" lon="12.60391944262008"><ele>780.0</ele><time>2026-04-26T17:07:33Z</time></trkpt><trkpt lat="43.37845591743364" lon="12.603828657964732"><ele>780.0</ele><time>2026-04-26T17:07:37Z</time></trkpt><trkpt lat="43.37833051932784" lon="12.60382372469587"><ele>780.0</ele><time>2026-04-26T17:07:39Z</time></trkpt><trkpt lat="43.37823450029519" lon="12.603842546299287"><ele>780.0</ele><time>2026-04-26T17:07:40Z</time></trkpt><trkpt lat="43.378119837890644" lon="12.603846666961724"><ele>780.0</ele><time>2026-04-26T17:07:41Z</time></trkpt><trkpt lat="43.37798026710393" lon="12.603847056552473"><ele>779.3333333333333</ele><time>2026-04-26T17:07:42Z</time></trkpt><trkpt lat="43.37783348948374" lon="12.603845831655807"><ele>778.6666666666666</ele><time>2026-04-26T17:07:43Z</time></trkpt><trkpt lat="43.37767239758635" lon="12.603841345667442"><ele>778.0</ele><time>2026-04-26T17:07:44Z</time></trkpt><trkpt lat="43.377509337082564" lon="12.603826442363996"><ele>778.0</ele><time>2026-04-26T17:07:45Z</time></trkpt><trkpt lat="43.37734853011456" lon="12.603775854994167"><ele>778.0</ele><time>2026-04-26T17:07:46Z</time></trkpt><trkpt lat="43.37720719985756" lon="12.603704550255705"><ele>778.0</ele><time>2026-04-26T17:07:47Z</time></trkpt><trkpt lat="43.377089582593186" lon="12.603618271144308"><ele>778.0</ele><time>2026-04-26T17:07:48Z</time></trkpt><trkpt lat="43.376973118924106" lon="12.603575817343529"><ele>777.25</ele><time>2026-04-26T17:07:49Z</time></trkpt><trkpt lat="43.37685063653133" lon="12.603586096771014"><ele>776.5</ele><time>2026-04-26T17:07:50Z</time></trkpt><trkpt lat="43.3767265338308" lon="12.603642969715441"><ele>775.75</ele><time>2026-04-26T17:07:51Z</time></trkpt><trkpt lat="43.37660858970685" lon="12.603691944682694"><ele>775.0</ele><time>2026-04-26T17:07:52Z</time></trkpt><trkpt lat="43.37649481826836" lon="12.603732705993515"><ele>774.9999999999999</ele><time>2026-04-26T17:07:53Z</time></trkpt><trkpt lat="43.37638012526205" lon="12.603753533956736"><ele>775.0</ele><time>2026-04-26T17:07:54Z</time></trkpt><trkpt lat="43.376288283527046" lon="12.603760500661792"><ele>775.0</ele><time>2026-04-26T17:07:55Z</time></trkpt><trkpt lat="43.37621659625731" lon="12.603747590491535"><ele>775.0</ele><time>2026-04-26T17:07:56Z</time></trkpt><trkpt lat="43.37615207841919" lon="12.6037164684181"><ele>774.9999999999999</ele><time>2026-04-26T17:07:57Z</time></trkpt><trkpt lat="43.3760720129179" lon="12.603635732442756"><ele>775.0</ele><time>2026-04-26T17:07:59Z</time></trkpt><trkpt lat="43.37602798293446" lon="12.603705757815316"><ele>767.3333333333333</ele><time>2026-04-26T17:08:03Z</time></trkpt><trkpt lat="43.37605065824585" lon="12.603406766487835"><ele>759.6666666666666</ele><time>2026-04-26T17:09:37Z</time></trkpt><trkpt lat="43.37608822948188" lon="12.603272607621314"><ele>752.0</ele><time>2026-04-26T17:09:38Z</time></trkpt><trkpt lat="43.37617933115688" lon="12.603145919708748"><ele>752.0</ele><time>2026-04-26T17:09:39Z</time></trkpt><trkpt lat="43.376294973339995" lon="12.60307852217406"><ele>752.0</ele><time>2026-04-26T17:09:40Z</time></trkpt><trkpt lat="43.37639595251813" lon="12.603036782726543"><ele>752.0</ele><time>2026-04-26T17:09:41Z</time></trkpt><trkpt lat="43.376471208102004" lon="12.603007257087478"><ele>752.0</ele><time>2026-04-26T17:09:42Z</time></trkpt><trkpt lat="43.376538288839136" lon="12.602987601548113"><ele>752.0</ele><time>2026-04-26T17:09:43Z</time></trkpt><trkpt lat="43.37661114073315" lon="12.602983386986965"><ele>752.4000000000001</ele><time>2026-04-26T17:09:45Z</time></trkpt><trkpt lat="43.376705845171514" lon="12.602931604844352"><ele>752.8000000000001</ele><time>2026-04-26T17:15:04Z</time></trkpt><trkpt lat="43.37680968776023" lon="12.602833858639714"><ele>753.2</ele><time>2026-04-26T17:15:06Z</time></trkpt><trkpt lat="43.37685023828971" lon="12.6027591272361"><ele>753.6</ele><time>2026-04-26T17:15:07Z</time></trkpt><trkpt lat="43.37689143633269" lon="12.602661548271364"><ele>754.0</ele><time>2026-04-26T17:15:08Z</time></trkpt><trkpt lat="43.376894314212954" lon="12.602540066414761"><ele>751.4000000000001</ele><time>2026-04-26T17:15:09Z</time></trkpt><trkpt lat="43.376869051390344" lon="12.602432167220964"><ele>748.8</ele><time>2026-04-26T17:15:10Z</time></trkpt><trkpt lat="43.37677370851283" lon="12.60234612751765"><ele>746.2</ele><time>2026-04-26T17:15:11Z</time></trkpt><trkpt lat="43.376666259632444" lon="12.602311354668025"><ele>743.5999999999999</ele><time>2026-04-26T17:15:12Z</time></trkpt><trkpt lat="43.376561277268664" lon="12.602317638587031"><ele>741.0</ele><time>2026-04-26T17:15:13Z</time></trkpt><trkpt lat="43.37644057849388" lon="12.602361598799705"><ele>740.8</ele><time>2026-04-26T17:15:14Z</time></trkpt><trkpt lat="43.376329846509066" lon="12.602396209652623"><ele>740.5999999999999</ele><time>2026-04-26T17:15:15Z</time></trkpt><trkpt lat="43.37622730704692" lon="12.60241920533787"><ele>740.4</ele><time>2026-04-26T17:15:16Z</time></trkpt><trkpt lat="43.37612014050864" lon="12.6024455528398"><ele>740.2</ele><time>2026-04-26T17:15:17Z</time></trkpt><trkpt lat="43.376036436475665" lon="12.602441727020436"><ele>740.0</ele><time>2026-04-26T17:15:18Z</time></trkpt><trkpt lat="43.37596684015943" lon="12.602374656823434"><ele>740.0</ele><time>2026-04-26T17:15:19Z</time></trkpt><trkpt lat="43.37592975638797" lon="12.602244571666983"><ele>740.0</ele><time>2026-04-26T17:15:20Z</time></trkpt><trkpt lat="43.375957758157426" lon="12.60209306850833"><ele>740.0</ele><time>2026-04-26T17:15:21Z</time></trkpt><trkpt lat="43.37602436711169" lon="12.60195814231735"><ele>740.0</ele><time>2026-04-26T17:15:22Z</time></trkpt><trkpt lat="43.37610866973869" lon="12.601820946022334"><ele>737.75</ele><time>2026-04-26T17:15:23Z</time></trkpt><trkpt lat="43.37614676261826" lon="12.601666954328996"><ele>735.5</ele><time>2026-04-26T17:15:24Z</time></trkpt><trkpt lat="43.37615301186666" lon="12.601476891315924"><ele>733.25</ele><time>2026-04-26T17:15:25Z</time></trkpt><trkpt lat="43.376108758667755" lon="12.601280159438613"><ele>731.0</ele><time>2026-04-26T17:15:26Z</time></trkpt><trkpt lat="43.37599423454721" lon="12.601091296775188"><ele>729.0</ele><time>2026-04-26T17:15:27Z</time></trkpt><trkpt lat="43.37589421988739" lon="12.600914367996966"><ele>727.0</ele><time>2026-04-26T17:15:28Z</time></trkpt><trkpt lat="43.37579588809959" lon="12.600723640702101"><ele>725.0</ele><time>2026-04-26T17:15:29Z</time></trkpt><trkpt lat="43.375678726734286" lon="12.60053473604821"><ele>725.0</ele><time>2026-04-26T17:15:30Z</time></trkpt><trkpt lat="43.37554453283675" lon="12.600358810462268"><ele>725.0</ele><time>2026-04-26T17:15:31Z</time></trkpt><trkpt lat="43.37539707794907" lon="12.600195553982804"><ele>725.0</ele><time>2026-04-26T17:15:32Z</time></trkpt><trkpt lat="43.37524298131498" lon="12.600035801880365"><ele>723.6666666666666</ele><time>2026-04-26T17:15:33Z</time></trkpt><trkpt lat="43.375096565573905" lon="12.59985878938584"><ele>722.3333333333334</ele><time>2026-04-26T17:15:34Z</time></trkpt><trkpt lat="43.37498087349857" lon="12.599624121197506"><ele>721.0</ele><time>2026-04-26T17:15:35Z</time></trkpt><trkpt lat="43.37488941689837" lon="12.599385073736695"><ele>721.0</ele><time>2026-04-26T17:15:36Z</time></trkpt><trkpt lat="43.37477232484927" lon="12.59917669756472"><ele>721.0</ele><time>2026-04-26T17:15:37Z</time></trkpt><trkpt lat="43.374634856576456" lon="12.598974247532006"><ele>721.0</ele><time>2026-04-26T17:15:38Z</time></trkpt><trkpt lat="43.37449443067519" lon="12.598781254480073"><ele>715.0</ele><time>2026-04-26T17:15:39Z</time></trkpt><trkpt lat="43.374370768593984" lon="12.59856243022974"><ele>709.0</ele><time>2026-04-26T17:15:40Z</time></trkpt><trkpt lat="43.37427694847132" lon="12.598307510815106"><ele>703.0</ele><time>2026-04-26T17:15:41Z</time></trkpt><trkpt lat="43.37418542680576" lon="12.598039745307545"><ele>703.6666666666667</ele><time>2026-04-26T17:15:42Z</time></trkpt><trkpt lat="43.37408994759762" lon="12.597773358654123"><ele>704.3333333333334</ele><time>2026-04-26T17:15:43Z</time></trkpt><trkpt lat="43.37398452288513" lon="12.597503451087173"><ele>705.0</ele><time>2026-04-26T17:15:44Z</time></trkpt><trkpt lat="43.373868043700824" lon="12.597245764978807"><ele>701.3333333333334</ele><time>2026-04-26T17:15:45Z</time></trkpt><trkpt lat="43.373741251584384" lon="12.59700058409862"><ele>697.6666666666667</ele><time>2026-04-26T17:15:46Z</time></trkpt><trkpt lat="43.373608535033476" lon="12.596748160338256"><ele>694.0</ele><time>2026-04-26T17:15:47Z</time></trkpt><trkpt lat="43.37348116053094" lon="12.596506366627596"><ele>694.0</ele><time>2026-04-26T17:15:48Z</time></trkpt><trkpt lat="43.37338000248772" lon="12.596245416732252"><ele>694.0</ele><time>2026-04-26T17:15:49Z</time></trkpt><trkpt lat="43.37323308989758" lon="12.596014848144947"><ele>694.0</ele><time>2026-04-26T17:15:50Z</time></trkpt><trkpt lat="43.37310760993765" lon="12.595787634773156"><ele>691.6666666666667</ele><time>2026-04-26T17:15:51Z</time></trkpt><trkpt lat="43.37297476904085" lon="12.595590059643305"><ele>689.3333333333334</ele><time>2026-04-26T17:15:52Z</time></trkpt><trkpt lat="43.37283565803875" lon="12.59542059924757"><ele>687.0</ele><time>2026-04-26T17:15:53Z</time></trkpt><trkpt lat="43.37269734249154" lon="12.595261874144661"><ele>685.3333333333334</ele><time>2026-04-26T17:15:54Z</time></trkpt><trkpt lat="43.372602085218624" lon="12.595018587348578"><ele>683.6666666666667</ele><time>2026-04-26T17:15:55Z</time></trkpt><trkpt lat="43.372521546375424" lon="12.59477617230249"><ele>682.0</ele><time>2026-04-26T17:15:56Z</time></trkpt><trkpt lat="43.37241158295446" lon="12.594561702319371"><ele>681.0</ele><time>2026-04-26T17:15:57Z</time></trkpt><trkpt lat="43.37236476895557" lon="12.594442642335325"><ele>680.0</ele><time>2026-04-26T17:15:58Z</time></trkpt><trkpt lat="43.37232395960804" lon="12.594183881524271"><ele>679.0</ele><time>2026-04-26T17:15:59Z</time></trkpt><trkpt lat="43.372360791314655" lon="12.59391633627371"><ele>679.0</ele><time>2026-04-26T17:16:00Z</time></trkpt><trkpt lat="43.372409956734934" lon="12.593662505111508"><ele>679.0</ele><time>2026-04-26T17:16:01Z</time></trkpt><trkpt lat="43.372428565417906" lon="12.593412685842596"><ele>679.0</ele><time>2026-04-26T17:16:02Z</time></trkpt><trkpt lat="43.372419675767894" lon="12.593171412358513"><ele>679.0</ele><time>2026-04-26T17:16:03Z</time></trkpt><trkpt lat="43.37234491571469" lon="12.592932123351504"><ele>679.0</ele><time>2026-04-26T17:16:04Z</time></trkpt><trkpt lat="43.37217842862675" lon="12.592799442611696"><ele>679.0</ele><time>2026-04-26T17:16:05Z</time></trkpt><trkpt lat="43.37204511024617" lon="12.592644652393595"><ele>668.6666666666667</ele><time>2026-04-26T17:16:06Z</time></trkpt><trkpt lat="43.37200609746825" lon="12.592464811748405"><ele>658.3333333333334</ele><time>2026-04-26T17:16:07Z</time></trkpt><trkpt lat="43.372037061074224" lon="12.592236465815125"><ele>648.0</ele><time>2026-04-26T17:16:08Z</time></trkpt><trkpt lat="43.37211460086604" lon="12.591981413342664"><ele>647.3333333333334</ele><time>2026-04-26T17:16:09Z</time></trkpt><trkpt lat="43.37214592547191" lon="12.591708701226425"><ele>646.6666666666667</ele><time>2026-04-26T17:16:10Z</time></trkpt><trkpt lat="43.37214460544747" lon="12.591438305235078"><ele>646.0</ele><time>2026-04-26T17:16:11Z</time></trkpt><trkpt lat="43.37213724133533" lon="12.591164237954146"><ele>645.75</ele><time>2026-04-26T17:16:12Z</time></trkpt><trkpt lat="43.372180345992554" lon="12.590942845455016"><ele>645.5</ele><time>2026-04-26T17:16:13Z</time></trkpt><trkpt lat="43.372242887245086" lon="12.59075809385363"><ele>645.25</ele><time>2026-04-26T17:16:14Z</time></trkpt><trkpt lat="43.37229544350454" lon="12.590619036452313"><ele>645.0</ele><time>2026-04-26T17:16:15Z</time></trkpt><trkpt lat="43.372378425397564" lon="12.590513189886163"><ele>645.0</ele><time>2026-04-26T17:16:16Z</time></trkpt><trkpt lat="43.37251205233258" lon="12.59049308001952"><ele>645.0</ele><time>2026-04-26T17:16:17Z</time></trkpt><trkpt lat="43.37267591904774" lon="12.590548909130819"><ele>645.0</ele><time>2026-04-26T17:16:18Z</time></trkpt><trkpt lat="43.3728553168086" lon="12.590643687387493"><ele>645.0</ele><time>2026-04-26T17:16:19Z</time></trkpt><trkpt lat="43.372990904732816" lon="12.590689586446022"><ele>645.0</ele><time>2026-04-26T17:16:20Z</time></trkpt><trkpt lat="43.37308682736738" lon="12.590689505984116"><ele>645.0</ele><time>2026-04-26T17:16:21Z</time></trkpt><trkpt lat="43.37317213334057" lon="12.59062860597311"><ele>645.0</ele><time>2026-04-26T17:16:22Z</time></trkpt><trkpt lat="43.37324628082574" lon="12.590519903551584"><ele>645.0</ele><time>2026-04-26T17:16:23Z</time></trkpt><trkpt lat="43.37328499852222" lon="12.590359123446238"><ele>641.3333333333334</ele><time>2026-04-26T17:16:24Z</time></trkpt><trkpt lat="43.37321145806282" lon="12.590234955589459"><ele>637.6666666666667</ele><time>2026-04-26T17:16:25Z</time></trkpt><trkpt lat="43.3730213829468" lon="12.590128456871962"><ele>634.0</ele><time>2026-04-26T17:16:26Z</time></trkpt><trkpt lat="43.37282004451582" lon="12.590045581312802"><ele>631.5</ele><time>2026-04-26T17:16:27Z</time></trkpt><trkpt lat="43.37258762787668" lon="12.59005391284326"><ele>629.0</ele><time>2026-04-26T17:16:28Z</time></trkpt><trkpt lat="43.3723123161395" lon="12.590061100200261"><ele>631.0</ele><time>2026-04-26T17:16:29Z</time></trkpt><trkpt lat="43.37211378051496" lon="12.589926312046439"><ele>633.0</ele><time>2026-04-26T17:16:30Z</time></trkpt><trkpt lat="43.37192500544386" lon="12.589732484305044"><ele>633.0</ele><time>2026-04-26T17:16:31Z</time></trkpt><trkpt lat="43.37170461474632" lon="12.589551971803397"><ele>633.0</ele><time>2026-04-26T17:16:32Z</time></trkpt><trkpt lat="43.37153668508869" lon="12.589363248758117"><ele>630.6666666666666</ele><time>2026-04-26T17:16:33Z</time></trkpt><trkpt lat="43.3713630618086" lon="12.589223389662083"><ele>628.3333333333333</ele><time>2026-04-26T17:16:34Z</time></trkpt><trkpt lat="43.37119289757421" lon="12.5891313485827"><ele>626.0</ele><time>2026-04-26T17:16:35Z</time></trkpt><trkpt lat="43.37101602224862" lon="12.58908403256529"><ele>626.0</ele><time>2026-04-26T17:16:36Z</time></trkpt><trkpt lat="43.37082100746999" lon="12.589050432668929"><ele>626.0</ele><time>2026-04-26T17:16:37Z</time></trkpt><trkpt lat="43.370621442232775" lon="12.589063807382468"><ele>626.0</ele><time>2026-04-26T17:16:38Z</time></trkpt><trkpt lat="43.37033134377554" lon="12.589042424404601"><ele>632.5</ele><time>2026-04-26T17:16:39Z</time></trkpt><trkpt lat="43.37011616569754" lon="12.58888610462201"><ele>639.0</ele><time>2026-04-26T17:16:40Z</time></trkpt><trkpt lat="43.36993594905186" lon="12.588730769789528"><ele>631.6666666666666</ele><time>2026-04-26T17:16:41Z</time></trkpt><trkpt lat="43.369792408783205" lon="12.588528241174334"><ele>624.3333333333333</ele><time>2026-04-26T17:16:42Z</time></trkpt><trkpt lat="43.36969391480157" lon="12.588324460101965"><ele>617.0</ele><time>2026-04-26T17:16:43Z</time></trkpt><trkpt lat="43.36960138170957" lon="12.588135567415142"><ele>617.0</ele><time>2026-04-26T17:16:44Z</time></trkpt><trkpt lat="43.36944309892512" lon="12.58802612826417"><ele>617.0</ele><time>2026-04-26T17:16:45Z</time></trkpt><trkpt lat="43.369259770862115" lon="12.5879897505642"><ele>617.0</ele><time>2026-04-26T17:16:46Z</time></trkpt><trkpt lat="43.36909144612219" lon="12.5879627007266"><ele>617.0</ele><time>2026-04-26T17:16:47Z</time></trkpt><trkpt lat="43.3689018497265" lon="12.588101846418184"><ele>617.0</ele><time>2026-04-26T17:16:48Z</time></trkpt><trkpt lat="43.368739128449654" lon="12.588084744260927"><ele>617.0</ele><time>2026-04-26T17:16:49Z</time></trkpt><trkpt lat="43.36858858647692" lon="12.588022673490249"><ele>615.5</ele><time>2026-04-26T17:16:50Z</time></trkpt><trkpt lat="43.368457840423225" lon="12.587924993569255"><ele>614.0</ele><time>2026-04-26T17:16:51Z</time></trkpt><trkpt lat="43.36833833613815" lon="12.587815626738823"><ele>612.5</ele><time>2026-04-26T17:16:52Z</time></trkpt><trkpt lat="43.36822757956216" lon="12.587725054266675"><ele>611.0</ele><time>2026-04-26T17:16:53Z</time></trkpt><trkpt lat="43.36813501300883" lon="12.58765337222115"><ele>611.0</ele><time>2026-04-26T17:16:54Z</time></trkpt><trkpt lat="43.368039049299625" lon="12.587589910349985"><ele>611.0</ele><time>2026-04-26T17:16:55Z</time></trkpt><trkpt lat="43.36799160399116" lon="12.587510050379533"><ele>611.0</ele><time>2026-04-26T17:16:56Z</time></trkpt><trkpt lat="43.36791503743039" lon="12.587441588858258"><ele>611.0</ele><time>2026-04-26T17:16:57Z</time></trkpt><trkpt lat="43.367840244212466" lon="12.58735537369133"><ele>611.0</ele><time>2026-04-26T17:16:58Z</time></trkpt><trkpt lat="43.36778819458698" lon="12.587221589928687"><ele>611.8</ele><time>2026-04-26T17:16:59Z</time></trkpt><trkpt lat="43.367754243811596" lon="12.587096041820994"><ele>612.6</ele><time>2026-04-26T17:17:00Z</time></trkpt><trkpt lat="43.367739546504495" lon="12.586931919558888"><ele>613.4</ele><time>2026-04-26T17:17:01Z</time></trkpt><trkpt lat="43.367756553675534" lon="12.58677698897607"><ele>614.2</ele><time>2026-04-26T17:17:02Z</time></trkpt><trkpt lat="43.367788137510566" lon="12.586629621418467"><ele>615.0</ele><time>2026-04-26T17:17:03Z</time></trkpt><trkpt lat="43.367844260877646" lon="12.586486711453935"><ele>615.0</ele><time>2026-04-26T17:17:04Z</time></trkpt><trkpt lat="43.36789735504745" lon="12.586344974858493"><ele>615.0</ele><time>2026-04-26T17:17:05Z</time></trkpt><trkpt lat="43.36795263908104" lon="12.586199235525973"><ele>615.0</ele><time>2026-04-26T17:17:06Z</time></trkpt><trkpt lat="43.368003691432456" lon="12.586058745287547"><ele>615.0</ele><time>2026-04-26T17:17:07Z</time></trkpt><trkpt lat="43.36804119685533" lon="12.585942683144262"><ele>615.0</ele><time>2026-04-26T17:17:08Z</time></trkpt><trkpt lat="43.368086629988284" lon="12.585766083650793"><ele>617.0</ele><time>2026-04-26T17:17:09Z</time></trkpt><trkpt lat="43.36811539400219" lon="12.585584620574169"><ele>619.0</ele><time>2026-04-26T17:17:10Z</time></trkpt><trkpt lat="43.36814350823862" lon="12.585402312017163"><ele>621.0</ele><time>2026-04-26T17:17:11Z</time></trkpt><trkpt lat="43.36816820496301" lon="12.585227171311574"><ele>623.0</ele><time>2026-04-26T17:17:12Z</time></trkpt><trkpt lat="43.36818407303113" lon="12.585046452086594"><ele>623.0</ele><time>2026-04-26T17:17:13Z</time></trkpt><trkpt lat="43.368183316663746" lon="12.58485865910132"><ele>623.0</ele><time>2026-04-26T17:17:14Z</time></trkpt><trkpt lat="43.36815413358281" lon="12.58467607303056"><ele>623.0</ele><time>2026-04-26T17:17:15Z</time></trkpt><trkpt lat="43.36810080745031" lon="12.584509723850477"><ele>623.0</ele><time>2026-04-26T17:17:16Z</time></trkpt><trkpt lat="43.36805292568213" lon="12.584340362840011"><ele>618.5</ele><time>2026-04-26T17:17:17Z</time></trkpt><trkpt lat="43.36799499854869" lon="12.584174481973944"><ele>614.0</ele><time>2026-04-26T17:17:18Z</time></trkpt><trkpt lat="43.367937406257376" lon="12.584002188107283"><ele>609.5</ele><time>2026-04-26T17:17:19Z</time></trkpt><trkpt lat="43.36788446568392" lon="12.583841911682152"><ele>605.0</ele><time>2026-04-26T17:17:20Z</time></trkpt><trkpt lat="43.367821483085926" lon="12.583699874177057"><ele>603.75</ele><time>2026-04-26T17:17:21Z</time></trkpt><trkpt lat="43.367735461407904" lon="12.583574426698807"><ele>602.5</ele><time>2026-04-26T17:17:22Z</time></trkpt><trkpt lat="43.36762348664308" lon="12.583463083867272"><ele>601.25</ele><time>2026-04-26T17:17:23Z</time></trkpt><trkpt lat="43.36749938795185" lon="12.58340493454465"><ele>600.0</ele><time>2026-04-26T17:17:24Z</time></trkpt><trkpt lat="43.36735919883401" lon="12.583349199770925"><ele>600.0</ele><time>2026-04-26T17:17:25Z</time></trkpt><trkpt lat="43.36721287717111" lon="12.58331689045527"><ele>600.0</ele><time>2026-04-26T17:17:26Z</time></trkpt><trkpt lat="43.36708082627152" lon="12.583280183000054"><ele>600.0</ele><time>2026-04-26T17:17:27Z</time></trkpt><trkpt lat="43.366948935956266" lon="12.58325844981574"><ele>600.0</ele><time>2026-04-26T17:17:28Z</time></trkpt><trkpt lat="43.36681148122801" lon="12.58323981844343"><ele>601.0</ele><time>2026-04-26T17:17:29Z</time></trkpt><trkpt lat="43.366667271536194" lon="12.583237482859468"><ele>602.0</ele><time>2026-04-26T17:17:30Z</time></trkpt><trkpt lat="43.36651224023965" lon="12.583211273409399"><ele>603.0</ele><time>2026-04-26T17:17:31Z</time></trkpt><trkpt lat="43.366366140058915" lon="12.583133205782456"><ele>598.0</ele><time>2026-04-26T17:17:32Z</time></trkpt><trkpt lat="43.36623519670337" lon="12.583031471130576"><ele>593.0</ele><time>2026-04-26T17:17:33Z</time></trkpt><trkpt lat="43.366111854072045" lon="12.582909378399341"><ele>588.0</ele><time>2026-04-26T17:17:34Z</time></trkpt><trkpt lat="43.36600332828102" lon="12.582766113088278"><ele>588.0</ele><time>2026-04-26T17:17:35Z</time></trkpt><trkpt lat="43.36589010424587" lon="12.582658842871671"><ele>588.0</ele><time>2026-04-26T17:17:36Z</time></trkpt><trkpt lat="43.36579044782346" lon="12.582554690092673"><ele>588.0</ele><time>2026-04-26T17:17:37Z</time></trkpt><trkpt lat="43.365646163623055" lon="12.582531400279091"><ele>588.0</ele><time>2026-04-26T17:17:38Z</time></trkpt><trkpt lat="43.365496820051824" lon="12.582516035224556"><ele>586.0</ele><time>2026-04-26T17:17:39Z</time></trkpt><trkpt lat="43.36536117253468" lon="12.582517200836985"><ele>584.0</ele><time>2026-04-26T17:17:40Z</time></trkpt><trkpt lat="43.365242889521156" lon="12.582535847536517"><ele>582.0</ele><time>2026-04-26T17:17:41Z</time></trkpt><trkpt lat="43.36507202409199" lon="12.582642259159572"><ele>580.0</ele><time>2026-04-26T17:17:42Z</time></trkpt><trkpt lat="43.36493714697991" lon="12.582781939937103"><ele>580.75</ele><time>2026-04-26T17:17:43Z</time></trkpt><trkpt lat="43.36481594602953" lon="12.582865513598476"><ele>581.5</ele><time>2026-04-26T17:17:44Z</time></trkpt><trkpt lat="43.36469375945653" lon="12.582902937248077"><ele>582.25</ele><time>2026-04-26T17:17:45Z</time></trkpt><trkpt lat="43.36456140738977" lon="12.582887806721748"><ele>583.0</ele><time>2026-04-26T17:17:46Z</time></trkpt><trkpt lat="43.36444003741585" lon="12.582876791389374"><ele>583.0</ele><time>2026-04-26T17:17:47Z</time></trkpt><trkpt lat="43.364324839149106" lon="12.582859757949345"><ele>583.0</ele><time>2026-04-26T17:17:48Z</time></trkpt><trkpt lat="43.36421833980634" lon="12.582839106335044"><ele>583.0</ele><time>2026-04-26T17:17:49Z</time></trkpt><trkpt lat="43.36408889284884" lon="12.582836043310968"><ele>583.0</ele><time>2026-04-26T17:17:50Z</time></trkpt><trkpt lat="43.3639728811996" lon="12.582867746920707"><ele>583.0</ele><time>2026-04-26T17:17:51Z</time></trkpt><trkpt lat="43.363870775334775" lon="12.582912890285023"><ele>583.0</ele><time>2026-04-26T17:17:52Z</time></trkpt><trkpt lat="43.36376978159988" lon="12.582972275281916"><ele>583.0</ele><time>2026-04-26T17:17:53Z</time></trkpt><trkpt lat="43.3636583223232" lon="12.583177219593535"><ele>583.0</ele><time>2026-04-26T17:17:54Z</time></trkpt><trkpt lat="43.36357318284123" lon="12.583253981575151"><ele>580.75</ele><time>2026-04-26T17:17:55Z</time></trkpt><trkpt lat="43.36345973159854" lon="12.583284955483752"><ele>578.5</ele><time>2026-04-26T17:17:56Z</time></trkpt><trkpt lat="43.363325789561614" lon="12.58327875200845"><ele>576.25</ele><time>2026-04-26T17:17:57Z</time></trkpt><trkpt lat="43.36319166796729" lon="12.583223749186663"><ele>574.0</ele><time>2026-04-26T17:17:58Z</time></trkpt><trkpt lat="43.36306630231982" lon="12.583124548619537"><ele>570.75</ele><time>2026-04-26T17:17:59Z</time></trkpt><trkpt lat="43.36294218979411" lon="12.583046369522663"><ele>567.5</ele><time>2026-04-26T17:18:00Z</time></trkpt><trkpt lat="43.362819099860246" lon="12.58296190945145"><ele>564.25</ele><time>2026-04-26T17:18:01Z</time></trkpt><trkpt lat="43.36269348468506" lon="12.582866469242422"><ele>561.0</ele><time>2026-04-26T17:18:02Z</time></trkpt><trkpt lat="43.362558871686645" lon="12.582789018352418"><ele>561.0</ele><time>2026-04-26T17:18:03Z</time></trkpt><trkpt lat="43.36243291240586" lon="12.582694175070285"><ele>561.0</ele><time>2026-04-26T17:18:04Z</time></trkpt><trkpt lat="43.36230782590871" lon="12.582589084375003"><ele>561.0</ele><time>2026-04-26T17:18:05Z</time></trkpt><trkpt lat="43.36218652840591" lon="12.58247131012475"><ele>561.0</ele><time>2026-04-26T17:18:06Z</time></trkpt><trkpt lat="43.36206550418807" lon="12.582352783372105"><ele>558.3333333333334</ele><time>2026-04-26T17:18:07Z</time></trkpt><trkpt lat="43.361952857510154" lon="12.582219680027022"><ele>555.6666666666667</ele><time>2026-04-26T17:18:08Z</time></trkpt><trkpt lat="43.361824777735116" lon="12.58209371980956"><ele>553.0</ele><time>2026-04-26T17:18:09Z</time></trkpt><trkpt lat="43.3617101831743" lon="12.58190673410493"><ele>553.0</ele><time>2026-04-26T17:18:10Z</time></trkpt><trkpt lat="43.361551991733215" lon="12.58172766052111"><ele>553.0</ele><time>2026-04-26T17:18:11Z</time></trkpt><trkpt lat="43.361363701394666" lon="12.581545177402568"><ele>553.0</ele><time>2026-04-26T17:18:12Z</time></trkpt><trkpt lat="43.36112631271176" lon="12.581383564152825"><ele>552.5</ele><time>2026-04-26T17:18:13Z</time></trkpt><trkpt lat="43.36088914252206" lon="12.581213131824686"><ele>552.0</ele><time>2026-04-26T17:18:14Z</time></trkpt><trkpt lat="43.3606942340464" lon="12.581094867460799"><ele>552.0</ele><time>2026-04-26T17:18:15Z</time></trkpt><trkpt lat="43.36054721653125" lon="12.580899682842729"><ele>552.0</ele><time>2026-04-26T17:18:16Z</time></trkpt><trkpt lat="43.36044239325654" lon="12.580677934391323"><ele>552.0</ele><time>2026-04-26T17:18:17Z</time></trkpt><trkpt lat="43.360364929708695" lon="12.58043379489397"><ele>549.3333333333334</ele><time>2026-04-26T17:18:18Z</time></trkpt><trkpt lat="43.3602356386605" lon="12.580232087012059"><ele>546.6666666666667</ele><time>2026-04-26T17:18:19Z</time></trkpt><trkpt lat="43.360067295359705" lon="12.580070450184987"><ele>544.0</ele><time>2026-04-26T17:18:20Z</time></trkpt><trkpt lat="43.35988236290204" lon="12.57991740663511"><ele>558.3333333333334</ele><time>2026-04-26T17:18:21Z</time></trkpt><trkpt lat="43.3596594903529" lon="12.579814996186732"><ele>572.6666666666666</ele><time>2026-04-26T17:18:22Z</time></trkpt><trkpt lat="43.35946975710753" lon="12.579706154112392"><ele>587.0</ele><time>2026-04-26T17:18:23Z</time></trkpt><trkpt lat="43.35930424842867" lon="12.579578904226139"><ele>569.0</ele><time>2026-04-26T17:18:24Z</time></trkpt><trkpt lat="43.35916404315085" lon="12.579462566165734"><ele>551.0</ele><time>2026-04-26T17:18:25Z</time></trkpt><trkpt lat="43.35907010852348" lon="12.579244147449288"><ele>533.0</ele><time>2026-04-26T17:18:26Z</time></trkpt><trkpt lat="43.3589547875741" lon="12.578964729735365"><ele>530.5</ele><time>2026-04-26T17:18:27Z</time></trkpt><trkpt lat="43.35885495130357" lon="12.578686315975668"><ele>528.0</ele><time>2026-04-26T17:18:28Z</time></trkpt><trkpt lat="43.35872957233367" lon="12.578414197707108"><ele>528.0</ele><time>2026-04-26T17:18:29Z</time></trkpt><trkpt lat="43.35858602175616" lon="12.57812447156643"><ele>528.0</ele><time>2026-04-26T17:18:30Z</time></trkpt><trkpt lat="43.35841312292688" lon="12.577825842357115"><ele>528.0</ele><time>2026-04-26T17:18:31Z</time></trkpt><trkpt lat="43.35826897637872" lon="12.57751653871907"><ele>528.0</ele><time>2026-04-26T17:18:32Z</time></trkpt><trkpt lat="43.3581400563337" lon="12.577241832172607"><ele>526.3333333333334</ele><time>2026-04-26T17:18:33Z</time></trkpt><trkpt lat="43.35800743345991" lon="12.576988254433749"><ele>524.6666666666667</ele><time>2026-04-26T17:18:34Z</time></trkpt><trkpt lat="43.35792675192755" lon="12.57672684222924"><ele>523.0</ele><time>2026-04-26T17:18:35Z</time></trkpt><trkpt lat="43.357795761210916" lon="12.576574996773319"><ele>523.0</ele><time>2026-04-26T17:18:36Z</time></trkpt><trkpt lat="43.357631595036075" lon="12.57645324176614"><ele>523.0</ele><time>2026-04-26T17:18:37Z</time></trkpt><trkpt lat="43.357467613309474" lon="12.5763638671831"><ele>523.0</ele><time>2026-04-26T17:18:38Z</time></trkpt><trkpt lat="43.357296386520666" lon="12.576265852458462"><ele>522.25</ele><time>2026-04-26T17:18:39Z</time></trkpt><trkpt lat="43.35712042630118" lon="12.576167732221943"><ele>521.5</ele><time>2026-04-26T17:18:40Z</time></trkpt><trkpt lat="43.35699448571327" lon="12.576099075786155"><ele>520.75</ele><time>2026-04-26T17:18:41Z</time></trkpt><trkpt lat="43.35688394175319" lon="12.576050435481473"><ele>520.0</ele><time>2026-04-26T17:18:42Z</time></trkpt><trkpt lat="43.35676780912335" lon="12.576027509360106"><ele>520.0</ele><time>2026-04-26T17:18:43Z</time></trkpt><trkpt lat="43.35667052723148" lon="12.575997820665942"><ele>520.0</ele><time>2026-04-26T17:18:44Z</time></trkpt><trkpt lat="43.35661379982989" lon="12.575928574663779"><ele>520.0</ele><time>2026-04-26T17:18:45Z</time></trkpt><trkpt lat="43.35658371706464" lon="12.575766860141037"><ele>520.0</ele><time>2026-04-26T17:18:46Z</time></trkpt><trkpt lat="43.35655336078553" lon="12.57557816707084"><ele>520.0</ele><time>2026-04-26T17:18:47Z</time></trkpt><trkpt lat="43.35651636002326" lon="12.575390947861608"><ele>521.5</ele><time>2026-04-26T17:18:48Z</time></trkpt><trkpt lat="43.35647556936231" lon="12.575223734236648"><ele>523.0</ele><time>2026-04-26T17:18:49Z</time></trkpt><trkpt lat="43.35643875437425" lon="12.57507501249239"><ele>524.5</ele><time>2026-04-26T17:18:50Z</time></trkpt><trkpt lat="43.35639169124914" lon="12.574938828813591"><ele>526.0</ele><time>2026-04-26T17:18:51Z</time></trkpt><trkpt lat="43.35633238524994" lon="12.574818027784103"><ele>523.2</ele><time>2026-04-26T17:18:52Z</time></trkpt><trkpt lat="43.35627690764534" lon="12.57469116529613"><ele>520.4000000000001</ele><time>2026-04-26T17:18:53Z</time></trkpt><trkpt lat="43.356227594773436" lon="12.57456589647321"><ele>517.6</ele><time>2026-04-26T17:18:54Z</time></trkpt><trkpt lat="43.356176277116695" lon="12.57445949705422"><ele>514.8000000000001</ele><time>2026-04-26T17:18:55Z</time></trkpt><trkpt lat="43.35612685018885" lon="12.574340939519201"><ele>512.0</ele><time>2026-04-26T17:18:56Z</time></trkpt><trkpt lat="43.35610158372096" lon="12.574231249134888"><ele>511.40000000000003</ele><time>2026-04-26T17:18:57Z</time></trkpt><trkpt lat="43.35606914205154" lon="12.57413802642046"><ele>510.80000000000007</ele><time>2026-04-26T17:18:58Z</time></trkpt><trkpt lat="43.35601013466127" lon="12.574019460558729"><ele>510.2</ele><time>2026-04-26T17:19:00Z</time></trkpt><trkpt lat="43.3559569866599" lon="12.573945302502311"><ele>509.6</ele><time>2026-04-26T17:19:03Z</time></trkpt><trkpt lat="43.35588842020567" lon="12.574014795802254"><ele>509.0</ele><time>2026-04-26T17:19:54Z</time></trkpt><trkpt lat="43.35580911932155" lon="12.573891407927885"><ele>509.0</ele><time>2026-04-26T17:20:01Z</time></trkpt><trkpt lat="43.35571258869901" lon="12.573928448643924"><ele>509.0</ele><time>2026-04-26T17:20:04Z</time></trkpt><trkpt lat="43.35559747591261" lon="12.573645361307106"><ele>509.0</ele><time>2026-04-26T17:20:09Z</time></trkpt><trkpt lat="43.355557781894355" lon="12.57354604008129"><ele>509.0</ele><time>2026-04-26T17:20:10Z</time></trkpt><trkpt lat="43.355575973916345" lon="12.57339448671198"><ele>508.16666666666663</ele><time>2026-04-26T17:20:11Z</time></trkpt><trkpt lat="43.35552904059854" lon="12.57329707702772"><ele>507.3333333333333</ele><time>2026-04-26T17:20:12Z</time></trkpt><trkpt lat="43.355470797151504" lon="12.573206701829623"><ele>506.5</ele><time>2026-04-26T17:20:13Z</time></trkpt><trkpt lat="43.35541953371262" lon="12.573091205222653"><ele>505.66666666666663</ele><time>2026-04-26T17:20:14Z</time></trkpt><trkpt lat="43.355382385267525" lon="12.572996865875641"><ele>504.8333333333333</ele><time>2026-04-26T17:20:15Z</time></trkpt><trkpt lat="43.35534737672979" lon="12.572911028125889"><ele>504.0</ele><time>2026-04-26T17:20:16Z</time></trkpt><trkpt lat="43.35531409615912" lon="12.572821332565502"><ele>504.0</ele><time>2026-04-26T17:20:17Z</time></trkpt><trkpt lat="43.35525446909034" lon="12.572681414048159"><ele>504.0</ele><time>2026-04-26T17:20:19Z</time></trkpt><trkpt lat="43.355147387562724" lon="12.572585635408785"><ele>504.0</ele><time>2026-04-26T17:20:21Z</time></trkpt><trkpt lat="43.35499404872716" lon="12.572670903023681"><ele>504.0</ele><time>2026-04-26T17:20:23Z</time></trkpt><trkpt lat="43.35489249968612" lon="12.572736817270753"><ele>504.0</ele><time>2026-04-26T17:20:24Z</time></trkpt><trkpt lat="43.35479449578079" lon="12.572763950509273"><ele>504.0</ele><time>2026-04-26T17:20:25Z</time></trkpt><trkpt lat="43.35469749978989" lon="12.572802754156038"><ele>504.0</ele><time>2026-04-26T17:20:26Z</time></trkpt><trkpt lat="43.35459263532642" lon="12.572850557034837"><ele>504.0</ele><time>2026-04-26T17:20:27Z</time></trkpt><trkpt lat="43.354496183675955" lon="12.572919011764398"><ele>504.0</ele><time>2026-04-26T17:20:28Z</time></trkpt><trkpt lat="43.3544186401216" lon="12.572988745092568"><ele>502.79999999999995</ele><time>2026-04-26T17:20:29Z</time></trkpt><trkpt lat="43.35435599396405" lon="12.573054752415283"><ele>501.59999999999997</ele><time>2026-04-26T17:20:30Z</time></trkpt><trkpt lat="43.3542918026079" lon="12.573119368129664"><ele>500.4</ele><time>2026-04-26T17:20:31Z</time></trkpt><trkpt lat="43.354226083278895" lon="12.573170479250518"><ele>499.2</ele><time>2026-04-26T17:20:32Z</time></trkpt><trkpt lat="43.3541053651766" lon="12.573210581414694"><ele>498.0</ele><time>2026-04-26T17:20:34Z</time></trkpt><trkpt lat="43.35399172683601" lon="12.573188236007079"><ele>498.0</ele><time>2026-04-26T17:20:36Z</time></trkpt><trkpt lat="43.353926936868824" lon="12.573099398994335"><ele>497.99999999999994</ele><time>2026-04-26T17:20:37Z</time></trkpt><trkpt lat="43.35386746260269" lon="12.572983837583143"><ele>497.99999999999994</ele><time>2026-04-26T17:20:38Z</time></trkpt><trkpt lat="43.353812816873884" lon="12.57284585757479"><ele>498.0</ele><time>2026-04-26T17:20:39Z</time></trkpt><trkpt lat="43.35374208032527" lon="12.572728235906641"><ele>498.0</ele><time>2026-04-26T17:20:40Z</time></trkpt><trkpt lat="43.35365963884115" lon="12.572611819377236"><ele>497.0</ele><time>2026-04-26T17:20:41Z</time></trkpt><trkpt lat="43.35357378979529" lon="12.57248980735004"><ele>496.0</ele><time>2026-04-26T17:20:42Z</time></trkpt><trkpt lat="43.353495104528385" lon="12.57237161700922"><ele>495.0</ele><time>2026-04-26T17:20:43Z</time></trkpt><trkpt lat="43.353423439847354" lon="12.572232731378453"><ele>494.0</ele><time>2026-04-26T17:20:44Z</time></trkpt><trkpt lat="43.35334828505776" lon="12.572106266610263"><ele>493.75</ele><time>2026-04-26T17:20:45Z</time></trkpt><trkpt lat="43.3532669524305" lon="12.57197644885305"><ele>493.5</ele><time>2026-04-26T17:20:46Z</time></trkpt><trkpt lat="43.353183265512584" lon="12.57184966343715"><ele>493.25</ele><time>2026-04-26T17:20:47Z</time></trkpt><trkpt lat="43.35308355515454" lon="12.571725022788433"><ele>493.0</ele><time>2026-04-26T17:20:48Z</time></trkpt><trkpt lat="43.352961029176534" lon="12.571626163345842"><ele>493.0</ele><time>2026-04-26T17:20:49Z</time></trkpt><trkpt lat="43.352842733130835" lon="12.571529076536674"><ele>493.0</ele><time>2026-04-26T17:20:50Z</time></trkpt><trkpt lat="43.35272917533562" lon="12.571406681150135"><ele>493.0</ele><time>2026-04-26T17:20:51Z</time></trkpt><trkpt lat="43.35257918121025" lon="12.571300337441713"><ele>492.6666666666667</ele><time>2026-04-26T17:20:52Z</time></trkpt><trkpt lat="43.35242354075874" lon="12.571143739298922"><ele>492.33333333333337</ele><time>2026-04-26T17:20:53Z</time></trkpt><trkpt lat="43.35230746825442" lon="12.571043880443648"><ele>492.0</ele><time>2026-04-26T17:20:54Z</time></trkpt><trkpt lat="43.352175347984215" lon="12.570930215450126"><ele>491.66666666666663</ele><time>2026-04-26T17:20:55Z</time></trkpt><trkpt lat="43.35204326627745" lon="12.57081558830945"><ele>491.3333333333333</ele><time>2026-04-26T17:20:56Z</time></trkpt><trkpt lat="43.351902199399305" lon="12.570693661398535"><ele>491.0</ele><time>2026-04-26T17:20:57Z</time></trkpt><trkpt lat="43.3517765542638" lon="12.570553255423643"><ele>491.0</ele><time>2026-04-26T17:20:58Z</time></trkpt><trkpt lat="43.35165655168677" lon="12.57045611301239"><ele>491.0</ele><time>2026-04-26T17:20:59Z</time></trkpt><trkpt lat="43.35153919530939" lon="12.570349561462393"><ele>491.0</ele><time>2026-04-26T17:21:00Z</time></trkpt><trkpt lat="43.35141161523263" lon="12.570247597705032"><ele>491.0</ele><time>2026-04-26T17:21:01Z</time></trkpt><trkpt lat="43.35130068064642" lon="12.570160323449905"><ele>489.4</ele><time>2026-04-26T17:21:02Z</time></trkpt><trkpt lat="43.35120059679003" lon="12.570069964411605"><ele>487.8</ele><time>2026-04-26T17:21:03Z</time></trkpt><trkpt lat="43.35111268434129" lon="12.569984378642106"><ele>486.19999999999993</ele><time>2026-04-26T17:21:04Z</time></trkpt><trkpt lat="43.35102588760121" lon="12.569920880244796"><ele>484.59999999999997</ele><time>2026-04-26T17:21:05Z</time></trkpt><trkpt lat="43.35094155631488" lon="12.569831429698052"><ele>483.0</ele><time>2026-04-26T17:21:06Z</time></trkpt><trkpt lat="43.350870115565534" lon="12.569747803356305"><ele>483.0</ele><time>2026-04-26T17:21:07Z</time></trkpt><trkpt lat="43.35076367280706" lon="12.569670833550015"><ele>482.99999999999994</ele><time>2026-04-26T17:21:09Z</time></trkpt><trkpt lat="43.35068293011075" lon="12.569579343801015"><ele>482.99999999999994</ele><time>2026-04-26T17:21:11Z</time></trkpt><trkpt lat="43.35058401027369" lon="12.569496109424108"><ele>483.0</ele><time>2026-04-26T17:21:13Z</time></trkpt><trkpt lat="43.350526461273304" lon="12.569459751961466"><ele>483.0</ele><time>2026-04-26T17:21:14Z</time></trkpt><trkpt lat="43.35046202930796" lon="12.569428591496775"><ele>482.6666666666667</ele><time>2026-04-26T17:21:15Z</time></trkpt><trkpt lat="43.35039414581078" lon="12.569406640508467"><ele>482.33333333333337</ele><time>2026-04-26T17:21:16Z</time></trkpt><trkpt lat="43.35032557904837" lon="12.56933772770404"><ele>482.0</ele><time>2026-04-26T17:21:17Z</time></trkpt><trkpt lat="43.3502531577475" lon="12.569286384709148"><ele>481.6666666666667</ele><time>2026-04-26T17:21:18Z</time></trkpt><trkpt lat="43.3501977292152" lon="12.56923833618287"><ele>481.33333333333337</ele><time>2026-04-26T17:21:19Z</time></trkpt><trkpt lat="43.350151110992826" lon="12.569168583629176"><ele>481.0</ele><time>2026-04-26T17:21:20Z</time></trkpt><trkpt lat="43.3500440296088" lon="12.569075979424577"><ele>481.0</ele><time>2026-04-26T17:21:22Z</time></trkpt><trkpt lat="43.34998395457138" lon="12.569019692562083"><ele>481.0</ele><time>2026-04-26T17:21:23Z</time></trkpt><trkpt lat="43.34990534633041" lon="12.56896316764248"><ele>481.0</ele><time>2026-04-26T17:21:24Z</time></trkpt><trkpt lat="43.34981542921707" lon="12.568887611942152"><ele>481.0</ele><time>2026-04-26T17:21:25Z</time></trkpt><trkpt lat="43.349729195327726" lon="12.568786212479335"><ele>481.0</ele><time>2026-04-26T17:21:26Z</time></trkpt><trkpt lat="43.349628584011306" lon="12.568695329019999"><ele>480.5</ele><time>2026-04-26T17:21:27Z</time></trkpt><trkpt lat="43.3495227234245" lon="12.5686019129552"><ele>480.0</ele><time>2026-04-26T17:21:28Z</time></trkpt><trkpt lat="43.34941114644052" lon="12.568503826485438"><ele>479.5</ele><time>2026-04-26T17:21:29Z</time></trkpt><trkpt lat="43.34931069699504" lon="12.568416003258024"><ele>479.0</ele><time>2026-04-26T17:21:30Z</time></trkpt><trkpt lat="43.34922313963277" lon="12.568339451592394"><ele>479.0</ele><time>2026-04-26T17:21:31Z</time></trkpt><trkpt lat="43.34912969838998" lon="12.568270278335744"><ele>479.0</ele><time>2026-04-26T17:21:32Z</time></trkpt><trkpt lat="43.34903643091604" lon="12.568188289282872"><ele>479.0</ele><time>2026-04-26T17:21:33Z</time></trkpt><trkpt lat="43.348934668999675" lon="12.568094132334096"><ele>479.0</ele><time>2026-04-26T17:21:34Z</time></trkpt><trkpt lat="43.348824911410034" lon="12.567995525708877"><ele>478.0</ele><time>2026-04-26T17:21:35Z</time></trkpt><trkpt lat="43.34871000128944" lon="12.567891562662862"><ele>477.0</ele><time>2026-04-26T17:21:36Z</time></trkpt><trkpt lat="43.348596024491854" lon="12.567783581053535"><ele>476.0</ele><time>2026-04-26T17:21:37Z</time></trkpt><trkpt lat="43.348476491338246" lon="12.567671548845484"><ele>475.0</ele><time>2026-04-26T17:21:38Z</time></trkpt><trkpt lat="43.34834976711948" lon="12.567561003570487"><ele>474.75</ele><time>2026-04-26T17:21:39Z</time></trkpt><trkpt lat="43.34823031554719" lon="12.567436631424998"><ele>474.5</ele><time>2026-04-26T17:21:40Z</time></trkpt><trkpt lat="43.34812351434654" lon="12.567313544852809"><ele>474.25</ele><time>2026-04-26T17:21:41Z</time></trkpt><trkpt lat="43.34802247030462" lon="12.567180777864392"><ele>474.0</ele><time>2026-04-26T17:21:42Z</time></trkpt><trkpt lat="43.347918521852755" lon="12.567059906945746"><ele>473.25</ele><time>2026-04-26T17:21:43Z</time></trkpt><trkpt lat="43.347824036886806" lon="12.566934912324221"><ele>472.5</ele><time>2026-04-26T17:21:44Z</time></trkpt><trkpt lat="43.3477366575576" lon="12.566809978714813"><ele>471.75</ele><time>2026-04-26T17:21:45Z</time></trkpt><trkpt lat="43.34765497808355" lon="12.566682330523232"><ele>471.0</ele><time>2026-04-26T17:21:46Z</time></trkpt><trkpt lat="43.34758178252973" lon="12.566543305600426"><ele>471.0</ele><time>2026-04-26T17:21:47Z</time></trkpt><trkpt lat="43.34750772211361" lon="12.566407451284679"><ele>471.0</ele><time>2026-04-26T17:21:48Z</time></trkpt><trkpt lat="43.34742913832814" lon="12.566274256632434"><ele>471.0</ele><time>2026-04-26T17:21:49Z</time></trkpt><trkpt lat="43.347343074639774" lon="12.566131792464518"><ele>471.0</ele><time>2026-04-26T17:21:50Z</time></trkpt><trkpt lat="43.34725929279671" lon="12.565981618929293"><ele>470.25</ele><time>2026-04-26T17:21:51Z</time></trkpt><trkpt lat="43.347169708317054" lon="12.565840039556331"><ele>469.5</ele><time>2026-04-26T17:21:52Z</time></trkpt><trkpt lat="43.347078040751114" lon="12.565679878503156"><ele>468.75</ele><time>2026-04-26T17:21:53Z</time></trkpt><trkpt lat="43.346982179941584" lon="12.565525927345304"><ele>468.0</ele><time>2026-04-26T17:21:54Z</time></trkpt><trkpt lat="43.34688438310018" lon="12.565379598095987"><ele>468.0</ele><time>2026-04-26T17:21:55Z</time></trkpt><trkpt lat="43.34678578468117" lon="12.565219001501736"><ele>468.0</ele><time>2026-04-26T17:21:56Z</time></trkpt><trkpt lat="43.34668964542701" lon="12.565043113877339"><ele>468.0</ele><time>2026-04-26T17:21:57Z</time></trkpt><trkpt lat="43.34659565412847" lon="12.564890029631986"><ele>468.0</ele><time>2026-04-26T17:21:58Z</time></trkpt><trkpt lat="43.34650366578282" lon="12.564744035751186"><ele>468.0</ele><time>2026-04-26T17:21:59Z</time></trkpt><trkpt lat="43.3464155582455" lon="12.564600757656802"><ele>468.0</ele><time>2026-04-26T17:22:00Z</time></trkpt><trkpt lat="43.346337542212524" lon="12.564468870270396"><ele>468.0</ele><time>2026-04-26T17:22:01Z</time></trkpt><trkpt lat="43.34626974178816" lon="12.564357765587596"><ele>467.2</ele><time>2026-04-26T17:22:02Z</time></trkpt><trkpt lat="43.346203614537956" lon="12.564252092391786"><ele>466.4</ele><time>2026-04-26T17:22:03Z</time></trkpt><trkpt lat="43.34614163530058" lon="12.56414813283775"><ele>465.59999999999997</ele><time>2026-04-26T17:22:04Z</time></trkpt><trkpt lat="43.34608218628806" lon="12.564044547614884"><ele>464.79999999999995</ele><time>2026-04-26T17:22:05Z</time></trkpt><trkpt lat="43.3460246876244" lon="12.563946911996446"><ele>464.0</ele><time>2026-04-26T17:22:06Z</time></trkpt><trkpt lat="43.34597404126822" lon="12.563862091262976"><ele>463.99999999999994</ele><time>2026-04-26T17:22:07Z</time></trkpt><trkpt lat="43.34592879669865" lon="12.563789911030193"><ele>464.0</ele><time>2026-04-26T17:22:08Z</time></trkpt><trkpt lat="43.34586743771031" lon="12.563711741739425"><ele>464.0</ele><time>2026-04-26T17:22:10Z</time></trkpt><trkpt lat="43.345814692611214" lon="12.563810959585984"><ele>464.0</ele><time>2026-04-26T17:22:14Z</time></trkpt><trkpt lat="43.34592742942702" lon="12.56388308030748"><ele>463.99999999999994</ele><time>2026-04-26T17:22:50Z</time></trkpt><trkpt lat="43.345995256980096" lon="12.563849790805747"><ele>464.0</ele><time>2026-04-26T17:23:14Z</time></trkpt><trkpt lat="43.34598155369527" lon="12.56376495284519"><ele>463.99999999999994</ele><time>2026-04-26T17:23:16Z</time></trkpt><trkpt lat="43.34591560205778" lon="12.563738653605578"><ele>464.0</ele><time>2026-04-26T17:23:17Z</time></trkpt><trkpt lat="43.345836679111606" lon="12.563746201940157"><ele>464.0</ele><time>2026-04-26T17:23:18Z</time></trkpt><trkpt lat="43.345787670663896" lon="12.563832084663996"><ele>464.0</ele><time>2026-04-26T17:23:19Z</time></trkpt><trkpt lat="43.34574369289851" lon="12.563934029999823"><ele>463.99999999999994</ele><time>2026-04-26T17:23:20Z</time></trkpt><trkpt lat="43.34569191208341" lon="12.564026708609399"><ele>464.0</ele><time>2026-04-26T17:23:21Z</time></trkpt><trkpt lat="43.345630677490725" lon="12.564129396812636"><ele>464.0</ele><time>2026-04-26T17:23:22Z</time></trkpt><trkpt lat="43.34556143220112" lon="12.564231916334636"><ele>464.0</ele><time>2026-04-26T17:23:23Z</time></trkpt><trkpt lat="43.34548638800048" lon="12.564348992476834"><ele>464.0</ele><time>2026-04-26T17:23:24Z</time></trkpt><trkpt lat="43.34540983217854" lon="12.56446876572034"><ele>464.0</ele><time>2026-04-26T17:23:25Z</time></trkpt><trkpt lat="43.34532998602275" lon="12.564594969640257"><ele>464.0</ele><time>2026-04-26T17:23:26Z</time></trkpt><trkpt lat="43.34522743378826" lon="12.564724722318818"><ele>464.0</ele><time>2026-04-26T17:23:27Z</time></trkpt><trkpt lat="43.34511453565679" lon="12.564846544993165"><ele>464.0</ele><time>2026-04-26T17:23:28Z</time></trkpt><trkpt lat="43.344994548331115" lon="12.5649793260246"><ele>464.0</ele><time>2026-04-26T17:23:29Z</time></trkpt><trkpt lat="43.3448661108453" lon="12.56512607197176"><ele>464.0</ele><time>2026-04-26T17:23:30Z</time></trkpt><trkpt lat="43.344739529399284" lon="12.56527525846997"><ele>464.0</ele><time>2026-04-26T17:23:31Z</time></trkpt><trkpt lat="43.344607435145925" lon="12.565420725930728"><ele>464.0</ele><time>2026-04-26T17:23:32Z</time></trkpt><trkpt lat="43.344472494376426" lon="12.565570372117543"><ele>463.3333333333333</ele><time>2026-04-26T17:23:33Z</time></trkpt><trkpt lat="43.34433566512938" lon="12.565723639114816"><ele>462.66666666666663</ele><time>2026-04-26T17:23:34Z</time></trkpt><trkpt lat="43.3441929250149" lon="12.565881818822298"><ele>462.0</ele><time>2026-04-26T17:23:35Z</time></trkpt><trkpt lat="43.34404650986649" lon="12.56604522872206"><ele>462.0</ele><time>2026-04-26T17:23:36Z</time></trkpt><trkpt lat="43.343890362960586" lon="12.566209064876572"><ele>462.0</ele><time>2026-04-26T17:23:37Z</time></trkpt><trkpt lat="43.34373775863636" lon="12.566383611409954"><ele>462.0</ele><time>2026-04-26T17:23:38Z</time></trkpt><trkpt lat="43.34358979880832" lon="12.566561038119355"><ele>462.0</ele><time>2026-04-26T17:23:39Z</time></trkpt><trkpt lat="43.3434382069897" lon="12.566748372382833"><ele>462.0</ele><time>2026-04-26T17:23:40Z</time></trkpt><trkpt lat="43.34328963815707" lon="12.56695177777766"><ele>462.0</ele><time>2026-04-26T17:23:41Z</time></trkpt><trkpt lat="43.343131077025475" lon="12.56715072522422"><ele>461.66666666666663</ele><time>2026-04-26T17:23:42Z</time></trkpt><trkpt lat="43.342972795623965" lon="12.567357169333599"><ele>461.3333333333333</ele><time>2026-04-26T17:23:43Z</time></trkpt><trkpt lat="43.34282693622749" lon="12.567567951206984"><ele>461.0</ele><time>2026-04-26T17:23:44Z</time></trkpt><trkpt lat="43.34267160795967" lon="12.567791058015537"><ele>460.66666666666663</ele><time>2026-04-26T17:23:45Z</time></trkpt><trkpt lat="43.34252895725371" lon="12.568018935920264"><ele>460.33333333333337</ele><time>2026-04-26T17:23:46Z</time></trkpt><trkpt lat="43.34239575211072" lon="12.568243671108876"><ele>460.0</ele><time>2026-04-26T17:23:47Z</time></trkpt><trkpt lat="43.342251993564425" lon="12.568475138842983"><ele>459.6666666666667</ele><time>2026-04-26T17:23:48Z</time></trkpt><trkpt lat="43.342109300097114" lon="12.56871106675947"><ele>459.33333333333337</ele><time>2026-04-26T17:23:49Z</time></trkpt><trkpt lat="43.341970697875816" lon="12.568950959240222"><ele>459.0</ele><time>2026-04-26T17:23:50Z</time></trkpt><trkpt lat="43.34183522061886" lon="12.569197961237856"><ele>459.0</ele><time>2026-04-26T17:23:51Z</time></trkpt><trkpt lat="43.34170251083152" lon="12.569448961827323"><ele>459.0</ele><time>2026-04-26T17:23:52Z</time></trkpt><trkpt lat="43.34156858960375" lon="12.569702394107644"><ele>457.5</ele><time>2026-04-26T17:23:53Z</time></trkpt><trkpt lat="43.34143895598008" lon="12.569960294272619"><ele>456.0</ele><time>2026-04-26T17:23:54Z</time></trkpt><trkpt lat="43.34130947391591" lon="12.570218831911903"><ele>457.5</ele><time>2026-04-26T17:23:55Z</time></trkpt><trkpt lat="43.34118510849649" lon="12.57048202047666"><ele>459.0</ele><time>2026-04-26T17:23:56Z</time></trkpt><trkpt lat="43.34106021244512" lon="12.570746631526497"><ele>459.0</ele><time>2026-04-26T17:23:57Z</time></trkpt><trkpt lat="43.34094123151391" lon="12.57101556486372"><ele>459.0</ele><time>2026-04-26T17:23:58Z</time></trkpt><trkpt lat="43.340828672677134" lon="12.571288300772116"><ele>459.5</ele><time>2026-04-26T17:23:59Z</time></trkpt><trkpt lat="43.3407172283892" lon="12.57156445445003"><ele>460.0</ele><time>2026-04-26T17:24:00Z</time></trkpt><trkpt lat="43.340608728419326" lon="12.571839711270899"><ele>460.0</ele><time>2026-04-26T17:24:01Z</time></trkpt><trkpt lat="43.340505121408114" lon="12.572118024083096"><ele>460.0</ele><time>2026-04-26T17:24:02Z</time></trkpt><trkpt lat="43.340407051883915" lon="12.572398118684223"><ele>460.0</ele><time>2026-04-26T17:24:03Z</time></trkpt><trkpt lat="43.34030521489125" lon="12.572682825097985"><ele>460.0</ele><time>2026-04-26T17:24:04Z</time></trkpt><trkpt lat="43.34021109051627" lon="12.572961983898903"><ele>460.0</ele><time>2026-04-26T17:24:05Z</time></trkpt><trkpt lat="43.34012191529631" lon="12.573241627015568"><ele>460.0</ele><time>2026-04-26T17:24:06Z</time></trkpt><trkpt lat="43.340034131674344" lon="12.573521754647155"><ele>460.0</ele><time>2026-04-26T17:24:07Z</time></trkpt><trkpt lat="43.33994746494535" lon="12.573804022066668"><ele>460.0</ele><time>2026-04-26T17:24:08Z</time></trkpt><trkpt lat="43.339873715873274" lon="12.574087037529196"><ele>460.0</ele><time>2026-04-26T17:24:09Z</time></trkpt><trkpt lat="43.339789331569506" lon="12.574371418347468"><ele>460.0</ele><time>2026-04-26T17:24:10Z</time></trkpt><trkpt lat="43.33971538111865" lon="12.574655130273557"><ele>459.33333333333337</ele><time>2026-04-26T17:24:11Z</time></trkpt><trkpt lat="43.33964402901316" lon="12.574942354084444"><ele>458.66666666666663</ele><time>2026-04-26T17:24:12Z</time></trkpt><trkpt lat="43.33958007162675" lon="12.575229964237298"><ele>458.0</ele><time>2026-04-26T17:24:13Z</time></trkpt><trkpt lat="43.33951908439865" lon="12.575519749871804"><ele>457.66666666666663</ele><time>2026-04-26T17:24:14Z</time></trkpt><trkpt lat="43.33945907613828" lon="12.575809572370463"><ele>457.33333333333337</ele><time>2026-04-26T17:24:15Z</time></trkpt><trkpt lat="43.339400189182925" lon="12.576099396376188"><ele>457.0</ele><time>2026-04-26T17:24:16Z</time></trkpt><trkpt lat="43.339347554475765" lon="12.576392654313995"><ele>457.0</ele><time>2026-04-26T17:24:17Z</time></trkpt><trkpt lat="43.33930031139709" lon="12.576684153238602"><ele>457.0</ele><time>2026-04-26T17:24:18Z</time></trkpt><trkpt lat="43.33925626332967" lon="12.576977321594562"><ele>457.0</ele><time>2026-04-26T17:24:19Z</time></trkpt><trkpt lat="43.339214625358885" lon="12.577271604711791"><ele>458.0</ele><time>2026-04-26T17:24:20Z</time></trkpt><trkpt lat="43.339160561069924" lon="12.57756121862422"><ele>459.0</ele><time>2026-04-26T17:24:21Z</time></trkpt><trkpt lat="43.339143289676066" lon="12.577863926943998"><ele>460.0</ele><time>2026-04-26T17:24:22Z</time></trkpt><trkpt lat="43.33911555447158" lon="12.57815894337794"><ele>460.0</ele><time>2026-04-26T17:24:23Z</time></trkpt><trkpt lat="43.339087195037635" lon="12.57845433835695"><ele>460.0</ele><time>2026-04-26T17:24:24Z</time></trkpt><trkpt lat="43.339056939280056" lon="12.578754892449021"><ele>460.0</ele><time>2026-04-26T17:24:25Z</time></trkpt><trkpt lat="43.339026151262715" lon="12.57905494124954"><ele>459.33333333333337</ele><time>2026-04-26T17:24:26Z</time></trkpt><trkpt lat="43.33899034984159" lon="12.579357587627623"><ele>458.66666666666663</ele><time>2026-04-26T17:24:27Z</time></trkpt><trkpt lat="43.33895940272639" lon="12.579657517098685"><ele>458.0</ele><time>2026-04-26T17:24:28Z</time></trkpt><trkpt lat="43.338928458210646" lon="12.579957722728267"><ele>458.0</ele><time>2026-04-26T17:24:29Z</time></trkpt><trkpt lat="43.33890018796685" lon="12.580259809484774"><ele>458.0</ele><time>2026-04-26T17:24:30Z</time></trkpt><trkpt lat="43.33887664926372" lon="12.58056043659038"><ele>458.0</ele><time>2026-04-26T17:24:31Z</time></trkpt><trkpt lat="43.33884908313268" lon="12.580863589642588"><ele>457.66666666666663</ele><time>2026-04-26T17:24:32Z</time></trkpt><trkpt lat="43.338819787077774" lon="12.58116691073973"><ele>457.33333333333337</ele><time>2026-04-26T17:24:33Z</time></trkpt><trkpt lat="43.338791432693036" lon="12.581468487382248"><ele>457.0</ele><time>2026-04-26T17:24:34Z</time></trkpt><trkpt lat="43.3387639611128" lon="12.581770924466829"><ele>457.5</ele><time>2026-04-26T17:24:35Z</time></trkpt><trkpt lat="43.338734373529405" lon="12.582077803072215"><ele>458.0</ele><time>2026-04-26T17:24:36Z</time></trkpt><trkpt lat="43.33870304370679" lon="12.582383459500788"><ele>458.0</ele><time>2026-04-26T17:24:37Z</time></trkpt><trkpt lat="43.33867009639839" lon="12.582691925916915"><ele>458.0</ele><time>2026-04-26T17:24:38Z</time></trkpt><trkpt lat="43.33864192176576" lon="12.582995173116245"><ele>458.0</ele><time>2026-04-26T17:24:39Z</time></trkpt><trkpt lat="43.33861390901363" lon="12.583296051143261"><ele>458.66666666666663</ele><time>2026-04-26T17:24:40Z</time></trkpt><trkpt lat="43.338587474352785" lon="12.583596045246866"><ele>459.33333333333337</ele><time>2026-04-26T17:24:41Z</time></trkpt><trkpt lat="43.33856014966794" lon="12.583892828121636"><ele>460.0</ele><time>2026-04-26T17:24:42Z</time></trkpt><trkpt lat="43.3385287508606" lon="12.584184757929462"><ele>462.0</ele><time>2026-04-26T17:24:43Z</time></trkpt><trkpt lat="43.33848414221635" lon="12.584472260141489"><ele>464.0</ele><time>2026-04-26T17:24:44Z</time></trkpt><trkpt lat="43.33843200243144" lon="12.584744731961553"><ele>466.0</ele><time>2026-04-26T17:24:45Z</time></trkpt><trkpt lat="43.338367916600056" lon="12.58501419915993"><ele>466.6666666666667</ele><time>2026-04-26T17:24:46Z</time></trkpt><trkpt lat="43.33829592800906" lon="12.585279107491687"><ele>467.33333333333337</ele><time>2026-04-26T17:24:47Z</time></trkpt><trkpt lat="43.33821925926448" lon="12.585532402399341"><ele>468.0</ele><time>2026-04-26T17:24:48Z</time></trkpt><trkpt lat="43.338139521634396" lon="12.585772278339384"><ele>468.0</ele><time>2026-04-26T17:24:49Z</time></trkpt><trkpt lat="43.33805481258483" lon="12.585999441948335"><ele>468.0</ele><time>2026-04-26T17:24:50Z</time></trkpt><trkpt lat="43.337970795106834" lon="12.5862104573912"><ele>468.0</ele><time>2026-04-26T17:24:51Z</time></trkpt><trkpt lat="43.33789052763269" lon="12.586408783770185"><ele>467.25</ele><time>2026-04-26T17:24:52Z</time></trkpt><trkpt lat="43.337805843353834" lon="12.586593771811797"><ele>466.5</ele><time>2026-04-26T17:24:53Z</time></trkpt><trkpt lat="43.33772155878063" lon="12.586758064263938"><ele>465.75</ele><time>2026-04-26T17:24:54Z</time></trkpt><trkpt lat="43.337633548337195" lon="12.586906688395986"><ele>465.0</ele><time>2026-04-26T17:24:55Z</time></trkpt><trkpt lat="43.33754185246146" lon="12.587066415339407"><ele>465.0</ele><time>2026-04-26T17:24:56Z</time></trkpt><trkpt lat="43.337449257946126" lon="12.587216463681433"><ele>465.0</ele><time>2026-04-26T17:24:57Z</time></trkpt><trkpt lat="43.33735999741231" lon="12.587353806595036"><ele>465.0</ele><time>2026-04-26T17:24:58Z</time></trkpt><trkpt lat="43.33726853718966" lon="12.587485188040056"><ele>465.0</ele><time>2026-04-26T17:24:59Z</time></trkpt><trkpt lat="43.3371708704692" lon="12.58761277207943"><ele>465.0</ele><time>2026-04-26T17:25:00Z</time></trkpt><trkpt lat="43.337071647401" lon="12.587745112855956"><ele>465.0</ele><time>2026-04-26T17:25:01Z</time></trkpt><trkpt lat="43.336960201306916" lon="12.587885552042644"><ele>465.0</ele><time>2026-04-26T17:25:02Z</time></trkpt><trkpt lat="43.336834206818985" lon="12.588028351269644"><ele>465.0</ele><time>2026-04-26T17:25:03Z</time></trkpt><trkpt lat="43.336700772556405" lon="12.588178634016685"><ele>465.0</ele><time>2026-04-26T17:25:04Z</time></trkpt><trkpt lat="43.33655812033406" lon="12.58833436849929"><ele>465.0</ele><time>2026-04-26T17:25:05Z</time></trkpt><trkpt lat="43.33640832896564" lon="12.588496374625578"><ele>464.66666666666663</ele><time>2026-04-26T17:25:06Z</time></trkpt><trkpt lat="43.33625259664219" lon="12.588672457326865"><ele>464.3333333333333</ele><time>2026-04-26T17:25:07Z</time></trkpt><trkpt lat="43.336090945180146" lon="12.58885055601826"><ele>464.0</ele><time>2026-04-26T17:25:08Z</time></trkpt><trkpt lat="43.335919627903884" lon="12.589038281767033"><ele>464.0</ele><time>2026-04-26T17:25:09Z</time></trkpt><trkpt lat="43.3357522574762" lon="12.589216732797967"><ele>464.0</ele><time>2026-04-26T17:25:10Z</time></trkpt><trkpt lat="43.33558787069043" lon="12.589403656200393"><ele>464.0</ele><time>2026-04-26T17:25:11Z</time></trkpt><trkpt lat="43.3354238747044" lon="12.58958515978947"><ele>463.0</ele><time>2026-04-26T17:25:12Z</time></trkpt><trkpt lat="43.33525545098455" lon="12.589770458219224"><ele>462.0</ele><time>2026-04-26T17:25:13Z</time></trkpt><trkpt lat="43.33508864013562" lon="12.589958550309596"><ele>461.0</ele><time>2026-04-26T17:25:14Z</time></trkpt><trkpt lat="43.33492075172603" lon="12.590148174188224"><ele>461.0</ele><time>2026-04-26T17:25:15Z</time></trkpt><trkpt lat="43.3347497990866" lon="12.590336090803605"><ele>461.0</ele><time>2026-04-26T17:25:16Z</time></trkpt><trkpt lat="43.334577678312584" lon="12.590527508826128"><ele>461.0</ele><time>2026-04-26T17:25:17Z</time></trkpt><trkpt lat="43.33440559807287" lon="12.59072157065676"><ele>461.0</ele><time>2026-04-26T17:25:18Z</time></trkpt><trkpt lat="43.33423303447187" lon="12.590915637145843"><ele>461.0</ele><time>2026-04-26T17:25:19Z</time></trkpt><trkpt lat="43.33405615108698" lon="12.591108279826475"><ele>461.0</ele><time>2026-04-26T17:25:20Z</time></trkpt><trkpt lat="43.33388719525443" lon="12.591300932864911"><ele>461.0</ele><time>2026-04-26T17:25:21Z</time></trkpt><trkpt lat="43.333715175257" lon="12.591493482717864"><ele>461.0</ele><time>2026-04-26T17:25:22Z</time></trkpt><trkpt lat="43.333548184494845" lon="12.591687671290865"><ele>461.0</ele><time>2026-04-26T17:25:23Z</time></trkpt><trkpt lat="43.333375905251685" lon="12.591880744102115"><ele>461.0</ele><time>2026-04-26T17:25:24Z</time></trkpt><trkpt lat="43.333206785200005" lon="12.592072211941645"><ele>461.0</ele><time>2026-04-26T17:25:25Z</time></trkpt><trkpt lat="43.3330381096619" lon="12.592264724284627"><ele>461.0</ele><time>2026-04-26T17:25:26Z</time></trkpt><trkpt lat="43.332866708330286" lon="12.592453856150671"><ele>460.0</ele><time>2026-04-26T17:25:27Z</time></trkpt><trkpt lat="43.33271023724072" lon="12.592635062110697"><ele>459.0</ele><time>2026-04-26T17:25:28Z</time></trkpt><trkpt lat="43.33255514298238" lon="12.59280779343227"><ele>458.0</ele><time>2026-04-26T17:25:29Z</time></trkpt><trkpt lat="43.33240765731881" lon="12.592970622780431"><ele>457.66666666666663</ele><time>2026-04-26T17:25:30Z</time></trkpt><trkpt lat="43.33225531168471" lon="12.593138598723845"><ele>457.33333333333337</ele><time>2026-04-26T17:25:31Z</time></trkpt><trkpt lat="43.332117821682914" lon="12.593297823756012"><ele>457.0</ele><time>2026-04-26T17:25:32Z</time></trkpt><trkpt lat="43.33196538286168" lon="12.593468496351285"><ele>455.6666666666667</ele><time>2026-04-26T17:25:33Z</time></trkpt><trkpt lat="43.33181028173404" lon="12.593639555549943"><ele>454.33333333333337</ele><time>2026-04-26T17:25:34Z</time></trkpt><trkpt lat="43.331664246476926" lon="12.593812343050722"><ele>453.0</ele><time>2026-04-26T17:25:35Z</time></trkpt><trkpt lat="43.331509258000125" lon="12.593983639295953"><ele>451.0</ele><time>2026-04-26T17:25:36Z</time></trkpt><trkpt lat="43.331355936684886" lon="12.59415381922183"><ele>449.0</ele><time>2026-04-26T17:25:37Z</time></trkpt><trkpt lat="43.33120751732082" lon="12.594324936500442"><ele>447.0</ele><time>2026-04-26T17:25:38Z</time></trkpt><trkpt lat="43.33105198989847" lon="12.594490721624533"><ele>447.66666666666663</ele><time>2026-04-26T17:25:39Z</time></trkpt><trkpt lat="43.330905766572926" lon="12.594658074868466"><ele>448.3333333333333</ele><time>2026-04-26T17:25:40Z</time></trkpt><trkpt lat="43.3307593478432" lon="12.594825852063913"><ele>449.0</ele><time>2026-04-26T17:25:41Z</time></trkpt><trkpt lat="43.33061469636325" lon="12.594995576753085"><ele>448.66666666666663</ele><time>2026-04-26T17:25:42Z</time></trkpt><trkpt lat="43.3304680758008" lon="12.59516384781727"><ele>448.33333333333337</ele><time>2026-04-26T17:25:43Z</time></trkpt><trkpt lat="43.330311589490144" lon="12.59532223305569"><ele>448.0</ele><time>2026-04-26T17:25:44Z</time></trkpt><trkpt lat="43.33017135272067" lon="12.595482944926248"><ele>448.0</ele><time>2026-04-26T17:25:45Z</time></trkpt><trkpt lat="43.33003051673163" lon="12.595643365998006"><ele>448.0</ele><time>2026-04-26T17:25:46Z</time></trkpt><trkpt lat="43.32988568238776" lon="12.595802562419442"><ele>448.0</ele><time>2026-04-26T17:25:47Z</time></trkpt><trkpt lat="43.3297393553684" lon="12.595959661241896"><ele>447.33333333333337</ele><time>2026-04-26T17:25:48Z</time></trkpt><trkpt lat="43.32959644357679" lon="12.596119527358324"><ele>446.66666666666663</ele><time>2026-04-26T17:25:49Z</time></trkpt><trkpt lat="43.32945965309043" lon="12.596278255743272"><ele>446.0</ele><time>2026-04-26T17:25:50Z</time></trkpt><trkpt lat="43.32929965042545" lon="12.596425006263983"><ele>446.0</ele><time>2026-04-26T17:25:51Z</time></trkpt><trkpt lat="43.32915851500625" lon="12.596588049773205"><ele>446.0</ele><time>2026-04-26T17:25:52Z</time></trkpt><trkpt lat="43.32902275910446" lon="12.596752731911737"><ele>446.0</ele><time>2026-04-26T17:25:53Z</time></trkpt><trkpt lat="43.328878806138434" lon="12.59691881610128"><ele>445.0</ele><time>2026-04-26T17:25:54Z</time></trkpt><trkpt lat="43.328736962614755" lon="12.597085264542576"><ele>444.0</ele><time>2026-04-26T17:25:55Z</time></trkpt><trkpt lat="43.328590462036104" lon="12.597251208962149"><ele>443.0</ele><time>2026-04-26T17:25:56Z</time></trkpt><trkpt lat="43.32845117090107" lon="12.597422178838649"><ele>443.0</ele><time>2026-04-26T17:25:57Z</time></trkpt><trkpt lat="43.32831239784195" lon="12.597597767646059"><ele>443.0</ele><time>2026-04-26T17:25:58Z</time></trkpt><trkpt lat="43.32816780004139" lon="12.597772317845118"><ele>443.0</ele><time>2026-04-26T17:25:59Z</time></trkpt><trkpt lat="43.32802767667366" lon="12.597949315345693"><ele>443.0</ele><time>2026-04-26T17:26:00Z</time></trkpt><trkpt lat="43.32788768146224" lon="12.598126133478573"><ele>443.0</ele><time>2026-04-26T17:26:01Z</time></trkpt><trkpt lat="43.327744372448855" lon="12.598300418340214"><ele>443.0</ele><time>2026-04-26T17:26:02Z</time></trkpt><trkpt lat="43.32760426856115" lon="12.598482456685868"><ele>443.0</ele><time>2026-04-26T17:26:03Z</time></trkpt><trkpt lat="43.327467993779194" lon="12.598667316758824"><ele>443.0</ele><time>2026-04-26T17:26:04Z</time></trkpt><trkpt lat="43.327324958570344" lon="12.5988504445305"><ele>443.0</ele><time>2026-04-26T17:26:05Z</time></trkpt><trkpt lat="43.32719617367126" lon="12.59904233262807"><ele>442.0</ele><time>2026-04-26T17:26:06Z</time></trkpt><trkpt lat="43.32706306753377" lon="12.599233652256407"><ele>441.0</ele><time>2026-04-26T17:26:07Z</time></trkpt><trkpt lat="43.32693548548581" lon="12.599424101540189"><ele>440.0</ele><time>2026-04-26T17:26:08Z</time></trkpt><trkpt lat="43.32680614679389" lon="12.599615568142363"><ele>440.0</ele><time>2026-04-26T17:26:09Z</time></trkpt><trkpt lat="43.32668207157748" lon="12.599812017270379"><ele>440.0</ele><time>2026-04-26T17:26:10Z</time></trkpt><trkpt lat="43.32655372579698" lon="12.60000471722715"><ele>440.0</ele><time>2026-04-26T17:26:11Z</time></trkpt><trkpt lat="43.326426255615175" lon="12.600201553064593"><ele>439.66666666666663</ele><time>2026-04-26T17:26:12Z</time></trkpt><trkpt lat="43.326302195158675" lon="12.600401625761881"><ele>439.33333333333337</ele><time>2026-04-26T17:26:13Z</time></trkpt><trkpt lat="43.32617080708908" lon="12.600602910025724"><ele>439.0</ele><time>2026-04-26T17:26:14Z</time></trkpt><trkpt lat="43.326037866922405" lon="12.600801807029757"><ele>439.0</ele><time>2026-04-26T17:26:15Z</time></trkpt><trkpt lat="43.325900700870335" lon="12.601010560375174"><ele>439.0</ele><time>2026-04-26T17:26:16Z</time></trkpt><trkpt lat="43.325764154188974" lon="12.601220276150437"><ele>439.0</ele><time>2026-04-26T17:26:17Z</time></trkpt><trkpt lat="43.32562577531956" lon="12.601433985542648"><ele>438.0</ele><time>2026-04-26T17:26:18Z</time></trkpt><trkpt lat="43.32549611464818" lon="12.601652573470608"><ele>437.0</ele><time>2026-04-26T17:26:19Z</time></trkpt><trkpt lat="43.325349983739585" lon="12.601860636547642"><ele>436.0</ele><time>2026-04-26T17:26:20Z</time></trkpt><trkpt lat="43.32520759523452" lon="12.602082899605461"><ele>435.6666666666667</ele><time>2026-04-26T17:26:21Z</time></trkpt><trkpt lat="43.32506348153689" lon="12.602304476335613"><ele>435.33333333333337</ele><time>2026-04-26T17:26:22Z</time></trkpt><trkpt lat="43.32491728792529" lon="12.602528283228395"><ele>435.0</ele><time>2026-04-26T17:26:23Z</time></trkpt><trkpt lat="43.324775976951855" lon="12.602753072862116"><ele>433.66666666666663</ele><time>2026-04-26T17:26:24Z</time></trkpt><trkpt lat="43.32462972617339" lon="12.602977690783165"><ele>432.3333333333333</ele><time>2026-04-26T17:26:25Z</time></trkpt><trkpt lat="43.324492711957326" lon="12.603196124781206"><ele>431.0</ele><time>2026-04-26T17:26:26Z</time></trkpt><trkpt lat="43.32435498909625" lon="12.603424115501001"><ele>431.0</ele><time>2026-04-26T17:26:27Z</time></trkpt><trkpt lat="43.324207484177165" lon="12.603659963966338"><ele>431.0</ele><time>2026-04-26T17:26:28Z</time></trkpt><trkpt lat="43.324043882650884" lon="12.603886608675559"><ele>430.5</ele><time>2026-04-26T17:26:29Z</time></trkpt><trkpt lat="43.32389005776728" lon="12.604120290812554"><ele>430.0</ele><time>2026-04-26T17:26:30Z</time></trkpt><trkpt lat="43.32373414663002" lon="12.604356735989976"><ele>429.5</ele><time>2026-04-26T17:26:31Z</time></trkpt><trkpt lat="43.32357515260383" lon="12.6046013671613"><ele>429.0</ele><time>2026-04-26T17:26:32Z</time></trkpt><trkpt lat="43.32340954857951" lon="12.604858885904763"><ele>429.0</ele><time>2026-04-26T17:26:33Z</time></trkpt><trkpt lat="43.32325089894577" lon="12.605120787709303"><ele>429.0</ele><time>2026-04-26T17:26:34Z</time></trkpt><trkpt lat="43.323082455683064" lon="12.605361274337637"><ele>429.0</ele><time>2026-04-26T17:26:35Z</time></trkpt><trkpt lat="43.32291897961247" lon="12.605597066380069"><ele>429.0</ele><time>2026-04-26T17:26:36Z</time></trkpt><trkpt lat="43.32275852299767" lon="12.605820579968997"><ele>429.0</ele><time>2026-04-26T17:26:37Z</time></trkpt><trkpt lat="43.32260664163561" lon="12.60603246591748"><ele>429.0</ele><time>2026-04-26T17:26:38Z</time></trkpt><trkpt lat="43.32244856003282" lon="12.606242372525138"><ele>429.0</ele><time>2026-04-26T17:26:39Z</time></trkpt><trkpt lat="43.32228554761901" lon="12.606455895350225"><ele>427.0</ele><time>2026-04-26T17:26:40Z</time></trkpt><trkpt lat="43.32211647262649" lon="12.606673863731906"><ele>425.0</ele><time>2026-04-26T17:26:41Z</time></trkpt><trkpt lat="43.321942429336595" lon="12.606891848239771"><ele>425.5</ele><time>2026-04-26T17:26:42Z</time></trkpt><trkpt lat="43.32176589537742" lon="12.607111310750817"><ele>426.0</ele><time>2026-04-26T17:26:43Z</time></trkpt><trkpt lat="43.32157832278218" lon="12.60732781188502"><ele>424.0</ele><time>2026-04-26T17:26:44Z</time></trkpt><trkpt lat="43.32138566224908" lon="12.607540589024346"><ele>422.0</ele><time>2026-04-26T17:26:45Z</time></trkpt><trkpt lat="43.3211819300403" lon="12.607751162862028"><ele>421.5</ele><time>2026-04-26T17:26:46Z</time></trkpt><trkpt lat="43.32098444620436" lon="12.607966350411715"><ele>421.0</ele><time>2026-04-26T17:26:47Z</time></trkpt><trkpt lat="43.320797788903384" lon="12.608185679089532"><ele>421.0</ele><time>2026-04-26T17:26:48Z</time></trkpt><trkpt lat="43.320607347157285" lon="12.608405773983323"><ele>421.0</ele><time>2026-04-26T17:26:49Z</time></trkpt><trkpt lat="43.3204177190788" lon="12.608626255228678"><ele>423.0</ele><time>2026-04-26T17:26:50Z</time></trkpt><trkpt lat="43.32022852739585" lon="12.608845371030991"><ele>425.0</ele><time>2026-04-26T17:26:51Z</time></trkpt><trkpt lat="43.320043244704806" lon="12.609066634694107"><ele>425.0</ele><time>2026-04-26T17:26:52Z</time></trkpt><trkpt lat="43.31985774217286" lon="12.60928794914859"><ele>425.0</ele><time>2026-04-26T17:26:53Z</time></trkpt><trkpt lat="43.31967163370316" lon="12.60950637734004"><ele>424.5</ele><time>2026-04-26T17:26:54Z</time></trkpt><trkpt lat="43.31948308081345" lon="12.609723676772528"><ele>424.0</ele><time>2026-04-26T17:26:55Z</time></trkpt><trkpt lat="43.319293030927554" lon="12.609941199752761"><ele>424.0</ele><time>2026-04-26T17:26:56Z</time></trkpt><trkpt lat="43.3191037731064" lon="12.61015854903012"><ele>424.0</ele><time>2026-04-26T17:26:57Z</time></trkpt><trkpt lat="43.318916623737906" lon="12.610377583578263"><ele>422.0</ele><time>2026-04-26T17:26:58Z</time></trkpt><trkpt lat="43.31873253556619" lon="12.610595802484571"><ele>420.0</ele><time>2026-04-26T17:26:59Z</time></trkpt><trkpt lat="43.318548735901416" lon="12.61081564933013"><ele>420.0</ele><time>2026-04-26T17:27:00Z</time></trkpt><trkpt lat="43.31836133781324" lon="12.611032054387293"><ele>420.0</ele><time>2026-04-26T17:27:01Z</time></trkpt><trkpt lat="43.31817568690142" lon="12.611247646064692"><ele>420.5</ele><time>2026-04-26T17:27:02Z</time></trkpt><trkpt lat="43.31799253017154" lon="12.611462146819246"><ele>421.0</ele><time>2026-04-26T17:27:03Z</time></trkpt><trkpt lat="43.317811473692316" lon="12.611677650430194"><ele>421.0</ele><time>2026-04-26T17:27:04Z</time></trkpt><trkpt lat="43.31763172767065" lon="12.611894882544663"><ele>421.0</ele><time>2026-04-26T17:27:05Z</time></trkpt><trkpt lat="43.31745708600384" lon="12.61211383036733"><ele>421.5</ele><time>2026-04-26T17:27:06Z</time></trkpt><trkpt lat="43.317284721441645" lon="12.612334187106928"><ele>422.0</ele><time>2026-04-26T17:27:07Z</time></trkpt><trkpt lat="43.31711816196161" lon="12.612558942581526"><ele>422.0</ele><time>2026-04-26T17:27:08Z</time></trkpt><trkpt lat="43.31694984493125" lon="12.612781475164885"><ele>422.0</ele><time>2026-04-26T17:27:09Z</time></trkpt><trkpt lat="43.31678706864213" lon="12.613009502814656"><ele>423.0</ele><time>2026-04-26T17:27:10Z</time></trkpt><trkpt lat="43.31662702491466" lon="12.613239481213917"><ele>424.0</ele><time>2026-04-26T17:27:11Z</time></trkpt><trkpt lat="43.3164733625926" lon="12.613471095772766"><ele>423.5</ele><time>2026-04-26T17:27:12Z</time></trkpt><trkpt lat="43.31632219466755" lon="12.613705363540223"><ele>423.0</ele><time>2026-04-26T17:27:13Z</time></trkpt><trkpt lat="43.31617016391223" lon="12.613936241133691"><ele>423.0</ele><time>2026-04-26T17:27:14Z</time></trkpt><trkpt lat="43.31601882207134" lon="12.614167964905583"><ele>423.0</ele><time>2026-04-26T17:27:15Z</time></trkpt><trkpt lat="43.31586271032103" lon="12.614397347700354"><ele>423.0</ele><time>2026-04-26T17:27:16Z</time></trkpt><trkpt lat="43.31571129376252" lon="12.614632315975657"><ele>423.0</ele><time>2026-04-26T17:27:17Z</time></trkpt><trkpt lat="43.31556448741485" lon="12.614866643272874"><ele>423.0</ele><time>2026-04-26T17:27:18Z</time></trkpt><trkpt lat="43.31541637297389" lon="12.615100181092401"><ele>423.0</ele><time>2026-04-26T17:27:19Z</time></trkpt><trkpt lat="43.315264015987545" lon="12.61533354901468"><ele>423.5</ele><time>2026-04-26T17:27:20Z</time></trkpt><trkpt lat="43.31511188617386" lon="12.615565044403423"><ele>424.0</ele><time>2026-04-26T17:27:21Z</time></trkpt><trkpt lat="43.31496568546915" lon="12.615797576358952"><ele>424.0</ele><time>2026-04-26T17:27:22Z</time></trkpt><trkpt lat="43.31481506430659" lon="12.616028365159396"><ele>424.0</ele><time>2026-04-26T17:27:23Z</time></trkpt><trkpt lat="43.314667582854" lon="12.616260646907476"><ele>425.0</ele><time>2026-04-26T17:27:24Z</time></trkpt><trkpt lat="43.314514852932895" lon="12.616490096886274"><ele>426.0</ele><time>2026-04-26T17:27:25Z</time></trkpt><trkpt lat="43.3143677817901" lon="12.616720515162111"><ele>427.0</ele><time>2026-04-26T17:27:26Z</time></trkpt><trkpt lat="43.31421633983872" lon="12.616950218315427"><ele>427.33333333333337</ele><time>2026-04-26T17:27:27Z</time></trkpt><trkpt lat="43.31406530639153" lon="12.617179157056418"><ele>427.66666666666663</ele><time>2026-04-26T17:27:28Z</time></trkpt><trkpt lat="43.31391517832043" lon="12.617408366517502"><ele>428.0</ele><time>2026-04-26T17:27:29Z</time></trkpt><trkpt lat="43.313765029392194" lon="12.617641393460236"><ele>427.3333333333333</ele><time>2026-04-26T17:27:30Z</time></trkpt><trkpt lat="43.31362535154679" lon="12.617877881736742"><ele>426.66666666666663</ele><time>2026-04-26T17:27:31Z</time></trkpt><trkpt lat="43.31348630034895" lon="12.618116321763576"><ele>426.0</ele><time>2026-04-26T17:27:32Z</time></trkpt><trkpt lat="43.31334592269677" lon="12.618359048633435"><ele>426.0</ele><time>2026-04-26T17:27:33Z</time></trkpt><trkpt lat="43.31320750674762" lon="12.61860504605808"><ele>426.0</ele><time>2026-04-26T17:27:34Z</time></trkpt><trkpt lat="43.31306979827746" lon="12.618853453282007"><ele>425.5</ele><time>2026-04-26T17:27:35Z</time></trkpt><trkpt lat="43.31293268348307" lon="12.619105091442682"><ele>425.0</ele><time>2026-04-26T17:27:36Z</time></trkpt><trkpt lat="43.31280103165152" lon="12.619360831432232"><ele>426.0</ele><time>2026-04-26T17:27:37Z</time></trkpt><trkpt lat="43.31266821630972" lon="12.619619923037467"><ele>427.0</ele><time>2026-04-26T17:27:38Z</time></trkpt><trkpt lat="43.31253799434042" lon="12.619881639294652"><ele>427.0</ele><time>2026-04-26T17:27:39Z</time></trkpt><trkpt lat="43.312410043069406" lon="12.620147045170166"><ele>427.0</ele><time>2026-04-26T17:27:40Z</time></trkpt><trkpt lat="43.31228118212743" lon="12.620411903093183"><ele>426.5</ele><time>2026-04-26T17:27:41Z</time></trkpt><trkpt lat="43.312151342501714" lon="12.620678927882343"><ele>426.0</ele><time>2026-04-26T17:27:42Z</time></trkpt><trkpt lat="43.3120243107088" lon="12.62094918938798"><ele>426.5</ele><time>2026-04-26T17:27:43Z</time></trkpt><trkpt lat="43.31189942807918" lon="12.621220615536274"><ele>427.0</ele><time>2026-04-26T17:27:44Z</time></trkpt><trkpt lat="43.31177620768121" lon="12.621493461988072"><ele>427.0</ele><time>2026-04-26T17:27:45Z</time></trkpt><trkpt lat="43.31164609910459" lon="12.621762315904162"><ele>427.0</ele><time>2026-04-26T17:27:46Z</time></trkpt><trkpt lat="43.31150752892903" lon="12.622031642875116"><ele>425.5</ele><time>2026-04-26T17:27:47Z</time></trkpt><trkpt lat="43.31138325307987" lon="12.622287275795616"><ele>424.0</ele><time>2026-04-26T17:27:48Z</time></trkpt><trkpt lat="43.3112523545916" lon="12.622575356819706"><ele>424.0</ele><time>2026-04-26T17:27:49Z</time></trkpt><trkpt lat="43.3111175540329" lon="12.622854375896324"><ele>424.0</ele><time>2026-04-26T17:27:50Z</time></trkpt><trkpt lat="43.310984567967964" lon="12.623131884505833"><ele>424.0</ele><time>2026-04-26T17:27:51Z</time></trkpt><trkpt lat="43.31085886379132" lon="12.623413001497228"><ele>424.0</ele><time>2026-04-26T17:27:52Z</time></trkpt><trkpt lat="43.31073547311151" lon="12.623694408372423"><ele>423.5</ele><time>2026-04-26T17:27:53Z</time></trkpt><trkpt lat="43.3106050855047" lon="12.62397532166772"><ele>423.0</ele><time>2026-04-26T17:27:54Z</time></trkpt><trkpt lat="43.31048058002998" lon="12.624257021304198"><ele>421.5</ele><time>2026-04-26T17:27:55Z</time></trkpt><trkpt lat="43.31035667681267" lon="12.624539205371002"><ele>420.0</ele><time>2026-04-26T17:27:56Z</time></trkpt><trkpt lat="43.3102230970592" lon="12.62481879536695"><ele>420.0</ele><time>2026-04-26T17:27:57Z</time></trkpt><trkpt lat="43.31009034295462" lon="12.625101513686715"><ele>420.0</ele><time>2026-04-26T17:27:58Z</time></trkpt><trkpt lat="43.309959990815685" lon="12.625383235474722"><ele>420.5</ele><time>2026-04-26T17:27:59Z</time></trkpt><trkpt lat="43.30982942660516" lon="12.625667019444782"><ele>421.0</ele><time>2026-04-26T17:28:00Z</time></trkpt><trkpt lat="43.30969658296512" lon="12.625951002789689"><ele>420.0</ele><time>2026-04-26T17:28:01Z</time></trkpt><trkpt lat="43.30956225796374" lon="12.626234217186523"><ele>419.0</ele><time>2026-04-26T17:28:02Z</time></trkpt><trkpt lat="43.309433977615925" lon="12.626518375765562"><ele>419.0</ele><time>2026-04-26T17:28:03Z</time></trkpt><trkpt lat="43.30929721935274" lon="12.626800736992482"><ele>419.0</ele><time>2026-04-26T17:28:04Z</time></trkpt><trkpt lat="43.30917210367452" lon="12.62708414428141"><ele>417.5</ele><time>2026-04-26T17:28:05Z</time></trkpt><trkpt lat="43.30904181184037" lon="12.627366604635453"><ele>416.0</ele><time>2026-04-26T17:28:06Z</time></trkpt><trkpt lat="43.30891546541551" lon="12.627649103050329"><ele>415.0</ele><time>2026-04-26T17:28:07Z</time></trkpt><trkpt lat="43.308785765120234" lon="12.627928891681192"><ele>414.0</ele><time>2026-04-26T17:28:08Z</time></trkpt><trkpt lat="43.308656728787156" lon="12.628209748414065"><ele>414.0</ele><time>2026-04-26T17:28:09Z</time></trkpt><trkpt lat="43.30852782463715" lon="12.628486912580012"><ele>414.0</ele><time>2026-04-26T17:28:10Z</time></trkpt><trkpt lat="43.308401620740334" lon="12.628762138525689"><ele>415.0</ele><time>2026-04-26T17:28:11Z</time></trkpt><trkpt lat="43.30827132869967" lon="12.629032836144088"><ele>416.0</ele><time>2026-04-26T17:28:12Z</time></trkpt><trkpt lat="43.30814590325828" lon="12.629305774515542"><ele>418.0</ele><time>2026-04-26T17:28:13Z</time></trkpt><trkpt lat="43.30802138214656" lon="12.62957802254728"><ele>420.0</ele><time>2026-04-26T17:28:14Z</time></trkpt><trkpt lat="43.307893514252285" lon="12.629845620975818"><ele>420.0</ele><time>2026-04-26T17:28:15Z</time></trkpt><trkpt lat="43.307768920060525" lon="12.630113030891609"><ele>420.0</ele><time>2026-04-26T17:28:16Z</time></trkpt><trkpt lat="43.307643606704566" lon="12.630377363339068"><ele>421.0</ele><time>2026-04-26T17:28:17Z</time></trkpt><trkpt lat="43.30752109857157" lon="12.630638252952206"><ele>422.0</ele><time>2026-04-26T17:28:18Z</time></trkpt><trkpt lat="43.30739943247094" lon="12.630900484576243"><ele>422.3333333333333</ele><time>2026-04-26T17:28:19Z</time></trkpt><trkpt lat="43.30727894063552" lon="12.631159431865802"><ele>422.66666666666663</ele><time>2026-04-26T17:28:20Z</time></trkpt><trkpt lat="43.30715834824996" lon="12.631420351055999"><ele>423.0</ele><time>2026-04-26T17:28:21Z</time></trkpt><trkpt lat="43.307039924393706" lon="12.631679939751752"><ele>422.33333333333337</ele><time>2026-04-26T17:28:22Z</time></trkpt><trkpt lat="43.30692329946727" lon="12.631939612083231"><ele>421.6666666666667</ele><time>2026-04-26T17:28:23Z</time></trkpt><trkpt lat="43.30679783198145" lon="12.63219720075714"><ele>421.0</ele><time>2026-04-26T17:28:24Z</time></trkpt><trkpt lat="43.30667381654943" lon="12.632453825405063"><ele>421.0</ele><time>2026-04-26T17:28:25Z</time></trkpt><trkpt lat="43.3065554987875" lon="12.63271162522584"><ele>421.0</ele><time>2026-04-26T17:28:26Z</time></trkpt><trkpt lat="43.30643507820288" lon="12.632967905212206"><ele>421.0</ele><time>2026-04-26T17:28:27Z</time></trkpt><trkpt lat="43.30631899977745" lon="12.633225453032601"><ele>421.33333333333337</ele><time>2026-04-26T17:28:28Z</time></trkpt><trkpt lat="43.30620007074594" lon="12.633482903467522"><ele>421.66666666666663</ele><time>2026-04-26T17:28:29Z</time></trkpt><trkpt lat="43.30607908345579" lon="12.633741804448867"><ele>422.0</ele><time>2026-04-26T17:28:30Z</time></trkpt><trkpt lat="43.30595566700918" lon="12.634004097958261"><ele>420.5</ele><time>2026-04-26T17:28:31Z</time></trkpt><trkpt lat="43.30583508085441" lon="12.634269281352617"><ele>419.0</ele><time>2026-04-26T17:28:32Z</time></trkpt><trkpt lat="43.30570692766027" lon="12.634535170337571"><ele>419.0</ele><time>2026-04-26T17:28:33Z</time></trkpt><trkpt lat="43.30557870080931" lon="12.634805884005326"><ele>419.0</ele><time>2026-04-26T17:28:34Z</time></trkpt><trkpt lat="43.305450084228866" lon="12.635077702438156"><ele>418.0</ele><time>2026-04-26T17:28:35Z</time></trkpt><trkpt lat="43.30533315128913" lon="12.635351521579942"><ele>417.0</ele><time>2026-04-26T17:28:36Z</time></trkpt><trkpt lat="43.30520845929572" lon="12.635627304711152"><ele>417.0</ele><time>2026-04-26T17:28:37Z</time></trkpt><trkpt lat="43.3050828940889" lon="12.63590474727071"><ele>417.0</ele><time>2026-04-26T17:28:38Z</time></trkpt><trkpt lat="43.304950789499465" lon="12.63618135177099"><ele>417.0</ele><time>2026-04-26T17:28:39Z</time></trkpt><trkpt lat="43.30481981317409" lon="12.636460272203148"><ele>417.0</ele><time>2026-04-26T17:28:40Z</time></trkpt><trkpt lat="43.30469102408457" lon="12.636739701115422"><ele>416.0</ele><time>2026-04-26T17:28:41Z</time></trkpt><trkpt lat="43.30456677385483" lon="12.637019335313322"><ele>415.0</ele><time>2026-04-26T17:28:42Z</time></trkpt><trkpt lat="43.3044419257781" lon="12.637299405119956"><ele>415.0</ele><time>2026-04-26T17:28:43Z</time></trkpt><trkpt lat="43.3043135771691" lon="12.637579347131632"><ele>415.0</ele><time>2026-04-26T17:28:44Z</time></trkpt><trkpt lat="43.30418620296515" lon="12.63785825914268"><ele>415.5</ele><time>2026-04-26T17:28:45Z</time></trkpt><trkpt lat="43.30405633266356" lon="12.638134967547117"><ele>416.0</ele><time>2026-04-26T17:28:46Z</time></trkpt><trkpt lat="43.30392716644826" lon="12.638413171092036"><ele>414.5</ele><time>2026-04-26T17:28:47Z</time></trkpt><trkpt lat="43.30380152298757" lon="12.638692057108685"><ele>413.0</ele><time>2026-04-26T17:28:48Z</time></trkpt><trkpt lat="43.303669629328866" lon="12.638972804586734"><ele>413.0</ele><time>2026-04-26T17:28:49Z</time></trkpt><trkpt lat="43.3035377491201" lon="12.639251566987104"><ele>413.0</ele><time>2026-04-26T17:28:50Z</time></trkpt><trkpt lat="43.303410838268256" lon="12.639532707617867"><ele>413.0</ele><time>2026-04-26T17:28:51Z</time></trkpt><trkpt lat="43.303283230073795" lon="12.63981317492806"><ele>413.0</ele><time>2026-04-26T17:28:52Z</time></trkpt><trkpt lat="43.30315109616329" lon="12.640093820792098"><ele>411.5</ele><time>2026-04-26T17:28:53Z</time></trkpt><trkpt lat="43.303016349048434" lon="12.640373712093416"><ele>410.0</ele><time>2026-04-26T17:28:54Z</time></trkpt><trkpt lat="43.30288566456306" lon="12.640653394828131"><ele>410.0</ele><time>2026-04-26T17:28:55Z</time></trkpt><trkpt lat="43.302753665544905" lon="12.640933122403045"><ele>410.0</ele><time>2026-04-26T17:28:56Z</time></trkpt><trkpt lat="43.302627225231774" lon="12.641214660113413"><ele>409.5</ele><time>2026-04-26T17:28:57Z</time></trkpt><trkpt lat="43.30249976971093" lon="12.64149610858672"><ele>409.0</ele><time>2026-04-26T17:28:58Z</time></trkpt><trkpt lat="43.30236929555591" lon="12.641770514520527"><ele>408.0</ele><time>2026-04-26T17:28:59Z</time></trkpt><trkpt lat="43.30223666167706" lon="12.642049016184385"><ele>407.0</ele><time>2026-04-26T17:29:00Z</time></trkpt><trkpt lat="43.30210431478834" lon="12.642324629550169"><ele>407.0</ele><time>2026-04-26T17:29:01Z</time></trkpt><trkpt lat="43.30197318523542" lon="12.642597245991745"><ele>407.0</ele><time>2026-04-26T17:29:02Z</time></trkpt><trkpt lat="43.30184743140881" lon="12.642870346599842"><ele>407.5</ele><time>2026-04-26T17:29:03Z</time></trkpt><trkpt lat="43.301721971379905" lon="12.643138959926196"><ele>408.0</ele><time>2026-04-26T17:29:04Z</time></trkpt><trkpt lat="43.30159104138982" lon="12.64340406070253"><ele>409.5</ele><time>2026-04-26T17:29:05Z</time></trkpt><trkpt lat="43.3014629619988" lon="12.643663724428578"><ele>411.0</ele><time>2026-04-26T17:29:06Z</time></trkpt><trkpt lat="43.30133775240244" lon="12.64392032084686"><ele>411.66666666666663</ele><time>2026-04-26T17:29:07Z</time></trkpt><trkpt lat="43.30120995960492" lon="12.644171556578865"><ele>412.3333333333333</ele><time>2026-04-26T17:29:08Z</time></trkpt><trkpt lat="43.30108015834002" lon="12.644416067955216"><ele>413.0</ele><time>2026-04-26T17:29:09Z</time></trkpt><trkpt lat="43.300949225445855" lon="12.644661164470875"><ele>414.66666666666663</ele><time>2026-04-26T17:29:10Z</time></trkpt><trkpt lat="43.300816757847215" lon="12.644900535960828"><ele>416.33333333333337</ele><time>2026-04-26T17:29:11Z</time></trkpt><trkpt lat="43.30067793043982" lon="12.645137871006458"><ele>418.0</ele><time>2026-04-26T17:29:12Z</time></trkpt><trkpt lat="43.30054106934766" lon="12.645371193225127"><ele>418.0</ele><time>2026-04-26T17:29:13Z</time></trkpt><trkpt lat="43.30039790434445" lon="12.645598561530315"><ele>418.0</ele><time>2026-04-26T17:29:14Z</time></trkpt><trkpt lat="43.30025499816011" lon="12.645821706950295"><ele>418.0</ele><time>2026-04-26T17:29:15Z</time></trkpt><trkpt lat="43.300110909233766" lon="12.64604261431224"><ele>419.6666666666667</ele><time>2026-04-26T17:29:16Z</time></trkpt><trkpt lat="43.29996513464012" lon="12.64626221844639"><ele>421.33333333333337</ele><time>2026-04-26T17:29:17Z</time></trkpt><trkpt lat="43.29981861603799" lon="12.646478922370203"><ele>423.0</ele><time>2026-04-26T17:29:18Z</time></trkpt><trkpt lat="43.299674720743276" lon="12.646693701849038"><ele>423.0</ele><time>2026-04-26T17:29:19Z</time></trkpt><trkpt lat="43.299520064257024" lon="12.646908374201374"><ele>423.0</ele><time>2026-04-26T17:29:20Z</time></trkpt><trkpt lat="43.29936575017417" lon="12.647120840134717"><ele>423.0</ele><time>2026-04-26T17:29:21Z</time></trkpt><trkpt lat="43.29920592456609" lon="12.647329237606293"><ele>423.0</ele><time>2026-04-26T17:29:22Z</time></trkpt><trkpt lat="43.299048704594924" lon="12.647534402693745"><ele>423.0</ele><time>2026-04-26T17:29:23Z</time></trkpt><trkpt lat="43.2988791755706" lon="12.647733759857374"><ele>423.0</ele><time>2026-04-26T17:29:24Z</time></trkpt><trkpt lat="43.298708197245745" lon="12.647930776052819"><ele>423.0</ele><time>2026-04-26T17:29:25Z</time></trkpt><trkpt lat="43.29853537643848" lon="12.648127847999682"><ele>423.0</ele><time>2026-04-26T17:29:26Z</time></trkpt><trkpt lat="43.29835358850466" lon="12.648323136006379"><ele>423.0</ele><time>2026-04-26T17:29:27Z</time></trkpt><trkpt lat="43.29817296439139" lon="12.648518235620454"><ele>423.0</ele><time>2026-04-26T17:29:28Z</time></trkpt><trkpt lat="43.29799359889692" lon="12.648714626819313"><ele>420.0</ele><time>2026-04-26T17:29:29Z</time></trkpt><trkpt lat="43.29780969916707" lon="12.648909658480502"><ele>417.0</ele><time>2026-04-26T17:29:30Z</time></trkpt><trkpt lat="43.2976202457315" lon="12.649101609036425"><ele>417.0</ele><time>2026-04-26T17:29:31Z</time></trkpt><trkpt lat="43.29743357098375" lon="12.649295153649247"><ele>417.0</ele><time>2026-04-26T17:29:32Z</time></trkpt><trkpt lat="43.297247774629525" lon="12.649486412727967"><ele>413.5</ele><time>2026-04-26T17:29:33Z</time></trkpt><trkpt lat="43.29706166955045" lon="12.6496787895052"><ele>410.0</ele><time>2026-04-26T17:29:34Z</time></trkpt><trkpt lat="43.29687582588924" lon="12.649867227124027"><ele>410.0</ele><time>2026-04-26T17:29:35Z</time></trkpt><trkpt lat="43.29669077998004" lon="12.650056310818224"><ele>410.0</ele><time>2026-04-26T17:29:36Z</time></trkpt><trkpt lat="43.29650689165745" lon="12.650244216714748"><ele>409.0</ele><time>2026-04-26T17:29:37Z</time></trkpt><trkpt lat="43.29632576656891" lon="12.650433681207128"><ele>408.0</ele><time>2026-04-26T17:29:38Z</time></trkpt><trkpt lat="43.296147081602896" lon="12.650622242073478"><ele>408.0</ele><time>2026-04-26T17:29:39Z</time></trkpt><trkpt lat="43.29597013366553" lon="12.650809573629962"><ele>408.0</ele><time>2026-04-26T17:29:40Z</time></trkpt><trkpt lat="43.29578767979122" lon="12.650993018987737"><ele>408.0</ele><time>2026-04-26T17:29:41Z</time></trkpt><trkpt lat="43.29560853524141" lon="12.651175710090646"><ele>408.33333333333337</ele><time>2026-04-26T17:29:42Z</time></trkpt><trkpt lat="43.29543082228431" lon="12.651358567581852"><ele>408.6666666666667</ele><time>2026-04-26T17:29:43Z</time></trkpt><trkpt lat="43.29525240216562" lon="12.651540224134735"><ele>409.0</ele><time>2026-04-26T17:29:44Z</time></trkpt><trkpt lat="43.29507967887868" lon="12.651727490452123"><ele>409.0</ele><time>2026-04-26T17:29:45Z</time></trkpt><trkpt lat="43.294908329628555" lon="12.651917612019846"><ele>409.0</ele><time>2026-04-26T17:29:46Z</time></trkpt><trkpt lat="43.29473727794956" lon="12.652104020183687"><ele>409.0</ele><time>2026-04-26T17:29:47Z</time></trkpt><trkpt lat="43.294562235068085" lon="12.652294890044455"><ele>408.0</ele><time>2026-04-26T17:29:48Z</time></trkpt><trkpt lat="43.29438810835279" lon="12.652486601229931"><ele>407.0</ele><time>2026-04-26T17:29:49Z</time></trkpt><trkpt lat="43.2942210804047" lon="12.652680228319372"><ele>406.0</ele><time>2026-04-26T17:29:50Z</time></trkpt><trkpt lat="43.29406014879997" lon="12.652875477645459"><ele>403.33333333333337</ele><time>2026-04-26T17:29:51Z</time></trkpt><trkpt lat="43.293896151735915" lon="12.653076771741993"><ele>400.66666666666663</ele><time>2026-04-26T17:29:52Z</time></trkpt><trkpt lat="43.29373516061167" lon="12.653280527050956"><ele>398.0</ele><time>2026-04-26T17:29:53Z</time></trkpt><trkpt lat="43.29357442654905" lon="12.653481366410718"><ele>397.66666666666663</ele><time>2026-04-26T17:29:54Z</time></trkpt><trkpt lat="43.293412201743784" lon="12.653678350587542"><ele>397.33333333333337</ele><time>2026-04-26T17:29:55Z</time></trkpt><trkpt lat="43.29326266073424" lon="12.653886441085682"><ele>397.0</ele><time>2026-04-26T17:29:56Z</time></trkpt><trkpt lat="43.293109623444664" lon="12.654087876800281"><ele>396.6666666666667</ele><time>2026-04-26T17:29:57Z</time></trkpt><trkpt lat="43.29295603516494" lon="12.654289313386887"><ele>396.33333333333337</ele><time>2026-04-26T17:29:58Z</time></trkpt><trkpt lat="43.29279867303138" lon="12.654491851176898"><ele>396.0</ele><time>2026-04-26T17:29:59Z</time></trkpt><trkpt lat="43.29266647928202" lon="12.654707901958602"><ele>396.0</ele><time>2026-04-26T17:30:00Z</time></trkpt><trkpt lat="43.29252382710748" lon="12.654915110124895"><ele>396.0</ele><time>2026-04-26T17:30:01Z</time></trkpt><trkpt lat="43.29237717312509" lon="12.655120699208773"><ele>396.0</ele><time>2026-04-26T17:30:02Z</time></trkpt><trkpt lat="43.29222908404747" lon="12.6553240553978"><ele>397.0</ele><time>2026-04-26T17:30:03Z</time></trkpt><trkpt lat="43.292083665109416" lon="12.655527982275133"><ele>398.0</ele><time>2026-04-26T17:30:04Z</time></trkpt><trkpt lat="43.29193732543475" lon="12.65573174028117"><ele>399.0</ele><time>2026-04-26T17:30:05Z</time></trkpt><trkpt lat="43.291790008233605" lon="12.655936057167567"><ele>399.0</ele><time>2026-04-26T17:30:06Z</time></trkpt><trkpt lat="43.291647701802525" lon="12.656143203846778"><ele>399.0</ele><time>2026-04-26T17:30:07Z</time></trkpt><trkpt lat="43.291502570207925" lon="12.656352105408835"><ele>399.0</ele><time>2026-04-26T17:30:08Z</time></trkpt><trkpt lat="43.29135347301333" lon="12.656559934789401"><ele>399.0</ele><time>2026-04-26T17:30:09Z</time></trkpt><trkpt lat="43.29119895099417" lon="12.656769910488494"><ele>399.0</ele><time>2026-04-26T17:30:10Z</time></trkpt><trkpt lat="43.29104543239882" lon="12.656975732763183"><ele>399.0</ele><time>2026-04-26T17:30:11Z</time></trkpt><trkpt lat="43.29088983830519" lon="12.657180434502495"><ele>399.0</ele><time>2026-04-26T17:30:12Z</time></trkpt><trkpt lat="43.290733505799395" lon="12.657383122609016"><ele>399.0</ele><time>2026-04-26T17:30:13Z</time></trkpt><trkpt lat="43.29057864756999" lon="12.657586305388717"><ele>399.0</ele><time>2026-04-26T17:30:14Z</time></trkpt><trkpt lat="43.29042439139305" lon="12.657781767547446"><ele>398.66666666666663</ele><time>2026-04-26T17:30:15Z</time></trkpt><trkpt lat="43.290270672435135" lon="12.65797372294372"><ele>398.3333333333333</ele><time>2026-04-26T17:30:16Z</time></trkpt><trkpt lat="43.29011884994931" lon="12.658155944869936"><ele>398.0</ele><time>2026-04-26T17:30:17Z</time></trkpt><trkpt lat="43.28996426628911" lon="12.658326637082283"><ele>398.0</ele><time>2026-04-26T17:30:18Z</time></trkpt><trkpt lat="43.28981316176417" lon="12.658490597419773"><ele>398.0</ele><time>2026-04-26T17:30:19Z</time></trkpt><trkpt lat="43.28966546635145" lon="12.65865196319054"><ele>398.0</ele><time>2026-04-26T17:30:20Z</time></trkpt><trkpt lat="43.28952586407261" lon="12.65880623891915"><ele>397.0</ele><time>2026-04-26T17:30:21Z</time></trkpt><trkpt lat="43.28938117892402" lon="12.658956827539562"><ele>396.0</ele><time>2026-04-26T17:30:22Z</time></trkpt><trkpt lat="43.28923098522101" lon="12.659104102186001"><ele>395.0</ele><time>2026-04-26T17:30:23Z</time></trkpt><trkpt lat="43.28908752763789" lon="12.65925323539071"><ele>395.0</ele><time>2026-04-26T17:30:24Z</time></trkpt><trkpt lat="43.28893605866809" lon="12.659396864146625"><ele>395.0</ele><time>2026-04-26T17:30:25Z</time></trkpt><trkpt lat="43.288783472224694" lon="12.659539894871978"><ele>395.0</ele><time>2026-04-26T17:30:26Z</time></trkpt><trkpt lat="43.28863381592538" lon="12.659683356644118"><ele>393.66666666666663</ele><time>2026-04-26T17:30:27Z</time></trkpt><trkpt lat="43.288475380293235" lon="12.659824064160361"><ele>392.33333333333337</ele><time>2026-04-26T17:30:28Z</time></trkpt><trkpt lat="43.288319816037856" lon="12.65996669020126"><ele>391.0</ele><time>2026-04-26T17:30:29Z</time></trkpt><trkpt lat="43.28815815072292" lon="12.660105715721496"><ele>391.0</ele><time>2026-04-26T17:30:30Z</time></trkpt><trkpt lat="43.28799320774454" lon="12.660245433879789"><ele>391.0</ele><time>2026-04-26T17:30:31Z</time></trkpt><trkpt lat="43.287825686648986" lon="12.66037968412851"><ele>391.0</ele><time>2026-04-26T17:30:32Z</time></trkpt><trkpt lat="43.28765641341329" lon="12.66050742871536"><ele>391.0</ele><time>2026-04-26T17:30:33Z</time></trkpt><trkpt lat="43.287485760536924" lon="12.66063274613255"><ele>391.0</ele><time>2026-04-26T17:30:34Z</time></trkpt><trkpt lat="43.287312816255294" lon="12.660761236361948"><ele>391.0</ele><time>2026-04-26T17:30:35Z</time></trkpt><trkpt lat="43.287138094146016" lon="12.660892982800547"><ele>390.6666666666667</ele><time>2026-04-26T17:30:36Z</time></trkpt><trkpt lat="43.28696357609285" lon="12.661020726881212"><ele>390.33333333333337</ele><time>2026-04-26T17:30:37Z</time></trkpt><trkpt lat="43.28678582147239" lon="12.661145351115637"><ele>390.0</ele><time>2026-04-26T17:30:38Z</time></trkpt><trkpt lat="43.2866078480593" lon="12.661268091681558"><ele>390.0</ele><time>2026-04-26T17:30:39Z</time></trkpt><trkpt lat="43.28642599721052" lon="12.661387348903514"><ele>390.0</ele><time>2026-04-26T17:30:40Z</time></trkpt><trkpt lat="43.28624246474845" lon="12.661505073392979"><ele>390.0</ele><time>2026-04-26T17:30:41Z</time></trkpt><trkpt lat="43.2860574890351" lon="12.6616221581762"><ele>390.0</ele><time>2026-04-26T17:30:42Z</time></trkpt><trkpt lat="43.28586822190591" lon="12.661734679969058"><ele>390.0</ele><time>2026-04-26T17:30:43Z</time></trkpt><trkpt lat="43.28567939157442" lon="12.661845859715552"><ele>390.0</ele><time>2026-04-26T17:30:44Z</time></trkpt><trkpt lat="43.28548622031391" lon="12.661955768484376"><ele>389.33333333333337</ele><time>2026-04-26T17:30:45Z</time></trkpt><trkpt lat="43.28529206845902" lon="12.662067208002298"><ele>388.6666666666667</ele><time>2026-04-26T17:30:46Z</time></trkpt><trkpt lat="43.28509898729873" lon="12.662176634355356"><ele>388.0</ele><time>2026-04-26T17:30:47Z</time></trkpt><trkpt lat="43.28490537315178" lon="12.662283886728114"><ele>388.0</ele><time>2026-04-26T17:30:48Z</time></trkpt><trkpt lat="43.28470905988327" lon="12.662402168435237"><ele>388.0</ele><time>2026-04-26T17:30:49Z</time></trkpt><trkpt lat="43.284513643023615" lon="12.662516635498193"><ele>388.0</ele><time>2026-04-26T17:30:50Z</time></trkpt><trkpt lat="43.28431536022683" lon="12.66263000018781"><ele>388.0</ele><time>2026-04-26T17:30:51Z</time></trkpt><trkpt lat="43.28411461921322" lon="12.662745514703694"><ele>388.0</ele><time>2026-04-26T17:30:52Z</time></trkpt><trkpt lat="43.283913253519685" lon="12.662857950665272"><ele>388.0</ele><time>2026-04-26T17:30:53Z</time></trkpt><trkpt lat="43.28371166086139" lon="12.662974115724497"><ele>387.0</ele><time>2026-04-26T17:30:54Z</time></trkpt><trkpt lat="43.2835089806636" lon="12.663090206105354"><ele>386.0</ele><time>2026-04-26T17:30:55Z</time></trkpt><trkpt lat="43.283304362127254" lon="12.663205164950869"><ele>385.0</ele><time>2026-04-26T17:30:56Z</time></trkpt><trkpt lat="43.283102767124156" lon="12.663324084330037"><ele>384.6666666666667</ele><time>2026-04-26T17:30:57Z</time></trkpt><trkpt lat="43.28289834360155" lon="12.663437745450178"><ele>384.33333333333337</ele><time>2026-04-26T17:30:58Z</time></trkpt><trkpt lat="43.28269575971241" lon="12.663557533225458"><ele>384.0</ele><time>2026-04-26T17:30:59Z</time></trkpt><trkpt lat="43.282494581154445" lon="12.663680647700163"><ele>384.0</ele><time>2026-04-26T17:31:00Z</time></trkpt><trkpt lat="43.28229214274263" lon="12.66380031290348"><ele>384.0</ele><time>2026-04-26T17:31:01Z</time></trkpt><trkpt lat="43.28209051174535" lon="12.663921587847055"><ele>384.0</ele><time>2026-04-26T17:31:02Z</time></trkpt><trkpt lat="43.28188836610736" lon="12.664040906890321"><ele>383.3333333333333</ele><time>2026-04-26T17:31:03Z</time></trkpt><trkpt lat="43.281685184972496" lon="12.664158785626336"><ele>382.66666666666663</ele><time>2026-04-26T17:31:04Z</time></trkpt><trkpt lat="43.28148418979559" lon="12.664277179494594"><ele>382.0</ele><time>2026-04-26T17:31:05Z</time></trkpt><trkpt lat="43.28128009199442" lon="12.664388245004426"><ele>381.66666666666663</ele><time>2026-04-26T17:31:06Z</time></trkpt><trkpt lat="43.281076476044916" lon="12.664501572741349"><ele>381.3333333333333</ele><time>2026-04-26T17:31:07Z</time></trkpt><trkpt lat="43.28087272511652" lon="12.66461659261819"><ele>381.0</ele><time>2026-04-26T17:31:08Z</time></trkpt><trkpt lat="43.28067074084019" lon="12.664741066337331"><ele>380.6666666666667</ele><time>2026-04-26T17:31:09Z</time></trkpt><trkpt lat="43.28046973832849" lon="12.66486196387583"><ele>380.33333333333337</ele><time>2026-04-26T17:31:10Z</time></trkpt><trkpt lat="43.28026664702268" lon="12.664981764753986"><ele>380.0</ele><time>2026-04-26T17:31:11Z</time></trkpt><trkpt lat="43.280066446106616" lon="12.665101878552134"><ele>380.0</ele><time>2026-04-26T17:31:12Z</time></trkpt><trkpt lat="43.27986345445049" lon="12.665220825405937"><ele>380.0</ele><time>2026-04-26T17:31:13Z</time></trkpt><trkpt lat="43.279658320254896" lon="12.665338722316656"><ele>380.0</ele><time>2026-04-26T17:31:14Z</time></trkpt><trkpt lat="43.27945066558418" lon="12.665454329156471"><ele>378.33333333333337</ele><time>2026-04-26T17:31:15Z</time></trkpt><trkpt lat="43.279243533324305" lon="12.665571839657657"><ele>376.6666666666667</ele><time>2026-04-26T17:31:16Z</time></trkpt><trkpt lat="43.279038490208244" lon="12.665684234167788"><ele>375.0</ele><time>2026-04-26T17:31:17Z</time></trkpt><trkpt lat="43.27883728039843" lon="12.665803420750636"><ele>374.6666666666667</ele><time>2026-04-26T17:31:18Z</time></trkpt><trkpt lat="43.27863543596093" lon="12.665924644974938"><ele>374.33333333333337</ele><time>2026-04-26T17:31:19Z</time></trkpt><trkpt lat="43.27843181930153" lon="12.666044044855798"><ele>374.0</ele><time>2026-04-26T17:31:20Z</time></trkpt><trkpt lat="43.2782266750145" lon="12.666166507022167"><ele>373.0</ele><time>2026-04-26T17:31:21Z</time></trkpt><trkpt lat="43.278021192756135" lon="12.666284126126039"><ele>372.0</ele><time>2026-04-26T17:31:22Z</time></trkpt><trkpt lat="43.277813397468" lon="12.666391220302609"><ele>371.0</ele><time>2026-04-26T17:31:23Z</time></trkpt><trkpt lat="43.27760660747181" lon="12.666502731207407"><ele>371.0</ele><time>2026-04-26T17:31:24Z</time></trkpt><trkpt lat="43.27740426969753" lon="12.666609396151172"><ele>371.0</ele><time>2026-04-26T17:31:25Z</time></trkpt><trkpt lat="43.27719717100677" lon="12.666723460483768"><ele>371.0</ele><time>2026-04-26T17:31:26Z</time></trkpt><trkpt lat="43.27699229028882" lon="12.66683127238489"><ele>371.0</ele><time>2026-04-26T17:31:27Z</time></trkpt><trkpt lat="43.276785859152625" lon="12.666937987722788"><ele>371.0</ele><time>2026-04-26T17:31:28Z</time></trkpt><trkpt lat="43.27657680641673" lon="12.667044082605017"><ele>371.0</ele><time>2026-04-26T17:31:29Z</time></trkpt><trkpt lat="43.27637333217824" lon="12.667150169549274"><ele>370.33333333333337</ele><time>2026-04-26T17:31:30Z</time></trkpt><trkpt lat="43.276163109385166" lon="12.667250118585866"><ele>369.6666666666667</ele><time>2026-04-26T17:31:31Z</time></trkpt><trkpt lat="43.275956228086166" lon="12.667356715470286"><ele>369.0</ele><time>2026-04-26T17:31:32Z</time></trkpt><trkpt lat="43.27575199350376" lon="12.667466189788133"><ele>368.0</ele><time>2026-04-26T17:31:33Z</time></trkpt><trkpt lat="43.275544860577305" lon="12.667575798275571"><ele>367.0</ele><time>2026-04-26T17:31:34Z</time></trkpt><trkpt lat="43.275334841261994" lon="12.667679465271283"><ele>366.0</ele><time>2026-04-26T17:31:35Z</time></trkpt><trkpt lat="43.27512913048085" lon="12.667783905613176"><ele>366.0</ele><time>2026-04-26T17:31:36Z</time></trkpt><trkpt lat="43.27492389429128" lon="12.667889796294554"><ele>366.0</ele><time>2026-04-26T17:31:37Z</time></trkpt><trkpt lat="43.274722866307606" lon="12.667999158785587"><ele>366.0</ele><time>2026-04-26T17:31:38Z</time></trkpt><trkpt lat="43.27451926779911" lon="12.66810654168894"><ele>365.0</ele><time>2026-04-26T17:31:39Z</time></trkpt><trkpt lat="43.27431364593383" lon="12.668210611409249"><ele>364.0</ele><time>2026-04-26T17:31:40Z</time></trkpt><trkpt lat="43.27410973626206" lon="12.668316358570001"><ele>363.0</ele><time>2026-04-26T17:31:41Z</time></trkpt><trkpt lat="43.27390674987454" lon="12.66842464259188"><ele>362.6666666666667</ele><time>2026-04-26T17:31:42Z</time></trkpt><trkpt lat="43.27370362440749" lon="12.668525828808622"><ele>362.33333333333337</ele><time>2026-04-26T17:31:43Z</time></trkpt><trkpt lat="43.27350184853935" lon="12.668631517119085"><ele>362.0</ele><time>2026-04-26T17:31:44Z</time></trkpt><trkpt lat="43.27329877700185" lon="12.668735046003746"><ele>361.6666666666667</ele><time>2026-04-26T17:31:45Z</time></trkpt><trkpt lat="43.273099869428506" lon="12.668842903778188"><ele>361.3333333333333</ele><time>2026-04-26T17:31:46Z</time></trkpt><trkpt lat="43.27289884663355" lon="12.668946428963082"><ele>361.0</ele><time>2026-04-26T17:31:47Z</time></trkpt><trkpt lat="43.272694908390044" lon="12.669050818175636"><ele>361.0</ele><time>2026-04-26T17:31:48Z</time></trkpt><trkpt lat="43.27249432009748" lon="12.669152218782022"><ele>361.0</ele><time>2026-04-26T17:31:49Z</time></trkpt><trkpt lat="43.27229357950315" lon="12.669264646509326"><ele>361.0</ele><time>2026-04-26T17:31:50Z</time></trkpt><trkpt lat="43.272093601616895" lon="12.669381120595974"><ele>361.0</ele><time>2026-04-26T17:31:51Z</time></trkpt><trkpt lat="43.27189283395067" lon="12.669495350661597"><ele>361.0</ele><time>2026-04-26T17:31:52Z</time></trkpt><trkpt lat="43.271694784137466" lon="12.669614971565139"><ele>361.0</ele><time>2026-04-26T17:31:53Z</time></trkpt><trkpt lat="43.27149631186903" lon="12.669738109960536"><ele>360.3333333333333</ele><time>2026-04-26T17:31:54Z</time></trkpt><trkpt lat="43.271297567425016" lon="12.66986228311316"><ele>359.6666666666667</ele><time>2026-04-26T17:31:55Z</time></trkpt><trkpt lat="43.27110323125769" lon="12.669996292308607"><ele>359.0</ele><time>2026-04-26T17:31:56Z</time></trkpt><trkpt lat="43.27091044151651" lon="12.670135002574359"><ele>359.0</ele><time>2026-04-26T17:31:57Z</time></trkpt><trkpt lat="43.27071673839224" lon="12.670270560773869"><ele>359.0</ele><time>2026-04-26T17:31:58Z</time></trkpt><trkpt lat="43.27051901123315" lon="12.670405699705606"><ele>359.0</ele><time>2026-04-26T17:31:59Z</time></trkpt><trkpt lat="43.27032918989832" lon="12.670546409221249"><ele>358.33333333333337</ele><time>2026-04-26T17:32:00Z</time></trkpt><trkpt lat="43.27014056851967" lon="12.670692080296549"><ele>357.6666666666667</ele><time>2026-04-26T17:32:01Z</time></trkpt><trkpt lat="43.26995399462363" lon="12.670843876317605"><ele>357.0</ele><time>2026-04-26T17:32:02Z</time></trkpt><trkpt lat="43.26976736434192" lon="12.670996380123723"><ele>357.0</ele><time>2026-04-26T17:32:03Z</time></trkpt><trkpt lat="43.26958348476366" lon="12.671152181615605"><ele>357.0</ele><time>2026-04-26T17:32:04Z</time></trkpt><trkpt lat="43.26939843017382" lon="12.671312024662093"><ele>357.0</ele><time>2026-04-26T17:32:05Z</time></trkpt><trkpt lat="43.26921497716714" lon="12.671474441689861"><ele>357.0</ele><time>2026-04-26T17:32:06Z</time></trkpt><trkpt lat="43.26903355009431" lon="12.671637116002383"><ele>357.0</ele><time>2026-04-26T17:32:07Z</time></trkpt><trkpt lat="43.268853426054704" lon="12.671803736265165"><ele>357.0</ele><time>2026-04-26T17:32:08Z</time></trkpt><trkpt lat="43.26867849429073" lon="12.671972815662912"><ele>356.6666666666667</ele><time>2026-04-26T17:32:09Z</time></trkpt><trkpt lat="43.26850489179748" lon="12.67214274932786"><ele>356.33333333333337</ele><time>2026-04-26T17:32:10Z</time></trkpt><trkpt lat="43.26833499911217" lon="12.67231735922083"><ele>356.0</ele><time>2026-04-26T17:32:11Z</time></trkpt><trkpt lat="43.26816819055867" lon="12.672490739813465"><ele>355.6666666666667</ele><time>2026-04-26T17:32:12Z</time></trkpt><trkpt lat="43.26800164206467" lon="12.672664320389593"><ele>355.3333333333333</ele><time>2026-04-26T17:32:13Z</time></trkpt><trkpt lat="43.26783630040863" lon="12.672837542929456"><ele>355.0</ele><time>2026-04-26T17:32:14Z</time></trkpt><trkpt lat="43.267672773642715" lon="12.673012447867766"><ele>355.0</ele><time>2026-04-26T17:32:15Z</time></trkpt><trkpt lat="43.2675076676283" lon="12.673186193115367"><ele>355.0</ele><time>2026-04-26T17:32:16Z</time></trkpt><trkpt lat="43.2673415608142" lon="12.67335925747686"><ele>355.0</ele><time>2026-04-26T17:32:17Z</time></trkpt><trkpt lat="43.26717799960543" lon="12.673538016015181"><ele>354.3333333333333</ele><time>2026-04-26T17:32:18Z</time></trkpt><trkpt lat="43.267012890092616" lon="12.673714952163385"><ele>353.6666666666667</ele><time>2026-04-26T17:32:19Z</time></trkpt><trkpt lat="43.266849505148" lon="12.673894834673778"><ele>353.0</ele><time>2026-04-26T17:32:20Z</time></trkpt><trkpt lat="43.26668420907543" lon="12.674076874536217"><ele>353.0</ele><time>2026-04-26T17:32:21Z</time></trkpt><trkpt lat="43.266518446140225" lon="12.67425832392841"><ele>353.0</ele><time>2026-04-26T17:32:22Z</time></trkpt><trkpt lat="43.26635754656083" lon="12.674437018816054"><ele>353.0</ele><time>2026-04-26T17:32:23Z</time></trkpt><trkpt lat="43.266196120471044" lon="12.674613794456057"><ele>352.6666666666667</ele><time>2026-04-26T17:32:24Z</time></trkpt><trkpt lat="43.266029230492826" lon="12.67479176009195"><ele>352.3333333333333</ele><time>2026-04-26T17:32:25Z</time></trkpt><trkpt lat="43.26585390151278" lon="12.674959833261509"><ele>352.0</ele><time>2026-04-26T17:32:26Z</time></trkpt><trkpt lat="43.2656887778093" lon="12.675149350112147"><ele>352.0</ele><time>2026-04-26T17:32:27Z</time></trkpt><trkpt lat="43.26552615299809" lon="12.67533906474931"><ele>352.0</ele><time>2026-04-26T17:32:28Z</time></trkpt><trkpt lat="43.26536411720063" lon="12.675521610877322"><ele>352.0</ele><time>2026-04-26T17:32:29Z</time></trkpt><trkpt lat="43.265196694342684" lon="12.675704575699301"><ele>352.0</ele><time>2026-04-26T17:32:30Z</time></trkpt><trkpt lat="43.265032793246725" lon="12.675882696733684"><ele>352.0</ele><time>2026-04-26T17:32:31Z</time></trkpt><trkpt lat="43.26486301224678" lon="12.676061107854167"><ele>352.0</ele><time>2026-04-26T17:32:32Z</time></trkpt><trkpt lat="43.26470101636935" lon="12.676241443493447"><ele>352.66666666666663</ele><time>2026-04-26T17:32:33Z</time></trkpt><trkpt lat="43.26454062446601" lon="12.67641629988417"><ele>353.3333333333333</ele><time>2026-04-26T17:32:34Z</time></trkpt><trkpt lat="43.2643917934361" lon="12.676587901582849"><ele>354.0</ele><time>2026-04-26T17:32:35Z</time></trkpt><trkpt lat="43.26424425716185" lon="12.676747532711763"><ele>354.0</ele><time>2026-04-26T17:32:36Z</time></trkpt><trkpt lat="43.26410038971796" lon="12.676904271648127"><ele>354.0</ele><time>2026-04-26T17:32:37Z</time></trkpt><trkpt lat="43.26394972944353" lon="12.67706158638017"><ele>354.0</ele><time>2026-04-26T17:32:38Z</time></trkpt><trkpt lat="43.26380629786268" lon="12.677222317541634"><ele>352.3333333333333</ele><time>2026-04-26T17:32:39Z</time></trkpt><trkpt lat="43.26366174266586" lon="12.677386387052621"><ele>350.66666666666663</ele><time>2026-04-26T17:32:40Z</time></trkpt><trkpt lat="43.26351633321594" lon="12.677548649489934"><ele>349.0</ele><time>2026-04-26T17:32:41Z</time></trkpt><trkpt lat="43.26336600669567" lon="12.677711484985544"><ele>348.66666666666663</ele><time>2026-04-26T17:32:42Z</time></trkpt><trkpt lat="43.26321939884127" lon="12.677876630440926"><ele>348.3333333333333</ele><time>2026-04-26T17:32:43Z</time></trkpt><trkpt lat="43.26307057650533" lon="12.678041334736191"><ele>348.0</ele><time>2026-04-26T17:32:44Z</time></trkpt><trkpt lat="43.262914926447735" lon="12.678198512179854"><ele>348.0</ele><time>2026-04-26T17:32:45Z</time></trkpt><trkpt lat="43.26276284611107" lon="12.678364235995616"><ele>348.0</ele><time>2026-04-26T17:32:46Z</time></trkpt><trkpt lat="43.262614430885776" lon="12.678526251766938"><ele>348.0</ele><time>2026-04-26T17:32:47Z</time></trkpt><trkpt lat="43.26246580747086" lon="12.678689011539445"><ele>348.3333333333333</ele><time>2026-04-26T17:32:48Z</time></trkpt><trkpt lat="43.262315020310034" lon="12.67885329390934"><ele>348.66666666666663</ele><time>2026-04-26T17:32:49Z</time></trkpt><trkpt lat="43.26216665656511" lon="12.679016929264508"><ele>349.0</ele><time>2026-04-26T17:32:50Z</time></trkpt><trkpt lat="43.26201234171928" lon="12.679179505391083"><ele>349.0</ele><time>2026-04-26T17:32:51Z</time></trkpt><trkpt lat="43.26186813942317" lon="12.679340965603288"><ele>349.0</ele><time>2026-04-26T17:32:52Z</time></trkpt><trkpt lat="43.2617222663754" lon="12.679501278230598"><ele>349.0</ele><time>2026-04-26T17:32:53Z</time></trkpt><trkpt lat="43.261580168314545" lon="12.679656877102403"><ele>348.66666666666663</ele><time>2026-04-26T17:32:54Z</time></trkpt><trkpt lat="43.261441982872924" lon="12.679802986630916"><ele>348.3333333333333</ele><time>2026-04-26T17:32:55Z</time></trkpt><trkpt lat="43.26131143553114" lon="12.679941136846967"><ele>348.0</ele><time>2026-04-26T17:32:56Z</time></trkpt><trkpt lat="43.26117804536883" lon="12.680070281949316"><ele>348.0</ele><time>2026-04-26T17:32:57Z</time></trkpt><trkpt lat="43.261049049458464" lon="12.680195944482962"><ele>348.0</ele><time>2026-04-26T17:32:58Z</time></trkpt><trkpt lat="43.260930075965454" lon="12.680323731146244"><ele>348.0</ele><time>2026-04-26T17:32:59Z</time></trkpt><trkpt lat="43.26081033212199" lon="12.680451676795283"><ele>348.25</ele><time>2026-04-26T17:33:00Z</time></trkpt><trkpt lat="43.26069759328165" lon="12.680580471990044"><ele>348.5</ele><time>2026-04-26T17:33:01Z</time></trkpt><trkpt lat="43.26058349928788" lon="12.680704562965255"><ele>348.75</ele><time>2026-04-26T17:33:02Z</time></trkpt><trkpt lat="43.26047259702838" lon="12.680831729808357"><ele>349.0</ele><time>2026-04-26T17:33:03Z</time></trkpt><trkpt lat="43.26036104059237" lon="12.680956492432708"><ele>349.0</ele><time>2026-04-26T17:33:04Z</time></trkpt><trkpt lat="43.260252719112906" lon="12.681080630794044"><ele>349.0</ele><time>2026-04-26T17:33:05Z</time></trkpt><trkpt lat="43.26014098229085" lon="12.68120224002158"><ele>349.0</ele><time>2026-04-26T17:33:06Z</time></trkpt><trkpt lat="43.26003282360693" lon="12.681322944447327"><ele>349.0</ele><time>2026-04-26T17:33:07Z</time></trkpt><trkpt lat="43.25992761191549" lon="12.681435237972936"><ele>349.5</ele><time>2026-04-26T17:33:08Z</time></trkpt><trkpt lat="43.259816422652435" lon="12.681523285727671"><ele>350.0</ele><time>2026-04-26T17:33:09Z</time></trkpt><trkpt lat="43.259701990868884" lon="12.681587391630002"><ele>350.5</ele><time>2026-04-26T17:33:10Z</time></trkpt><trkpt lat="43.25958049465499" lon="12.681626724180985"><ele>351.0</ele><time>2026-04-26T17:33:11Z</time></trkpt><trkpt lat="43.259457228483065" lon="12.681648156474035"><ele>351.25</ele><time>2026-04-26T17:33:12Z</time></trkpt><trkpt lat="43.259330224151654" lon="12.681636491832315"><ele>351.5</ele><time>2026-04-26T17:33:13Z</time></trkpt><trkpt lat="43.25920002237705" lon="12.681596615536362"><ele>351.75</ele><time>2026-04-26T17:33:14Z</time></trkpt><trkpt lat="43.25907042933782" lon="12.68152938047813"><ele>352.0</ele><time>2026-04-26T17:33:15Z</time></trkpt><trkpt lat="43.258946112673875" lon="12.681429922923646"><ele>353.66666666666663</ele><time>2026-04-26T17:33:16Z</time></trkpt><trkpt lat="43.25885998769357" lon="12.68127409839264"><ele>355.3333333333333</ele><time>2026-04-26T17:33:17Z</time></trkpt><trkpt lat="43.258736029443064" lon="12.681122922831454"><ele>357.0</ele><time>2026-04-26T17:33:18Z</time></trkpt><trkpt lat="43.25866024795805" lon="12.68092956143134"><ele>357.0</ele><time>2026-04-26T17:33:19Z</time></trkpt><trkpt lat="43.25858217121368" lon="12.680722319061058"><ele>357.0</ele><time>2026-04-26T17:33:20Z</time></trkpt><trkpt lat="43.25850658713068" lon="12.680513841456925"><ele>357.0</ele><time>2026-04-26T17:33:21Z</time></trkpt><trkpt lat="43.258424561002805" lon="12.680301165797262"><ele>357.0</ele><time>2026-04-26T17:33:22Z</time></trkpt><trkpt lat="43.25833205570316" lon="12.680091554445696"><ele>357.0</ele><time>2026-04-26T17:33:23Z</time></trkpt><trkpt lat="43.258239074936036" lon="12.679871422456692"><ele>357.0</ele><time>2026-04-26T17:33:24Z</time></trkpt><trkpt lat="43.258138531088605" lon="12.679635084083124"><ele>357.6666666666667</ele><time>2026-04-26T17:33:25Z</time></trkpt><trkpt lat="43.25803781240523" lon="12.679396671616638"><ele>358.33333333333337</ele><time>2026-04-26T17:33:26Z</time></trkpt><trkpt lat="43.25793987712745" lon="12.679153036590092"><ele>359.0</ele><time>2026-04-26T17:33:27Z</time></trkpt><trkpt lat="43.257843534830755" lon="12.678911744212842"><ele>359.0</ele><time>2026-04-26T17:33:28Z</time></trkpt><trkpt lat="43.257750463240626" lon="12.678666203848687"><ele>359.0</ele><time>2026-04-26T17:33:29Z</time></trkpt><trkpt lat="43.2576571245517" lon="12.678418050354445"><ele>359.0</ele><time>2026-04-26T17:33:30Z</time></trkpt><trkpt lat="43.25756306102164" lon="12.678169392541601"><ele>357.6666666666667</ele><time>2026-04-26T17:33:31Z</time></trkpt><trkpt lat="43.25746973961337" lon="12.677921144265499"><ele>356.3333333333333</ele><time>2026-04-26T17:33:32Z</time></trkpt><trkpt lat="43.25737705767654" lon="12.677670182836694"><ele>355.0</ele><time>2026-04-26T17:33:33Z</time></trkpt><trkpt lat="43.25728355131575" lon="12.677416871941512"><ele>355.3333333333333</ele><time>2026-04-26T17:33:34Z</time></trkpt><trkpt lat="43.2571896086947" lon="12.677164386111972"><ele>355.6666666666667</ele><time>2026-04-26T17:33:35Z</time></trkpt><trkpt lat="43.25709414882721" lon="12.67691195015563"><ele>356.0</ele><time>2026-04-26T17:33:36Z</time></trkpt><trkpt lat="43.25699808742957" lon="12.676657715643783"><ele>356.0</ele><time>2026-04-26T17:33:37Z</time></trkpt><trkpt lat="43.25689668075194" lon="12.676405667009158"><ele>356.0</ele><time>2026-04-26T17:33:38Z</time></trkpt><trkpt lat="43.25678780654878" lon="12.67615713692054"><ele>356.0</ele><time>2026-04-26T17:33:39Z</time></trkpt><trkpt lat="43.25667377341282" lon="12.675908652628262"><ele>355.6666666666667</ele><time>2026-04-26T17:33:40Z</time></trkpt><trkpt lat="43.25655259098157" lon="12.675663919601229"><ele>355.3333333333333</ele><time>2026-04-26T17:33:41Z</time></trkpt><trkpt lat="43.25642621724224" lon="12.675420827689166"><ele>355.0</ele><time>2026-04-26T17:33:42Z</time></trkpt><trkpt lat="43.25629901606487" lon="12.675184704493365"><ele>354.66666666666663</ele><time>2026-04-26T17:33:43Z</time></trkpt><trkpt lat="43.25616624844111" lon="12.674942766119331"><ele>354.3333333333333</ele><time>2026-04-26T17:33:44Z</time></trkpt><trkpt lat="43.25603110499167" lon="12.674695827405065"><ele>354.0</ele><time>2026-04-26T17:33:45Z</time></trkpt><trkpt lat="43.25588685342557" lon="12.674462201374679"><ele>354.0</ele><time>2026-04-26T17:33:46Z</time></trkpt><trkpt lat="43.25573846574813" lon="12.674227826919127"><ele>354.0</ele><time>2026-04-26T17:33:47Z</time></trkpt><trkpt lat="43.255582612309055" lon="12.6739986041773"><ele>353.5</ele><time>2026-04-26T17:33:48Z</time></trkpt><trkpt lat="43.25542255845306" lon="12.6737760136875"><ele>353.0</ele><time>2026-04-26T17:33:49Z</time></trkpt><trkpt lat="43.25526052491445" lon="12.673546795200911"><ele>351.5</ele><time>2026-04-26T17:33:50Z</time></trkpt><trkpt lat="43.25509239890504" lon="12.673325150647022"><ele>350.0</ele><time>2026-04-26T17:33:51Z</time></trkpt><trkpt lat="43.25492049125374" lon="12.673109381314493"><ele>350.0</ele><time>2026-04-26T17:33:52Z</time></trkpt><trkpt lat="43.25474335828034" lon="12.672896783933467"><ele>350.0</ele><time>2026-04-26T17:33:53Z</time></trkpt><trkpt lat="43.254560557896085" lon="12.67269187504252"><ele>350.0</ele><time>2026-04-26T17:33:54Z</time></trkpt><trkpt lat="43.25437957889317" lon="12.672496442756987"><ele>350.0</ele><time>2026-04-26T17:33:55Z</time></trkpt><trkpt lat="43.254199660482456" lon="12.672291371391934"><ele>350.0</ele><time>2026-04-26T17:33:56Z</time></trkpt><trkpt lat="43.25400971063901" lon="12.672112914238161"><ele>350.0</ele><time>2026-04-26T17:33:57Z</time></trkpt><trkpt lat="43.25383678241321" lon="12.671907593498181"><ele>352.0</ele><time>2026-04-26T17:33:58Z</time></trkpt><trkpt lat="43.253626979140876" lon="12.671748780936868"><ele>354.0</ele><time>2026-04-26T17:33:59Z</time></trkpt><trkpt lat="43.2534234002453" lon="12.671600339864078"><ele>354.0</ele><time>2026-04-26T17:34:00Z</time></trkpt><trkpt lat="43.25322262447569" lon="12.671443827652402"><ele>354.0</ele><time>2026-04-26T17:34:01Z</time></trkpt><trkpt lat="43.25302397161746" lon="12.671297639700898"><ele>355.0</ele><time>2026-04-26T17:34:02Z</time></trkpt><trkpt lat="43.25282076860673" lon="12.671134077940957"><ele>356.0</ele><time>2026-04-26T17:34:03Z</time></trkpt><trkpt lat="43.252618039935975" lon="12.67098137513703"><ele>356.0</ele><time>2026-04-26T17:34:04Z</time></trkpt><trkpt lat="43.252415260247034" lon="12.67083252186654"><ele>356.0</ele><time>2026-04-26T17:34:05Z</time></trkpt><trkpt lat="43.25221661190607" lon="12.670670438168878"><ele>360.5</ele><time>2026-04-26T17:34:06Z</time></trkpt><trkpt lat="43.252016498083215" lon="12.670509534777567"><ele>365.0</ele><time>2026-04-26T17:34:07Z</time></trkpt><trkpt lat="43.25181923475745" lon="12.670345421410408"><ele>367.0</ele><time>2026-04-26T17:34:08Z</time></trkpt><trkpt lat="43.2516203508408" lon="12.670182984673259"><ele>369.0</ele><time>2026-04-26T17:34:09Z</time></trkpt><trkpt lat="43.25142079083556" lon="12.670024376594768"><ele>369.0</ele><time>2026-04-26T17:34:10Z</time></trkpt><trkpt lat="43.25122891939496" lon="12.669846745903332"><ele>369.0</ele><time>2026-04-26T17:34:11Z</time></trkpt><trkpt lat="43.251027547158074" lon="12.669689829542428"><ele>369.0</ele><time>2026-04-26T17:34:12Z</time></trkpt><trkpt lat="43.250830158103426" lon="12.669518371988195"><ele>369.0</ele><time>2026-04-26T17:34:13Z</time></trkpt><trkpt lat="43.25063922148148" lon="12.669356297658316"><ele>368.5</ele><time>2026-04-26T17:34:14Z</time></trkpt><trkpt lat="43.25042734829731" lon="12.669213342136795"><ele>368.0</ele><time>2026-04-26T17:34:15Z</time></trkpt><trkpt lat="43.25022530601221" lon="12.669043877269468"><ele>368.0</ele><time>2026-04-26T17:34:16Z</time></trkpt><trkpt lat="43.25002173533221" lon="12.668890499235435"><ele>368.0</ele><time>2026-04-26T17:34:17Z</time></trkpt><trkpt lat="43.249819221568956" lon="12.668728626838124"><ele>367.5</ele><time>2026-04-26T17:34:18Z</time></trkpt><trkpt lat="43.24961336370469" lon="12.668571523602997"><ele>367.0</ele><time>2026-04-26T17:34:19Z</time></trkpt><trkpt lat="43.24940724587001" lon="12.668405364644064"><ele>367.0</ele><time>2026-04-26T17:34:20Z</time></trkpt><trkpt lat="43.249199978155836" lon="12.668242133556962"><ele>367.0</ele><time>2026-04-26T17:34:21Z</time></trkpt><trkpt lat="43.24899220127138" lon="12.668077086176435"><ele>368.0</ele><time>2026-04-26T17:34:22Z</time></trkpt><trkpt lat="43.24878509550404" lon="12.667914046359412"><ele>369.0</ele><time>2026-04-26T17:34:23Z</time></trkpt><trkpt lat="43.24857776911005" lon="12.667744740780432"><ele>369.0</ele><time>2026-04-26T17:34:24Z</time></trkpt><trkpt lat="43.24836837944795" lon="12.667580456064748"><ele>369.0</ele><time>2026-04-26T17:34:25Z</time></trkpt><trkpt lat="43.24815872846259" lon="12.667411048195412"><ele>368.0</ele><time>2026-04-26T17:34:26Z</time></trkpt><trkpt lat="43.247950150332905" lon="12.667241242793358"><ele>367.0</ele><time>2026-04-26T17:34:27Z</time></trkpt><trkpt lat="43.24773917766112" lon="12.667068956472354"><ele>366.5</ele><time>2026-04-26T17:34:28Z</time></trkpt><trkpt lat="43.24752843005904" lon="12.66689757324389"><ele>366.0</ele><time>2026-04-26T17:34:29Z</time></trkpt><trkpt lat="43.24731666086167" lon="12.666726894507764"><ele>361.0</ele><time>2026-04-26T17:34:30Z</time></trkpt><trkpt lat="43.24710333546248" lon="12.66656069374494"><ele>356.0</ele><time>2026-04-26T17:34:31Z</time></trkpt><trkpt lat="43.24688985595068" lon="12.666392360473596"><ele>356.0</ele><time>2026-04-26T17:34:32Z</time></trkpt><trkpt lat="43.24668087097733" lon="12.666240356010853"><ele>356.0</ele><time>2026-04-26T17:34:33Z</time></trkpt><trkpt lat="43.24646964187962" lon="12.666080662109273"><ele>353.0</ele><time>2026-04-26T17:34:34Z</time></trkpt><trkpt lat="43.2462529132631" lon="12.66589995960332"><ele>350.0</ele><time>2026-04-26T17:34:35Z</time></trkpt><trkpt lat="43.246036096476665" lon="12.665728907114504"><ele>350.0</ele><time>2026-04-26T17:34:36Z</time></trkpt><trkpt lat="43.245821657809074" lon="12.665557471406489"><ele>350.0</ele><time>2026-04-26T17:34:37Z</time></trkpt><trkpt lat="43.245606747343345" lon="12.665381981570565"><ele>352.0</ele><time>2026-04-26T17:34:38Z</time></trkpt><trkpt lat="43.245390224341655" lon="12.665205109545852"><ele>354.0</ele><time>2026-04-26T17:34:39Z</time></trkpt><trkpt lat="43.245173793239715" lon="12.66502796281273"><ele>354.0</ele><time>2026-04-26T17:34:40Z</time></trkpt><trkpt lat="43.24495944665471" lon="12.664850828420619"><ele>354.0</ele><time>2026-04-26T17:34:41Z</time></trkpt><trkpt lat="43.24474535466051" lon="12.664666621297453"><ele>352.0</ele><time>2026-04-26T17:34:42Z</time></trkpt><trkpt lat="43.24453169637764" lon="12.66448668129215"><ele>350.0</ele><time>2026-04-26T17:34:43Z</time></trkpt><trkpt lat="43.24431861019052" lon="12.66431029255659"><ele>350.0</ele><time>2026-04-26T17:34:44Z</time></trkpt><trkpt lat="43.244112175281764" lon="12.664118820625355"><ele>350.0</ele><time>2026-04-26T17:34:45Z</time></trkpt><trkpt lat="43.243910805749266" lon="12.663916360646489"><ele>350.0</ele><time>2026-04-26T17:34:46Z</time></trkpt><trkpt lat="43.2437308727991" lon="12.663680938486872"><ele>350.0</ele><time>2026-04-26T17:34:47Z</time></trkpt><trkpt lat="43.24356056498968" lon="12.663436561722706"><ele>350.0</ele><time>2026-04-26T17:34:48Z</time></trkpt><trkpt lat="43.24340011390737" lon="12.663184831746188"><ele>350.0</ele><time>2026-04-26T17:34:49Z</time></trkpt><trkpt lat="43.24324659165137" lon="12.662925792137337"><ele>352.5</ele><time>2026-04-26T17:34:50Z</time></trkpt><trkpt lat="43.243097543071734" lon="12.662656543420162"><ele>355.0</ele><time>2026-04-26T17:34:51Z</time></trkpt><trkpt lat="43.24295616549873" lon="12.662381929432133"><ele>355.0</ele><time>2026-04-26T17:34:52Z</time></trkpt><trkpt lat="43.242813634019285" lon="12.662109943904285"><ele>355.0</ele><time>2026-04-26T17:34:53Z</time></trkpt><trkpt lat="43.2426692931512" lon="12.661845316611213"><ele>351.5</ele><time>2026-04-26T17:34:54Z</time></trkpt><trkpt lat="43.24252549604699" lon="12.661572304176559"><ele>348.0</ele><time>2026-04-26T17:34:55Z</time></trkpt><trkpt lat="43.242380292073896" lon="12.661302245795579"><ele>347.5</ele><time>2026-04-26T17:34:56Z</time></trkpt><trkpt lat="43.24223454378578" lon="12.661033810033278"><ele>347.0</ele><time>2026-04-26T17:34:57Z</time></trkpt><trkpt lat="43.242086878485836" lon="12.660765170274214"><ele>347.0</ele><time>2026-04-26T17:34:58Z</time></trkpt><trkpt lat="43.24194101184256" lon="12.660493772627882"><ele>347.0</ele><time>2026-04-26T17:34:59Z</time></trkpt><trkpt lat="43.24179780326767" lon="12.660216137306664"><ele>344.0</ele><time>2026-04-26T17:35:00Z</time></trkpt><trkpt lat="43.241653028308576" lon="12.659941052618791"><ele>341.0</ele><time>2026-04-26T17:35:01Z</time></trkpt><trkpt lat="43.241507446865256" lon="12.659669886325918"><ele>340.5</ele><time>2026-04-26T17:35:02Z</time></trkpt><trkpt lat="43.24136063008456" lon="12.659396709112807"><ele>340.0</ele><time>2026-04-26T17:35:03Z</time></trkpt><trkpt lat="43.241217608690555" lon="12.659120580259302"><ele>340.0</ele><time>2026-04-26T17:35:04Z</time></trkpt><trkpt lat="43.24107784496086" lon="12.658834221448892"><ele>340.0</ele><time>2026-04-26T17:35:05Z</time></trkpt><trkpt lat="43.24093512396118" lon="12.658555073744708"><ele>340.5</ele><time>2026-04-26T17:35:06Z</time></trkpt><trkpt lat="43.24078032022869" lon="12.658286639413303"><ele>341.0</ele><time>2026-04-26T17:35:07Z</time></trkpt><trkpt lat="43.240625477297755" lon="12.658022532284873"><ele>338.5</ele><time>2026-04-26T17:35:08Z</time></trkpt><trkpt lat="43.24046268372359" lon="12.657779776092825"><ele>336.0</ele><time>2026-04-26T17:35:09Z</time></trkpt><trkpt lat="43.24028903302699" lon="12.657543008429146"><ele>336.0</ele><time>2026-04-26T17:35:10Z</time></trkpt><trkpt lat="43.24009982123339" lon="12.657346857006821"><ele>336.0</ele><time>2026-04-26T17:35:11Z</time></trkpt><trkpt lat="43.239900008524934" lon="12.657147294876745"><ele>335.5</ele><time>2026-04-26T17:35:12Z</time></trkpt><trkpt lat="43.2396910304001" lon="12.6569776466435"><ele>335.0</ele><time>2026-04-26T17:35:13Z</time></trkpt><trkpt lat="43.23947710183998" lon="12.656830634620054"><ele>335.0</ele><time>2026-04-26T17:35:14Z</time></trkpt><trkpt lat="43.239256835052444" lon="12.656707721305965"><ele>335.0</ele><time>2026-04-26T17:35:15Z</time></trkpt><trkpt lat="43.23903222055489" lon="12.656586922524077"><ele>336.5</ele><time>2026-04-26T17:35:16Z</time></trkpt><trkpt lat="43.23880990810387" lon="12.656478916746078"><ele>338.0</ele><time>2026-04-26T17:35:17Z</time></trkpt><trkpt lat="43.238586878351164" lon="12.65637469780516"><ele>338.0</ele><time>2026-04-26T17:35:18Z</time></trkpt><trkpt lat="43.23836403992773" lon="12.656270406570215"><ele>338.0</ele><time>2026-04-26T17:35:19Z</time></trkpt><trkpt lat="43.238140217518165" lon="12.656173164087926"><ele>337.0</ele><time>2026-04-26T17:35:20Z</time></trkpt><trkpt lat="43.237917072096174" lon="12.656088780537464"><ele>336.0</ele><time>2026-04-26T17:35:21Z</time></trkpt><trkpt lat="43.23769285287081" lon="12.655993576820757"><ele>336.0</ele><time>2026-04-26T17:35:22Z</time></trkpt><trkpt lat="43.237476715965634" lon="12.655892772807329"><ele>336.0</ele><time>2026-04-26T17:35:23Z</time></trkpt><trkpt lat="43.237259732334344" lon="12.655785110730093"><ele>336.5</ele><time>2026-04-26T17:35:24Z</time></trkpt><trkpt lat="43.237037787394755" lon="12.65567698228587"><ele>337.0</ele><time>2026-04-26T17:35:25Z</time></trkpt><trkpt lat="43.23682409704108" lon="12.65558197648402"><ele>337.0</ele><time>2026-04-26T17:35:26Z</time></trkpt><trkpt lat="43.23661735121094" lon="12.655482638165903"><ele>337.0</ele><time>2026-04-26T17:35:27Z</time></trkpt><trkpt lat="43.23639815192069" lon="12.655413487449874"><ele>337.0</ele><time>2026-04-26T17:35:28Z</time></trkpt><trkpt lat="43.23618000014171" lon="12.655369305614366"><ele>337.5</ele><time>2026-04-26T17:35:29Z</time></trkpt><trkpt lat="43.23595595630616" lon="12.655344168380866"><ele>338.0</ele><time>2026-04-26T17:35:30Z</time></trkpt><trkpt lat="43.235725837142994" lon="12.655333748249321"><ele>337.0</ele><time>2026-04-26T17:35:31Z</time></trkpt><trkpt lat="43.235498129371635" lon="12.655345256055165"><ele>336.0</ele><time>2026-04-26T17:35:32Z</time></trkpt><trkpt lat="43.2352689900621" lon="12.655387225052973"><ele>336.0</ele><time>2026-04-26T17:35:33Z</time></trkpt><trkpt lat="43.235042302562476" lon="12.655434305289663"><ele>336.0</ele><time>2026-04-26T17:35:34Z</time></trkpt><trkpt lat="43.23482179288972" lon="12.655501928548647"><ele>336.0</ele><time>2026-04-26T17:35:35Z</time></trkpt><trkpt lat="43.23460305220045" lon="12.655596922820417"><ele>336.0</ele><time>2026-04-26T17:35:36Z</time></trkpt><trkpt lat="43.234383030528704" lon="12.655695212728915"><ele>336.0</ele><time>2026-04-26T17:35:37Z</time></trkpt><trkpt lat="43.23417331357188" lon="12.655810038867525"><ele>336.0</ele><time>2026-04-26T17:35:38Z</time></trkpt><trkpt lat="43.2339670462759" lon="12.655939745337534"><ele>336.0</ele><time>2026-04-26T17:35:39Z</time></trkpt><trkpt lat="43.23376248372368" lon="12.656087154908176"><ele>336.0</ele><time>2026-04-26T17:35:40Z</time></trkpt><trkpt lat="43.233561528737695" lon="12.656242540073459"><ele>338.5</ele><time>2026-04-26T17:35:41Z</time></trkpt><trkpt lat="43.233357968603" lon="12.656396752533354"><ele>341.0</ele><time>2026-04-26T17:35:42Z</time></trkpt><trkpt lat="43.233156323246774" lon="12.656556004028161"><ele>341.0</ele><time>2026-04-26T17:35:43Z</time></trkpt><trkpt lat="43.23294650943135" lon="12.656711813357228"><ele>341.0</ele><time>2026-04-26T17:35:44Z</time></trkpt><trkpt lat="43.23274349415498" lon="12.656866330036099"><ele>344.0</ele><time>2026-04-26T17:35:45Z</time></trkpt><trkpt lat="43.23253954715386" lon="12.657025289315593"><ele>347.0</ele><time>2026-04-26T17:35:46Z</time></trkpt><trkpt lat="43.23233292565907" lon="12.657181912731723"><ele>345.5</ele><time>2026-04-26T17:35:47Z</time></trkpt><trkpt lat="43.23212519318243" lon="12.657336153404138"><ele>344.0</ele><time>2026-04-26T17:35:48Z</time></trkpt><trkpt lat="43.23192219745181" lon="12.657503424870184"><ele>344.0</ele><time>2026-04-26T17:35:49Z</time></trkpt><trkpt lat="43.23172305889994" lon="12.657665206332679"><ele>344.0</ele><time>2026-04-26T17:35:50Z</time></trkpt><trkpt lat="43.23152696905484" lon="12.6578290069099"><ele>343.0</ele><time>2026-04-26T17:35:51Z</time></trkpt><trkpt lat="43.23132636440918" lon="12.657988714424459"><ele>342.0</ele><time>2026-04-26T17:35:52Z</time></trkpt><trkpt lat="43.231125080871266" lon="12.658149662294548"><ele>342.0</ele><time>2026-04-26T17:35:53Z</time></trkpt><trkpt lat="43.230925785085475" lon="12.658306664356765"><ele>342.0</ele><time>2026-04-26T17:35:54Z</time></trkpt><trkpt lat="43.23072543115925" lon="12.658463194940456"><ele>343.0</ele><time>2026-04-26T17:35:55Z</time></trkpt><trkpt lat="43.23052490434576" lon="12.658615082266635"><ele>344.0</ele><time>2026-04-26T17:35:56Z</time></trkpt><trkpt lat="43.23032196148655" lon="12.658752759429602"><ele>345.0</ele><time>2026-04-26T17:35:57Z</time></trkpt><trkpt lat="43.23011083672864" lon="12.658889378192942"><ele>346.0</ele><time>2026-04-26T17:35:58Z</time></trkpt><trkpt lat="43.22989780679896" lon="12.659018325221233"><ele>346.0</ele><time>2026-04-26T17:35:59Z</time></trkpt><trkpt lat="43.229682472807724" lon="12.65914122619115"><ele>346.0</ele><time>2026-04-26T17:36:00Z</time></trkpt><trkpt lat="43.22946144063158" lon="12.659253812993967"><ele>346.0</ele><time>2026-04-26T17:36:01Z</time></trkpt><trkpt lat="43.22923626289133" lon="12.659356714670619"><ele>346.0</ele><time>2026-04-26T17:36:02Z</time></trkpt><trkpt lat="43.22901095058182" lon="12.659451779309315"><ele>350.5</ele><time>2026-04-26T17:36:03Z</time></trkpt><trkpt lat="43.22878282914329" lon="12.659543023658708"><ele>355.0</ele><time>2026-04-26T17:36:04Z</time></trkpt><trkpt lat="43.228555596547245" lon="12.659635037645453"><ele>355.0</ele><time>2026-04-26T17:36:05Z</time></trkpt><trkpt lat="43.22832501867895" lon="12.659727174176256"><ele>355.0</ele><time>2026-04-26T17:36:06Z</time></trkpt><trkpt lat="43.22809653277723" lon="12.6598143035495"><ele>351.5</ele><time>2026-04-26T17:36:07Z</time></trkpt><trkpt lat="43.22786690856978" lon="12.659898398857898"><ele>348.0</ele><time>2026-04-26T17:36:08Z</time></trkpt><trkpt lat="43.22763830042621" lon="12.65998432462148"><ele>348.0</ele><time>2026-04-26T17:36:09Z</time></trkpt><trkpt lat="43.22741125700605" lon="12.660072813617383"><ele>348.0</ele><time>2026-04-26T17:36:10Z</time></trkpt><trkpt lat="43.22718551767241" lon="12.660161009498335"><ele>347.5</ele><time>2026-04-26T17:36:11Z</time></trkpt><trkpt lat="43.22696078396701" lon="12.660249375234148"><ele>347.0</ele><time>2026-04-26T17:36:12Z</time></trkpt><trkpt lat="43.22673528254025" lon="12.660336197024556"><ele>349.0</ele><time>2026-04-26T17:36:13Z</time></trkpt><trkpt lat="43.22651133398515" lon="12.660422669567566"><ele>351.0</ele><time>2026-04-26T17:36:14Z</time></trkpt><trkpt lat="43.22628839553898" lon="12.6605122227949"><ele>351.0</ele><time>2026-04-26T17:36:15Z</time></trkpt><trkpt lat="43.22606793989254" lon="12.660603774562082"><ele>351.0</ele><time>2026-04-26T17:36:16Z</time></trkpt><trkpt lat="43.22584719814809" lon="12.660698049247666"><ele>350.0</ele><time>2026-04-26T17:36:17Z</time></trkpt><trkpt lat="43.2256260336616" lon="12.660799285618106"><ele>349.0</ele><time>2026-04-26T17:36:18Z</time></trkpt><trkpt lat="43.2254074944223" lon="12.660912335087614"><ele>349.0</ele><time>2026-04-26T17:36:19Z</time></trkpt><trkpt lat="43.22519202432427" lon="12.661033963374548"><ele>349.0</ele><time>2026-04-26T17:36:20Z</time></trkpt><trkpt lat="43.22497694976808" lon="12.661163638637397"><ele>349.5</ele><time>2026-04-26T17:36:21Z</time></trkpt><trkpt lat="43.22476672499405" lon="12.661300781928679"><ele>350.0</ele><time>2026-04-26T17:36:22Z</time></trkpt><trkpt lat="43.22455836508597" lon="12.661448896107794"><ele>350.0</ele><time>2026-04-26T17:36:23Z</time></trkpt><trkpt lat="43.22435571269696" lon="12.661603448088226"><ele>350.0</ele><time>2026-04-26T17:36:24Z</time></trkpt><trkpt lat="43.22415561260467" lon="12.661776705838747"><ele>350.5</ele><time>2026-04-26T17:36:25Z</time></trkpt><trkpt lat="43.22394787716066" lon="12.6619516312188"><ele>351.0</ele><time>2026-04-26T17:36:26Z</time></trkpt><trkpt lat="43.223750045422534" lon="12.662137410277811"><ele>351.0</ele><time>2026-04-26T17:36:27Z</time></trkpt><trkpt lat="43.22355117540529" lon="12.662324514358382"><ele>351.0</ele><time>2026-04-26T17:36:28Z</time></trkpt><trkpt lat="43.223356748181146" lon="12.662515896532403"><ele>351.0</ele><time>2026-04-26T17:36:29Z</time></trkpt><trkpt lat="43.223164013609896" lon="12.662716096908776"><ele>351.0</ele><time>2026-04-26T17:36:30Z</time></trkpt><trkpt lat="43.22296780969296" lon="12.662912864067913"><ele>351.5</ele><time>2026-04-26T17:36:31Z</time></trkpt><trkpt lat="43.222770976128835" lon="12.663110800259048"><ele>352.0</ele><time>2026-04-26T17:36:32Z</time></trkpt><trkpt lat="43.22257725349125" lon="12.66331028628276"><ele>352.0</ele><time>2026-04-26T17:36:33Z</time></trkpt><trkpt lat="43.22238846371049" lon="12.663516783221837"><ele>352.0</ele><time>2026-04-26T17:36:34Z</time></trkpt><trkpt lat="43.22219729638166" lon="12.663724261238967"><ele>353.0</ele><time>2026-04-26T17:36:35Z</time></trkpt><trkpt lat="43.22200845191831" lon="12.663930284826582"><ele>354.0</ele><time>2026-04-26T17:36:36Z</time></trkpt><trkpt lat="43.22181925692067" lon="12.664133235359683"><ele>354.0</ele><time>2026-04-26T17:36:37Z</time></trkpt><trkpt lat="43.221627131152665" lon="12.6643324626712"><ele>354.0</ele><time>2026-04-26T17:36:38Z</time></trkpt><trkpt lat="43.221433571396986" lon="12.664530883729253"><ele>354.0</ele><time>2026-04-26T17:36:39Z</time></trkpt><trkpt lat="43.22124132456384" lon="12.664729066891178"><ele>354.0</ele><time>2026-04-26T17:36:40Z</time></trkpt><trkpt lat="43.221051813038734" lon="12.664925697535322"><ele>354.0</ele><time>2026-04-26T17:36:41Z</time></trkpt><trkpt lat="43.2208611569255" lon="12.665122588413695"><ele>354.0</ele><time>2026-04-26T17:36:42Z</time></trkpt><trkpt lat="43.220666000374386" lon="12.665317720997407"><ele>353.5</ele><time>2026-04-26T17:36:43Z</time></trkpt><trkpt lat="43.22047742889862" lon="12.665514877641405"><ele>353.0</ele><time>2026-04-26T17:36:44Z</time></trkpt><trkpt lat="43.22028929234029" lon="12.665711948897005"><ele>353.0</ele><time>2026-04-26T17:36:45Z</time></trkpt><trkpt lat="43.220104168044955" lon="12.665895053519057"><ele>353.0</ele><time>2026-04-26T17:36:46Z</time></trkpt><trkpt lat="43.21991525075068" lon="12.6660930985429"><ele>352.5</ele><time>2026-04-26T17:36:47Z</time></trkpt><trkpt lat="43.21973065226707" lon="12.666295100049986"><ele>352.0</ele><time>2026-04-26T17:36:48Z</time></trkpt><trkpt lat="43.21954478998747" lon="12.666491817201882"><ele>352.0</ele><time>2026-04-26T17:36:49Z</time></trkpt><trkpt lat="43.21936663106061" lon="12.666684508714766"><ele>352.0</ele><time>2026-04-26T17:36:50Z</time></trkpt><trkpt lat="43.219180783694185" lon="12.666876467358101"><ele>352.5</ele><time>2026-04-26T17:36:51Z</time></trkpt><trkpt lat="43.218997198630454" lon="12.667069359139777"><ele>353.0</ele><time>2026-04-26T17:36:52Z</time></trkpt><trkpt lat="43.218812347555755" lon="12.667258095668092"><ele>353.5</ele><time>2026-04-26T17:36:53Z</time></trkpt><trkpt lat="43.21862550999233" lon="12.667439846318814"><ele>354.0</ele><time>2026-04-26T17:36:54Z</time></trkpt><trkpt lat="43.21843371191896" lon="12.667615129132662"><ele>355.0</ele><time>2026-04-26T17:36:55Z</time></trkpt><trkpt lat="43.218239249935756" lon="12.667782059938986"><ele>356.0</ele><time>2026-04-26T17:36:56Z</time></trkpt><trkpt lat="43.218037559766515" lon="12.667944820694387"><ele>356.5</ele><time>2026-04-26T17:36:57Z</time></trkpt><trkpt lat="43.217834168794184" lon="12.668101400959726"><ele>357.0</ele><time>2026-04-26T17:36:58Z</time></trkpt><trkpt lat="43.21763254168101" lon="12.668251828008374"><ele>357.0</ele><time>2026-04-26T17:36:59Z</time></trkpt><trkpt lat="43.21742883552016" lon="12.668388445465718"><ele>357.0</ele><time>2026-04-26T17:37:00Z</time></trkpt><trkpt lat="43.21721855913352" lon="12.66851845925786"><ele>358.5</ele><time>2026-04-26T17:37:01Z</time></trkpt><trkpt lat="43.217004193185744" lon="12.668627468417057"><ele>360.0</ele><time>2026-04-26T17:37:02Z</time></trkpt><trkpt lat="43.216785591822656" lon="12.66872325036994"><ele>360.0</ele><time>2026-04-26T17:37:03Z</time></trkpt><trkpt lat="43.21656535064121" lon="12.668808059577902"><ele>360.0</ele><time>2026-04-26T17:37:04Z</time></trkpt><trkpt lat="43.21634135035613" lon="12.668883849410705"><ele>360.5</ele><time>2026-04-26T17:37:05Z</time></trkpt><trkpt lat="43.216116091730235" lon="12.668949339023438"><ele>361.0</ele><time>2026-04-26T17:37:06Z</time></trkpt><trkpt lat="43.21588793539584" lon="12.66900738360091"><ele>361.0</ele><time>2026-04-26T17:37:07Z</time></trkpt><trkpt lat="43.21565992680639" lon="12.669053579724942"><ele>361.0</ele><time>2026-04-26T17:37:08Z</time></trkpt><trkpt lat="43.21542936985415" lon="12.66908139061477"><ele>362.5</ele><time>2026-04-26T17:37:09Z</time></trkpt><trkpt lat="43.21519732144419" lon="12.669094394740965"><ele>364.0</ele><time>2026-04-26T17:37:10Z</time></trkpt><trkpt lat="43.21496634080688" lon="12.669096762329701"><ele>365.5</ele><time>2026-04-26T17:37:11Z</time></trkpt><trkpt lat="43.214734458276695" lon="12.66908752942161"><ele>367.0</ele><time>2026-04-26T17:37:12Z</time></trkpt><trkpt lat="43.214504749775756" lon="12.669065275771475"><ele>367.0</ele><time>2026-04-26T17:37:13Z</time></trkpt><trkpt lat="43.2142745718033" lon="12.669030056834153"><ele>367.0</ele><time>2026-04-26T17:37:14Z</time></trkpt><trkpt lat="43.21404605821565" lon="12.66898323653419"><ele>369.0</ele><time>2026-04-26T17:37:15Z</time></trkpt><trkpt lat="43.21382094213443" lon="12.668920679697534"><ele>371.0</ele><time>2026-04-26T17:37:16Z</time></trkpt><trkpt lat="43.2135972469964" lon="12.66884452465961"><ele>371.0</ele><time>2026-04-26T17:37:17Z</time></trkpt><trkpt lat="43.21337624069388" lon="12.668759684433043"><ele>371.0</ele><time>2026-04-26T17:37:18Z</time></trkpt><trkpt lat="43.213159177320016" lon="12.668667334774081"><ele>369.0</ele><time>2026-04-26T17:37:19Z</time></trkpt><trkpt lat="43.2129441799152" lon="12.66856664831124"><ele>367.0</ele><time>2026-04-26T17:37:20Z</time></trkpt><trkpt lat="43.21273577975144" lon="12.668454958545343"><ele>367.0</ele><time>2026-04-26T17:37:21Z</time></trkpt><trkpt lat="43.21253119262458" lon="12.66834196072286"><ele>367.0</ele><time>2026-04-26T17:37:22Z</time></trkpt><trkpt lat="43.212332520997805" lon="12.668224829471178"><ele>367.0</ele><time>2026-04-26T17:37:23Z</time></trkpt><trkpt lat="43.21214048118108" lon="12.668108293779126"><ele>367.66666666666663</ele><time>2026-04-26T17:37:24Z</time></trkpt><trkpt lat="43.211949737806854" lon="12.667998531064057"><ele>368.3333333333333</ele><time>2026-04-26T17:37:25Z</time></trkpt><trkpt lat="43.211764761475294" lon="12.667879944609295"><ele>369.0</ele><time>2026-04-26T17:37:26Z</time></trkpt><trkpt lat="43.211568948891475" lon="12.667760506598537"><ele>372.6666666666667</ele><time>2026-04-26T17:37:27Z</time></trkpt><trkpt lat="43.21136530960238" lon="12.667639474544048"><ele>376.33333333333337</ele><time>2026-04-26T17:37:28Z</time></trkpt><trkpt lat="43.21116070713353" lon="12.667504021603055"><ele>380.0</ele><time>2026-04-26T17:37:29Z</time></trkpt><trkpt lat="43.21095574740228" lon="12.667362226719053"><ele>380.0</ele><time>2026-04-26T17:37:30Z</time></trkpt><trkpt lat="43.2107475155945" lon="12.66722454682532"><ele>380.0</ele><time>2026-04-26T17:37:31Z</time></trkpt><trkpt lat="43.21053811324963" lon="12.667081084674626"><ele>381.0</ele><time>2026-04-26T17:37:32Z</time></trkpt><trkpt lat="43.21032688878873" lon="12.666937604731478"><ele>382.0</ele><time>2026-04-26T17:37:33Z</time></trkpt><trkpt lat="43.21011509891258" lon="12.666791072843877"><ele>382.0</ele><time>2026-04-26T17:37:34Z</time></trkpt><trkpt lat="43.20990151423838" lon="12.666643885075672"><ele>382.0</ele><time>2026-04-26T17:37:35Z</time></trkpt><trkpt lat="43.20968751629013" lon="12.666492686675221"><ele>388.5</ele><time>2026-04-26T17:37:36Z</time></trkpt><trkpt lat="43.209474040252026" lon="12.666337446208997"><ele>395.0</ele><time>2026-04-26T17:37:37Z</time></trkpt><trkpt lat="43.20926180849305" lon="12.666185105866038"><ele>393.0</ele><time>2026-04-26T17:37:38Z</time></trkpt><trkpt lat="43.20904969729352" lon="12.66603781133305"><ele>391.0</ele><time>2026-04-26T17:37:39Z</time></trkpt><trkpt lat="43.20883812002077" lon="12.6659005253159"><ele>395.5</ele><time>2026-04-26T17:37:40Z</time></trkpt><trkpt lat="43.2086268912926" lon="12.665758893159632"><ele>400.0</ele><time>2026-04-26T17:37:41Z</time></trkpt><trkpt lat="43.2084183302429" lon="12.665612668587302"><ele>400.0</ele><time>2026-04-26T17:37:42Z</time></trkpt><trkpt lat="43.20820867178436" lon="12.665465289359362"><ele>400.0</ele><time>2026-04-26T17:37:43Z</time></trkpt><trkpt lat="43.20800636793811" lon="12.665319453050598"><ele>395.5</ele><time>2026-04-26T17:37:44Z</time></trkpt><trkpt lat="43.207795801909654" lon="12.665174440532073"><ele>391.0</ele><time>2026-04-26T17:37:45Z</time></trkpt><trkpt lat="43.20758923698258" lon="12.665032738837455"><ele>391.0</ele><time>2026-04-26T17:37:46Z</time></trkpt><trkpt lat="43.2073766696837" lon="12.664887393648446"><ele>391.0</ele><time>2026-04-26T17:37:47Z</time></trkpt><trkpt lat="43.20715876480172" lon="12.66473921740079"><ele>389.5</ele><time>2026-04-26T17:37:48Z</time></trkpt><trkpt lat="43.206940179273694" lon="12.664595807907837"><ele>388.0</ele><time>2026-04-26T17:37:49Z</time></trkpt><trkpt lat="43.20672344552093" lon="12.664444691691022"><ele>389.0</ele><time>2026-04-26T17:37:50Z</time></trkpt><trkpt lat="43.206504769151465" lon="12.664291753672018"><ele>390.0</ele><time>2026-04-26T17:37:51Z</time></trkpt><trkpt lat="43.20628557845018" lon="12.664146808090225"><ele>390.0</ele><time>2026-04-26T17:37:52Z</time></trkpt><trkpt lat="43.20606617837186" lon="12.664010535864062"><ele>390.0</ele><time>2026-04-26T17:37:53Z</time></trkpt><trkpt lat="43.205845156251584" lon="12.663870441019714"><ele>389.5</ele><time>2026-04-26T17:37:54Z</time></trkpt><trkpt lat="43.20562555542341" lon="12.663721279235078"><ele>389.0</ele><time>2026-04-26T17:37:55Z</time></trkpt><trkpt lat="43.20540480463249" lon="12.66357185342554"><ele>389.0</ele><time>2026-04-26T17:37:56Z</time></trkpt><trkpt lat="43.20518406904294" lon="12.663428174250281"><ele>389.0</ele><time>2026-04-26T17:37:57Z</time></trkpt><trkpt lat="43.2049684470624" lon="12.663283948316941"><ele>391.5</ele><time>2026-04-26T17:37:58Z</time></trkpt><trkpt lat="43.204755402700386" lon="12.663146755877467"><ele>394.0</ele><time>2026-04-26T17:37:59Z</time></trkpt><trkpt lat="43.20454497455104" lon="12.663007042999826"><ele>394.0</ele><time>2026-04-26T17:38:00Z</time></trkpt><trkpt lat="43.20433547385457" lon="12.662876648640463"><ele>394.0</ele><time>2026-04-26T17:38:01Z</time></trkpt><trkpt lat="43.20413083464029" lon="12.66273600305922"><ele>394.5</ele><time>2026-04-26T17:38:02Z</time></trkpt><trkpt lat="43.20392852102548" lon="12.662595065841105"><ele>395.0</ele><time>2026-04-26T17:38:03Z</time></trkpt><trkpt lat="43.20372975526988" lon="12.662455373112325"><ele>395.0</ele><time>2026-04-26T17:38:04Z</time></trkpt><trkpt lat="43.20353292373245" lon="12.6623240860825"><ele>395.0</ele><time>2026-04-26T17:38:05Z</time></trkpt><trkpt lat="43.20334357594235" lon="12.662190275385894"><ele>395.0</ele><time>2026-04-26T17:38:06Z</time></trkpt><trkpt lat="43.20316289911236" lon="12.662053160135192"><ele>397.66666666666663</ele><time>2026-04-26T17:38:07Z</time></trkpt><trkpt lat="43.20297912733226" lon="12.66192002526535"><ele>400.33333333333337</ele><time>2026-04-26T17:38:08Z</time></trkpt><trkpt lat="43.202799611387725" lon="12.66179544673194"><ele>403.0</ele><time>2026-04-26T17:38:09Z</time></trkpt><trkpt lat="43.202622354305575" lon="12.661682886271532"><ele>403.0</ele><time>2026-04-26T17:38:10Z</time></trkpt><trkpt lat="43.20244842422448" lon="12.661561362572067"><ele>403.0</ele><time>2026-04-26T17:38:11Z</time></trkpt><trkpt lat="43.202270165337254" lon="12.661445755826566"><ele>403.0</ele><time>2026-04-26T17:38:12Z</time></trkpt><trkpt lat="43.20209043744797" lon="12.661338637001391"><ele>404.0</ele><time>2026-04-26T17:38:13Z</time></trkpt><trkpt lat="43.2019095128778" lon="12.661229073258893"><ele>405.0</ele><time>2026-04-26T17:38:14Z</time></trkpt><trkpt lat="43.201727769790836" lon="12.661123730448862"><ele>406.0</ele><time>2026-04-26T17:38:15Z</time></trkpt><trkpt lat="43.201544497632526" lon="12.661017804211042"><ele>408.0</ele><time>2026-04-26T17:38:16Z</time></trkpt><trkpt lat="43.201362127604" lon="12.660907691002993"><ele>410.0</ele><time>2026-04-26T17:38:17Z</time></trkpt><trkpt lat="43.20118068324284" lon="12.660795994069925"><ele>412.0</ele><time>2026-04-26T17:38:18Z</time></trkpt><trkpt lat="43.201008789778335" lon="12.660668431408533"><ele>412.0</ele><time>2026-04-26T17:38:19Z</time></trkpt><trkpt lat="43.20083182006972" lon="12.660559487198924"><ele>412.0</ele><time>2026-04-26T17:38:20Z</time></trkpt><trkpt lat="43.200648485020245" lon="12.66047061019558"><ele>412.0</ele><time>2026-04-26T17:38:21Z</time></trkpt><trkpt lat="43.20047400491597" lon="12.660357229675112"><ele>414.0</ele><time>2026-04-26T17:38:22Z</time></trkpt><trkpt lat="43.20029850484666" lon="12.660242912439841"><ele>416.0</ele><time>2026-04-26T17:38:23Z</time></trkpt><trkpt lat="43.20012354650617" lon="12.660119088742395"><ele>418.0</ele><time>2026-04-26T17:38:24Z</time></trkpt><trkpt lat="43.19995589237271" lon="12.66000318492959"><ele>422.33333333333337</ele><time>2026-04-26T17:38:25Z</time></trkpt><trkpt lat="43.19978447625448" lon="12.659877114278128"><ele>426.66666666666663</ele><time>2026-04-26T17:38:26Z</time></trkpt><trkpt lat="43.19960594282427" lon="12.65974117090853"><ele>431.0</ele><time>2026-04-26T17:38:27Z</time></trkpt><trkpt lat="43.19944144762415" lon="12.659600165141326"><ele>431.0</ele><time>2026-04-26T17:38:28Z</time></trkpt><trkpt lat="43.199274296367385" lon="12.659459519588406"><ele>431.0</ele><time>2026-04-26T17:38:29Z</time></trkpt><trkpt lat="43.19910153807205" lon="12.659304607648437"><ele>431.0</ele><time>2026-04-26T17:38:30Z</time></trkpt><trkpt lat="43.198938265347294" lon="12.659154497911878"><ele>436.3333333333333</ele><time>2026-04-26T17:38:31Z</time></trkpt><trkpt lat="43.19876585709789" lon="12.659004662351446"><ele>441.66666666666663</ele><time>2026-04-26T17:38:32Z</time></trkpt><trkpt lat="43.198605624039416" lon="12.65882631995225"><ele>447.0</ele><time>2026-04-26T17:38:33Z</time></trkpt><trkpt lat="43.198444300868374" lon="12.65863735731795"><ele>448.66666666666663</ele><time>2026-04-26T17:38:34.02Z</time></trkpt><trkpt lat="43.19829062935876" lon="12.658445576299655"><ele>450.3333333333333</ele><time>2026-04-26T17:38:35.019Z</time></trkpt><trkpt lat="43.19814189665232" lon="12.658240697471864"><ele>452.0</ele><time>2026-04-26T17:38:36.022Z</time></trkpt><trkpt lat="43.19799898167036" lon="12.658022734063408"><ele>455.66666666666663</ele><time>2026-04-26T17:38:37.022Z</time></trkpt><trkpt lat="43.19786270790574" lon="12.65779977883988"><ele>459.33333333333337</ele><time>2026-04-26T17:38:38.022Z</time></trkpt><trkpt lat="43.19773407307329" lon="12.657572205020442"><ele>463.0</ele><time>2026-04-26T17:38:39.02Z</time></trkpt><trkpt lat="43.19761236893574" lon="12.657329432854059"><ele>464.0</ele><time>2026-04-26T17:38:40.021Z</time></trkpt><trkpt lat="43.19749262896323" lon="12.657088034730776"><ele>465.0</ele><time>2026-04-26T17:38:41.022Z</time></trkpt><trkpt lat="43.19265862465202" lon="12.643019082036467"><ele>449.0</ele><time>2026-04-26T17:39:34Z</time></trkpt><trkpt lat="43.192587562530456" lon="12.642736766593892"><ele>433.0</ele><time>2026-04-26T17:39:35Z</time></trkpt><trkpt lat="43.19248943333868" lon="12.642485796161193"><ele>417.0</ele><time>2026-04-26T17:39:36Z</time></trkpt><trkpt lat="43.192401472605205" lon="12.642221975227008"><ele>421.66666666666663</ele><time>2026-04-26T17:39:37Z</time></trkpt><trkpt lat="43.19230766848" lon="12.641959013775232"><ele>426.3333333333333</ele><time>2026-04-26T17:39:38Z</time></trkpt><trkpt lat="43.19222072919593" lon="12.64169745375338"><ele>431.0</ele><time>2026-04-26T17:39:39Z</time></trkpt><trkpt lat="43.192121533777026" lon="12.641436162939954"><ele>431.0</ele><time>2026-04-26T17:39:40Z</time></trkpt><trkpt lat="43.192022375889536" lon="12.641154992584486"><ele>431.0</ele><time>2026-04-26T17:39:41Z</time></trkpt><trkpt lat="43.19190731300245" lon="12.64089336166384"><ele>426.0</ele><time>2026-04-26T17:39:42Z</time></trkpt><trkpt lat="43.191789852864865" lon="12.640626508163736"><ele>421.0</ele><time>2026-04-26T17:39:43Z</time></trkpt><trkpt lat="43.19166143012813" lon="12.64036361185467"><ele>418.5</ele><time>2026-04-26T17:39:44Z</time></trkpt><trkpt lat="43.191526658941314" lon="12.640100968266287"><ele>416.0</ele><time>2026-04-26T17:39:45Z</time></trkpt><trkpt lat="43.191384070358204" lon="12.639840271887584"><ele>434.0</ele><time>2026-04-26T17:39:46Z</time></trkpt><trkpt lat="43.191237159015046" lon="12.639579555159067"><ele>452.0</ele><time>2026-04-26T17:39:47Z</time></trkpt><trkpt lat="43.1910837916837" lon="12.639322001246853"><ele>456.5</ele><time>2026-04-26T17:39:48Z</time></trkpt><trkpt lat="43.190922662361444" lon="12.639061738720901"><ele>461.0</ele><time>2026-04-26T17:39:49.02Z</time></trkpt><trkpt lat="43.19076790913664" lon="12.638807081331846"><ele>468.5</ele><time>2026-04-26T17:39:50.018Z</time></trkpt><trkpt lat="43.19060664678352" lon="12.63854857360641"><ele>476.0</ele><time>2026-04-26T17:39:51.023Z</time></trkpt><trkpt lat="43.190456457477836" lon="12.638297559253997"><ele>476.0</ele><time>2026-04-26T17:39:52.022Z</time></trkpt><trkpt lat="43.19030279126153" lon="12.63804672638083"><ele>476.0</ele><time>2026-04-26T17:39:53.021Z</time></trkpt><trkpt lat="43.18889264468113" lon="12.636067101777051"><ele>433.0</ele><time>2026-04-26T17:39:56.556Z</time></trkpt><trkpt lat="43.18847351225756" lon="12.635425149048215"><ele>461.0</ele><time>2026-04-26T17:39:57.555Z</time></trkpt><trkpt lat="43.18807886657582" lon="12.634749586197293"><ele>455.0</ele><time>2026-04-26T17:39:58.559Z</time></trkpt><trkpt lat="43.1878404" lon="12.6342773"><ele>449.0</ele><time>2026-04-26T17:39:59.559Z</time></trkpt><trkpt lat="43.18674976010172" lon="12.630944112327537"><ele>424.3333333333333</ele><time>2026-04-26T17:40:26Z</time></trkpt><trkpt lat="43.18668625296743" lon="12.630696779686872"><ele>399.66666666666663</ele><time>2026-04-26T17:40:27Z</time></trkpt><trkpt lat="43.18662353493679" lon="12.630418036776186"><ele>375.0</ele><time>2026-04-26T17:40:28Z</time></trkpt><trkpt lat="43.18655982766925" lon="12.6301794712229"><ele>383.33333333333337</ele><time>2026-04-26T17:40:29Z</time></trkpt><trkpt lat="43.186490779295944" lon="12.629940681660056"><ele>391.6666666666667</ele><time>2026-04-26T17:40:30Z</time></trkpt><trkpt lat="43.186429340889205" lon="12.629701722310829"><ele>400.0</ele><time>2026-04-26T17:40:31Z</time></trkpt><trkpt lat="43.18636290350373" lon="12.62946197024332"><ele>404.0</ele><time>2026-04-26T17:40:32Z</time></trkpt><trkpt lat="43.18629146106513" lon="12.629225656910496"><ele>408.0</ele><time>2026-04-26T17:40:33Z</time></trkpt><trkpt lat="43.1862129641446" lon="12.62900282481744"><ele>412.0</ele><time>2026-04-26T17:40:34Z</time></trkpt><trkpt lat="43.18613718643538" lon="12.628786156727893"><ele>408.0</ele><time>2026-04-26T17:40:35Z</time></trkpt><trkpt lat="43.186053659369485" lon="12.628581612095228"><ele>404.0</ele><time>2026-04-26T17:40:36Z</time></trkpt><trkpt lat="43.185977792266364" lon="12.628392506824895"><ele>400.0</ele><time>2026-04-26T17:40:37Z</time></trkpt><trkpt lat="43.185912107174794" lon="12.628202919511574"><ele>400.0</ele><time>2026-04-26T17:40:38Z</time></trkpt><trkpt lat="43.1858332265983" lon="12.628021378257072"><ele>400.0</ele><time>2026-04-26T17:40:39Z</time></trkpt><trkpt lat="43.18573392749855" lon="12.62784039886843"><ele>400.0</ele><time>2026-04-26T17:40:40Z</time></trkpt><trkpt lat="43.18565571164092" lon="12.627638168858374"><ele>399.6666666666667</ele><time>2026-04-26T17:40:41Z</time></trkpt><trkpt lat="43.18558552514398" lon="12.627416180547126"><ele>399.33333333333337</ele><time>2026-04-26T17:40:42Z</time></trkpt><trkpt lat="43.185512761778085" lon="12.627182791926097"><ele>399.0</ele><time>2026-04-26T17:40:43Z</time></trkpt><trkpt lat="43.185419502479036" lon="12.62695368315209"><ele>393.6666666666667</ele><time>2026-04-26T17:40:44Z</time></trkpt><trkpt lat="43.18531415031664" lon="12.626722247838346"><ele>388.33333333333337</ele><time>2026-04-26T17:40:45Z</time></trkpt><trkpt lat="43.18520270169168" lon="12.62648551205526"><ele>383.0</ele><time>2026-04-26T17:40:46Z</time></trkpt><trkpt lat="43.18508658716238" lon="12.626250214384546"><ele>385.0</ele><time>2026-04-26T17:40:47Z</time></trkpt><trkpt lat="43.18496874100421" lon="12.625996869378467"><ele>387.0</ele><time>2026-04-26T17:40:48Z</time></trkpt><trkpt lat="43.18484741405638" lon="12.625742432352224"><ele>389.0</ele><time>2026-04-26T17:40:49Z</time></trkpt><trkpt lat="43.18472503775626" lon="12.625484750579814"><ele>383.66666666666663</ele><time>2026-04-26T17:40:50Z</time></trkpt><trkpt lat="43.18460448716814" lon="12.625227308778372"><ele>378.3333333333333</ele><time>2026-04-26T17:40:51Z</time></trkpt><trkpt lat="43.184480113585245" lon="12.624973989636505"><ele>373.0</ele><time>2026-04-26T17:40:52Z</time></trkpt><trkpt lat="43.18435425270575" lon="12.624716002196799"><ele>371.0</ele><time>2026-04-26T17:40:53Z</time></trkpt><trkpt lat="43.1842264402392" lon="12.624462122257015"><ele>369.0</ele><time>2026-04-26T17:40:54Z</time></trkpt><trkpt lat="43.18410172644367" lon="12.624207136534611"><ele>367.0</ele><time>2026-04-26T17:40:55Z</time></trkpt><trkpt lat="43.183983057606966" lon="12.623947190076658"><ele>367.0</ele><time>2026-04-26T17:40:56Z</time></trkpt><trkpt lat="43.18387126650456" lon="12.623685583975538"><ele>367.0</ele><time>2026-04-26T17:40:57Z</time></trkpt><trkpt lat="43.183764948920754" lon="12.623425363297837"><ele>367.0</ele><time>2026-04-26T17:40:58Z</time></trkpt><trkpt lat="43.18366325882895" lon="12.623161669508574"><ele>368.0</ele><time>2026-04-26T17:40:59Z</time></trkpt><trkpt lat="43.18356671253715" lon="12.622890887601057"><ele>369.0</ele><time>2026-04-26T17:41:00Z</time></trkpt><trkpt lat="43.18347664201529" lon="12.622614905621965"><ele>370.0</ele><time>2026-04-26T17:41:01Z</time></trkpt><trkpt lat="43.18339227461558" lon="12.622333655510662"><ele>370.0</ele><time>2026-04-26T17:41:02Z</time></trkpt><trkpt lat="43.1833128190681" lon="12.62204708366143"><ele>370.0</ele><time>2026-04-26T17:41:03Z</time></trkpt><trkpt lat="43.183232277286756" lon="12.621761646869432"><ele>370.0</ele><time>2026-04-26T17:41:04Z</time></trkpt><trkpt lat="43.18315585394026" lon="12.621466760827632"><ele>373.0</ele><time>2026-04-26T17:41:05Z</time></trkpt><trkpt lat="43.18307950287855" lon="12.621176119948613"><ele>376.0</ele><time>2026-04-26T17:41:06Z</time></trkpt><trkpt lat="43.18300287036708" lon="12.620890594420155"><ele>379.0</ele><time>2026-04-26T17:41:07Z</time></trkpt><trkpt lat="43.18292936327327" lon="12.620582846043009"><ele>364.3333333333333</ele><time>2026-04-26T17:41:08Z</time></trkpt><trkpt lat="43.18285731347077" lon="12.620300860665852"><ele>349.6666666666667</ele><time>2026-04-26T17:41:09Z</time></trkpt><trkpt lat="43.18278544935774" lon="12.620019719218856"><ele>335.0</ele><time>2026-04-26T17:41:10Z</time></trkpt><trkpt lat="43.18271307134038" lon="12.619743862819247"><ele>335.33333333333337</ele><time>2026-04-26T17:41:11Z</time></trkpt><trkpt lat="43.182641843965214" lon="12.619467883590657"><ele>335.6666666666667</ele><time>2026-04-26T17:41:12Z</time></trkpt><trkpt lat="43.1825691179408" lon="12.619198090620229"><ele>336.0</ele><time>2026-04-26T17:41:13Z</time></trkpt><trkpt lat="43.18249855100482" lon="12.6189269278868"><ele>336.0</ele><time>2026-04-26T17:41:14Z</time></trkpt><trkpt lat="43.1824275438928" lon="12.618655754253489"><ele>336.0</ele><time>2026-04-26T17:41:15Z</time></trkpt><trkpt lat="43.182357852342044" lon="12.6183838247342"><ele>336.0</ele><time>2026-04-26T17:41:16Z</time></trkpt><trkpt lat="43.18228706985705" lon="12.618121057783652"><ele>341.6666666666667</ele><time>2026-04-26T17:41:17Z</time></trkpt><trkpt lat="43.18221529426139" lon="12.617867194759825"><ele>347.33333333333337</ele><time>2026-04-26T17:41:18Z</time></trkpt><trkpt lat="43.1821417633842" lon="12.617615613221712"><ele>353.0</ele><time>2026-04-26T17:41:19Z</time></trkpt><trkpt lat="43.18206224768747" lon="12.617360970270747"><ele>353.0</ele><time>2026-04-26T17:41:20Z</time></trkpt><trkpt lat="43.1819816671293" lon="12.617104122132453"><ele>353.0</ele><time>2026-04-26T17:41:21Z</time></trkpt><trkpt lat="43.18189009761935" lon="12.616844593892248"><ele>353.0</ele><time>2026-04-26T17:41:22Z</time></trkpt><trkpt lat="43.18179146744226" lon="12.61658687677096"><ele>351.6666666666667</ele><time>2026-04-26T17:41:23Z</time></trkpt><trkpt lat="43.18167791020338" lon="12.61633377246476"><ele>350.3333333333333</ele><time>2026-04-26T17:41:24Z</time></trkpt><trkpt lat="43.181553179309404" lon="12.616082256476517"><ele>349.0</ele><time>2026-04-26T17:41:25Z</time></trkpt><trkpt lat="43.18142531675918" lon="12.615828555912094"><ele>349.0</ele><time>2026-04-26T17:41:26Z</time></trkpt><trkpt lat="43.18130661231866" lon="12.61556165026478"><ele>349.0</ele><time>2026-04-26T17:41:27Z</time></trkpt><trkpt lat="43.18117357910748" lon="12.61530022177112"><ele>343.0</ele><time>2026-04-26T17:41:28Z</time></trkpt><trkpt lat="43.18104038817781" lon="12.615040740065892"><ele>337.0</ele><time>2026-04-26T17:41:29Z</time></trkpt><trkpt lat="43.18090716629759" lon="12.614775740852611"><ele>337.0</ele><time>2026-04-26T17:41:30Z</time></trkpt><trkpt lat="43.180769928745285" lon="12.614511633281841"><ele>337.0</ele><time>2026-04-26T17:41:31Z</time></trkpt><trkpt lat="43.18062730990465" lon="12.614246908595922"><ele>339.5</ele><time>2026-04-26T17:41:32Z</time></trkpt><trkpt lat="43.18048861936177" lon="12.613978213532963"><ele>342.0</ele><time>2026-04-26T17:41:33Z</time></trkpt><trkpt lat="43.18034598858945" lon="12.613708163994259"><ele>337.5</ele><time>2026-04-26T17:41:34Z</time></trkpt><trkpt lat="43.18020437747835" lon="12.613427647522288"><ele>333.0</ele><time>2026-04-26T17:41:35Z</time></trkpt><trkpt lat="43.18006253173808" lon="12.613150363097043"><ele>333.0</ele><time>2026-04-26T17:41:36Z</time></trkpt><trkpt lat="43.179918821400655" lon="12.612875098530502"><ele>333.0</ele><time>2026-04-26T17:41:37Z</time></trkpt><trkpt lat="43.17978503933257" lon="12.612587722549483"><ele>341.0</ele><time>2026-04-26T17:41:38Z</time></trkpt><trkpt lat="43.17965393662985" lon="12.612299371303328"><ele>349.0</ele><time>2026-04-26T17:41:39Z</time></trkpt><trkpt lat="43.17952775840581" lon="12.612010675637762"><ele>343.0</ele><time>2026-04-26T17:41:40Z</time></trkpt><trkpt lat="43.179403043138" lon="12.611724054471143"><ele>337.0</ele><time>2026-04-26T17:41:41Z</time></trkpt><trkpt lat="43.17927772211947" lon="12.611448397748214"><ele>337.0</ele><time>2026-04-26T17:41:42Z</time></trkpt><trkpt lat="43.179156379176135" lon="12.611181902739384"><ele>337.0</ele><time>2026-04-26T17:41:43Z</time></trkpt><trkpt lat="43.17903300480275" lon="12.610915020062704"><ele>350.5</ele><time>2026-04-26T17:41:44Z</time></trkpt><trkpt lat="43.17890670953654" lon="12.610647239651966"><ele>364.0</ele><time>2026-04-26T17:41:45Z</time></trkpt><trkpt lat="43.17877649460971" lon="12.610384128731907"><ele>364.0</ele><time>2026-04-26T17:41:46Z</time></trkpt><trkpt lat="43.178643503070575" lon="12.610119340095876"><ele>364.0</ele><time>2026-04-26T17:41:47Z</time></trkpt><trkpt lat="43.17850811544951" lon="12.60985068726799"><ele>364.0</ele><time>2026-04-26T17:41:48.017Z</time></trkpt><trkpt lat="43.17837730896102" lon="12.609585159302629"><ele>364.0</ele><time>2026-04-26T17:41:49.023Z</time></trkpt><trkpt lat="43.17825166087483" lon="12.609318676939301"><ele>360.3333333333333</ele><time>2026-04-26T17:41:50.023Z</time></trkpt><trkpt lat="43.17812945449361" lon="12.60906356616844"><ele>356.6666666666667</ele><time>2026-04-26T17:41:51.021Z</time></trkpt><trkpt lat="43.17800730561263" lon="12.608801674598231"><ele>353.0</ele><time>2026-04-26T17:41:52.021Z</time></trkpt><trkpt lat="43.17788498806351" lon="12.608546739600675"><ele>318.0</ele><time>2026-04-26T17:41:53.022Z</time></trkpt><trkpt lat="43.1773292972177" lon="12.6076494623093"><ele>318.0</ele><time>2026-04-26T17:41:57Z</time></trkpt><trkpt lat="43.17720022420403" lon="12.607405460986852"><ele>318.0</ele><time>2026-04-26T17:41:58Z</time></trkpt><trkpt lat="43.17707667269259" lon="12.607192999519702"><ele>318.0</ele><time>2026-04-26T17:41:59Z</time></trkpt><trkpt lat="43.17694866577637" lon="12.606959019284666"><ele>315.0</ele><time>2026-04-26T17:42:00Z</time></trkpt><trkpt lat="43.17682976570783" lon="12.60672801650994"><ele>312.0</ele><time>2026-04-26T17:42:01Z</time></trkpt><trkpt lat="43.17669856989676" lon="12.606499697216124"><ele>309.0</ele><time>2026-04-26T17:42:02Z</time></trkpt><trkpt lat="43.176554222991925" lon="12.60627351512289"><ele>315.0</ele><time>2026-04-26T17:42:03Z</time></trkpt><trkpt lat="43.176390074029555" lon="12.606046229681382"><ele>321.0</ele><time>2026-04-26T17:42:04Z</time></trkpt><trkpt lat="43.176218725108924" lon="12.605797854194268"><ele>321.0</ele><time>2026-04-26T17:42:05Z</time></trkpt><trkpt lat="43.176036030733364" lon="12.605550669462612"><ele>321.0</ele><time>2026-04-26T17:42:06Z</time></trkpt><trkpt lat="43.17585489330592" lon="12.605315416564176"><ele>320.5</ele><time>2026-04-26T17:42:07Z</time></trkpt><trkpt lat="43.175664721802356" lon="12.605098030749687"><ele>320.0</ele><time>2026-04-26T17:42:08Z</time></trkpt><trkpt lat="43.17546183383308" lon="12.6048818013805"><ele>320.0</ele><time>2026-04-26T17:42:09Z</time></trkpt><trkpt lat="43.175252084073804" lon="12.604680079294345"><ele>320.0</ele><time>2026-04-26T17:42:10Z</time></trkpt><trkpt lat="43.17503118527094" lon="12.604492208232376"><ele>314.5</ele><time>2026-04-26T17:42:11Z</time></trkpt><trkpt lat="43.17480172313045" lon="12.604323589560286"><ele>309.0</ele><time>2026-04-26T17:42:12Z</time></trkpt><trkpt lat="43.17456526032529" lon="12.604160513420897"><ele>309.0</ele><time>2026-04-26T17:42:13Z</time></trkpt><trkpt lat="43.17432374992605" lon="12.604010094657395"><ele>309.0</ele><time>2026-04-26T17:42:14Z</time></trkpt><trkpt lat="43.17407606004945" lon="12.603870785274676"><ele>309.5</ele><time>2026-04-26T17:42:15Z</time></trkpt><trkpt lat="43.17382779517313" lon="12.603737975149054"><ele>310.0</ele><time>2026-04-26T17:42:16Z</time></trkpt><trkpt lat="43.17358434584413" lon="12.60360024845099"><ele>303.0</ele><time>2026-04-26T17:42:17Z</time></trkpt><trkpt lat="43.17333910815138" lon="12.603462716098338"><ele>296.0</ele><time>2026-04-26T17:42:18Z</time></trkpt><trkpt lat="43.17309113209345" lon="12.603330799303105"><ele>294.0</ele><time>2026-04-26T17:42:19Z</time></trkpt><trkpt lat="43.172843383430404" lon="12.603200156868592"><ele>292.0</ele><time>2026-04-26T17:42:20Z</time></trkpt><trkpt lat="43.17259660035721" lon="12.603081403424005"><ele>289.5</ele><time>2026-04-26T17:42:21Z</time></trkpt><trkpt lat="43.17235283270617" lon="12.602949439928912"><ele>287.0</ele><time>2026-04-26T17:42:22Z</time></trkpt><trkpt lat="43.172111189748925" lon="12.602810671978252"><ele>281.5</ele><time>2026-04-26T17:42:23Z</time></trkpt><trkpt lat="43.17186030755199" lon="12.602671439280808"><ele>276.0</ele><time>2026-04-26T17:42:24Z</time></trkpt><trkpt lat="43.171611131675" lon="12.602552541748429"><ele>280.0</ele><time>2026-04-26T17:42:25Z</time></trkpt><trkpt lat="43.171373253185365" lon="12.602405870370687"><ele>284.0</ele><time>2026-04-26T17:42:26Z</time></trkpt><trkpt lat="43.17113438562245" lon="12.602250321040781"><ele>284.0</ele><time>2026-04-26T17:42:27Z</time></trkpt><trkpt lat="43.17090205223853" lon="12.602080937608251"><ele>284.0</ele><time>2026-04-26T17:42:28Z</time></trkpt><trkpt lat="43.17067210012479" lon="12.60189582847598"><ele>284.0</ele><time>2026-04-26T17:42:29Z</time></trkpt><trkpt lat="43.17044511027633" lon="12.601699244795913"><ele>284.0</ele><time>2026-04-26T17:42:30Z</time></trkpt><trkpt lat="43.17022891963582" lon="12.601495741054988"><ele>284.0</ele><time>2026-04-26T17:42:31Z</time></trkpt><trkpt lat="43.17000663734579" lon="12.601282015266214"><ele>284.0</ele><time>2026-04-26T17:42:32Z</time></trkpt><trkpt lat="43.169786733686585" lon="12.601072425853989"><ele>285.0</ele><time>2026-04-26T17:42:33Z</time></trkpt><trkpt lat="43.16956723535288" lon="12.600865777435548"><ele>286.0</ele><time>2026-04-26T17:42:34Z</time></trkpt><trkpt lat="43.16934225444173" lon="12.600673661343523"><ele>286.0</ele><time>2026-04-26T17:42:35Z</time></trkpt><trkpt lat="43.16911099697475" lon="12.600504316176716"><ele>286.0</ele><time>2026-04-26T17:42:36Z</time></trkpt><trkpt lat="43.16886791044609" lon="12.600376702764606"><ele>279.5</ele><time>2026-04-26T17:42:37Z</time></trkpt><trkpt lat="43.16862517822526" lon="12.600214507779837"><ele>273.0</ele><time>2026-04-26T17:42:38Z</time></trkpt><trkpt lat="43.16838898171111" lon="12.600074878036699"><ele>271.0</ele><time>2026-04-26T17:42:39Z</time></trkpt><trkpt lat="43.168162941956496" lon="12.599931404527064"><ele>269.0</ele><time>2026-04-26T17:42:40Z</time></trkpt><trkpt lat="43.16793279087334" lon="12.599808052737659"><ele>269.0</ele><time>2026-04-26T17:42:41Z</time></trkpt><trkpt lat="43.1676971579136" lon="12.599683174947439"><ele>269.0</ele><time>2026-04-26T17:42:42Z</time></trkpt><trkpt lat="43.16746397766627" lon="12.599544040939469"><ele>263.0</ele><time>2026-04-26T17:42:43Z</time></trkpt><trkpt lat="43.1672321043937" lon="12.599421957511124"><ele>257.0</ele><time>2026-04-26T17:42:44Z</time></trkpt><trkpt lat="43.16701073331132" lon="12.599308998239573"><ele>257.0</ele><time>2026-04-26T17:42:45Z</time></trkpt><trkpt lat="43.16679006734681" lon="12.599211826711475"><ele>257.0</ele><time>2026-04-26T17:42:46Z</time></trkpt><trkpt lat="43.16657854702254" lon="12.599107935918447"><ele>257.0</ele><time>2026-04-26T17:42:47Z</time></trkpt><trkpt lat="43.16636253956143" lon="12.599003538129935"><ele>257.0</ele><time>2026-04-26T17:42:48Z</time></trkpt><trkpt lat="43.1661473380007" lon="12.598897976842155"><ele>257.0</ele><time>2026-04-26T17:42:49Z</time></trkpt><trkpt lat="43.16593099481538" lon="12.598797863726093"><ele>257.0</ele><time>2026-04-26T17:42:50Z</time></trkpt><trkpt lat="43.1657147502745" lon="12.598696434574263"><ele>256.5</ele><time>2026-04-26T17:42:51Z</time></trkpt><trkpt lat="43.165500577266435" lon="12.598585976349296"><ele>256.0</ele><time>2026-04-26T17:42:52Z</time></trkpt><trkpt lat="43.1652802869194" lon="12.59848804295531"><ele>256.0</ele><time>2026-04-26T17:42:53Z</time></trkpt><trkpt lat="43.16506140205899" lon="12.598381474713044"><ele>256.0</ele><time>2026-04-26T17:42:54Z</time></trkpt><trkpt lat="43.164841506849584" lon="12.598272865008258"><ele>256.5</ele><time>2026-04-26T17:42:55Z</time></trkpt><trkpt lat="43.16462303499779" lon="12.598158807827026"><ele>257.0</ele><time>2026-04-26T17:42:56Z</time></trkpt><trkpt lat="43.164405576651454" lon="12.598033468788396"><ele>257.0</ele><time>2026-04-26T17:42:57Z</time></trkpt><trkpt lat="43.164188653569305" lon="12.597897704672118"><ele>257.0</ele><time>2026-04-26T17:42:58Z</time></trkpt><trkpt lat="43.16397481763639" lon="12.59775648551495"><ele>256.0</ele><time>2026-04-26T17:42:59Z</time></trkpt><trkpt lat="43.1637615504676" lon="12.597607412250108"><ele>255.0</ele><time>2026-04-26T17:43:00Z</time></trkpt><trkpt lat="43.163551712155126" lon="12.597445512403189"><ele>255.0</ele><time>2026-04-26T17:43:01Z</time></trkpt><trkpt lat="43.16334655027116" lon="12.597272253270376"><ele>255.0</ele><time>2026-04-26T17:43:02Z</time></trkpt><trkpt lat="43.16314242335285" lon="12.597097212950583"><ele>254.5</ele><time>2026-04-26T17:43:03Z</time></trkpt><trkpt lat="43.16294138416422" lon="12.596912763327806"><ele>254.0</ele><time>2026-04-26T17:43:04Z</time></trkpt><trkpt lat="43.162743599345795" lon="12.596721057243986"><ele>254.0</ele><time>2026-04-26T17:43:05Z</time></trkpt><trkpt lat="43.162545557617406" lon="12.59653111324604"><ele>254.0</ele><time>2026-04-26T17:43:06Z</time></trkpt><trkpt lat="43.16235015229668" lon="12.59634142290331"><ele>253.0</ele><time>2026-04-26T17:43:07Z</time></trkpt><trkpt lat="43.162154017797086" lon="12.596149115774326"><ele>252.0</ele><time>2026-04-26T17:43:08Z</time></trkpt><trkpt lat="43.16195861807375" lon="12.595955550730087"><ele>252.0</ele><time>2026-04-26T17:43:09Z</time></trkpt><trkpt lat="43.16176255213611" lon="12.595761171551745"><ele>252.0</ele><time>2026-04-26T17:43:10Z</time></trkpt><trkpt lat="43.16156531031913" lon="12.595568548918704"><ele>251.5</ele><time>2026-04-26T17:43:11Z</time></trkpt><trkpt lat="43.16136877853111" lon="12.59537566397704"><ele>251.0</ele><time>2026-04-26T17:43:12Z</time></trkpt><trkpt lat="43.16117427866067" lon="12.59518046573059"><ele>251.0</ele><time>2026-04-26T17:43:13Z</time></trkpt><trkpt lat="43.160975361658885" lon="12.594988635301368"><ele>251.0</ele><time>2026-04-26T17:43:14Z</time></trkpt><trkpt lat="43.16077840695576" lon="12.594788691980291"><ele>250.5</ele><time>2026-04-26T17:43:15Z</time></trkpt><trkpt lat="43.16056134380171" lon="12.59459162483854"><ele>250.0</ele><time>2026-04-26T17:43:16Z</time></trkpt><trkpt lat="43.16034269809858" lon="12.594384963009528"><ele>250.0</ele><time>2026-04-26T17:43:17Z</time></trkpt><trkpt lat="43.16012372773875" lon="12.59417005073694"><ele>250.0</ele><time>2026-04-26T17:43:18Z</time></trkpt><trkpt lat="43.15990603133632" lon="12.593947546669565"><ele>250.5</ele><time>2026-04-26T17:43:19Z</time></trkpt><trkpt lat="43.159689991608595" lon="12.593713965796354"><ele>251.0</ele><time>2026-04-26T17:43:20Z</time></trkpt><trkpt lat="43.15947865485743" lon="12.593459847346466"><ele>251.5</ele><time>2026-04-26T17:43:21Z</time></trkpt><trkpt lat="43.159274783451266" lon="12.593196925005207"><ele>252.0</ele><time>2026-04-26T17:43:22Z</time></trkpt><trkpt lat="43.15907710014044" lon="12.592919343371658"><ele>251.5</ele><time>2026-04-26T17:43:23Z</time></trkpt><trkpt lat="43.15888613984784" lon="12.592629847179989"><ele>251.0</ele><time>2026-04-26T17:43:24Z</time></trkpt><trkpt lat="43.15870229175732" lon="12.592337293455348"><ele>251.0</ele><time>2026-04-26T17:43:25Z</time></trkpt><trkpt lat="43.158525135642144" lon="12.592036779199109"><ele>251.0</ele><time>2026-04-26T17:43:26Z</time></trkpt><trkpt lat="43.15835419126401" lon="12.591731257996619"><ele>250.0</ele><time>2026-04-26T17:43:27Z</time></trkpt><trkpt lat="43.15818518439648" lon="12.591420767244806"><ele>249.0</ele><time>2026-04-26T17:43:28Z</time></trkpt><trkpt lat="43.15801628617106" lon="12.5911141900844"><ele>249.0</ele><time>2026-04-26T17:43:29Z</time></trkpt><trkpt lat="43.15784702459881" lon="12.590809766940342"><ele>249.0</ele><time>2026-04-26T17:43:30Z</time></trkpt><trkpt lat="43.157679593641085" lon="12.590496134111518"><ele>249.0</ele><time>2026-04-26T17:43:31Z</time></trkpt><trkpt lat="43.1575123183198" lon="12.59018324585598"><ele>249.0</ele><time>2026-04-26T17:43:32Z</time></trkpt><trkpt lat="43.1573454068152" lon="12.58987316920428"><ele>249.0</ele><time>2026-04-26T17:43:33Z</time></trkpt><trkpt lat="43.15717615959364" lon="12.589566013654117"><ele>249.0</ele><time>2026-04-26T17:43:34Z</time></trkpt><trkpt lat="43.15700933548585" lon="12.589253884479312"><ele>249.5</ele><time>2026-04-26T17:43:35Z</time></trkpt><trkpt lat="43.15684046463597" lon="12.588948338082409"><ele>250.0</ele><time>2026-04-26T17:43:36Z</time></trkpt><trkpt lat="43.15667781556307" lon="12.58864375965895"><ele>249.5</ele><time>2026-04-26T17:43:37Z</time></trkpt><trkpt lat="43.156511729332294" lon="12.588347754936574"><ele>249.0</ele><time>2026-04-26T17:43:38Z</time></trkpt><trkpt lat="43.15634801331081" lon="12.588047975615526"><ele>249.0</ele><time>2026-04-26T17:43:39Z</time></trkpt><trkpt lat="43.156182934088555" lon="12.587751725272273"><ele>249.0</ele><time>2026-04-26T17:43:40Z</time></trkpt><trkpt lat="43.1560173748169" lon="12.587457470810861"><ele>249.0</ele><time>2026-04-26T17:43:41Z</time></trkpt><trkpt lat="43.15584728637471" lon="12.58716158730698"><ele>249.0</ele><time>2026-04-26T17:43:42Z</time></trkpt><trkpt lat="43.15567400384967" lon="12.586861699450338"><ele>247.5</ele><time>2026-04-26T17:43:43Z</time></trkpt><trkpt lat="43.155497463684526" lon="12.586567622900516"><ele>246.0</ele><time>2026-04-26T17:43:44Z</time></trkpt><trkpt lat="43.15531863967354" lon="12.586272367996656"><ele>247.0</ele><time>2026-04-26T17:43:45Z</time></trkpt><trkpt lat="43.15513605799419" lon="12.585982962879362"><ele>248.0</ele><time>2026-04-26T17:43:46Z</time></trkpt><trkpt lat="43.15494997386128" lon="12.585700523794337"><ele>247.0</ele><time>2026-04-26T17:43:47Z</time></trkpt><trkpt lat="43.1547638894843" lon="12.585411768169156"><ele>246.0</ele><time>2026-04-26T17:43:48Z</time></trkpt><trkpt lat="43.154572011661315" lon="12.58513489297283"><ele>245.0</ele><time>2026-04-26T17:43:49Z</time></trkpt><trkpt lat="43.15437721238353" lon="12.584867559444872"><ele>244.0</ele><time>2026-04-26T17:43:50Z</time></trkpt><trkpt lat="43.15418089671074" lon="12.584597531615255"><ele>243.5</ele><time>2026-04-26T17:43:51Z</time></trkpt><trkpt lat="43.15398431773534" lon="12.58433335214417"><ele>243.0</ele><time>2026-04-26T17:43:52Z</time></trkpt><trkpt lat="43.15379003336984" lon="12.584070717192535"><ele>243.0</ele><time>2026-04-26T17:43:53Z</time></trkpt><trkpt lat="43.153594783702495" lon="12.583812117700553"><ele>243.0</ele><time>2026-04-26T17:43:54Z</time></trkpt><trkpt lat="43.15339913674767" lon="12.583553789104457"><ele>243.5</ele><time>2026-04-26T17:43:55Z</time></trkpt><trkpt lat="43.153202836342636" lon="12.583302207270222"><ele>244.0</ele><time>2026-04-26T17:43:56Z</time></trkpt><trkpt lat="43.15300642553097" lon="12.583054455289275"><ele>244.5</ele><time>2026-04-26T17:43:57Z</time></trkpt><trkpt lat="43.152809928355595" lon="12.582808951901887"><ele>245.0</ele><time>2026-04-26T17:43:58Z</time></trkpt><trkpt lat="43.15261552770968" lon="12.582565452175919"><ele>245.0</ele><time>2026-04-26T17:43:59Z</time></trkpt><trkpt lat="43.152419626007834" lon="12.582320781534474"><ele>245.0</ele><time>2026-04-26T17:44:00Z</time></trkpt><trkpt lat="43.15222694167628" lon="12.582070195804679"><ele>245.0</ele><time>2026-04-26T17:44:01Z</time></trkpt><trkpt lat="43.15203987455671" lon="12.581808298840585"><ele>245.0</ele><time>2026-04-26T17:44:02Z</time></trkpt><trkpt lat="43.15185630244226" lon="12.581541376705019"><ele>245.0</ele><time>2026-04-26T17:44:03Z</time></trkpt><trkpt lat="43.15167921794217" lon="12.581266144825605"><ele>245.0</ele><time>2026-04-26T17:44:04Z</time></trkpt><trkpt lat="43.15150872612222" lon="12.580980149165473"><ele>244.5</ele><time>2026-04-26T17:44:05Z</time></trkpt><trkpt lat="43.151347404103" lon="12.580680227467214"><ele>244.0</ele><time>2026-04-26T17:44:06Z</time></trkpt><trkpt lat="43.15119628534431" lon="12.580374468790309"><ele>242.5</ele><time>2026-04-26T17:44:07Z</time></trkpt><trkpt lat="43.15105606816787" lon="12.580053194935216"><ele>241.0</ele><time>2026-04-26T17:44:08Z</time></trkpt><trkpt lat="43.150924136111826" lon="12.579725934682786"><ele>241.5</ele><time>2026-04-26T17:44:09Z</time></trkpt><trkpt lat="43.150799545968695" lon="12.579393863086676"><ele>242.0</ele><time>2026-04-26T17:44:10Z</time></trkpt><trkpt lat="43.150684462797294" lon="12.579055872128459"><ele>244.0</ele><time>2026-04-26T17:44:11Z</time></trkpt><trkpt lat="43.150576536085254" lon="12.578714346190116"><ele>246.0</ele><time>2026-04-26T17:44:12Z</time></trkpt><trkpt lat="43.150471632861624" lon="12.5783697298459"><ele>246.5</ele><time>2026-04-26T17:44:13Z</time></trkpt><trkpt lat="43.15036860899556" lon="12.578026822771857"><ele>247.0</ele><time>2026-04-26T17:44:14Z</time></trkpt><trkpt lat="43.15026348786599" lon="12.577688851768682"><ele>247.0</ele><time>2026-04-26T17:44:15Z</time></trkpt><trkpt lat="43.15015982537485" lon="12.577352693583961"><ele>247.0</ele><time>2026-04-26T17:44:16Z</time></trkpt><trkpt lat="43.15005452673001" lon="12.577011911860835"><ele>247.0</ele><time>2026-04-26T17:44:17Z</time></trkpt><trkpt lat="43.149950890486544" lon="12.576668724076292"><ele>247.0</ele><time>2026-04-26T17:44:18Z</time></trkpt><trkpt lat="43.14984631548932" lon="12.576326829840832"><ele>261.0</ele><time>2026-04-26T17:44:19Z</time></trkpt><trkpt lat="43.14974188681869" lon="12.575979300810914"><ele>275.0</ele><time>2026-04-26T17:44:20Z</time></trkpt><trkpt lat="43.14963656495833" lon="12.57563155162964"><ele>289.5</ele><time>2026-04-26T17:44:21Z</time></trkpt><trkpt lat="43.149530261958425" lon="12.575282674467143"><ele>304.0</ele><time>2026-04-26T17:44:22Z</time></trkpt><trkpt lat="43.14942360702198" lon="12.574931729553294"><ele>304.0</ele><time>2026-04-26T17:44:23Z</time></trkpt><trkpt lat="43.14931423602776" lon="12.57457212641522"><ele>304.0</ele><time>2026-04-26T17:44:24.019Z</time></trkpt><trkpt lat="43.149206092912635" lon="12.574219184965926"><ele>315.0</ele><time>2026-04-26T17:44:25.019Z</time></trkpt><trkpt lat="43.149096984432816" lon="12.57386880280501"><ele>326.0</ele><time>2026-04-26T17:44:26.02Z</time></trkpt><trkpt lat="43.14898696315575" lon="12.57351797189522"><ele>327.0</ele><time>2026-04-26T17:44:27.015Z</time></trkpt><trkpt lat="43.148876152893095" lon="12.573166189151086"><ele>328.0</ele><time>2026-04-26T17:44:28.019Z</time></trkpt><trkpt lat="43.148765687179036" lon="12.572815515153714"><ele>328.0</ele><time>2026-04-26T17:44:29.022Z</time></trkpt><trkpt lat="43.14865200388242" lon="12.572468950229739"><ele>328.0</ele><time>2026-04-26T17:44:30.019Z</time></trkpt><trkpt lat="43.1485473866368" lon="12.572116646630686"><ele>321.5</ele><time>2026-04-26T17:44:31.018Z</time></trkpt><trkpt lat="43.148437854881244" lon="12.571768654149837"><ele>315.0</ele><time>2026-04-26T17:44:32.019Z</time></trkpt><trkpt lat="43.14675869424189" lon="12.566433381300946"><ele>283.5</ele><time>2026-04-26T17:44:47Z</time></trkpt><trkpt lat="43.146632107416266" lon="12.566089928975916"><ele>252.0</ele><time>2026-04-26T17:44:48Z</time></trkpt><trkpt lat="43.146508938217124" lon="12.565752219475899"><ele>248.0</ele><time>2026-04-26T17:44:49Z</time></trkpt><trkpt lat="43.14637121550727" lon="12.565415550608835"><ele>244.0</ele><time>2026-04-26T17:44:50Z</time></trkpt><trkpt lat="43.14622488829039" lon="12.565092090944525"><ele>244.0</ele><time>2026-04-26T17:44:51Z</time></trkpt><trkpt lat="43.14609171662648" lon="12.564753592300553"><ele>244.0</ele><time>2026-04-26T17:44:52Z</time></trkpt><trkpt lat="43.145939925294265" lon="12.564430237873534"><ele>245.0</ele><time>2026-04-26T17:44:53Z</time></trkpt><trkpt lat="43.14579048359259" lon="12.564095353537096"><ele>246.0</ele><time>2026-04-26T17:44:54Z</time></trkpt><trkpt lat="43.14564111567745" lon="12.563759429602682"><ele>246.0</ele><time>2026-04-26T17:44:55Z</time></trkpt><trkpt lat="43.145489978339725" lon="12.563423993043834"><ele>246.0</ele><time>2026-04-26T17:44:56Z</time></trkpt><trkpt lat="43.14533724727033" lon="12.563076724831525"><ele>247.5</ele><time>2026-04-26T17:44:57.017Z</time></trkpt><trkpt lat="43.14518351729192" lon="12.562742572462323"><ele>249.0</ele><time>2026-04-26T17:44:58.02Z</time></trkpt><trkpt lat="43.14503348564696" lon="12.562403509055116"><ele>249.0</ele><time>2026-04-26T17:44:59.02Z</time></trkpt><trkpt lat="43.14488388787238" lon="12.562063696104536"><ele>249.0</ele><time>2026-04-26T17:45:00.02Z</time></trkpt><trkpt lat="43.14473313148245" lon="12.561725220231542"><ele>236.0</ele><time>2026-04-26T17:45:01.021Z</time></trkpt><trkpt lat="43.14379870895589" lon="12.559849731635824"><ele>234.5</ele><time>2026-04-26T17:45:07Z</time></trkpt><trkpt lat="43.14364870771611" lon="12.559526243614288"><ele>233.0</ele><time>2026-04-26T17:45:08Z</time></trkpt><trkpt lat="43.1435086329413" lon="12.55917961951867"><ele>233.0</ele><time>2026-04-26T17:45:09Z</time></trkpt><trkpt lat="43.143368569036" lon="12.558847587689225"><ele>233.0</ele><time>2026-04-26T17:45:10Z</time></trkpt><trkpt lat="43.14321358363507" lon="12.55854558933172"><ele>232.0</ele><time>2026-04-26T17:45:11Z</time></trkpt><trkpt lat="43.14306226824505" lon="12.558236171626435"><ele>231.0</ele><time>2026-04-26T17:45:12Z</time></trkpt><trkpt lat="43.14293770222664" lon="12.557877335108588"><ele>232.0</ele><time>2026-04-26T17:45:13Z</time></trkpt><trkpt lat="43.14279154991087" lon="12.557552981545658"><ele>233.0</ele><time>2026-04-26T17:45:14Z</time></trkpt><trkpt lat="43.142645433449864" lon="12.557236892746406"><ele>232.0</ele><time>2026-04-26T17:45:15Z</time></trkpt><trkpt lat="43.1424990918202" lon="12.556921913330351"><ele>231.0</ele><time>2026-04-26T17:45:16Z</time></trkpt><trkpt lat="43.14235436849278" lon="12.556606112078837"><ele>248.5</ele><time>2026-04-26T17:45:17Z</time></trkpt><trkpt lat="43.14221279786661" lon="12.5562864460263"><ele>266.0</ele><time>2026-04-26T17:45:18Z</time></trkpt><trkpt lat="43.14207229890274" lon="12.555961493696962"><ele>267.0</ele><time>2026-04-26T17:45:19Z</time></trkpt><trkpt lat="43.141929018705625" lon="12.55563836171807"><ele>268.0</ele><time>2026-04-26T17:45:20Z</time></trkpt><trkpt lat="43.14178224939554" lon="12.555322047079414"><ele>268.0</ele><time>2026-04-26T17:45:21Z</time></trkpt><trkpt lat="43.14163540964069" lon="12.5550002009225"><ele>268.0</ele><time>2026-04-26T17:45:22Z</time></trkpt><trkpt lat="43.141489685406086" lon="12.554677159642655"><ele>276.5</ele><time>2026-04-26T17:45:23Z</time></trkpt><trkpt lat="43.14134085941592" lon="12.554343742853417"><ele>285.0</ele><time>2026-04-26T17:45:24.022Z</time></trkpt><trkpt lat="43.14119522571427" lon="12.554017022161926"><ele>290.0</ele><time>2026-04-26T17:45:25.022Z</time></trkpt><trkpt lat="43.14104829609741" lon="12.553690297229737"><ele>295.0</ele><time>2026-04-26T17:45:26.02Z</time></trkpt><trkpt lat="43.140901670011786" lon="12.553362422367115"><ele>295.0</ele><time>2026-04-26T17:45:27.02Z</time></trkpt><trkpt lat="43.14075758399206" lon="12.55303101889246"><ele>295.0</ele><time>2026-04-26T17:45:28.02Z</time></trkpt><trkpt lat="43.140618670236776" lon="12.552699441190184"><ele>295.0</ele><time>2026-04-26T17:45:29.021Z</time></trkpt><trkpt lat="43.14048261309091" lon="12.552369069907648"><ele>295.0</ele><time>2026-04-26T17:45:30.015Z</time></trkpt><trkpt lat="43.139326490610316" lon="12.548580303720133"><ele>283.0</ele><time>2026-04-26T17:45:34.559Z</time></trkpt><trkpt lat="43.139078159229776" lon="12.547270919586538"><ele>263.0</ele><time>2026-04-26T17:45:35.56Z</time></trkpt><trkpt lat="43.1389494" lon="12.5463867"><ele>252.0</ele><time>2026-04-26T17:45:36.56Z</time></trkpt><trkpt lat="43.13881279831611" lon="12.545047936638944"><ele>243.0</ele><time>2026-04-26T17:45:50.56Z</time></trkpt><trkpt lat="43.13874090414268" lon="12.543699761635562"><ele>243.0</ele><time>2026-04-26T17:45:51.56Z</time></trkpt><trkpt lat="43.13871269583994" lon="12.543040746834635"><ele>239.0</ele><time>2026-04-26T17:45:56Z</time></trkpt><trkpt lat="43.1387013365836" lon="12.542679850307929"><ele>235.0</ele><time>2026-04-26T17:45:57Z</time></trkpt><trkpt lat="43.13868672926537" lon="12.542340441300329"><ele>234.0</ele><time>2026-04-26T17:45:58Z</time></trkpt><trkpt lat="43.13869389476571" lon="12.5419794408965"><ele>233.0</ele><time>2026-04-26T17:45:59Z</time></trkpt><trkpt lat="43.13868996187373" lon="12.541631365195755"><ele>233.0</ele><time>2026-04-26T17:46:00Z</time></trkpt><trkpt lat="43.13867523243343" lon="12.541284069734921"><ele>233.0</ele><time>2026-04-26T17:46:01Z</time></trkpt><trkpt lat="43.13865886787584" lon="12.540943538873458"><ele>231.0</ele><time>2026-04-26T17:46:02Z</time></trkpt><trkpt lat="43.13863343974349" lon="12.540592443454692"><ele>229.0</ele><time>2026-04-26T17:46:03Z</time></trkpt><trkpt lat="43.13860420981219" lon="12.540251924668473"><ele>228.0</ele><time>2026-04-26T17:46:04Z</time></trkpt><trkpt lat="43.13854901706737" lon="12.539900932754634"><ele>227.0</ele><time>2026-04-26T17:46:05Z</time></trkpt><trkpt lat="43.13849733824756" lon="12.539551532250199"><ele>225.5</ele><time>2026-04-26T17:46:06Z</time></trkpt><trkpt lat="43.13844085541157" lon="12.539198521162424"><ele>224.0</ele><time>2026-04-26T17:46:07Z</time></trkpt><trkpt lat="43.13837491432423" lon="12.538844502501524"><ele>223.5</ele><time>2026-04-26T17:46:08Z</time></trkpt><trkpt lat="43.13831245518077" lon="12.538486960552774"><ele>223.0</ele><time>2026-04-26T17:46:09Z</time></trkpt><trkpt lat="43.13824200971294" lon="12.53812552353648"><ele>222.5</ele><time>2026-04-26T17:46:10Z</time></trkpt><trkpt lat="43.138173290291775" lon="12.537763464874484"><ele>222.0</ele><time>2026-04-26T17:46:11Z</time></trkpt><trkpt lat="43.13810096603785" lon="12.537400923139018"><ele>223.0</ele><time>2026-04-26T17:46:12Z</time></trkpt><trkpt lat="43.138030431123596" lon="12.537036807184109"><ele>224.0</ele><time>2026-04-26T17:46:13Z</time></trkpt><trkpt lat="43.13795785219214" lon="12.536674842432232"><ele>224.0</ele><time>2026-04-26T17:46:14Z</time></trkpt><trkpt lat="43.13788727860006" lon="12.53631454801986"><ele>224.0</ele><time>2026-04-26T17:46:15Z</time></trkpt><trkpt lat="43.13781799240254" lon="12.535955805079135"><ele>224.0</ele><time>2026-04-26T17:46:16Z</time></trkpt><trkpt lat="43.13774899592557" lon="12.5355976789178"><ele>224.0</ele><time>2026-04-26T17:46:17Z</time></trkpt><trkpt lat="43.137676515078546" lon="12.535243891425116"><ele>224.5</ele><time>2026-04-26T17:46:18Z</time></trkpt><trkpt lat="43.13760256753906" lon="12.534890856549096"><ele>225.0</ele><time>2026-04-26T17:46:19Z</time></trkpt><trkpt lat="43.13752981749142" lon="12.534540032024735"><ele>225.5</ele><time>2026-04-26T17:46:20Z</time></trkpt><trkpt lat="43.137456730966065" lon="12.534191065539403"><ele>226.0</ele><time>2026-04-26T17:46:21Z</time></trkpt><trkpt lat="43.13738188684704" lon="12.533841344935995"><ele>225.0</ele><time>2026-04-26T17:46:22Z</time></trkpt><trkpt lat="43.13730697822498" lon="12.533492295177293"><ele>224.0</ele><time>2026-04-26T17:46:23Z</time></trkpt><trkpt lat="43.137234645018985" lon="12.53314318892465"><ele>224.0</ele><time>2026-04-26T17:46:24Z</time></trkpt><trkpt lat="43.137160081487046" lon="12.532796297815292"><ele>224.0</ele><time>2026-04-26T17:46:25Z</time></trkpt><trkpt lat="43.13708779231723" lon="12.53245162728277"><ele>224.0</ele><time>2026-04-26T17:46:26Z</time></trkpt><trkpt lat="43.1370173773873" lon="12.532104133951599"><ele>224.0</ele><time>2026-04-26T17:46:27Z</time></trkpt><trkpt lat="43.136945740584274" lon="12.531759165084761"><ele>224.0</ele><time>2026-04-26T17:46:28Z</time></trkpt><trkpt lat="43.13687439604817" lon="12.531416900429504"><ele>224.0</ele><time>2026-04-26T17:46:29Z</time></trkpt><trkpt lat="43.13680261620058" lon="12.531075408080943"><ele>225.0</ele><time>2026-04-26T17:46:30Z</time></trkpt><trkpt lat="43.13672701751628" lon="12.530739484179815"><ele>226.0</ele><time>2026-04-26T17:46:31Z</time></trkpt><trkpt lat="43.136652668005034" lon="12.53040119291512"><ele>226.0</ele><time>2026-04-26T17:46:32Z</time></trkpt><trkpt lat="43.13658529323495" lon="12.530062680841517"><ele>226.0</ele><time>2026-04-26T17:46:33Z</time></trkpt><trkpt lat="43.136511852283114" lon="12.529729472242938"><ele>225.5</ele><time>2026-04-26T17:46:34Z</time></trkpt><trkpt lat="43.13643777271699" lon="12.529397021813205"><ele>225.0</ele><time>2026-04-26T17:46:35Z</time></trkpt><trkpt lat="43.13635886612635" lon="12.529065020539461"><ele>225.0</ele><time>2026-04-26T17:46:36Z</time></trkpt><trkpt lat="43.136277203919406" lon="12.528730300299411"><ele>225.0</ele><time>2026-04-26T17:46:37Z</time></trkpt><trkpt lat="43.13618953495596" lon="12.528399125636565"><ele>225.5</ele><time>2026-04-26T17:46:38Z</time></trkpt><trkpt lat="43.13609294048072" lon="12.52806952770082"><ele>226.0</ele><time>2026-04-26T17:46:39Z</time></trkpt><trkpt lat="43.1359853385054" lon="12.527745676155552"><ele>227.5</ele><time>2026-04-26T17:46:40Z</time></trkpt><trkpt lat="43.135870688661065" lon="12.527423900880644"><ele>229.0</ele><time>2026-04-26T17:46:41Z</time></trkpt><trkpt lat="43.13574930126904" lon="12.527105249899654"><ele>227.5</ele><time>2026-04-26T17:46:42Z</time></trkpt><trkpt lat="43.13562116720214" lon="12.526793133592227"><ele>226.0</ele><time>2026-04-26T17:46:43Z</time></trkpt><trkpt lat="43.13548283803395" lon="12.526490852681121"><ele>226.0</ele><time>2026-04-26T17:46:44Z</time></trkpt><trkpt lat="43.135336047040006" lon="12.526194126633067"><ele>226.0</ele><time>2026-04-26T17:46:45Z</time></trkpt><trkpt lat="43.135179989228114" lon="12.525904122753616"><ele>226.0</ele><time>2026-04-26T17:46:46Z</time></trkpt><trkpt lat="43.135017327645166" lon="12.525623160835336"><ele>226.0</ele><time>2026-04-26T17:46:47Z</time></trkpt><trkpt lat="43.134850625457595" lon="12.525348169456331"><ele>226.5</ele><time>2026-04-26T17:46:48Z</time></trkpt><trkpt lat="43.1346678158449" lon="12.52508827386485"><ele>227.0</ele><time>2026-04-26T17:46:49Z</time></trkpt><trkpt lat="43.13447847236084" lon="12.524833843944853"><ele>227.0</ele><time>2026-04-26T17:46:50Z</time></trkpt><trkpt lat="43.13428353817834" lon="12.524586795835729"><ele>227.0</ele><time>2026-04-26T17:46:51Z</time></trkpt><trkpt lat="43.134081762154565" lon="12.524351911253682"><ele>227.0</ele><time>2026-04-26T17:46:52Z</time></trkpt><trkpt lat="43.13387612384736" lon="12.524120178642827"><ele>227.0</ele><time>2026-04-26T17:46:53Z</time></trkpt><trkpt lat="43.13366614487476" lon="12.523901115754965"><ele>228.0</ele><time>2026-04-26T17:46:54Z</time></trkpt><trkpt lat="43.133451839023856" lon="12.52368399588697"><ele>229.0</ele><time>2026-04-26T17:46:55Z</time></trkpt><trkpt lat="43.13323020747169" lon="12.52348232657114"><ele>227.5</ele><time>2026-04-26T17:46:56Z</time></trkpt><trkpt lat="43.133003366020944" lon="12.523291971475977"><ele>226.0</ele><time>2026-04-26T17:46:57Z</time></trkpt><trkpt lat="43.1327742658056" lon="12.523105561703039"><ele>226.0</ele><time>2026-04-26T17:46:58Z</time></trkpt><trkpt lat="43.1325441096111" lon="12.522921443238813"><ele>226.0</ele><time>2026-04-26T17:46:59Z</time></trkpt><trkpt lat="43.13231267232986" lon="12.522735433996553"><ele>224.5</ele><time>2026-04-26T17:47:00Z</time></trkpt><trkpt lat="43.132082869444325" lon="12.522542905827956"><ele>223.0</ele><time>2026-04-26T17:47:01Z</time></trkpt><trkpt lat="43.1318525870608" lon="12.522350897950874"><ele>223.0</ele><time>2026-04-26T17:47:02Z</time></trkpt><trkpt lat="43.13162266168567" lon="12.522161188894536"><ele>223.0</ele><time>2026-04-26T17:47:03Z</time></trkpt><trkpt lat="43.13139282806338" lon="12.521974693661853"><ele>223.5</ele><time>2026-04-26T17:47:04Z</time></trkpt><trkpt lat="43.131167833294406" lon="12.521786641676224"><ele>224.0</ele><time>2026-04-26T17:47:05Z</time></trkpt><trkpt lat="43.130947107724324" lon="12.521601005622214"><ele>224.0</ele><time>2026-04-26T17:47:06Z</time></trkpt><trkpt lat="43.130732948639604" lon="12.521424287300224"><ele>224.0</ele><time>2026-04-26T17:47:07Z</time></trkpt><trkpt lat="43.13052534923565" lon="12.5212429414669"><ele>223.5</ele><time>2026-04-26T17:47:08Z</time></trkpt><trkpt lat="43.13031757085903" lon="12.521064525992704"><ele>223.0</ele><time>2026-04-26T17:47:09Z</time></trkpt><trkpt lat="43.130101372988584" lon="12.520888746966426"><ele>222.0</ele><time>2026-04-26T17:47:10Z</time></trkpt><trkpt lat="43.129880185018955" lon="12.52070699569276"><ele>221.0</ele><time>2026-04-26T17:47:11Z</time></trkpt><trkpt lat="43.12966014487405" lon="12.520528103028816"><ele>222.0</ele><time>2026-04-26T17:47:12Z</time></trkpt><trkpt lat="43.12943504910066" lon="12.520326197281197"><ele>223.0</ele><time>2026-04-26T17:47:13Z</time></trkpt><trkpt lat="43.129202891214945" lon="12.520159211424719"><ele>221.5</ele><time>2026-04-26T17:47:14Z</time></trkpt><trkpt lat="43.12897534102766" lon="12.519969176364961"><ele>220.0</ele><time>2026-04-26T17:47:15Z</time></trkpt><trkpt lat="43.128749750390604" lon="12.5197702874024"><ele>220.0</ele><time>2026-04-26T17:47:16Z</time></trkpt><trkpt lat="43.128523700335656" lon="12.519577396406973"><ele>220.0</ele><time>2026-04-26T17:47:17Z</time></trkpt><trkpt lat="43.12829526812413" lon="12.51938703414434"><ele>220.0</ele><time>2026-04-26T17:47:18Z</time></trkpt><trkpt lat="43.12806681319549" lon="12.519196320504737"><ele>220.0</ele><time>2026-04-26T17:47:19Z</time></trkpt><trkpt lat="43.12783688736877" lon="12.519010165814304"><ele>220.0</ele><time>2026-04-26T17:47:20Z</time></trkpt><trkpt lat="43.12760860007833" lon="12.518822519034176"><ele>220.0</ele><time>2026-04-26T17:47:21Z</time></trkpt><trkpt lat="43.127381502598666" lon="12.518633252474551"><ele>220.0</ele><time>2026-04-26T17:47:22Z</time></trkpt><trkpt lat="43.1271555272388" lon="12.518434534227621"><ele>220.0</ele><time>2026-04-26T17:47:23Z</time></trkpt><trkpt lat="43.126925250125005" lon="12.518248620809416"><ele>220.0</ele><time>2026-04-26T17:47:24Z</time></trkpt><trkpt lat="43.12669493726543" lon="12.518063025252085"><ele>220.0</ele><time>2026-04-26T17:47:25Z</time></trkpt><trkpt lat="43.12646784461595" lon="12.517876582729338"><ele>219.5</ele><time>2026-04-26T17:47:26Z</time></trkpt><trkpt lat="43.12624123693306" lon="12.51768994790558"><ele>219.0</ele><time>2026-04-26T17:47:27Z</time></trkpt><trkpt lat="43.126015229744525" lon="12.517505810906702"><ele>219.0</ele><time>2026-04-26T17:47:28Z</time></trkpt><trkpt lat="43.125789782114374" lon="12.517322404999101"><ele>219.0</ele><time>2026-04-26T17:47:29Z</time></trkpt><trkpt lat="43.125565257246386" lon="12.517138386665671"><ele>220.0</ele><time>2026-04-26T17:47:30Z</time></trkpt><trkpt lat="43.125343234638954" lon="12.516945681410276"><ele>221.0</ele><time>2026-04-26T17:47:31Z</time></trkpt><trkpt lat="43.12511943509489" lon="12.51675502771809"><ele>221.0</ele><time>2026-04-26T17:47:32Z</time></trkpt><trkpt lat="43.124899615431985" lon="12.516554323787643"><ele>221.0</ele><time>2026-04-26T17:47:33Z</time></trkpt><trkpt lat="43.12467752996271" lon="12.516365788187612"><ele>221.0</ele><time>2026-04-26T17:47:34Z</time></trkpt><trkpt lat="43.12445613927943" lon="12.516179868844276"><ele>221.0</ele><time>2026-04-26T17:47:35Z</time></trkpt><trkpt lat="43.1242327435057" lon="12.516005055683602"><ele>221.0</ele><time>2026-04-26T17:47:36Z</time></trkpt><trkpt lat="43.124010131944914" lon="12.515816408059207"><ele>221.0</ele><time>2026-04-26T17:47:37Z</time></trkpt><trkpt lat="43.1237865361779" lon="12.515639446793363"><ele>221.0</ele><time>2026-04-26T17:47:38Z</time></trkpt><trkpt lat="43.123564055857194" lon="12.51545844486846"><ele>221.0</ele><time>2026-04-26T17:47:39Z</time></trkpt><trkpt lat="43.123345448648855" lon="12.515274843731598"><ele>219.5</ele><time>2026-04-26T17:47:40Z</time></trkpt><trkpt lat="43.12312657451848" lon="12.515093592411025"><ele>218.0</ele><time>2026-04-26T17:47:41Z</time></trkpt><trkpt lat="43.12290316326517" lon="12.514914100290738"><ele>218.0</ele><time>2026-04-26T17:47:42Z</time></trkpt><trkpt lat="43.12268128372416" lon="12.51473211492101"><ele>218.0</ele><time>2026-04-26T17:47:43Z</time></trkpt><trkpt lat="43.12245761954533" lon="12.514556685954057"><ele>217.5</ele><time>2026-04-26T17:47:44Z</time></trkpt><trkpt lat="43.12223622515466" lon="12.51437137288717"><ele>217.0</ele><time>2026-04-26T17:47:45Z</time></trkpt><trkpt lat="43.12201444710301" lon="12.514185219686135"><ele>217.0</ele><time>2026-04-26T17:47:46Z</time></trkpt><trkpt lat="43.121785804350914" lon="12.514003297302096"><ele>217.0</ele><time>2026-04-26T17:47:47Z</time></trkpt><trkpt lat="43.12156387236538" lon="12.513818924207962"><ele>217.0</ele><time>2026-04-26T17:47:48Z</time></trkpt><trkpt lat="43.12134163116213" lon="12.513632400758729"><ele>217.0</ele><time>2026-04-26T17:47:49Z</time></trkpt><trkpt lat="43.121117427464725" lon="12.513453592138777"><ele>217.0</ele><time>2026-04-26T17:47:50Z</time></trkpt><trkpt lat="43.12089410133783" lon="12.51326821544781"><ele>217.0</ele><time>2026-04-26T17:47:51Z</time></trkpt><trkpt lat="43.1206726121736" lon="12.513077202155419"><ele>217.0</ele><time>2026-04-26T17:47:52Z</time></trkpt><trkpt lat="43.120450371824504" lon="12.512889870850811"><ele>217.0</ele><time>2026-04-26T17:47:53Z</time></trkpt><trkpt lat="43.12022838785741" lon="12.512704726316095"><ele>217.0</ele><time>2026-04-26T17:47:54Z</time></trkpt><trkpt lat="43.120005145112884" lon="12.512522483035209"><ele>217.0</ele><time>2026-04-26T17:47:55Z</time></trkpt><trkpt lat="43.11978310124204" lon="12.512344497247895"><ele>216.5</ele><time>2026-04-26T17:47:56Z</time></trkpt><trkpt lat="43.11956395710421" lon="12.512158646701245"><ele>216.0</ele><time>2026-04-26T17:47:57Z</time></trkpt><trkpt lat="43.11934349825517" lon="12.511980583262293"><ele>217.0</ele><time>2026-04-26T17:47:58Z</time></trkpt><trkpt lat="43.11912413903621" lon="12.511797634035528"><ele>218.0</ele><time>2026-04-26T17:47:59Z</time></trkpt><trkpt lat="43.1189047159034" lon="12.51161637449962"><ele>218.0</ele><time>2026-04-26T17:48:00Z</time></trkpt><trkpt lat="43.11868331919547" lon="12.511437202700877"><ele>218.0</ele><time>2026-04-26T17:48:01Z</time></trkpt><trkpt lat="43.11846412612328" lon="12.51125447394337"><ele>218.0</ele><time>2026-04-26T17:48:02Z</time></trkpt><trkpt lat="43.11824369233296" lon="12.511079518887195"><ele>218.0</ele><time>2026-04-26T17:48:03Z</time></trkpt><trkpt lat="43.118026401368134" lon="12.510896414235596"><ele>218.0</ele><time>2026-04-26T17:48:04Z</time></trkpt><trkpt lat="43.1178056870601" lon="12.510718188066845"><ele>218.0</ele><time>2026-04-26T17:48:05Z</time></trkpt><trkpt lat="43.11758662442548" lon="12.510541893939063"><ele>218.5</ele><time>2026-04-26T17:48:06Z</time></trkpt><trkpt lat="43.11736486015197" lon="12.510361393903828"><ele>219.0</ele><time>2026-04-26T17:48:07Z</time></trkpt><trkpt lat="43.11714864470285" lon="12.510185696338953"><ele>219.0</ele><time>2026-04-26T17:48:08Z</time></trkpt><trkpt lat="43.11693269398836" lon="12.510003188849417"><ele>219.0</ele><time>2026-04-26T17:48:09Z</time></trkpt><trkpt lat="43.116719988482714" lon="12.509827281483725"><ele>219.0</ele><time>2026-04-26T17:48:10Z</time></trkpt><trkpt lat="43.116504131151125" lon="12.509653648762711"><ele>219.0</ele><time>2026-04-26T17:48:11Z</time></trkpt><trkpt lat="43.116286432192894" lon="12.509470278998418"><ele>219.0</ele><time>2026-04-26T17:48:12Z</time></trkpt><trkpt lat="43.11606722875022" lon="12.509289039415432"><ele>219.0</ele><time>2026-04-26T17:48:13Z</time></trkpt><trkpt lat="43.11585075125225" lon="12.50910554792211"><ele>218.5</ele><time>2026-04-26T17:48:14Z</time></trkpt><trkpt lat="43.11562833053702" lon="12.50892957529348"><ele>218.0</ele><time>2026-04-26T17:48:15Z</time></trkpt><trkpt lat="43.11540149996722" lon="12.508746511193833"><ele>217.5</ele><time>2026-04-26T17:48:16Z</time></trkpt><trkpt lat="43.115177678852945" lon="12.50855770659388"><ele>217.0</ele><time>2026-04-26T17:48:17Z</time></trkpt><trkpt lat="43.11495330666411" lon="12.508370153617829"><ele>217.5</ele><time>2026-04-26T17:48:18Z</time></trkpt><trkpt lat="43.114728167179436" lon="12.508185935196467"><ele>218.0</ele><time>2026-04-26T17:48:19Z</time></trkpt><trkpt lat="43.114501621500004" lon="12.5080019780606"><ele>217.5</ele><time>2026-04-26T17:48:20Z</time></trkpt><trkpt lat="43.11427455577183" lon="12.507820840204637"><ele>217.0</ele><time>2026-04-26T17:48:21Z</time></trkpt><trkpt lat="43.11404573587473" lon="12.507639519792438"><ele>216.5</ele><time>2026-04-26T17:48:22Z</time></trkpt><trkpt lat="43.11382136916901" lon="12.507449049913157"><ele>216.0</ele><time>2026-04-26T17:48:23Z</time></trkpt><trkpt lat="43.1135992465571" lon="12.507247019323799"><ele>215.5</ele><time>2026-04-26T17:48:24Z</time></trkpt><trkpt lat="43.11337279528586" lon="12.507063756910751"><ele>215.0</ele><time>2026-04-26T17:48:25Z</time></trkpt><trkpt lat="43.11315216569433" lon="12.50686652410771"><ele>214.5</ele><time>2026-04-26T17:48:26Z</time></trkpt><trkpt lat="43.11293084763525" lon="12.50668342590032"><ele>214.0</ele><time>2026-04-26T17:48:27Z</time></trkpt><trkpt lat="43.11271903985585" lon="12.506479409339542"><ele>214.0</ele><time>2026-04-26T17:48:28Z</time></trkpt><trkpt lat="43.11251169834464" lon="12.506265163713747"><ele>214.0</ele><time>2026-04-26T17:48:29Z</time></trkpt><trkpt lat="43.11230879476108" lon="12.506047173641887"><ele>215.0</ele><time>2026-04-26T17:48:30Z</time></trkpt><trkpt lat="43.11211348994042" lon="12.505818539706553"><ele>216.0</ele><time>2026-04-26T17:48:31Z</time></trkpt><trkpt lat="43.11193599086196" lon="12.505573658023296"><ele>217.0</ele><time>2026-04-26T17:48:32Z</time></trkpt><trkpt lat="43.1117571225594" lon="12.505323977197417"><ele>218.0</ele><time>2026-04-26T17:48:33Z</time></trkpt><trkpt lat="43.11159794116996" lon="12.505052420872712"><ele>217.0</ele><time>2026-04-26T17:48:34Z</time></trkpt><trkpt lat="43.11144801265536" lon="12.504778013966158"><ele>216.0</ele><time>2026-04-26T17:48:35Z</time></trkpt><trkpt lat="43.111301912410376" lon="12.504494487621667"><ele>218.0</ele><time>2026-04-26T17:48:36Z</time></trkpt><trkpt lat="43.11117193210056" lon="12.504195090982577"><ele>220.0</ele><time>2026-04-26T17:48:37Z</time></trkpt><trkpt lat="43.11105488299456" lon="12.503884562399728"><ele>221.5</ele><time>2026-04-26T17:48:38Z</time></trkpt><trkpt lat="43.110942322896186" lon="12.503566438729186"><ele>223.0</ele><time>2026-04-26T17:48:39Z</time></trkpt><trkpt lat="43.110834285298544" lon="12.503251625780258"><ele>225.0</ele><time>2026-04-26T17:48:40Z</time></trkpt><trkpt lat="43.11074187312622" lon="12.502913980159844"><ele>227.0</ele><time>2026-04-26T17:48:41Z</time></trkpt><trkpt lat="43.11065388882684" lon="12.502582460772246"><ele>227.0</ele><time>2026-04-26T17:48:42Z</time></trkpt><trkpt lat="43.11057788928808" lon="12.502242100758801"><ele>227.0</ele><time>2026-04-26T17:48:43Z</time></trkpt><trkpt lat="43.11051142682385" lon="12.501895334991099"><ele>230.0</ele><time>2026-04-26T17:48:44Z</time></trkpt><trkpt lat="43.11045354969847" lon="12.501543933676555"><ele>233.0</ele><time>2026-04-26T17:48:45Z</time></trkpt><trkpt lat="43.11040124883447" lon="12.501193237163838"><ele>235.0</ele><time>2026-04-26T17:48:46Z</time></trkpt><trkpt lat="43.110350733892126" lon="12.500842791769031"><ele>237.0</ele><time>2026-04-26T17:48:47Z</time></trkpt><trkpt lat="43.11029897547927" lon="12.500492943218475"><ele>240.0</ele><time>2026-04-26T17:48:48Z</time></trkpt><trkpt lat="43.11024776308119" lon="12.50013578161174"><ele>243.0</ele><time>2026-04-26T17:48:49.02Z</time></trkpt><trkpt lat="43.11019907008208" lon="12.499786904212463"><ele>244.5</ele><time>2026-04-26T17:48:50.018Z</time></trkpt><trkpt lat="43.11015101890809" lon="12.499437932446131"><ele>246.0</ele><time>2026-04-26T17:48:51.02Z</time></trkpt><trkpt lat="43.11010243295964" lon="12.499090842493477"><ele>248.0</ele><time>2026-04-26T17:48:52.019Z</time></trkpt><trkpt lat="43.11004972249132" lon="12.498746390942614"><ele>250.0</ele><time>2026-04-26T17:48:53.018Z</time></trkpt><trkpt lat="43.10950193130048" lon="12.494968785823984"><ele>250.0</ele><time>2026-04-26T17:49:06.876Z</time></trkpt><trkpt lat="43.10947385859365" lon="12.49477328109303"><ele>250.0</ele><time>2026-04-26T17:49:08.026Z</time></trkpt><trkpt lat="43.10900873974255" lon="12.491584159445475"><ele>232.5</ele><time>2026-04-26T17:49:13Z</time></trkpt><trkpt lat="43.10893202226623" lon="12.491246458051048"><ele>215.0</ele><time>2026-04-26T17:49:14Z</time></trkpt><trkpt lat="43.10882172294484" lon="12.490965111395028"><ele>215.0</ele><time>2026-04-26T17:49:15Z</time></trkpt><trkpt lat="43.1087172267712" lon="12.490652868394958"><ele>215.0</ele><time>2026-04-26T17:49:16Z</time></trkpt><trkpt lat="43.10859190284861" lon="12.490347329677148"><ele>213.0</ele><time>2026-04-26T17:49:17Z</time></trkpt><trkpt lat="43.108457331295575" lon="12.490051823222641"><ele>211.0</ele><time>2026-04-26T17:49:18Z</time></trkpt><trkpt lat="43.10831944773747" lon="12.489764673532653"><ele>210.5</ele><time>2026-04-26T17:49:19Z</time></trkpt><trkpt lat="43.10816720163725" lon="12.48949120586394"><ele>210.0</ele><time>2026-04-26T17:49:20Z</time></trkpt><trkpt lat="43.108009367215736" lon="12.489228362224528"><ele>210.0</ele><time>2026-04-26T17:49:21Z</time></trkpt><trkpt lat="43.10784078407248" lon="12.488970977443865"><ele>210.0</ele><time>2026-04-26T17:49:22Z</time></trkpt><trkpt lat="43.107663571510564" lon="12.488725900685179"><ele>210.0</ele><time>2026-04-26T17:49:23Z</time></trkpt><trkpt lat="43.10748237862409" lon="12.488487236377065"><ele>210.0</ele><time>2026-04-26T17:49:24Z</time></trkpt><trkpt lat="43.10729532571168" lon="12.488257865679005"><ele>210.0</ele><time>2026-04-26T17:49:25Z</time></trkpt><trkpt lat="43.10710044645424" lon="12.488032695460921"><ele>210.0</ele><time>2026-04-26T17:49:26Z</time></trkpt><trkpt lat="43.10690246209798" lon="12.487810640509458"><ele>209.0</ele><time>2026-04-26T17:49:27Z</time></trkpt><trkpt lat="43.10671200090777" lon="12.487591345189493"><ele>208.0</ele><time>2026-04-26T17:49:28Z</time></trkpt><trkpt lat="43.10652322641152" lon="12.48736258702865"><ele>208.0</ele><time>2026-04-26T17:49:29Z</time></trkpt><trkpt lat="43.106323415543585" lon="12.487153336743955"><ele>208.0</ele><time>2026-04-26T17:49:30Z</time></trkpt><trkpt lat="43.10613192990009" lon="12.486933734057498"><ele>208.5</ele><time>2026-04-26T17:49:31Z</time></trkpt><trkpt lat="43.105936997103456" lon="12.486717632621316"><ele>209.0</ele><time>2026-04-26T17:49:32Z</time></trkpt><trkpt lat="43.10574517229513" lon="12.486501084188653"><ele>209.0</ele><time>2026-04-26T17:49:33Z</time></trkpt><trkpt lat="43.10555378903413" lon="12.486282256558505"><ele>209.0</ele><time>2026-04-26T17:49:34Z</time></trkpt><trkpt lat="43.10536386002257" lon="12.486064348846647"><ele>207.5</ele><time>2026-04-26T17:49:35Z</time></trkpt><trkpt lat="43.10517232433477" lon="12.485854400208792"><ele>206.0</ele><time>2026-04-26T17:49:36Z</time></trkpt><trkpt lat="43.10498462443377" lon="12.48563854331421"><ele>205.5</ele><time>2026-04-26T17:49:37Z</time></trkpt><trkpt lat="43.10479358978961" lon="12.48543738568159"><ele>205.0</ele><time>2026-04-26T17:49:38Z</time></trkpt><trkpt lat="43.10461760636813" lon="12.485203357008567"><ele>205.0</ele><time>2026-04-26T17:49:39Z</time></trkpt><trkpt lat="43.104424509255004" lon="12.484994343285807"><ele>205.0</ele><time>2026-04-26T17:49:40Z</time></trkpt><trkpt lat="43.10423350902845" lon="12.48478835981359"><ele>205.5</ele><time>2026-04-26T17:49:41Z</time></trkpt><trkpt lat="43.104057318785145" lon="12.484558880043723"><ele>206.0</ele><time>2026-04-26T17:49:42Z</time></trkpt><trkpt lat="43.10389086584093" lon="12.484318861804343"><ele>206.0</ele><time>2026-04-26T17:49:43Z</time></trkpt><trkpt lat="43.103725946843426" lon="12.484081573092837"><ele>206.0</ele><time>2026-04-26T17:49:44Z</time></trkpt><trkpt lat="43.10357530372532" lon="12.48382208025247"><ele>204.0</ele><time>2026-04-26T17:49:45Z</time></trkpt><trkpt lat="43.103434675631966" lon="12.483551494621304"><ele>202.0</ele><time>2026-04-26T17:49:46Z</time></trkpt><trkpt lat="43.10330078856785" lon="12.483272219490283"><ele>201.5</ele><time>2026-04-26T17:49:47Z</time></trkpt><trkpt lat="43.103177263077164" lon="12.482981723114278"><ele>201.0</ele><time>2026-04-26T17:49:48Z</time></trkpt><trkpt lat="43.10306256087301" lon="12.482683632183123"><ele>201.0</ele><time>2026-04-26T17:49:49Z</time></trkpt><trkpt lat="43.10295204258031" lon="12.48239090675516"><ele>201.0</ele><time>2026-04-26T17:49:50Z</time></trkpt><trkpt lat="43.10285588019767" lon="12.48208370964332"><ele>201.0</ele><time>2026-04-26T17:49:51Z</time></trkpt><trkpt lat="43.10276870076906" lon="12.48176960057408"><ele>201.0</ele><time>2026-04-26T17:49:52Z</time></trkpt><trkpt lat="43.10269098375382" lon="12.481446992510941"><ele>200.5</ele><time>2026-04-26T17:49:53Z</time></trkpt><trkpt lat="43.10262045491126" lon="12.481123970983377"><ele>200.0</ele><time>2026-04-26T17:49:54Z</time></trkpt><trkpt lat="43.102551129981045" lon="12.480799170039411"><ele>200.0</ele><time>2026-04-26T17:49:55Z</time></trkpt><trkpt lat="43.102482252913354" lon="12.480478660076438"><ele>200.0</ele><time>2026-04-26T17:49:56Z</time></trkpt><trkpt lat="43.102414059906906" lon="12.480157851057808"><ele>198.0</ele><time>2026-04-26T17:49:57Z</time></trkpt><trkpt lat="43.102353833987486" lon="12.479846181837061"><ele>196.0</ele><time>2026-04-26T17:49:58Z</time></trkpt><trkpt lat="43.10229635876798" lon="12.479555780526175"><ele>196.0</ele><time>2026-04-26T17:49:59Z</time></trkpt><trkpt lat="43.102241025255225" lon="12.479276024818883"><ele>196.0</ele><time>2026-04-26T17:50:00Z</time></trkpt><trkpt lat="43.102202210988594" lon="12.478998399513214"><ele>196.0</ele><time>2026-04-26T17:50:01Z</time></trkpt><trkpt lat="43.10217941852441" lon="12.478711925354986"><ele>195.33333333333331</ele><time>2026-04-26T17:50:02Z</time></trkpt><trkpt lat="43.1021579045569" lon="12.47842742862703"><ele>194.66666666666669</ele><time>2026-04-26T17:50:03Z</time></trkpt><trkpt lat="43.102137854365246" lon="12.478168842817803"><ele>194.0</ele><time>2026-04-26T17:50:04Z</time></trkpt><trkpt lat="43.10212356004384" lon="12.477937939296798"><ele>194.33333333333334</ele><time>2026-04-26T17:50:05Z</time></trkpt><trkpt lat="43.102123351982755" lon="12.477724101647325"><ele>194.66666666666669</ele><time>2026-04-26T17:50:06Z</time></trkpt><trkpt lat="43.1021569204781" lon="12.477514674929216"><ele>195.0</ele><time>2026-04-26T17:50:07Z</time></trkpt><trkpt lat="43.10221842976601" lon="12.477315910606105"><ele>195.0</ele><time>2026-04-26T17:50:08Z</time></trkpt><trkpt lat="43.10231182712667" lon="12.477146362724056"><ele>195.0</ele><time>2026-04-26T17:50:09Z</time></trkpt><trkpt lat="43.102442755585386" lon="12.477010937409693"><ele>195.0</ele><time>2026-04-26T17:50:10Z</time></trkpt><trkpt lat="43.102599175619545" lon="12.47691530964488"><ele>193.66666666666666</ele><time>2026-04-26T17:50:11Z</time></trkpt><trkpt lat="43.10277443457291" lon="12.476860227754699"><ele>192.33333333333331</ele><time>2026-04-26T17:50:12Z</time></trkpt><trkpt lat="43.102963665469986" lon="12.476826086500255"><ele>191.0</ele><time>2026-04-26T17:50:13Z</time></trkpt><trkpt lat="43.10315042947979" lon="12.476809317569622"><ele>191.66666666666666</ele><time>2026-04-26T17:50:14Z</time></trkpt><trkpt lat="43.103353047525516" lon="12.476811301315788"><ele>192.33333333333331</ele><time>2026-04-26T17:50:15Z</time></trkpt><trkpt lat="43.10357487102926" lon="12.47682039409948"><ele>193.0</ele><time>2026-04-26T17:50:16Z</time></trkpt><trkpt lat="43.10379730567356" lon="12.476823599777228"><ele>193.0</ele><time>2026-04-26T17:50:17Z</time></trkpt><trkpt lat="43.104020435453386" lon="12.476826051986018"><ele>193.0</ele><time>2026-04-26T17:50:18Z</time></trkpt><trkpt lat="43.10424017331483" lon="12.476811398306742"><ele>193.0</ele><time>2026-04-26T17:50:19Z</time></trkpt><trkpt lat="43.10446568868886" lon="12.476776703228408"><ele>193.0</ele><time>2026-04-26T17:50:20Z</time></trkpt><trkpt lat="43.10468947387163" lon="12.476712766606743"><ele>193.0</ele><time>2026-04-26T17:50:21Z</time></trkpt><trkpt lat="43.1049132802838" lon="12.476625491669454"><ele>193.0</ele><time>2026-04-26T17:50:22Z</time></trkpt><trkpt lat="43.10514997145803" lon="12.476533091057897"><ele>193.0</ele><time>2026-04-26T17:50:23Z</time></trkpt><trkpt lat="43.10536967387451" lon="12.4764068115448"><ele>192.0</ele><time>2026-04-26T17:50:24Z</time></trkpt><trkpt lat="43.10557852830728" lon="12.476248215698554"><ele>191.0</ele><time>2026-04-26T17:50:25Z</time></trkpt><trkpt lat="43.10578250939803" lon="12.476069853796453"><ele>191.0</ele><time>2026-04-26T17:50:26Z</time></trkpt><trkpt lat="43.10597942012536" lon="12.475872487798567"><ele>191.0</ele><time>2026-04-26T17:50:27Z</time></trkpt><trkpt lat="43.10617421397884" lon="12.475664070785248"><ele>191.0</ele><time>2026-04-26T17:50:28Z</time></trkpt><trkpt lat="43.106367765462856" lon="12.475447174055326"><ele>191.0</ele><time>2026-04-26T17:50:29Z</time></trkpt><trkpt lat="43.106561538531054" lon="12.475229585279598"><ele>192.5</ele><time>2026-04-26T17:50:30Z</time></trkpt><trkpt lat="43.106757908240205" lon="12.4750154550474"><ele>194.0</ele><time>2026-04-26T17:50:31Z</time></trkpt><trkpt lat="43.106954638082186" lon="12.474796567956773"><ele>194.0</ele><time>2026-04-26T17:50:32Z</time></trkpt><trkpt lat="43.10715446607367" lon="12.474579192864521"><ele>194.0</ele><time>2026-04-26T17:50:33Z</time></trkpt><trkpt lat="43.107348356126366" lon="12.47436157666353"><ele>194.0</ele><time>2026-04-26T17:50:34Z</time></trkpt><trkpt lat="43.10753787900644" lon="12.47414888402657"><ele>194.0</ele><time>2026-04-26T17:50:35Z</time></trkpt><trkpt lat="43.10771660182837" lon="12.473920665816886"><ele>193.5</ele><time>2026-04-26T17:50:36Z</time></trkpt><trkpt lat="43.10788699675345" lon="12.473675993148142"><ele>193.0</ele><time>2026-04-26T17:50:37Z</time></trkpt><trkpt lat="43.108037493407245" lon="12.47340612864206"><ele>193.0</ele><time>2026-04-26T17:50:38Z</time></trkpt><trkpt lat="43.10817176714218" lon="12.473117647044976"><ele>193.0</ele><time>2026-04-26T17:50:39Z</time></trkpt><trkpt lat="43.10828343962463" lon="12.472811136021086"><ele>193.0</ele><time>2026-04-26T17:50:40Z</time></trkpt><trkpt lat="43.10838162348354" lon="12.472493938082376"><ele>193.0</ele><time>2026-04-26T17:50:41Z</time></trkpt><trkpt lat="43.10846320659098" lon="12.472159197353427"><ele>192.5</ele><time>2026-04-26T17:50:42Z</time></trkpt><trkpt lat="43.10851691861318" lon="12.471813293058888"><ele>192.0</ele><time>2026-04-26T17:50:43Z</time></trkpt><trkpt lat="43.108550123591066" lon="12.471461058689835"><ele>191.5</ele><time>2026-04-26T17:50:44Z</time></trkpt><trkpt lat="43.10857049105372" lon="12.47110625969956"><ele>191.0</ele><time>2026-04-26T17:50:45Z</time></trkpt><trkpt lat="43.10858175543232" lon="12.47075113701136"><ele>191.0</ele><time>2026-04-26T17:50:46Z</time></trkpt><trkpt lat="43.10858846656023" lon="12.470391782319236"><ele>191.0</ele><time>2026-04-26T17:50:47Z</time></trkpt><trkpt lat="43.10859502887815" lon="12.47003453923202"><ele>191.0</ele><time>2026-04-26T17:50:48Z</time></trkpt><trkpt lat="43.108601357908825" lon="12.469673932632846"><ele>191.0</ele><time>2026-04-26T17:50:49Z</time></trkpt><trkpt lat="43.10861058954901" lon="12.469314042387994"><ele>191.0</ele><time>2026-04-26T17:50:50Z</time></trkpt><trkpt lat="43.108618638684284" lon="12.468952691086754"><ele>191.0</ele><time>2026-04-26T17:50:51Z</time></trkpt><trkpt lat="43.10862663400336" lon="12.468591532203819"><ele>191.0</ele><time>2026-04-26T17:50:52Z</time></trkpt><trkpt lat="43.10863679106002" lon="12.46823198645821"><ele>191.0</ele><time>2026-04-26T17:50:53Z</time></trkpt><trkpt lat="43.108647284688836" lon="12.467876490236495"><ele>190.5</ele><time>2026-04-26T17:50:54Z</time></trkpt><trkpt lat="43.10866028108755" lon="12.467519182518068"><ele>190.0</ele><time>2026-04-26T17:50:55Z</time></trkpt><trkpt lat="43.10867018888452" lon="12.467152853748832"><ele>190.0</ele><time>2026-04-26T17:50:56Z</time></trkpt><trkpt lat="43.10869303637834" lon="12.466824127412352"><ele>190.0</ele><time>2026-04-26T17:50:57Z</time></trkpt><trkpt lat="43.10870150626855" lon="12.466471743412335"><ele>191.5</ele><time>2026-04-26T17:50:58Z</time></trkpt><trkpt lat="43.10870529744881" lon="12.466109358765724"><ele>193.0</ele><time>2026-04-26T17:50:59Z</time></trkpt><trkpt lat="43.10871342228187" lon="12.465757559511253"><ele>193.0</ele><time>2026-04-26T17:51:00Z</time></trkpt><trkpt lat="43.10872378665878" lon="12.465420970359412"><ele>193.0</ele><time>2026-04-26T17:51:01Z</time></trkpt><trkpt lat="43.10872199688958" lon="12.465078828462353"><ele>193.0</ele><time>2026-04-26T17:51:02Z</time></trkpt><trkpt lat="43.10873682758225" lon="12.464751523019533"><ele>193.0</ele><time>2026-04-26T17:51:03Z</time></trkpt><trkpt lat="43.10874022684064" lon="12.464433979638201"><ele>193.0</ele><time>2026-04-26T17:51:04Z</time></trkpt><trkpt lat="43.10874520134432" lon="12.464123400618687"><ele>193.0</ele><time>2026-04-26T17:51:05Z</time></trkpt><trkpt lat="43.10875146591085" lon="12.463815829182941"><ele>193.0</ele><time>2026-04-26T17:51:06Z</time></trkpt><trkpt lat="43.10875762304152" lon="12.463525196655356"><ele>193.0</ele><time>2026-04-26T17:51:07Z</time></trkpt><trkpt lat="43.108762169760126" lon="12.46323523823366"><ele>193.0</ele><time>2026-04-26T17:51:08Z</time></trkpt><trkpt lat="43.10877135360104" lon="12.4629434595277"><ele>192.66666666666666</ele><time>2026-04-26T17:51:09Z</time></trkpt><trkpt lat="43.108791622068175" lon="12.462666333209372"><ele>192.33333333333331</ele><time>2026-04-26T17:51:10Z</time></trkpt><trkpt lat="43.10882325991955" lon="12.46239023072687"><ele>192.0</ele><time>2026-04-26T17:51:11Z</time></trkpt><trkpt lat="43.10887637576976" lon="12.462120632410686"><ele>192.33333333333331</ele><time>2026-04-26T17:51:12Z</time></trkpt><trkpt lat="43.10894755181029" lon="12.461855880973975"><ele>192.66666666666666</ele><time>2026-04-26T17:51:13Z</time></trkpt><trkpt lat="43.109037798402035" lon="12.461594832376358"><ele>193.0</ele><time>2026-04-26T17:51:14Z</time></trkpt><trkpt lat="43.10914158857819" lon="12.461340960222701"><ele>192.33333333333331</ele><time>2026-04-26T17:51:15Z</time></trkpt><trkpt lat="43.109262169751645" lon="12.461097589706318"><ele>191.66666666666666</ele><time>2026-04-26T17:51:16Z</time></trkpt><trkpt lat="43.109395949832155" lon="12.460866056523699"><ele>191.0</ele><time>2026-04-26T17:51:17Z</time></trkpt><trkpt lat="43.10954581698088" lon="12.460648543284176"><ele>191.0</ele><time>2026-04-26T17:51:18Z</time></trkpt><trkpt lat="43.10970564615" lon="12.460441656800738"><ele>191.0</ele><time>2026-04-26T17:51:19Z</time></trkpt><trkpt lat="43.10986508979297" lon="12.460236334227908"><ele>191.0</ele><time>2026-04-26T17:51:20Z</time></trkpt><trkpt lat="43.11003713422354" lon="12.460023712369553"><ele>191.0</ele><time>2026-04-26T17:51:21Z</time></trkpt><trkpt lat="43.11021482540594" lon="12.459788582424673"><ele>191.0</ele><time>2026-04-26T17:51:22Z</time></trkpt><trkpt lat="43.110403361713445" lon="12.459539691336952"><ele>191.0</ele><time>2026-04-26T17:51:23Z</time></trkpt><trkpt lat="43.11060358072888" lon="12.459284818828253"><ele>191.0</ele><time>2026-04-26T17:51:24Z</time></trkpt><trkpt lat="43.11081396890301" lon="12.45902549467453"><ele>192.0</ele><time>2026-04-26T17:51:25Z</time></trkpt><trkpt lat="43.111040581215896" lon="12.458767340249414"><ele>193.0</ele><time>2026-04-26T17:51:26Z</time></trkpt><trkpt lat="43.11127483002536" lon="12.458507628749588"><ele>193.0</ele><time>2026-04-26T17:51:27Z</time></trkpt><trkpt lat="43.11151166181771" lon="12.45823822342897"><ele>193.0</ele><time>2026-04-26T17:51:28Z</time></trkpt><trkpt lat="43.11174259134975" lon="12.457959764975092"><ele>193.0</ele><time>2026-04-26T17:51:29Z</time></trkpt><trkpt lat="43.11196493724325" lon="12.457681725264118"><ele>193.0</ele><time>2026-04-26T17:51:30Z</time></trkpt><trkpt lat="43.11218548859606" lon="12.457407463239983"><ele>193.0</ele><time>2026-04-26T17:51:31Z</time></trkpt><trkpt lat="43.1124053955218" lon="12.457135723701485"><ele>193.0</ele><time>2026-04-26T17:51:32Z</time></trkpt><trkpt lat="43.112615840352554" lon="12.45685426864187"><ele>192.5</ele><time>2026-04-26T17:51:33Z</time></trkpt><trkpt lat="43.11282856866302" lon="12.456582857607566"><ele>192.0</ele><time>2026-04-26T17:51:34Z</time></trkpt><trkpt lat="43.113037642474836" lon="12.456309764086516"><ele>192.0</ele><time>2026-04-26T17:51:35Z</time></trkpt><trkpt lat="43.11325389774528" lon="12.45604350472071"><ele>192.0</ele><time>2026-04-26T17:51:36Z</time></trkpt><trkpt lat="43.113475659751224" lon="12.455784704033062"><ele>192.0</ele><time>2026-04-26T17:51:37Z</time></trkpt><trkpt lat="43.113693717061494" lon="12.455523500060057"><ele>192.0</ele><time>2026-04-26T17:51:38Z</time></trkpt><trkpt lat="43.1139104809478" lon="12.455257528716603"><ele>193.5</ele><time>2026-04-26T17:51:39Z</time></trkpt><trkpt lat="43.114128362129186" lon="12.454992390409158"><ele>195.0</ele><time>2026-04-26T17:51:40Z</time></trkpt><trkpt lat="43.11434624784372" lon="12.454725849626477"><ele>193.5</ele><time>2026-04-26T17:51:41Z</time></trkpt><trkpt lat="43.11456315443582" lon="12.45445850737517"><ele>192.0</ele><time>2026-04-26T17:51:42Z</time></trkpt><trkpt lat="43.114779856983574" lon="12.454192798563344"><ele>193.0</ele><time>2026-04-26T17:51:43Z</time></trkpt><trkpt lat="43.11499956145935" lon="12.453934711861836"><ele>194.0</ele><time>2026-04-26T17:51:44Z</time></trkpt><trkpt lat="43.11522061234747" lon="12.453682322660603"><ele>194.0</ele><time>2026-04-26T17:51:45Z</time></trkpt><trkpt lat="43.11545134183182" lon="12.453447289229876"><ele>194.0</ele><time>2026-04-26T17:51:46Z</time></trkpt><trkpt lat="43.11568608690645" lon="12.453224168355103"><ele>194.0</ele><time>2026-04-26T17:51:47Z</time></trkpt><trkpt lat="43.11592792061066" lon="12.453012409368533"><ele>194.0</ele><time>2026-04-26T17:51:48Z</time></trkpt><trkpt lat="43.11617652662723" lon="12.452812039457783"><ele>194.0</ele><time>2026-04-26T17:51:49Z</time></trkpt><trkpt lat="43.116435309989136" lon="12.452625051175929"><ele>194.0</ele><time>2026-04-26T17:51:50Z</time></trkpt><trkpt lat="43.11670599730211" lon="12.452452389814976"><ele>195.0</ele><time>2026-04-26T17:51:51Z</time></trkpt><trkpt lat="43.116995410903364" lon="12.452297893603196"><ele>196.0</ele><time>2026-04-26T17:51:52Z</time></trkpt><trkpt lat="43.11730050431555" lon="12.452160291487486"><ele>196.0</ele><time>2026-04-26T17:51:53Z</time></trkpt><trkpt lat="43.11762417143416" lon="12.452044884437004"><ele>196.0</ele><time>2026-04-26T17:51:54Z</time></trkpt><trkpt lat="43.11796227353627" lon="12.451959350742868"><ele>196.5</ele><time>2026-04-26T17:51:55Z</time></trkpt><trkpt lat="43.11829650782517" lon="12.451896241127788"><ele>197.0</ele><time>2026-04-26T17:51:56Z</time></trkpt><trkpt lat="43.11862151449474" lon="12.4518498342835"><ele>197.0</ele><time>2026-04-26T17:51:57Z</time></trkpt><trkpt lat="43.1189435633833" lon="12.451821499064494"><ele>197.0</ele><time>2026-04-26T17:51:58Z</time></trkpt><trkpt lat="43.11926432796839" lon="12.451806585991392"><ele>198.5</ele><time>2026-04-26T17:51:59Z</time></trkpt><trkpt lat="43.11958533983089" lon="12.451806248030188"><ele>200.0</ele><time>2026-04-26T17:52:00Z</time></trkpt><trkpt lat="43.119903415621955" lon="12.451801294320639"><ele>200.5</ele><time>2026-04-26T17:52:01Z</time></trkpt><trkpt lat="43.120218893441475" lon="12.451794710563023"><ele>201.0</ele><time>2026-04-26T17:52:02Z</time></trkpt><trkpt lat="43.12053157054666" lon="12.451784143686135"><ele>202.5</ele><time>2026-04-26T17:52:03Z</time></trkpt><trkpt lat="43.12084152269901" lon="12.451775001970589"><ele>204.0</ele><time>2026-04-26T17:52:04Z</time></trkpt><trkpt lat="43.12114847096377" lon="12.451764003645161"><ele>204.0</ele><time>2026-04-26T17:52:05Z</time></trkpt><trkpt lat="43.12145364811951" lon="12.451757126105242"><ele>204.0</ele><time>2026-04-26T17:52:06Z</time></trkpt><trkpt lat="43.12174909957721" lon="12.451750030694782"><ele>204.0</ele><time>2026-04-26T17:52:07Z</time></trkpt><trkpt lat="43.12203807225663" lon="12.451748586125559"><ele>204.0</ele><time>2026-04-26T17:52:08Z</time></trkpt><trkpt lat="43.12231343486075" lon="12.451744821363816"><ele>204.0</ele><time>2026-04-26T17:52:09Z</time></trkpt><trkpt lat="43.12257205352773" lon="12.451738278137011"><ele>204.0</ele><time>2026-04-26T17:52:10Z</time></trkpt><trkpt lat="43.12281986574494" lon="12.451744562543457"><ele>204.0</ele><time>2026-04-26T17:52:11Z</time></trkpt><trkpt lat="43.12306841357312" lon="12.451742234720292"><ele>204.0</ele><time>2026-04-26T17:52:12Z</time></trkpt><trkpt lat="43.12330248392855" lon="12.451747726552693"><ele>204.66666666666669</ele><time>2026-04-26T17:52:13Z</time></trkpt><trkpt lat="43.123524021171264" lon="12.451741362249242"><ele>205.33333333333334</ele><time>2026-04-26T17:52:14Z</time></trkpt><trkpt lat="43.12372547381612" lon="12.451739442635287"><ele>206.0</ele><time>2026-04-26T17:52:15Z</time></trkpt><trkpt lat="43.12391566566906" lon="12.451745949111453"><ele>205.66666666666669</ele><time>2026-04-26T17:52:16Z</time></trkpt><trkpt lat="43.1240993515978" lon="12.451754118830202"><ele>205.33333333333331</ele><time>2026-04-26T17:52:17Z</time></trkpt><trkpt lat="43.1242744298262" lon="12.45177225676555"><ele>205.0</ele><time>2026-04-26T17:52:18Z</time></trkpt><trkpt lat="43.12443367289821" lon="12.451821748914872"><ele>205.0</ele><time>2026-04-26T17:52:19Z</time></trkpt><trkpt lat="43.124583055980146" lon="12.451853484365088"><ele>205.0</ele><time>2026-04-26T17:52:20Z</time></trkpt><trkpt lat="43.124718276617074" lon="12.4518785312426"><ele>205.0</ele><time>2026-04-26T17:52:21Z</time></trkpt><trkpt lat="43.124843598568866" lon="12.451917494661302"><ele>205.0</ele><time>2026-04-26T17:52:22Z</time></trkpt><trkpt lat="43.124959847735404" lon="12.451944391145922"><ele>204.6</ele><time>2026-04-26T17:52:23Z</time></trkpt><trkpt lat="43.12505861171" lon="12.451967737630378"><ele>204.2</ele><time>2026-04-26T17:52:24Z</time></trkpt><trkpt lat="43.12513410178848" lon="12.451988726044767"><ele>203.8</ele><time>2026-04-26T17:52:25Z</time></trkpt><trkpt lat="43.125208469352636" lon="12.452010906940416"><ele>203.4</ele><time>2026-04-26T17:52:26Z</time></trkpt><trkpt lat="43.12531107871379" lon="12.452027240881502"><ele>203.0</ele><time>2026-04-26T17:52:27Z</time></trkpt><trkpt lat="43.12543741885974" lon="12.452051313894964"><ele>203.0</ele><time>2026-04-26T17:52:28Z</time></trkpt><trkpt lat="43.12558071086834" lon="12.452064781804534"><ele>203.0</ele><time>2026-04-26T17:52:29Z</time></trkpt><trkpt lat="43.125736332159526" lon="12.452067540107782"><ele>203.0</ele><time>2026-04-26T17:52:30Z</time></trkpt><trkpt lat="43.12589252099892" lon="12.452060618890922"><ele>203.0</ele><time>2026-04-26T17:52:31Z</time></trkpt><trkpt lat="43.126048049359376" lon="12.45205080834284"><ele>203.0</ele><time>2026-04-26T17:52:32Z</time></trkpt><trkpt lat="43.12620490446988" lon="12.452046323122037"><ele>203.0</ele><time>2026-04-26T17:52:33Z</time></trkpt><trkpt lat="43.1263648920271" lon="12.452043262318572"><ele>203.0</ele><time>2026-04-26T17:52:34Z</time></trkpt><trkpt lat="43.12653101387824" lon="12.452045672779384"><ele>203.0</ele><time>2026-04-26T17:52:35Z</time></trkpt><trkpt lat="43.1266944698157" lon="12.452048793441266"><ele>203.0</ele><time>2026-04-26T17:52:36Z</time></trkpt><trkpt lat="43.126838846018224" lon="12.452043082139209"><ele>203.5</ele><time>2026-04-26T17:52:37Z</time></trkpt><trkpt lat="43.126967644374645" lon="12.452031890942528"><ele>204.0</ele><time>2026-04-26T17:52:38Z</time></trkpt><trkpt lat="43.1270806413008" lon="12.452001777454303"><ele>204.5</ele><time>2026-04-26T17:52:39Z</time></trkpt><trkpt lat="43.1271749572319" lon="12.451916247435765"><ele>205.0</ele><time>2026-04-26T17:52:40Z</time></trkpt><trkpt lat="43.12724709117867" lon="12.451787371329816"><ele>205.0</ele><time>2026-04-26T17:52:41Z</time></trkpt><trkpt lat="43.12728639158394" lon="12.451629701873252"><ele>205.0</ele><time>2026-04-26T17:52:42Z</time></trkpt><trkpt lat="43.127298000926444" lon="12.45147402716508"><ele>205.0</ele><time>2026-04-26T17:52:43Z</time></trkpt><trkpt lat="43.12726398223142" lon="12.451330844578672"><ele>205.0</ele><time>2026-04-26T17:52:44Z</time></trkpt><trkpt lat="43.12719002189882" lon="12.451203695501686"><ele>204.25</ele><time>2026-04-26T17:52:45Z</time></trkpt><trkpt lat="43.12709687345869" lon="12.451112547110453"><ele>203.5</ele><time>2026-04-26T17:52:46Z</time></trkpt><trkpt lat="43.126965555136174" lon="12.451063486166865"><ele>202.75</ele><time>2026-04-26T17:52:47Z</time></trkpt><trkpt lat="43.126830341597774" lon="12.451065530697557"><ele>202.0</ele><time>2026-04-26T17:52:48Z</time></trkpt><trkpt lat="43.12669724768207" lon="12.451074478252828"><ele>202.0</ele><time>2026-04-26T17:52:49Z</time></trkpt><trkpt lat="43.1265818344362" lon="12.451077796280332"><ele>202.0</ele><time>2026-04-26T17:52:50Z</time></trkpt><trkpt lat="43.12649170504562" lon="12.45107364867792"><ele>202.0</ele><time>2026-04-26T17:52:51Z</time></trkpt><trkpt lat="43.12640931675304" lon="12.451049380168689"><ele>202.0</ele><time>2026-04-26T17:52:52Z</time></trkpt><trkpt lat="43.12633253493258" lon="12.451046377560466"><ele>202.0</ele><time>2026-04-26T17:52:53Z</time></trkpt><trkpt lat="43.12628008166071" lon="12.45082579118549"><ele>200.66666666666666</ele><time>2026-04-26T17:52:54Z</time></trkpt><trkpt lat="43.126242308168386" lon="12.450626763656377"><ele>199.33333333333331</ele><time>2026-04-26T17:52:55Z</time></trkpt><trkpt lat="43.12622969519803" lon="12.4503989244056"><ele>198.0</ele><time>2026-04-26T17:52:56Z</time></trkpt><trkpt lat="43.12622154913121" lon="12.450170035009146"><ele>198.0</ele><time>2026-04-26T17:52:57Z</time></trkpt><trkpt lat="43.126207301100465" lon="12.449919922050865"><ele>198.0</ele><time>2026-04-26T17:52:58Z</time></trkpt><trkpt lat="43.12620067539427" lon="12.449662116716656"><ele>198.0</ele><time>2026-04-26T17:52:59Z</time></trkpt><trkpt lat="43.12619645375548" lon="12.449407025248146"><ele>198.33333333333331</ele><time>2026-04-26T17:53:00Z</time></trkpt><trkpt lat="43.126189650544724" lon="12.449143537860401"><ele>198.66666666666666</ele><time>2026-04-26T17:53:01Z</time></trkpt><trkpt lat="43.12618317714735" lon="12.448876931829426"><ele>199.0</ele><time>2026-04-26T17:53:02Z</time></trkpt><trkpt lat="43.12618132028936" lon="12.448604602230253"><ele>198.33333333333331</ele><time>2026-04-26T17:53:03Z</time></trkpt><trkpt lat="43.126174810308775" lon="12.448330831127592"><ele>197.66666666666669</ele><time>2026-04-26T17:53:04Z</time></trkpt><trkpt lat="43.1261701844605" lon="12.44805552267607"><ele>197.0</ele><time>2026-04-26T17:53:05Z</time></trkpt><trkpt lat="43.126165629953015" lon="12.447781803137698"><ele>197.0</ele><time>2026-04-26T17:53:06Z</time></trkpt><trkpt lat="43.12615847755333" lon="12.447505954525456"><ele>197.0</ele><time>2026-04-26T17:53:07Z</time></trkpt><trkpt lat="43.126153637343975" lon="12.447226629849876"><ele>197.0</ele><time>2026-04-26T17:53:08Z</time></trkpt><trkpt lat="43.126148209233435" lon="12.446949876292818"><ele>197.0</ele><time>2026-04-26T17:53:09Z</time></trkpt><trkpt lat="43.1261405873713" lon="12.446674080093953"><ele>197.0</ele><time>2026-04-26T17:53:10Z</time></trkpt><trkpt lat="43.12613469617733" lon="12.44639804184751"><ele>197.0</ele><time>2026-04-26T17:53:11Z</time></trkpt><trkpt lat="43.12612918675433" lon="12.4461212516512"><ele>196.66666666666669</ele><time>2026-04-26T17:53:12Z</time></trkpt><trkpt lat="43.12612165676858" lon="12.445844913348328"><ele>196.33333333333331</ele><time>2026-04-26T17:53:13Z</time></trkpt><trkpt lat="43.126113706448756" lon="12.445567792313028"><ele>196.0</ele><time>2026-04-26T17:53:14Z</time></trkpt><trkpt lat="43.12610542055962" lon="12.445289918867443"><ele>196.0</ele><time>2026-04-26T17:53:15Z</time></trkpt><trkpt lat="43.12609591705533" lon="12.445016960156662"><ele>196.0</ele><time>2026-04-26T17:53:16Z</time></trkpt><trkpt lat="43.12608625708479" lon="12.444742962900111"><ele>196.0</ele><time>2026-04-26T17:53:17Z</time></trkpt><trkpt lat="43.12607959580465" lon="12.444466310720182"><ele>196.33333333333331</ele><time>2026-04-26T17:53:18Z</time></trkpt><trkpt lat="43.12607359408683" lon="12.444183995496795"><ele>196.66666666666669</ele><time>2026-04-26T17:53:19Z</time></trkpt><trkpt lat="43.12606882515729" lon="12.44390073963442"><ele>197.0</ele><time>2026-04-26T17:53:20Z</time></trkpt><trkpt lat="43.1260638892681" lon="12.443616040050612"><ele>197.0</ele><time>2026-04-26T17:53:21Z</time></trkpt><trkpt lat="43.12605401675789" lon="12.44335045228136"><ele>197.0</ele><time>2026-04-26T17:53:22Z</time></trkpt><trkpt lat="43.12604293265536" lon="12.443082689766667"><ele>197.0</ele><time>2026-04-26T17:53:23Z</time></trkpt><trkpt lat="43.12603601815623" lon="12.442809224790357"><ele>196.66666666666669</ele><time>2026-04-26T17:53:24Z</time></trkpt><trkpt lat="43.126031350530454" lon="12.442515061589576"><ele>196.33333333333331</ele><time>2026-04-26T17:53:25Z</time></trkpt><trkpt lat="43.12602423838137" lon="12.442234231296434"><ele>196.0</ele><time>2026-04-26T17:53:26Z</time></trkpt><trkpt lat="43.12601849405658" lon="12.441960950273916"><ele>196.0</ele><time>2026-04-26T17:53:27Z</time></trkpt><trkpt lat="43.12601112555896" lon="12.441686089199338"><ele>196.0</ele><time>2026-04-26T17:53:28Z</time></trkpt><trkpt lat="43.12600514497069" lon="12.441413741962014"><ele>196.0</ele><time>2026-04-26T17:53:29Z</time></trkpt><trkpt lat="43.126002111281906" lon="12.441139818261696"><ele>196.33333333333331</ele><time>2026-04-26T17:53:30Z</time></trkpt><trkpt lat="43.125993995703425" lon="12.440864496783306"><ele>196.66666666666669</ele><time>2026-04-26T17:53:31Z</time></trkpt><trkpt lat="43.12599104362559" lon="12.440591527717235"><ele>197.0</ele><time>2026-04-26T17:53:32Z</time></trkpt><trkpt lat="43.125994613768995" lon="12.44032295163687"><ele>196.66666666666669</ele><time>2026-04-26T17:53:33Z</time></trkpt><trkpt lat="43.12598947054409" lon="12.44005471779344"><ele>196.33333333333331</ele><time>2026-04-26T17:53:34Z</time></trkpt><trkpt lat="43.125979777198964" lon="12.439789057415549"><ele>196.0</ele><time>2026-04-26T17:53:35Z</time></trkpt><trkpt lat="43.12596845591941" lon="12.439530587115385"><ele>196.0</ele><time>2026-04-26T17:53:36Z</time></trkpt><trkpt lat="43.125961523190256" lon="12.439271283102126"><ele>196.0</ele><time>2026-04-26T17:53:37Z</time></trkpt><trkpt lat="43.12596986008923" lon="12.438983639964976"><ele>196.0</ele><time>2026-04-26T17:53:38Z</time></trkpt><trkpt lat="43.12595915971769" lon="12.438724890996795"><ele>196.0</ele><time>2026-04-26T17:53:39Z</time></trkpt><trkpt lat="43.12595223465549" lon="12.438484240706044"><ele>196.0</ele><time>2026-04-26T17:53:40Z</time></trkpt><trkpt lat="43.12595246822348" lon="12.438232165341294"><ele>196.0</ele><time>2026-04-26T17:53:41Z</time></trkpt><trkpt lat="43.125948027096214" lon="12.437976431143593"><ele>196.0</ele><time>2026-04-26T17:53:42Z</time></trkpt><trkpt lat="43.12596181057884" lon="12.437726432404967"><ele>196.0</ele><time>2026-04-26T17:53:43Z</time></trkpt><trkpt lat="43.12598906713613" lon="12.43748185110838"><ele>196.0</ele><time>2026-04-26T17:53:44Z</time></trkpt><trkpt lat="43.12602762533016" lon="12.437234776794512"><ele>196.33333333333331</ele><time>2026-04-26T17:53:45Z</time></trkpt><trkpt lat="43.12607489463278" lon="12.437005513718361"><ele>196.66666666666669</ele><time>2026-04-26T17:53:46Z</time></trkpt><trkpt lat="43.12613413462109" lon="12.43679146797428"><ele>197.0</ele><time>2026-04-26T17:53:47Z</time></trkpt><trkpt lat="43.1261994743947" lon="12.436583891607956"><ele>197.0</ele><time>2026-04-26T17:53:48Z</time></trkpt><trkpt lat="43.1262755197526" lon="12.436378042233798"><ele>197.0</ele><time>2026-04-26T17:53:49Z</time></trkpt><trkpt lat="43.126360204541996" lon="12.436185051099462"><ele>197.0</ele><time>2026-04-26T17:53:50Z</time></trkpt><trkpt lat="43.126443983721764" lon="12.43599692665252"><ele>197.33333333333334</ele><time>2026-04-26T17:53:51Z</time></trkpt><trkpt lat="43.12653096746136" lon="12.435800189486647"><ele>197.66666666666669</ele><time>2026-04-26T17:53:52Z</time></trkpt><trkpt lat="43.12661656615933" lon="12.435603284729726"><ele>198.0</ele><time>2026-04-26T17:53:53Z</time></trkpt><trkpt lat="43.126703054381686" lon="12.435403739174017"><ele>196.66666666666669</ele><time>2026-04-26T17:53:54Z</time></trkpt><trkpt lat="43.12679092815437" lon="12.43520797847613"><ele>195.33333333333334</ele><time>2026-04-26T17:53:55Z</time></trkpt><trkpt lat="43.126884196255446" lon="12.435006601615969"><ele>194.0</ele><time>2026-04-26T17:53:56Z</time></trkpt><trkpt lat="43.12697605006798" lon="12.434803318323587"><ele>194.0</ele><time>2026-04-26T17:53:57Z</time></trkpt><trkpt lat="43.12705798853194" lon="12.434606910664455"><ele>194.0</ele><time>2026-04-26T17:53:58Z</time></trkpt><trkpt lat="43.12713978481898" lon="12.434395937108851"><ele>194.0</ele><time>2026-04-26T17:53:59Z</time></trkpt><trkpt lat="43.12722762017143" lon="12.434208886402468"><ele>194.0</ele><time>2026-04-26T17:54:00Z</time></trkpt><trkpt lat="43.12732648256763" lon="12.434048113717125"><ele>194.0</ele><time>2026-04-26T17:54:01Z</time></trkpt><trkpt lat="43.12741171732984" lon="12.433876717770417"><ele>194.0</ele><time>2026-04-26T17:54:02Z</time></trkpt><trkpt lat="43.12749492059843" lon="12.433702752629046"><ele>195.0</ele><time>2026-04-26T17:54:03Z</time></trkpt><trkpt lat="43.12757593033769" lon="12.433508147589002"><ele>196.0</ele><time>2026-04-26T17:54:04Z</time></trkpt><trkpt lat="43.12765919167352" lon="12.433295835344904"><ele>197.0</ele><time>2026-04-26T17:54:05Z</time></trkpt><trkpt lat="43.12775945905585" lon="12.433068256420945"><ele>199.0</ele><time>2026-04-26T17:54:06Z</time></trkpt><trkpt lat="43.12787269049011" lon="12.432827512943192"><ele>201.0</ele><time>2026-04-26T17:54:07Z</time></trkpt><trkpt lat="43.127982407348945" lon="12.432581796373915"><ele>203.0</ele><time>2026-04-26T17:54:08Z</time></trkpt><trkpt lat="43.12810176477167" lon="12.432342113747323"><ele>204.0</ele><time>2026-04-26T17:54:09Z</time></trkpt><trkpt lat="43.12820544102127" lon="12.432076957239941"><ele>205.0</ele><time>2026-04-26T17:54:10Z</time></trkpt><trkpt lat="43.12831258773317" lon="12.431820293909393"><ele>206.0</ele><time>2026-04-26T17:54:11Z</time></trkpt><trkpt lat="43.12842890954322" lon="12.43156316927569"><ele>204.66666666666669</ele><time>2026-04-26T17:54:12Z</time></trkpt><trkpt lat="43.12854225782954" lon="12.431302887796988"><ele>203.33333333333331</ele><time>2026-04-26T17:54:13Z</time></trkpt><trkpt lat="43.128660995753975" lon="12.431043471099684"><ele>202.0</ele><time>2026-04-26T17:54:14Z</time></trkpt><trkpt lat="43.128778082246576" lon="12.430782796803367"><ele>202.0</ele><time>2026-04-26T17:54:15Z</time></trkpt><trkpt lat="43.12888972084926" lon="12.430526907160713"><ele>202.0</ele><time>2026-04-26T17:54:16Z</time></trkpt><trkpt lat="43.12900370210441" lon="12.430274179840797"><ele>202.0</ele><time>2026-04-26T17:54:17Z</time></trkpt><trkpt lat="43.129084897772685" lon="12.429998675247834"><ele>204.33333333333331</ele><time>2026-04-26T17:54:18Z</time></trkpt><trkpt lat="43.129139235999766" lon="12.429705315761597"><ele>206.66666666666669</ele><time>2026-04-26T17:54:19Z</time></trkpt><trkpt lat="43.12917138956591" lon="12.429405392939064"><ele>209.0</ele><time>2026-04-26T17:54:20Z</time></trkpt><trkpt lat="43.12917887903634" lon="12.429102160321637"><ele>210.66666666666669</ele><time>2026-04-26T17:54:21Z</time></trkpt><trkpt lat="43.12918540566981" lon="12.428795957700393"><ele>212.33333333333331</ele><time>2026-04-26T17:54:22Z</time></trkpt><trkpt lat="43.129200364854405" lon="12.428495662817951"><ele>214.0</ele><time>2026-04-26T17:54:23Z</time></trkpt><trkpt lat="43.129201763420106" lon="12.428208088505777"><ele>215.0</ele><time>2026-04-26T17:54:24Z</time></trkpt><trkpt lat="43.12919256277796" lon="12.427899194603317"><ele>216.0</ele><time>2026-04-26T17:54:25Z</time></trkpt><trkpt lat="43.12917265707102" lon="12.427588274703309"><ele>216.0</ele><time>2026-04-26T17:54:26Z</time></trkpt><trkpt lat="43.12916515740953" lon="12.427283888665421"><ele>216.0</ele><time>2026-04-26T17:54:27Z</time></trkpt><trkpt lat="43.129161305842736" lon="12.426973517003097"><ele>216.0</ele><time>2026-04-26T17:54:28Z</time></trkpt><trkpt lat="43.129155960178075" lon="12.426660392364003"><ele>217.5</ele><time>2026-04-26T17:54:29Z</time></trkpt><trkpt lat="43.129145947782035" lon="12.426346215773677"><ele>219.0</ele><time>2026-04-26T17:54:30Z</time></trkpt><trkpt lat="43.12914487737804" lon="12.426039782112465"><ele>219.66666666666669</ele><time>2026-04-26T17:54:31Z</time></trkpt><trkpt lat="43.12914493512176" lon="12.425734849634747"><ele>220.33333333333334</ele><time>2026-04-26T17:54:32Z</time></trkpt><trkpt lat="43.12913902342275" lon="12.42542760904162"><ele>221.0</ele><time>2026-04-26T17:54:33Z</time></trkpt><trkpt lat="43.12913198819332" lon="12.42512515831043"><ele>222.0</ele><time>2026-04-26T17:54:34Z</time></trkpt><trkpt lat="43.12913102731945" lon="12.424824003450704"><ele>223.0</ele><time>2026-04-26T17:54:35Z</time></trkpt><trkpt lat="43.12912935459006" lon="12.424523142727404"><ele>224.0</ele><time>2026-04-26T17:54:36Z</time></trkpt><trkpt lat="43.12912773951312" lon="12.424222115231155"><ele>225.0</ele><time>2026-04-26T17:54:37Z</time></trkpt><trkpt lat="43.12912413318972" lon="12.423920668410176"><ele>226.0</ele><time>2026-04-26T17:54:38Z</time></trkpt><trkpt lat="43.12911082133812" lon="12.423617254317417"><ele>227.0</ele><time>2026-04-26T17:54:39Z</time></trkpt><trkpt lat="43.12909860229209" lon="12.423318385524247"><ele>227.66666666666669</ele><time>2026-04-26T17:54:40Z</time></trkpt><trkpt lat="43.12908556142504" lon="12.423038807394818"><ele>228.33333333333331</ele><time>2026-04-26T17:54:41Z</time></trkpt><trkpt lat="43.129065892223224" lon="12.422759823980888"><ele>229.0</ele><time>2026-04-26T17:54:42Z</time></trkpt><trkpt lat="43.129046873330154" lon="12.422483111965496"><ele>227.0</ele><time>2026-04-26T17:54:43Z</time></trkpt><trkpt lat="43.12902816514147" lon="12.422204138702241"><ele>225.0</ele><time>2026-04-26T17:54:44Z</time></trkpt><trkpt lat="43.12900966363575" lon="12.421925030578056"><ele>223.0</ele><time>2026-04-26T17:54:45Z</time></trkpt><trkpt lat="43.12898255994117" lon="12.421640356620482"><ele>222.33333333333331</ele><time>2026-04-26T17:54:46Z</time></trkpt><trkpt lat="43.12894047570072" lon="12.421356666377164"><ele>221.66666666666669</ele><time>2026-04-26T17:54:47Z</time></trkpt><trkpt lat="43.12888011063152" lon="12.4210685936742"><ele>221.0</ele><time>2026-04-26T17:54:48Z</time></trkpt><trkpt lat="43.12881283992338" lon="12.420774804664761"><ele>223.5</ele><time>2026-04-26T17:54:49Z</time></trkpt><trkpt lat="43.12872795833721" lon="12.420482973526143"><ele>226.0</ele><time>2026-04-26T17:54:50Z</time></trkpt><trkpt lat="43.128645170905806" lon="12.420186671763123"><ele>226.0</ele><time>2026-04-26T17:54:51Z</time></trkpt><trkpt lat="43.128561330705914" lon="12.419893711671"><ele>226.0</ele><time>2026-04-26T17:54:52Z</time></trkpt><trkpt lat="43.128484771406555" lon="12.419622922974025"><ele>226.0</ele><time>2026-04-26T17:54:53Z</time></trkpt><trkpt lat="43.128414171268346" lon="12.419378246064184"><ele>228.66666666666666</ele><time>2026-04-26T17:54:54Z</time></trkpt><trkpt lat="43.128348033296156" lon="12.419150791782402"><ele>231.33333333333331</ele><time>2026-04-26T17:54:55Z</time></trkpt><trkpt lat="43.128288359272105" lon="12.418944766516756"><ele>234.0</ele><time>2026-04-26T17:54:56Z</time></trkpt><trkpt lat="43.12822788532913" lon="12.418730631348561"><ele>232.66666666666669</ele><time>2026-04-26T17:54:57Z</time></trkpt><trkpt lat="43.12816393864369" lon="12.418500723969917"><ele>231.33333333333334</ele><time>2026-04-26T17:54:58Z</time></trkpt><trkpt lat="43.1280946010424" lon="12.418258849648963"><ele>230.0</ele><time>2026-04-26T17:54:59Z</time></trkpt><trkpt lat="43.128037510815666" lon="12.417996873000213"><ele>231.0</ele><time>2026-04-26T17:55:00Z</time></trkpt><trkpt lat="43.127960852821786" lon="12.41772159798638"><ele>232.0</ele><time>2026-04-26T17:55:01Z</time></trkpt><trkpt lat="43.127878040429664" lon="12.417431622113414"><ele>233.0</ele><time>2026-04-26T17:55:02Z</time></trkpt><trkpt lat="43.12780200874824" lon="12.417134623948678"><ele>234.66666666666669</ele><time>2026-04-26T17:55:03Z</time></trkpt><trkpt lat="43.12772614060631" lon="12.416846912154584"><ele>236.33333333333331</ele><time>2026-04-26T17:55:04Z</time></trkpt><trkpt lat="43.127669629890256" lon="12.41655108737927"><ele>238.0</ele><time>2026-04-26T17:55:05Z</time></trkpt><trkpt lat="43.12762442893219" lon="12.416253345895035"><ele>238.66666666666666</ele><time>2026-04-26T17:55:06Z</time></trkpt><trkpt lat="43.127583347981414" lon="12.415957902618388"><ele>239.33333333333331</ele><time>2026-04-26T17:55:07Z</time></trkpt><trkpt lat="43.12754623709999" lon="12.415671742623738"><ele>240.0</ele><time>2026-04-26T17:55:08Z</time></trkpt><trkpt lat="43.12751207845615" lon="12.415408377317824"><ele>242.0</ele><time>2026-04-26T17:55:09Z</time></trkpt><trkpt lat="43.12748008310786" lon="12.415157726573824"><ele>244.0</ele><time>2026-04-26T17:55:10Z</time></trkpt><trkpt lat="43.12744385238423" lon="12.414909671153906"><ele>246.0</ele><time>2026-04-26T17:55:11Z</time></trkpt><trkpt lat="43.127416949127515" lon="12.41466592074173"><ele>242.66666666666669</ele><time>2026-04-26T17:55:12Z</time></trkpt><trkpt lat="43.127390925541555" lon="12.41443808463376"><ele>239.33333333333334</ele><time>2026-04-26T17:55:13Z</time></trkpt><trkpt lat="43.12736818247287" lon="12.414226571714744"><ele>236.0</ele><time>2026-04-26T17:55:14Z</time></trkpt><trkpt lat="43.127350992884814" lon="12.414022365826714"><ele>236.5</ele><time>2026-04-26T17:55:15Z</time></trkpt><trkpt lat="43.127342438239374" lon="12.413814586094444"><ele>237.0</ele><time>2026-04-26T17:55:16Z</time></trkpt><trkpt lat="43.127327616869295" lon="12.413612109514496"><ele>237.5</ele><time>2026-04-26T17:55:17Z</time></trkpt><trkpt lat="43.12731332173988" lon="12.413409752699051"><ele>238.0</ele><time>2026-04-26T17:55:18Z</time></trkpt><trkpt lat="43.12730454836656" lon="12.413205929804262"><ele>238.0</ele><time>2026-04-26T17:55:19Z</time></trkpt><trkpt lat="43.12729875274618" lon="12.413000985998723"><ele>238.0</ele><time>2026-04-26T17:55:20Z</time></trkpt><trkpt lat="43.1272941569831" lon="12.412796908564484"><ele>238.0</ele><time>2026-04-26T17:55:21Z</time></trkpt><trkpt lat="43.12728581709408" lon="12.412593263990818"><ele>238.0</ele><time>2026-04-26T17:55:22Z</time></trkpt><trkpt lat="43.12727856614782" lon="12.412388662930498"><ele>238.66666666666666</ele><time>2026-04-26T17:55:23Z</time></trkpt><trkpt lat="43.127276291928055" lon="12.412180062421546"><ele>239.33333333333331</ele><time>2026-04-26T17:55:24Z</time></trkpt><trkpt lat="43.12727971838251" lon="12.411971915188003"><ele>240.0</ele><time>2026-04-26T17:55:25Z</time></trkpt><trkpt lat="43.12729196724564" lon="12.411763602121214"><ele>241.0</ele><time>2026-04-26T17:55:26Z</time></trkpt><trkpt lat="43.12731153536456" lon="12.411556261845549"><ele>242.0</ele><time>2026-04-26T17:55:27Z</time></trkpt><trkpt lat="43.12733331713945" lon="12.411346418891355"><ele>243.0</ele><time>2026-04-26T17:55:28Z</time></trkpt><trkpt lat="43.127353911832415" lon="12.411134976853523"><ele>243.66666666666669</ele><time>2026-04-26T17:55:29Z</time></trkpt><trkpt lat="43.12737575633776" lon="12.410925323351119"><ele>244.33333333333334</ele><time>2026-04-26T17:55:30Z</time></trkpt><trkpt lat="43.12740028566602" lon="12.410717843038475"><ele>245.0</ele><time>2026-04-26T17:55:31Z</time></trkpt><trkpt lat="43.12741774235076" lon="12.41052035631994"><ele>247.0</ele><time>2026-04-26T17:55:32Z</time></trkpt><trkpt lat="43.12743751014733" lon="12.41033128964427"><ele>249.0</ele><time>2026-04-26T17:55:33Z</time></trkpt><trkpt lat="43.12745542737422" lon="12.410137063483555"><ele>251.0</ele><time>2026-04-26T17:55:34Z</time></trkpt><trkpt lat="43.12746985512641" lon="12.409938506060206"><ele>253.0</ele><time>2026-04-26T17:55:35Z</time></trkpt><trkpt lat="43.12747075641289" lon="12.409735431685442"><ele>253.66666666666666</ele><time>2026-04-26T17:55:36Z</time></trkpt><trkpt lat="43.12744556973958" lon="12.409528016381055"><ele>254.33333333333331</ele><time>2026-04-26T17:55:37Z</time></trkpt><trkpt lat="43.12739364830065" lon="12.409322175268782"><ele>255.0</ele><time>2026-04-26T17:55:38Z</time></trkpt><trkpt lat="43.12732211025588" lon="12.409129923661082"><ele>253.75</ele><time>2026-04-26T17:55:39Z</time></trkpt><trkpt lat="43.12725039767859" lon="12.408949206881262"><ele>252.5</ele><time>2026-04-26T17:55:40Z</time></trkpt><trkpt lat="43.12717569238221" lon="12.408776160515433"><ele>251.25</ele><time>2026-04-26T17:55:41Z</time></trkpt><trkpt lat="43.12710681621629" lon="12.40860558938646"><ele>250.0</ele><time>2026-04-26T17:55:42Z</time></trkpt><trkpt lat="43.12704263618345" lon="12.408442660451254"><ele>250.0</ele><time>2026-04-26T17:55:43Z</time></trkpt><trkpt lat="43.12697757094916" lon="12.408282793119074"><ele>250.0</ele><time>2026-04-26T17:55:44Z</time></trkpt><trkpt lat="43.126914967715145" lon="12.40811609914251"><ele>250.0</ele><time>2026-04-26T17:55:45Z</time></trkpt><trkpt lat="43.12685087691281" lon="12.407947716678342"><ele>250.0</ele><time>2026-04-26T17:55:46Z</time></trkpt><trkpt lat="43.126786300996194" lon="12.407774677530135"><ele>251.0</ele><time>2026-04-26T17:55:47Z</time></trkpt><trkpt lat="43.126722269818096" lon="12.407593298170735"><ele>252.0</ele><time>2026-04-26T17:55:48Z</time></trkpt><trkpt lat="43.126667291655416" lon="12.40740743470498"><ele>253.0</ele><time>2026-04-26T17:55:49Z</time></trkpt><trkpt lat="43.12661515968865" lon="12.407224251493131"><ele>254.0</ele><time>2026-04-26T17:55:50Z</time></trkpt><trkpt lat="43.126571965020915" lon="12.407045461642522"><ele>253.75</ele><time>2026-04-26T17:55:51Z</time></trkpt><trkpt lat="43.12652886007296" lon="12.406880953045404"><ele>253.5</ele><time>2026-04-26T17:55:52Z</time></trkpt><trkpt lat="43.12648731419277" lon="12.406723923235614"><ele>253.25</ele><time>2026-04-26T17:55:53Z</time></trkpt><trkpt lat="43.12644308439193" lon="12.40656742993469"><ele>253.0</ele><time>2026-04-26T17:55:54Z</time></trkpt><trkpt lat="43.1264049998914" lon="12.406402271885533"><ele>252.75</ele><time>2026-04-26T17:55:55Z</time></trkpt><trkpt lat="43.126356883937916" lon="12.40622872336371"><ele>252.5</ele><time>2026-04-26T17:55:56Z</time></trkpt><trkpt lat="43.126311951681664" lon="12.40606295823628"><ele>252.25</ele><time>2026-04-26T17:55:57Z</time></trkpt><trkpt lat="43.12626795981922" lon="12.405900047203186"><ele>252.0</ele><time>2026-04-26T17:55:58Z</time></trkpt><trkpt lat="43.126228547798135" lon="12.405740187596741"><ele>252.0</ele><time>2026-04-26T17:55:59Z</time></trkpt><trkpt lat="43.12618665314119" lon="12.40557831454643"><ele>252.0</ele><time>2026-04-26T17:56:00Z</time></trkpt><trkpt lat="43.12613987947386" lon="12.405413587396176"><ele>252.0</ele><time>2026-04-26T17:56:01Z</time></trkpt><trkpt lat="43.126094099831775" lon="12.405240814544774"><ele>252.0</ele><time>2026-04-26T17:56:02Z</time></trkpt><trkpt lat="43.12604581828883" lon="12.405066944024782"><ele>253.25</ele><time>2026-04-26T17:56:03Z</time></trkpt><trkpt lat="43.12599911587916" lon="12.404879902762918"><ele>254.5</ele><time>2026-04-26T17:56:04Z</time></trkpt><trkpt lat="43.12594666094002" lon="12.404695733901296"><ele>255.75</ele><time>2026-04-26T17:56:05Z</time></trkpt><trkpt lat="43.12589879276234" lon="12.404510737430176"><ele>257.0</ele><time>2026-04-26T17:56:06Z</time></trkpt><trkpt lat="43.12584948840472" lon="12.404320590994503"><ele>256.6666666666667</ele><time>2026-04-26T17:56:07Z</time></trkpt><trkpt lat="43.12579009730438" lon="12.404131848020631"><ele>256.3333333333333</ele><time>2026-04-26T17:56:08Z</time></trkpt><trkpt lat="43.12573886783829" lon="12.403933648524617"><ele>256.0</ele><time>2026-04-26T17:56:09Z</time></trkpt><trkpt lat="43.12569894658755" lon="12.403716898124344"><ele>256.0</ele><time>2026-04-26T17:56:10Z</time></trkpt><trkpt lat="43.1256515509326" lon="12.40352308680857"><ele>256.0</ele><time>2026-04-26T17:56:11Z</time></trkpt><trkpt lat="43.12559512309317" lon="12.4033333895655"><ele>256.0</ele><time>2026-04-26T17:56:12Z</time></trkpt><trkpt lat="43.12555632111973" lon="12.403142194495162"><ele>256.0</ele><time>2026-04-26T17:56:13Z</time></trkpt><trkpt lat="43.12552495893293" lon="12.402957099030237"><ele>256.5</ele><time>2026-04-26T17:56:14Z</time></trkpt><trkpt lat="43.12550616128804" lon="12.402768986889509"><ele>257.0</ele><time>2026-04-26T17:56:15Z</time></trkpt><trkpt lat="43.12550255618979" lon="12.402578314633615"><ele>257.5</ele><time>2026-04-26T17:56:16Z</time></trkpt><trkpt lat="43.12551047841265" lon="12.402383731008193"><ele>258.0</ele><time>2026-04-26T17:56:17Z</time></trkpt><trkpt lat="43.12552280848646" lon="12.40219447987487"><ele>258.75</ele><time>2026-04-26T17:56:18Z</time></trkpt><trkpt lat="43.12554121415735" lon="12.40200571613986"><ele>259.5</ele><time>2026-04-26T17:56:19Z</time></trkpt><trkpt lat="43.1255565845357" lon="12.401825645256913"><ele>260.25</ele><time>2026-04-26T17:56:20Z</time></trkpt><trkpt lat="43.12556470670505" lon="12.40164905616787"><ele>261.0</ele><time>2026-04-26T17:56:21Z</time></trkpt><trkpt lat="43.12557585216605" lon="12.401477938068762"><ele>261.25</ele><time>2026-04-26T17:56:22Z</time></trkpt><trkpt lat="43.12558808098774" lon="12.401303796323798"><ele>261.5</ele><time>2026-04-26T17:56:23Z</time></trkpt><trkpt lat="43.12561082505499" lon="12.401128864263931"><ele>261.75</ele><time>2026-04-26T17:56:24Z</time></trkpt><trkpt lat="43.12563312602231" lon="12.400956301961084"><ele>262.0</ele><time>2026-04-26T17:56:25Z</time></trkpt><trkpt lat="43.125655772624874" lon="12.400783724219066"><ele>262.0</ele><time>2026-04-26T17:56:26Z</time></trkpt><trkpt lat="43.125689605218504" lon="12.400616091294562"><ele>262.0</ele><time>2026-04-26T17:56:27Z</time></trkpt><trkpt lat="43.125715396139185" lon="12.40045332315355"><ele>262.0</ele><time>2026-04-26T17:56:28Z</time></trkpt><trkpt lat="43.12574132857827" lon="12.400278946941262"><ele>262.0</ele><time>2026-04-26T17:56:29Z</time></trkpt><trkpt lat="43.12576492363335" lon="12.400103428861193"><ele>266.0</ele><time>2026-04-26T17:56:30Z</time></trkpt><trkpt lat="43.125778066762834" lon="12.399915955327423"><ele>270.0</ele><time>2026-04-26T17:56:31Z</time></trkpt><trkpt lat="43.12578554004047" lon="12.39972569604194"><ele>274.0</ele><time>2026-04-26T17:56:32Z</time></trkpt><trkpt lat="43.12578197924937" lon="12.399541542910336"><ele>278.0</ele><time>2026-04-26T17:56:33Z</time></trkpt><trkpt lat="43.125764531575925" lon="12.399369471667482"><ele>278.25</ele><time>2026-04-26T17:56:34Z</time></trkpt><trkpt lat="43.12574858262676" lon="12.399196641898907"><ele>278.5</ele><time>2026-04-26T17:56:35Z</time></trkpt><trkpt lat="43.12572715451818" lon="12.399027978058983"><ele>278.75</ele><time>2026-04-26T17:56:36Z</time></trkpt><trkpt lat="43.12569522980784" lon="12.398855779588112"><ele>279.0</ele><time>2026-04-26T17:56:37Z</time></trkpt><trkpt lat="43.12565767582045" lon="12.398685714491515"><ele>275.0</ele><time>2026-04-26T17:56:38Z</time></trkpt><trkpt lat="43.125606003956605" lon="12.398523391644723"><ele>271.0</ele><time>2026-04-26T17:56:39Z</time></trkpt><trkpt lat="43.125554412346524" lon="12.398373466823877"><ele>267.0</ele><time>2026-04-26T17:56:40Z</time></trkpt><trkpt lat="43.12549358254137" lon="12.398239754864605"><ele>263.0</ele><time>2026-04-26T17:56:41Z</time></trkpt><trkpt lat="43.12542944414792" lon="12.398113401638879"><ele>263.75</ele><time>2026-04-26T17:56:42Z</time></trkpt><trkpt lat="43.125352408361096" lon="12.397989913323958"><ele>264.5</ele><time>2026-04-26T17:56:43Z</time></trkpt><trkpt lat="43.125270226985265" lon="12.39786821873144"><ele>265.25</ele><time>2026-04-26T17:56:44Z</time></trkpt><trkpt lat="43.12517953945828" lon="12.39774715683075"><ele>266.0</ele><time>2026-04-26T17:56:45Z</time></trkpt><trkpt lat="43.125083946496595" lon="12.397629231497788"><ele>266.0</ele><time>2026-04-26T17:56:46Z</time></trkpt><trkpt lat="43.12498936176269" lon="12.397519253114888"><ele>266.0</ele><time>2026-04-26T17:56:47Z</time></trkpt><trkpt lat="43.124892864744695" lon="12.39742272291198"><ele>266.0</ele><time>2026-04-26T17:56:48Z</time></trkpt><trkpt lat="43.124801023854765" lon="12.397323977497331"><ele>266.0</ele><time>2026-04-26T17:56:49Z</time></trkpt><trkpt lat="43.124705587200474" lon="12.3972329787761"><ele>268.25</ele><time>2026-04-26T17:56:50Z</time></trkpt><trkpt lat="43.12461318880812" lon="12.397136186367275"><ele>270.5</ele><time>2026-04-26T17:56:51Z</time></trkpt><trkpt lat="43.124523914007774" lon="12.39703779530122"><ele>272.75</ele><time>2026-04-26T17:56:52Z</time></trkpt><trkpt lat="43.12443568220474" lon="12.396941083449287"><ele>275.0</ele><time>2026-04-26T17:56:53Z</time></trkpt><trkpt lat="43.12434095631255" lon="12.396845607800747"><ele>275.0</ele><time>2026-04-26T17:56:54Z</time></trkpt><trkpt lat="43.12422926463555" lon="12.396746016498568"><ele>275.0</ele><time>2026-04-26T17:56:55Z</time></trkpt><trkpt lat="43.12412237908031" lon="12.396586751342014"><ele>275.0</ele><time>2026-04-26T17:56:56Z</time></trkpt><trkpt lat="43.123976584695036" lon="12.39642984561034"><ele>279.33333333333337</ele><time>2026-04-26T17:56:57Z</time></trkpt><trkpt lat="43.123812038096204" lon="12.3962512768634"><ele>283.6666666666667</ele><time>2026-04-26T17:56:58Z</time></trkpt><trkpt lat="43.12364958512566" lon="12.396075699529092"><ele>288.0</ele><time>2026-04-26T17:56:59Z</time></trkpt><trkpt lat="43.12348807165726" lon="12.39590330717596"><ele>288.0</ele><time>2026-04-26T17:57:00Z</time></trkpt><trkpt lat="43.1233225808582" lon="12.395727098019993"><ele>288.0</ele><time>2026-04-26T17:57:01Z</time></trkpt><trkpt lat="43.123141815159144" lon="12.395560093943363"><ele>288.0</ele><time>2026-04-26T17:57:02Z</time></trkpt><trkpt lat="43.1229711106517" lon="12.395375116989802"><ele>292.3333333333333</ele><time>2026-04-26T17:57:03Z</time></trkpt><trkpt lat="43.12281205199915" lon="12.395206396951236"><ele>296.66666666666663</ele><time>2026-04-26T17:57:04Z</time></trkpt><trkpt lat="43.12266128040196" lon="12.395048086556073"><ele>301.0</ele><time>2026-04-26T17:57:05Z</time></trkpt><trkpt lat="43.122529631281296" lon="12.394884213139171"><ele>301.0</ele><time>2026-04-26T17:57:06Z</time></trkpt><trkpt lat="43.1224105049213" lon="12.394716262240784"><ele>301.0</ele><time>2026-04-26T17:57:07Z</time></trkpt><trkpt lat="43.12229831363037" lon="12.394538463890516"><ele>301.0</ele><time>2026-04-26T17:57:08Z</time></trkpt><trkpt lat="43.12220175257851" lon="12.394335268559507"><ele>304.3333333333333</ele><time>2026-04-26T17:57:09Z</time></trkpt><trkpt lat="43.12208376039137" lon="12.3941645159858"><ele>307.6666666666667</ele><time>2026-04-26T17:57:10Z</time></trkpt><trkpt lat="43.12199186553654" lon="12.393992726780528"><ele>311.0</ele><time>2026-04-26T17:57:11Z</time></trkpt><trkpt lat="43.1218815741227" lon="12.393825543217861"><ele>313.75</ele><time>2026-04-26T17:57:12Z</time></trkpt><trkpt lat="43.12178358893779" lon="12.39367574908435"><ele>316.5</ele><time>2026-04-26T17:57:13Z</time></trkpt><trkpt lat="43.121692387528235" lon="12.393547556180925"><ele>319.25</ele><time>2026-04-26T17:57:14Z</time></trkpt><trkpt lat="43.121598374664345" lon="12.393428654250357"><ele>322.0</ele><time>2026-04-26T17:57:15Z</time></trkpt><trkpt lat="43.12151596088158" lon="12.393325333478368"><ele>322.0</ele><time>2026-04-26T17:57:16Z</time></trkpt><trkpt lat="43.121439884749016" lon="12.393230100596245"><ele>322.0</ele><time>2026-04-26T17:57:17Z</time></trkpt><trkpt lat="43.121357506152194" lon="12.39313247341292"><ele>322.0</ele><time>2026-04-26T17:57:18Z</time></trkpt><trkpt lat="43.1212760079949" lon="12.393059587846594"><ele>322.0</ele><time>2026-04-26T17:57:19Z</time></trkpt><trkpt lat="43.12119055187778" lon="12.392983951541714"><ele>322.0</ele><time>2026-04-26T17:57:20Z</time></trkpt><trkpt lat="43.12109628347645" lon="12.392901552510562"><ele>327.0</ele><time>2026-04-26T17:57:21Z</time></trkpt><trkpt lat="43.12100568958893" lon="12.392799187895081"><ele>332.0</ele><time>2026-04-26T17:57:22Z</time></trkpt><trkpt lat="43.12093213677846" lon="12.392671495983917"><ele>337.0</ele><time>2026-04-26T17:57:23Z</time></trkpt><trkpt lat="43.12084749140914" lon="12.39255878946338"><ele>342.0</ele><time>2026-04-26T17:57:24Z</time></trkpt><trkpt lat="43.120784652047114" lon="12.392436997851165"><ele>342.0</ele><time>2026-04-26T17:57:25Z</time></trkpt><trkpt lat="43.12073299259445" lon="12.39230579949891"><ele>342.0</ele><time>2026-04-26T17:57:26Z</time></trkpt><trkpt lat="43.12068813382168" lon="12.392170644000819"><ele>342.0</ele><time>2026-04-26T17:57:27Z</time></trkpt><trkpt lat="43.120647027770225" lon="12.392033843267113"><ele>342.0</ele><time>2026-04-26T17:57:28Z</time></trkpt><trkpt lat="43.1206302216055" lon="12.391889287920362"><ele>342.0</ele><time>2026-04-26T17:57:29Z</time></trkpt><trkpt lat="43.1205994695149" lon="12.391741801482462"><ele>343.5</ele><time>2026-04-26T17:57:30Z</time></trkpt><trkpt lat="43.12055207425535" lon="12.391599647269892"><ele>345.0</ele><time>2026-04-26T17:57:31Z</time></trkpt><trkpt lat="43.12051008752374" lon="12.391457426131419"><ele>346.5</ele><time>2026-04-26T17:57:32Z</time></trkpt><trkpt lat="43.12046690633698" lon="12.391315157639799"><ele>348.0</ele><time>2026-04-26T17:57:33Z</time></trkpt><trkpt lat="43.12042844188812" lon="12.391170103653346"><ele>351.75</ele><time>2026-04-26T17:57:34Z</time></trkpt><trkpt lat="43.12036262649678" lon="12.391020868727914"><ele>355.5</ele><time>2026-04-26T17:57:35Z</time></trkpt><trkpt lat="43.120318764303" lon="12.390890871149587"><ele>359.25</ele><time>2026-04-26T17:57:36Z</time></trkpt><trkpt lat="43.12028226465888" lon="12.39073777968905"><ele>363.0</ele><time>2026-04-26T17:57:37Z</time></trkpt><trkpt lat="43.120242230726646" lon="12.390603891626077"><ele>366.4</ele><time>2026-04-26T17:57:38Z</time></trkpt><trkpt lat="43.120201445673366" lon="12.39048460470945"><ele>369.79999999999995</ele><time>2026-04-26T17:57:39Z</time></trkpt><trkpt lat="43.12013478082696" lon="12.390371922416893"><ele>373.2</ele><time>2026-04-26T17:57:40Z</time></trkpt><trkpt lat="43.12006921370427" lon="12.390275343005673"><ele>376.6</ele><time>2026-04-26T17:57:41Z</time></trkpt><trkpt lat="43.11997870322151" lon="12.39018155678057"><ele>380.0</ele><time>2026-04-26T17:57:42Z</time></trkpt><trkpt lat="43.11990049250538" lon="12.390106123541043"><ele>383.4</ele><time>2026-04-26T17:57:43Z</time></trkpt><trkpt lat="43.119789043334315" lon="12.390107019971145"><ele>386.8</ele><time>2026-04-26T17:57:44Z</time></trkpt><trkpt lat="43.11967315546156" lon="12.390142048156124"><ele>390.20000000000005</ele><time>2026-04-26T17:57:45Z</time></trkpt><trkpt lat="43.11958561421216" lon="12.39015008364947"><ele>393.6</ele><time>2026-04-26T17:57:46Z</time></trkpt><trkpt lat="43.119502708942484" lon="12.390198445082016"><ele>397.0</ele><time>2026-04-26T17:57:47Z</time></trkpt><trkpt lat="43.11942180898416" lon="12.390358724101725"><ele>397.0</ele><time>2026-04-26T17:57:48Z</time></trkpt><trkpt lat="43.11940410236251" lon="12.390496298757897"><ele>397.0</ele><time>2026-04-26T17:57:49Z</time></trkpt><trkpt lat="43.11939808034486" lon="12.39060385019409"><ele>397.0</ele><time>2026-04-26T17:57:50Z</time></trkpt><trkpt lat="43.11938749040034" lon="12.390791963265073"><ele>397.0</ele><time>2026-04-26T17:57:52Z</time></trkpt><trkpt lat="43.119386040998435" lon="12.390909012253687"><ele>397.0</ele><time>2026-04-26T17:57:53Z</time></trkpt><trkpt lat="43.11935552309343" lon="12.391011794721969"><ele>395.1666666666667</ele><time>2026-04-26T17:57:54Z</time></trkpt><trkpt lat="43.11930092809379" lon="12.391119852882458"><ele>393.33333333333337</ele><time>2026-04-26T17:57:55Z</time></trkpt><trkpt lat="43.11923880420582" lon="12.391196353089251"><ele>391.5</ele><time>2026-04-26T17:57:56Z</time></trkpt><trkpt lat="43.119166949621025" lon="12.39124754984926"><ele>389.66666666666663</ele><time>2026-04-26T17:57:57Z</time></trkpt><trkpt lat="43.11909853078702" lon="12.391279087151897"><ele>387.8333333333333</ele><time>2026-04-26T17:57:58Z</time></trkpt><trkpt lat="43.11899986894838" lon="12.391297615320948"><ele>386.0</ele><time>2026-04-26T17:57:59Z</time></trkpt><trkpt lat="43.118910741635716" lon="12.39130813608292"><ele>386.75</ele><time>2026-04-26T17:58:00Z</time></trkpt><trkpt lat="43.11880662809138" lon="12.391342211339744"><ele>387.5</ele><time>2026-04-26T17:58:01Z</time></trkpt><trkpt lat="43.11870934812465" lon="12.391376229064045"><ele>388.25</ele><time>2026-04-26T17:58:02Z</time></trkpt><trkpt lat="43.1186045145527" lon="12.391402034144434"><ele>389.0</ele><time>2026-04-26T17:58:03Z</time></trkpt><trkpt lat="43.11846841278189" lon="12.391413927430868"><ele>389.0</ele><time>2026-04-26T17:58:05Z</time></trkpt><trkpt lat="43.11836819597147" lon="12.39141937289105"><ele>389.0</ele><time>2026-04-26T17:58:06Z</time></trkpt><trkpt lat="43.118272846801474" lon="12.391413239791879"><ele>389.0</ele><time>2026-04-26T17:58:07Z</time></trkpt><trkpt lat="43.11817379141185" lon="12.391395087670325"><ele>389.0</ele><time>2026-04-26T17:58:08Z</time></trkpt><trkpt lat="43.118073177959474" lon="12.39134904916922"><ele>389.0</ele><time>2026-04-26T17:58:09Z</time></trkpt><trkpt lat="43.117976489383814" lon="12.391319549093975"><ele>396.25</ele><time>2026-04-26T17:58:10Z</time></trkpt><trkpt lat="43.11786713536112" lon="12.391295451391045"><ele>403.5</ele><time>2026-04-26T17:58:11Z</time></trkpt><trkpt lat="43.11775364898095" lon="12.391285903344103"><ele>410.75</ele><time>2026-04-26T17:58:12Z</time></trkpt><trkpt lat="43.11763750555665" lon="12.391254772823213"><ele>418.0</ele><time>2026-04-26T17:58:13Z</time></trkpt><trkpt lat="43.117525517876096" lon="12.39126760972363"><ele>418.0</ele><time>2026-04-26T17:58:14Z</time></trkpt><trkpt lat="43.11741956498575" lon="12.391224129901657"><ele>418.0</ele><time>2026-04-26T17:58:15Z</time></trkpt><trkpt lat="43.117322738675185" lon="12.391205423829451"><ele>418.0</ele><time>2026-04-26T17:58:16Z</time></trkpt><trkpt lat="43.1172386492622" lon="12.39115718494869"><ele>418.0</ele><time>2026-04-26T17:58:17Z</time></trkpt><trkpt lat="43.1171702131637" lon="12.391148354737563"><ele>418.0</ele><time>2026-04-26T17:58:18Z</time></trkpt><trkpt lat="43.117075795931996" lon="12.391135466056834"><ele>420.59999999999997</ele><time>2026-04-26T17:58:21Z</time></trkpt><trkpt lat="43.11700279224348" lon="12.39109456209769"><ele>423.2</ele><time>2026-04-26T17:58:23Z</time></trkpt><trkpt lat="43.11707736858294" lon="12.390955942388505"><ele>425.8</ele><time>2026-04-26T17:58:25Z</time></trkpt><trkpt lat="43.117149960975226" lon="12.390985521567604"><ele>428.4</ele><time>2026-04-26T17:58:26Z</time></trkpt><trkpt lat="43.11722657494584" lon="12.39087558126607"><ele>431.0</ele><time>2026-04-26T17:58:28Z</time></trkpt><trkpt lat="43.1172827798963" lon="12.390820209719802"><ele>430.99999999999994</ele><time>2026-04-26T17:58:29Z</time></trkpt><trkpt lat="43.117340050773095" lon="12.390769955922256"><ele>431.0</ele><time>2026-04-26T17:58:30Z</time></trkpt><trkpt lat="43.11740288812881" lon="12.390741956240358"><ele>431.0</ele><time>2026-04-26T17:58:31Z</time></trkpt><trkpt lat="43.11745377071213" lon="12.390690688741598"><ele>431.0</ele><time>2026-04-26T17:58:32Z</time></trkpt><trkpt lat="43.11751507052065" lon="12.390650610420106"><ele>430.99999999999994</ele><time>2026-04-26T17:58:33Z</time></trkpt><trkpt lat="43.11757975487842" lon="12.390618771492644"><ele>431.0</ele><time>2026-04-26T17:58:34Z</time></trkpt><trkpt lat="43.11771187868087" lon="12.390559629197526"><ele>432.3333333333333</ele><time>2026-04-26T17:58:36Z</time></trkpt><trkpt lat="43.11778238628732" lon="12.390534144645237"><ele>433.66666666666663</ele><time>2026-04-26T17:58:37Z</time></trkpt><trkpt lat="43.11787019431325" lon="12.390531704401072"><ele>435.0</ele><time>2026-04-26T17:58:38Z</time></trkpt><trkpt lat="43.117951997252305" lon="12.390532747073793"><ele>436.33333333333337</ele><time>2026-04-26T17:58:39Z</time></trkpt><trkpt lat="43.118034861794754" lon="12.390522043340253"><ele>437.6666666666667</ele><time>2026-04-26T17:58:40Z</time></trkpt><trkpt lat="43.1180999200454" lon="12.390472450762024"><ele>439.0</ele><time>2026-04-26T17:58:41Z</time></trkpt><trkpt lat="43.118153408623805" lon="12.390389784287896"><ele>439.00000000000006</ele><time>2026-04-26T17:58:42Z</time></trkpt><trkpt lat="43.11820303866493" lon="12.390300139977128"><ele>439.0</ele><time>2026-04-26T17:58:43Z</time></trkpt><trkpt lat="43.11824579055092" lon="12.390204122710022"><ele>439.0</ele><time>2026-04-26T17:58:44Z</time></trkpt><trkpt lat="43.11828685728792" lon="12.390117439550185"><ele>439.0</ele><time>2026-04-26T17:58:45Z</time></trkpt><trkpt lat="43.11831650099768" lon="12.390032364213047"><ele>439.00000000000006</ele><time>2026-04-26T17:58:46Z</time></trkpt><trkpt lat="43.118292922195714" lon="12.389924400882169"><ele>439.0</ele><time>2026-04-26T17:58:47Z</time></trkpt><trkpt lat="43.118252189044156" lon="12.38982592788154"><ele>439.00000000000006</ele><time>2026-04-26T17:58:48Z</time></trkpt><trkpt lat="43.1181990515468" lon="12.389740643216347"><ele>439.0</ele><time>2026-04-26T17:58:49Z</time></trkpt><trkpt lat="43.11814699006957" lon="12.389655305475848"><ele>439.0</ele><time>2026-04-26T17:58:50Z</time></trkpt><trkpt lat="43.11810488039769" lon="12.38956547780547"><ele>439.0</ele><time>2026-04-26T17:58:51Z</time></trkpt><trkpt lat="43.11805159478772" lon="12.389477976807433"><ele>439.00000000000006</ele><time>2026-04-26T17:58:52Z</time></trkpt><trkpt lat="43.118018134361776" lon="12.38937275015458"><ele>439.0</ele><time>2026-04-26T17:58:53Z</time></trkpt><trkpt lat="43.117995767877" lon="12.389273484340764"><ele>443.6</ele><time>2026-04-26T17:58:54Z</time></trkpt><trkpt lat="43.118002416691326" lon="12.389162389122824"><ele>448.2</ele><time>2026-04-26T17:58:55Z</time></trkpt><trkpt lat="43.11802753858795" lon="12.389041222522325"><ele>452.80000000000007</ele><time>2026-04-26T17:58:56Z</time></trkpt><trkpt lat="43.11806736301567" lon="12.388920610909613"><ele>457.40000000000003</ele><time>2026-04-26T17:58:57Z</time></trkpt><trkpt lat="43.11811316332538" lon="12.388812153820046"><ele>462.0</ele><time>2026-04-26T17:58:58Z</time></trkpt><trkpt lat="43.1181724269397" lon="12.38869928094804"><ele>461.0</ele><time>2026-04-26T17:58:59Z</time></trkpt><trkpt lat="43.11823029652974" lon="12.388581825905328"><ele>460.00000000000006</ele><time>2026-04-26T17:59:00Z</time></trkpt><trkpt lat="43.11829129614474" lon="12.388459823638682"><ele>459.00000000000006</ele><time>2026-04-26T17:59:01Z</time></trkpt><trkpt lat="43.11834776292584" lon="12.388338639151526"><ele>458.0</ele><time>2026-04-26T17:59:02Z</time></trkpt><trkpt lat="43.1184171161952" lon="12.388210843773551"><ele>457.0</ele><time>2026-04-26T17:59:03Z</time></trkpt><trkpt lat="43.11849036427923" lon="12.388086974022102"><ele>461.25</ele><time>2026-04-26T17:59:04Z</time></trkpt><trkpt lat="43.118566765178194" lon="12.387961364065399"><ele>465.5</ele><time>2026-04-26T17:59:05Z</time></trkpt><trkpt lat="43.118648649168655" lon="12.387843613980676"><ele>469.75</ele><time>2026-04-26T17:59:06Z</time></trkpt><trkpt lat="43.11873368097905" lon="12.387727842766783"><ele>474.0</ele><time>2026-04-26T17:59:07Z</time></trkpt><trkpt lat="43.11881827489378" lon="12.387615949679391"><ele>474.0</ele><time>2026-04-26T17:59:08Z</time></trkpt><trkpt lat="43.11889897727089" lon="12.38749706874541"><ele>474.0</ele><time>2026-04-26T17:59:09Z</time></trkpt><trkpt lat="43.11898623768162" lon="12.387382101704606"><ele>474.0</ele><time>2026-04-26T17:59:10Z</time></trkpt><trkpt lat="43.119050367587555" lon="12.387253365922367"><ele>474.0</ele><time>2026-04-26T17:59:11Z</time></trkpt><trkpt lat="43.11910307011476" lon="12.387129587189541"><ele>474.0</ele><time>2026-04-26T17:59:12Z</time></trkpt><trkpt lat="43.11915290381489" lon="12.387001121603094"><ele>474.0</ele><time>2026-04-26T17:59:13Z</time></trkpt><trkpt lat="43.119206881276114" lon="12.386895005895902"><ele>474.0</ele><time>2026-04-26T17:59:14Z</time></trkpt><trkpt lat="43.11925804818363" lon="12.386799670461752"><ele>474.0</ele><time>2026-04-26T17:59:15Z</time></trkpt><trkpt lat="43.119342284184235" lon="12.386716409492326"><ele>474.0</ele><time>2026-04-26T17:59:16Z</time></trkpt><trkpt lat="43.119436358284275" lon="12.38664216982995"><ele>474.0</ele><time>2026-04-26T17:59:17Z</time></trkpt><trkpt lat="43.11950516645652" lon="12.386574931827617"><ele>474.0</ele><time>2026-04-26T17:59:18Z</time></trkpt><trkpt lat="43.11959789079796" lon="12.386527174601165"><ele>474.0</ele><time>2026-04-26T17:59:19Z</time></trkpt><trkpt lat="43.11970097740137" lon="12.38649236617072"><ele>474.0</ele><time>2026-04-26T17:59:20Z</time></trkpt><trkpt lat="43.11980741691579" lon="12.386473000234723"><ele>474.0</ele><time>2026-04-26T17:59:21Z</time></trkpt><trkpt lat="43.11990123348342" lon="12.386425711734754"><ele>475.3333333333333</ele><time>2026-04-26T17:59:22Z</time></trkpt><trkpt lat="43.11997823414172" lon="12.386359076802295"><ele>476.66666666666663</ele><time>2026-04-26T17:59:23Z</time></trkpt><trkpt lat="43.12005496818987" lon="12.38633410135886"><ele>478.0</ele><time>2026-04-26T17:59:24Z</time></trkpt><trkpt lat="43.12012126338664" lon="12.386302118757836"><ele>479.3333333333333</ele><time>2026-04-26T17:59:25Z</time></trkpt><trkpt lat="43.12019205841497" lon="12.38631618149161"><ele>480.66666666666663</ele><time>2026-04-26T17:59:26Z</time></trkpt><trkpt lat="43.120259695773285" lon="12.386351315213961"><ele>482.0</ele><time>2026-04-26T17:59:27Z</time></trkpt><trkpt lat="43.12033232125364" lon="12.386387147296542"><ele>478.8</ele><time>2026-04-26T17:59:28Z</time></trkpt><trkpt lat="43.12040959052319" lon="12.386425361529849"><ele>475.6</ele><time>2026-04-26T17:59:29Z</time></trkpt><trkpt lat="43.120498328531404" lon="12.386467565573936"><ele>472.40000000000003</ele><time>2026-04-26T17:59:30Z</time></trkpt><trkpt lat="43.12058890281035" lon="12.386509320560108"><ele>469.20000000000005</ele><time>2026-04-26T17:59:31Z</time></trkpt><trkpt lat="43.12068048850627" lon="12.386544583465357"><ele>466.0</ele><time>2026-04-26T17:59:32Z</time></trkpt><trkpt lat="43.12077971833418" lon="12.386574925951846"><ele>466.00000000000006</ele><time>2026-04-26T17:59:33Z</time></trkpt><trkpt lat="43.12087026236077" lon="12.386611429439201"><ele>466.0</ele><time>2026-04-26T17:59:34Z</time></trkpt><trkpt lat="43.12095508295034" lon="12.386622709077562"><ele>466.0</ele><time>2026-04-26T17:59:35Z</time></trkpt><trkpt lat="43.121024384025326" lon="12.386605353336137"><ele>466.0</ele><time>2026-04-26T17:59:36Z</time></trkpt><trkpt lat="43.121094416165406" lon="12.38656745241352"><ele>466.00000000000006</ele><time>2026-04-26T17:59:37Z</time></trkpt><trkpt lat="43.12119132335479" lon="12.386513901126294"><ele>466.0</ele><time>2026-04-26T17:59:38Z</time></trkpt><trkpt lat="43.12125078336586" lon="12.386433896108949"><ele>467.83333333333337</ele><time>2026-04-26T17:59:40Z</time></trkpt><trkpt lat="43.12127409913248" lon="12.386341041632939"><ele>469.6666666666667</ele><time>2026-04-26T17:59:41Z</time></trkpt><trkpt lat="43.12123538771909" lon="12.386201007231275"><ele>471.5</ele><time>2026-04-26T17:59:42Z</time></trkpt><trkpt lat="43.12121851825308" lon="12.386096442720861"><ele>473.33333333333337</ele><time>2026-04-26T17:59:43Z</time></trkpt><trkpt lat="43.121205787254176" lon="12.385994811336545"><ele>475.1666666666667</ele><time>2026-04-26T17:59:44Z</time></trkpt><trkpt lat="43.12119100359983" lon="12.385861982460092"><ele>477.0</ele><time>2026-04-26T17:59:45Z</time></trkpt><trkpt lat="43.121178788282606" lon="12.385747977495539"><ele>477.0</ele><time>2026-04-26T17:59:46Z</time></trkpt><trkpt lat="43.1211754068284" lon="12.385635212960718"><ele>477.00000000000006</ele><time>2026-04-26T17:59:47Z</time></trkpt><trkpt lat="43.121192515027445" lon="12.385510812765455"><ele>477.00000000000006</ele><time>2026-04-26T17:59:48Z</time></trkpt><trkpt lat="43.1212293130005" lon="12.385386899321672"><ele>477.0</ele><time>2026-04-26T17:59:49Z</time></trkpt><trkpt lat="43.121263534943004" lon="12.385261587913673"><ele>477.0</ele><time>2026-04-26T17:59:50Z</time></trkpt><trkpt lat="43.121305630145" lon="12.385135788111159"><ele>476.5</ele><time>2026-04-26T17:59:51Z</time></trkpt><trkpt lat="43.12133902538438" lon="12.385005114813891"><ele>476.0</ele><time>2026-04-26T17:59:52Z</time></trkpt><trkpt lat="43.121355527355234" lon="12.384897348155395"><ele>475.5</ele><time>2026-04-26T17:59:53Z</time></trkpt><trkpt lat="43.121360114973555" lon="12.384797928462316"><ele>475.0</ele><time>2026-04-26T17:59:54Z</time></trkpt><trkpt lat="43.121327655695474" lon="12.384709677439233"><ele>474.5</ele><time>2026-04-26T17:59:55Z</time></trkpt><trkpt lat="43.12126261128621" lon="12.384634041834426"><ele>474.0</ele><time>2026-04-26T17:59:56Z</time></trkpt><trkpt lat="43.12117966676152" lon="12.3845727929282"><ele>471.0</ele><time>2026-04-26T17:59:57Z</time></trkpt><trkpt lat="43.12109282751376" lon="12.38450357407269"><ele>468.0</ele><time>2026-04-26T17:59:58Z</time></trkpt><trkpt lat="43.12100713775068" lon="12.384413999312883"><ele>465.0</ele><time>2026-04-26T17:59:59Z</time></trkpt><trkpt lat="43.12092674092331" lon="12.384321608523488"><ele>462.0</ele><time>2026-04-26T18:00:00Z</time></trkpt><trkpt lat="43.12084503644702" lon="12.384224857396925"><ele>459.0</ele><time>2026-04-26T18:00:01Z</time></trkpt><trkpt lat="43.12080539337531" lon="12.384099384312902"><ele>459.0</ele><time>2026-04-26T18:00:02Z</time></trkpt><trkpt lat="43.12075518394564" lon="12.383968600008096"><ele>459.0</ele><time>2026-04-26T18:00:03Z</time></trkpt><trkpt lat="43.120714209759896" lon="12.383832425832507"><ele>459.0</ele><time>2026-04-26T18:00:04Z</time></trkpt><trkpt lat="43.12067092113728" lon="12.383712970711521"><ele>459.0</ele><time>2026-04-26T18:00:05Z</time></trkpt><trkpt lat="43.12063483289481" lon="12.383603157585469"><ele>459.0</ele><time>2026-04-26T18:00:06Z</time></trkpt><trkpt lat="43.12060271600092" lon="12.383508157526911"><ele>461.3333333333333</ele><time>2026-04-26T18:00:07Z</time></trkpt><trkpt lat="43.1205547952114" lon="12.38344087399419"><ele>463.66666666666663</ele><time>2026-04-26T18:00:08Z</time></trkpt><trkpt lat="43.12045421796541" lon="12.38334190627278"><ele>466.0</ele><time>2026-04-26T18:00:10Z</time></trkpt><trkpt lat="43.120388010429764" lon="12.383307656534427"><ele>468.3333333333333</ele><time>2026-04-26T18:00:11Z</time></trkpt><trkpt lat="43.12032402681424" lon="12.38330360721957"><ele>470.66666666666663</ele><time>2026-04-26T18:00:13Z</time></trkpt><trkpt lat="43.120305393015926" lon="12.383196452488853"><ele>473.0</ele><time>2026-04-26T18:00:16Z</time></trkpt><trkpt lat="43.120375077485185" lon="12.383076408144916"><ele>473.0</ele><time>2026-04-26T18:00:17Z</time></trkpt><trkpt lat="43.12042002005559" lon="12.38298147577229"><ele>472.99999999999994</ele><time>2026-04-26T18:00:18Z</time></trkpt><trkpt lat="43.12046627079359" lon="12.38287823279858"><ele>472.99999999999994</ele><time>2026-04-26T18:00:19Z</time></trkpt><trkpt lat="43.12052246205168" lon="12.382759294891159"><ele>473.0</ele><time>2026-04-26T18:00:20Z</time></trkpt><trkpt lat="43.1205831717095" lon="12.38265821129497"><ele>473.0</ele><time>2026-04-26T18:00:21Z</time></trkpt><trkpt lat="43.12066113244461" lon="12.382547062666708"><ele>472.75</ele><time>2026-04-26T18:00:22Z</time></trkpt><trkpt lat="43.12073684299873" lon="12.382448969921679"><ele>472.5</ele><time>2026-04-26T18:00:23Z</time></trkpt><trkpt lat="43.120890935359654" lon="12.382328384875054"><ele>472.25</ele><time>2026-04-26T18:00:24Z</time></trkpt><trkpt lat="43.120998041460695" lon="12.382267171280628"><ele>472.0</ele><time>2026-04-26T18:00:25Z</time></trkpt><trkpt lat="43.12112681607327" lon="12.382215130205772"><ele>476.25</ele><time>2026-04-26T18:00:26Z</time></trkpt><trkpt lat="43.12125550846333" lon="12.382155466433796"><ele>480.5</ele><time>2026-04-26T18:00:27Z</time></trkpt><trkpt lat="43.121353271368264" lon="12.382097582643441"><ele>484.75</ele><time>2026-04-26T18:00:28Z</time></trkpt><trkpt lat="43.12145224752739" lon="12.382022816718964"><ele>489.0</ele><time>2026-04-26T18:00:29Z</time></trkpt><trkpt lat="43.12153284641216" lon="12.381950708835273"><ele>488.6</ele><time>2026-04-26T18:00:30Z</time></trkpt><trkpt lat="43.12160445858641" lon="12.381867128793381"><ele>488.2</ele><time>2026-04-26T18:00:31Z</time></trkpt><trkpt lat="43.12167505878271" lon="12.381776706014943"><ele>487.80000000000007</ele><time>2026-04-26T18:00:32Z</time></trkpt><trkpt lat="43.121743625327866" lon="12.38167738118639"><ele>487.40000000000003</ele><time>2026-04-26T18:00:33Z</time></trkpt><trkpt lat="43.12180437024639" lon="12.381575009551888"><ele>487.0</ele><time>2026-04-26T18:00:34Z</time></trkpt><trkpt lat="43.12188453565218" lon="12.381484250026535"><ele>487.0</ele><time>2026-04-26T18:00:35Z</time></trkpt><trkpt lat="43.121949241391285" lon="12.381395980938732"><ele>487.00000000000006</ele><time>2026-04-26T18:00:36Z</time></trkpt><trkpt lat="43.122013236404705" lon="12.381290404171045"><ele>487.00000000000006</ele><time>2026-04-26T18:00:37Z</time></trkpt><trkpt lat="43.12205420136133" lon="12.381143949800386"><ele>487.0</ele><time>2026-04-26T18:00:38Z</time></trkpt><trkpt lat="43.12210075067715" lon="12.38102694536055"><ele>487.0</ele><time>2026-04-26T18:00:39Z</time></trkpt><trkpt lat="43.12210763125945" lon="12.380931907795125"><ele>486.33333333333337</ele><time>2026-04-26T18:00:40Z</time></trkpt><trkpt lat="43.12216307712627" lon="12.380792855522799"><ele>485.6666666666667</ele><time>2026-04-26T18:00:42Z</time></trkpt><trkpt lat="43.12220305200085" lon="12.380696662268141"><ele>485.0</ele><time>2026-04-26T18:00:44Z</time></trkpt><trkpt lat="43.12223350117829" lon="12.380585938475857"><ele>484.33333333333337</ele><time>2026-04-26T18:00:46Z</time></trkpt><trkpt lat="43.12227170601401" lon="12.380510754540888"><ele>483.6666666666667</ele><time>2026-04-26T18:00:47Z</time></trkpt><trkpt lat="43.122322286739205" lon="12.380413067383406"><ele>483.0</ele><time>2026-04-26T18:00:48Z</time></trkpt><trkpt lat="43.12239134690926" lon="12.380255419441868"><ele>484.0</ele><time>2026-04-26T18:00:49Z</time></trkpt><trkpt lat="43.12246009948085" lon="12.38012412310789"><ele>485.0</ele><time>2026-04-26T18:00:50Z</time></trkpt><trkpt lat="43.12254629144941" lon="12.379991114704486"><ele>486.0</ele><time>2026-04-26T18:00:51Z</time></trkpt><trkpt lat="43.12262226090627" lon="12.379828871239692"><ele>487.0</ele><time>2026-04-26T18:00:52Z</time></trkpt><trkpt lat="43.12270168215766" lon="12.379669873233624"><ele>484.25</ele><time>2026-04-26T18:00:53Z</time></trkpt><trkpt lat="43.12278530969989" lon="12.379508026099074"><ele>481.5</ele><time>2026-04-26T18:00:54Z</time></trkpt><trkpt lat="43.12286672553491" lon="12.379363420266598"><ele>478.75</ele><time>2026-04-26T18:00:55Z</time></trkpt><trkpt lat="43.122963260881576" lon="12.379222591177925"><ele>476.0</ele><time>2026-04-26T18:00:56Z</time></trkpt><trkpt lat="43.12306527420137" lon="12.379100961659102"><ele>476.0</ele><time>2026-04-26T18:00:57Z</time></trkpt><trkpt lat="43.12319039169238" lon="12.378963509638806"><ele>476.0</ele><time>2026-04-26T18:00:58Z</time></trkpt><trkpt lat="43.123302361117965" lon="12.378818795490227"><ele>476.0</ele><time>2026-04-26T18:00:59Z</time></trkpt><trkpt lat="43.123414167168335" lon="12.378694804053127"><ele>473.5</ele><time>2026-04-26T18:01:00Z</time></trkpt><trkpt lat="43.12354307292472" lon="12.378582990198762"><ele>471.0</ele><time>2026-04-26T18:01:01Z</time></trkpt><trkpt lat="43.12364683062347" lon="12.378461041095813"><ele>468.5</ele><time>2026-04-26T18:01:02Z</time></trkpt><trkpt lat="43.12372124822771" lon="12.378306822797393"><ele>466.0</ele><time>2026-04-26T18:01:03Z</time></trkpt><trkpt lat="43.123793059063324" lon="12.378133282011543"><ele>461.5</ele><time>2026-04-26T18:01:04Z</time></trkpt><trkpt lat="43.12385423348217" lon="12.37794901664314"><ele>457.0</ele><time>2026-04-26T18:01:05Z</time></trkpt><trkpt lat="43.123892934078285" lon="12.377763961002252"><ele>452.5</ele><time>2026-04-26T18:01:06Z</time></trkpt><trkpt lat="43.12394612369429" lon="12.37757848526994"><ele>448.0</ele><time>2026-04-26T18:01:07Z</time></trkpt><trkpt lat="43.12398456846445" lon="12.377402295828475"><ele>448.0</ele><time>2026-04-26T18:01:08Z</time></trkpt><trkpt lat="43.12403984840563" lon="12.377257073371306"><ele>447.99999999999994</ele><time>2026-04-26T18:01:09Z</time></trkpt><trkpt lat="43.12407820815817" lon="12.377115665085094"><ele>447.99999999999994</ele><time>2026-04-26T18:01:10Z</time></trkpt><trkpt lat="43.124126639664546" lon="12.376985495341348"><ele>448.0</ele><time>2026-04-26T18:01:11Z</time></trkpt><trkpt lat="43.124191473312095" lon="12.376873086049141"><ele>448.0</ele><time>2026-04-26T18:01:12Z</time></trkpt><trkpt lat="43.12429311197257" lon="12.376807836385318"><ele>449.0</ele><time>2026-04-26T18:01:13Z</time></trkpt><trkpt lat="43.12442838464717" lon="12.37675306359337"><ele>450.0</ele><time>2026-04-26T18:01:14Z</time></trkpt><trkpt lat="43.12457860183449" lon="12.376695362553809"><ele>451.0</ele><time>2026-04-26T18:01:15Z</time></trkpt><trkpt lat="43.124741418279115" lon="12.376630634557731"><ele>449.6666666666667</ele><time>2026-04-26T18:01:16Z</time></trkpt><trkpt lat="43.12491485917544" lon="12.37656683729231"><ele>448.33333333333337</ele><time>2026-04-26T18:01:17Z</time></trkpt><trkpt lat="43.12509578000649" lon="12.376496504426093"><ele>447.0</ele><time>2026-04-26T18:01:18Z</time></trkpt><trkpt lat="43.12527239113748" lon="12.3764225018075"><ele>447.0</ele><time>2026-04-26T18:01:19Z</time></trkpt><trkpt lat="43.12544857258832" lon="12.376353896951814"><ele>447.0</ele><time>2026-04-26T18:01:20Z</time></trkpt><trkpt lat="43.12561471424083" lon="12.376272256693307"><ele>447.0</ele><time>2026-04-26T18:01:21Z</time></trkpt><trkpt lat="43.12578048645593" lon="12.376210545576212"><ele>442.0</ele><time>2026-04-26T18:01:22Z</time></trkpt><trkpt lat="43.12594093482007" lon="12.37615160615083"><ele>437.0</ele><time>2026-04-26T18:01:23Z</time></trkpt><trkpt lat="43.126089116476884" lon="12.376094849703783"><ele>432.0</ele><time>2026-04-26T18:01:24Z</time></trkpt><trkpt lat="43.126222819954926" lon="12.376043763260016"><ele>432.0</ele><time>2026-04-26T18:01:25Z</time></trkpt><trkpt lat="43.12634528477846" lon="12.376000889818934"><ele>432.0</ele><time>2026-04-26T18:01:26Z</time></trkpt><trkpt lat="43.126470050459574" lon="12.37597546788032"><ele>432.0</ele><time>2026-04-26T18:01:27Z</time></trkpt><trkpt lat="43.12658195667743" lon="12.37593540660861"><ele>432.0</ele><time>2026-04-26T18:01:28Z</time></trkpt><trkpt lat="43.126689964453256" lon="12.375893912817805"><ele>432.8</ele><time>2026-04-26T18:01:29Z</time></trkpt><trkpt lat="43.126792752578915" lon="12.375842074976564"><ele>433.6</ele><time>2026-04-26T18:01:30Z</time></trkpt><trkpt lat="43.12688672676235" lon="12.375785825062886"><ele>434.40000000000003</ele><time>2026-04-26T18:01:31Z</time></trkpt><trkpt lat="43.12699025061041" lon="12.375724051323001"><ele>435.20000000000005</ele><time>2026-04-26T18:01:32Z</time></trkpt><trkpt lat="43.127071651926315" lon="12.375644100561598"><ele>436.0</ele><time>2026-04-26T18:01:33Z</time></trkpt><trkpt lat="43.127148378864" lon="12.375552395763215"><ele>435.75</ele><time>2026-04-26T18:01:34Z</time></trkpt><trkpt lat="43.12720264326057" lon="12.375460681839547"><ele>435.5</ele><time>2026-04-26T18:01:35Z</time></trkpt><trkpt lat="43.12727529349362" lon="12.375316802312339"><ele>435.25</ele><time>2026-04-26T18:01:36Z</time></trkpt><trkpt lat="43.12732581531215" lon="12.375122968658122"><ele>435.0</ele><time>2026-04-26T18:01:37Z</time></trkpt><trkpt lat="43.127382330418186" lon="12.374961042320056"><ele>435.75</ele><time>2026-04-26T18:01:38Z</time></trkpt><trkpt lat="43.12744084367382" lon="12.37478208743516"><ele>436.5</ele><time>2026-04-26T18:01:39Z</time></trkpt><trkpt lat="43.12750531001822" lon="12.374605343422703"><ele>437.25</ele><time>2026-04-26T18:01:40Z</time></trkpt><trkpt lat="43.12759685098922" lon="12.374444914173967"><ele>438.0</ele><time>2026-04-26T18:01:41Z</time></trkpt><trkpt lat="43.12765681123886" lon="12.37427349539656"><ele>439.0</ele><time>2026-04-26T18:01:42Z</time></trkpt><trkpt lat="43.12773550898489" lon="12.374098470611493"><ele>440.0</ele><time>2026-04-26T18:01:43Z</time></trkpt><trkpt lat="43.12781255379409" lon="12.37390903625296"><ele>441.0</ele><time>2026-04-26T18:01:44Z</time></trkpt><trkpt lat="43.12788063327914" lon="12.373735686753205"><ele>440.25</ele><time>2026-04-26T18:01:45Z</time></trkpt><trkpt lat="43.12796559867558" lon="12.373595948084537"><ele>439.5</ele><time>2026-04-26T18:01:46Z</time></trkpt><trkpt lat="43.128043012671995" lon="12.373454733242598"><ele>438.75</ele><time>2026-04-26T18:01:47Z</time></trkpt><trkpt lat="43.12813654067212" lon="12.373354305687474"><ele>438.0</ele><time>2026-04-26T18:01:48Z</time></trkpt><trkpt lat="43.12825888945701" lon="12.373278883323463"><ele>438.0</ele><time>2026-04-26T18:01:49Z</time></trkpt><trkpt lat="43.1283974120206" lon="12.37326921025233"><ele>438.0</ele><time>2026-04-26T18:01:50Z</time></trkpt><trkpt lat="43.12853111863466" lon="12.373205323930321"><ele>438.0</ele><time>2026-04-26T18:01:51Z</time></trkpt><trkpt lat="43.128650753098306" lon="12.373124238074597"><ele>438.0</ele><time>2026-04-26T18:01:52Z</time></trkpt><trkpt lat="43.128782132876935" lon="12.373026314681535"><ele>440.25</ele><time>2026-04-26T18:01:53Z</time></trkpt><trkpt lat="43.128915436804846" lon="12.37292395167823"><ele>442.5</ele><time>2026-04-26T18:01:54Z</time></trkpt><trkpt lat="43.12903619114775" lon="12.37282542251354"><ele>444.75</ele><time>2026-04-26T18:01:55Z</time></trkpt><trkpt lat="43.129155825382334" lon="12.372716311739813"><ele>447.0</ele><time>2026-04-26T18:01:56Z</time></trkpt><trkpt lat="43.12928526194256" lon="12.372598717649764"><ele>447.0</ele><time>2026-04-26T18:01:57Z</time></trkpt><trkpt lat="43.12940760291984" lon="12.372498501874361"><ele>447.0</ele><time>2026-04-26T18:01:58Z</time></trkpt><trkpt lat="43.12951190295936" lon="12.37239010790915"><ele>447.0</ele><time>2026-04-26T18:01:59Z</time></trkpt><trkpt lat="43.12961485107558" lon="12.372288901166618"><ele>447.0</ele><time>2026-04-26T18:02:00Z</time></trkpt><trkpt lat="43.12969855882225" lon="12.372177797057097"><ele>445.25</ele><time>2026-04-26T18:02:01Z</time></trkpt><trkpt lat="43.129766456205786" lon="12.372040007917828"><ele>443.5</ele><time>2026-04-26T18:02:02Z</time></trkpt><trkpt lat="43.129827350123136" lon="12.37186506719738"><ele>441.75</ele><time>2026-04-26T18:02:03Z</time></trkpt><trkpt lat="43.129883345004544" lon="12.371629786977008"><ele>440.0</ele><time>2026-04-26T18:02:04Z</time></trkpt><trkpt lat="43.12993922616718" lon="12.371403374066064"><ele>443.0</ele><time>2026-04-26T18:02:05Z</time></trkpt><trkpt lat="43.12999161567526" lon="12.371171993865143"><ele>446.0</ele><time>2026-04-26T18:02:06Z</time></trkpt><trkpt lat="43.13004063986954" lon="12.370941414870144"><ele>449.0</ele><time>2026-04-26T18:02:07Z</time></trkpt><trkpt lat="43.13010003528304" lon="12.370711226835253"><ele>450.0</ele><time>2026-04-26T18:02:08Z</time></trkpt><trkpt lat="43.13015377224828" lon="12.370476063481904"><ele>451.0</ele><time>2026-04-26T18:02:09Z</time></trkpt><trkpt lat="43.1301905871678" lon="12.370244692169358"><ele>452.0</ele><time>2026-04-26T18:02:10Z</time></trkpt><trkpt lat="43.130218342361765" lon="12.370010869893118"><ele>452.0</ele><time>2026-04-26T18:02:11Z</time></trkpt><trkpt lat="43.130217601605025" lon="12.369796710992716"><ele>452.0</ele><time>2026-04-26T18:02:12Z</time></trkpt><trkpt lat="43.13020565090756" lon="12.369564913507505"><ele>452.0</ele><time>2026-04-26T18:02:13Z</time></trkpt><trkpt lat="43.13019602563251" lon="12.369348742725311"><ele>452.66666666666663</ele><time>2026-04-26T18:02:14Z</time></trkpt><trkpt lat="43.1302476878081" lon="12.36910673726344"><ele>453.33333333333337</ele><time>2026-04-26T18:02:15Z</time></trkpt><trkpt lat="43.130254708154354" lon="12.36890114879545"><ele>454.0</ele><time>2026-04-26T18:02:16Z</time></trkpt><trkpt lat="43.13030431241695" lon="12.3686808318058"><ele>452.0</ele><time>2026-04-26T18:02:17Z</time></trkpt><trkpt lat="43.13035262290737" lon="12.368459517931292"><ele>450.0</ele><time>2026-04-26T18:02:18Z</time></trkpt><trkpt lat="43.13041621643271" lon="12.368247105109363"><ele>448.0</ele><time>2026-04-26T18:02:19Z</time></trkpt><trkpt lat="43.13047632193294" lon="12.36804824167288"><ele>447.0</ele><time>2026-04-26T18:02:20Z</time></trkpt><trkpt lat="43.130554542023845" lon="12.367838087430945"><ele>446.0</ele><time>2026-04-26T18:02:21Z</time></trkpt><trkpt lat="43.13063033945692" lon="12.36762492478901"><ele>445.0</ele><time>2026-04-26T18:02:22Z</time></trkpt><trkpt lat="43.13072248466875" lon="12.367425487180354"><ele>449.0</ele><time>2026-04-26T18:02:23Z</time></trkpt><trkpt lat="43.13081334403895" lon="12.36721852361675"><ele>453.0</ele><time>2026-04-26T18:02:24Z</time></trkpt><trkpt lat="43.13091000406002" lon="12.36703896465019"><ele>457.0</ele><time>2026-04-26T18:02:25Z</time></trkpt><trkpt lat="43.13098916645083" lon="12.366860785164468"><ele>457.0</ele><time>2026-04-26T18:02:26Z</time></trkpt><trkpt lat="43.13107207796937" lon="12.366699086119521"><ele>457.0</ele><time>2026-04-26T18:02:27Z</time></trkpt><trkpt lat="43.13117150030638" lon="12.366535491802972"><ele>457.0</ele><time>2026-04-26T18:02:28Z</time></trkpt><trkpt lat="43.131250031758654" lon="12.366364788884452"><ele>457.0</ele><time>2026-04-26T18:02:29Z</time></trkpt><trkpt lat="43.131335132789765" lon="12.366183283602295"><ele>454.6666666666667</ele><time>2026-04-26T18:02:30Z</time></trkpt><trkpt lat="43.13140138671789" lon="12.365987037133241"><ele>452.33333333333337</ele><time>2026-04-26T18:02:31Z</time></trkpt><trkpt lat="43.13145757461559" lon="12.365792535082708"><ele>450.0</ele><time>2026-04-26T18:02:32Z</time></trkpt><trkpt lat="43.13149209788703" lon="12.365588736368688"><ele>447.25</ele><time>2026-04-26T18:02:33Z</time></trkpt><trkpt lat="43.13151722474118" lon="12.365392458643292"><ele>444.5</ele><time>2026-04-26T18:02:34Z</time></trkpt><trkpt lat="43.131539191485125" lon="12.365191783424923"><ele>441.75</ele><time>2026-04-26T18:02:35Z</time></trkpt><trkpt lat="43.13159996466834" lon="12.365013377952973"><ele>439.0</ele><time>2026-04-26T18:02:36Z</time></trkpt><trkpt lat="43.13167276041965" lon="12.364821362551256"><ele>434.6666666666667</ele><time>2026-04-26T18:02:37Z</time></trkpt><trkpt lat="43.13175639488906" lon="12.364615322391375"><ele>430.33333333333337</ele><time>2026-04-26T18:02:38Z</time></trkpt><trkpt lat="43.13185479215821" lon="12.36442230284656"><ele>426.0</ele><time>2026-04-26T18:02:39Z</time></trkpt><trkpt lat="43.131928563744914" lon="12.364236051697674"><ele>426.0</ele><time>2026-04-26T18:02:40Z</time></trkpt><trkpt lat="43.1319918811279" lon="12.364066054577531"><ele>426.0</ele><time>2026-04-26T18:02:41Z</time></trkpt><trkpt lat="43.13205444536903" lon="12.363892184713151"><ele>426.0</ele><time>2026-04-26T18:02:42Z</time></trkpt><trkpt lat="43.1321051548643" lon="12.363728192454184"><ele>426.0</ele><time>2026-04-26T18:02:43Z</time></trkpt><trkpt lat="43.132162354136995" lon="12.363556334249251"><ele>424.75</ele><time>2026-04-26T18:02:44Z</time></trkpt><trkpt lat="43.13222043490693" lon="12.363396585836044"><ele>423.5</ele><time>2026-04-26T18:02:45Z</time></trkpt><trkpt lat="43.13228193594193" lon="12.36323191683047"><ele>422.25</ele><time>2026-04-26T18:02:46Z</time></trkpt><trkpt lat="43.13234083726855" lon="12.363086251079094"><ele>421.0</ele><time>2026-04-26T18:02:47Z</time></trkpt><trkpt lat="43.1323991397276" lon="12.362941900647392"><ele>421.00000000000006</ele><time>2026-04-26T18:02:48Z</time></trkpt><trkpt lat="43.13244579650938" lon="12.362806719812982"><ele>421.0</ele><time>2026-04-26T18:02:49Z</time></trkpt><trkpt lat="43.13250025989059" lon="12.362694569454229"><ele>421.0</ele><time>2026-04-26T18:02:50Z</time></trkpt><trkpt lat="43.13254382759971" lon="12.362614595853575"><ele>421.0</ele><time>2026-04-26T18:02:51Z</time></trkpt><trkpt lat="43.13258251230367" lon="12.362543073673463"><ele>421.00000000000006</ele><time>2026-04-26T18:02:53Z</time></trkpt><trkpt lat="43.13263704891057" lon="12.362445512108861"><ele>421.0</ele><time>2026-04-26T18:02:55Z</time></trkpt><trkpt lat="43.13254512716149" lon="12.362271786767057"><ele>420.0</ele><time>2026-04-26T18:02:56Z</time></trkpt><trkpt lat="43.13252410154643" lon="12.36213920765179"><ele>419.0</ele><time>2026-04-26T18:02:57Z</time></trkpt><trkpt lat="43.13253127978425" lon="12.361984387052777"><ele>418.0</ele><time>2026-04-26T18:02:58Z</time></trkpt><trkpt lat="43.13253288832789" lon="12.36181741932599"><ele>417.0</ele><time>2026-04-26T18:02:59Z</time></trkpt><trkpt lat="43.13253555202438" lon="12.361680821142258"><ele>416.0</ele><time>2026-04-26T18:03:00Z</time></trkpt><trkpt lat="43.132533226945995" lon="12.361552700111043"><ele>415.99999999999994</ele><time>2026-04-26T18:03:01Z</time></trkpt><trkpt lat="43.13253142998096" lon="12.36144060860915"><ele>416.0</ele><time>2026-04-26T18:03:02Z</time></trkpt><trkpt lat="43.13250820818994" lon="12.361342907583866"><ele>416.0</ele><time>2026-04-26T18:03:03Z</time></trkpt><trkpt lat="43.132454604601904" lon="12.36127953782662"><ele>416.0</ele><time>2026-04-26T18:03:04Z</time></trkpt><trkpt lat="43.13238509133251" lon="12.361260896440102"><ele>415.99999999999994</ele><time>2026-04-26T18:03:05Z</time></trkpt><trkpt lat="43.132294124590366" lon="12.361297774368843"><ele>416.0</ele><time>2026-04-26T18:03:07Z</time></trkpt><trkpt lat="43.132199816147725" lon="12.361493280632828"><ele>413.5</ele><time>2026-04-26T18:03:09Z</time></trkpt><trkpt lat="43.13213988301366" lon="12.361604016260713"><ele>411.0</ele><time>2026-04-26T18:03:10Z</time></trkpt><trkpt lat="43.13206500608706" lon="12.361721197001396"><ele>408.5</ele><time>2026-04-26T18:03:11Z</time></trkpt><trkpt lat="43.13198017383698" lon="12.361849506440558"><ele>406.0</ele><time>2026-04-26T18:03:12Z</time></trkpt><trkpt lat="43.13190042597366" lon="12.361973152556633"><ele>406.0</ele><time>2026-04-26T18:03:13Z</time></trkpt><trkpt lat="43.13181934245969" lon="12.362083932948872"><ele>406.0</ele><time>2026-04-26T18:03:14Z</time></trkpt><trkpt lat="43.13173071499603" lon="12.362167585819138"><ele>406.0</ele><time>2026-04-26T18:03:15Z</time></trkpt><trkpt lat="43.13162711704826" lon="12.362268092069547"><ele>406.0</ele><time>2026-04-26T18:03:16Z</time></trkpt><trkpt lat="43.131516510020575" lon="12.362325730571115"><ele>404.25</ele><time>2026-04-26T18:03:17Z</time></trkpt><trkpt lat="43.131414521222744" lon="12.362403783090842"><ele>402.5</ele><time>2026-04-26T18:03:18Z</time></trkpt><trkpt lat="43.13130620044524" lon="12.362426416563755"><ele>400.75</ele><time>2026-04-26T18:03:19Z</time></trkpt><trkpt lat="43.131203219477186" lon="12.362499960195237"><ele>399.0</ele><time>2026-04-26T18:03:20Z</time></trkpt><trkpt lat="43.13109036333327" lon="12.362528531370666"><ele>399.0</ele><time>2026-04-26T18:03:21Z</time></trkpt><trkpt lat="43.13098308245142" lon="12.362545157690532"><ele>399.0</ele><time>2026-04-26T18:03:22Z</time></trkpt><trkpt lat="43.130892198739396" lon="12.362547866283004"><ele>399.0</ele><time>2026-04-26T18:03:23Z</time></trkpt><trkpt lat="43.13080661947794" lon="12.362501759247598"><ele>399.0</ele><time>2026-04-26T18:03:24Z</time></trkpt><trkpt lat="43.13073708150174" lon="12.362447323424359"><ele>399.0</ele><time>2026-04-26T18:03:25Z</time></trkpt><trkpt lat="43.130650609701796" lon="12.362456302482624"><ele>397.0</ele><time>2026-04-26T18:03:26Z</time></trkpt><trkpt lat="43.13055741793974" lon="12.362486418379067"><ele>395.0</ele><time>2026-04-26T18:03:27Z</time></trkpt><trkpt lat="43.130514700499255" lon="12.362644196673173"><ele>393.0</ele><time>2026-04-26T18:03:28Z</time></trkpt><trkpt lat="43.13044485829774" lon="12.36276569296332"><ele>391.0</ele><time>2026-04-26T18:03:29Z</time></trkpt><trkpt lat="43.130332467427976" lon="12.362852342131422"><ele>391.0</ele><time>2026-04-26T18:03:30Z</time></trkpt><trkpt lat="43.13021951886121" lon="12.362932869053735"><ele>391.0</ele><time>2026-04-26T18:03:31Z</time></trkpt><trkpt lat="43.130095581189046" lon="12.363006342023658"><ele>391.0</ele><time>2026-04-26T18:03:32Z</time></trkpt><trkpt lat="43.12996869079178" lon="12.363071767384715"><ele>391.0</ele><time>2026-04-26T18:03:33Z</time></trkpt><trkpt lat="43.12984391484456" lon="12.363134641683047"><ele>392.5</ele><time>2026-04-26T18:03:34Z</time></trkpt><trkpt lat="43.12972790013027" lon="12.36318674148757"><ele>394.0</ele><time>2026-04-26T18:03:35Z</time></trkpt><trkpt lat="43.12961785604188" lon="12.363238469673544"><ele>395.5</ele><time>2026-04-26T18:03:36Z</time></trkpt><trkpt lat="43.12951718820228" lon="12.36329469723036"><ele>397.0</ele><time>2026-04-26T18:03:37Z</time></trkpt><trkpt lat="43.1294042175895" lon="12.363328169295102"><ele>397.0</ele><time>2026-04-26T18:03:38Z</time></trkpt><trkpt lat="43.129294005524784" lon="12.363384098278337"><ele>397.0</ele><time>2026-04-26T18:03:39Z</time></trkpt><trkpt lat="43.12919537421834" lon="12.363420372770552"><ele>397.0</ele><time>2026-04-26T18:03:40Z</time></trkpt><trkpt lat="43.1291000405687" lon="12.363492324828822"><ele>397.0</ele><time>2026-04-26T18:03:41Z</time></trkpt><trkpt lat="43.128995004541466" lon="12.363548838781934"><ele>397.0</ele><time>2026-04-26T18:03:42Z</time></trkpt><trkpt lat="43.12891013430142" lon="12.363579693595916"><ele>397.20000000000005</ele><time>2026-04-26T18:03:43Z</time></trkpt><trkpt lat="43.12877216384947" lon="12.36367427648172"><ele>397.4</ele><time>2026-04-26T18:03:44Z</time></trkpt><trkpt lat="43.12867972266367" lon="12.36370964709785"><ele>397.6</ele><time>2026-04-26T18:03:45Z</time></trkpt><trkpt lat="43.12859976675623" lon="12.363756657360469"><ele>397.79999999999995</ele><time>2026-04-26T18:03:46Z</time></trkpt><trkpt lat="43.12851981616329" lon="12.363811360173802"><ele>398.0</ele><time>2026-04-26T18:03:48Z</time></trkpt><trkpt lat="43.12846062457492" lon="12.36384258951653"><ele>398.79999999999995</ele><time>2026-04-26T18:03:50Z</time></trkpt><trkpt lat="43.12838276064399" lon="12.363863595614593"><ele>399.6</ele><time>2026-04-26T18:03:52Z</time></trkpt><trkpt lat="43.128485877219106" lon="12.364036556896751"><ele>400.4</ele><time>2026-04-26T18:03:53Z</time></trkpt><trkpt lat="43.12849860875033" lon="12.364135251206404"><ele>401.20000000000005</ele><time>2026-04-26T18:03:54Z</time></trkpt><trkpt lat="43.12854334111791" lon="12.364228694748478"><ele>402.0</ele><time>2026-04-26T18:03:55Z</time></trkpt><trkpt lat="43.12857158759325" lon="12.364338991528596"><ele>402.0</ele><time>2026-04-26T18:03:56Z</time></trkpt><trkpt lat="43.128601060927394" lon="12.364446130800522"><ele>402.0</ele><time>2026-04-26T18:03:57Z</time></trkpt><trkpt lat="43.12861894167615" lon="12.364554922022831"><ele>402.0</ele><time>2026-04-26T18:03:58Z</time></trkpt><trkpt lat="43.12864187640891" lon="12.36464559854999"><ele>402.0</ele><time>2026-04-26T18:03:59Z</time></trkpt><trkpt lat="43.12883464244147" lon="12.364664854353181"><ele>402.0</ele><time>2026-04-26T18:04:01Z</time></trkpt><trkpt lat="43.128910224914584" lon="12.36461537504885"><ele>402.0</ele><time>2026-04-26T18:04:02Z</time></trkpt><trkpt lat="43.128972848857" lon="12.36457389342147"><ele>402.0</ele><time>2026-04-26T18:04:03Z</time></trkpt><trkpt lat="43.12907034760614" lon="12.364536699801796"><ele>402.0</ele><time>2026-04-26T18:04:05Z</time></trkpt><trkpt lat="43.12904386470754" lon="12.364346642806026"><ele>402.0</ele><time>2026-04-26T18:04:08Z</time></trkpt><trkpt lat="43.12900640202675" lon="12.36426671985366"><ele>402.0</ele><time>2026-04-26T18:04:10Z</time></trkpt><trkpt lat="43.12897648629222" lon="12.364188121897643"><ele>402.0</ele><time>2026-04-26T18:04:12Z</time></trkpt><trkpt lat="43.12908049453802" lon="12.364105852847738"><ele>402.0</ele><time>2026-04-26T18:04:52Z</time></trkpt><trkpt lat="43.12914792269243" lon="12.364047878468051"><ele>402.0</ele><time>2026-04-26T18:06:07Z</time></trkpt><trkpt lat="43.12921816766993" lon="12.364010051417056"><ele>402.0</ele><time>2026-04-26T18:06:09Z</time></trkpt><trkpt lat="43.129303060826956" lon="12.363953343710493"><ele>402.0</ele><time>2026-04-26T18:06:14Z</time></trkpt><trkpt lat="43.12935886460034" lon="12.363898708621898"><ele>402.0</ele><time>2026-04-26T18:06:18Z</time></trkpt><trkpt lat="43.129428360297844" lon="12.36385491842296"><ele>402.0</ele><time>2026-04-26T18:06:21Z</time></trkpt><trkpt lat="43.12948981492004" lon="12.363833144017807"><ele>402.0</ele><time>2026-04-26T18:06:23Z</time></trkpt><trkpt lat="43.129249278333525" lon="12.364030107745014"><ele>402.0</ele><time>2026-04-26T18:06:25Z</time></trkpt><trkpt lat="43.12903342664681" lon="12.364090639108305"><ele>402.0</ele><time>2026-04-26T18:06:47.506Z</time></trkpt><trkpt lat="43.1289934761349" lon="12.363875753005543"><ele>402.0</ele><time>2026-04-26T18:08:40Z</time></trkpt></trkseg></trk></gpx>